<?xml version="1.0" encoding="UTF-8" standalone="no" ?>
<gpx xmlns="http://www.topografix.com/GPX/1/1" xmlns:xsi="http://www.w3.org/2001/XMLSchema-instance" xsi:schemaLocation="http://www.topografix.com/GPX/1/1 http://www.topografix.com/GPX/1/1/gpx.xsd" version="1.1" creator="VisuGPX - https://www.visugpx.com">
  <metadata>
    <name>Cerny</name>
  </metadata>
  <trk>
    <name><![CDATA[Sortie vélo le matin_1]]></name>
    <extensions>
      <line xmlns="http://www.topografix.com/GPX/gpx_style/0/2">
        <color>0000FF</color>
        <width>4</width>
      </line>
    </extensions>
    <trkseg>
      <trkpt lat="48.62258" lon="2.01829">
        <ele>126</ele>
        <time>2026-02-02T09:51:34Z</time>
      </trkpt>
      <trkpt lat="48.62258" lon="2.01829">
        <ele>126</ele>
        <time>2026-02-02T09:51:35Z</time>
      </trkpt>
      <trkpt lat="48.62256" lon="2.0183">
        <ele>125</ele>
        <time>2026-02-02T09:51:36Z</time>
      </trkpt>
      <trkpt lat="48.62254" lon="2.01833">
        <ele>124.8</ele>
        <time>2026-02-02T09:51:37Z</time>
      </trkpt>
      <trkpt lat="48.62252" lon="2.01835">
        <ele>124.8</ele>
        <time>2026-02-02T09:51:38Z</time>
      </trkpt>
      <trkpt lat="48.6225" lon="2.01838">
        <ele>124.8</ele>
        <time>2026-02-02T09:51:39Z</time>
      </trkpt>
      <trkpt lat="48.62249" lon="2.01841">
        <ele>124.4</ele>
        <time>2026-02-02T09:51:40Z</time>
      </trkpt>
      <trkpt lat="48.62248" lon="2.01845">
        <ele>124.6</ele>
        <time>2026-02-02T09:51:41Z</time>
      </trkpt>
      <trkpt lat="48.62248" lon="2.01849">
        <ele>124.6</ele>
        <time>2026-02-02T09:51:42Z</time>
      </trkpt>
      <trkpt lat="48.62249" lon="2.01853">
        <ele>124.6</ele>
        <time>2026-02-02T09:51:43Z</time>
      </trkpt>
      <trkpt lat="48.6225" lon="2.01857">
        <ele>124.6</ele>
        <time>2026-02-02T09:51:44Z</time>
      </trkpt>
      <trkpt lat="48.62251" lon="2.01861">
        <ele>124.6</ele>
        <time>2026-02-02T09:51:45Z</time>
      </trkpt>
      <trkpt lat="48.62252" lon="2.01866">
        <ele>124.6</ele>
        <time>2026-02-02T09:51:46Z</time>
      </trkpt>
      <trkpt lat="48.62252" lon="2.0187">
        <ele>124.6</ele>
        <time>2026-02-02T09:51:47Z</time>
      </trkpt>
      <trkpt lat="48.62251" lon="2.01873">
        <ele>124.6</ele>
        <time>2026-02-02T09:51:48Z</time>
      </trkpt>
      <trkpt lat="48.62249" lon="2.01875">
        <ele>124.8</ele>
        <time>2026-02-02T09:51:49Z</time>
      </trkpt>
      <trkpt lat="48.62246" lon="2.01876">
        <ele>124.8</ele>
        <time>2026-02-02T09:51:50Z</time>
      </trkpt>
      <trkpt lat="48.62244" lon="2.01876">
        <ele>124.8</ele>
        <time>2026-02-02T09:51:51Z</time>
      </trkpt>
      <trkpt lat="48.62242" lon="2.01876">
        <ele>124.8</ele>
        <time>2026-02-02T09:51:52Z</time>
      </trkpt>
      <trkpt lat="48.62239" lon="2.01876">
        <ele>124.6</ele>
        <time>2026-02-02T09:51:53Z</time>
      </trkpt>
      <trkpt lat="48.62238" lon="2.01877">
        <ele>124.6</ele>
        <time>2026-02-02T09:51:54Z</time>
      </trkpt>
      <trkpt lat="48.62236" lon="2.01878">
        <ele>124.6</ele>
        <time>2026-02-02T09:51:55Z</time>
      </trkpt>
      <trkpt lat="48.62235" lon="2.0188">
        <ele>124.6</ele>
        <time>2026-02-02T09:51:56Z</time>
      </trkpt>
      <trkpt lat="48.62234" lon="2.01881">
        <ele>124.6</ele>
        <time>2026-02-02T09:51:57Z</time>
      </trkpt>
      <trkpt lat="48.62233" lon="2.01882">
        <ele>124.6</ele>
        <time>2026-02-02T09:51:58Z</time>
      </trkpt>
      <trkpt lat="48.62232" lon="2.01883">
        <ele>124.4</ele>
        <time>2026-02-02T09:52:13Z</time>
      </trkpt>
      <trkpt lat="48.62231" lon="2.01884">
        <ele>124.4</ele>
        <time>2026-02-02T09:52:14Z</time>
      </trkpt>
      <trkpt lat="48.6223" lon="2.0189">
        <ele>124.4</ele>
        <time>2026-02-02T09:52:15Z</time>
      </trkpt>
      <trkpt lat="48.62228" lon="2.01895">
        <ele>124.4</ele>
        <time>2026-02-02T09:52:16Z</time>
      </trkpt>
      <trkpt lat="48.62226" lon="2.01901">
        <ele>124.2</ele>
        <time>2026-02-02T09:52:17Z</time>
      </trkpt>
      <trkpt lat="48.62225" lon="2.01907">
        <ele>124.2</ele>
        <time>2026-02-02T09:52:18Z</time>
      </trkpt>
      <trkpt lat="48.62223" lon="2.01914">
        <ele>124.2</ele>
        <time>2026-02-02T09:52:19Z</time>
      </trkpt>
      <trkpt lat="48.62221" lon="2.0192">
        <ele>123.6</ele>
        <time>2026-02-02T09:52:20Z</time>
      </trkpt>
      <trkpt lat="48.6222" lon="2.01927">
        <ele>123.4</ele>
        <time>2026-02-02T09:52:21Z</time>
      </trkpt>
      <trkpt lat="48.62218" lon="2.01935">
        <ele>123.4</ele>
        <time>2026-02-02T09:52:22Z</time>
      </trkpt>
      <trkpt lat="48.62217" lon="2.01942">
        <ele>123.4</ele>
        <time>2026-02-02T09:52:23Z</time>
      </trkpt>
      <trkpt lat="48.62215" lon="2.0195">
        <ele>123.2</ele>
        <time>2026-02-02T09:52:24Z</time>
      </trkpt>
      <trkpt lat="48.62214" lon="2.0196">
        <ele>123.2</ele>
        <time>2026-02-02T09:52:25Z</time>
      </trkpt>
      <trkpt lat="48.62213" lon="2.01968">
        <ele>123.2</ele>
        <time>2026-02-02T09:52:26Z</time>
      </trkpt>
      <trkpt lat="48.62212" lon="2.01976">
        <ele>123.2</ele>
        <time>2026-02-02T09:52:27Z</time>
      </trkpt>
      <trkpt lat="48.62212" lon="2.01985">
        <ele>123.2</ele>
        <time>2026-02-02T09:52:28Z</time>
      </trkpt>
      <trkpt lat="48.6221" lon="2.01993">
        <ele>122.8</ele>
        <time>2026-02-02T09:52:29Z</time>
      </trkpt>
      <trkpt lat="48.62209" lon="2.02003">
        <ele>122.8</ele>
        <time>2026-02-02T09:52:30Z</time>
      </trkpt>
      <trkpt lat="48.62207" lon="2.02011">
        <ele>122.8</ele>
        <time>2026-02-02T09:52:31Z</time>
      </trkpt>
      <trkpt lat="48.62206" lon="2.02022">
        <ele>122.8</ele>
        <time>2026-02-02T09:52:32Z</time>
      </trkpt>
      <trkpt lat="48.62204" lon="2.0203">
        <ele>122.6</ele>
        <time>2026-02-02T09:52:33Z</time>
      </trkpt>
      <trkpt lat="48.62203" lon="2.02039">
        <ele>122.6</ele>
        <time>2026-02-02T09:52:34Z</time>
      </trkpt>
      <trkpt lat="48.62202" lon="2.02052">
        <ele>122.6</ele>
        <time>2026-02-02T09:52:35Z</time>
      </trkpt>
      <trkpt lat="48.62201" lon="2.02063">
        <ele>122.8</ele>
        <time>2026-02-02T09:52:36Z</time>
      </trkpt>
      <trkpt lat="48.622" lon="2.02075">
        <ele>122.6</ele>
        <time>2026-02-02T09:52:37Z</time>
      </trkpt>
      <trkpt lat="48.62199" lon="2.02086">
        <ele>122.6</ele>
        <time>2026-02-02T09:52:38Z</time>
      </trkpt>
      <trkpt lat="48.62198" lon="2.02097">
        <ele>122.6</ele>
        <time>2026-02-02T09:52:39Z</time>
      </trkpt>
      <trkpt lat="48.62197" lon="2.02107">
        <ele>122.6</ele>
        <time>2026-02-02T09:52:40Z</time>
      </trkpt>
      <trkpt lat="48.62196" lon="2.02117">
        <ele>123</ele>
        <time>2026-02-02T09:52:41Z</time>
      </trkpt>
      <trkpt lat="48.62195" lon="2.02128">
        <ele>123</ele>
        <time>2026-02-02T09:52:42Z</time>
      </trkpt>
      <trkpt lat="48.62194" lon="2.02139">
        <ele>123</ele>
        <time>2026-02-02T09:52:43Z</time>
      </trkpt>
      <trkpt lat="48.62193" lon="2.02148">
        <ele>122.8</ele>
        <time>2026-02-02T09:52:44Z</time>
      </trkpt>
      <trkpt lat="48.62192" lon="2.02158">
        <ele>122.8</ele>
        <time>2026-02-02T09:52:45Z</time>
      </trkpt>
      <trkpt lat="48.62191" lon="2.02167">
        <ele>122.8</ele>
        <time>2026-02-02T09:52:46Z</time>
      </trkpt>
      <trkpt lat="48.6219" lon="2.02176">
        <ele>122.8</ele>
        <time>2026-02-02T09:52:47Z</time>
      </trkpt>
      <trkpt lat="48.6219" lon="2.02186">
        <ele>123.2</ele>
        <time>2026-02-02T09:52:48Z</time>
      </trkpt>
      <trkpt lat="48.6219" lon="2.02196">
        <ele>122.6</ele>
        <time>2026-02-02T09:52:49Z</time>
      </trkpt>
      <trkpt lat="48.62191" lon="2.02208">
        <ele>122.6</ele>
        <time>2026-02-02T09:52:50Z</time>
      </trkpt>
      <trkpt lat="48.62192" lon="2.0222">
        <ele>122.6</ele>
        <time>2026-02-02T09:52:51Z</time>
      </trkpt>
      <trkpt lat="48.62193" lon="2.0223">
        <ele>122.8</ele>
        <time>2026-02-02T09:52:52Z</time>
      </trkpt>
      <trkpt lat="48.62194" lon="2.0224">
        <ele>122.8</ele>
        <time>2026-02-02T09:52:53Z</time>
      </trkpt>
      <trkpt lat="48.62195" lon="2.02251">
        <ele>122.8</ele>
        <time>2026-02-02T09:52:54Z</time>
      </trkpt>
      <trkpt lat="48.62195" lon="2.02261">
        <ele>122.8</ele>
        <time>2026-02-02T09:52:55Z</time>
      </trkpt>
      <trkpt lat="48.62196" lon="2.02271">
        <ele>122.8</ele>
        <time>2026-02-02T09:52:56Z</time>
      </trkpt>
      <trkpt lat="48.62197" lon="2.02282">
        <ele>122.8</ele>
        <time>2026-02-02T09:52:57Z</time>
      </trkpt>
      <trkpt lat="48.62198" lon="2.02292">
        <ele>122.8</ele>
        <time>2026-02-02T09:52:58Z</time>
      </trkpt>
      <trkpt lat="48.62199" lon="2.02304">
        <ele>122.8</ele>
        <time>2026-02-02T09:52:59Z</time>
      </trkpt>
      <trkpt lat="48.62201" lon="2.02314">
        <ele>122.8</ele>
        <time>2026-02-02T09:53:00Z</time>
      </trkpt>
      <trkpt lat="48.62202" lon="2.02325">
        <ele>122.8</ele>
        <time>2026-02-02T09:53:01Z</time>
      </trkpt>
      <trkpt lat="48.62204" lon="2.02336">
        <ele>122.8</ele>
        <time>2026-02-02T09:53:02Z</time>
      </trkpt>
      <trkpt lat="48.62206" lon="2.02346">
        <ele>122.8</ele>
        <time>2026-02-02T09:53:03Z</time>
      </trkpt>
      <trkpt lat="48.62206" lon="2.02356">
        <ele>122.6</ele>
        <time>2026-02-02T09:53:04Z</time>
      </trkpt>
      <trkpt lat="48.62206" lon="2.02366">
        <ele>122.6</ele>
        <time>2026-02-02T09:53:05Z</time>
      </trkpt>
      <trkpt lat="48.62204" lon="2.02375">
        <ele>122.6</ele>
        <time>2026-02-02T09:53:06Z</time>
      </trkpt>
      <trkpt lat="48.622" lon="2.02383">
        <ele>122.6</ele>
        <time>2026-02-02T09:53:07Z</time>
      </trkpt>
      <trkpt lat="48.62196" lon="2.02391">
        <ele>122.6</ele>
        <time>2026-02-02T09:53:08Z</time>
      </trkpt>
      <trkpt lat="48.62191" lon="2.02399">
        <ele>122.4</ele>
        <time>2026-02-02T09:53:09Z</time>
      </trkpt>
      <trkpt lat="48.62186" lon="2.02407">
        <ele>122.4</ele>
        <time>2026-02-02T09:53:10Z</time>
      </trkpt>
      <trkpt lat="48.62181" lon="2.02416">
        <ele>122.4</ele>
        <time>2026-02-02T09:53:11Z</time>
      </trkpt>
      <trkpt lat="48.62176" lon="2.02423">
        <ele>121.8</ele>
        <time>2026-02-02T09:53:12Z</time>
      </trkpt>
      <trkpt lat="48.62171" lon="2.02429">
        <ele>121.6</ele>
        <time>2026-02-02T09:53:13Z</time>
      </trkpt>
      <trkpt lat="48.62165" lon="2.02435">
        <ele>121.6</ele>
        <time>2026-02-02T09:53:14Z</time>
      </trkpt>
      <trkpt lat="48.6216" lon="2.02442">
        <ele>121.6</ele>
        <time>2026-02-02T09:53:15Z</time>
      </trkpt>
      <trkpt lat="48.62155" lon="2.02449">
        <ele>122</ele>
        <time>2026-02-02T09:53:16Z</time>
      </trkpt>
      <trkpt lat="48.6215" lon="2.02455">
        <ele>121.6</ele>
        <time>2026-02-02T09:53:17Z</time>
      </trkpt>
      <trkpt lat="48.62145" lon="2.02461">
        <ele>121.6</ele>
        <time>2026-02-02T09:53:18Z</time>
      </trkpt>
      <trkpt lat="48.6214" lon="2.02468">
        <ele>121.6</ele>
        <time>2026-02-02T09:53:19Z</time>
      </trkpt>
      <trkpt lat="48.62136" lon="2.02473">
        <ele>121.2</ele>
        <time>2026-02-02T09:53:20Z</time>
      </trkpt>
      <trkpt lat="48.6213" lon="2.02479">
        <ele>120.6</ele>
        <time>2026-02-02T09:53:21Z</time>
      </trkpt>
      <trkpt lat="48.62126" lon="2.02484">
        <ele>120.6</ele>
        <time>2026-02-02T09:53:22Z</time>
      </trkpt>
      <trkpt lat="48.6212" lon="2.0249">
        <ele>120.6</ele>
        <time>2026-02-02T09:53:23Z</time>
      </trkpt>
      <trkpt lat="48.62114" lon="2.02496">
        <ele>121</ele>
        <time>2026-02-02T09:53:24Z</time>
      </trkpt>
      <trkpt lat="48.62109" lon="2.025">
        <ele>121</ele>
        <time>2026-02-02T09:53:25Z</time>
      </trkpt>
      <trkpt lat="48.62103" lon="2.02502">
        <ele>121</ele>
        <time>2026-02-02T09:53:26Z</time>
      </trkpt>
      <trkpt lat="48.62096" lon="2.02502">
        <ele>121</ele>
        <time>2026-02-02T09:53:27Z</time>
      </trkpt>
      <trkpt lat="48.6209" lon="2.02501">
        <ele>121</ele>
        <time>2026-02-02T09:53:28Z</time>
      </trkpt>
      <trkpt lat="48.62084" lon="2.025">
        <ele>121.4</ele>
        <time>2026-02-02T09:53:29Z</time>
      </trkpt>
      <trkpt lat="48.62077" lon="2.02499">
        <ele>121.4</ele>
        <time>2026-02-02T09:53:30Z</time>
      </trkpt>
      <trkpt lat="48.62071" lon="2.02498">
        <ele>121.4</ele>
        <time>2026-02-02T09:53:31Z</time>
      </trkpt>
      <trkpt lat="48.62064" lon="2.02497">
        <ele>121</ele>
        <time>2026-02-02T09:53:32Z</time>
      </trkpt>
      <trkpt lat="48.62058" lon="2.02497">
        <ele>121</ele>
        <time>2026-02-02T09:53:33Z</time>
      </trkpt>
      <trkpt lat="48.62052" lon="2.025">
        <ele>121</ele>
        <time>2026-02-02T09:53:34Z</time>
      </trkpt>
      <trkpt lat="48.62046" lon="2.02503">
        <ele>121</ele>
        <time>2026-02-02T09:53:35Z</time>
      </trkpt>
      <trkpt lat="48.6204" lon="2.02507">
        <ele>121</ele>
        <time>2026-02-02T09:53:36Z</time>
      </trkpt>
      <trkpt lat="48.62034" lon="2.0251">
        <ele>120.4</ele>
        <time>2026-02-02T09:53:37Z</time>
      </trkpt>
      <trkpt lat="48.62027" lon="2.02514">
        <ele>120.4</ele>
        <time>2026-02-02T09:53:38Z</time>
      </trkpt>
      <trkpt lat="48.62021" lon="2.02517">
        <ele>120.4</ele>
        <time>2026-02-02T09:53:39Z</time>
      </trkpt>
      <trkpt lat="48.62016" lon="2.02521">
        <ele>120.4</ele>
        <time>2026-02-02T09:53:40Z</time>
      </trkpt>
      <trkpt lat="48.6201" lon="2.02525">
        <ele>121</ele>
        <time>2026-02-02T09:53:41Z</time>
      </trkpt>
      <trkpt lat="48.62004" lon="2.02528">
        <ele>121</ele>
        <time>2026-02-02T09:53:42Z</time>
      </trkpt>
      <trkpt lat="48.61999" lon="2.02531">
        <ele>121</ele>
        <time>2026-02-02T09:53:43Z</time>
      </trkpt>
      <trkpt lat="48.61994" lon="2.02534">
        <ele>121</ele>
        <time>2026-02-02T09:53:44Z</time>
      </trkpt>
      <trkpt lat="48.61989" lon="2.02537">
        <ele>121</ele>
        <time>2026-02-02T09:53:45Z</time>
      </trkpt>
      <trkpt lat="48.61984" lon="2.0254">
        <ele>121</ele>
        <time>2026-02-02T09:53:46Z</time>
      </trkpt>
      <trkpt lat="48.6198" lon="2.02542">
        <ele>121</ele>
        <time>2026-02-02T09:53:47Z</time>
      </trkpt>
      <trkpt lat="48.61976" lon="2.02545">
        <ele>121</ele>
        <time>2026-02-02T09:53:48Z</time>
      </trkpt>
      <trkpt lat="48.61972" lon="2.02547">
        <ele>122</ele>
        <time>2026-02-02T09:53:49Z</time>
      </trkpt>
      <trkpt lat="48.61969" lon="2.0255">
        <ele>122</ele>
        <time>2026-02-02T09:53:50Z</time>
      </trkpt>
      <trkpt lat="48.61967" lon="2.02553">
        <ele>122</ele>
        <time>2026-02-02T09:53:51Z</time>
      </trkpt>
      <trkpt lat="48.61964" lon="2.02558">
        <ele>122</ele>
        <time>2026-02-02T09:53:52Z</time>
      </trkpt>
      <trkpt lat="48.61962" lon="2.02562">
        <ele>122</ele>
        <time>2026-02-02T09:53:53Z</time>
      </trkpt>
      <trkpt lat="48.61959" lon="2.02566">
        <ele>122</ele>
        <time>2026-02-02T09:53:54Z</time>
      </trkpt>
      <trkpt lat="48.61956" lon="2.02569">
        <ele>122</ele>
        <time>2026-02-02T09:53:55Z</time>
      </trkpt>
      <trkpt lat="48.61953" lon="2.02572">
        <ele>122</ele>
        <time>2026-02-02T09:53:56Z</time>
      </trkpt>
      <trkpt lat="48.6195" lon="2.02577">
        <ele>122.6</ele>
        <time>2026-02-02T09:53:57Z</time>
      </trkpt>
      <trkpt lat="48.61946" lon="2.02582">
        <ele>122.6</ele>
        <time>2026-02-02T09:53:58Z</time>
      </trkpt>
      <trkpt lat="48.61943" lon="2.02588">
        <ele>122.6</ele>
        <time>2026-02-02T09:53:59Z</time>
      </trkpt>
      <trkpt lat="48.61939" lon="2.02594">
        <ele>122.6</ele>
        <time>2026-02-02T09:54:00Z</time>
      </trkpt>
      <trkpt lat="48.61935" lon="2.02598">
        <ele>122.6</ele>
        <time>2026-02-02T09:54:01Z</time>
      </trkpt>
      <trkpt lat="48.61932" lon="2.02601">
        <ele>122.6</ele>
        <time>2026-02-02T09:54:02Z</time>
      </trkpt>
      <trkpt lat="48.61928" lon="2.02605">
        <ele>122.6</ele>
        <time>2026-02-02T09:54:03Z</time>
      </trkpt>
      <trkpt lat="48.61924" lon="2.02607">
        <ele>121.6</ele>
        <time>2026-02-02T09:54:04Z</time>
      </trkpt>
      <trkpt lat="48.6192" lon="2.02612">
        <ele>121.8</ele>
        <time>2026-02-02T09:54:05Z</time>
      </trkpt>
      <trkpt lat="48.61916" lon="2.02621">
        <ele>121.8</ele>
        <time>2026-02-02T09:54:06Z</time>
      </trkpt>
      <trkpt lat="48.61912" lon="2.02631">
        <ele>121.8</ele>
        <time>2026-02-02T09:54:07Z</time>
      </trkpt>
      <trkpt lat="48.61908" lon="2.02637">
        <ele>121.8</ele>
        <time>2026-02-02T09:54:08Z</time>
      </trkpt>
      <trkpt lat="48.61904" lon="2.02641">
        <ele>121.2</ele>
        <time>2026-02-02T09:54:09Z</time>
      </trkpt>
      <trkpt lat="48.619" lon="2.02648">
        <ele>121.2</ele>
        <time>2026-02-02T09:54:10Z</time>
      </trkpt>
      <trkpt lat="48.61895" lon="2.02653">
        <ele>121.2</ele>
        <time>2026-02-02T09:54:11Z</time>
      </trkpt>
      <trkpt lat="48.61891" lon="2.0266">
        <ele>121.2</ele>
        <time>2026-02-02T09:54:12Z</time>
      </trkpt>
      <trkpt lat="48.61887" lon="2.02665">
        <ele>121.2</ele>
        <time>2026-02-02T09:54:13Z</time>
      </trkpt>
      <trkpt lat="48.61882" lon="2.02672">
        <ele>121.2</ele>
        <time>2026-02-02T09:54:14Z</time>
      </trkpt>
      <trkpt lat="48.61877" lon="2.0268">
        <ele>121.2</ele>
        <time>2026-02-02T09:54:15Z</time>
      </trkpt>
      <trkpt lat="48.61873" lon="2.02686">
        <ele>120.4</ele>
        <time>2026-02-02T09:54:16Z</time>
      </trkpt>
      <trkpt lat="48.61868" lon="2.02692">
        <ele>120.6</ele>
        <time>2026-02-02T09:54:17Z</time>
      </trkpt>
      <trkpt lat="48.61864" lon="2.02696">
        <ele>120.6</ele>
        <time>2026-02-02T09:54:18Z</time>
      </trkpt>
      <trkpt lat="48.61859" lon="2.02699">
        <ele>120.6</ele>
        <time>2026-02-02T09:54:19Z</time>
      </trkpt>
      <trkpt lat="48.61854" lon="2.02698">
        <ele>120.6</ele>
        <time>2026-02-02T09:54:20Z</time>
      </trkpt>
      <trkpt lat="48.61849" lon="2.02697">
        <ele>120.4</ele>
        <time>2026-02-02T09:54:21Z</time>
      </trkpt>
      <trkpt lat="48.61843" lon="2.02697">
        <ele>120.4</ele>
        <time>2026-02-02T09:54:22Z</time>
      </trkpt>
      <trkpt lat="48.61838" lon="2.02697">
        <ele>120.4</ele>
        <time>2026-02-02T09:54:23Z</time>
      </trkpt>
      <trkpt lat="48.61831" lon="2.02697">
        <ele>119.4</ele>
        <time>2026-02-02T09:54:24Z</time>
      </trkpt>
      <trkpt lat="48.61825" lon="2.02696">
        <ele>118.4</ele>
        <time>2026-02-02T09:54:25Z</time>
      </trkpt>
      <trkpt lat="48.61818" lon="2.02696">
        <ele>118.4</ele>
        <time>2026-02-02T09:54:26Z</time>
      </trkpt>
      <trkpt lat="48.61811" lon="2.02695">
        <ele>118.4</ele>
        <time>2026-02-02T09:54:27Z</time>
      </trkpt>
      <trkpt lat="48.61804" lon="2.02693">
        <ele>117.6</ele>
        <time>2026-02-02T09:54:28Z</time>
      </trkpt>
      <trkpt lat="48.61796" lon="2.02689">
        <ele>116.4</ele>
        <time>2026-02-02T09:54:29Z</time>
      </trkpt>
      <trkpt lat="48.61789" lon="2.02686">
        <ele>116.4</ele>
        <time>2026-02-02T09:54:30Z</time>
      </trkpt>
      <trkpt lat="48.61781" lon="2.02682">
        <ele>116.4</ele>
        <time>2026-02-02T09:54:31Z</time>
      </trkpt>
      <trkpt lat="48.61774" lon="2.02678">
        <ele>116.4</ele>
        <time>2026-02-02T09:54:32Z</time>
      </trkpt>
      <trkpt lat="48.61766" lon="2.02675">
        <ele>114.6</ele>
        <time>2026-02-02T09:54:33Z</time>
      </trkpt>
      <trkpt lat="48.61758" lon="2.02671">
        <ele>114.6</ele>
        <time>2026-02-02T09:54:34Z</time>
      </trkpt>
      <trkpt lat="48.6175" lon="2.02667">
        <ele>114.6</ele>
        <time>2026-02-02T09:54:35Z</time>
      </trkpt>
      <trkpt lat="48.61743" lon="2.02661">
        <ele>114.6</ele>
        <time>2026-02-02T09:54:36Z</time>
      </trkpt>
      <trkpt lat="48.61736" lon="2.02655">
        <ele>113.6</ele>
        <time>2026-02-02T09:54:37Z</time>
      </trkpt>
      <trkpt lat="48.61728" lon="2.02651">
        <ele>113.6</ele>
        <time>2026-02-02T09:54:38Z</time>
      </trkpt>
      <trkpt lat="48.6172" lon="2.0265">
        <ele>113.6</ele>
        <time>2026-02-02T09:54:39Z</time>
      </trkpt>
      <trkpt lat="48.61711" lon="2.0265">
        <ele>113.6</ele>
        <time>2026-02-02T09:54:40Z</time>
      </trkpt>
      <trkpt lat="48.61703" lon="2.0265">
        <ele>112.8</ele>
        <time>2026-02-02T09:54:41Z</time>
      </trkpt>
      <trkpt lat="48.61695" lon="2.02649">
        <ele>112.8</ele>
        <time>2026-02-02T09:54:42Z</time>
      </trkpt>
      <trkpt lat="48.61686" lon="2.02648">
        <ele>112.8</ele>
        <time>2026-02-02T09:54:43Z</time>
      </trkpt>
      <trkpt lat="48.61678" lon="2.02647">
        <ele>112.4</ele>
        <time>2026-02-02T09:54:44Z</time>
      </trkpt>
      <trkpt lat="48.6167" lon="2.02646">
        <ele>112</ele>
        <time>2026-02-02T09:54:45Z</time>
      </trkpt>
      <trkpt lat="48.61662" lon="2.02645">
        <ele>112</ele>
        <time>2026-02-02T09:54:46Z</time>
      </trkpt>
      <trkpt lat="48.61654" lon="2.02643">
        <ele>112</ele>
        <time>2026-02-02T09:54:47Z</time>
      </trkpt>
      <trkpt lat="48.61646" lon="2.0264">
        <ele>112</ele>
        <time>2026-02-02T09:54:48Z</time>
      </trkpt>
      <trkpt lat="48.61638" lon="2.02637">
        <ele>111.8</ele>
        <time>2026-02-02T09:54:49Z</time>
      </trkpt>
      <trkpt lat="48.61631" lon="2.02635">
        <ele>111.8</ele>
        <time>2026-02-02T09:54:50Z</time>
      </trkpt>
      <trkpt lat="48.61624" lon="2.02633">
        <ele>111.8</ele>
        <time>2026-02-02T09:54:51Z</time>
      </trkpt>
      <trkpt lat="48.61616" lon="2.02632">
        <ele>111.8</ele>
        <time>2026-02-02T09:54:52Z</time>
      </trkpt>
      <trkpt lat="48.61609" lon="2.02631">
        <ele>111.6</ele>
        <time>2026-02-02T09:54:53Z</time>
      </trkpt>
      <trkpt lat="48.61601" lon="2.02629">
        <ele>111.6</ele>
        <time>2026-02-02T09:54:54Z</time>
      </trkpt>
      <trkpt lat="48.61594" lon="2.02629">
        <ele>111.6</ele>
        <time>2026-02-02T09:54:55Z</time>
      </trkpt>
      <trkpt lat="48.61586" lon="2.02629">
        <ele>111.6</ele>
        <time>2026-02-02T09:54:56Z</time>
      </trkpt>
      <trkpt lat="48.61579" lon="2.0263">
        <ele>112</ele>
        <time>2026-02-02T09:54:57Z</time>
      </trkpt>
      <trkpt lat="48.61571" lon="2.02631">
        <ele>112</ele>
        <time>2026-02-02T09:54:58Z</time>
      </trkpt>
      <trkpt lat="48.61564" lon="2.02632">
        <ele>112</ele>
        <time>2026-02-02T09:54:59Z</time>
      </trkpt>
      <trkpt lat="48.61557" lon="2.02634">
        <ele>112</ele>
        <time>2026-02-02T09:55:00Z</time>
      </trkpt>
      <trkpt lat="48.6155" lon="2.02634">
        <ele>112</ele>
        <time>2026-02-02T09:55:01Z</time>
      </trkpt>
      <trkpt lat="48.61543" lon="2.02635">
        <ele>112</ele>
        <time>2026-02-02T09:55:02Z</time>
      </trkpt>
      <trkpt lat="48.61537" lon="2.02635">
        <ele>112</ele>
        <time>2026-02-02T09:55:03Z</time>
      </trkpt>
      <trkpt lat="48.6153" lon="2.02636">
        <ele>112</ele>
        <time>2026-02-02T09:55:04Z</time>
      </trkpt>
      <trkpt lat="48.61524" lon="2.02637">
        <ele>112.2</ele>
        <time>2026-02-02T09:55:05Z</time>
      </trkpt>
      <trkpt lat="48.61519" lon="2.02639">
        <ele>112.2</ele>
        <time>2026-02-02T09:55:06Z</time>
      </trkpt>
      <trkpt lat="48.61514" lon="2.02643">
        <ele>112.2</ele>
        <time>2026-02-02T09:55:07Z</time>
      </trkpt>
      <trkpt lat="48.61511" lon="2.02648">
        <ele>112.6</ele>
        <time>2026-02-02T09:55:08Z</time>
      </trkpt>
      <trkpt lat="48.61509" lon="2.02653">
        <ele>112.6</ele>
        <time>2026-02-02T09:55:09Z</time>
      </trkpt>
      <trkpt lat="48.6151" lon="2.02658">
        <ele>112.6</ele>
        <time>2026-02-02T09:55:10Z</time>
      </trkpt>
      <trkpt lat="48.61512" lon="2.02662">
        <ele>112.6</ele>
        <time>2026-02-02T09:55:11Z</time>
      </trkpt>
      <trkpt lat="48.61515" lon="2.02665">
        <ele>112.6</ele>
        <time>2026-02-02T09:55:12Z</time>
      </trkpt>
      <trkpt lat="48.61519" lon="2.02667">
        <ele>112.4</ele>
        <time>2026-02-02T09:55:13Z</time>
      </trkpt>
      <trkpt lat="48.61522" lon="2.0267">
        <ele>112.4</ele>
        <time>2026-02-02T09:55:14Z</time>
      </trkpt>
      <trkpt lat="48.61526" lon="2.02674">
        <ele>112.4</ele>
        <time>2026-02-02T09:55:15Z</time>
      </trkpt>
      <trkpt lat="48.61529" lon="2.02678">
        <ele>112.6</ele>
        <time>2026-02-02T09:55:16Z</time>
      </trkpt>
      <trkpt lat="48.61532" lon="2.02683">
        <ele>112.6</ele>
        <time>2026-02-02T09:55:17Z</time>
      </trkpt>
      <trkpt lat="48.61536" lon="2.02688">
        <ele>112.6</ele>
        <time>2026-02-02T09:55:18Z</time>
      </trkpt>
      <trkpt lat="48.61539" lon="2.02694">
        <ele>112.6</ele>
        <time>2026-02-02T09:55:19Z</time>
      </trkpt>
      <trkpt lat="48.61542" lon="2.02699">
        <ele>112.8</ele>
        <time>2026-02-02T09:55:20Z</time>
      </trkpt>
      <trkpt lat="48.61546" lon="2.02704">
        <ele>113</ele>
        <time>2026-02-02T09:55:21Z</time>
      </trkpt>
      <trkpt lat="48.61549" lon="2.02709">
        <ele>113</ele>
        <time>2026-02-02T09:55:22Z</time>
      </trkpt>
      <trkpt lat="48.61553" lon="2.02715">
        <ele>113</ele>
        <time>2026-02-02T09:55:23Z</time>
      </trkpt>
      <trkpt lat="48.61556" lon="2.0272">
        <ele>113</ele>
        <time>2026-02-02T09:55:24Z</time>
      </trkpt>
      <trkpt lat="48.6156" lon="2.02725">
        <ele>112.8</ele>
        <time>2026-02-02T09:55:25Z</time>
      </trkpt>
      <trkpt lat="48.61564" lon="2.0273">
        <ele>112.8</ele>
        <time>2026-02-02T09:55:26Z</time>
      </trkpt>
      <trkpt lat="48.61567" lon="2.02736">
        <ele>112.8</ele>
        <time>2026-02-02T09:55:27Z</time>
      </trkpt>
      <trkpt lat="48.61571" lon="2.02741">
        <ele>113.6</ele>
        <time>2026-02-02T09:55:28Z</time>
      </trkpt>
      <trkpt lat="48.61575" lon="2.02747">
        <ele>113.4</ele>
        <time>2026-02-02T09:55:29Z</time>
      </trkpt>
      <trkpt lat="48.61578" lon="2.02752">
        <ele>113.4</ele>
        <time>2026-02-02T09:55:30Z</time>
      </trkpt>
      <trkpt lat="48.61581" lon="2.02757">
        <ele>113.4</ele>
        <time>2026-02-02T09:55:31Z</time>
      </trkpt>
      <trkpt lat="48.61585" lon="2.02762">
        <ele>113.4</ele>
        <time>2026-02-02T09:55:32Z</time>
      </trkpt>
      <trkpt lat="48.61589" lon="2.02768">
        <ele>114</ele>
        <time>2026-02-02T09:55:33Z</time>
      </trkpt>
      <trkpt lat="48.61592" lon="2.02774">
        <ele>114</ele>
        <time>2026-02-02T09:55:34Z</time>
      </trkpt>
      <trkpt lat="48.61596" lon="2.02779">
        <ele>114</ele>
        <time>2026-02-02T09:55:35Z</time>
      </trkpt>
      <trkpt lat="48.616" lon="2.02784">
        <ele>114</ele>
        <time>2026-02-02T09:55:36Z</time>
      </trkpt>
      <trkpt lat="48.61603" lon="2.0279">
        <ele>114</ele>
        <time>2026-02-02T09:55:37Z</time>
      </trkpt>
      <trkpt lat="48.61607" lon="2.02795">
        <ele>114</ele>
        <time>2026-02-02T09:55:38Z</time>
      </trkpt>
      <trkpt lat="48.61611" lon="2.028">
        <ele>114</ele>
        <time>2026-02-02T09:55:39Z</time>
      </trkpt>
      <trkpt lat="48.61615" lon="2.02806">
        <ele>114</ele>
        <time>2026-02-02T09:55:40Z</time>
      </trkpt>
      <trkpt lat="48.61618" lon="2.02811">
        <ele>114.6</ele>
        <time>2026-02-02T09:55:41Z</time>
      </trkpt>
      <trkpt lat="48.61622" lon="2.02817">
        <ele>114.6</ele>
        <time>2026-02-02T09:55:42Z</time>
      </trkpt>
      <trkpt lat="48.61625" lon="2.02823">
        <ele>114.6</ele>
        <time>2026-02-02T09:55:43Z</time>
      </trkpt>
      <trkpt lat="48.61629" lon="2.02828">
        <ele>114.8</ele>
        <time>2026-02-02T09:55:44Z</time>
      </trkpt>
      <trkpt lat="48.61632" lon="2.02834">
        <ele>114.4</ele>
        <time>2026-02-02T09:55:45Z</time>
      </trkpt>
      <trkpt lat="48.61636" lon="2.02839">
        <ele>114.4</ele>
        <time>2026-02-02T09:55:46Z</time>
      </trkpt>
      <trkpt lat="48.6164" lon="2.02845">
        <ele>114.4</ele>
        <time>2026-02-02T09:55:47Z</time>
      </trkpt>
      <trkpt lat="48.61643" lon="2.0285">
        <ele>114.8</ele>
        <time>2026-02-02T09:55:48Z</time>
      </trkpt>
      <trkpt lat="48.61647" lon="2.02855">
        <ele>114.6</ele>
        <time>2026-02-02T09:55:49Z</time>
      </trkpt>
      <trkpt lat="48.61651" lon="2.02861">
        <ele>114.6</ele>
        <time>2026-02-02T09:55:50Z</time>
      </trkpt>
      <trkpt lat="48.61655" lon="2.02866">
        <ele>114.6</ele>
        <time>2026-02-02T09:55:51Z</time>
      </trkpt>
      <trkpt lat="48.61658" lon="2.02871">
        <ele>115.2</ele>
        <time>2026-02-02T09:55:52Z</time>
      </trkpt>
      <trkpt lat="48.61662" lon="2.02877">
        <ele>115</ele>
        <time>2026-02-02T09:55:53Z</time>
      </trkpt>
      <trkpt lat="48.61666" lon="2.02882">
        <ele>115</ele>
        <time>2026-02-02T09:55:54Z</time>
      </trkpt>
      <trkpt lat="48.6167" lon="2.02886">
        <ele>115</ele>
        <time>2026-02-02T09:55:55Z</time>
      </trkpt>
      <trkpt lat="48.61675" lon="2.02891">
        <ele>115</ele>
        <time>2026-02-02T09:55:56Z</time>
      </trkpt>
      <trkpt lat="48.6168" lon="2.02894">
        <ele>115.2</ele>
        <time>2026-02-02T09:55:57Z</time>
      </trkpt>
      <trkpt lat="48.61684" lon="2.02898">
        <ele>115.2</ele>
        <time>2026-02-02T09:55:58Z</time>
      </trkpt>
      <trkpt lat="48.61689" lon="2.029">
        <ele>115.2</ele>
        <time>2026-02-02T09:55:59Z</time>
      </trkpt>
      <trkpt lat="48.61693" lon="2.02903">
        <ele>116</ele>
        <time>2026-02-02T09:56:00Z</time>
      </trkpt>
      <trkpt lat="48.61698" lon="2.02906">
        <ele>116</ele>
        <time>2026-02-02T09:56:01Z</time>
      </trkpt>
      <trkpt lat="48.61702" lon="2.02909">
        <ele>116</ele>
        <time>2026-02-02T09:56:02Z</time>
      </trkpt>
      <trkpt lat="48.61707" lon="2.02912">
        <ele>116</ele>
        <time>2026-02-02T09:56:03Z</time>
      </trkpt>
      <trkpt lat="48.61711" lon="2.02915">
        <ele>116.4</ele>
        <time>2026-02-02T09:56:04Z</time>
      </trkpt>
      <trkpt lat="48.61716" lon="2.02917">
        <ele>116.4</ele>
        <time>2026-02-02T09:56:05Z</time>
      </trkpt>
      <trkpt lat="48.6172" lon="2.0292">
        <ele>116.4</ele>
        <time>2026-02-02T09:56:06Z</time>
      </trkpt>
      <trkpt lat="48.61724" lon="2.02922">
        <ele>116.4</ele>
        <time>2026-02-02T09:56:07Z</time>
      </trkpt>
      <trkpt lat="48.61726" lon="2.02927">
        <ele>116.4</ele>
        <time>2026-02-02T09:56:08Z</time>
      </trkpt>
      <trkpt lat="48.61728" lon="2.02933">
        <ele>116.6</ele>
        <time>2026-02-02T09:56:09Z</time>
      </trkpt>
      <trkpt lat="48.61728" lon="2.02939">
        <ele>116.6</ele>
        <time>2026-02-02T09:56:10Z</time>
      </trkpt>
      <trkpt lat="48.61728" lon="2.02946">
        <ele>116.6</ele>
        <time>2026-02-02T09:56:11Z</time>
      </trkpt>
      <trkpt lat="48.61728" lon="2.02952">
        <ele>117</ele>
        <time>2026-02-02T09:56:12Z</time>
      </trkpt>
      <trkpt lat="48.61727" lon="2.02959">
        <ele>117</ele>
        <time>2026-02-02T09:56:13Z</time>
      </trkpt>
      <trkpt lat="48.61727" lon="2.02966">
        <ele>117</ele>
        <time>2026-02-02T09:56:14Z</time>
      </trkpt>
      <trkpt lat="48.61727" lon="2.02972">
        <ele>117</ele>
        <time>2026-02-02T09:56:15Z</time>
      </trkpt>
      <trkpt lat="48.61727" lon="2.02979">
        <ele>117</ele>
        <time>2026-02-02T09:56:16Z</time>
      </trkpt>
      <trkpt lat="48.61726" lon="2.02986">
        <ele>117.2</ele>
        <time>2026-02-02T09:56:17Z</time>
      </trkpt>
      <trkpt lat="48.61725" lon="2.02992">
        <ele>117.2</ele>
        <time>2026-02-02T09:56:18Z</time>
      </trkpt>
      <trkpt lat="48.61725" lon="2.02999">
        <ele>117.2</ele>
        <time>2026-02-02T09:56:19Z</time>
      </trkpt>
      <trkpt lat="48.61724" lon="2.03006">
        <ele>117.2</ele>
        <time>2026-02-02T09:56:20Z</time>
      </trkpt>
      <trkpt lat="48.61724" lon="2.03013">
        <ele>118</ele>
        <time>2026-02-02T09:56:21Z</time>
      </trkpt>
      <trkpt lat="48.61723" lon="2.0302">
        <ele>118</ele>
        <time>2026-02-02T09:56:22Z</time>
      </trkpt>
      <trkpt lat="48.61723" lon="2.03027">
        <ele>118</ele>
        <time>2026-02-02T09:56:23Z</time>
      </trkpt>
      <trkpt lat="48.61722" lon="2.03035">
        <ele>117.6</ele>
        <time>2026-02-02T09:56:24Z</time>
      </trkpt>
      <trkpt lat="48.61721" lon="2.03042">
        <ele>117.4</ele>
        <time>2026-02-02T09:56:25Z</time>
      </trkpt>
      <trkpt lat="48.6172" lon="2.03049">
        <ele>117.4</ele>
        <time>2026-02-02T09:56:26Z</time>
      </trkpt>
      <trkpt lat="48.6172" lon="2.03057">
        <ele>117.4</ele>
        <time>2026-02-02T09:56:27Z</time>
      </trkpt>
      <trkpt lat="48.61719" lon="2.03064">
        <ele>117.4</ele>
        <time>2026-02-02T09:56:28Z</time>
      </trkpt>
      <trkpt lat="48.61718" lon="2.03072">
        <ele>117.6</ele>
        <time>2026-02-02T09:56:29Z</time>
      </trkpt>
      <trkpt lat="48.61718" lon="2.03081">
        <ele>117.6</ele>
        <time>2026-02-02T09:56:30Z</time>
      </trkpt>
      <trkpt lat="48.61717" lon="2.03089">
        <ele>117.6</ele>
        <time>2026-02-02T09:56:31Z</time>
      </trkpt>
      <trkpt lat="48.61717" lon="2.03097">
        <ele>117</ele>
        <time>2026-02-02T09:56:32Z</time>
      </trkpt>
      <trkpt lat="48.61716" lon="2.03106">
        <ele>117</ele>
        <time>2026-02-02T09:56:33Z</time>
      </trkpt>
      <trkpt lat="48.61715" lon="2.03114">
        <ele>117</ele>
        <time>2026-02-02T09:56:34Z</time>
      </trkpt>
      <trkpt lat="48.61714" lon="2.03122">
        <ele>117</ele>
        <time>2026-02-02T09:56:35Z</time>
      </trkpt>
      <trkpt lat="48.61713" lon="2.03131">
        <ele>117</ele>
        <time>2026-02-02T09:56:36Z</time>
      </trkpt>
      <trkpt lat="48.61712" lon="2.0314">
        <ele>116.4</ele>
        <time>2026-02-02T09:56:37Z</time>
      </trkpt>
      <trkpt lat="48.61711" lon="2.03148">
        <ele>116.4</ele>
        <time>2026-02-02T09:56:38Z</time>
      </trkpt>
      <trkpt lat="48.6171" lon="2.03157">
        <ele>116.4</ele>
        <time>2026-02-02T09:56:39Z</time>
      </trkpt>
      <trkpt lat="48.61708" lon="2.03165">
        <ele>116.4</ele>
        <time>2026-02-02T09:56:40Z</time>
      </trkpt>
      <trkpt lat="48.61707" lon="2.03174">
        <ele>116.4</ele>
        <time>2026-02-02T09:56:41Z</time>
      </trkpt>
      <trkpt lat="48.61705" lon="2.03182">
        <ele>116.4</ele>
        <time>2026-02-02T09:56:42Z</time>
      </trkpt>
      <trkpt lat="48.61703" lon="2.0319">
        <ele>116.4</ele>
        <time>2026-02-02T09:56:43Z</time>
      </trkpt>
      <trkpt lat="48.61701" lon="2.03199">
        <ele>116.4</ele>
        <time>2026-02-02T09:56:44Z</time>
      </trkpt>
      <trkpt lat="48.61699" lon="2.03208">
        <ele>115.8</ele>
        <time>2026-02-02T09:56:45Z</time>
      </trkpt>
      <trkpt lat="48.61697" lon="2.03215">
        <ele>115.8</ele>
        <time>2026-02-02T09:56:46Z</time>
      </trkpt>
      <trkpt lat="48.61695" lon="2.03223">
        <ele>115.8</ele>
        <time>2026-02-02T09:56:47Z</time>
      </trkpt>
      <trkpt lat="48.61693" lon="2.03232">
        <ele>115.8</ele>
        <time>2026-02-02T09:56:48Z</time>
      </trkpt>
      <trkpt lat="48.61691" lon="2.0324">
        <ele>116</ele>
        <time>2026-02-02T09:56:49Z</time>
      </trkpt>
      <trkpt lat="48.61689" lon="2.03247">
        <ele>116</ele>
        <time>2026-02-02T09:56:50Z</time>
      </trkpt>
      <trkpt lat="48.61686" lon="2.03255">
        <ele>116</ele>
        <time>2026-02-02T09:56:51Z</time>
      </trkpt>
      <trkpt lat="48.61684" lon="2.03263">
        <ele>116</ele>
        <time>2026-02-02T09:56:52Z</time>
      </trkpt>
      <trkpt lat="48.61682" lon="2.0327">
        <ele>116.4</ele>
        <time>2026-02-02T09:56:53Z</time>
      </trkpt>
      <trkpt lat="48.61679" lon="2.03277">
        <ele>116.4</ele>
        <time>2026-02-02T09:56:54Z</time>
      </trkpt>
      <trkpt lat="48.61677" lon="2.03284">
        <ele>116.4</ele>
        <time>2026-02-02T09:56:55Z</time>
      </trkpt>
      <trkpt lat="48.61675" lon="2.03289">
        <ele>116.4</ele>
        <time>2026-02-02T09:56:56Z</time>
      </trkpt>
      <trkpt lat="48.61672" lon="2.03294">
        <ele>116.2</ele>
        <time>2026-02-02T09:56:57Z</time>
      </trkpt>
      <trkpt lat="48.6167" lon="2.03298">
        <ele>116.2</ele>
        <time>2026-02-02T09:56:58Z</time>
      </trkpt>
      <trkpt lat="48.61668" lon="2.03301">
        <ele>116.2</ele>
        <time>2026-02-02T09:56:59Z</time>
      </trkpt>
      <trkpt lat="48.61665" lon="2.03305">
        <ele>116.2</ele>
        <time>2026-02-02T09:57:00Z</time>
      </trkpt>
      <trkpt lat="48.61663" lon="2.03309">
        <ele>116.4</ele>
        <time>2026-02-02T09:57:01Z</time>
      </trkpt>
      <trkpt lat="48.61661" lon="2.03314">
        <ele>116.4</ele>
        <time>2026-02-02T09:57:02Z</time>
      </trkpt>
      <trkpt lat="48.61659" lon="2.03321">
        <ele>116.4</ele>
        <time>2026-02-02T09:57:03Z</time>
      </trkpt>
      <trkpt lat="48.61658" lon="2.03327">
        <ele>116.4</ele>
        <time>2026-02-02T09:57:04Z</time>
      </trkpt>
      <trkpt lat="48.61656" lon="2.03334">
        <ele>116.4</ele>
        <time>2026-02-02T09:57:05Z</time>
      </trkpt>
      <trkpt lat="48.61654" lon="2.03343">
        <ele>116.4</ele>
        <time>2026-02-02T09:57:06Z</time>
      </trkpt>
      <trkpt lat="48.61652" lon="2.0335">
        <ele>116.4</ele>
        <time>2026-02-02T09:57:07Z</time>
      </trkpt>
      <trkpt lat="48.61648" lon="2.03359">
        <ele>116.6</ele>
        <time>2026-02-02T09:57:08Z</time>
      </trkpt>
      <trkpt lat="48.61645" lon="2.03366">
        <ele>116.8</ele>
        <time>2026-02-02T09:57:09Z</time>
      </trkpt>
      <trkpt lat="48.61642" lon="2.03374">
        <ele>116.8</ele>
        <time>2026-02-02T09:57:10Z</time>
      </trkpt>
      <trkpt lat="48.61638" lon="2.03382">
        <ele>116.8</ele>
        <time>2026-02-02T09:57:11Z</time>
      </trkpt>
      <trkpt lat="48.61635" lon="2.0339">
        <ele>117.6</ele>
        <time>2026-02-02T09:57:12Z</time>
      </trkpt>
      <trkpt lat="48.61632" lon="2.03398">
        <ele>117.4</ele>
        <time>2026-02-02T09:57:13Z</time>
      </trkpt>
      <trkpt lat="48.61629" lon="2.03405">
        <ele>117.4</ele>
        <time>2026-02-02T09:57:14Z</time>
      </trkpt>
      <trkpt lat="48.61626" lon="2.03412">
        <ele>117.4</ele>
        <time>2026-02-02T09:57:15Z</time>
      </trkpt>
      <trkpt lat="48.61622" lon="2.0342">
        <ele>117.4</ele>
        <time>2026-02-02T09:57:16Z</time>
      </trkpt>
      <trkpt lat="48.6162" lon="2.03427">
        <ele>117.8</ele>
        <time>2026-02-02T09:57:17Z</time>
      </trkpt>
      <trkpt lat="48.61617" lon="2.03435">
        <ele>117.8</ele>
        <time>2026-02-02T09:57:18Z</time>
      </trkpt>
      <trkpt lat="48.61614" lon="2.03443">
        <ele>117.8</ele>
        <time>2026-02-02T09:57:19Z</time>
      </trkpt>
      <trkpt lat="48.61611" lon="2.03449">
        <ele>117.4</ele>
        <time>2026-02-02T09:57:20Z</time>
      </trkpt>
      <trkpt lat="48.61608" lon="2.03456">
        <ele>117.6</ele>
        <time>2026-02-02T09:57:21Z</time>
      </trkpt>
      <trkpt lat="48.61605" lon="2.03464">
        <ele>117.6</ele>
        <time>2026-02-02T09:57:22Z</time>
      </trkpt>
      <trkpt lat="48.61602" lon="2.03472">
        <ele>117.6</ele>
        <time>2026-02-02T09:57:23Z</time>
      </trkpt>
      <trkpt lat="48.61599" lon="2.0348">
        <ele>117</ele>
        <time>2026-02-02T09:57:24Z</time>
      </trkpt>
      <trkpt lat="48.61596" lon="2.03488">
        <ele>116.6</ele>
        <time>2026-02-02T09:57:25Z</time>
      </trkpt>
      <trkpt lat="48.61593" lon="2.03496">
        <ele>116.6</ele>
        <time>2026-02-02T09:57:26Z</time>
      </trkpt>
      <trkpt lat="48.6159" lon="2.03504">
        <ele>116.6</ele>
        <time>2026-02-02T09:57:27Z</time>
      </trkpt>
      <trkpt lat="48.61586" lon="2.03513">
        <ele>116.6</ele>
        <time>2026-02-02T09:57:28Z</time>
      </trkpt>
      <trkpt lat="48.61583" lon="2.03522">
        <ele>116.4</ele>
        <time>2026-02-02T09:57:29Z</time>
      </trkpt>
      <trkpt lat="48.6158" lon="2.03531">
        <ele>116.4</ele>
        <time>2026-02-02T09:57:30Z</time>
      </trkpt>
      <trkpt lat="48.61576" lon="2.0354">
        <ele>116.4</ele>
        <time>2026-02-02T09:57:31Z</time>
      </trkpt>
      <trkpt lat="48.61573" lon="2.0355">
        <ele>116</ele>
        <time>2026-02-02T09:57:32Z</time>
      </trkpt>
      <trkpt lat="48.61569" lon="2.0356">
        <ele>115.8</ele>
        <time>2026-02-02T09:57:33Z</time>
      </trkpt>
      <trkpt lat="48.61566" lon="2.03569">
        <ele>115.8</ele>
        <time>2026-02-02T09:57:34Z</time>
      </trkpt>
      <trkpt lat="48.61562" lon="2.03578">
        <ele>115.8</ele>
        <time>2026-02-02T09:57:35Z</time>
      </trkpt>
      <trkpt lat="48.61558" lon="2.03588">
        <ele>115.8</ele>
        <time>2026-02-02T09:57:36Z</time>
      </trkpt>
      <trkpt lat="48.61555" lon="2.03598">
        <ele>115</ele>
        <time>2026-02-02T09:57:37Z</time>
      </trkpt>
      <trkpt lat="48.61551" lon="2.03608">
        <ele>115</ele>
        <time>2026-02-02T09:57:38Z</time>
      </trkpt>
      <trkpt lat="48.61547" lon="2.03619">
        <ele>115</ele>
        <time>2026-02-02T09:57:39Z</time>
      </trkpt>
      <trkpt lat="48.61544" lon="2.03629">
        <ele>115</ele>
        <time>2026-02-02T09:57:40Z</time>
      </trkpt>
      <trkpt lat="48.61539" lon="2.03639">
        <ele>114.6</ele>
        <time>2026-02-02T09:57:41Z</time>
      </trkpt>
      <trkpt lat="48.61535" lon="2.03648">
        <ele>114.6</ele>
        <time>2026-02-02T09:57:42Z</time>
      </trkpt>
      <trkpt lat="48.61531" lon="2.03658">
        <ele>114.6</ele>
        <time>2026-02-02T09:57:43Z</time>
      </trkpt>
      <trkpt lat="48.61526" lon="2.03667">
        <ele>114.2</ele>
        <time>2026-02-02T09:57:44Z</time>
      </trkpt>
      <trkpt lat="48.61522" lon="2.03677">
        <ele>113.8</ele>
        <time>2026-02-02T09:57:45Z</time>
      </trkpt>
      <trkpt lat="48.61518" lon="2.03686">
        <ele>113.8</ele>
        <time>2026-02-02T09:57:46Z</time>
      </trkpt>
      <trkpt lat="48.61514" lon="2.03697">
        <ele>113.8</ele>
        <time>2026-02-02T09:57:47Z</time>
      </trkpt>
      <trkpt lat="48.61511" lon="2.03707">
        <ele>114</ele>
        <time>2026-02-02T09:57:48Z</time>
      </trkpt>
      <trkpt lat="48.61507" lon="2.03718">
        <ele>113.6</ele>
        <time>2026-02-02T09:57:49Z</time>
      </trkpt>
      <trkpt lat="48.61503" lon="2.03729">
        <ele>113.6</ele>
        <time>2026-02-02T09:57:50Z</time>
      </trkpt>
      <trkpt lat="48.61499" lon="2.03739">
        <ele>113.6</ele>
        <time>2026-02-02T09:57:51Z</time>
      </trkpt>
      <trkpt lat="48.61496" lon="2.0375">
        <ele>113.6</ele>
        <time>2026-02-02T09:57:52Z</time>
      </trkpt>
      <trkpt lat="48.61492" lon="2.03761">
        <ele>113</ele>
        <time>2026-02-02T09:57:53Z</time>
      </trkpt>
      <trkpt lat="48.61488" lon="2.03772">
        <ele>113</ele>
        <time>2026-02-02T09:57:54Z</time>
      </trkpt>
      <trkpt lat="48.61485" lon="2.03783">
        <ele>113</ele>
        <time>2026-02-02T09:57:55Z</time>
      </trkpt>
      <trkpt lat="48.61481" lon="2.03793">
        <ele>113</ele>
        <time>2026-02-02T09:57:56Z</time>
      </trkpt>
      <trkpt lat="48.61477" lon="2.03804">
        <ele>112.4</ele>
        <time>2026-02-02T09:57:57Z</time>
      </trkpt>
      <trkpt lat="48.61474" lon="2.03815">
        <ele>112.4</ele>
        <time>2026-02-02T09:57:58Z</time>
      </trkpt>
      <trkpt lat="48.6147" lon="2.03826">
        <ele>112.4</ele>
        <time>2026-02-02T09:57:59Z</time>
      </trkpt>
      <trkpt lat="48.61466" lon="2.03837">
        <ele>112.4</ele>
        <time>2026-02-02T09:58:00Z</time>
      </trkpt>
      <trkpt lat="48.61463" lon="2.03848">
        <ele>112</ele>
        <time>2026-02-02T09:58:01Z</time>
      </trkpt>
      <trkpt lat="48.61459" lon="2.03858">
        <ele>112</ele>
        <time>2026-02-02T09:58:02Z</time>
      </trkpt>
      <trkpt lat="48.61456" lon="2.03869">
        <ele>112</ele>
        <time>2026-02-02T09:58:03Z</time>
      </trkpt>
      <trkpt lat="48.61452" lon="2.0388">
        <ele>111.6</ele>
        <time>2026-02-02T09:58:04Z</time>
      </trkpt>
      <trkpt lat="48.61449" lon="2.03891">
        <ele>111.4</ele>
        <time>2026-02-02T09:58:05Z</time>
      </trkpt>
      <trkpt lat="48.61446" lon="2.03902">
        <ele>111.4</ele>
        <time>2026-02-02T09:58:06Z</time>
      </trkpt>
      <trkpt lat="48.61443" lon="2.03913">
        <ele>111.4</ele>
        <time>2026-02-02T09:58:07Z</time>
      </trkpt>
      <trkpt lat="48.6144" lon="2.03924">
        <ele>111.4</ele>
        <time>2026-02-02T09:58:08Z</time>
      </trkpt>
      <trkpt lat="48.61436" lon="2.03935">
        <ele>111.2</ele>
        <time>2026-02-02T09:58:09Z</time>
      </trkpt>
      <trkpt lat="48.61433" lon="2.03945">
        <ele>111.2</ele>
        <time>2026-02-02T09:58:10Z</time>
      </trkpt>
      <trkpt lat="48.6143" lon="2.03956">
        <ele>111.2</ele>
        <time>2026-02-02T09:58:11Z</time>
      </trkpt>
      <trkpt lat="48.61426" lon="2.03967">
        <ele>111.2</ele>
        <time>2026-02-02T09:58:12Z</time>
      </trkpt>
      <trkpt lat="48.61423" lon="2.03977">
        <ele>111.2</ele>
        <time>2026-02-02T09:58:13Z</time>
      </trkpt>
      <trkpt lat="48.61419" lon="2.03988">
        <ele>111.2</ele>
        <time>2026-02-02T09:58:14Z</time>
      </trkpt>
      <trkpt lat="48.61416" lon="2.03998">
        <ele>111.2</ele>
        <time>2026-02-02T09:58:15Z</time>
      </trkpt>
      <trkpt lat="48.61412" lon="2.04008">
        <ele>110.6</ele>
        <time>2026-02-02T09:58:16Z</time>
      </trkpt>
      <trkpt lat="48.61408" lon="2.04018">
        <ele>110.4</ele>
        <time>2026-02-02T09:58:17Z</time>
      </trkpt>
      <trkpt lat="48.61405" lon="2.04028">
        <ele>110.4</ele>
        <time>2026-02-02T09:58:18Z</time>
      </trkpt>
      <trkpt lat="48.61401" lon="2.04038">
        <ele>110.4</ele>
        <time>2026-02-02T09:58:19Z</time>
      </trkpt>
      <trkpt lat="48.61397" lon="2.04048">
        <ele>110.4</ele>
        <time>2026-02-02T09:58:20Z</time>
      </trkpt>
      <trkpt lat="48.61394" lon="2.04058">
        <ele>111</ele>
        <time>2026-02-02T09:58:21Z</time>
      </trkpt>
      <trkpt lat="48.6139" lon="2.04068">
        <ele>111</ele>
        <time>2026-02-02T09:58:22Z</time>
      </trkpt>
      <trkpt lat="48.61386" lon="2.04078">
        <ele>111</ele>
        <time>2026-02-02T09:58:23Z</time>
      </trkpt>
      <trkpt lat="48.61383" lon="2.04088">
        <ele>110.2</ele>
        <time>2026-02-02T09:58:24Z</time>
      </trkpt>
      <trkpt lat="48.61379" lon="2.04097">
        <ele>110.2</ele>
        <time>2026-02-02T09:58:25Z</time>
      </trkpt>
      <trkpt lat="48.61375" lon="2.04107">
        <ele>110.2</ele>
        <time>2026-02-02T09:58:26Z</time>
      </trkpt>
      <trkpt lat="48.61372" lon="2.04116">
        <ele>110.2</ele>
        <time>2026-02-02T09:58:27Z</time>
      </trkpt>
      <trkpt lat="48.61369" lon="2.04126">
        <ele>110.2</ele>
        <time>2026-02-02T09:58:28Z</time>
      </trkpt>
      <trkpt lat="48.61365" lon="2.04135">
        <ele>110.2</ele>
        <time>2026-02-02T09:58:29Z</time>
      </trkpt>
      <trkpt lat="48.61362" lon="2.04144">
        <ele>110.2</ele>
        <time>2026-02-02T09:58:30Z</time>
      </trkpt>
      <trkpt lat="48.61358" lon="2.04153">
        <ele>110.2</ele>
        <time>2026-02-02T09:58:31Z</time>
      </trkpt>
      <trkpt lat="48.61355" lon="2.04162">
        <ele>110.2</ele>
        <time>2026-02-02T09:58:32Z</time>
      </trkpt>
      <trkpt lat="48.61351" lon="2.04171">
        <ele>110.4</ele>
        <time>2026-02-02T09:58:33Z</time>
      </trkpt>
      <trkpt lat="48.61348" lon="2.04179">
        <ele>110.4</ele>
        <time>2026-02-02T09:58:34Z</time>
      </trkpt>
      <trkpt lat="48.61344" lon="2.04188">
        <ele>110.4</ele>
        <time>2026-02-02T09:58:35Z</time>
      </trkpt>
      <trkpt lat="48.61341" lon="2.04196">
        <ele>110.2</ele>
        <time>2026-02-02T09:58:36Z</time>
      </trkpt>
      <trkpt lat="48.61337" lon="2.04204">
        <ele>110.6</ele>
        <time>2026-02-02T09:58:37Z</time>
      </trkpt>
      <trkpt lat="48.61333" lon="2.04212">
        <ele>110.6</ele>
        <time>2026-02-02T09:58:38Z</time>
      </trkpt>
      <trkpt lat="48.61329" lon="2.04219">
        <ele>110.6</ele>
        <time>2026-02-02T09:58:39Z</time>
      </trkpt>
      <trkpt lat="48.61325" lon="2.04225">
        <ele>110.6</ele>
        <time>2026-02-02T09:58:40Z</time>
      </trkpt>
      <trkpt lat="48.61321" lon="2.0423">
        <ele>111</ele>
        <time>2026-02-02T09:58:41Z</time>
      </trkpt>
      <trkpt lat="48.61317" lon="2.04236">
        <ele>111</ele>
        <time>2026-02-02T09:58:42Z</time>
      </trkpt>
      <trkpt lat="48.61313" lon="2.04242">
        <ele>111</ele>
        <time>2026-02-02T09:58:43Z</time>
      </trkpt>
      <trkpt lat="48.61309" lon="2.04248">
        <ele>111</ele>
        <time>2026-02-02T09:58:44Z</time>
      </trkpt>
      <trkpt lat="48.61306" lon="2.04253">
        <ele>111.4</ele>
        <time>2026-02-02T09:58:45Z</time>
      </trkpt>
      <trkpt lat="48.61302" lon="2.04256">
        <ele>111.4</ele>
        <time>2026-02-02T09:58:46Z</time>
      </trkpt>
      <trkpt lat="48.61299" lon="2.04261">
        <ele>111.4</ele>
        <time>2026-02-02T09:58:47Z</time>
      </trkpt>
      <trkpt lat="48.61296" lon="2.04266">
        <ele>111.6</ele>
        <time>2026-02-02T09:58:48Z</time>
      </trkpt>
      <trkpt lat="48.61292" lon="2.04271">
        <ele>111.8</ele>
        <time>2026-02-02T09:58:49Z</time>
      </trkpt>
      <trkpt lat="48.61289" lon="2.04275">
        <ele>111.8</ele>
        <time>2026-02-02T09:58:50Z</time>
      </trkpt>
      <trkpt lat="48.61286" lon="2.04278">
        <ele>111.8</ele>
        <time>2026-02-02T09:58:51Z</time>
      </trkpt>
      <trkpt lat="48.61283" lon="2.04282">
        <ele>111.8</ele>
        <time>2026-02-02T09:58:52Z</time>
      </trkpt>
      <trkpt lat="48.6128" lon="2.04286">
        <ele>112.4</ele>
        <time>2026-02-02T09:58:53Z</time>
      </trkpt>
      <trkpt lat="48.61278" lon="2.0429">
        <ele>112.4</ele>
        <time>2026-02-02T09:58:54Z</time>
      </trkpt>
      <trkpt lat="48.61275" lon="2.04294">
        <ele>112.4</ele>
        <time>2026-02-02T09:58:55Z</time>
      </trkpt>
      <trkpt lat="48.61272" lon="2.04295">
        <ele>113</ele>
        <time>2026-02-02T09:58:56Z</time>
      </trkpt>
      <trkpt lat="48.61269" lon="2.04298">
        <ele>113.2</ele>
        <time>2026-02-02T09:58:57Z</time>
      </trkpt>
      <trkpt lat="48.61267" lon="2.04303">
        <ele>113.2</ele>
        <time>2026-02-02T09:58:58Z</time>
      </trkpt>
      <trkpt lat="48.61264" lon="2.04307">
        <ele>113.2</ele>
        <time>2026-02-02T09:58:59Z</time>
      </trkpt>
      <trkpt lat="48.61262" lon="2.04311">
        <ele>114.2</ele>
        <time>2026-02-02T09:59:00Z</time>
      </trkpt>
      <trkpt lat="48.61259" lon="2.04315">
        <ele>114.2</ele>
        <time>2026-02-02T09:59:01Z</time>
      </trkpt>
      <trkpt lat="48.61256" lon="2.04318">
        <ele>114.2</ele>
        <time>2026-02-02T09:59:02Z</time>
      </trkpt>
      <trkpt lat="48.61253" lon="2.0432">
        <ele>114.2</ele>
        <time>2026-02-02T09:59:03Z</time>
      </trkpt>
      <trkpt lat="48.61251" lon="2.04324">
        <ele>115</ele>
        <time>2026-02-02T09:59:04Z</time>
      </trkpt>
      <trkpt lat="48.61248" lon="2.04327">
        <ele>115.2</ele>
        <time>2026-02-02T09:59:05Z</time>
      </trkpt>
      <trkpt lat="48.61246" lon="2.04328">
        <ele>115.2</ele>
        <time>2026-02-02T09:59:06Z</time>
      </trkpt>
      <trkpt lat="48.61243" lon="2.04331">
        <ele>115.2</ele>
        <time>2026-02-02T09:59:07Z</time>
      </trkpt>
      <trkpt lat="48.61241" lon="2.04335">
        <ele>115.8</ele>
        <time>2026-02-02T09:59:08Z</time>
      </trkpt>
      <trkpt lat="48.61239" lon="2.0434">
        <ele>115.8</ele>
        <time>2026-02-02T09:59:09Z</time>
      </trkpt>
      <trkpt lat="48.61236" lon="2.04343">
        <ele>115.8</ele>
        <time>2026-02-02T09:59:10Z</time>
      </trkpt>
      <trkpt lat="48.61233" lon="2.04345">
        <ele>115.8</ele>
        <time>2026-02-02T09:59:11Z</time>
      </trkpt>
      <trkpt lat="48.61231" lon="2.04349">
        <ele>115.8</ele>
        <time>2026-02-02T09:59:12Z</time>
      </trkpt>
      <trkpt lat="48.61228" lon="2.04352">
        <ele>116.4</ele>
        <time>2026-02-02T09:59:13Z</time>
      </trkpt>
      <trkpt lat="48.61226" lon="2.04356">
        <ele>116.4</ele>
        <time>2026-02-02T09:59:14Z</time>
      </trkpt>
      <trkpt lat="48.61224" lon="2.0436">
        <ele>116.4</ele>
        <time>2026-02-02T09:59:15Z</time>
      </trkpt>
      <trkpt lat="48.61221" lon="2.04364">
        <ele>116.4</ele>
        <time>2026-02-02T09:59:16Z</time>
      </trkpt>
      <trkpt lat="48.61218" lon="2.04371">
        <ele>117</ele>
        <time>2026-02-02T09:59:17Z</time>
      </trkpt>
      <trkpt lat="48.61216" lon="2.04375">
        <ele>117</ele>
        <time>2026-02-02T09:59:18Z</time>
      </trkpt>
      <trkpt lat="48.61213" lon="2.0438">
        <ele>117</ele>
        <time>2026-02-02T09:59:19Z</time>
      </trkpt>
      <trkpt lat="48.61211" lon="2.04384">
        <ele>117.8</ele>
        <time>2026-02-02T09:59:20Z</time>
      </trkpt>
      <trkpt lat="48.61209" lon="2.04389">
        <ele>117.8</ele>
        <time>2026-02-02T09:59:21Z</time>
      </trkpt>
      <trkpt lat="48.61207" lon="2.04395">
        <ele>117.8</ele>
        <time>2026-02-02T09:59:22Z</time>
      </trkpt>
      <trkpt lat="48.61205" lon="2.04398">
        <ele>117.8</ele>
        <time>2026-02-02T09:59:23Z</time>
      </trkpt>
      <trkpt lat="48.61203" lon="2.04402">
        <ele>117.8</ele>
        <time>2026-02-02T09:59:24Z</time>
      </trkpt>
      <trkpt lat="48.612" lon="2.04405">
        <ele>118.4</ele>
        <time>2026-02-02T09:59:25Z</time>
      </trkpt>
      <trkpt lat="48.61198" lon="2.0441">
        <ele>118.4</ele>
        <time>2026-02-02T09:59:26Z</time>
      </trkpt>
      <trkpt lat="48.61196" lon="2.04414">
        <ele>118.4</ele>
        <time>2026-02-02T09:59:27Z</time>
      </trkpt>
      <trkpt lat="48.61193" lon="2.04418">
        <ele>119.4</ele>
        <time>2026-02-02T09:59:28Z</time>
      </trkpt>
      <trkpt lat="48.61192" lon="2.0442">
        <ele>119.2</ele>
        <time>2026-02-02T09:59:29Z</time>
      </trkpt>
      <trkpt lat="48.61189" lon="2.04424">
        <ele>119.2</ele>
        <time>2026-02-02T09:59:30Z</time>
      </trkpt>
      <trkpt lat="48.61187" lon="2.04427">
        <ele>119.2</ele>
        <time>2026-02-02T09:59:31Z</time>
      </trkpt>
      <trkpt lat="48.61184" lon="2.04429">
        <ele>119.2</ele>
        <time>2026-02-02T09:59:32Z</time>
      </trkpt>
      <trkpt lat="48.61182" lon="2.04433">
        <ele>119.6</ele>
        <time>2026-02-02T09:59:33Z</time>
      </trkpt>
      <trkpt lat="48.61179" lon="2.04436">
        <ele>119.6</ele>
        <time>2026-02-02T09:59:34Z</time>
      </trkpt>
      <trkpt lat="48.61177" lon="2.0444">
        <ele>119.6</ele>
        <time>2026-02-02T09:59:35Z</time>
      </trkpt>
      <trkpt lat="48.61175" lon="2.04444">
        <ele>120.4</ele>
        <time>2026-02-02T09:59:36Z</time>
      </trkpt>
      <trkpt lat="48.61172" lon="2.04447">
        <ele>121</ele>
        <time>2026-02-02T09:59:37Z</time>
      </trkpt>
      <trkpt lat="48.61169" lon="2.04451">
        <ele>121</ele>
        <time>2026-02-02T09:59:38Z</time>
      </trkpt>
      <trkpt lat="48.61167" lon="2.04456">
        <ele>121</ele>
        <time>2026-02-02T09:59:39Z</time>
      </trkpt>
      <trkpt lat="48.61165" lon="2.0446">
        <ele>121</ele>
        <time>2026-02-02T09:59:40Z</time>
      </trkpt>
      <trkpt lat="48.61161" lon="2.04464">
        <ele>121.4</ele>
        <time>2026-02-02T09:59:41Z</time>
      </trkpt>
      <trkpt lat="48.61158" lon="2.04468">
        <ele>121.4</ele>
        <time>2026-02-02T09:59:42Z</time>
      </trkpt>
      <trkpt lat="48.61156" lon="2.04472">
        <ele>121.4</ele>
        <time>2026-02-02T09:59:43Z</time>
      </trkpt>
      <trkpt lat="48.61154" lon="2.04476">
        <ele>122</ele>
        <time>2026-02-02T09:59:44Z</time>
      </trkpt>
      <trkpt lat="48.61151" lon="2.0448">
        <ele>122.2</ele>
        <time>2026-02-02T09:59:45Z</time>
      </trkpt>
      <trkpt lat="48.61149" lon="2.04485">
        <ele>122.2</ele>
        <time>2026-02-02T09:59:46Z</time>
      </trkpt>
      <trkpt lat="48.61146" lon="2.04489">
        <ele>122.2</ele>
        <time>2026-02-02T09:59:47Z</time>
      </trkpt>
      <trkpt lat="48.61143" lon="2.04492">
        <ele>122.2</ele>
        <time>2026-02-02T09:59:48Z</time>
      </trkpt>
      <trkpt lat="48.6114" lon="2.04496">
        <ele>122.4</ele>
        <time>2026-02-02T09:59:49Z</time>
      </trkpt>
      <trkpt lat="48.61137" lon="2.04499">
        <ele>122.4</ele>
        <time>2026-02-02T09:59:50Z</time>
      </trkpt>
      <trkpt lat="48.61134" lon="2.04503">
        <ele>122.4</ele>
        <time>2026-02-02T09:59:51Z</time>
      </trkpt>
      <trkpt lat="48.61131" lon="2.04506">
        <ele>123.2</ele>
        <time>2026-02-02T09:59:52Z</time>
      </trkpt>
      <trkpt lat="48.61129" lon="2.0451">
        <ele>123.2</ele>
        <time>2026-02-02T09:59:53Z</time>
      </trkpt>
      <trkpt lat="48.61126" lon="2.04515">
        <ele>123.2</ele>
        <time>2026-02-02T09:59:54Z</time>
      </trkpt>
      <trkpt lat="48.61124" lon="2.0452">
        <ele>123.2</ele>
        <time>2026-02-02T09:59:55Z</time>
      </trkpt>
      <trkpt lat="48.61121" lon="2.04525">
        <ele>124</ele>
        <time>2026-02-02T09:59:56Z</time>
      </trkpt>
      <trkpt lat="48.61118" lon="2.04529">
        <ele>123.8</ele>
        <time>2026-02-02T09:59:57Z</time>
      </trkpt>
      <trkpt lat="48.61116" lon="2.04534">
        <ele>123.8</ele>
        <time>2026-02-02T09:59:58Z</time>
      </trkpt>
      <trkpt lat="48.61113" lon="2.04539">
        <ele>123.8</ele>
        <time>2026-02-02T09:59:59Z</time>
      </trkpt>
      <trkpt lat="48.6111" lon="2.04544">
        <ele>124.6</ele>
        <time>2026-02-02T10:00:00Z</time>
      </trkpt>
      <trkpt lat="48.61108" lon="2.04548">
        <ele>124.4</ele>
        <time>2026-02-02T10:00:01Z</time>
      </trkpt>
      <trkpt lat="48.61106" lon="2.04553">
        <ele>124.4</ele>
        <time>2026-02-02T10:00:02Z</time>
      </trkpt>
      <trkpt lat="48.61104" lon="2.04559">
        <ele>124.4</ele>
        <time>2026-02-02T10:00:03Z</time>
      </trkpt>
      <trkpt lat="48.61101" lon="2.04564">
        <ele>125</ele>
        <time>2026-02-02T10:00:04Z</time>
      </trkpt>
      <trkpt lat="48.61098" lon="2.04568">
        <ele>125.2</ele>
        <time>2026-02-02T10:00:05Z</time>
      </trkpt>
      <trkpt lat="48.61095" lon="2.04573">
        <ele>125.2</ele>
        <time>2026-02-02T10:00:06Z</time>
      </trkpt>
      <trkpt lat="48.61092" lon="2.04577">
        <ele>125.2</ele>
        <time>2026-02-02T10:00:07Z</time>
      </trkpt>
      <trkpt lat="48.61089" lon="2.04581">
        <ele>125.4</ele>
        <time>2026-02-02T10:00:08Z</time>
      </trkpt>
      <trkpt lat="48.61086" lon="2.04587">
        <ele>125.6</ele>
        <time>2026-02-02T10:00:09Z</time>
      </trkpt>
      <trkpt lat="48.61084" lon="2.04593">
        <ele>125.6</ele>
        <time>2026-02-02T10:00:10Z</time>
      </trkpt>
      <trkpt lat="48.61081" lon="2.04596">
        <ele>125.6</ele>
        <time>2026-02-02T10:00:11Z</time>
      </trkpt>
      <trkpt lat="48.61079" lon="2.04601">
        <ele>126</ele>
        <time>2026-02-02T10:00:12Z</time>
      </trkpt>
      <trkpt lat="48.61076" lon="2.04606">
        <ele>126.4</ele>
        <time>2026-02-02T10:00:13Z</time>
      </trkpt>
      <trkpt lat="48.61074" lon="2.04612">
        <ele>126.4</ele>
        <time>2026-02-02T10:00:14Z</time>
      </trkpt>
      <trkpt lat="48.61072" lon="2.04617">
        <ele>126.4</ele>
        <time>2026-02-02T10:00:15Z</time>
      </trkpt>
      <trkpt lat="48.61069" lon="2.04622">
        <ele>127.2</ele>
        <time>2026-02-02T10:00:16Z</time>
      </trkpt>
      <trkpt lat="48.61065" lon="2.04627">
        <ele>126.8</ele>
        <time>2026-02-02T10:00:17Z</time>
      </trkpt>
      <trkpt lat="48.61062" lon="2.0463">
        <ele>126.8</ele>
        <time>2026-02-02T10:00:18Z</time>
      </trkpt>
      <trkpt lat="48.61059" lon="2.04636">
        <ele>126.8</ele>
        <time>2026-02-02T10:00:19Z</time>
      </trkpt>
      <trkpt lat="48.61056" lon="2.04638">
        <ele>127.4</ele>
        <time>2026-02-02T10:00:20Z</time>
      </trkpt>
      <trkpt lat="48.61053" lon="2.04642">
        <ele>127.2</ele>
        <time>2026-02-02T10:00:21Z</time>
      </trkpt>
      <trkpt lat="48.61051" lon="2.04649">
        <ele>127.2</ele>
        <time>2026-02-02T10:00:22Z</time>
      </trkpt>
      <trkpt lat="48.61048" lon="2.04654">
        <ele>127.2</ele>
        <time>2026-02-02T10:00:23Z</time>
      </trkpt>
      <trkpt lat="48.61045" lon="2.04658">
        <ele>128.2</ele>
        <time>2026-02-02T10:00:24Z</time>
      </trkpt>
      <trkpt lat="48.61042" lon="2.04663">
        <ele>128.4</ele>
        <time>2026-02-02T10:00:25Z</time>
      </trkpt>
      <trkpt lat="48.61039" lon="2.04667">
        <ele>128.4</ele>
        <time>2026-02-02T10:00:26Z</time>
      </trkpt>
      <trkpt lat="48.61036" lon="2.04671">
        <ele>128.4</ele>
        <time>2026-02-02T10:00:27Z</time>
      </trkpt>
      <trkpt lat="48.61033" lon="2.04674">
        <ele>128.4</ele>
        <time>2026-02-02T10:00:28Z</time>
      </trkpt>
      <trkpt lat="48.61031" lon="2.04678">
        <ele>128.8</ele>
        <time>2026-02-02T10:00:29Z</time>
      </trkpt>
      <trkpt lat="48.61028" lon="2.04682">
        <ele>128.8</ele>
        <time>2026-02-02T10:00:30Z</time>
      </trkpt>
      <trkpt lat="48.61024" lon="2.04686">
        <ele>128.8</ele>
        <time>2026-02-02T10:00:31Z</time>
      </trkpt>
      <trkpt lat="48.61021" lon="2.0469">
        <ele>129.8</ele>
        <time>2026-02-02T10:00:32Z</time>
      </trkpt>
      <trkpt lat="48.61018" lon="2.04695">
        <ele>130</ele>
        <time>2026-02-02T10:00:33Z</time>
      </trkpt>
      <trkpt lat="48.61015" lon="2.04699">
        <ele>130</ele>
        <time>2026-02-02T10:00:34Z</time>
      </trkpt>
      <trkpt lat="48.61012" lon="2.04704">
        <ele>130</ele>
        <time>2026-02-02T10:00:35Z</time>
      </trkpt>
      <trkpt lat="48.6101" lon="2.04708">
        <ele>130.2</ele>
        <time>2026-02-02T10:00:36Z</time>
      </trkpt>
      <trkpt lat="48.61007" lon="2.04713">
        <ele>131</ele>
        <time>2026-02-02T10:00:37Z</time>
      </trkpt>
      <trkpt lat="48.61005" lon="2.04718">
        <ele>131</ele>
        <time>2026-02-02T10:00:38Z</time>
      </trkpt>
      <trkpt lat="48.61002" lon="2.04722">
        <ele>131</ele>
        <time>2026-02-02T10:00:39Z</time>
      </trkpt>
      <trkpt lat="48.60999" lon="2.04727">
        <ele>131</ele>
        <time>2026-02-02T10:00:40Z</time>
      </trkpt>
      <trkpt lat="48.60996" lon="2.04733">
        <ele>131.2</ele>
        <time>2026-02-02T10:00:41Z</time>
      </trkpt>
      <trkpt lat="48.60994" lon="2.0474">
        <ele>131.2</ele>
        <time>2026-02-02T10:00:42Z</time>
      </trkpt>
      <trkpt lat="48.60991" lon="2.04748">
        <ele>131.2</ele>
        <time>2026-02-02T10:00:43Z</time>
      </trkpt>
      <trkpt lat="48.60988" lon="2.04753">
        <ele>131.4</ele>
        <time>2026-02-02T10:00:44Z</time>
      </trkpt>
      <trkpt lat="48.60985" lon="2.0476">
        <ele>132</ele>
        <time>2026-02-02T10:00:45Z</time>
      </trkpt>
      <trkpt lat="48.60982" lon="2.04766">
        <ele>132</ele>
        <time>2026-02-02T10:00:46Z</time>
      </trkpt>
      <trkpt lat="48.60978" lon="2.04768">
        <ele>132</ele>
        <time>2026-02-02T10:00:47Z</time>
      </trkpt>
      <trkpt lat="48.60975" lon="2.04776">
        <ele>132</ele>
        <time>2026-02-02T10:00:48Z</time>
      </trkpt>
      <trkpt lat="48.60971" lon="2.04782">
        <ele>133</ele>
        <time>2026-02-02T10:00:49Z</time>
      </trkpt>
      <trkpt lat="48.60968" lon="2.04786">
        <ele>133</ele>
        <time>2026-02-02T10:00:50Z</time>
      </trkpt>
      <trkpt lat="48.60964" lon="2.0479">
        <ele>133</ele>
        <time>2026-02-02T10:00:51Z</time>
      </trkpt>
      <trkpt lat="48.60961" lon="2.04797">
        <ele>133</ele>
        <time>2026-02-02T10:00:52Z</time>
      </trkpt>
      <trkpt lat="48.60957" lon="2.04802">
        <ele>133</ele>
        <time>2026-02-02T10:00:53Z</time>
      </trkpt>
      <trkpt lat="48.60954" lon="2.04805">
        <ele>133</ele>
        <time>2026-02-02T10:00:54Z</time>
      </trkpt>
      <trkpt lat="48.6095" lon="2.04811">
        <ele>133</ele>
        <time>2026-02-02T10:00:55Z</time>
      </trkpt>
      <trkpt lat="48.60946" lon="2.04818">
        <ele>133.2</ele>
        <time>2026-02-02T10:00:56Z</time>
      </trkpt>
      <trkpt lat="48.60941" lon="2.04822">
        <ele>133.2</ele>
        <time>2026-02-02T10:00:57Z</time>
      </trkpt>
      <trkpt lat="48.60937" lon="2.04826">
        <ele>133.2</ele>
        <time>2026-02-02T10:00:58Z</time>
      </trkpt>
      <trkpt lat="48.60932" lon="2.04831">
        <ele>133.2</ele>
        <time>2026-02-02T10:00:59Z</time>
      </trkpt>
      <trkpt lat="48.60929" lon="2.04834">
        <ele>133.2</ele>
        <time>2026-02-02T10:01:00Z</time>
      </trkpt>
      <trkpt lat="48.60924" lon="2.04837">
        <ele>133.4</ele>
        <time>2026-02-02T10:01:01Z</time>
      </trkpt>
      <trkpt lat="48.6092" lon="2.0484">
        <ele>133.4</ele>
        <time>2026-02-02T10:01:02Z</time>
      </trkpt>
      <trkpt lat="48.60915" lon="2.04842">
        <ele>133.4</ele>
        <time>2026-02-02T10:01:03Z</time>
      </trkpt>
      <trkpt lat="48.60911" lon="2.04847">
        <ele>133.4</ele>
        <time>2026-02-02T10:01:04Z</time>
      </trkpt>
      <trkpt lat="48.60906" lon="2.04851">
        <ele>133.4</ele>
        <time>2026-02-02T10:01:05Z</time>
      </trkpt>
      <trkpt lat="48.60902" lon="2.04855">
        <ele>133.4</ele>
        <time>2026-02-02T10:01:06Z</time>
      </trkpt>
      <trkpt lat="48.60897" lon="2.04859">
        <ele>133.4</ele>
        <time>2026-02-02T10:01:07Z</time>
      </trkpt>
      <trkpt lat="48.60892" lon="2.04863">
        <ele>133.4</ele>
        <time>2026-02-02T10:01:08Z</time>
      </trkpt>
      <trkpt lat="48.60888" lon="2.04867">
        <ele>133</ele>
        <time>2026-02-02T10:01:09Z</time>
      </trkpt>
      <trkpt lat="48.60883" lon="2.04873">
        <ele>133</ele>
        <time>2026-02-02T10:01:10Z</time>
      </trkpt>
      <trkpt lat="48.60878" lon="2.04876">
        <ele>133</ele>
        <time>2026-02-02T10:01:11Z</time>
      </trkpt>
      <trkpt lat="48.60874" lon="2.04881">
        <ele>132.2</ele>
        <time>2026-02-02T10:01:12Z</time>
      </trkpt>
      <trkpt lat="48.60869" lon="2.04885">
        <ele>132.2</ele>
        <time>2026-02-02T10:01:13Z</time>
      </trkpt>
      <trkpt lat="48.60864" lon="2.04891">
        <ele>132.2</ele>
        <time>2026-02-02T10:01:14Z</time>
      </trkpt>
      <trkpt lat="48.60858" lon="2.04896">
        <ele>132.2</ele>
        <time>2026-02-02T10:01:15Z</time>
      </trkpt>
      <trkpt lat="48.60853" lon="2.04903">
        <ele>131.2</ele>
        <time>2026-02-02T10:01:16Z</time>
      </trkpt>
      <trkpt lat="48.60846" lon="2.04909">
        <ele>130.6</ele>
        <time>2026-02-02T10:01:17Z</time>
      </trkpt>
      <trkpt lat="48.60839" lon="2.04913">
        <ele>130.6</ele>
        <time>2026-02-02T10:01:18Z</time>
      </trkpt>
      <trkpt lat="48.60832" lon="2.04917">
        <ele>130.6</ele>
        <time>2026-02-02T10:01:19Z</time>
      </trkpt>
      <trkpt lat="48.60824" lon="2.04921">
        <ele>129.6</ele>
        <time>2026-02-02T10:01:20Z</time>
      </trkpt>
      <trkpt lat="48.60817" lon="2.04925">
        <ele>128.2</ele>
        <time>2026-02-02T10:01:21Z</time>
      </trkpt>
      <trkpt lat="48.6081" lon="2.04933">
        <ele>128.2</ele>
        <time>2026-02-02T10:01:22Z</time>
      </trkpt>
      <trkpt lat="48.60802" lon="2.0494">
        <ele>128.2</ele>
        <time>2026-02-02T10:01:23Z</time>
      </trkpt>
      <trkpt lat="48.60793" lon="2.04947">
        <ele>127.2</ele>
        <time>2026-02-02T10:01:24Z</time>
      </trkpt>
      <trkpt lat="48.60784" lon="2.04953">
        <ele>125</ele>
        <time>2026-02-02T10:01:25Z</time>
      </trkpt>
      <trkpt lat="48.60775" lon="2.0496">
        <ele>125</ele>
        <time>2026-02-02T10:01:26Z</time>
      </trkpt>
      <trkpt lat="48.60766" lon="2.04967">
        <ele>125</ele>
        <time>2026-02-02T10:01:27Z</time>
      </trkpt>
      <trkpt lat="48.60755" lon="2.04974">
        <ele>124</ele>
        <time>2026-02-02T10:01:28Z</time>
      </trkpt>
      <trkpt lat="48.60745" lon="2.04983">
        <ele>122.2</ele>
        <time>2026-02-02T10:01:29Z</time>
      </trkpt>
      <trkpt lat="48.60735" lon="2.04991">
        <ele>122.2</ele>
        <time>2026-02-02T10:01:30Z</time>
      </trkpt>
      <trkpt lat="48.60724" lon="2.04998">
        <ele>122.2</ele>
        <time>2026-02-02T10:01:31Z</time>
      </trkpt>
      <trkpt lat="48.60714" lon="2.05006">
        <ele>121.2</ele>
        <time>2026-02-02T10:01:32Z</time>
      </trkpt>
      <trkpt lat="48.60704" lon="2.05016">
        <ele>120.2</ele>
        <time>2026-02-02T10:01:33Z</time>
      </trkpt>
      <trkpt lat="48.60693" lon="2.05025">
        <ele>120.2</ele>
        <time>2026-02-02T10:01:34Z</time>
      </trkpt>
      <trkpt lat="48.60683" lon="2.05034">
        <ele>120.2</ele>
        <time>2026-02-02T10:01:35Z</time>
      </trkpt>
      <trkpt lat="48.60672" lon="2.05042">
        <ele>119.2</ele>
        <time>2026-02-02T10:01:36Z</time>
      </trkpt>
      <trkpt lat="48.60662" lon="2.05051">
        <ele>117</ele>
        <time>2026-02-02T10:01:37Z</time>
      </trkpt>
      <trkpt lat="48.60652" lon="2.05059">
        <ele>117</ele>
        <time>2026-02-02T10:01:38Z</time>
      </trkpt>
      <trkpt lat="48.60642" lon="2.05068">
        <ele>117</ele>
        <time>2026-02-02T10:01:39Z</time>
      </trkpt>
      <trkpt lat="48.60631" lon="2.05078">
        <ele>116.6</ele>
        <time>2026-02-02T10:01:40Z</time>
      </trkpt>
      <trkpt lat="48.60622" lon="2.05086">
        <ele>116.4</ele>
        <time>2026-02-02T10:01:41Z</time>
      </trkpt>
      <trkpt lat="48.60612" lon="2.05094">
        <ele>116.4</ele>
        <time>2026-02-02T10:01:42Z</time>
      </trkpt>
      <trkpt lat="48.60604" lon="2.05102">
        <ele>116.4</ele>
        <time>2026-02-02T10:01:43Z</time>
      </trkpt>
      <trkpt lat="48.60595" lon="2.05109">
        <ele>116.6</ele>
        <time>2026-02-02T10:01:44Z</time>
      </trkpt>
      <trkpt lat="48.60587" lon="2.05117">
        <ele>117</ele>
        <time>2026-02-02T10:01:45Z</time>
      </trkpt>
      <trkpt lat="48.60579" lon="2.05123">
        <ele>117</ele>
        <time>2026-02-02T10:01:46Z</time>
      </trkpt>
      <trkpt lat="48.60573" lon="2.0513">
        <ele>117</ele>
        <time>2026-02-02T10:01:47Z</time>
      </trkpt>
      <trkpt lat="48.60566" lon="2.05136">
        <ele>117.8</ele>
        <time>2026-02-02T10:01:48Z</time>
      </trkpt>
      <trkpt lat="48.6056" lon="2.05141">
        <ele>118.2</ele>
        <time>2026-02-02T10:01:49Z</time>
      </trkpt>
      <trkpt lat="48.60554" lon="2.05146">
        <ele>118.2</ele>
        <time>2026-02-02T10:01:50Z</time>
      </trkpt>
      <trkpt lat="48.6055" lon="2.05152">
        <ele>118.2</ele>
        <time>2026-02-02T10:01:51Z</time>
      </trkpt>
      <trkpt lat="48.60545" lon="2.05158">
        <ele>119</ele>
        <time>2026-02-02T10:01:52Z</time>
      </trkpt>
      <trkpt lat="48.60541" lon="2.05163">
        <ele>119.8</ele>
        <time>2026-02-02T10:01:53Z</time>
      </trkpt>
      <trkpt lat="48.60536" lon="2.05168">
        <ele>119.8</ele>
        <time>2026-02-02T10:01:54Z</time>
      </trkpt>
      <trkpt lat="48.60531" lon="2.05174">
        <ele>119.8</ele>
        <time>2026-02-02T10:01:55Z</time>
      </trkpt>
      <trkpt lat="48.60526" lon="2.05179">
        <ele>120.6</ele>
        <time>2026-02-02T10:01:56Z</time>
      </trkpt>
      <trkpt lat="48.60521" lon="2.05184">
        <ele>120.8</ele>
        <time>2026-02-02T10:01:57Z</time>
      </trkpt>
      <trkpt lat="48.60517" lon="2.05187">
        <ele>120.8</ele>
        <time>2026-02-02T10:01:58Z</time>
      </trkpt>
      <trkpt lat="48.60513" lon="2.05191">
        <ele>120.8</ele>
        <time>2026-02-02T10:01:59Z</time>
      </trkpt>
      <trkpt lat="48.60509" lon="2.05196">
        <ele>120.8</ele>
        <time>2026-02-02T10:02:00Z</time>
      </trkpt>
      <trkpt lat="48.60505" lon="2.05198">
        <ele>121.2</ele>
        <time>2026-02-02T10:02:01Z</time>
      </trkpt>
      <trkpt lat="48.60501" lon="2.05202">
        <ele>121.2</ele>
        <time>2026-02-02T10:02:02Z</time>
      </trkpt>
      <trkpt lat="48.60497" lon="2.05206">
        <ele>121.2</ele>
        <time>2026-02-02T10:02:03Z</time>
      </trkpt>
      <trkpt lat="48.60493" lon="2.05211">
        <ele>121.6</ele>
        <time>2026-02-02T10:02:04Z</time>
      </trkpt>
      <trkpt lat="48.60489" lon="2.05215">
        <ele>122</ele>
        <time>2026-02-02T10:02:05Z</time>
      </trkpt>
      <trkpt lat="48.60484" lon="2.05219">
        <ele>122</ele>
        <time>2026-02-02T10:02:06Z</time>
      </trkpt>
      <trkpt lat="48.6048" lon="2.05222">
        <ele>122</ele>
        <time>2026-02-02T10:02:07Z</time>
      </trkpt>
      <trkpt lat="48.60476" lon="2.05226">
        <ele>122</ele>
        <time>2026-02-02T10:02:08Z</time>
      </trkpt>
      <trkpt lat="48.60472" lon="2.0523">
        <ele>122.8</ele>
        <time>2026-02-02T10:02:09Z</time>
      </trkpt>
      <trkpt lat="48.60467" lon="2.05233">
        <ele>122.8</ele>
        <time>2026-02-02T10:02:10Z</time>
      </trkpt>
      <trkpt lat="48.60463" lon="2.05239">
        <ele>122.8</ele>
        <time>2026-02-02T10:02:11Z</time>
      </trkpt>
      <trkpt lat="48.60459" lon="2.05244">
        <ele>122.8</ele>
        <time>2026-02-02T10:02:12Z</time>
      </trkpt>
      <trkpt lat="48.60455" lon="2.05248">
        <ele>122.8</ele>
        <time>2026-02-02T10:02:13Z</time>
      </trkpt>
      <trkpt lat="48.6045" lon="2.05253">
        <ele>122.8</ele>
        <time>2026-02-02T10:02:14Z</time>
      </trkpt>
      <trkpt lat="48.60446" lon="2.05258">
        <ele>122.8</ele>
        <time>2026-02-02T10:02:15Z</time>
      </trkpt>
      <trkpt lat="48.60442" lon="2.05263">
        <ele>123.6</ele>
        <time>2026-02-02T10:02:16Z</time>
      </trkpt>
      <trkpt lat="48.60438" lon="2.05267">
        <ele>123.4</ele>
        <time>2026-02-02T10:02:17Z</time>
      </trkpt>
      <trkpt lat="48.60433" lon="2.05271">
        <ele>123.4</ele>
        <time>2026-02-02T10:02:18Z</time>
      </trkpt>
      <trkpt lat="48.60429" lon="2.05275">
        <ele>123.4</ele>
        <time>2026-02-02T10:02:19Z</time>
      </trkpt>
      <trkpt lat="48.60426" lon="2.0528">
        <ele>123.4</ele>
        <time>2026-02-02T10:02:20Z</time>
      </trkpt>
      <trkpt lat="48.6042" lon="2.05285">
        <ele>123.2</ele>
        <time>2026-02-02T10:02:21Z</time>
      </trkpt>
      <trkpt lat="48.60416" lon="2.0529">
        <ele>123.2</ele>
        <time>2026-02-02T10:02:22Z</time>
      </trkpt>
      <trkpt lat="48.60411" lon="2.05293">
        <ele>123.2</ele>
        <time>2026-02-02T10:02:23Z</time>
      </trkpt>
      <trkpt lat="48.60407" lon="2.05298">
        <ele>124.2</ele>
        <time>2026-02-02T10:02:24Z</time>
      </trkpt>
      <trkpt lat="48.60403" lon="2.05302">
        <ele>124.2</ele>
        <time>2026-02-02T10:02:25Z</time>
      </trkpt>
      <trkpt lat="48.60399" lon="2.05305">
        <ele>124.2</ele>
        <time>2026-02-02T10:02:26Z</time>
      </trkpt>
      <trkpt lat="48.60394" lon="2.0531">
        <ele>124.2</ele>
        <time>2026-02-02T10:02:27Z</time>
      </trkpt>
      <trkpt lat="48.60389" lon="2.05315">
        <ele>124</ele>
        <time>2026-02-02T10:02:28Z</time>
      </trkpt>
      <trkpt lat="48.60385" lon="2.05319">
        <ele>124.2</ele>
        <time>2026-02-02T10:02:29Z</time>
      </trkpt>
      <trkpt lat="48.60379" lon="2.05324">
        <ele>124.2</ele>
        <time>2026-02-02T10:02:30Z</time>
      </trkpt>
      <trkpt lat="48.60374" lon="2.05329">
        <ele>124.2</ele>
        <time>2026-02-02T10:02:31Z</time>
      </trkpt>
      <trkpt lat="48.60369" lon="2.05333">
        <ele>124.2</ele>
        <time>2026-02-02T10:02:32Z</time>
      </trkpt>
      <trkpt lat="48.60364" lon="2.05338">
        <ele>124.2</ele>
        <time>2026-02-02T10:02:33Z</time>
      </trkpt>
      <trkpt lat="48.60359" lon="2.05342">
        <ele>124.2</ele>
        <time>2026-02-02T10:02:34Z</time>
      </trkpt>
      <trkpt lat="48.60354" lon="2.05348">
        <ele>124.2</ele>
        <time>2026-02-02T10:02:35Z</time>
      </trkpt>
      <trkpt lat="48.60349" lon="2.05353">
        <ele>124.2</ele>
        <time>2026-02-02T10:02:36Z</time>
      </trkpt>
      <trkpt lat="48.60344" lon="2.05358">
        <ele>123.8</ele>
        <time>2026-02-02T10:02:37Z</time>
      </trkpt>
      <trkpt lat="48.60339" lon="2.05363">
        <ele>123.8</ele>
        <time>2026-02-02T10:02:38Z</time>
      </trkpt>
      <trkpt lat="48.60334" lon="2.05369">
        <ele>123.8</ele>
        <time>2026-02-02T10:02:39Z</time>
      </trkpt>
      <trkpt lat="48.60329" lon="2.05375">
        <ele>123.8</ele>
        <time>2026-02-02T10:02:40Z</time>
      </trkpt>
      <trkpt lat="48.60324" lon="2.0538">
        <ele>123.6</ele>
        <time>2026-02-02T10:02:41Z</time>
      </trkpt>
      <trkpt lat="48.60319" lon="2.05385">
        <ele>123.6</ele>
        <time>2026-02-02T10:02:42Z</time>
      </trkpt>
      <trkpt lat="48.60313" lon="2.05391">
        <ele>123.6</ele>
        <time>2026-02-02T10:02:43Z</time>
      </trkpt>
      <trkpt lat="48.60308" lon="2.05396">
        <ele>123.6</ele>
        <time>2026-02-02T10:02:44Z</time>
      </trkpt>
      <trkpt lat="48.60303" lon="2.05398">
        <ele>123.4</ele>
        <time>2026-02-02T10:02:45Z</time>
      </trkpt>
      <trkpt lat="48.60298" lon="2.05406">
        <ele>123.4</ele>
        <time>2026-02-02T10:02:46Z</time>
      </trkpt>
      <trkpt lat="48.60292" lon="2.05412">
        <ele>123.4</ele>
        <time>2026-02-02T10:02:47Z</time>
      </trkpt>
      <trkpt lat="48.60287" lon="2.05418">
        <ele>122.8</ele>
        <time>2026-02-02T10:02:48Z</time>
      </trkpt>
      <trkpt lat="48.60281" lon="2.05425">
        <ele>122.8</ele>
        <time>2026-02-02T10:02:49Z</time>
      </trkpt>
      <trkpt lat="48.60276" lon="2.05429">
        <ele>122.8</ele>
        <time>2026-02-02T10:02:50Z</time>
      </trkpt>
      <trkpt lat="48.60271" lon="2.05434">
        <ele>122.8</ele>
        <time>2026-02-02T10:02:51Z</time>
      </trkpt>
      <trkpt lat="48.60266" lon="2.0544">
        <ele>122.8</ele>
        <time>2026-02-02T10:02:52Z</time>
      </trkpt>
      <trkpt lat="48.6026" lon="2.05446">
        <ele>122.6</ele>
        <time>2026-02-02T10:02:53Z</time>
      </trkpt>
      <trkpt lat="48.60255" lon="2.05452">
        <ele>122.6</ele>
        <time>2026-02-02T10:02:54Z</time>
      </trkpt>
      <trkpt lat="48.60249" lon="2.05459">
        <ele>122.6</ele>
        <time>2026-02-02T10:02:55Z</time>
      </trkpt>
      <trkpt lat="48.60244" lon="2.05464">
        <ele>122.4</ele>
        <time>2026-02-02T10:02:56Z</time>
      </trkpt>
      <trkpt lat="48.60239" lon="2.0547">
        <ele>122.2</ele>
        <time>2026-02-02T10:02:57Z</time>
      </trkpt>
      <trkpt lat="48.60234" lon="2.05474">
        <ele>122.2</ele>
        <time>2026-02-02T10:02:58Z</time>
      </trkpt>
      <trkpt lat="48.60228" lon="2.05481">
        <ele>122.2</ele>
        <time>2026-02-02T10:02:59Z</time>
      </trkpt>
      <trkpt lat="48.60223" lon="2.05486">
        <ele>122.2</ele>
        <time>2026-02-02T10:03:00Z</time>
      </trkpt>
      <trkpt lat="48.60217" lon="2.05492">
        <ele>121.8</ele>
        <time>2026-02-02T10:03:01Z</time>
      </trkpt>
      <trkpt lat="48.60212" lon="2.05498">
        <ele>121.8</ele>
        <time>2026-02-02T10:03:02Z</time>
      </trkpt>
      <trkpt lat="48.60206" lon="2.05504">
        <ele>121.8</ele>
        <time>2026-02-02T10:03:03Z</time>
      </trkpt>
      <trkpt lat="48.60201" lon="2.0551">
        <ele>122.2</ele>
        <time>2026-02-02T10:03:04Z</time>
      </trkpt>
      <trkpt lat="48.60196" lon="2.05515">
        <ele>122.4</ele>
        <time>2026-02-02T10:03:05Z</time>
      </trkpt>
      <trkpt lat="48.60191" lon="2.0552">
        <ele>122.4</ele>
        <time>2026-02-02T10:03:06Z</time>
      </trkpt>
      <trkpt lat="48.60186" lon="2.05524">
        <ele>122.4</ele>
        <time>2026-02-02T10:03:07Z</time>
      </trkpt>
      <trkpt lat="48.6018" lon="2.0553">
        <ele>122.8</ele>
        <time>2026-02-02T10:03:08Z</time>
      </trkpt>
      <trkpt lat="48.60175" lon="2.05536">
        <ele>122.8</ele>
        <time>2026-02-02T10:03:09Z</time>
      </trkpt>
      <trkpt lat="48.6017" lon="2.0554">
        <ele>122.8</ele>
        <time>2026-02-02T10:03:10Z</time>
      </trkpt>
      <trkpt lat="48.60165" lon="2.05546">
        <ele>122.8</ele>
        <time>2026-02-02T10:03:11Z</time>
      </trkpt>
      <trkpt lat="48.6016" lon="2.05552">
        <ele>122.8</ele>
        <time>2026-02-02T10:03:12Z</time>
      </trkpt>
      <trkpt lat="48.60155" lon="2.05558">
        <ele>123.4</ele>
        <time>2026-02-02T10:03:13Z</time>
      </trkpt>
      <trkpt lat="48.6015" lon="2.05563">
        <ele>123.4</ele>
        <time>2026-02-02T10:03:14Z</time>
      </trkpt>
      <trkpt lat="48.60145" lon="2.05568">
        <ele>123.4</ele>
        <time>2026-02-02T10:03:15Z</time>
      </trkpt>
      <trkpt lat="48.6014" lon="2.05574">
        <ele>122.6</ele>
        <time>2026-02-02T10:03:16Z</time>
      </trkpt>
      <trkpt lat="48.60135" lon="2.0558">
        <ele>122.6</ele>
        <time>2026-02-02T10:03:17Z</time>
      </trkpt>
      <trkpt lat="48.60129" lon="2.05586">
        <ele>122.6</ele>
        <time>2026-02-02T10:03:18Z</time>
      </trkpt>
      <trkpt lat="48.60125" lon="2.05592">
        <ele>122.6</ele>
        <time>2026-02-02T10:03:19Z</time>
      </trkpt>
      <trkpt lat="48.6012" lon="2.05598">
        <ele>122.6</ele>
        <time>2026-02-02T10:03:20Z</time>
      </trkpt>
      <trkpt lat="48.60116" lon="2.05605">
        <ele>122.8</ele>
        <time>2026-02-02T10:03:21Z</time>
      </trkpt>
      <trkpt lat="48.60111" lon="2.0561">
        <ele>122.8</ele>
        <time>2026-02-02T10:03:22Z</time>
      </trkpt>
      <trkpt lat="48.60106" lon="2.05617">
        <ele>122.8</ele>
        <time>2026-02-02T10:03:23Z</time>
      </trkpt>
      <trkpt lat="48.60101" lon="2.05622">
        <ele>123.4</ele>
        <time>2026-02-02T10:03:24Z</time>
      </trkpt>
      <trkpt lat="48.60097" lon="2.05626">
        <ele>123.8</ele>
        <time>2026-02-02T10:03:25Z</time>
      </trkpt>
      <trkpt lat="48.60092" lon="2.05632">
        <ele>123.8</ele>
        <time>2026-02-02T10:03:26Z</time>
      </trkpt>
      <trkpt lat="48.60087" lon="2.05637">
        <ele>123.8</ele>
        <time>2026-02-02T10:03:27Z</time>
      </trkpt>
      <trkpt lat="48.60083" lon="2.05642">
        <ele>123.8</ele>
        <time>2026-02-02T10:03:28Z</time>
      </trkpt>
      <trkpt lat="48.60078" lon="2.05648">
        <ele>124</ele>
        <time>2026-02-02T10:03:29Z</time>
      </trkpt>
      <trkpt lat="48.60073" lon="2.05654">
        <ele>124</ele>
        <time>2026-02-02T10:03:30Z</time>
      </trkpt>
      <trkpt lat="48.60069" lon="2.05658">
        <ele>124</ele>
        <time>2026-02-02T10:03:31Z</time>
      </trkpt>
      <trkpt lat="48.60064" lon="2.05661">
        <ele>125</ele>
        <time>2026-02-02T10:03:32Z</time>
      </trkpt>
      <trkpt lat="48.6006" lon="2.05663">
        <ele>125.4</ele>
        <time>2026-02-02T10:03:33Z</time>
      </trkpt>
      <trkpt lat="48.60055" lon="2.05667">
        <ele>125.4</ele>
        <time>2026-02-02T10:03:34Z</time>
      </trkpt>
      <trkpt lat="48.60051" lon="2.05672">
        <ele>125.4</ele>
        <time>2026-02-02T10:03:35Z</time>
      </trkpt>
      <trkpt lat="48.60046" lon="2.05676">
        <ele>126.4</ele>
        <time>2026-02-02T10:03:36Z</time>
      </trkpt>
      <trkpt lat="48.60042" lon="2.05681">
        <ele>126.6</ele>
        <time>2026-02-02T10:03:37Z</time>
      </trkpt>
      <trkpt lat="48.60037" lon="2.05683">
        <ele>126.6</ele>
        <time>2026-02-02T10:03:38Z</time>
      </trkpt>
      <trkpt lat="48.60032" lon="2.05687">
        <ele>126.6</ele>
        <time>2026-02-02T10:03:39Z</time>
      </trkpt>
      <trkpt lat="48.60028" lon="2.05694">
        <ele>127.6</ele>
        <time>2026-02-02T10:03:40Z</time>
      </trkpt>
      <trkpt lat="48.60024" lon="2.05699">
        <ele>127.4</ele>
        <time>2026-02-02T10:03:41Z</time>
      </trkpt>
      <trkpt lat="48.60019" lon="2.05704">
        <ele>127.4</ele>
        <time>2026-02-02T10:03:42Z</time>
      </trkpt>
      <trkpt lat="48.60015" lon="2.05709">
        <ele>127.4</ele>
        <time>2026-02-02T10:03:43Z</time>
      </trkpt>
      <trkpt lat="48.6001" lon="2.05712">
        <ele>128.2</ele>
        <time>2026-02-02T10:03:44Z</time>
      </trkpt>
      <trkpt lat="48.60005" lon="2.05717">
        <ele>129</ele>
        <time>2026-02-02T10:03:45Z</time>
      </trkpt>
      <trkpt lat="48.6" lon="2.05721">
        <ele>129</ele>
        <time>2026-02-02T10:03:46Z</time>
      </trkpt>
      <trkpt lat="48.59996" lon="2.05726">
        <ele>129</ele>
        <time>2026-02-02T10:03:47Z</time>
      </trkpt>
      <trkpt lat="48.59991" lon="2.05732">
        <ele>129</ele>
        <time>2026-02-02T10:03:48Z</time>
      </trkpt>
      <trkpt lat="48.59986" lon="2.05737">
        <ele>129.2</ele>
        <time>2026-02-02T10:03:49Z</time>
      </trkpt>
      <trkpt lat="48.59981" lon="2.05742">
        <ele>129.2</ele>
        <time>2026-02-02T10:03:50Z</time>
      </trkpt>
      <trkpt lat="48.59976" lon="2.05746">
        <ele>129.2</ele>
        <time>2026-02-02T10:03:51Z</time>
      </trkpt>
      <trkpt lat="48.59971" lon="2.0575">
        <ele>129.2</ele>
        <time>2026-02-02T10:03:52Z</time>
      </trkpt>
      <trkpt lat="48.59966" lon="2.05755">
        <ele>130.2</ele>
        <time>2026-02-02T10:03:53Z</time>
      </trkpt>
      <trkpt lat="48.59961" lon="2.0576">
        <ele>130.2</ele>
        <time>2026-02-02T10:03:54Z</time>
      </trkpt>
      <trkpt lat="48.59956" lon="2.05766">
        <ele>130.2</ele>
        <time>2026-02-02T10:03:55Z</time>
      </trkpt>
      <trkpt lat="48.59952" lon="2.05772">
        <ele>130.6</ele>
        <time>2026-02-02T10:03:56Z</time>
      </trkpt>
      <trkpt lat="48.59947" lon="2.05778">
        <ele>130.6</ele>
        <time>2026-02-02T10:03:57Z</time>
      </trkpt>
      <trkpt lat="48.59942" lon="2.05784">
        <ele>130.6</ele>
        <time>2026-02-02T10:03:58Z</time>
      </trkpt>
      <trkpt lat="48.59937" lon="2.0579">
        <ele>130.6</ele>
        <time>2026-02-02T10:03:59Z</time>
      </trkpt>
      <trkpt lat="48.59932" lon="2.05797">
        <ele>130.6</ele>
        <time>2026-02-02T10:04:00Z</time>
      </trkpt>
      <trkpt lat="48.59927" lon="2.05803">
        <ele>130.6</ele>
        <time>2026-02-02T10:04:01Z</time>
      </trkpt>
      <trkpt lat="48.59922" lon="2.05809">
        <ele>130.6</ele>
        <time>2026-02-02T10:04:02Z</time>
      </trkpt>
      <trkpt lat="48.59917" lon="2.05814">
        <ele>130.6</ele>
        <time>2026-02-02T10:04:03Z</time>
      </trkpt>
      <trkpt lat="48.59912" lon="2.05821">
        <ele>130.6</ele>
        <time>2026-02-02T10:04:04Z</time>
      </trkpt>
      <trkpt lat="48.59906" lon="2.05827">
        <ele>130.6</ele>
        <time>2026-02-02T10:04:05Z</time>
      </trkpt>
      <trkpt lat="48.59901" lon="2.05833">
        <ele>130.6</ele>
        <time>2026-02-02T10:04:06Z</time>
      </trkpt>
      <trkpt lat="48.59896" lon="2.05838">
        <ele>130.6</ele>
        <time>2026-02-02T10:04:07Z</time>
      </trkpt>
      <trkpt lat="48.59891" lon="2.05844">
        <ele>130.6</ele>
        <time>2026-02-02T10:04:08Z</time>
      </trkpt>
      <trkpt lat="48.59885" lon="2.0585">
        <ele>130</ele>
        <time>2026-02-02T10:04:09Z</time>
      </trkpt>
      <trkpt lat="48.5988" lon="2.05857">
        <ele>130</ele>
        <time>2026-02-02T10:04:10Z</time>
      </trkpt>
      <trkpt lat="48.59874" lon="2.05863">
        <ele>130</ele>
        <time>2026-02-02T10:04:11Z</time>
      </trkpt>
      <trkpt lat="48.59869" lon="2.05869">
        <ele>129.4</ele>
        <time>2026-02-02T10:04:12Z</time>
      </trkpt>
      <trkpt lat="48.59863" lon="2.05875">
        <ele>129.2</ele>
        <time>2026-02-02T10:04:13Z</time>
      </trkpt>
      <trkpt lat="48.59858" lon="2.05881">
        <ele>129.2</ele>
        <time>2026-02-02T10:04:14Z</time>
      </trkpt>
      <trkpt lat="48.59852" lon="2.05886">
        <ele>129.2</ele>
        <time>2026-02-02T10:04:15Z</time>
      </trkpt>
      <trkpt lat="48.59846" lon="2.05891">
        <ele>128.6</ele>
        <time>2026-02-02T10:04:16Z</time>
      </trkpt>
      <trkpt lat="48.5984" lon="2.05897">
        <ele>128.6</ele>
        <time>2026-02-02T10:04:17Z</time>
      </trkpt>
      <trkpt lat="48.59834" lon="2.05901">
        <ele>128.6</ele>
        <time>2026-02-02T10:04:18Z</time>
      </trkpt>
      <trkpt lat="48.59828" lon="2.05906">
        <ele>128.6</ele>
        <time>2026-02-02T10:04:19Z</time>
      </trkpt>
      <trkpt lat="48.59822" lon="2.05913">
        <ele>127.6</ele>
        <time>2026-02-02T10:04:20Z</time>
      </trkpt>
      <trkpt lat="48.59816" lon="2.05919">
        <ele>127</ele>
        <time>2026-02-02T10:04:21Z</time>
      </trkpt>
      <trkpt lat="48.5981" lon="2.05925">
        <ele>127</ele>
        <time>2026-02-02T10:04:22Z</time>
      </trkpt>
      <trkpt lat="48.59803" lon="2.05932">
        <ele>127</ele>
        <time>2026-02-02T10:04:23Z</time>
      </trkpt>
      <trkpt lat="48.59796" lon="2.05938">
        <ele>126.2</ele>
        <time>2026-02-02T10:04:24Z</time>
      </trkpt>
      <trkpt lat="48.59789" lon="2.05944">
        <ele>125.6</ele>
        <time>2026-02-02T10:04:25Z</time>
      </trkpt>
      <trkpt lat="48.59781" lon="2.05949">
        <ele>125.6</ele>
        <time>2026-02-02T10:04:26Z</time>
      </trkpt>
      <trkpt lat="48.59774" lon="2.05955">
        <ele>125.6</ele>
        <time>2026-02-02T10:04:27Z</time>
      </trkpt>
      <trkpt lat="48.59766" lon="2.05962">
        <ele>124.6</ele>
        <time>2026-02-02T10:04:28Z</time>
      </trkpt>
      <trkpt lat="48.59758" lon="2.05969">
        <ele>123.2</ele>
        <time>2026-02-02T10:04:29Z</time>
      </trkpt>
      <trkpt lat="48.5975" lon="2.05975">
        <ele>123.2</ele>
        <time>2026-02-02T10:04:30Z</time>
      </trkpt>
      <trkpt lat="48.59742" lon="2.05981">
        <ele>123.2</ele>
        <time>2026-02-02T10:04:31Z</time>
      </trkpt>
      <trkpt lat="48.59734" lon="2.05989">
        <ele>122.2</ele>
        <time>2026-02-02T10:04:32Z</time>
      </trkpt>
      <trkpt lat="48.59725" lon="2.05996">
        <ele>120.8</ele>
        <time>2026-02-02T10:04:33Z</time>
      </trkpt>
      <trkpt lat="48.59717" lon="2.06002">
        <ele>120.8</ele>
        <time>2026-02-02T10:04:34Z</time>
      </trkpt>
      <trkpt lat="48.5971" lon="2.06009">
        <ele>120.8</ele>
        <time>2026-02-02T10:04:35Z</time>
      </trkpt>
      <trkpt lat="48.59702" lon="2.06016">
        <ele>119.8</ele>
        <time>2026-02-02T10:04:36Z</time>
      </trkpt>
      <trkpt lat="48.59695" lon="2.06023">
        <ele>119.4</ele>
        <time>2026-02-02T10:04:37Z</time>
      </trkpt>
      <trkpt lat="48.59686" lon="2.06029">
        <ele>119.4</ele>
        <time>2026-02-02T10:04:38Z</time>
      </trkpt>
      <trkpt lat="48.59679" lon="2.06037">
        <ele>119.4</ele>
        <time>2026-02-02T10:04:39Z</time>
      </trkpt>
      <trkpt lat="48.59671" lon="2.06045">
        <ele>119</ele>
        <time>2026-02-02T10:04:40Z</time>
      </trkpt>
      <trkpt lat="48.59663" lon="2.06053">
        <ele>119</ele>
        <time>2026-02-02T10:04:41Z</time>
      </trkpt>
      <trkpt lat="48.59656" lon="2.06062">
        <ele>119</ele>
        <time>2026-02-02T10:04:42Z</time>
      </trkpt>
      <trkpt lat="48.59649" lon="2.06073">
        <ele>119</ele>
        <time>2026-02-02T10:04:43Z</time>
      </trkpt>
      <trkpt lat="48.59641" lon="2.06083">
        <ele>118</ele>
        <time>2026-02-02T10:04:44Z</time>
      </trkpt>
      <trkpt lat="48.59634" lon="2.06093">
        <ele>117.8</ele>
        <time>2026-02-02T10:04:45Z</time>
      </trkpt>
      <trkpt lat="48.59626" lon="2.06103">
        <ele>117.8</ele>
        <time>2026-02-02T10:04:46Z</time>
      </trkpt>
      <trkpt lat="48.59619" lon="2.06113">
        <ele>117.8</ele>
        <time>2026-02-02T10:04:47Z</time>
      </trkpt>
      <trkpt lat="48.59612" lon="2.06122">
        <ele>117.8</ele>
        <time>2026-02-02T10:04:48Z</time>
      </trkpt>
      <trkpt lat="48.59605" lon="2.06131">
        <ele>117.2</ele>
        <time>2026-02-02T10:04:49Z</time>
      </trkpt>
      <trkpt lat="48.59597" lon="2.06141">
        <ele>117.2</ele>
        <time>2026-02-02T10:04:50Z</time>
      </trkpt>
      <trkpt lat="48.5959" lon="2.0615">
        <ele>117.2</ele>
        <time>2026-02-02T10:04:51Z</time>
      </trkpt>
      <trkpt lat="48.59584" lon="2.06159">
        <ele>117.2</ele>
        <time>2026-02-02T10:04:52Z</time>
      </trkpt>
      <trkpt lat="48.59577" lon="2.06168">
        <ele>116.8</ele>
        <time>2026-02-02T10:04:53Z</time>
      </trkpt>
      <trkpt lat="48.5957" lon="2.06177">
        <ele>116.8</ele>
        <time>2026-02-02T10:04:54Z</time>
      </trkpt>
      <trkpt lat="48.59563" lon="2.06186">
        <ele>116.8</ele>
        <time>2026-02-02T10:04:55Z</time>
      </trkpt>
      <trkpt lat="48.59557" lon="2.06195">
        <ele>116.4</ele>
        <time>2026-02-02T10:04:56Z</time>
      </trkpt>
      <trkpt lat="48.5955" lon="2.06205">
        <ele>116.6</ele>
        <time>2026-02-02T10:04:57Z</time>
      </trkpt>
      <trkpt lat="48.59543" lon="2.06213">
        <ele>116.6</ele>
        <time>2026-02-02T10:04:58Z</time>
      </trkpt>
      <trkpt lat="48.59537" lon="2.06221">
        <ele>116.6</ele>
        <time>2026-02-02T10:04:59Z</time>
      </trkpt>
      <trkpt lat="48.59531" lon="2.06228">
        <ele>116.6</ele>
        <time>2026-02-02T10:05:00Z</time>
      </trkpt>
      <trkpt lat="48.59525" lon="2.06236">
        <ele>116.4</ele>
        <time>2026-02-02T10:05:01Z</time>
      </trkpt>
      <trkpt lat="48.59518" lon="2.06243">
        <ele>116.4</ele>
        <time>2026-02-02T10:05:02Z</time>
      </trkpt>
      <trkpt lat="48.59513" lon="2.06251">
        <ele>116.4</ele>
        <time>2026-02-02T10:05:03Z</time>
      </trkpt>
      <trkpt lat="48.59507" lon="2.06259">
        <ele>116.4</ele>
        <time>2026-02-02T10:05:04Z</time>
      </trkpt>
      <trkpt lat="48.59501" lon="2.06266">
        <ele>116.4</ele>
        <time>2026-02-02T10:05:05Z</time>
      </trkpt>
      <trkpt lat="48.59495" lon="2.06273">
        <ele>116.4</ele>
        <time>2026-02-02T10:05:06Z</time>
      </trkpt>
      <trkpt lat="48.59489" lon="2.0628">
        <ele>116.4</ele>
        <time>2026-02-02T10:05:07Z</time>
      </trkpt>
      <trkpt lat="48.59483" lon="2.06286">
        <ele>116.4</ele>
        <time>2026-02-02T10:05:08Z</time>
      </trkpt>
      <trkpt lat="48.59478" lon="2.06292">
        <ele>116.6</ele>
        <time>2026-02-02T10:05:09Z</time>
      </trkpt>
      <trkpt lat="48.59472" lon="2.063">
        <ele>116.6</ele>
        <time>2026-02-02T10:05:10Z</time>
      </trkpt>
      <trkpt lat="48.59467" lon="2.06307">
        <ele>116.6</ele>
        <time>2026-02-02T10:05:11Z</time>
      </trkpt>
      <trkpt lat="48.59461" lon="2.06313">
        <ele>116.8</ele>
        <time>2026-02-02T10:05:12Z</time>
      </trkpt>
      <trkpt lat="48.59456" lon="2.06319">
        <ele>117</ele>
        <time>2026-02-02T10:05:13Z</time>
      </trkpt>
      <trkpt lat="48.5945" lon="2.06325">
        <ele>117</ele>
        <time>2026-02-02T10:05:14Z</time>
      </trkpt>
      <trkpt lat="48.59445" lon="2.0633">
        <ele>117</ele>
        <time>2026-02-02T10:05:15Z</time>
      </trkpt>
      <trkpt lat="48.59439" lon="2.06335">
        <ele>117</ele>
        <time>2026-02-02T10:05:16Z</time>
      </trkpt>
      <trkpt lat="48.59434" lon="2.0634">
        <ele>117.4</ele>
        <time>2026-02-02T10:05:17Z</time>
      </trkpt>
      <trkpt lat="48.59429" lon="2.06345">
        <ele>117.4</ele>
        <time>2026-02-02T10:05:18Z</time>
      </trkpt>
      <trkpt lat="48.59423" lon="2.06349">
        <ele>117.4</ele>
        <time>2026-02-02T10:05:19Z</time>
      </trkpt>
      <trkpt lat="48.59418" lon="2.06355">
        <ele>118.2</ele>
        <time>2026-02-02T10:05:20Z</time>
      </trkpt>
      <trkpt lat="48.59414" lon="2.0636">
        <ele>118</ele>
        <time>2026-02-02T10:05:21Z</time>
      </trkpt>
      <trkpt lat="48.5941" lon="2.06365">
        <ele>118</ele>
        <time>2026-02-02T10:05:22Z</time>
      </trkpt>
      <trkpt lat="48.59406" lon="2.06369">
        <ele>118</ele>
        <time>2026-02-02T10:05:23Z</time>
      </trkpt>
      <trkpt lat="48.59402" lon="2.06374">
        <ele>118.8</ele>
        <time>2026-02-02T10:05:24Z</time>
      </trkpt>
      <trkpt lat="48.59398" lon="2.06378">
        <ele>119.2</ele>
        <time>2026-02-02T10:05:25Z</time>
      </trkpt>
      <trkpt lat="48.59393" lon="2.06381">
        <ele>119.2</ele>
        <time>2026-02-02T10:05:26Z</time>
      </trkpt>
      <trkpt lat="48.59388" lon="2.06381">
        <ele>119.2</ele>
        <time>2026-02-02T10:05:27Z</time>
      </trkpt>
      <trkpt lat="48.59384" lon="2.06381">
        <ele>120</ele>
        <time>2026-02-02T10:05:28Z</time>
      </trkpt>
      <trkpt lat="48.59378" lon="2.0638">
        <ele>119.4</ele>
        <time>2026-02-02T10:05:29Z</time>
      </trkpt>
      <trkpt lat="48.59373" lon="2.06379">
        <ele>119.4</ele>
        <time>2026-02-02T10:05:30Z</time>
      </trkpt>
      <trkpt lat="48.59367" lon="2.06377">
        <ele>119.4</ele>
        <time>2026-02-02T10:05:31Z</time>
      </trkpt>
      <trkpt lat="48.59361" lon="2.06375">
        <ele>119.4</ele>
        <time>2026-02-02T10:05:32Z</time>
      </trkpt>
      <trkpt lat="48.59355" lon="2.06372">
        <ele>118.8</ele>
        <time>2026-02-02T10:05:33Z</time>
      </trkpt>
      <trkpt lat="48.59349" lon="2.06369">
        <ele>118.8</ele>
        <time>2026-02-02T10:05:34Z</time>
      </trkpt>
      <trkpt lat="48.59343" lon="2.06367">
        <ele>118.8</ele>
        <time>2026-02-02T10:05:35Z</time>
      </trkpt>
      <trkpt lat="48.59336" lon="2.06364">
        <ele>118</ele>
        <time>2026-02-02T10:05:36Z</time>
      </trkpt>
      <trkpt lat="48.5933" lon="2.0636">
        <ele>117.4</ele>
        <time>2026-02-02T10:05:37Z</time>
      </trkpt>
      <trkpt lat="48.59322" lon="2.06357">
        <ele>117.4</ele>
        <time>2026-02-02T10:05:38Z</time>
      </trkpt>
      <trkpt lat="48.59315" lon="2.06354">
        <ele>117.4</ele>
        <time>2026-02-02T10:05:39Z</time>
      </trkpt>
      <trkpt lat="48.59308" lon="2.06351">
        <ele>116.8</ele>
        <time>2026-02-02T10:05:40Z</time>
      </trkpt>
      <trkpt lat="48.593" lon="2.06347">
        <ele>116.2</ele>
        <time>2026-02-02T10:05:41Z</time>
      </trkpt>
      <trkpt lat="48.59293" lon="2.06344">
        <ele>116.2</ele>
        <time>2026-02-02T10:05:42Z</time>
      </trkpt>
      <trkpt lat="48.59285" lon="2.06339">
        <ele>116.2</ele>
        <time>2026-02-02T10:05:43Z</time>
      </trkpt>
      <trkpt lat="48.59277" lon="2.06335">
        <ele>116.2</ele>
        <time>2026-02-02T10:05:44Z</time>
      </trkpt>
      <trkpt lat="48.5927" lon="2.06331">
        <ele>114.8</ele>
        <time>2026-02-02T10:05:45Z</time>
      </trkpt>
      <trkpt lat="48.59262" lon="2.06327">
        <ele>114.8</ele>
        <time>2026-02-02T10:05:46Z</time>
      </trkpt>
      <trkpt lat="48.59254" lon="2.06323">
        <ele>114.8</ele>
        <time>2026-02-02T10:05:47Z</time>
      </trkpt>
      <trkpt lat="48.59246" lon="2.06319">
        <ele>114.8</ele>
        <time>2026-02-02T10:05:48Z</time>
      </trkpt>
      <trkpt lat="48.59239" lon="2.06315">
        <ele>113.4</ele>
        <time>2026-02-02T10:05:49Z</time>
      </trkpt>
      <trkpt lat="48.59231" lon="2.06311">
        <ele>113.4</ele>
        <time>2026-02-02T10:05:50Z</time>
      </trkpt>
      <trkpt lat="48.59224" lon="2.06308">
        <ele>113.4</ele>
        <time>2026-02-02T10:05:51Z</time>
      </trkpt>
      <trkpt lat="48.59216" lon="2.06304">
        <ele>112.6</ele>
        <time>2026-02-02T10:05:52Z</time>
      </trkpt>
      <trkpt lat="48.59208" lon="2.063">
        <ele>112.2</ele>
        <time>2026-02-02T10:05:53Z</time>
      </trkpt>
      <trkpt lat="48.592" lon="2.06295">
        <ele>112.2</ele>
        <time>2026-02-02T10:05:54Z</time>
      </trkpt>
      <trkpt lat="48.59192" lon="2.06291">
        <ele>112.2</ele>
        <time>2026-02-02T10:05:55Z</time>
      </trkpt>
      <trkpt lat="48.59184" lon="2.06287">
        <ele>112.2</ele>
        <time>2026-02-02T10:05:56Z</time>
      </trkpt>
      <trkpt lat="48.59175" lon="2.06282">
        <ele>111.6</ele>
        <time>2026-02-02T10:05:57Z</time>
      </trkpt>
      <trkpt lat="48.59167" lon="2.06278">
        <ele>111.6</ele>
        <time>2026-02-02T10:05:58Z</time>
      </trkpt>
      <trkpt lat="48.59159" lon="2.06274">
        <ele>111.6</ele>
        <time>2026-02-02T10:05:59Z</time>
      </trkpt>
      <trkpt lat="48.5915" lon="2.0627">
        <ele>110.8</ele>
        <time>2026-02-02T10:06:00Z</time>
      </trkpt>
      <trkpt lat="48.59142" lon="2.06266">
        <ele>111.2</ele>
        <time>2026-02-02T10:06:01Z</time>
      </trkpt>
      <trkpt lat="48.59134" lon="2.06262">
        <ele>111.2</ele>
        <time>2026-02-02T10:06:02Z</time>
      </trkpt>
      <trkpt lat="48.59126" lon="2.06257">
        <ele>111.2</ele>
        <time>2026-02-02T10:06:03Z</time>
      </trkpt>
      <trkpt lat="48.59118" lon="2.06253">
        <ele>111.2</ele>
        <time>2026-02-02T10:06:04Z</time>
      </trkpt>
      <trkpt lat="48.5911" lon="2.06249">
        <ele>111</ele>
        <time>2026-02-02T10:06:05Z</time>
      </trkpt>
      <trkpt lat="48.59103" lon="2.06244">
        <ele>111</ele>
        <time>2026-02-02T10:06:06Z</time>
      </trkpt>
      <trkpt lat="48.59097" lon="2.06236">
        <ele>111</ele>
        <time>2026-02-02T10:06:07Z</time>
      </trkpt>
      <trkpt lat="48.59091" lon="2.06228">
        <ele>111</ele>
        <time>2026-02-02T10:06:08Z</time>
      </trkpt>
      <trkpt lat="48.59084" lon="2.06221">
        <ele>111.2</ele>
        <time>2026-02-02T10:06:09Z</time>
      </trkpt>
      <trkpt lat="48.59077" lon="2.06215">
        <ele>111.2</ele>
        <time>2026-02-02T10:06:10Z</time>
      </trkpt>
      <trkpt lat="48.59071" lon="2.06209">
        <ele>111.2</ele>
        <time>2026-02-02T10:06:11Z</time>
      </trkpt>
      <trkpt lat="48.59066" lon="2.06203">
        <ele>110.2</ele>
        <time>2026-02-02T10:06:12Z</time>
      </trkpt>
      <trkpt lat="48.59062" lon="2.06196">
        <ele>110.2</ele>
        <time>2026-02-02T10:06:13Z</time>
      </trkpt>
      <trkpt lat="48.59057" lon="2.06189">
        <ele>110.2</ele>
        <time>2026-02-02T10:06:14Z</time>
      </trkpt>
      <trkpt lat="48.59052" lon="2.0618">
        <ele>110.2</ele>
        <time>2026-02-02T10:06:15Z</time>
      </trkpt>
      <trkpt lat="48.59047" lon="2.06172">
        <ele>110.2</ele>
        <time>2026-02-02T10:06:16Z</time>
      </trkpt>
      <trkpt lat="48.59041" lon="2.06164">
        <ele>109</ele>
        <time>2026-02-02T10:06:17Z</time>
      </trkpt>
      <trkpt lat="48.59036" lon="2.06156">
        <ele>109</ele>
        <time>2026-02-02T10:06:18Z</time>
      </trkpt>
      <trkpt lat="48.5903" lon="2.06148">
        <ele>109</ele>
        <time>2026-02-02T10:06:19Z</time>
      </trkpt>
      <trkpt lat="48.59024" lon="2.06139">
        <ele>109</ele>
        <time>2026-02-02T10:06:20Z</time>
      </trkpt>
      <trkpt lat="48.59018" lon="2.0613">
        <ele>108.2</ele>
        <time>2026-02-02T10:06:21Z</time>
      </trkpt>
      <trkpt lat="48.59012" lon="2.06121">
        <ele>108.2</ele>
        <time>2026-02-02T10:06:22Z</time>
      </trkpt>
      <trkpt lat="48.59006" lon="2.06112">
        <ele>108.2</ele>
        <time>2026-02-02T10:06:23Z</time>
      </trkpt>
      <trkpt lat="48.58999" lon="2.06104">
        <ele>107.2</ele>
        <time>2026-02-02T10:06:24Z</time>
      </trkpt>
      <trkpt lat="48.58993" lon="2.06094">
        <ele>106.8</ele>
        <time>2026-02-02T10:06:25Z</time>
      </trkpt>
      <trkpt lat="48.58987" lon="2.06084">
        <ele>106.8</ele>
        <time>2026-02-02T10:06:26Z</time>
      </trkpt>
      <trkpt lat="48.5898" lon="2.06075">
        <ele>106.8</ele>
        <time>2026-02-02T10:06:27Z</time>
      </trkpt>
      <trkpt lat="48.58974" lon="2.06066">
        <ele>107</ele>
        <time>2026-02-02T10:06:28Z</time>
      </trkpt>
      <trkpt lat="48.58967" lon="2.06057">
        <ele>106.6</ele>
        <time>2026-02-02T10:06:29Z</time>
      </trkpt>
      <trkpt lat="48.58961" lon="2.06047">
        <ele>106.6</ele>
        <time>2026-02-02T10:06:30Z</time>
      </trkpt>
      <trkpt lat="48.58956" lon="2.06039">
        <ele>106.6</ele>
        <time>2026-02-02T10:06:31Z</time>
      </trkpt>
      <trkpt lat="48.5895" lon="2.06029">
        <ele>106.6</ele>
        <time>2026-02-02T10:06:32Z</time>
      </trkpt>
      <trkpt lat="48.58943" lon="2.06019">
        <ele>106.2</ele>
        <time>2026-02-02T10:06:33Z</time>
      </trkpt>
      <trkpt lat="48.58938" lon="2.0601">
        <ele>106.2</ele>
        <time>2026-02-02T10:06:34Z</time>
      </trkpt>
      <trkpt lat="48.58932" lon="2.06001">
        <ele>106.2</ele>
        <time>2026-02-02T10:06:35Z</time>
      </trkpt>
      <trkpt lat="48.58926" lon="2.05994">
        <ele>106.2</ele>
        <time>2026-02-02T10:06:36Z</time>
      </trkpt>
      <trkpt lat="48.58919" lon="2.05984">
        <ele>106.2</ele>
        <time>2026-02-02T10:06:37Z</time>
      </trkpt>
      <trkpt lat="48.58912" lon="2.05975">
        <ele>106.2</ele>
        <time>2026-02-02T10:06:38Z</time>
      </trkpt>
      <trkpt lat="48.58906" lon="2.05967">
        <ele>106.2</ele>
        <time>2026-02-02T10:06:39Z</time>
      </trkpt>
      <trkpt lat="48.589" lon="2.05958">
        <ele>106.2</ele>
        <time>2026-02-02T10:06:40Z</time>
      </trkpt>
      <trkpt lat="48.58893" lon="2.0595">
        <ele>106.4</ele>
        <time>2026-02-02T10:06:41Z</time>
      </trkpt>
      <trkpt lat="48.58886" lon="2.0594">
        <ele>106.4</ele>
        <time>2026-02-02T10:06:42Z</time>
      </trkpt>
      <trkpt lat="48.58881" lon="2.05932">
        <ele>106.4</ele>
        <time>2026-02-02T10:06:43Z</time>
      </trkpt>
      <trkpt lat="48.58876" lon="2.05923">
        <ele>106.4</ele>
        <time>2026-02-02T10:06:44Z</time>
      </trkpt>
      <trkpt lat="48.58871" lon="2.05915">
        <ele>106.4</ele>
        <time>2026-02-02T10:06:45Z</time>
      </trkpt>
      <trkpt lat="48.58864" lon="2.05907">
        <ele>106.4</ele>
        <time>2026-02-02T10:06:46Z</time>
      </trkpt>
      <trkpt lat="48.58858" lon="2.05899">
        <ele>106.4</ele>
        <time>2026-02-02T10:06:47Z</time>
      </trkpt>
      <trkpt lat="48.58852" lon="2.05891">
        <ele>106</ele>
        <time>2026-02-02T10:06:48Z</time>
      </trkpt>
      <trkpt lat="48.58845" lon="2.05884">
        <ele>105.6</ele>
        <time>2026-02-02T10:06:49Z</time>
      </trkpt>
      <trkpt lat="48.58839" lon="2.05878">
        <ele>105.6</ele>
        <time>2026-02-02T10:06:50Z</time>
      </trkpt>
      <trkpt lat="48.58831" lon="2.05876">
        <ele>105.6</ele>
        <time>2026-02-02T10:06:51Z</time>
      </trkpt>
      <trkpt lat="48.58824" lon="2.05877">
        <ele>105.6</ele>
        <time>2026-02-02T10:06:52Z</time>
      </trkpt>
      <trkpt lat="48.58817" lon="2.05881">
        <ele>104.4</ele>
        <time>2026-02-02T10:06:53Z</time>
      </trkpt>
      <trkpt lat="48.58811" lon="2.05887">
        <ele>104.4</ele>
        <time>2026-02-02T10:06:54Z</time>
      </trkpt>
      <trkpt lat="48.58805" lon="2.05893">
        <ele>104.4</ele>
        <time>2026-02-02T10:06:55Z</time>
      </trkpt>
      <trkpt lat="48.58798" lon="2.05901">
        <ele>104.4</ele>
        <time>2026-02-02T10:06:56Z</time>
      </trkpt>
      <trkpt lat="48.58792" lon="2.05908">
        <ele>102.8</ele>
        <time>2026-02-02T10:06:57Z</time>
      </trkpt>
      <trkpt lat="48.58785" lon="2.05916">
        <ele>102.8</ele>
        <time>2026-02-02T10:06:58Z</time>
      </trkpt>
      <trkpt lat="48.58779" lon="2.05925">
        <ele>102.8</ele>
        <time>2026-02-02T10:06:59Z</time>
      </trkpt>
      <trkpt lat="48.58772" lon="2.05933">
        <ele>102.4</ele>
        <time>2026-02-02T10:07:00Z</time>
      </trkpt>
      <trkpt lat="48.58766" lon="2.0594">
        <ele>101.6</ele>
        <time>2026-02-02T10:07:01Z</time>
      </trkpt>
      <trkpt lat="48.58758" lon="2.05946">
        <ele>101.6</ele>
        <time>2026-02-02T10:07:02Z</time>
      </trkpt>
      <trkpt lat="48.5875" lon="2.0595">
        <ele>101.6</ele>
        <time>2026-02-02T10:07:03Z</time>
      </trkpt>
      <trkpt lat="48.58742" lon="2.05953">
        <ele>100.6</ele>
        <time>2026-02-02T10:07:04Z</time>
      </trkpt>
      <trkpt lat="48.58733" lon="2.05954">
        <ele>100.6</ele>
        <time>2026-02-02T10:07:05Z</time>
      </trkpt>
      <trkpt lat="48.58724" lon="2.05955">
        <ele>100.6</ele>
        <time>2026-02-02T10:07:06Z</time>
      </trkpt>
      <trkpt lat="48.58715" lon="2.05954">
        <ele>100.6</ele>
        <time>2026-02-02T10:07:07Z</time>
      </trkpt>
      <trkpt lat="48.58707" lon="2.05954">
        <ele>100</ele>
        <time>2026-02-02T10:07:08Z</time>
      </trkpt>
      <trkpt lat="48.58698" lon="2.05953">
        <ele>99.8</ele>
        <time>2026-02-02T10:07:09Z</time>
      </trkpt>
      <trkpt lat="48.58689" lon="2.05951">
        <ele>99.8</ele>
        <time>2026-02-02T10:07:10Z</time>
      </trkpt>
      <trkpt lat="48.5868" lon="2.05949">
        <ele>99.8</ele>
        <time>2026-02-02T10:07:11Z</time>
      </trkpt>
      <trkpt lat="48.58672" lon="2.05947">
        <ele>99.4</ele>
        <time>2026-02-02T10:07:12Z</time>
      </trkpt>
      <trkpt lat="48.58663" lon="2.05946">
        <ele>99.2</ele>
        <time>2026-02-02T10:07:13Z</time>
      </trkpt>
      <trkpt lat="48.58654" lon="2.05944">
        <ele>99.2</ele>
        <time>2026-02-02T10:07:14Z</time>
      </trkpt>
      <trkpt lat="48.58646" lon="2.05943">
        <ele>99.2</ele>
        <time>2026-02-02T10:07:15Z</time>
      </trkpt>
      <trkpt lat="48.58637" lon="2.05943">
        <ele>99.2</ele>
        <time>2026-02-02T10:07:16Z</time>
      </trkpt>
      <trkpt lat="48.58629" lon="2.05942">
        <ele>98.8</ele>
        <time>2026-02-02T10:07:17Z</time>
      </trkpt>
      <trkpt lat="48.5862" lon="2.05943">
        <ele>98.8</ele>
        <time>2026-02-02T10:07:18Z</time>
      </trkpt>
      <trkpt lat="48.58612" lon="2.05944">
        <ele>98.8</ele>
        <time>2026-02-02T10:07:19Z</time>
      </trkpt>
      <trkpt lat="48.58603" lon="2.05945">
        <ele>98.8</ele>
        <time>2026-02-02T10:07:20Z</time>
      </trkpt>
      <trkpt lat="48.58595" lon="2.05947">
        <ele>98</ele>
        <time>2026-02-02T10:07:21Z</time>
      </trkpt>
      <trkpt lat="48.58586" lon="2.05949">
        <ele>98</ele>
        <time>2026-02-02T10:07:22Z</time>
      </trkpt>
      <trkpt lat="48.58578" lon="2.05952">
        <ele>98</ele>
        <time>2026-02-02T10:07:23Z</time>
      </trkpt>
      <trkpt lat="48.5857" lon="2.05955">
        <ele>98.2</ele>
        <time>2026-02-02T10:07:24Z</time>
      </trkpt>
      <trkpt lat="48.58562" lon="2.05958">
        <ele>98</ele>
        <time>2026-02-02T10:07:25Z</time>
      </trkpt>
      <trkpt lat="48.58554" lon="2.0596">
        <ele>98</ele>
        <time>2026-02-02T10:07:26Z</time>
      </trkpt>
      <trkpt lat="48.58546" lon="2.05962">
        <ele>98</ele>
        <time>2026-02-02T10:07:27Z</time>
      </trkpt>
      <trkpt lat="48.58538" lon="2.05964">
        <ele>98.6</ele>
        <time>2026-02-02T10:07:28Z</time>
      </trkpt>
      <trkpt lat="48.58531" lon="2.05964">
        <ele>98</ele>
        <time>2026-02-02T10:07:29Z</time>
      </trkpt>
      <trkpt lat="48.58523" lon="2.05964">
        <ele>98</ele>
        <time>2026-02-02T10:07:30Z</time>
      </trkpt>
      <trkpt lat="48.58515" lon="2.05964">
        <ele>98</ele>
        <time>2026-02-02T10:07:31Z</time>
      </trkpt>
      <trkpt lat="48.58508" lon="2.05965">
        <ele>98.6</ele>
        <time>2026-02-02T10:07:32Z</time>
      </trkpt>
      <trkpt lat="48.585" lon="2.05964">
        <ele>98</ele>
        <time>2026-02-02T10:07:33Z</time>
      </trkpt>
      <trkpt lat="48.58493" lon="2.05962">
        <ele>98</ele>
        <time>2026-02-02T10:07:34Z</time>
      </trkpt>
      <trkpt lat="48.58486" lon="2.05961">
        <ele>98</ele>
        <time>2026-02-02T10:07:35Z</time>
      </trkpt>
      <trkpt lat="48.58479" lon="2.05959">
        <ele>98.2</ele>
        <time>2026-02-02T10:07:36Z</time>
      </trkpt>
      <trkpt lat="48.58472" lon="2.05957">
        <ele>98.2</ele>
        <time>2026-02-02T10:07:37Z</time>
      </trkpt>
      <trkpt lat="48.58465" lon="2.05954">
        <ele>98.2</ele>
        <time>2026-02-02T10:07:38Z</time>
      </trkpt>
      <trkpt lat="48.58458" lon="2.05952">
        <ele>98.2</ele>
        <time>2026-02-02T10:07:39Z</time>
      </trkpt>
      <trkpt lat="48.58452" lon="2.0595">
        <ele>99</ele>
        <time>2026-02-02T10:07:40Z</time>
      </trkpt>
      <trkpt lat="48.58445" lon="2.05947">
        <ele>98.6</ele>
        <time>2026-02-02T10:07:41Z</time>
      </trkpt>
      <trkpt lat="48.58439" lon="2.05944">
        <ele>98.6</ele>
        <time>2026-02-02T10:07:42Z</time>
      </trkpt>
      <trkpt lat="48.58433" lon="2.05941">
        <ele>98.6</ele>
        <time>2026-02-02T10:07:43Z</time>
      </trkpt>
      <trkpt lat="48.58427" lon="2.05938">
        <ele>98.6</ele>
        <time>2026-02-02T10:07:44Z</time>
      </trkpt>
      <trkpt lat="48.58421" lon="2.05934">
        <ele>99.2</ele>
        <time>2026-02-02T10:07:45Z</time>
      </trkpt>
      <trkpt lat="48.58416" lon="2.0593">
        <ele>99.2</ele>
        <time>2026-02-02T10:07:46Z</time>
      </trkpt>
      <trkpt lat="48.5841" lon="2.05926">
        <ele>99.2</ele>
        <time>2026-02-02T10:07:47Z</time>
      </trkpt>
      <trkpt lat="48.58405" lon="2.05921">
        <ele>99.2</ele>
        <time>2026-02-02T10:07:48Z</time>
      </trkpt>
      <trkpt lat="48.58399" lon="2.05917">
        <ele>99.2</ele>
        <time>2026-02-02T10:07:49Z</time>
      </trkpt>
      <trkpt lat="48.58394" lon="2.05913">
        <ele>99.2</ele>
        <time>2026-02-02T10:07:50Z</time>
      </trkpt>
      <trkpt lat="48.58389" lon="2.05909">
        <ele>99.2</ele>
        <time>2026-02-02T10:07:51Z</time>
      </trkpt>
      <trkpt lat="48.58384" lon="2.05905">
        <ele>100</ele>
        <time>2026-02-02T10:07:52Z</time>
      </trkpt>
      <trkpt lat="48.58378" lon="2.05901">
        <ele>99.8</ele>
        <time>2026-02-02T10:07:53Z</time>
      </trkpt>
      <trkpt lat="48.58373" lon="2.05897">
        <ele>99.8</ele>
        <time>2026-02-02T10:07:54Z</time>
      </trkpt>
      <trkpt lat="48.58368" lon="2.05893">
        <ele>99.8</ele>
        <time>2026-02-02T10:07:55Z</time>
      </trkpt>
      <trkpt lat="48.58363" lon="2.05889">
        <ele>100.8</ele>
        <time>2026-02-02T10:07:56Z</time>
      </trkpt>
      <trkpt lat="48.58358" lon="2.05885">
        <ele>100.4</ele>
        <time>2026-02-02T10:07:57Z</time>
      </trkpt>
      <trkpt lat="48.58352" lon="2.05882">
        <ele>100.4</ele>
        <time>2026-02-02T10:07:58Z</time>
      </trkpt>
      <trkpt lat="48.58347" lon="2.05878">
        <ele>100.4</ele>
        <time>2026-02-02T10:07:59Z</time>
      </trkpt>
      <trkpt lat="48.58342" lon="2.05874">
        <ele>100.8</ele>
        <time>2026-02-02T10:08:00Z</time>
      </trkpt>
      <trkpt lat="48.58337" lon="2.05871">
        <ele>100.6</ele>
        <time>2026-02-02T10:08:01Z</time>
      </trkpt>
      <trkpt lat="48.58332" lon="2.05867">
        <ele>100.6</ele>
        <time>2026-02-02T10:08:02Z</time>
      </trkpt>
      <trkpt lat="48.58327" lon="2.05864">
        <ele>100.6</ele>
        <time>2026-02-02T10:08:03Z</time>
      </trkpt>
      <trkpt lat="48.58321" lon="2.05861">
        <ele>100.6</ele>
        <time>2026-02-02T10:08:04Z</time>
      </trkpt>
      <trkpt lat="48.58316" lon="2.05858">
        <ele>101</ele>
        <time>2026-02-02T10:08:05Z</time>
      </trkpt>
      <trkpt lat="48.58311" lon="2.05855">
        <ele>101</ele>
        <time>2026-02-02T10:08:06Z</time>
      </trkpt>
      <trkpt lat="48.58306" lon="2.05852">
        <ele>101</ele>
        <time>2026-02-02T10:08:07Z</time>
      </trkpt>
      <trkpt lat="48.58301" lon="2.0585">
        <ele>101.4</ele>
        <time>2026-02-02T10:08:08Z</time>
      </trkpt>
      <trkpt lat="48.58296" lon="2.05847">
        <ele>101.8</ele>
        <time>2026-02-02T10:08:09Z</time>
      </trkpt>
      <trkpt lat="48.58291" lon="2.05844">
        <ele>101.8</ele>
        <time>2026-02-02T10:08:10Z</time>
      </trkpt>
      <trkpt lat="48.58286" lon="2.05841">
        <ele>101.8</ele>
        <time>2026-02-02T10:08:11Z</time>
      </trkpt>
      <trkpt lat="48.58281" lon="2.05838">
        <ele>101.8</ele>
        <time>2026-02-02T10:08:12Z</time>
      </trkpt>
      <trkpt lat="48.58276" lon="2.05836">
        <ele>102.2</ele>
        <time>2026-02-02T10:08:13Z</time>
      </trkpt>
      <trkpt lat="48.58271" lon="2.05833">
        <ele>102.2</ele>
        <time>2026-02-02T10:08:14Z</time>
      </trkpt>
      <trkpt lat="48.58266" lon="2.0583">
        <ele>102.2</ele>
        <time>2026-02-02T10:08:15Z</time>
      </trkpt>
      <trkpt lat="48.58262" lon="2.05828">
        <ele>102.2</ele>
        <time>2026-02-02T10:08:16Z</time>
      </trkpt>
      <trkpt lat="48.58257" lon="2.05825">
        <ele>102.6</ele>
        <time>2026-02-02T10:08:17Z</time>
      </trkpt>
      <trkpt lat="48.58252" lon="2.05823">
        <ele>102.6</ele>
        <time>2026-02-02T10:08:18Z</time>
      </trkpt>
      <trkpt lat="48.58247" lon="2.0582">
        <ele>102.6</ele>
        <time>2026-02-02T10:08:19Z</time>
      </trkpt>
      <trkpt lat="48.58243" lon="2.05817">
        <ele>102.6</ele>
        <time>2026-02-02T10:08:20Z</time>
      </trkpt>
      <trkpt lat="48.58238" lon="2.05815">
        <ele>102.8</ele>
        <time>2026-02-02T10:08:21Z</time>
      </trkpt>
      <trkpt lat="48.58234" lon="2.05813">
        <ele>102.8</ele>
        <time>2026-02-02T10:08:22Z</time>
      </trkpt>
      <trkpt lat="48.58229" lon="2.0581">
        <ele>102.8</ele>
        <time>2026-02-02T10:08:23Z</time>
      </trkpt>
      <trkpt lat="48.58225" lon="2.05808">
        <ele>103.8</ele>
        <time>2026-02-02T10:08:24Z</time>
      </trkpt>
      <trkpt lat="48.5822" lon="2.05806">
        <ele>104.2</ele>
        <time>2026-02-02T10:08:25Z</time>
      </trkpt>
      <trkpt lat="48.58216" lon="2.05804">
        <ele>104.2</ele>
        <time>2026-02-02T10:08:26Z</time>
      </trkpt>
      <trkpt lat="48.58212" lon="2.05802">
        <ele>104.2</ele>
        <time>2026-02-02T10:08:27Z</time>
      </trkpt>
      <trkpt lat="48.58208" lon="2.058">
        <ele>104.2</ele>
        <time>2026-02-02T10:08:28Z</time>
      </trkpt>
      <trkpt lat="48.58204" lon="2.05798">
        <ele>104.8</ele>
        <time>2026-02-02T10:08:29Z</time>
      </trkpt>
      <trkpt lat="48.582" lon="2.05796">
        <ele>104.8</ele>
        <time>2026-02-02T10:08:30Z</time>
      </trkpt>
      <trkpt lat="48.58196" lon="2.05794">
        <ele>104.8</ele>
        <time>2026-02-02T10:08:31Z</time>
      </trkpt>
      <trkpt lat="48.58192" lon="2.05792">
        <ele>104.8</ele>
        <time>2026-02-02T10:08:32Z</time>
      </trkpt>
      <trkpt lat="48.58188" lon="2.05791">
        <ele>105.6</ele>
        <time>2026-02-02T10:08:33Z</time>
      </trkpt>
      <trkpt lat="48.58184" lon="2.05789">
        <ele>105.6</ele>
        <time>2026-02-02T10:08:34Z</time>
      </trkpt>
      <trkpt lat="48.58181" lon="2.05787">
        <ele>105.6</ele>
        <time>2026-02-02T10:08:35Z</time>
      </trkpt>
      <trkpt lat="48.58178" lon="2.05785">
        <ele>105.6</ele>
        <time>2026-02-02T10:08:36Z</time>
      </trkpt>
      <trkpt lat="48.58174" lon="2.05783">
        <ele>106</ele>
        <time>2026-02-02T10:08:37Z</time>
      </trkpt>
      <trkpt lat="48.58171" lon="2.05781">
        <ele>106</ele>
        <time>2026-02-02T10:08:38Z</time>
      </trkpt>
      <trkpt lat="48.58168" lon="2.05779">
        <ele>106</ele>
        <time>2026-02-02T10:08:39Z</time>
      </trkpt>
      <trkpt lat="48.58165" lon="2.05778">
        <ele>106.8</ele>
        <time>2026-02-02T10:08:40Z</time>
      </trkpt>
      <trkpt lat="48.58163" lon="2.05776">
        <ele>106.8</ele>
        <time>2026-02-02T10:08:41Z</time>
      </trkpt>
      <trkpt lat="48.5816" lon="2.05774">
        <ele>106.8</ele>
        <time>2026-02-02T10:08:42Z</time>
      </trkpt>
      <trkpt lat="48.58157" lon="2.05771">
        <ele>106.8</ele>
        <time>2026-02-02T10:08:43Z</time>
      </trkpt>
      <trkpt lat="48.58154" lon="2.05769">
        <ele>107.8</ele>
        <time>2026-02-02T10:08:44Z</time>
      </trkpt>
      <trkpt lat="48.58151" lon="2.05767">
        <ele>108.4</ele>
        <time>2026-02-02T10:08:45Z</time>
      </trkpt>
      <trkpt lat="48.58149" lon="2.05765">
        <ele>108.4</ele>
        <time>2026-02-02T10:08:46Z</time>
      </trkpt>
      <trkpt lat="48.58146" lon="2.05763">
        <ele>108.4</ele>
        <time>2026-02-02T10:08:47Z</time>
      </trkpt>
      <trkpt lat="48.58143" lon="2.05761">
        <ele>109</ele>
        <time>2026-02-02T10:08:48Z</time>
      </trkpt>
      <trkpt lat="48.5814" lon="2.05759">
        <ele>109.2</ele>
        <time>2026-02-02T10:08:49Z</time>
      </trkpt>
      <trkpt lat="48.58138" lon="2.05757">
        <ele>109.2</ele>
        <time>2026-02-02T10:08:50Z</time>
      </trkpt>
      <trkpt lat="48.58135" lon="2.05755">
        <ele>109.2</ele>
        <time>2026-02-02T10:08:51Z</time>
      </trkpt>
      <trkpt lat="48.58132" lon="2.05753">
        <ele>109.8</ele>
        <time>2026-02-02T10:08:52Z</time>
      </trkpt>
      <trkpt lat="48.58129" lon="2.05751">
        <ele>110.2</ele>
        <time>2026-02-02T10:08:53Z</time>
      </trkpt>
      <trkpt lat="48.58127" lon="2.05749">
        <ele>110.2</ele>
        <time>2026-02-02T10:08:54Z</time>
      </trkpt>
      <trkpt lat="48.58124" lon="2.05747">
        <ele>110.2</ele>
        <time>2026-02-02T10:08:55Z</time>
      </trkpt>
      <trkpt lat="48.58121" lon="2.05744">
        <ele>111</ele>
        <time>2026-02-02T10:08:56Z</time>
      </trkpt>
      <trkpt lat="48.58118" lon="2.05742">
        <ele>111</ele>
        <time>2026-02-02T10:08:57Z</time>
      </trkpt>
      <trkpt lat="48.58115" lon="2.0574">
        <ele>111</ele>
        <time>2026-02-02T10:08:58Z</time>
      </trkpt>
      <trkpt lat="48.58113" lon="2.05738">
        <ele>111</ele>
        <time>2026-02-02T10:08:59Z</time>
      </trkpt>
      <trkpt lat="48.5811" lon="2.05736">
        <ele>111</ele>
        <time>2026-02-02T10:09:00Z</time>
      </trkpt>
      <trkpt lat="48.58107" lon="2.05734">
        <ele>111.6</ele>
        <time>2026-02-02T10:09:01Z</time>
      </trkpt>
      <trkpt lat="48.58104" lon="2.05731">
        <ele>111.6</ele>
        <time>2026-02-02T10:09:02Z</time>
      </trkpt>
      <trkpt lat="48.58101" lon="2.05729">
        <ele>111.6</ele>
        <time>2026-02-02T10:09:03Z</time>
      </trkpt>
      <trkpt lat="48.58098" lon="2.05727">
        <ele>112.4</ele>
        <time>2026-02-02T10:09:04Z</time>
      </trkpt>
      <trkpt lat="48.58096" lon="2.05725">
        <ele>112.6</ele>
        <time>2026-02-02T10:09:05Z</time>
      </trkpt>
      <trkpt lat="48.58093" lon="2.05723">
        <ele>112.6</ele>
        <time>2026-02-02T10:09:06Z</time>
      </trkpt>
      <trkpt lat="48.5809" lon="2.05721">
        <ele>112.6</ele>
        <time>2026-02-02T10:09:07Z</time>
      </trkpt>
      <trkpt lat="48.58087" lon="2.05719">
        <ele>113.2</ele>
        <time>2026-02-02T10:09:08Z</time>
      </trkpt>
      <trkpt lat="48.58085" lon="2.05716">
        <ele>113.6</ele>
        <time>2026-02-02T10:09:09Z</time>
      </trkpt>
      <trkpt lat="48.58082" lon="2.05714">
        <ele>113.6</ele>
        <time>2026-02-02T10:09:10Z</time>
      </trkpt>
      <trkpt lat="48.58079" lon="2.05712">
        <ele>113.6</ele>
        <time>2026-02-02T10:09:11Z</time>
      </trkpt>
      <trkpt lat="48.58076" lon="2.05709">
        <ele>113.6</ele>
        <time>2026-02-02T10:09:12Z</time>
      </trkpt>
      <trkpt lat="48.58073" lon="2.05707">
        <ele>114.4</ele>
        <time>2026-02-02T10:09:13Z</time>
      </trkpt>
      <trkpt lat="48.58071" lon="2.05705">
        <ele>114.4</ele>
        <time>2026-02-02T10:09:14Z</time>
      </trkpt>
      <trkpt lat="48.58068" lon="2.05703">
        <ele>114.4</ele>
        <time>2026-02-02T10:09:15Z</time>
      </trkpt>
      <trkpt lat="48.58065" lon="2.05701">
        <ele>114.4</ele>
        <time>2026-02-02T10:09:16Z</time>
      </trkpt>
      <trkpt lat="48.58062" lon="2.05698">
        <ele>115.4</ele>
        <time>2026-02-02T10:09:17Z</time>
      </trkpt>
      <trkpt lat="48.5806" lon="2.05696">
        <ele>115.4</ele>
        <time>2026-02-02T10:09:18Z</time>
      </trkpt>
      <trkpt lat="48.58057" lon="2.05693">
        <ele>115.4</ele>
        <time>2026-02-02T10:09:19Z</time>
      </trkpt>
      <trkpt lat="48.58055" lon="2.0569">
        <ele>115.4</ele>
        <time>2026-02-02T10:09:20Z</time>
      </trkpt>
      <trkpt lat="48.58053" lon="2.05687">
        <ele>116.2</ele>
        <time>2026-02-02T10:09:21Z</time>
      </trkpt>
      <trkpt lat="48.5805" lon="2.05684">
        <ele>116.2</ele>
        <time>2026-02-02T10:09:22Z</time>
      </trkpt>
      <trkpt lat="48.58048" lon="2.05681">
        <ele>116.2</ele>
        <time>2026-02-02T10:09:23Z</time>
      </trkpt>
      <trkpt lat="48.58046" lon="2.05678">
        <ele>117.2</ele>
        <time>2026-02-02T10:09:24Z</time>
      </trkpt>
      <trkpt lat="48.58044" lon="2.05675">
        <ele>117.2</ele>
        <time>2026-02-02T10:09:25Z</time>
      </trkpt>
      <trkpt lat="48.58042" lon="2.05672">
        <ele>117.2</ele>
        <time>2026-02-02T10:09:26Z</time>
      </trkpt>
      <trkpt lat="48.5804" lon="2.05669">
        <ele>117.2</ele>
        <time>2026-02-02T10:09:27Z</time>
      </trkpt>
      <trkpt lat="48.58038" lon="2.05666">
        <ele>117.8</ele>
        <time>2026-02-02T10:09:28Z</time>
      </trkpt>
      <trkpt lat="48.58036" lon="2.05664">
        <ele>118</ele>
        <time>2026-02-02T10:09:29Z</time>
      </trkpt>
      <trkpt lat="48.58034" lon="2.05661">
        <ele>118</ele>
        <time>2026-02-02T10:09:30Z</time>
      </trkpt>
      <trkpt lat="48.58032" lon="2.05658">
        <ele>118</ele>
        <time>2026-02-02T10:09:31Z</time>
      </trkpt>
      <trkpt lat="48.5803" lon="2.05655">
        <ele>118.6</ele>
        <time>2026-02-02T10:09:32Z</time>
      </trkpt>
      <trkpt lat="48.58028" lon="2.05652">
        <ele>118.4</ele>
        <time>2026-02-02T10:09:33Z</time>
      </trkpt>
      <trkpt lat="48.58026" lon="2.05649">
        <ele>118.4</ele>
        <time>2026-02-02T10:09:34Z</time>
      </trkpt>
      <trkpt lat="48.58023" lon="2.05646">
        <ele>118.4</ele>
        <time>2026-02-02T10:09:35Z</time>
      </trkpt>
      <trkpt lat="48.58021" lon="2.05643">
        <ele>119</ele>
        <time>2026-02-02T10:09:36Z</time>
      </trkpt>
      <trkpt lat="48.58019" lon="2.05641">
        <ele>119.2</ele>
        <time>2026-02-02T10:09:37Z</time>
      </trkpt>
      <trkpt lat="48.58017" lon="2.05638">
        <ele>119.2</ele>
        <time>2026-02-02T10:09:38Z</time>
      </trkpt>
      <trkpt lat="48.58014" lon="2.05635">
        <ele>119.2</ele>
        <time>2026-02-02T10:09:39Z</time>
      </trkpt>
      <trkpt lat="48.58012" lon="2.05631">
        <ele>119.2</ele>
        <time>2026-02-02T10:09:40Z</time>
      </trkpt>
      <trkpt lat="48.58009" lon="2.05628">
        <ele>119.4</ele>
        <time>2026-02-02T10:09:41Z</time>
      </trkpt>
      <trkpt lat="48.58007" lon="2.05625">
        <ele>119.4</ele>
        <time>2026-02-02T10:09:42Z</time>
      </trkpt>
      <trkpt lat="48.58005" lon="2.05622">
        <ele>119.4</ele>
        <time>2026-02-02T10:09:43Z</time>
      </trkpt>
      <trkpt lat="48.58002" lon="2.05619">
        <ele>120.2</ele>
        <time>2026-02-02T10:09:44Z</time>
      </trkpt>
      <trkpt lat="48.57999" lon="2.05616">
        <ele>120.6</ele>
        <time>2026-02-02T10:09:45Z</time>
      </trkpt>
      <trkpt lat="48.57997" lon="2.05613">
        <ele>120.6</ele>
        <time>2026-02-02T10:09:46Z</time>
      </trkpt>
      <trkpt lat="48.57994" lon="2.0561">
        <ele>120.6</ele>
        <time>2026-02-02T10:09:47Z</time>
      </trkpt>
      <trkpt lat="48.57991" lon="2.05607">
        <ele>120.6</ele>
        <time>2026-02-02T10:09:48Z</time>
      </trkpt>
      <trkpt lat="48.57988" lon="2.05604">
        <ele>121</ele>
        <time>2026-02-02T10:09:49Z</time>
      </trkpt>
      <trkpt lat="48.57985" lon="2.05601">
        <ele>121</ele>
        <time>2026-02-02T10:09:50Z</time>
      </trkpt>
      <trkpt lat="48.57982" lon="2.05598">
        <ele>121</ele>
        <time>2026-02-02T10:09:51Z</time>
      </trkpt>
      <trkpt lat="48.57979" lon="2.05595">
        <ele>121</ele>
        <time>2026-02-02T10:09:52Z</time>
      </trkpt>
      <trkpt lat="48.57976" lon="2.05592">
        <ele>121.8</ele>
        <time>2026-02-02T10:09:53Z</time>
      </trkpt>
      <trkpt lat="48.57973" lon="2.05589">
        <ele>121.8</ele>
        <time>2026-02-02T10:09:54Z</time>
      </trkpt>
      <trkpt lat="48.57969" lon="2.05586">
        <ele>121.8</ele>
        <time>2026-02-02T10:09:55Z</time>
      </trkpt>
      <trkpt lat="48.57966" lon="2.05583">
        <ele>121.8</ele>
        <time>2026-02-02T10:09:56Z</time>
      </trkpt>
      <trkpt lat="48.57963" lon="2.05581">
        <ele>122.6</ele>
        <time>2026-02-02T10:09:57Z</time>
      </trkpt>
      <trkpt lat="48.5796" lon="2.05578">
        <ele>122.6</ele>
        <time>2026-02-02T10:09:58Z</time>
      </trkpt>
      <trkpt lat="48.57957" lon="2.05576">
        <ele>122.6</ele>
        <time>2026-02-02T10:09:59Z</time>
      </trkpt>
      <trkpt lat="48.57954" lon="2.05573">
        <ele>122.6</ele>
        <time>2026-02-02T10:10:00Z</time>
      </trkpt>
      <trkpt lat="48.57951" lon="2.05571">
        <ele>123.8</ele>
        <time>2026-02-02T10:10:01Z</time>
      </trkpt>
      <trkpt lat="48.57948" lon="2.05568">
        <ele>123.8</ele>
        <time>2026-02-02T10:10:02Z</time>
      </trkpt>
      <trkpt lat="48.57945" lon="2.05566">
        <ele>123.8</ele>
        <time>2026-02-02T10:10:03Z</time>
      </trkpt>
      <trkpt lat="48.57942" lon="2.05563">
        <ele>123.8</ele>
        <time>2026-02-02T10:10:04Z</time>
      </trkpt>
      <trkpt lat="48.57939" lon="2.0556">
        <ele>124.8</ele>
        <time>2026-02-02T10:10:05Z</time>
      </trkpt>
      <trkpt lat="48.57936" lon="2.05558">
        <ele>124.8</ele>
        <time>2026-02-02T10:10:06Z</time>
      </trkpt>
      <trkpt lat="48.57933" lon="2.05555">
        <ele>124.8</ele>
        <time>2026-02-02T10:10:07Z</time>
      </trkpt>
      <trkpt lat="48.5793" lon="2.05553">
        <ele>124.8</ele>
        <time>2026-02-02T10:10:08Z</time>
      </trkpt>
      <trkpt lat="48.57927" lon="2.0555">
        <ele>126</ele>
        <time>2026-02-02T10:10:09Z</time>
      </trkpt>
      <trkpt lat="48.57924" lon="2.05548">
        <ele>126</ele>
        <time>2026-02-02T10:10:10Z</time>
      </trkpt>
      <trkpt lat="48.57922" lon="2.05545">
        <ele>126</ele>
        <time>2026-02-02T10:10:11Z</time>
      </trkpt>
      <trkpt lat="48.57919" lon="2.05543">
        <ele>126.8</ele>
        <time>2026-02-02T10:10:12Z</time>
      </trkpt>
      <trkpt lat="48.57917" lon="2.0554">
        <ele>126.6</ele>
        <time>2026-02-02T10:10:13Z</time>
      </trkpt>
      <trkpt lat="48.57914" lon="2.05538">
        <ele>126.6</ele>
        <time>2026-02-02T10:10:14Z</time>
      </trkpt>
      <trkpt lat="48.57912" lon="2.05535">
        <ele>126.6</ele>
        <time>2026-02-02T10:10:15Z</time>
      </trkpt>
      <trkpt lat="48.57909" lon="2.05533">
        <ele>127.6</ele>
        <time>2026-02-02T10:10:16Z</time>
      </trkpt>
      <trkpt lat="48.57907" lon="2.05531">
        <ele>127.8</ele>
        <time>2026-02-02T10:10:17Z</time>
      </trkpt>
      <trkpt lat="48.57904" lon="2.0553">
        <ele>127.8</ele>
        <time>2026-02-02T10:10:18Z</time>
      </trkpt>
      <trkpt lat="48.57902" lon="2.05527">
        <ele>127.8</ele>
        <time>2026-02-02T10:10:19Z</time>
      </trkpt>
      <trkpt lat="48.57899" lon="2.05526">
        <ele>128.6</ele>
        <time>2026-02-02T10:10:20Z</time>
      </trkpt>
      <trkpt lat="48.57897" lon="2.05524">
        <ele>129.2</ele>
        <time>2026-02-02T10:10:21Z</time>
      </trkpt>
      <trkpt lat="48.57895" lon="2.05522">
        <ele>129.2</ele>
        <time>2026-02-02T10:10:22Z</time>
      </trkpt>
      <trkpt lat="48.57892" lon="2.05521">
        <ele>129.2</ele>
        <time>2026-02-02T10:10:23Z</time>
      </trkpt>
      <trkpt lat="48.5789" lon="2.05519">
        <ele>130</ele>
        <time>2026-02-02T10:10:24Z</time>
      </trkpt>
      <trkpt lat="48.57887" lon="2.05517">
        <ele>130.4</ele>
        <time>2026-02-02T10:10:25Z</time>
      </trkpt>
      <trkpt lat="48.57885" lon="2.05515">
        <ele>130.4</ele>
        <time>2026-02-02T10:10:26Z</time>
      </trkpt>
      <trkpt lat="48.57883" lon="2.05513">
        <ele>130.4</ele>
        <time>2026-02-02T10:10:27Z</time>
      </trkpt>
      <trkpt lat="48.5788" lon="2.05512">
        <ele>130.4</ele>
        <time>2026-02-02T10:10:28Z</time>
      </trkpt>
      <trkpt lat="48.57878" lon="2.0551">
        <ele>131.8</ele>
        <time>2026-02-02T10:10:29Z</time>
      </trkpt>
      <trkpt lat="48.57875" lon="2.05508">
        <ele>131.8</ele>
        <time>2026-02-02T10:10:30Z</time>
      </trkpt>
      <trkpt lat="48.57872" lon="2.05506">
        <ele>131.8</ele>
        <time>2026-02-02T10:10:31Z</time>
      </trkpt>
      <trkpt lat="48.57869" lon="2.05504">
        <ele>132.4</ele>
        <time>2026-02-02T10:10:32Z</time>
      </trkpt>
      <trkpt lat="48.57866" lon="2.05502">
        <ele>132.4</ele>
        <time>2026-02-02T10:10:33Z</time>
      </trkpt>
      <trkpt lat="48.57863" lon="2.05499">
        <ele>132.4</ele>
        <time>2026-02-02T10:10:34Z</time>
      </trkpt>
      <trkpt lat="48.57859" lon="2.05496">
        <ele>132.4</ele>
        <time>2026-02-02T10:10:35Z</time>
      </trkpt>
      <trkpt lat="48.57856" lon="2.05494">
        <ele>133.4</ele>
        <time>2026-02-02T10:10:36Z</time>
      </trkpt>
      <trkpt lat="48.57854" lon="2.05492">
        <ele>134</ele>
        <time>2026-02-02T10:10:37Z</time>
      </trkpt>
      <trkpt lat="48.57851" lon="2.0549">
        <ele>134</ele>
        <time>2026-02-02T10:10:38Z</time>
      </trkpt>
      <trkpt lat="48.57849" lon="2.0549">
        <ele>134</ele>
        <time>2026-02-02T10:10:39Z</time>
      </trkpt>
      <trkpt lat="48.57846" lon="2.05488">
        <ele>134</ele>
        <time>2026-02-02T10:10:40Z</time>
      </trkpt>
      <trkpt lat="48.57845" lon="2.05487">
        <ele>134.6</ele>
        <time>2026-02-02T10:10:41Z</time>
      </trkpt>
      <trkpt lat="48.57842" lon="2.05485">
        <ele>134.6</ele>
        <time>2026-02-02T10:10:42Z</time>
      </trkpt>
      <trkpt lat="48.57839" lon="2.05483">
        <ele>134.6</ele>
        <time>2026-02-02T10:10:43Z</time>
      </trkpt>
      <trkpt lat="48.57837" lon="2.05482">
        <ele>135.6</ele>
        <time>2026-02-02T10:10:44Z</time>
      </trkpt>
      <trkpt lat="48.57836" lon="2.05482">
        <ele>135.8</ele>
        <time>2026-02-02T10:10:45Z</time>
      </trkpt>
      <trkpt lat="48.57834" lon="2.0548">
        <ele>135.8</ele>
        <time>2026-02-02T10:10:46Z</time>
      </trkpt>
      <trkpt lat="48.57831" lon="2.05479">
        <ele>135.8</ele>
        <time>2026-02-02T10:10:47Z</time>
      </trkpt>
      <trkpt lat="48.57828" lon="2.05477">
        <ele>136.2</ele>
        <time>2026-02-02T10:10:48Z</time>
      </trkpt>
      <trkpt lat="48.57826" lon="2.05476">
        <ele>137.4</ele>
        <time>2026-02-02T10:10:49Z</time>
      </trkpt>
      <trkpt lat="48.57824" lon="2.05475">
        <ele>137.4</ele>
        <time>2026-02-02T10:10:50Z</time>
      </trkpt>
      <trkpt lat="48.57821" lon="2.05475">
        <ele>137.4</ele>
        <time>2026-02-02T10:10:51Z</time>
      </trkpt>
      <trkpt lat="48.57817" lon="2.05474">
        <ele>137.2</ele>
        <time>2026-02-02T10:10:52Z</time>
      </trkpt>
      <trkpt lat="48.57815" lon="2.05473">
        <ele>137.4</ele>
        <time>2026-02-02T10:10:53Z</time>
      </trkpt>
      <trkpt lat="48.57812" lon="2.05472">
        <ele>137.4</ele>
        <time>2026-02-02T10:10:54Z</time>
      </trkpt>
      <trkpt lat="48.57808" lon="2.05472">
        <ele>137.4</ele>
        <time>2026-02-02T10:10:55Z</time>
      </trkpt>
      <trkpt lat="48.57804" lon="2.0547">
        <ele>137.8</ele>
        <time>2026-02-02T10:10:56Z</time>
      </trkpt>
      <trkpt lat="48.57801" lon="2.0547">
        <ele>138</ele>
        <time>2026-02-02T10:10:57Z</time>
      </trkpt>
      <trkpt lat="48.57797" lon="2.0547">
        <ele>138</ele>
        <time>2026-02-02T10:10:58Z</time>
      </trkpt>
      <trkpt lat="48.57793" lon="2.0547">
        <ele>138</ele>
        <time>2026-02-02T10:10:59Z</time>
      </trkpt>
      <trkpt lat="48.57789" lon="2.0547">
        <ele>138</ele>
        <time>2026-02-02T10:11:00Z</time>
      </trkpt>
      <trkpt lat="48.57785" lon="2.0547">
        <ele>138.8</ele>
        <time>2026-02-02T10:11:01Z</time>
      </trkpt>
      <trkpt lat="48.57781" lon="2.0547">
        <ele>138.8</ele>
        <time>2026-02-02T10:11:02Z</time>
      </trkpt>
      <trkpt lat="48.57777" lon="2.0547">
        <ele>138.8</ele>
        <time>2026-02-02T10:11:03Z</time>
      </trkpt>
      <trkpt lat="48.57773" lon="2.05471">
        <ele>138.8</ele>
        <time>2026-02-02T10:11:04Z</time>
      </trkpt>
      <trkpt lat="48.57768" lon="2.0547">
        <ele>139.2</ele>
        <time>2026-02-02T10:11:05Z</time>
      </trkpt>
      <trkpt lat="48.57764" lon="2.0547">
        <ele>139.2</ele>
        <time>2026-02-02T10:11:06Z</time>
      </trkpt>
      <trkpt lat="48.5776" lon="2.0547">
        <ele>139.2</ele>
        <time>2026-02-02T10:11:07Z</time>
      </trkpt>
      <trkpt lat="48.57756" lon="2.05469">
        <ele>139.6</ele>
        <time>2026-02-02T10:11:08Z</time>
      </trkpt>
      <trkpt lat="48.57752" lon="2.05469">
        <ele>139.8</ele>
        <time>2026-02-02T10:11:09Z</time>
      </trkpt>
      <trkpt lat="48.57747" lon="2.05469">
        <ele>139.8</ele>
        <time>2026-02-02T10:11:10Z</time>
      </trkpt>
      <trkpt lat="48.57744" lon="2.05468">
        <ele>139.8</ele>
        <time>2026-02-02T10:11:11Z</time>
      </trkpt>
      <trkpt lat="48.5774" lon="2.05468">
        <ele>139.2</ele>
        <time>2026-02-02T10:11:12Z</time>
      </trkpt>
      <trkpt lat="48.57736" lon="2.05468">
        <ele>139.2</ele>
        <time>2026-02-02T10:11:13Z</time>
      </trkpt>
      <trkpt lat="48.57732" lon="2.05468">
        <ele>139.2</ele>
        <time>2026-02-02T10:11:14Z</time>
      </trkpt>
      <trkpt lat="48.57727" lon="2.05468">
        <ele>139.2</ele>
        <time>2026-02-02T10:11:15Z</time>
      </trkpt>
      <trkpt lat="48.57724" lon="2.05467">
        <ele>139.2</ele>
        <time>2026-02-02T10:11:16Z</time>
      </trkpt>
      <trkpt lat="48.5772" lon="2.05468">
        <ele>139.2</ele>
        <time>2026-02-02T10:11:17Z</time>
      </trkpt>
      <trkpt lat="48.57716" lon="2.05467">
        <ele>139.2</ele>
        <time>2026-02-02T10:11:18Z</time>
      </trkpt>
      <trkpt lat="48.57712" lon="2.05467">
        <ele>139.2</ele>
        <time>2026-02-02T10:11:19Z</time>
      </trkpt>
      <trkpt lat="48.57708" lon="2.05466">
        <ele>140</ele>
        <time>2026-02-02T10:11:20Z</time>
      </trkpt>
      <trkpt lat="48.57703" lon="2.05466">
        <ele>140.2</ele>
        <time>2026-02-02T10:11:21Z</time>
      </trkpt>
      <trkpt lat="48.57699" lon="2.05466">
        <ele>140.2</ele>
        <time>2026-02-02T10:11:22Z</time>
      </trkpt>
      <trkpt lat="48.57694" lon="2.05465">
        <ele>140.2</ele>
        <time>2026-02-02T10:11:23Z</time>
      </trkpt>
      <trkpt lat="48.5769" lon="2.05464">
        <ele>141</ele>
        <time>2026-02-02T10:11:24Z</time>
      </trkpt>
      <trkpt lat="48.57686" lon="2.05464">
        <ele>141</ele>
        <time>2026-02-02T10:11:25Z</time>
      </trkpt>
      <trkpt lat="48.57681" lon="2.05463">
        <ele>141</ele>
        <time>2026-02-02T10:11:26Z</time>
      </trkpt>
      <trkpt lat="48.57677" lon="2.05462">
        <ele>141</ele>
        <time>2026-02-02T10:11:27Z</time>
      </trkpt>
      <trkpt lat="48.57673" lon="2.05461">
        <ele>141</ele>
        <time>2026-02-02T10:11:28Z</time>
      </trkpt>
      <trkpt lat="48.57669" lon="2.05461">
        <ele>141.2</ele>
        <time>2026-02-02T10:11:29Z</time>
      </trkpt>
      <trkpt lat="48.57665" lon="2.05461">
        <ele>141.2</ele>
        <time>2026-02-02T10:11:30Z</time>
      </trkpt>
      <trkpt lat="48.57662" lon="2.05461">
        <ele>141.2</ele>
        <time>2026-02-02T10:11:31Z</time>
      </trkpt>
      <trkpt lat="48.57659" lon="2.05461">
        <ele>141.4</ele>
        <time>2026-02-02T10:11:32Z</time>
      </trkpt>
      <trkpt lat="48.57657" lon="2.0546">
        <ele>141.4</ele>
        <time>2026-02-02T10:11:33Z</time>
      </trkpt>
      <trkpt lat="48.57654" lon="2.0546">
        <ele>141.4</ele>
        <time>2026-02-02T10:11:34Z</time>
      </trkpt>
      <trkpt lat="48.5765" lon="2.0546">
        <ele>141.4</ele>
        <time>2026-02-02T10:11:35Z</time>
      </trkpt>
      <trkpt lat="48.57647" lon="2.0546">
        <ele>142.2</ele>
        <time>2026-02-02T10:11:36Z</time>
      </trkpt>
      <trkpt lat="48.57643" lon="2.05461">
        <ele>142</ele>
        <time>2026-02-02T10:11:37Z</time>
      </trkpt>
      <trkpt lat="48.57641" lon="2.05461">
        <ele>142</ele>
        <time>2026-02-02T10:11:38Z</time>
      </trkpt>
      <trkpt lat="48.57637" lon="2.05461">
        <ele>142</ele>
        <time>2026-02-02T10:11:39Z</time>
      </trkpt>
      <trkpt lat="48.57634" lon="2.05461">
        <ele>142</ele>
        <time>2026-02-02T10:11:40Z</time>
      </trkpt>
      <trkpt lat="48.57632" lon="2.0546">
        <ele>141.4</ele>
        <time>2026-02-02T10:11:41Z</time>
      </trkpt>
      <trkpt lat="48.57628" lon="2.05461">
        <ele>141.4</ele>
        <time>2026-02-02T10:11:42Z</time>
      </trkpt>
      <trkpt lat="48.57626" lon="2.05461">
        <ele>141.4</ele>
        <time>2026-02-02T10:11:43Z</time>
      </trkpt>
      <trkpt lat="48.5762" lon="2.05462">
        <ele>141.4</ele>
        <time>2026-02-02T10:11:44Z</time>
      </trkpt>
      <trkpt lat="48.57617" lon="2.05462">
        <ele>141</ele>
        <time>2026-02-02T10:11:45Z</time>
      </trkpt>
      <trkpt lat="48.57615" lon="2.05462">
        <ele>141</ele>
        <time>2026-02-02T10:11:46Z</time>
      </trkpt>
      <trkpt lat="48.57605" lon="2.05466">
        <ele>141</ele>
        <time>2026-02-02T10:11:47Z</time>
      </trkpt>
      <trkpt lat="48.57602" lon="2.05468">
        <ele>140.2</ele>
        <time>2026-02-02T10:11:48Z</time>
      </trkpt>
      <trkpt lat="48.57596" lon="2.05474">
        <ele>139.6</ele>
        <time>2026-02-02T10:11:49Z</time>
      </trkpt>
      <trkpt lat="48.57591" lon="2.05477">
        <ele>139.6</ele>
        <time>2026-02-02T10:11:50Z</time>
      </trkpt>
      <trkpt lat="48.57586" lon="2.05482">
        <ele>139.6</ele>
        <time>2026-02-02T10:11:51Z</time>
      </trkpt>
      <trkpt lat="48.5758" lon="2.05488">
        <ele>139.6</ele>
        <time>2026-02-02T10:11:52Z</time>
      </trkpt>
      <trkpt lat="48.57575" lon="2.05492">
        <ele>138.8</ele>
        <time>2026-02-02T10:11:53Z</time>
      </trkpt>
      <trkpt lat="48.57567" lon="2.05495">
        <ele>138.8</ele>
        <time>2026-02-02T10:11:54Z</time>
      </trkpt>
      <trkpt lat="48.57559" lon="2.05498">
        <ele>138.8</ele>
        <time>2026-02-02T10:11:55Z</time>
      </trkpt>
      <trkpt lat="48.57552" lon="2.055">
        <ele>137.8</ele>
        <time>2026-02-02T10:11:56Z</time>
      </trkpt>
      <trkpt lat="48.57543" lon="2.05503">
        <ele>137.4</ele>
        <time>2026-02-02T10:11:57Z</time>
      </trkpt>
      <trkpt lat="48.57536" lon="2.05505">
        <ele>137.4</ele>
        <time>2026-02-02T10:11:58Z</time>
      </trkpt>
      <trkpt lat="48.5753" lon="2.05505">
        <ele>137.4</ele>
        <time>2026-02-02T10:11:59Z</time>
      </trkpt>
      <trkpt lat="48.57522" lon="2.05507">
        <ele>136.6</ele>
        <time>2026-02-02T10:12:00Z</time>
      </trkpt>
      <trkpt lat="48.57513" lon="2.05508">
        <ele>135.4</ele>
        <time>2026-02-02T10:12:01Z</time>
      </trkpt>
      <trkpt lat="48.57504" lon="2.0551">
        <ele>135.4</ele>
        <time>2026-02-02T10:12:02Z</time>
      </trkpt>
      <trkpt lat="48.57497" lon="2.05509">
        <ele>135.4</ele>
        <time>2026-02-02T10:12:03Z</time>
      </trkpt>
      <trkpt lat="48.57488" lon="2.05509">
        <ele>135.4</ele>
        <time>2026-02-02T10:12:04Z</time>
      </trkpt>
      <trkpt lat="48.57481" lon="2.05507">
        <ele>134.4</ele>
        <time>2026-02-02T10:12:05Z</time>
      </trkpt>
      <trkpt lat="48.57474" lon="2.05506">
        <ele>134.4</ele>
        <time>2026-02-02T10:12:06Z</time>
      </trkpt>
      <trkpt lat="48.57467" lon="2.05504">
        <ele>134.4</ele>
        <time>2026-02-02T10:12:07Z</time>
      </trkpt>
      <trkpt lat="48.5746" lon="2.05502">
        <ele>133.4</ele>
        <time>2026-02-02T10:12:08Z</time>
      </trkpt>
      <trkpt lat="48.57452" lon="2.055">
        <ele>132.6</ele>
        <time>2026-02-02T10:12:09Z</time>
      </trkpt>
      <trkpt lat="48.57445" lon="2.05498">
        <ele>132.6</ele>
        <time>2026-02-02T10:12:10Z</time>
      </trkpt>
      <trkpt lat="48.57438" lon="2.05496">
        <ele>132.6</ele>
        <time>2026-02-02T10:12:11Z</time>
      </trkpt>
      <trkpt lat="48.57431" lon="2.05496">
        <ele>131.6</ele>
        <time>2026-02-02T10:12:12Z</time>
      </trkpt>
      <trkpt lat="48.57424" lon="2.05496">
        <ele>131</ele>
        <time>2026-02-02T10:12:13Z</time>
      </trkpt>
      <trkpt lat="48.57418" lon="2.05497">
        <ele>131</ele>
        <time>2026-02-02T10:12:14Z</time>
      </trkpt>
      <trkpt lat="48.5741" lon="2.05499">
        <ele>131</ele>
        <time>2026-02-02T10:12:15Z</time>
      </trkpt>
      <trkpt lat="48.57404" lon="2.05501">
        <ele>130</ele>
        <time>2026-02-02T10:12:16Z</time>
      </trkpt>
      <trkpt lat="48.57398" lon="2.05505">
        <ele>128.4</ele>
        <time>2026-02-02T10:12:17Z</time>
      </trkpt>
      <trkpt lat="48.57393" lon="2.05507">
        <ele>128.4</ele>
        <time>2026-02-02T10:12:18Z</time>
      </trkpt>
      <trkpt lat="48.57388" lon="2.05512">
        <ele>128.4</ele>
        <time>2026-02-02T10:12:19Z</time>
      </trkpt>
      <trkpt lat="48.57383" lon="2.05516">
        <ele>127.4</ele>
        <time>2026-02-02T10:12:20Z</time>
      </trkpt>
      <trkpt lat="48.57377" lon="2.05522">
        <ele>125.8</ele>
        <time>2026-02-02T10:12:21Z</time>
      </trkpt>
      <trkpt lat="48.5737" lon="2.05531">
        <ele>125.8</ele>
        <time>2026-02-02T10:12:22Z</time>
      </trkpt>
      <trkpt lat="48.57364" lon="2.05537">
        <ele>125.8</ele>
        <time>2026-02-02T10:12:23Z</time>
      </trkpt>
      <trkpt lat="48.57357" lon="2.05546">
        <ele>124.8</ele>
        <time>2026-02-02T10:12:24Z</time>
      </trkpt>
      <trkpt lat="48.57348" lon="2.05555">
        <ele>123.6</ele>
        <time>2026-02-02T10:12:25Z</time>
      </trkpt>
      <trkpt lat="48.57341" lon="2.05564">
        <ele>123.6</ele>
        <time>2026-02-02T10:12:26Z</time>
      </trkpt>
      <trkpt lat="48.57334" lon="2.05572">
        <ele>123.6</ele>
        <time>2026-02-02T10:12:27Z</time>
      </trkpt>
      <trkpt lat="48.57326" lon="2.05579">
        <ele>122.6</ele>
        <time>2026-02-02T10:12:28Z</time>
      </trkpt>
      <trkpt lat="48.57321" lon="2.05585">
        <ele>120.6</ele>
        <time>2026-02-02T10:12:29Z</time>
      </trkpt>
      <trkpt lat="48.57315" lon="2.05592">
        <ele>120.6</ele>
        <time>2026-02-02T10:12:30Z</time>
      </trkpt>
      <trkpt lat="48.5731" lon="2.05599">
        <ele>120.6</ele>
        <time>2026-02-02T10:12:31Z</time>
      </trkpt>
      <trkpt lat="48.57304" lon="2.05608">
        <ele>119.6</ele>
        <time>2026-02-02T10:12:32Z</time>
      </trkpt>
      <trkpt lat="48.57295" lon="2.05618">
        <ele>118.6</ele>
        <time>2026-02-02T10:12:33Z</time>
      </trkpt>
      <trkpt lat="48.57281" lon="2.05635">
        <ele>118.6</ele>
        <time>2026-02-02T10:12:34Z</time>
      </trkpt>
      <trkpt lat="48.57277" lon="2.0564">
        <ele>118.6</ele>
        <time>2026-02-02T10:12:35Z</time>
      </trkpt>
      <trkpt lat="48.57268" lon="2.05651">
        <ele>117.6</ele>
        <time>2026-02-02T10:12:36Z</time>
      </trkpt>
      <trkpt lat="48.57261" lon="2.0566">
        <ele>117</ele>
        <time>2026-02-02T10:12:37Z</time>
      </trkpt>
      <trkpt lat="48.57256" lon="2.05669">
        <ele>117</ele>
        <time>2026-02-02T10:12:38Z</time>
      </trkpt>
      <trkpt lat="48.57249" lon="2.05681">
        <ele>117</ele>
        <time>2026-02-02T10:12:39Z</time>
      </trkpt>
      <trkpt lat="48.57244" lon="2.05693">
        <ele>116</ele>
        <time>2026-02-02T10:12:40Z</time>
      </trkpt>
      <trkpt lat="48.57241" lon="2.05704">
        <ele>114.6</ele>
        <time>2026-02-02T10:12:41Z</time>
      </trkpt>
      <trkpt lat="48.57239" lon="2.05715">
        <ele>114.6</ele>
        <time>2026-02-02T10:12:42Z</time>
      </trkpt>
      <trkpt lat="48.57238" lon="2.05726">
        <ele>114.6</ele>
        <time>2026-02-02T10:12:43Z</time>
      </trkpt>
      <trkpt lat="48.57237" lon="2.05739">
        <ele>113.6</ele>
        <time>2026-02-02T10:12:44Z</time>
      </trkpt>
      <trkpt lat="48.57236" lon="2.05751">
        <ele>113</ele>
        <time>2026-02-02T10:12:45Z</time>
      </trkpt>
      <trkpt lat="48.57236" lon="2.05763">
        <ele>113</ele>
        <time>2026-02-02T10:12:46Z</time>
      </trkpt>
      <trkpt lat="48.57236" lon="2.05776">
        <ele>113</ele>
        <time>2026-02-02T10:12:47Z</time>
      </trkpt>
      <trkpt lat="48.57234" lon="2.05786">
        <ele>112</ele>
        <time>2026-02-02T10:12:48Z</time>
      </trkpt>
      <trkpt lat="48.57232" lon="2.05796">
        <ele>110.4</ele>
        <time>2026-02-02T10:12:49Z</time>
      </trkpt>
      <trkpt lat="48.57227" lon="2.05806">
        <ele>110.4</ele>
        <time>2026-02-02T10:12:50Z</time>
      </trkpt>
      <trkpt lat="48.57222" lon="2.05815">
        <ele>110.4</ele>
        <time>2026-02-02T10:12:51Z</time>
      </trkpt>
      <trkpt lat="48.57216" lon="2.05823">
        <ele>109.4</ele>
        <time>2026-02-02T10:12:52Z</time>
      </trkpt>
      <trkpt lat="48.57209" lon="2.05829">
        <ele>107.8</ele>
        <time>2026-02-02T10:12:53Z</time>
      </trkpt>
      <trkpt lat="48.57202" lon="2.05832">
        <ele>107.8</ele>
        <time>2026-02-02T10:12:54Z</time>
      </trkpt>
      <trkpt lat="48.57194" lon="2.05836">
        <ele>107.8</ele>
        <time>2026-02-02T10:12:55Z</time>
      </trkpt>
      <trkpt lat="48.57186" lon="2.0584">
        <ele>106.8</ele>
        <time>2026-02-02T10:12:56Z</time>
      </trkpt>
      <trkpt lat="48.57177" lon="2.05846">
        <ele>106.8</ele>
        <time>2026-02-02T10:12:57Z</time>
      </trkpt>
      <trkpt lat="48.57168" lon="2.05851">
        <ele>106.8</ele>
        <time>2026-02-02T10:12:58Z</time>
      </trkpt>
      <trkpt lat="48.5716" lon="2.05856">
        <ele>106.8</ele>
        <time>2026-02-02T10:12:59Z</time>
      </trkpt>
      <trkpt lat="48.57153" lon="2.0586">
        <ele>105.8</ele>
        <time>2026-02-02T10:13:00Z</time>
      </trkpt>
      <trkpt lat="48.57146" lon="2.05864">
        <ele>103.2</ele>
        <time>2026-02-02T10:13:01Z</time>
      </trkpt>
      <trkpt lat="48.57141" lon="2.05868">
        <ele>103.2</ele>
        <time>2026-02-02T10:13:02Z</time>
      </trkpt>
      <trkpt lat="48.57135" lon="2.05874">
        <ele>103.2</ele>
        <time>2026-02-02T10:13:03Z</time>
      </trkpt>
      <trkpt lat="48.57131" lon="2.05876">
        <ele>102.2</ele>
        <time>2026-02-02T10:13:04Z</time>
      </trkpt>
      <trkpt lat="48.57126" lon="2.0588">
        <ele>102</ele>
        <time>2026-02-02T10:13:05Z</time>
      </trkpt>
      <trkpt lat="48.5712" lon="2.05884">
        <ele>102</ele>
        <time>2026-02-02T10:13:06Z</time>
      </trkpt>
      <trkpt lat="48.57114" lon="2.05887">
        <ele>102</ele>
        <time>2026-02-02T10:13:07Z</time>
      </trkpt>
      <trkpt lat="48.57108" lon="2.05891">
        <ele>101</ele>
        <time>2026-02-02T10:13:08Z</time>
      </trkpt>
      <trkpt lat="48.57103" lon="2.05898">
        <ele>100</ele>
        <time>2026-02-02T10:13:09Z</time>
      </trkpt>
      <trkpt lat="48.57099" lon="2.05906">
        <ele>100</ele>
        <time>2026-02-02T10:13:10Z</time>
      </trkpt>
      <trkpt lat="48.57098" lon="2.05915">
        <ele>100</ele>
        <time>2026-02-02T10:13:11Z</time>
      </trkpt>
      <trkpt lat="48.57098" lon="2.05923">
        <ele>100</ele>
        <time>2026-02-02T10:13:12Z</time>
      </trkpt>
      <trkpt lat="48.57099" lon="2.0593">
        <ele>100.8</ele>
        <time>2026-02-02T10:13:13Z</time>
      </trkpt>
      <trkpt lat="48.57099" lon="2.05937">
        <ele>100.8</ele>
        <time>2026-02-02T10:13:14Z</time>
      </trkpt>
      <trkpt lat="48.57099" lon="2.05943">
        <ele>100.8</ele>
        <time>2026-02-02T10:13:15Z</time>
      </trkpt>
      <trkpt lat="48.571" lon="2.0595">
        <ele>100.8</ele>
        <time>2026-02-02T10:13:16Z</time>
      </trkpt>
      <trkpt lat="48.57101" lon="2.05957">
        <ele>101.2</ele>
        <time>2026-02-02T10:13:17Z</time>
      </trkpt>
      <trkpt lat="48.57101" lon="2.05964">
        <ele>101.2</ele>
        <time>2026-02-02T10:13:18Z</time>
      </trkpt>
      <trkpt lat="48.57102" lon="2.05971">
        <ele>101.2</ele>
        <time>2026-02-02T10:13:19Z</time>
      </trkpt>
      <trkpt lat="48.57103" lon="2.05978">
        <ele>101.2</ele>
        <time>2026-02-02T10:13:20Z</time>
      </trkpt>
      <trkpt lat="48.57105" lon="2.05986">
        <ele>102</ele>
        <time>2026-02-02T10:13:21Z</time>
      </trkpt>
      <trkpt lat="48.57106" lon="2.05993">
        <ele>102</ele>
        <time>2026-02-02T10:13:22Z</time>
      </trkpt>
      <trkpt lat="48.57107" lon="2.06">
        <ele>102</ele>
        <time>2026-02-02T10:13:23Z</time>
      </trkpt>
      <trkpt lat="48.57109" lon="2.06008">
        <ele>102</ele>
        <time>2026-02-02T10:13:24Z</time>
      </trkpt>
      <trkpt lat="48.5711" lon="2.06016">
        <ele>102</ele>
        <time>2026-02-02T10:13:25Z</time>
      </trkpt>
      <trkpt lat="48.5711" lon="2.06024">
        <ele>102</ele>
        <time>2026-02-02T10:13:26Z</time>
      </trkpt>
      <trkpt lat="48.57111" lon="2.06033">
        <ele>102</ele>
        <time>2026-02-02T10:13:27Z</time>
      </trkpt>
      <trkpt lat="48.57112" lon="2.06041">
        <ele>102</ele>
        <time>2026-02-02T10:13:28Z</time>
      </trkpt>
      <trkpt lat="48.57113" lon="2.0605">
        <ele>101.6</ele>
        <time>2026-02-02T10:13:29Z</time>
      </trkpt>
      <trkpt lat="48.57115" lon="2.06058">
        <ele>101.6</ele>
        <time>2026-02-02T10:13:30Z</time>
      </trkpt>
      <trkpt lat="48.57116" lon="2.06067">
        <ele>101.6</ele>
        <time>2026-02-02T10:13:31Z</time>
      </trkpt>
      <trkpt lat="48.57117" lon="2.06075">
        <ele>101.4</ele>
        <time>2026-02-02T10:13:32Z</time>
      </trkpt>
      <trkpt lat="48.57118" lon="2.06082">
        <ele>101.8</ele>
        <time>2026-02-02T10:13:33Z</time>
      </trkpt>
      <trkpt lat="48.5712" lon="2.06089">
        <ele>101.8</ele>
        <time>2026-02-02T10:13:34Z</time>
      </trkpt>
      <trkpt lat="48.57122" lon="2.06093">
        <ele>101.8</ele>
        <time>2026-02-02T10:13:35Z</time>
      </trkpt>
      <trkpt lat="48.57125" lon="2.06096">
        <ele>101.8</ele>
        <time>2026-02-02T10:13:36Z</time>
      </trkpt>
      <trkpt lat="48.57128" lon="2.06101">
        <ele>102.8</ele>
        <time>2026-02-02T10:13:37Z</time>
      </trkpt>
      <trkpt lat="48.5713" lon="2.06107">
        <ele>102.8</ele>
        <time>2026-02-02T10:13:38Z</time>
      </trkpt>
      <trkpt lat="48.57132" lon="2.06113">
        <ele>102.8</ele>
        <time>2026-02-02T10:13:39Z</time>
      </trkpt>
      <trkpt lat="48.57134" lon="2.0612">
        <ele>102</ele>
        <time>2026-02-02T10:13:40Z</time>
      </trkpt>
      <trkpt lat="48.57135" lon="2.06127">
        <ele>101.8</ele>
        <time>2026-02-02T10:13:41Z</time>
      </trkpt>
      <trkpt lat="48.57137" lon="2.06134">
        <ele>101.8</ele>
        <time>2026-02-02T10:13:42Z</time>
      </trkpt>
      <trkpt lat="48.57139" lon="2.06141">
        <ele>101.8</ele>
        <time>2026-02-02T10:13:43Z</time>
      </trkpt>
      <trkpt lat="48.57141" lon="2.06148">
        <ele>101.8</ele>
        <time>2026-02-02T10:13:44Z</time>
      </trkpt>
      <trkpt lat="48.57143" lon="2.06156">
        <ele>101.4</ele>
        <time>2026-02-02T10:13:45Z</time>
      </trkpt>
      <trkpt lat="48.57145" lon="2.06165">
        <ele>101.4</ele>
        <time>2026-02-02T10:13:46Z</time>
      </trkpt>
      <trkpt lat="48.57148" lon="2.06173">
        <ele>101.4</ele>
        <time>2026-02-02T10:13:47Z</time>
      </trkpt>
      <trkpt lat="48.5715" lon="2.06181">
        <ele>100.8</ele>
        <time>2026-02-02T10:13:48Z</time>
      </trkpt>
      <trkpt lat="48.57152" lon="2.0619">
        <ele>100.8</ele>
        <time>2026-02-02T10:13:49Z</time>
      </trkpt>
      <trkpt lat="48.57154" lon="2.06198">
        <ele>100.8</ele>
        <time>2026-02-02T10:13:50Z</time>
      </trkpt>
      <trkpt lat="48.57156" lon="2.06207">
        <ele>100.8</ele>
        <time>2026-02-02T10:13:51Z</time>
      </trkpt>
      <trkpt lat="48.57158" lon="2.06215">
        <ele>100.8</ele>
        <time>2026-02-02T10:13:52Z</time>
      </trkpt>
      <trkpt lat="48.5716" lon="2.06223">
        <ele>101</ele>
        <time>2026-02-02T10:13:53Z</time>
      </trkpt>
      <trkpt lat="48.57163" lon="2.0623">
        <ele>101</ele>
        <time>2026-02-02T10:13:54Z</time>
      </trkpt>
      <trkpt lat="48.57164" lon="2.06239">
        <ele>101</ele>
        <time>2026-02-02T10:13:55Z</time>
      </trkpt>
      <trkpt lat="48.57166" lon="2.06248">
        <ele>100</ele>
        <time>2026-02-02T10:13:56Z</time>
      </trkpt>
      <trkpt lat="48.57167" lon="2.06256">
        <ele>101</ele>
        <time>2026-02-02T10:13:57Z</time>
      </trkpt>
      <trkpt lat="48.57168" lon="2.06265">
        <ele>101</ele>
        <time>2026-02-02T10:13:58Z</time>
      </trkpt>
      <trkpt lat="48.57169" lon="2.06274">
        <ele>101</ele>
        <time>2026-02-02T10:13:59Z</time>
      </trkpt>
      <trkpt lat="48.5717" lon="2.06283">
        <ele>100</ele>
        <time>2026-02-02T10:14:00Z</time>
      </trkpt>
      <trkpt lat="48.5717" lon="2.06292">
        <ele>100.4</ele>
        <time>2026-02-02T10:14:01Z</time>
      </trkpt>
      <trkpt lat="48.57171" lon="2.06301">
        <ele>100.4</ele>
        <time>2026-02-02T10:14:02Z</time>
      </trkpt>
      <trkpt lat="48.57171" lon="2.06311">
        <ele>100.4</ele>
        <time>2026-02-02T10:14:03Z</time>
      </trkpt>
      <trkpt lat="48.57171" lon="2.0632">
        <ele>99.6</ele>
        <time>2026-02-02T10:14:04Z</time>
      </trkpt>
      <trkpt lat="48.5717" lon="2.06329">
        <ele>99.8</ele>
        <time>2026-02-02T10:14:05Z</time>
      </trkpt>
      <trkpt lat="48.5717" lon="2.06339">
        <ele>99.8</ele>
        <time>2026-02-02T10:14:06Z</time>
      </trkpt>
      <trkpt lat="48.57169" lon="2.06348">
        <ele>99.8</ele>
        <time>2026-02-02T10:14:07Z</time>
      </trkpt>
      <trkpt lat="48.57169" lon="2.06358">
        <ele>99.8</ele>
        <time>2026-02-02T10:14:08Z</time>
      </trkpt>
      <trkpt lat="48.57168" lon="2.06367">
        <ele>99.4</ele>
        <time>2026-02-02T10:14:09Z</time>
      </trkpt>
      <trkpt lat="48.57168" lon="2.06376">
        <ele>99.4</ele>
        <time>2026-02-02T10:14:10Z</time>
      </trkpt>
      <trkpt lat="48.57167" lon="2.06385">
        <ele>99.4</ele>
        <time>2026-02-02T10:14:11Z</time>
      </trkpt>
      <trkpt lat="48.57167" lon="2.06395">
        <ele>99.4</ele>
        <time>2026-02-02T10:14:12Z</time>
      </trkpt>
      <trkpt lat="48.57167" lon="2.06404">
        <ele>98.8</ele>
        <time>2026-02-02T10:14:13Z</time>
      </trkpt>
      <trkpt lat="48.57167" lon="2.06413">
        <ele>98.8</ele>
        <time>2026-02-02T10:14:14Z</time>
      </trkpt>
      <trkpt lat="48.57167" lon="2.06423">
        <ele>98.8</ele>
        <time>2026-02-02T10:14:15Z</time>
      </trkpt>
      <trkpt lat="48.57167" lon="2.06432">
        <ele>99.2</ele>
        <time>2026-02-02T10:14:16Z</time>
      </trkpt>
      <trkpt lat="48.57168" lon="2.0644">
        <ele>99.2</ele>
        <time>2026-02-02T10:14:17Z</time>
      </trkpt>
      <trkpt lat="48.57169" lon="2.06449">
        <ele>99.2</ele>
        <time>2026-02-02T10:14:18Z</time>
      </trkpt>
      <trkpt lat="48.5717" lon="2.06457">
        <ele>99.2</ele>
        <time>2026-02-02T10:14:19Z</time>
      </trkpt>
      <trkpt lat="48.5717" lon="2.06464">
        <ele>99.2</ele>
        <time>2026-02-02T10:14:20Z</time>
      </trkpt>
      <trkpt lat="48.57171" lon="2.06472">
        <ele>99.8</ele>
        <time>2026-02-02T10:14:21Z</time>
      </trkpt>
      <trkpt lat="48.57172" lon="2.0648">
        <ele>99.8</ele>
        <time>2026-02-02T10:14:22Z</time>
      </trkpt>
      <trkpt lat="48.57174" lon="2.06488">
        <ele>99.8</ele>
        <time>2026-02-02T10:14:23Z</time>
      </trkpt>
      <trkpt lat="48.57176" lon="2.06495">
        <ele>99.2</ele>
        <time>2026-02-02T10:14:24Z</time>
      </trkpt>
      <trkpt lat="48.57178" lon="2.06503">
        <ele>100.2</ele>
        <time>2026-02-02T10:14:25Z</time>
      </trkpt>
      <trkpt lat="48.5718" lon="2.0651">
        <ele>100.2</ele>
        <time>2026-02-02T10:14:26Z</time>
      </trkpt>
      <trkpt lat="48.57183" lon="2.06518">
        <ele>100.2</ele>
        <time>2026-02-02T10:14:27Z</time>
      </trkpt>
      <trkpt lat="48.57185" lon="2.06526">
        <ele>100.8</ele>
        <time>2026-02-02T10:14:28Z</time>
      </trkpt>
      <trkpt lat="48.57187" lon="2.06534">
        <ele>101</ele>
        <time>2026-02-02T10:14:29Z</time>
      </trkpt>
      <trkpt lat="48.57189" lon="2.06541">
        <ele>101</ele>
        <time>2026-02-02T10:14:30Z</time>
      </trkpt>
      <trkpt lat="48.57191" lon="2.06549">
        <ele>101</ele>
        <time>2026-02-02T10:14:31Z</time>
      </trkpt>
      <trkpt lat="48.57193" lon="2.06556">
        <ele>101</ele>
        <time>2026-02-02T10:14:32Z</time>
      </trkpt>
      <trkpt lat="48.57195" lon="2.06564">
        <ele>100.6</ele>
        <time>2026-02-02T10:14:33Z</time>
      </trkpt>
      <trkpt lat="48.57197" lon="2.06572">
        <ele>100.6</ele>
        <time>2026-02-02T10:14:34Z</time>
      </trkpt>
      <trkpt lat="48.57199" lon="2.0658">
        <ele>100.6</ele>
        <time>2026-02-02T10:14:35Z</time>
      </trkpt>
      <trkpt lat="48.57201" lon="2.06588">
        <ele>100.6</ele>
        <time>2026-02-02T10:14:36Z</time>
      </trkpt>
      <trkpt lat="48.57203" lon="2.06596">
        <ele>100.4</ele>
        <time>2026-02-02T10:14:37Z</time>
      </trkpt>
      <trkpt lat="48.57205" lon="2.06604">
        <ele>100.4</ele>
        <time>2026-02-02T10:14:38Z</time>
      </trkpt>
      <trkpt lat="48.57208" lon="2.06612">
        <ele>100.4</ele>
        <time>2026-02-02T10:14:39Z</time>
      </trkpt>
      <trkpt lat="48.5721" lon="2.0662">
        <ele>100.4</ele>
        <time>2026-02-02T10:14:40Z</time>
      </trkpt>
      <trkpt lat="48.57212" lon="2.06628">
        <ele>100.2</ele>
        <time>2026-02-02T10:14:41Z</time>
      </trkpt>
      <trkpt lat="48.57215" lon="2.06636">
        <ele>100.2</ele>
        <time>2026-02-02T10:14:42Z</time>
      </trkpt>
      <trkpt lat="48.57218" lon="2.06645">
        <ele>100.2</ele>
        <time>2026-02-02T10:14:43Z</time>
      </trkpt>
      <trkpt lat="48.57221" lon="2.06653">
        <ele>99.8</ele>
        <time>2026-02-02T10:14:44Z</time>
      </trkpt>
      <trkpt lat="48.57225" lon="2.06661">
        <ele>99.6</ele>
        <time>2026-02-02T10:14:45Z</time>
      </trkpt>
      <trkpt lat="48.57228" lon="2.0667">
        <ele>99.6</ele>
        <time>2026-02-02T10:14:46Z</time>
      </trkpt>
      <trkpt lat="48.57232" lon="2.06678">
        <ele>99.6</ele>
        <time>2026-02-02T10:14:47Z</time>
      </trkpt>
      <trkpt lat="48.57235" lon="2.06687">
        <ele>98.6</ele>
        <time>2026-02-02T10:14:48Z</time>
      </trkpt>
      <trkpt lat="48.57239" lon="2.06695">
        <ele>98.6</ele>
        <time>2026-02-02T10:14:49Z</time>
      </trkpt>
      <trkpt lat="48.57243" lon="2.06703">
        <ele>98.6</ele>
        <time>2026-02-02T10:14:50Z</time>
      </trkpt>
      <trkpt lat="48.57246" lon="2.06712">
        <ele>98.6</ele>
        <time>2026-02-02T10:14:51Z</time>
      </trkpt>
      <trkpt lat="48.5725" lon="2.0672">
        <ele>98.6</ele>
        <time>2026-02-02T10:14:52Z</time>
      </trkpt>
      <trkpt lat="48.57253" lon="2.06728">
        <ele>98.2</ele>
        <time>2026-02-02T10:14:53Z</time>
      </trkpt>
      <trkpt lat="48.57256" lon="2.06737">
        <ele>98.2</ele>
        <time>2026-02-02T10:14:54Z</time>
      </trkpt>
      <trkpt lat="48.57259" lon="2.06746">
        <ele>98.2</ele>
        <time>2026-02-02T10:14:55Z</time>
      </trkpt>
      <trkpt lat="48.57261" lon="2.06755">
        <ele>98</ele>
        <time>2026-02-02T10:14:56Z</time>
      </trkpt>
      <trkpt lat="48.57262" lon="2.06764">
        <ele>97.8</ele>
        <time>2026-02-02T10:14:57Z</time>
      </trkpt>
      <trkpt lat="48.57264" lon="2.06774">
        <ele>97.8</ele>
        <time>2026-02-02T10:14:58Z</time>
      </trkpt>
      <trkpt lat="48.57265" lon="2.06783">
        <ele>97.8</ele>
        <time>2026-02-02T10:14:59Z</time>
      </trkpt>
      <trkpt lat="48.57266" lon="2.06792">
        <ele>97.8</ele>
        <time>2026-02-02T10:15:00Z</time>
      </trkpt>
      <trkpt lat="48.57265" lon="2.06799">
        <ele>98</ele>
        <time>2026-02-02T10:15:01Z</time>
      </trkpt>
      <trkpt lat="48.57263" lon="2.06805">
        <ele>98</ele>
        <time>2026-02-02T10:15:02Z</time>
      </trkpt>
      <trkpt lat="48.57259" lon="2.06808">
        <ele>98</ele>
        <time>2026-02-02T10:15:03Z</time>
      </trkpt>
      <trkpt lat="48.57255" lon="2.06807">
        <ele>97</ele>
        <time>2026-02-02T10:15:04Z</time>
      </trkpt>
      <trkpt lat="48.57251" lon="2.06803">
        <ele>96.2</ele>
        <time>2026-02-02T10:15:05Z</time>
      </trkpt>
      <trkpt lat="48.57247" lon="2.06799">
        <ele>96.2</ele>
        <time>2026-02-02T10:15:06Z</time>
      </trkpt>
      <trkpt lat="48.57243" lon="2.06793">
        <ele>96.2</ele>
        <time>2026-02-02T10:15:07Z</time>
      </trkpt>
      <trkpt lat="48.57238" lon="2.06788">
        <ele>95.2</ele>
        <time>2026-02-02T10:15:08Z</time>
      </trkpt>
      <trkpt lat="48.57233" lon="2.06783">
        <ele>94.6</ele>
        <time>2026-02-02T10:15:09Z</time>
      </trkpt>
      <trkpt lat="48.57228" lon="2.06778">
        <ele>94.6</ele>
        <time>2026-02-02T10:15:10Z</time>
      </trkpt>
      <trkpt lat="48.57223" lon="2.06773">
        <ele>94.6</ele>
        <time>2026-02-02T10:15:11Z</time>
      </trkpt>
      <trkpt lat="48.57217" lon="2.06768">
        <ele>94</ele>
        <time>2026-02-02T10:15:12Z</time>
      </trkpt>
      <trkpt lat="48.5721" lon="2.06764">
        <ele>93.4</ele>
        <time>2026-02-02T10:15:13Z</time>
      </trkpt>
      <trkpt lat="48.57204" lon="2.06761">
        <ele>93.4</ele>
        <time>2026-02-02T10:15:14Z</time>
      </trkpt>
      <trkpt lat="48.57197" lon="2.06759">
        <ele>93.4</ele>
        <time>2026-02-02T10:15:15Z</time>
      </trkpt>
      <trkpt lat="48.57189" lon="2.06757">
        <ele>92.4</ele>
        <time>2026-02-02T10:15:16Z</time>
      </trkpt>
      <trkpt lat="48.57182" lon="2.06756">
        <ele>92.4</ele>
        <time>2026-02-02T10:15:17Z</time>
      </trkpt>
      <trkpt lat="48.57174" lon="2.06755">
        <ele>92.4</ele>
        <time>2026-02-02T10:15:18Z</time>
      </trkpt>
      <trkpt lat="48.57166" lon="2.06755">
        <ele>92.4</ele>
        <time>2026-02-02T10:15:19Z</time>
      </trkpt>
      <trkpt lat="48.57158" lon="2.06756">
        <ele>91.4</ele>
        <time>2026-02-02T10:15:20Z</time>
      </trkpt>
      <trkpt lat="48.5715" lon="2.06758">
        <ele>90.2</ele>
        <time>2026-02-02T10:15:21Z</time>
      </trkpt>
      <trkpt lat="48.57141" lon="2.06761">
        <ele>90.2</ele>
        <time>2026-02-02T10:15:22Z</time>
      </trkpt>
      <trkpt lat="48.57133" lon="2.06764">
        <ele>90.2</ele>
        <time>2026-02-02T10:15:23Z</time>
      </trkpt>
      <trkpt lat="48.57124" lon="2.06768">
        <ele>89.2</ele>
        <time>2026-02-02T10:15:24Z</time>
      </trkpt>
      <trkpt lat="48.57115" lon="2.06771">
        <ele>87.4</ele>
        <time>2026-02-02T10:15:25Z</time>
      </trkpt>
      <trkpt lat="48.57107" lon="2.06773">
        <ele>87.4</ele>
        <time>2026-02-02T10:15:26Z</time>
      </trkpt>
      <trkpt lat="48.571" lon="2.06773">
        <ele>87.4</ele>
        <time>2026-02-02T10:15:27Z</time>
      </trkpt>
      <trkpt lat="48.57092" lon="2.06772">
        <ele>87.4</ele>
        <time>2026-02-02T10:15:28Z</time>
      </trkpt>
      <trkpt lat="48.57085" lon="2.0677">
        <ele>85.8</ele>
        <time>2026-02-02T10:15:29Z</time>
      </trkpt>
      <trkpt lat="48.57077" lon="2.06766">
        <ele>85.8</ele>
        <time>2026-02-02T10:15:30Z</time>
      </trkpt>
      <trkpt lat="48.5707" lon="2.0676">
        <ele>85.8</ele>
        <time>2026-02-02T10:15:31Z</time>
      </trkpt>
      <trkpt lat="48.57062" lon="2.06753">
        <ele>84.8</ele>
        <time>2026-02-02T10:15:32Z</time>
      </trkpt>
      <trkpt lat="48.57055" lon="2.06746">
        <ele>82.8</ele>
        <time>2026-02-02T10:15:33Z</time>
      </trkpt>
      <trkpt lat="48.57047" lon="2.06739">
        <ele>82.8</ele>
        <time>2026-02-02T10:15:34Z</time>
      </trkpt>
      <trkpt lat="48.5704" lon="2.06733">
        <ele>82.8</ele>
        <time>2026-02-02T10:15:35Z</time>
      </trkpt>
      <trkpt lat="48.57033" lon="2.06729">
        <ele>81.8</ele>
        <time>2026-02-02T10:15:36Z</time>
      </trkpt>
      <trkpt lat="48.57027" lon="2.06727">
        <ele>81.2</ele>
        <time>2026-02-02T10:15:37Z</time>
      </trkpt>
      <trkpt lat="48.57019" lon="2.06727">
        <ele>81.2</ele>
        <time>2026-02-02T10:15:38Z</time>
      </trkpt>
      <trkpt lat="48.57012" lon="2.06731">
        <ele>81.2</ele>
        <time>2026-02-02T10:15:39Z</time>
      </trkpt>
      <trkpt lat="48.57005" lon="2.06736">
        <ele>80.2</ele>
        <time>2026-02-02T10:15:40Z</time>
      </trkpt>
      <trkpt lat="48.56997" lon="2.06744">
        <ele>77.6</ele>
        <time>2026-02-02T10:15:41Z</time>
      </trkpt>
      <trkpt lat="48.5699" lon="2.06751">
        <ele>77.6</ele>
        <time>2026-02-02T10:15:42Z</time>
      </trkpt>
      <trkpt lat="48.56983" lon="2.06758">
        <ele>77.6</ele>
        <time>2026-02-02T10:15:43Z</time>
      </trkpt>
      <trkpt lat="48.56976" lon="2.06764">
        <ele>76.6</ele>
        <time>2026-02-02T10:15:44Z</time>
      </trkpt>
      <trkpt lat="48.5697" lon="2.0677">
        <ele>75.4</ele>
        <time>2026-02-02T10:15:45Z</time>
      </trkpt>
      <trkpt lat="48.56964" lon="2.06774">
        <ele>75.4</ele>
        <time>2026-02-02T10:15:46Z</time>
      </trkpt>
      <trkpt lat="48.56958" lon="2.06779">
        <ele>75.4</ele>
        <time>2026-02-02T10:15:47Z</time>
      </trkpt>
      <trkpt lat="48.56953" lon="2.06783">
        <ele>74.4</ele>
        <time>2026-02-02T10:15:48Z</time>
      </trkpt>
      <trkpt lat="48.56948" lon="2.06787">
        <ele>74</ele>
        <time>2026-02-02T10:15:49Z</time>
      </trkpt>
      <trkpt lat="48.56944" lon="2.06791">
        <ele>74</ele>
        <time>2026-02-02T10:15:50Z</time>
      </trkpt>
      <trkpt lat="48.5694" lon="2.06794">
        <ele>74</ele>
        <time>2026-02-02T10:15:51Z</time>
      </trkpt>
      <trkpt lat="48.56937" lon="2.06796">
        <ele>73</ele>
        <time>2026-02-02T10:15:52Z</time>
      </trkpt>
      <trkpt lat="48.56935" lon="2.06797">
        <ele>72.8</ele>
        <time>2026-02-02T10:15:53Z</time>
      </trkpt>
      <trkpt lat="48.56933" lon="2.06798">
        <ele>72.8</ele>
        <time>2026-02-02T10:15:54Z</time>
      </trkpt>
      <trkpt lat="48.5693" lon="2.06799">
        <ele>72.8</ele>
        <time>2026-02-02T10:15:55Z</time>
      </trkpt>
      <trkpt lat="48.56927" lon="2.06801">
        <ele>72.6</ele>
        <time>2026-02-02T10:15:56Z</time>
      </trkpt>
      <trkpt lat="48.56923" lon="2.06803">
        <ele>72</ele>
        <time>2026-02-02T10:15:57Z</time>
      </trkpt>
      <trkpt lat="48.56919" lon="2.06806">
        <ele>72</ele>
        <time>2026-02-02T10:15:58Z</time>
      </trkpt>
      <trkpt lat="48.56914" lon="2.06809">
        <ele>72</ele>
        <time>2026-02-02T10:15:59Z</time>
      </trkpt>
      <trkpt lat="48.56909" lon="2.06813">
        <ele>72</ele>
        <time>2026-02-02T10:16:00Z</time>
      </trkpt>
      <trkpt lat="48.56904" lon="2.06817">
        <ele>71.2</ele>
        <time>2026-02-02T10:16:01Z</time>
      </trkpt>
      <trkpt lat="48.56899" lon="2.06821">
        <ele>71.2</ele>
        <time>2026-02-02T10:16:02Z</time>
      </trkpt>
      <trkpt lat="48.56894" lon="2.06826">
        <ele>71.2</ele>
        <time>2026-02-02T10:16:03Z</time>
      </trkpt>
      <trkpt lat="48.56888" lon="2.06832">
        <ele>70.6</ele>
        <time>2026-02-02T10:16:04Z</time>
      </trkpt>
      <trkpt lat="48.56882" lon="2.06838">
        <ele>70.2</ele>
        <time>2026-02-02T10:16:05Z</time>
      </trkpt>
      <trkpt lat="48.56877" lon="2.06844">
        <ele>70.2</ele>
        <time>2026-02-02T10:16:06Z</time>
      </trkpt>
      <trkpt lat="48.56871" lon="2.0685">
        <ele>70.2</ele>
        <time>2026-02-02T10:16:07Z</time>
      </trkpt>
      <trkpt lat="48.56865" lon="2.06856">
        <ele>70.2</ele>
        <time>2026-02-02T10:16:08Z</time>
      </trkpt>
      <trkpt lat="48.5686" lon="2.06862">
        <ele>69</ele>
        <time>2026-02-02T10:16:09Z</time>
      </trkpt>
      <trkpt lat="48.56855" lon="2.06869">
        <ele>69</ele>
        <time>2026-02-02T10:16:10Z</time>
      </trkpt>
      <trkpt lat="48.5685" lon="2.06875">
        <ele>69</ele>
        <time>2026-02-02T10:16:11Z</time>
      </trkpt>
      <trkpt lat="48.56845" lon="2.06882">
        <ele>69.6</ele>
        <time>2026-02-02T10:16:12Z</time>
      </trkpt>
      <trkpt lat="48.5684" lon="2.06889">
        <ele>70.6</ele>
        <time>2026-02-02T10:16:13Z</time>
      </trkpt>
      <trkpt lat="48.56836" lon="2.06896">
        <ele>70.6</ele>
        <time>2026-02-02T10:16:14Z</time>
      </trkpt>
      <trkpt lat="48.56833" lon="2.06903">
        <ele>70.6</ele>
        <time>2026-02-02T10:16:15Z</time>
      </trkpt>
      <trkpt lat="48.5683" lon="2.06908">
        <ele>70.6</ele>
        <time>2026-02-02T10:16:16Z</time>
      </trkpt>
      <trkpt lat="48.56826" lon="2.06915">
        <ele>70.2</ele>
        <time>2026-02-02T10:16:17Z</time>
      </trkpt>
      <trkpt lat="48.56823" lon="2.06923">
        <ele>70.2</ele>
        <time>2026-02-02T10:16:18Z</time>
      </trkpt>
      <trkpt lat="48.56819" lon="2.06931">
        <ele>70.2</ele>
        <time>2026-02-02T10:16:19Z</time>
      </trkpt>
      <trkpt lat="48.56816" lon="2.0694">
        <ele>70.2</ele>
        <time>2026-02-02T10:16:20Z</time>
      </trkpt>
      <trkpt lat="48.56812" lon="2.06949">
        <ele>69.6</ele>
        <time>2026-02-02T10:16:21Z</time>
      </trkpt>
      <trkpt lat="48.56809" lon="2.06957">
        <ele>69.6</ele>
        <time>2026-02-02T10:16:22Z</time>
      </trkpt>
      <trkpt lat="48.56805" lon="2.06964">
        <ele>69.6</ele>
        <time>2026-02-02T10:16:23Z</time>
      </trkpt>
      <trkpt lat="48.56801" lon="2.0697">
        <ele>69.6</ele>
        <time>2026-02-02T10:16:24Z</time>
      </trkpt>
      <trkpt lat="48.56797" lon="2.06975">
        <ele>69.8</ele>
        <time>2026-02-02T10:16:25Z</time>
      </trkpt>
      <trkpt lat="48.56792" lon="2.06976">
        <ele>69.8</ele>
        <time>2026-02-02T10:16:26Z</time>
      </trkpt>
      <trkpt lat="48.56787" lon="2.06976">
        <ele>69.8</ele>
        <time>2026-02-02T10:16:27Z</time>
      </trkpt>
      <trkpt lat="48.56781" lon="2.06975">
        <ele>69.8</ele>
        <time>2026-02-02T10:16:28Z</time>
      </trkpt>
      <trkpt lat="48.56776" lon="2.06972">
        <ele>69.8</ele>
        <time>2026-02-02T10:16:29Z</time>
      </trkpt>
      <trkpt lat="48.5677" lon="2.06969">
        <ele>69.8</ele>
        <time>2026-02-02T10:16:30Z</time>
      </trkpt>
      <trkpt lat="48.56764" lon="2.06968">
        <ele>69.8</ele>
        <time>2026-02-02T10:16:31Z</time>
      </trkpt>
      <trkpt lat="48.56759" lon="2.06966">
        <ele>69.8</ele>
        <time>2026-02-02T10:16:32Z</time>
      </trkpt>
      <trkpt lat="48.56753" lon="2.06964">
        <ele>70</ele>
        <time>2026-02-02T10:16:33Z</time>
      </trkpt>
      <trkpt lat="48.56747" lon="2.06963">
        <ele>70</ele>
        <time>2026-02-02T10:16:34Z</time>
      </trkpt>
      <trkpt lat="48.56742" lon="2.06961">
        <ele>70</ele>
        <time>2026-02-02T10:16:35Z</time>
      </trkpt>
      <trkpt lat="48.56736" lon="2.06959">
        <ele>70</ele>
        <time>2026-02-02T10:16:36Z</time>
      </trkpt>
      <trkpt lat="48.56731" lon="2.06957">
        <ele>69.8</ele>
        <time>2026-02-02T10:16:37Z</time>
      </trkpt>
      <trkpt lat="48.56726" lon="2.06955">
        <ele>69.8</ele>
        <time>2026-02-02T10:16:38Z</time>
      </trkpt>
      <trkpt lat="48.56722" lon="2.06951">
        <ele>69.8</ele>
        <time>2026-02-02T10:16:39Z</time>
      </trkpt>
      <trkpt lat="48.56718" lon="2.06946">
        <ele>69.8</ele>
        <time>2026-02-02T10:16:40Z</time>
      </trkpt>
      <trkpt lat="48.56716" lon="2.0694">
        <ele>70.6</ele>
        <time>2026-02-02T10:16:41Z</time>
      </trkpt>
      <trkpt lat="48.56714" lon="2.06934">
        <ele>70.6</ele>
        <time>2026-02-02T10:16:42Z</time>
      </trkpt>
      <trkpt lat="48.56711" lon="2.06929">
        <ele>70.6</ele>
        <time>2026-02-02T10:16:43Z</time>
      </trkpt>
      <trkpt lat="48.56708" lon="2.06924">
        <ele>70.6</ele>
        <time>2026-02-02T10:16:44Z</time>
      </trkpt>
      <trkpt lat="48.56705" lon="2.06919">
        <ele>70.8</ele>
        <time>2026-02-02T10:16:45Z</time>
      </trkpt>
      <trkpt lat="48.56702" lon="2.06915">
        <ele>70.8</ele>
        <time>2026-02-02T10:16:46Z</time>
      </trkpt>
      <trkpt lat="48.56698" lon="2.06912">
        <ele>70.8</ele>
        <time>2026-02-02T10:16:47Z</time>
      </trkpt>
      <trkpt lat="48.56694" lon="2.06909">
        <ele>70.8</ele>
        <time>2026-02-02T10:16:48Z</time>
      </trkpt>
      <trkpt lat="48.56689" lon="2.06907">
        <ele>71</ele>
        <time>2026-02-02T10:16:49Z</time>
      </trkpt>
      <trkpt lat="48.56685" lon="2.06905">
        <ele>71</ele>
        <time>2026-02-02T10:16:50Z</time>
      </trkpt>
      <trkpt lat="48.5668" lon="2.06904">
        <ele>71</ele>
        <time>2026-02-02T10:16:51Z</time>
      </trkpt>
      <trkpt lat="48.56676" lon="2.06903">
        <ele>71</ele>
        <time>2026-02-02T10:16:52Z</time>
      </trkpt>
      <trkpt lat="48.56672" lon="2.06902">
        <ele>72</ele>
        <time>2026-02-02T10:16:53Z</time>
      </trkpt>
      <trkpt lat="48.56668" lon="2.06903">
        <ele>72</ele>
        <time>2026-02-02T10:16:54Z</time>
      </trkpt>
      <trkpt lat="48.56665" lon="2.06902">
        <ele>72</ele>
        <time>2026-02-02T10:16:55Z</time>
      </trkpt>
      <trkpt lat="48.56662" lon="2.06902">
        <ele>72</ele>
        <time>2026-02-02T10:16:56Z</time>
      </trkpt>
      <trkpt lat="48.56661" lon="2.06901">
        <ele>72.4</ele>
        <time>2026-02-02T10:16:57Z</time>
      </trkpt>
      <trkpt lat="48.5666" lon="2.06902">
        <ele>72.4</ele>
        <time>2026-02-02T10:16:58Z</time>
      </trkpt>
      <trkpt lat="48.5666" lon="2.06902">
        <ele>72.4</ele>
        <time>2026-02-02T10:16:59Z</time>
      </trkpt>
      <trkpt lat="48.5666" lon="2.06902">
        <ele>72</ele>
        <time>2026-02-02T10:17:00Z</time>
      </trkpt>
      <trkpt lat="48.56639" lon="2.06902">
        <ele>73.2</ele>
        <time>2026-02-02T10:18:27Z</time>
      </trkpt>
      <trkpt lat="48.56638" lon="2.06898">
        <ele>73.2</ele>
        <time>2026-02-02T10:18:28Z</time>
      </trkpt>
      <trkpt lat="48.56637" lon="2.06894">
        <ele>73.2</ele>
        <time>2026-02-02T10:18:29Z</time>
      </trkpt>
      <trkpt lat="48.56637" lon="2.06889">
        <ele>73.2</ele>
        <time>2026-02-02T10:18:30Z</time>
      </trkpt>
      <trkpt lat="48.56636" lon="2.06883">
        <ele>73.2</ele>
        <time>2026-02-02T10:18:31Z</time>
      </trkpt>
      <trkpt lat="48.56635" lon="2.06877">
        <ele>73.2</ele>
        <time>2026-02-02T10:18:32Z</time>
      </trkpt>
      <trkpt lat="48.56635" lon="2.0687">
        <ele>72.8</ele>
        <time>2026-02-02T10:18:33Z</time>
      </trkpt>
      <trkpt lat="48.56634" lon="2.06863">
        <ele>72.8</ele>
        <time>2026-02-02T10:18:34Z</time>
      </trkpt>
      <trkpt lat="48.56632" lon="2.06857">
        <ele>72.8</ele>
        <time>2026-02-02T10:18:35Z</time>
      </trkpt>
      <trkpt lat="48.56631" lon="2.0685">
        <ele>73</ele>
        <time>2026-02-02T10:18:36Z</time>
      </trkpt>
      <trkpt lat="48.5663" lon="2.06842">
        <ele>73.2</ele>
        <time>2026-02-02T10:18:37Z</time>
      </trkpt>
      <trkpt lat="48.56628" lon="2.06835">
        <ele>73.2</ele>
        <time>2026-02-02T10:18:38Z</time>
      </trkpt>
      <trkpt lat="48.56627" lon="2.06827">
        <ele>73.2</ele>
        <time>2026-02-02T10:18:39Z</time>
      </trkpt>
      <trkpt lat="48.56626" lon="2.0682">
        <ele>72.6</ele>
        <time>2026-02-02T10:18:40Z</time>
      </trkpt>
      <trkpt lat="48.56625" lon="2.06812">
        <ele>73</ele>
        <time>2026-02-02T10:18:41Z</time>
      </trkpt>
      <trkpt lat="48.56623" lon="2.06804">
        <ele>73</ele>
        <time>2026-02-02T10:18:42Z</time>
      </trkpt>
      <trkpt lat="48.56622" lon="2.06796">
        <ele>73</ele>
        <time>2026-02-02T10:18:43Z</time>
      </trkpt>
      <trkpt lat="48.5662" lon="2.06789">
        <ele>73</ele>
        <time>2026-02-02T10:18:44Z</time>
      </trkpt>
      <trkpt lat="48.56619" lon="2.06781">
        <ele>73.4</ele>
        <time>2026-02-02T10:18:45Z</time>
      </trkpt>
      <trkpt lat="48.56617" lon="2.06772">
        <ele>73.4</ele>
        <time>2026-02-02T10:18:46Z</time>
      </trkpt>
      <trkpt lat="48.56616" lon="2.06764">
        <ele>73.4</ele>
        <time>2026-02-02T10:18:47Z</time>
      </trkpt>
      <trkpt lat="48.56615" lon="2.06756">
        <ele>73.4</ele>
        <time>2026-02-02T10:18:48Z</time>
      </trkpt>
      <trkpt lat="48.56614" lon="2.06748">
        <ele>73.6</ele>
        <time>2026-02-02T10:18:49Z</time>
      </trkpt>
      <trkpt lat="48.56613" lon="2.0674">
        <ele>73.6</ele>
        <time>2026-02-02T10:18:50Z</time>
      </trkpt>
      <trkpt lat="48.56611" lon="2.06732">
        <ele>73.6</ele>
        <time>2026-02-02T10:18:51Z</time>
      </trkpt>
      <trkpt lat="48.5661" lon="2.06724">
        <ele>73.6</ele>
        <time>2026-02-02T10:18:52Z</time>
      </trkpt>
      <trkpt lat="48.56609" lon="2.06716">
        <ele>73.6</ele>
        <time>2026-02-02T10:18:53Z</time>
      </trkpt>
      <trkpt lat="48.56608" lon="2.06708">
        <ele>73.6</ele>
        <time>2026-02-02T10:18:54Z</time>
      </trkpt>
      <trkpt lat="48.56607" lon="2.067">
        <ele>73.6</ele>
        <time>2026-02-02T10:18:55Z</time>
      </trkpt>
      <trkpt lat="48.56605" lon="2.06691">
        <ele>73.6</ele>
        <time>2026-02-02T10:18:56Z</time>
      </trkpt>
      <trkpt lat="48.56604" lon="2.06683">
        <ele>73.2</ele>
        <time>2026-02-02T10:18:57Z</time>
      </trkpt>
      <trkpt lat="48.56603" lon="2.06675">
        <ele>73.2</ele>
        <time>2026-02-02T10:18:58Z</time>
      </trkpt>
      <trkpt lat="48.56602" lon="2.06666">
        <ele>73.2</ele>
        <time>2026-02-02T10:18:59Z</time>
      </trkpt>
      <trkpt lat="48.56601" lon="2.06658">
        <ele>73.2</ele>
        <time>2026-02-02T10:19:00Z</time>
      </trkpt>
      <trkpt lat="48.566" lon="2.06651">
        <ele>73.6</ele>
        <time>2026-02-02T10:19:01Z</time>
      </trkpt>
      <trkpt lat="48.56599" lon="2.06643">
        <ele>73.6</ele>
        <time>2026-02-02T10:19:02Z</time>
      </trkpt>
      <trkpt lat="48.56596" lon="2.06638">
        <ele>73.6</ele>
        <time>2026-02-02T10:19:03Z</time>
      </trkpt>
      <trkpt lat="48.56591" lon="2.06634">
        <ele>73.6</ele>
        <time>2026-02-02T10:19:04Z</time>
      </trkpt>
      <trkpt lat="48.56587" lon="2.06633">
        <ele>74.4</ele>
        <time>2026-02-02T10:19:05Z</time>
      </trkpt>
      <trkpt lat="48.56583" lon="2.06634">
        <ele>74.4</ele>
        <time>2026-02-02T10:19:06Z</time>
      </trkpt>
      <trkpt lat="48.56579" lon="2.06635">
        <ele>74.4</ele>
        <time>2026-02-02T10:19:07Z</time>
      </trkpt>
      <trkpt lat="48.56576" lon="2.06636">
        <ele>74.8</ele>
        <time>2026-02-02T10:19:08Z</time>
      </trkpt>
      <trkpt lat="48.56572" lon="2.06637">
        <ele>75</ele>
        <time>2026-02-02T10:19:09Z</time>
      </trkpt>
      <trkpt lat="48.56569" lon="2.06637">
        <ele>75</ele>
        <time>2026-02-02T10:19:10Z</time>
      </trkpt>
      <trkpt lat="48.56565" lon="2.06638">
        <ele>75</ele>
        <time>2026-02-02T10:19:11Z</time>
      </trkpt>
      <trkpt lat="48.56561" lon="2.06639">
        <ele>75.8</ele>
        <time>2026-02-02T10:19:12Z</time>
      </trkpt>
      <trkpt lat="48.56557" lon="2.06639">
        <ele>76</ele>
        <time>2026-02-02T10:19:13Z</time>
      </trkpt>
      <trkpt lat="48.56554" lon="2.06638">
        <ele>76</ele>
        <time>2026-02-02T10:19:14Z</time>
      </trkpt>
      <trkpt lat="48.5655" lon="2.06637">
        <ele>76</ele>
        <time>2026-02-02T10:19:15Z</time>
      </trkpt>
      <trkpt lat="48.56547" lon="2.06634">
        <ele>77</ele>
        <time>2026-02-02T10:19:16Z</time>
      </trkpt>
      <trkpt lat="48.56545" lon="2.06629">
        <ele>77.6</ele>
        <time>2026-02-02T10:19:17Z</time>
      </trkpt>
      <trkpt lat="48.56543" lon="2.06625">
        <ele>77.6</ele>
        <time>2026-02-02T10:19:18Z</time>
      </trkpt>
      <trkpt lat="48.56542" lon="2.0662">
        <ele>77.6</ele>
        <time>2026-02-02T10:19:19Z</time>
      </trkpt>
      <trkpt lat="48.56541" lon="2.06615">
        <ele>77.6</ele>
        <time>2026-02-02T10:19:20Z</time>
      </trkpt>
      <trkpt lat="48.5654" lon="2.06609">
        <ele>77.6</ele>
        <time>2026-02-02T10:19:21Z</time>
      </trkpt>
      <trkpt lat="48.56539" lon="2.06603">
        <ele>77.6</ele>
        <time>2026-02-02T10:19:22Z</time>
      </trkpt>
      <trkpt lat="48.56538" lon="2.06597">
        <ele>77.6</ele>
        <time>2026-02-02T10:19:23Z</time>
      </trkpt>
      <trkpt lat="48.56537" lon="2.06591">
        <ele>77.6</ele>
        <time>2026-02-02T10:19:24Z</time>
      </trkpt>
      <trkpt lat="48.56536" lon="2.06585">
        <ele>77.8</ele>
        <time>2026-02-02T10:19:25Z</time>
      </trkpt>
      <trkpt lat="48.56535" lon="2.06578">
        <ele>77.8</ele>
        <time>2026-02-02T10:19:26Z</time>
      </trkpt>
      <trkpt lat="48.56534" lon="2.06571">
        <ele>77.8</ele>
        <time>2026-02-02T10:19:27Z</time>
      </trkpt>
      <trkpt lat="48.56533" lon="2.06565">
        <ele>77.8</ele>
        <time>2026-02-02T10:19:28Z</time>
      </trkpt>
      <trkpt lat="48.56532" lon="2.06558">
        <ele>77.6</ele>
        <time>2026-02-02T10:19:29Z</time>
      </trkpt>
      <trkpt lat="48.56531" lon="2.06551">
        <ele>77.6</ele>
        <time>2026-02-02T10:19:30Z</time>
      </trkpt>
      <trkpt lat="48.5653" lon="2.06545">
        <ele>77.6</ele>
        <time>2026-02-02T10:19:31Z</time>
      </trkpt>
      <trkpt lat="48.56528" lon="2.06538">
        <ele>78.2</ele>
        <time>2026-02-02T10:19:32Z</time>
      </trkpt>
      <trkpt lat="48.56526" lon="2.06531">
        <ele>78.2</ele>
        <time>2026-02-02T10:19:33Z</time>
      </trkpt>
      <trkpt lat="48.56525" lon="2.06525">
        <ele>78.2</ele>
        <time>2026-02-02T10:19:34Z</time>
      </trkpt>
      <trkpt lat="48.56522" lon="2.06518">
        <ele>78.2</ele>
        <time>2026-02-02T10:19:35Z</time>
      </trkpt>
      <trkpt lat="48.5652" lon="2.06513">
        <ele>78.6</ele>
        <time>2026-02-02T10:19:36Z</time>
      </trkpt>
      <trkpt lat="48.56517" lon="2.06507">
        <ele>78.8</ele>
        <time>2026-02-02T10:19:37Z</time>
      </trkpt>
      <trkpt lat="48.56514" lon="2.06501">
        <ele>78.8</ele>
        <time>2026-02-02T10:19:38Z</time>
      </trkpt>
      <trkpt lat="48.56511" lon="2.06495">
        <ele>78.8</ele>
        <time>2026-02-02T10:19:39Z</time>
      </trkpt>
      <trkpt lat="48.56508" lon="2.0649">
        <ele>78.8</ele>
        <time>2026-02-02T10:19:40Z</time>
      </trkpt>
      <trkpt lat="48.56505" lon="2.06484">
        <ele>79.2</ele>
        <time>2026-02-02T10:19:41Z</time>
      </trkpt>
      <trkpt lat="48.56502" lon="2.06479">
        <ele>79.2</ele>
        <time>2026-02-02T10:19:42Z</time>
      </trkpt>
      <trkpt lat="48.56499" lon="2.06473">
        <ele>79.2</ele>
        <time>2026-02-02T10:19:43Z</time>
      </trkpt>
      <trkpt lat="48.56496" lon="2.06468">
        <ele>79.2</ele>
        <time>2026-02-02T10:19:44Z</time>
      </trkpt>
      <trkpt lat="48.56494" lon="2.06462">
        <ele>79.8</ele>
        <time>2026-02-02T10:19:45Z</time>
      </trkpt>
      <trkpt lat="48.56491" lon="2.06457">
        <ele>79.8</ele>
        <time>2026-02-02T10:19:46Z</time>
      </trkpt>
      <trkpt lat="48.56489" lon="2.06452">
        <ele>79.8</ele>
        <time>2026-02-02T10:19:47Z</time>
      </trkpt>
      <trkpt lat="48.56486" lon="2.06446">
        <ele>80.6</ele>
        <time>2026-02-02T10:19:48Z</time>
      </trkpt>
      <trkpt lat="48.56484" lon="2.06441">
        <ele>81</ele>
        <time>2026-02-02T10:19:49Z</time>
      </trkpt>
      <trkpt lat="48.56482" lon="2.06436">
        <ele>81</ele>
        <time>2026-02-02T10:19:50Z</time>
      </trkpt>
      <trkpt lat="48.5648" lon="2.06431">
        <ele>81</ele>
        <time>2026-02-02T10:19:51Z</time>
      </trkpt>
      <trkpt lat="48.56478" lon="2.06425">
        <ele>82</ele>
        <time>2026-02-02T10:19:52Z</time>
      </trkpt>
      <trkpt lat="48.56476" lon="2.0642">
        <ele>81.8</ele>
        <time>2026-02-02T10:19:53Z</time>
      </trkpt>
      <trkpt lat="48.56474" lon="2.06414">
        <ele>81.8</ele>
        <time>2026-02-02T10:19:54Z</time>
      </trkpt>
      <trkpt lat="48.56473" lon="2.06409">
        <ele>81.8</ele>
        <time>2026-02-02T10:19:55Z</time>
      </trkpt>
      <trkpt lat="48.56471" lon="2.06404">
        <ele>81.8</ele>
        <time>2026-02-02T10:19:56Z</time>
      </trkpt>
      <trkpt lat="48.5647" lon="2.06398">
        <ele>83</ele>
        <time>2026-02-02T10:19:57Z</time>
      </trkpt>
      <trkpt lat="48.56468" lon="2.06392">
        <ele>83</ele>
        <time>2026-02-02T10:19:58Z</time>
      </trkpt>
      <trkpt lat="48.56466" lon="2.06387">
        <ele>83</ele>
        <time>2026-02-02T10:19:59Z</time>
      </trkpt>
      <trkpt lat="48.56464" lon="2.06381">
        <ele>83</ele>
        <time>2026-02-02T10:20:00Z</time>
      </trkpt>
      <trkpt lat="48.56463" lon="2.06376">
        <ele>83</ele>
        <time>2026-02-02T10:20:01Z</time>
      </trkpt>
      <trkpt lat="48.56461" lon="2.0637">
        <ele>83</ele>
        <time>2026-02-02T10:20:02Z</time>
      </trkpt>
      <trkpt lat="48.56459" lon="2.06365">
        <ele>83</ele>
        <time>2026-02-02T10:20:03Z</time>
      </trkpt>
      <trkpt lat="48.56457" lon="2.0636">
        <ele>83.8</ele>
        <time>2026-02-02T10:20:04Z</time>
      </trkpt>
      <trkpt lat="48.56455" lon="2.06354">
        <ele>84.2</ele>
        <time>2026-02-02T10:20:05Z</time>
      </trkpt>
      <trkpt lat="48.56453" lon="2.06349">
        <ele>84.2</ele>
        <time>2026-02-02T10:20:06Z</time>
      </trkpt>
      <trkpt lat="48.56451" lon="2.06344">
        <ele>84.2</ele>
        <time>2026-02-02T10:20:07Z</time>
      </trkpt>
      <trkpt lat="48.56449" lon="2.06338">
        <ele>84.2</ele>
        <time>2026-02-02T10:20:08Z</time>
      </trkpt>
      <trkpt lat="48.56447" lon="2.06333">
        <ele>84.8</ele>
        <time>2026-02-02T10:20:09Z</time>
      </trkpt>
      <trkpt lat="48.56445" lon="2.06327">
        <ele>84.8</ele>
        <time>2026-02-02T10:20:10Z</time>
      </trkpt>
      <trkpt lat="48.56443" lon="2.06321">
        <ele>84.8</ele>
        <time>2026-02-02T10:20:11Z</time>
      </trkpt>
      <trkpt lat="48.56442" lon="2.06316">
        <ele>84.8</ele>
        <time>2026-02-02T10:20:12Z</time>
      </trkpt>
      <trkpt lat="48.5644" lon="2.0631">
        <ele>85.4</ele>
        <time>2026-02-02T10:20:13Z</time>
      </trkpt>
      <trkpt lat="48.56439" lon="2.06305">
        <ele>85.4</ele>
        <time>2026-02-02T10:20:14Z</time>
      </trkpt>
      <trkpt lat="48.56437" lon="2.06299">
        <ele>85.4</ele>
        <time>2026-02-02T10:20:15Z</time>
      </trkpt>
      <trkpt lat="48.56436" lon="2.06294">
        <ele>85.4</ele>
        <time>2026-02-02T10:20:16Z</time>
      </trkpt>
      <trkpt lat="48.56435" lon="2.0629">
        <ele>85.2</ele>
        <time>2026-02-02T10:20:17Z</time>
      </trkpt>
      <trkpt lat="48.56433" lon="2.06285">
        <ele>85.2</ele>
        <time>2026-02-02T10:20:18Z</time>
      </trkpt>
      <trkpt lat="48.56432" lon="2.06281">
        <ele>85.2</ele>
        <time>2026-02-02T10:20:19Z</time>
      </trkpt>
      <trkpt lat="48.5643" lon="2.06278">
        <ele>85.4</ele>
        <time>2026-02-02T10:20:20Z</time>
      </trkpt>
      <trkpt lat="48.56428" lon="2.06277">
        <ele>85.4</ele>
        <time>2026-02-02T10:20:21Z</time>
      </trkpt>
      <trkpt lat="48.56425" lon="2.06277">
        <ele>85.4</ele>
        <time>2026-02-02T10:20:22Z</time>
      </trkpt>
      <trkpt lat="48.56423" lon="2.06278">
        <ele>85.4</ele>
        <time>2026-02-02T10:20:23Z</time>
      </trkpt>
      <trkpt lat="48.56422" lon="2.06281">
        <ele>86</ele>
        <time>2026-02-02T10:20:24Z</time>
      </trkpt>
      <trkpt lat="48.5642" lon="2.06285">
        <ele>86.2</ele>
        <time>2026-02-02T10:20:25Z</time>
      </trkpt>
      <trkpt lat="48.56419" lon="2.06289">
        <ele>86.2</ele>
        <time>2026-02-02T10:20:26Z</time>
      </trkpt>
      <trkpt lat="48.56417" lon="2.06292">
        <ele>86.2</ele>
        <time>2026-02-02T10:20:27Z</time>
      </trkpt>
      <trkpt lat="48.56415" lon="2.06296">
        <ele>86.2</ele>
        <time>2026-02-02T10:20:28Z</time>
      </trkpt>
      <trkpt lat="48.56413" lon="2.06298">
        <ele>87</ele>
        <time>2026-02-02T10:20:29Z</time>
      </trkpt>
      <trkpt lat="48.56412" lon="2.06301">
        <ele>87</ele>
        <time>2026-02-02T10:20:30Z</time>
      </trkpt>
      <trkpt lat="48.5641" lon="2.06305">
        <ele>87</ele>
        <time>2026-02-02T10:20:31Z</time>
      </trkpt>
      <trkpt lat="48.56409" lon="2.06308">
        <ele>87.6</ele>
        <time>2026-02-02T10:20:32Z</time>
      </trkpt>
      <trkpt lat="48.56408" lon="2.06311">
        <ele>87.8</ele>
        <time>2026-02-02T10:20:33Z</time>
      </trkpt>
      <trkpt lat="48.56407" lon="2.06314">
        <ele>87.8</ele>
        <time>2026-02-02T10:20:34Z</time>
      </trkpt>
      <trkpt lat="48.56406" lon="2.06317">
        <ele>87.8</ele>
        <time>2026-02-02T10:20:35Z</time>
      </trkpt>
      <trkpt lat="48.56404" lon="2.06321">
        <ele>88.6</ele>
        <time>2026-02-02T10:20:36Z</time>
      </trkpt>
      <trkpt lat="48.56402" lon="2.06323">
        <ele>88.4</ele>
        <time>2026-02-02T10:20:37Z</time>
      </trkpt>
      <trkpt lat="48.564" lon="2.06326">
        <ele>88.4</ele>
        <time>2026-02-02T10:20:38Z</time>
      </trkpt>
      <trkpt lat="48.56399" lon="2.06329">
        <ele>88.4</ele>
        <time>2026-02-02T10:20:39Z</time>
      </trkpt>
      <trkpt lat="48.56397" lon="2.06332">
        <ele>88.8</ele>
        <time>2026-02-02T10:20:40Z</time>
      </trkpt>
      <trkpt lat="48.56396" lon="2.06335">
        <ele>89.6</ele>
        <time>2026-02-02T10:20:41Z</time>
      </trkpt>
      <trkpt lat="48.56394" lon="2.06338">
        <ele>89.6</ele>
        <time>2026-02-02T10:20:42Z</time>
      </trkpt>
      <trkpt lat="48.56392" lon="2.06341">
        <ele>89.6</ele>
        <time>2026-02-02T10:20:43Z</time>
      </trkpt>
      <trkpt lat="48.5639" lon="2.06345">
        <ele>89.6</ele>
        <time>2026-02-02T10:20:44Z</time>
      </trkpt>
      <trkpt lat="48.56388" lon="2.06349">
        <ele>90</ele>
        <time>2026-02-02T10:20:45Z</time>
      </trkpt>
      <trkpt lat="48.56386" lon="2.06352">
        <ele>90</ele>
        <time>2026-02-02T10:20:46Z</time>
      </trkpt>
      <trkpt lat="48.56384" lon="2.06356">
        <ele>90</ele>
        <time>2026-02-02T10:20:47Z</time>
      </trkpt>
      <trkpt lat="48.56382" lon="2.06359">
        <ele>90.2</ele>
        <time>2026-02-02T10:20:48Z</time>
      </trkpt>
      <trkpt lat="48.5638" lon="2.06363">
        <ele>90.4</ele>
        <time>2026-02-02T10:20:49Z</time>
      </trkpt>
      <trkpt lat="48.56378" lon="2.06367">
        <ele>90.4</ele>
        <time>2026-02-02T10:20:50Z</time>
      </trkpt>
      <trkpt lat="48.56375" lon="2.0637">
        <ele>90.4</ele>
        <time>2026-02-02T10:20:51Z</time>
      </trkpt>
      <trkpt lat="48.56373" lon="2.06374">
        <ele>91</ele>
        <time>2026-02-02T10:20:52Z</time>
      </trkpt>
      <trkpt lat="48.56371" lon="2.06378">
        <ele>91.2</ele>
        <time>2026-02-02T10:20:53Z</time>
      </trkpt>
      <trkpt lat="48.56369" lon="2.06381">
        <ele>91.2</ele>
        <time>2026-02-02T10:20:54Z</time>
      </trkpt>
      <trkpt lat="48.56367" lon="2.06385">
        <ele>91.2</ele>
        <time>2026-02-02T10:20:55Z</time>
      </trkpt>
      <trkpt lat="48.56365" lon="2.06388">
        <ele>91.8</ele>
        <time>2026-02-02T10:20:56Z</time>
      </trkpt>
      <trkpt lat="48.56363" lon="2.06392">
        <ele>92.2</ele>
        <time>2026-02-02T10:20:57Z</time>
      </trkpt>
      <trkpt lat="48.56361" lon="2.06396">
        <ele>92.2</ele>
        <time>2026-02-02T10:20:58Z</time>
      </trkpt>
      <trkpt lat="48.56359" lon="2.06399">
        <ele>92.2</ele>
        <time>2026-02-02T10:20:59Z</time>
      </trkpt>
      <trkpt lat="48.56357" lon="2.06403">
        <ele>92.2</ele>
        <time>2026-02-02T10:21:00Z</time>
      </trkpt>
      <trkpt lat="48.56355" lon="2.06406">
        <ele>93.2</ele>
        <time>2026-02-02T10:21:01Z</time>
      </trkpt>
      <trkpt lat="48.56353" lon="2.0641">
        <ele>93.2</ele>
        <time>2026-02-02T10:21:02Z</time>
      </trkpt>
      <trkpt lat="48.56351" lon="2.06413">
        <ele>93.2</ele>
        <time>2026-02-02T10:21:03Z</time>
      </trkpt>
      <trkpt lat="48.56349" lon="2.06417">
        <ele>93.4</ele>
        <time>2026-02-02T10:21:04Z</time>
      </trkpt>
      <trkpt lat="48.56347" lon="2.0642">
        <ele>93.6</ele>
        <time>2026-02-02T10:21:05Z</time>
      </trkpt>
      <trkpt lat="48.56345" lon="2.06423">
        <ele>93.6</ele>
        <time>2026-02-02T10:21:06Z</time>
      </trkpt>
      <trkpt lat="48.56343" lon="2.06426">
        <ele>93.6</ele>
        <time>2026-02-02T10:21:07Z</time>
      </trkpt>
      <trkpt lat="48.56341" lon="2.06429">
        <ele>94.2</ele>
        <time>2026-02-02T10:21:08Z</time>
      </trkpt>
      <trkpt lat="48.56339" lon="2.06432">
        <ele>94.4</ele>
        <time>2026-02-02T10:21:09Z</time>
      </trkpt>
      <trkpt lat="48.56337" lon="2.06435">
        <ele>94.4</ele>
        <time>2026-02-02T10:21:10Z</time>
      </trkpt>
      <trkpt lat="48.56335" lon="2.06438">
        <ele>94.4</ele>
        <time>2026-02-02T10:21:11Z</time>
      </trkpt>
      <trkpt lat="48.56333" lon="2.06441">
        <ele>95</ele>
        <time>2026-02-02T10:21:12Z</time>
      </trkpt>
      <trkpt lat="48.56332" lon="2.06443">
        <ele>95.4</ele>
        <time>2026-02-02T10:21:13Z</time>
      </trkpt>
      <trkpt lat="48.5633" lon="2.06446">
        <ele>95.4</ele>
        <time>2026-02-02T10:21:14Z</time>
      </trkpt>
      <trkpt lat="48.56328" lon="2.06449">
        <ele>95.4</ele>
        <time>2026-02-02T10:21:15Z</time>
      </trkpt>
      <trkpt lat="48.56326" lon="2.06451">
        <ele>96</ele>
        <time>2026-02-02T10:21:16Z</time>
      </trkpt>
      <trkpt lat="48.56324" lon="2.06454">
        <ele>96.4</ele>
        <time>2026-02-02T10:21:17Z</time>
      </trkpt>
      <trkpt lat="48.56322" lon="2.06456">
        <ele>96.4</ele>
        <time>2026-02-02T10:21:18Z</time>
      </trkpt>
      <trkpt lat="48.5632" lon="2.06459">
        <ele>96.4</ele>
        <time>2026-02-02T10:21:19Z</time>
      </trkpt>
      <trkpt lat="48.56318" lon="2.06462">
        <ele>96.4</ele>
        <time>2026-02-02T10:21:20Z</time>
      </trkpt>
      <trkpt lat="48.56316" lon="2.06465">
        <ele>96.8</ele>
        <time>2026-02-02T10:21:21Z</time>
      </trkpt>
      <trkpt lat="48.56314" lon="2.06468">
        <ele>96.8</ele>
        <time>2026-02-02T10:21:22Z</time>
      </trkpt>
      <trkpt lat="48.56312" lon="2.06471">
        <ele>96.8</ele>
        <time>2026-02-02T10:21:23Z</time>
      </trkpt>
      <trkpt lat="48.5631" lon="2.06474">
        <ele>96.8</ele>
        <time>2026-02-02T10:21:24Z</time>
      </trkpt>
      <trkpt lat="48.56308" lon="2.06477">
        <ele>97.8</ele>
        <time>2026-02-02T10:21:25Z</time>
      </trkpt>
      <trkpt lat="48.56306" lon="2.0648">
        <ele>97.8</ele>
        <time>2026-02-02T10:21:26Z</time>
      </trkpt>
      <trkpt lat="48.56304" lon="2.06483">
        <ele>97.8</ele>
        <time>2026-02-02T10:21:27Z</time>
      </trkpt>
      <trkpt lat="48.56302" lon="2.06486">
        <ele>98.2</ele>
        <time>2026-02-02T10:21:28Z</time>
      </trkpt>
      <trkpt lat="48.563" lon="2.06489">
        <ele>98.8</ele>
        <time>2026-02-02T10:21:29Z</time>
      </trkpt>
      <trkpt lat="48.56298" lon="2.06492">
        <ele>98.8</ele>
        <time>2026-02-02T10:21:30Z</time>
      </trkpt>
      <trkpt lat="48.56296" lon="2.06494">
        <ele>98.8</ele>
        <time>2026-02-02T10:21:31Z</time>
      </trkpt>
      <trkpt lat="48.56293" lon="2.06497">
        <ele>98.8</ele>
        <time>2026-02-02T10:21:32Z</time>
      </trkpt>
      <trkpt lat="48.56291" lon="2.065">
        <ele>98.8</ele>
        <time>2026-02-02T10:21:33Z</time>
      </trkpt>
      <trkpt lat="48.56289" lon="2.06503">
        <ele>98.8</ele>
        <time>2026-02-02T10:21:34Z</time>
      </trkpt>
      <trkpt lat="48.56287" lon="2.06506">
        <ele>98.8</ele>
        <time>2026-02-02T10:21:35Z</time>
      </trkpt>
      <trkpt lat="48.56285" lon="2.06509">
        <ele>99.4</ele>
        <time>2026-02-02T10:21:36Z</time>
      </trkpt>
      <trkpt lat="48.56283" lon="2.06512">
        <ele>99.2</ele>
        <time>2026-02-02T10:21:37Z</time>
      </trkpt>
      <trkpt lat="48.56281" lon="2.06515">
        <ele>99.2</ele>
        <time>2026-02-02T10:21:38Z</time>
      </trkpt>
      <trkpt lat="48.56279" lon="2.06518">
        <ele>99.2</ele>
        <time>2026-02-02T10:21:39Z</time>
      </trkpt>
      <trkpt lat="48.56277" lon="2.06521">
        <ele>100</ele>
        <time>2026-02-02T10:21:40Z</time>
      </trkpt>
      <trkpt lat="48.56275" lon="2.06524">
        <ele>100.2</ele>
        <time>2026-02-02T10:21:41Z</time>
      </trkpt>
      <trkpt lat="48.56273" lon="2.06526">
        <ele>100.2</ele>
        <time>2026-02-02T10:21:42Z</time>
      </trkpt>
      <trkpt lat="48.56271" lon="2.06529">
        <ele>100.2</ele>
        <time>2026-02-02T10:21:43Z</time>
      </trkpt>
      <trkpt lat="48.56269" lon="2.06532">
        <ele>100.2</ele>
        <time>2026-02-02T10:21:44Z</time>
      </trkpt>
      <trkpt lat="48.56267" lon="2.06535">
        <ele>100.4</ele>
        <time>2026-02-02T10:21:45Z</time>
      </trkpt>
      <trkpt lat="48.56264" lon="2.06538">
        <ele>100.4</ele>
        <time>2026-02-02T10:21:46Z</time>
      </trkpt>
      <trkpt lat="48.56262" lon="2.06541">
        <ele>100.4</ele>
        <time>2026-02-02T10:21:47Z</time>
      </trkpt>
      <trkpt lat="48.5626" lon="2.06544">
        <ele>101</ele>
        <time>2026-02-02T10:21:48Z</time>
      </trkpt>
      <trkpt lat="48.56258" lon="2.06547">
        <ele>101.2</ele>
        <time>2026-02-02T10:21:49Z</time>
      </trkpt>
      <trkpt lat="48.56256" lon="2.0655">
        <ele>101.2</ele>
        <time>2026-02-02T10:21:50Z</time>
      </trkpt>
      <trkpt lat="48.56254" lon="2.06553">
        <ele>101.2</ele>
        <time>2026-02-02T10:21:51Z</time>
      </trkpt>
      <trkpt lat="48.56251" lon="2.06556">
        <ele>101.4</ele>
        <time>2026-02-02T10:21:52Z</time>
      </trkpt>
      <trkpt lat="48.56249" lon="2.06559">
        <ele>101.8</ele>
        <time>2026-02-02T10:21:53Z</time>
      </trkpt>
      <trkpt lat="48.56247" lon="2.06563">
        <ele>101.8</ele>
        <time>2026-02-02T10:21:54Z</time>
      </trkpt>
      <trkpt lat="48.56245" lon="2.06566">
        <ele>101.8</ele>
        <time>2026-02-02T10:21:55Z</time>
      </trkpt>
      <trkpt lat="48.56243" lon="2.06569">
        <ele>101.8</ele>
        <time>2026-02-02T10:21:56Z</time>
      </trkpt>
      <trkpt lat="48.56241" lon="2.06572">
        <ele>102.2</ele>
        <time>2026-02-02T10:21:57Z</time>
      </trkpt>
      <trkpt lat="48.56239" lon="2.06575">
        <ele>102.2</ele>
        <time>2026-02-02T10:21:58Z</time>
      </trkpt>
      <trkpt lat="48.56236" lon="2.06579">
        <ele>102.2</ele>
        <time>2026-02-02T10:21:59Z</time>
      </trkpt>
      <trkpt lat="48.56234" lon="2.06582">
        <ele>102.6</ele>
        <time>2026-02-02T10:22:00Z</time>
      </trkpt>
      <trkpt lat="48.56232" lon="2.06586">
        <ele>102.8</ele>
        <time>2026-02-02T10:22:01Z</time>
      </trkpt>
      <trkpt lat="48.5623" lon="2.06589">
        <ele>102.8</ele>
        <time>2026-02-02T10:22:02Z</time>
      </trkpt>
      <trkpt lat="48.56228" lon="2.06593">
        <ele>102.8</ele>
        <time>2026-02-02T10:22:03Z</time>
      </trkpt>
      <trkpt lat="48.56226" lon="2.06596">
        <ele>102.8</ele>
        <time>2026-02-02T10:22:04Z</time>
      </trkpt>
      <trkpt lat="48.56225" lon="2.066">
        <ele>103.4</ele>
        <time>2026-02-02T10:22:05Z</time>
      </trkpt>
      <trkpt lat="48.56223" lon="2.06604">
        <ele>103.4</ele>
        <time>2026-02-02T10:22:06Z</time>
      </trkpt>
      <trkpt lat="48.56221" lon="2.06608">
        <ele>103.4</ele>
        <time>2026-02-02T10:22:07Z</time>
      </trkpt>
      <trkpt lat="48.56219" lon="2.06611">
        <ele>103.2</ele>
        <time>2026-02-02T10:22:08Z</time>
      </trkpt>
      <trkpt lat="48.56217" lon="2.06615">
        <ele>104</ele>
        <time>2026-02-02T10:22:09Z</time>
      </trkpt>
      <trkpt lat="48.56216" lon="2.06619">
        <ele>104</ele>
        <time>2026-02-02T10:22:10Z</time>
      </trkpt>
      <trkpt lat="48.56214" lon="2.06623">
        <ele>104</ele>
        <time>2026-02-02T10:22:11Z</time>
      </trkpt>
      <trkpt lat="48.56213" lon="2.06627">
        <ele>104</ele>
        <time>2026-02-02T10:22:12Z</time>
      </trkpt>
      <trkpt lat="48.56211" lon="2.06631">
        <ele>104.6</ele>
        <time>2026-02-02T10:22:13Z</time>
      </trkpt>
      <trkpt lat="48.5621" lon="2.06635">
        <ele>104.6</ele>
        <time>2026-02-02T10:22:14Z</time>
      </trkpt>
      <trkpt lat="48.56209" lon="2.0664">
        <ele>104.6</ele>
        <time>2026-02-02T10:22:15Z</time>
      </trkpt>
      <trkpt lat="48.56208" lon="2.06644">
        <ele>104.6</ele>
        <time>2026-02-02T10:22:16Z</time>
      </trkpt>
      <trkpt lat="48.56208" lon="2.06649">
        <ele>105</ele>
        <time>2026-02-02T10:22:17Z</time>
      </trkpt>
      <trkpt lat="48.56207" lon="2.06654">
        <ele>105</ele>
        <time>2026-02-02T10:22:18Z</time>
      </trkpt>
      <trkpt lat="48.56206" lon="2.06658">
        <ele>105</ele>
        <time>2026-02-02T10:22:19Z</time>
      </trkpt>
      <trkpt lat="48.56206" lon="2.06662">
        <ele>105.8</ele>
        <time>2026-02-02T10:22:20Z</time>
      </trkpt>
      <trkpt lat="48.56205" lon="2.06666">
        <ele>106</ele>
        <time>2026-02-02T10:22:21Z</time>
      </trkpt>
      <trkpt lat="48.56204" lon="2.0667">
        <ele>106</ele>
        <time>2026-02-02T10:22:22Z</time>
      </trkpt>
      <trkpt lat="48.56203" lon="2.06674">
        <ele>106</ele>
        <time>2026-02-02T10:22:23Z</time>
      </trkpt>
      <trkpt lat="48.56204" lon="2.06678">
        <ele>106.6</ele>
        <time>2026-02-02T10:22:24Z</time>
      </trkpt>
      <trkpt lat="48.56205" lon="2.06682">
        <ele>106.6</ele>
        <time>2026-02-02T10:22:25Z</time>
      </trkpt>
      <trkpt lat="48.56206" lon="2.06686">
        <ele>106.6</ele>
        <time>2026-02-02T10:22:26Z</time>
      </trkpt>
      <trkpt lat="48.56208" lon="2.06689">
        <ele>106.6</ele>
        <time>2026-02-02T10:22:27Z</time>
      </trkpt>
      <trkpt lat="48.56209" lon="2.06693">
        <ele>107.2</ele>
        <time>2026-02-02T10:22:28Z</time>
      </trkpt>
      <trkpt lat="48.5621" lon="2.06696">
        <ele>107.2</ele>
        <time>2026-02-02T10:22:29Z</time>
      </trkpt>
      <trkpt lat="48.5621" lon="2.067">
        <ele>107.2</ele>
        <time>2026-02-02T10:22:30Z</time>
      </trkpt>
      <trkpt lat="48.56211" lon="2.06703">
        <ele>107.2</ele>
        <time>2026-02-02T10:22:31Z</time>
      </trkpt>
      <trkpt lat="48.56212" lon="2.06706">
        <ele>108</ele>
        <time>2026-02-02T10:22:32Z</time>
      </trkpt>
      <trkpt lat="48.56213" lon="2.0671">
        <ele>108.2</ele>
        <time>2026-02-02T10:22:33Z</time>
      </trkpt>
      <trkpt lat="48.56214" lon="2.06713">
        <ele>108.2</ele>
        <time>2026-02-02T10:22:34Z</time>
      </trkpt>
      <trkpt lat="48.56216" lon="2.06717">
        <ele>108.2</ele>
        <time>2026-02-02T10:22:35Z</time>
      </trkpt>
      <trkpt lat="48.56217" lon="2.0672">
        <ele>108.4</ele>
        <time>2026-02-02T10:22:36Z</time>
      </trkpt>
      <trkpt lat="48.56218" lon="2.06724">
        <ele>109</ele>
        <time>2026-02-02T10:22:37Z</time>
      </trkpt>
      <trkpt lat="48.56218" lon="2.06728">
        <ele>109</ele>
        <time>2026-02-02T10:22:38Z</time>
      </trkpt>
      <trkpt lat="48.56219" lon="2.06731">
        <ele>109</ele>
        <time>2026-02-02T10:22:39Z</time>
      </trkpt>
      <trkpt lat="48.56219" lon="2.06734">
        <ele>109.4</ele>
        <time>2026-02-02T10:22:40Z</time>
      </trkpt>
      <trkpt lat="48.56221" lon="2.06739">
        <ele>109.6</ele>
        <time>2026-02-02T10:22:41Z</time>
      </trkpt>
      <trkpt lat="48.56221" lon="2.06743">
        <ele>109.6</ele>
        <time>2026-02-02T10:22:42Z</time>
      </trkpt>
      <trkpt lat="48.56222" lon="2.06748">
        <ele>109.6</ele>
        <time>2026-02-02T10:22:43Z</time>
      </trkpt>
      <trkpt lat="48.56222" lon="2.06752">
        <ele>109.8</ele>
        <time>2026-02-02T10:22:44Z</time>
      </trkpt>
      <trkpt lat="48.56223" lon="2.06756">
        <ele>110.2</ele>
        <time>2026-02-02T10:22:45Z</time>
      </trkpt>
      <trkpt lat="48.56222" lon="2.06759">
        <ele>110.2</ele>
        <time>2026-02-02T10:22:46Z</time>
      </trkpt>
      <trkpt lat="48.56223" lon="2.06762">
        <ele>110.2</ele>
        <time>2026-02-02T10:22:47Z</time>
      </trkpt>
      <trkpt lat="48.56223" lon="2.06765">
        <ele>110.8</ele>
        <time>2026-02-02T10:22:48Z</time>
      </trkpt>
      <trkpt lat="48.56222" lon="2.06769">
        <ele>111</ele>
        <time>2026-02-02T10:22:49Z</time>
      </trkpt>
      <trkpt lat="48.56222" lon="2.06771">
        <ele>111</ele>
        <time>2026-02-02T10:22:50Z</time>
      </trkpt>
      <trkpt lat="48.56222" lon="2.06774">
        <ele>111</ele>
        <time>2026-02-02T10:22:51Z</time>
      </trkpt>
      <trkpt lat="48.56222" lon="2.06777">
        <ele>111.6</ele>
        <time>2026-02-02T10:22:52Z</time>
      </trkpt>
      <trkpt lat="48.56221" lon="2.06781">
        <ele>112.4</ele>
        <time>2026-02-02T10:22:53Z</time>
      </trkpt>
      <trkpt lat="48.56219" lon="2.06784">
        <ele>112.4</ele>
        <time>2026-02-02T10:22:54Z</time>
      </trkpt>
      <trkpt lat="48.56218" lon="2.06786">
        <ele>112.4</ele>
        <time>2026-02-02T10:22:55Z</time>
      </trkpt>
      <trkpt lat="48.56217" lon="2.06789">
        <ele>112.4</ele>
        <time>2026-02-02T10:22:56Z</time>
      </trkpt>
      <trkpt lat="48.56215" lon="2.06791">
        <ele>113</ele>
        <time>2026-02-02T10:22:57Z</time>
      </trkpt>
      <trkpt lat="48.56213" lon="2.06793">
        <ele>113</ele>
        <time>2026-02-02T10:22:58Z</time>
      </trkpt>
      <trkpt lat="48.56212" lon="2.06795">
        <ele>113</ele>
        <time>2026-02-02T10:22:59Z</time>
      </trkpt>
      <trkpt lat="48.5621" lon="2.06797">
        <ele>113</ele>
        <time>2026-02-02T10:23:00Z</time>
      </trkpt>
      <trkpt lat="48.56208" lon="2.06798">
        <ele>113.4</ele>
        <time>2026-02-02T10:23:01Z</time>
      </trkpt>
      <trkpt lat="48.56206" lon="2.06799">
        <ele>113.4</ele>
        <time>2026-02-02T10:23:02Z</time>
      </trkpt>
      <trkpt lat="48.56204" lon="2.06799">
        <ele>113.4</ele>
        <time>2026-02-02T10:23:03Z</time>
      </trkpt>
      <trkpt lat="48.56203" lon="2.06798">
        <ele>114</ele>
        <time>2026-02-02T10:23:04Z</time>
      </trkpt>
      <trkpt lat="48.56201" lon="2.06799">
        <ele>114.2</ele>
        <time>2026-02-02T10:23:05Z</time>
      </trkpt>
      <trkpt lat="48.56199" lon="2.06799">
        <ele>114.2</ele>
        <time>2026-02-02T10:23:06Z</time>
      </trkpt>
      <trkpt lat="48.56197" lon="2.06799">
        <ele>114.2</ele>
        <time>2026-02-02T10:23:07Z</time>
      </trkpt>
      <trkpt lat="48.56195" lon="2.06797">
        <ele>114.8</ele>
        <time>2026-02-02T10:23:08Z</time>
      </trkpt>
      <trkpt lat="48.56193" lon="2.06797">
        <ele>115</ele>
        <time>2026-02-02T10:23:09Z</time>
      </trkpt>
      <trkpt lat="48.56192" lon="2.06797">
        <ele>115</ele>
        <time>2026-02-02T10:23:10Z</time>
      </trkpt>
      <trkpt lat="48.56191" lon="2.06796">
        <ele>115</ele>
        <time>2026-02-02T10:23:11Z</time>
      </trkpt>
      <trkpt lat="48.5619" lon="2.06794">
        <ele>116</ele>
        <time>2026-02-02T10:23:12Z</time>
      </trkpt>
      <trkpt lat="48.56188" lon="2.06793">
        <ele>115.8</ele>
        <time>2026-02-02T10:23:13Z</time>
      </trkpt>
      <trkpt lat="48.56187" lon="2.06792">
        <ele>115.8</ele>
        <time>2026-02-02T10:23:14Z</time>
      </trkpt>
      <trkpt lat="48.56185" lon="2.06792">
        <ele>115.8</ele>
        <time>2026-02-02T10:23:15Z</time>
      </trkpt>
      <trkpt lat="48.56183" lon="2.0679">
        <ele>116.4</ele>
        <time>2026-02-02T10:23:16Z</time>
      </trkpt>
      <trkpt lat="48.56182" lon="2.06788">
        <ele>116.6</ele>
        <time>2026-02-02T10:23:17Z</time>
      </trkpt>
      <trkpt lat="48.5618" lon="2.06787">
        <ele>116.6</ele>
        <time>2026-02-02T10:23:18Z</time>
      </trkpt>
      <trkpt lat="48.56178" lon="2.06786">
        <ele>116.6</ele>
        <time>2026-02-02T10:23:19Z</time>
      </trkpt>
      <trkpt lat="48.56177" lon="2.06786">
        <ele>117.4</ele>
        <time>2026-02-02T10:23:20Z</time>
      </trkpt>
      <trkpt lat="48.56175" lon="2.06785">
        <ele>117.6</ele>
        <time>2026-02-02T10:23:21Z</time>
      </trkpt>
      <trkpt lat="48.56173" lon="2.06786">
        <ele>117.6</ele>
        <time>2026-02-02T10:23:22Z</time>
      </trkpt>
      <trkpt lat="48.56172" lon="2.06784">
        <ele>117.6</ele>
        <time>2026-02-02T10:23:23Z</time>
      </trkpt>
      <trkpt lat="48.5617" lon="2.06782">
        <ele>118</ele>
        <time>2026-02-02T10:23:24Z</time>
      </trkpt>
      <trkpt lat="48.56168" lon="2.0678">
        <ele>118</ele>
        <time>2026-02-02T10:23:25Z</time>
      </trkpt>
      <trkpt lat="48.56166" lon="2.06778">
        <ele>118</ele>
        <time>2026-02-02T10:23:26Z</time>
      </trkpt>
      <trkpt lat="48.56164" lon="2.06776">
        <ele>118</ele>
        <time>2026-02-02T10:23:27Z</time>
      </trkpt>
      <trkpt lat="48.56162" lon="2.06774">
        <ele>118.6</ele>
        <time>2026-02-02T10:23:28Z</time>
      </trkpt>
      <trkpt lat="48.5616" lon="2.06772">
        <ele>119.4</ele>
        <time>2026-02-02T10:23:29Z</time>
      </trkpt>
      <trkpt lat="48.56157" lon="2.0677">
        <ele>119.4</ele>
        <time>2026-02-02T10:23:30Z</time>
      </trkpt>
      <trkpt lat="48.56155" lon="2.06769">
        <ele>119.4</ele>
        <time>2026-02-02T10:23:31Z</time>
      </trkpt>
      <trkpt lat="48.56152" lon="2.06767">
        <ele>119.4</ele>
        <time>2026-02-02T10:23:32Z</time>
      </trkpt>
      <trkpt lat="48.5615" lon="2.06766">
        <ele>119.4</ele>
        <time>2026-02-02T10:23:33Z</time>
      </trkpt>
      <trkpt lat="48.56148" lon="2.06765">
        <ele>119.4</ele>
        <time>2026-02-02T10:23:34Z</time>
      </trkpt>
      <trkpt lat="48.56146" lon="2.06764">
        <ele>119.4</ele>
        <time>2026-02-02T10:23:35Z</time>
      </trkpt>
      <trkpt lat="48.56144" lon="2.06763">
        <ele>120.4</ele>
        <time>2026-02-02T10:23:36Z</time>
      </trkpt>
      <trkpt lat="48.56142" lon="2.06762">
        <ele>120.4</ele>
        <time>2026-02-02T10:23:37Z</time>
      </trkpt>
      <trkpt lat="48.56139" lon="2.06761">
        <ele>120.4</ele>
        <time>2026-02-02T10:23:38Z</time>
      </trkpt>
      <trkpt lat="48.56136" lon="2.0676">
        <ele>120.4</ele>
        <time>2026-02-02T10:23:39Z</time>
      </trkpt>
      <trkpt lat="48.56133" lon="2.06759">
        <ele>121</ele>
        <time>2026-02-02T10:23:40Z</time>
      </trkpt>
      <trkpt lat="48.56131" lon="2.06757">
        <ele>121.2</ele>
        <time>2026-02-02T10:23:41Z</time>
      </trkpt>
      <trkpt lat="48.56129" lon="2.06755">
        <ele>121.2</ele>
        <time>2026-02-02T10:23:42Z</time>
      </trkpt>
      <trkpt lat="48.56127" lon="2.06754">
        <ele>121.2</ele>
        <time>2026-02-02T10:23:43Z</time>
      </trkpt>
      <trkpt lat="48.56125" lon="2.06753">
        <ele>121.8</ele>
        <time>2026-02-02T10:23:44Z</time>
      </trkpt>
      <trkpt lat="48.56122" lon="2.06751">
        <ele>122</ele>
        <time>2026-02-02T10:23:45Z</time>
      </trkpt>
      <trkpt lat="48.56121" lon="2.0675">
        <ele>122</ele>
        <time>2026-02-02T10:23:46Z</time>
      </trkpt>
      <trkpt lat="48.56119" lon="2.06749">
        <ele>122</ele>
        <time>2026-02-02T10:23:47Z</time>
      </trkpt>
      <trkpt lat="48.56117" lon="2.06749">
        <ele>122</ele>
        <time>2026-02-02T10:23:48Z</time>
      </trkpt>
      <trkpt lat="48.56115" lon="2.06749">
        <ele>122.6</ele>
        <time>2026-02-02T10:23:49Z</time>
      </trkpt>
      <trkpt lat="48.56113" lon="2.06748">
        <ele>122.6</ele>
        <time>2026-02-02T10:23:50Z</time>
      </trkpt>
      <trkpt lat="48.5611" lon="2.06749">
        <ele>122.6</ele>
        <time>2026-02-02T10:23:51Z</time>
      </trkpt>
      <trkpt lat="48.56107" lon="2.06749">
        <ele>122.8</ele>
        <time>2026-02-02T10:23:52Z</time>
      </trkpt>
      <trkpt lat="48.56104" lon="2.06749">
        <ele>123.2</ele>
        <time>2026-02-02T10:23:53Z</time>
      </trkpt>
      <trkpt lat="48.56101" lon="2.06747">
        <ele>123.2</ele>
        <time>2026-02-02T10:23:54Z</time>
      </trkpt>
      <trkpt lat="48.56099" lon="2.06745">
        <ele>123.2</ele>
        <time>2026-02-02T10:23:55Z</time>
      </trkpt>
      <trkpt lat="48.56097" lon="2.06743">
        <ele>123.2</ele>
        <time>2026-02-02T10:23:56Z</time>
      </trkpt>
      <trkpt lat="48.56095" lon="2.06741">
        <ele>123.8</ele>
        <time>2026-02-02T10:23:57Z</time>
      </trkpt>
      <trkpt lat="48.56092" lon="2.06738">
        <ele>123.8</ele>
        <time>2026-02-02T10:23:58Z</time>
      </trkpt>
      <trkpt lat="48.56089" lon="2.06736">
        <ele>123.8</ele>
        <time>2026-02-02T10:23:59Z</time>
      </trkpt>
      <trkpt lat="48.56088" lon="2.06733">
        <ele>124.4</ele>
        <time>2026-02-02T10:24:00Z</time>
      </trkpt>
      <trkpt lat="48.56086" lon="2.0673">
        <ele>124.6</ele>
        <time>2026-02-02T10:24:01Z</time>
      </trkpt>
      <trkpt lat="48.56085" lon="2.06727">
        <ele>124.6</ele>
        <time>2026-02-02T10:24:02Z</time>
      </trkpt>
      <trkpt lat="48.56084" lon="2.06724">
        <ele>124.6</ele>
        <time>2026-02-02T10:24:03Z</time>
      </trkpt>
      <trkpt lat="48.56083" lon="2.06721">
        <ele>124.6</ele>
        <time>2026-02-02T10:24:04Z</time>
      </trkpt>
      <trkpt lat="48.56083" lon="2.06718">
        <ele>125</ele>
        <time>2026-02-02T10:24:05Z</time>
      </trkpt>
      <trkpt lat="48.56082" lon="2.06716">
        <ele>125</ele>
        <time>2026-02-02T10:24:06Z</time>
      </trkpt>
      <trkpt lat="48.56081" lon="2.06715">
        <ele>125</ele>
        <time>2026-02-02T10:24:07Z</time>
      </trkpt>
      <trkpt lat="48.5608" lon="2.06713">
        <ele>125.4</ele>
        <time>2026-02-02T10:24:08Z</time>
      </trkpt>
      <trkpt lat="48.56079" lon="2.0671">
        <ele>125.6</ele>
        <time>2026-02-02T10:24:09Z</time>
      </trkpt>
      <trkpt lat="48.56078" lon="2.06708">
        <ele>125.6</ele>
        <time>2026-02-02T10:24:10Z</time>
      </trkpt>
      <trkpt lat="48.56077" lon="2.06705">
        <ele>125.6</ele>
        <time>2026-02-02T10:24:11Z</time>
      </trkpt>
      <trkpt lat="48.56077" lon="2.06702">
        <ele>126.2</ele>
        <time>2026-02-02T10:24:12Z</time>
      </trkpt>
      <trkpt lat="48.56077" lon="2.06698">
        <ele>126.2</ele>
        <time>2026-02-02T10:24:13Z</time>
      </trkpt>
      <trkpt lat="48.56076" lon="2.06696">
        <ele>126.2</ele>
        <time>2026-02-02T10:24:14Z</time>
      </trkpt>
      <trkpt lat="48.56076" lon="2.06693">
        <ele>126.2</ele>
        <time>2026-02-02T10:24:15Z</time>
      </trkpt>
      <trkpt lat="48.56074" lon="2.06691">
        <ele>126.8</ele>
        <time>2026-02-02T10:24:16Z</time>
      </trkpt>
      <trkpt lat="48.56072" lon="2.0669">
        <ele>126.8</ele>
        <time>2026-02-02T10:24:17Z</time>
      </trkpt>
      <trkpt lat="48.5607" lon="2.06687">
        <ele>126.8</ele>
        <time>2026-02-02T10:24:18Z</time>
      </trkpt>
      <trkpt lat="48.56068" lon="2.06684">
        <ele>126.8</ele>
        <time>2026-02-02T10:24:19Z</time>
      </trkpt>
      <trkpt lat="48.56065" lon="2.06681">
        <ele>126.8</ele>
        <time>2026-02-02T10:24:20Z</time>
      </trkpt>
      <trkpt lat="48.56062" lon="2.06679">
        <ele>126.8</ele>
        <time>2026-02-02T10:24:21Z</time>
      </trkpt>
      <trkpt lat="48.56059" lon="2.06677">
        <ele>126.8</ele>
        <time>2026-02-02T10:24:22Z</time>
      </trkpt>
      <trkpt lat="48.56056" lon="2.06676">
        <ele>126.8</ele>
        <time>2026-02-02T10:24:23Z</time>
      </trkpt>
      <trkpt lat="48.56053" lon="2.06674">
        <ele>127</ele>
        <time>2026-02-02T10:24:24Z</time>
      </trkpt>
      <trkpt lat="48.5605" lon="2.06673">
        <ele>127.6</ele>
        <time>2026-02-02T10:24:25Z</time>
      </trkpt>
      <trkpt lat="48.56048" lon="2.06673">
        <ele>127.6</ele>
        <time>2026-02-02T10:24:26Z</time>
      </trkpt>
      <trkpt lat="48.56046" lon="2.06673">
        <ele>127.6</ele>
        <time>2026-02-02T10:24:27Z</time>
      </trkpt>
      <trkpt lat="48.56044" lon="2.06673">
        <ele>127.6</ele>
        <time>2026-02-02T10:24:28Z</time>
      </trkpt>
      <trkpt lat="48.56042" lon="2.06674">
        <ele>128</ele>
        <time>2026-02-02T10:24:29Z</time>
      </trkpt>
      <trkpt lat="48.56039" lon="2.06676">
        <ele>128</ele>
        <time>2026-02-02T10:24:30Z</time>
      </trkpt>
      <trkpt lat="48.56037" lon="2.06678">
        <ele>128</ele>
        <time>2026-02-02T10:24:31Z</time>
      </trkpt>
      <trkpt lat="48.56036" lon="2.0668">
        <ele>128.4</ele>
        <time>2026-02-02T10:24:32Z</time>
      </trkpt>
      <trkpt lat="48.56034" lon="2.06681">
        <ele>128.6</ele>
        <time>2026-02-02T10:24:33Z</time>
      </trkpt>
      <trkpt lat="48.56032" lon="2.06682">
        <ele>128.6</ele>
        <time>2026-02-02T10:24:34Z</time>
      </trkpt>
      <trkpt lat="48.5603" lon="2.06684">
        <ele>128.6</ele>
        <time>2026-02-02T10:24:35Z</time>
      </trkpt>
      <trkpt lat="48.56027" lon="2.06688">
        <ele>128.6</ele>
        <time>2026-02-02T10:24:36Z</time>
      </trkpt>
      <trkpt lat="48.56025" lon="2.06691">
        <ele>128.8</ele>
        <time>2026-02-02T10:24:37Z</time>
      </trkpt>
      <trkpt lat="48.56023" lon="2.06694">
        <ele>128.8</ele>
        <time>2026-02-02T10:24:38Z</time>
      </trkpt>
      <trkpt lat="48.56022" lon="2.06696">
        <ele>128.8</ele>
        <time>2026-02-02T10:24:39Z</time>
      </trkpt>
      <trkpt lat="48.5602" lon="2.06699">
        <ele>128.8</ele>
        <time>2026-02-02T10:24:40Z</time>
      </trkpt>
      <trkpt lat="48.56018" lon="2.06703">
        <ele>129.2</ele>
        <time>2026-02-02T10:24:41Z</time>
      </trkpt>
      <trkpt lat="48.56017" lon="2.06706">
        <ele>129.2</ele>
        <time>2026-02-02T10:24:42Z</time>
      </trkpt>
      <trkpt lat="48.56017" lon="2.06709">
        <ele>129.2</ele>
        <time>2026-02-02T10:24:43Z</time>
      </trkpt>
      <trkpt lat="48.56017" lon="2.06712">
        <ele>130</ele>
        <time>2026-02-02T10:24:44Z</time>
      </trkpt>
      <trkpt lat="48.56016" lon="2.06715">
        <ele>129.8</ele>
        <time>2026-02-02T10:24:45Z</time>
      </trkpt>
      <trkpt lat="48.56014" lon="2.06719">
        <ele>129.8</ele>
        <time>2026-02-02T10:24:46Z</time>
      </trkpt>
      <trkpt lat="48.56013" lon="2.06722">
        <ele>129.8</ele>
        <time>2026-02-02T10:24:47Z</time>
      </trkpt>
      <trkpt lat="48.56012" lon="2.06725">
        <ele>130.4</ele>
        <time>2026-02-02T10:24:48Z</time>
      </trkpt>
      <trkpt lat="48.5601" lon="2.06728">
        <ele>130</ele>
        <time>2026-02-02T10:24:49Z</time>
      </trkpt>
      <trkpt lat="48.56007" lon="2.06731">
        <ele>130</ele>
        <time>2026-02-02T10:24:50Z</time>
      </trkpt>
      <trkpt lat="48.56006" lon="2.06735">
        <ele>130</ele>
        <time>2026-02-02T10:24:51Z</time>
      </trkpt>
      <trkpt lat="48.56005" lon="2.06738">
        <ele>131</ele>
        <time>2026-02-02T10:24:52Z</time>
      </trkpt>
      <trkpt lat="48.56003" lon="2.06741">
        <ele>131.2</ele>
        <time>2026-02-02T10:24:53Z</time>
      </trkpt>
      <trkpt lat="48.56001" lon="2.06744">
        <ele>131.2</ele>
        <time>2026-02-02T10:24:54Z</time>
      </trkpt>
      <trkpt lat="48.56" lon="2.06747">
        <ele>131.2</ele>
        <time>2026-02-02T10:24:55Z</time>
      </trkpt>
      <trkpt lat="48.56" lon="2.06751">
        <ele>131.2</ele>
        <time>2026-02-02T10:24:56Z</time>
      </trkpt>
      <trkpt lat="48.55998" lon="2.06754">
        <ele>132.4</ele>
        <time>2026-02-02T10:24:57Z</time>
      </trkpt>
      <trkpt lat="48.55997" lon="2.06758">
        <ele>132.4</ele>
        <time>2026-02-02T10:24:58Z</time>
      </trkpt>
      <trkpt lat="48.55996" lon="2.06761">
        <ele>132.4</ele>
        <time>2026-02-02T10:24:59Z</time>
      </trkpt>
      <trkpt lat="48.55995" lon="2.06764">
        <ele>132.4</ele>
        <time>2026-02-02T10:25:00Z</time>
      </trkpt>
      <trkpt lat="48.55995" lon="2.06768">
        <ele>133</ele>
        <time>2026-02-02T10:25:01Z</time>
      </trkpt>
      <trkpt lat="48.55993" lon="2.06772">
        <ele>133</ele>
        <time>2026-02-02T10:25:02Z</time>
      </trkpt>
      <trkpt lat="48.55993" lon="2.06775">
        <ele>133</ele>
        <time>2026-02-02T10:25:03Z</time>
      </trkpt>
      <trkpt lat="48.55994" lon="2.06779">
        <ele>133.4</ele>
        <time>2026-02-02T10:25:04Z</time>
      </trkpt>
      <trkpt lat="48.55993" lon="2.06783">
        <ele>133.6</ele>
        <time>2026-02-02T10:25:05Z</time>
      </trkpt>
      <trkpt lat="48.55993" lon="2.06787">
        <ele>133.6</ele>
        <time>2026-02-02T10:25:06Z</time>
      </trkpt>
      <trkpt lat="48.55993" lon="2.06791">
        <ele>133.6</ele>
        <time>2026-02-02T10:25:07Z</time>
      </trkpt>
      <trkpt lat="48.55995" lon="2.06794">
        <ele>134.2</ele>
        <time>2026-02-02T10:25:08Z</time>
      </trkpt>
      <trkpt lat="48.55994" lon="2.06798">
        <ele>134.2</ele>
        <time>2026-02-02T10:25:09Z</time>
      </trkpt>
      <trkpt lat="48.55995" lon="2.06802">
        <ele>134.2</ele>
        <time>2026-02-02T10:25:10Z</time>
      </trkpt>
      <trkpt lat="48.55994" lon="2.06806">
        <ele>134.2</ele>
        <time>2026-02-02T10:25:11Z</time>
      </trkpt>
      <trkpt lat="48.55995" lon="2.0681">
        <ele>134.8</ele>
        <time>2026-02-02T10:25:12Z</time>
      </trkpt>
      <trkpt lat="48.55995" lon="2.06814">
        <ele>135.2</ele>
        <time>2026-02-02T10:25:13Z</time>
      </trkpt>
      <trkpt lat="48.55995" lon="2.06819">
        <ele>135.2</ele>
        <time>2026-02-02T10:25:14Z</time>
      </trkpt>
      <trkpt lat="48.55996" lon="2.06823">
        <ele>135.2</ele>
        <time>2026-02-02T10:25:15Z</time>
      </trkpt>
      <trkpt lat="48.55997" lon="2.06826">
        <ele>135.8</ele>
        <time>2026-02-02T10:25:16Z</time>
      </trkpt>
      <trkpt lat="48.55997" lon="2.06829">
        <ele>135.6</ele>
        <time>2026-02-02T10:25:17Z</time>
      </trkpt>
      <trkpt lat="48.55997" lon="2.06833">
        <ele>135.6</ele>
        <time>2026-02-02T10:25:18Z</time>
      </trkpt>
      <trkpt lat="48.55997" lon="2.06837">
        <ele>135.6</ele>
        <time>2026-02-02T10:25:19Z</time>
      </trkpt>
      <trkpt lat="48.55997" lon="2.06841">
        <ele>136.4</ele>
        <time>2026-02-02T10:25:20Z</time>
      </trkpt>
      <trkpt lat="48.55997" lon="2.06845">
        <ele>136.8</ele>
        <time>2026-02-02T10:25:21Z</time>
      </trkpt>
      <trkpt lat="48.55997" lon="2.06849">
        <ele>136.8</ele>
        <time>2026-02-02T10:25:22Z</time>
      </trkpt>
      <trkpt lat="48.55997" lon="2.06853">
        <ele>136.8</ele>
        <time>2026-02-02T10:25:23Z</time>
      </trkpt>
      <trkpt lat="48.55998" lon="2.06857">
        <ele>136.8</ele>
        <time>2026-02-02T10:25:24Z</time>
      </trkpt>
      <trkpt lat="48.56" lon="2.06861">
        <ele>137.2</ele>
        <time>2026-02-02T10:25:25Z</time>
      </trkpt>
      <trkpt lat="48.56" lon="2.06865">
        <ele>137.2</ele>
        <time>2026-02-02T10:25:26Z</time>
      </trkpt>
      <trkpt lat="48.56" lon="2.06868">
        <ele>137.2</ele>
        <time>2026-02-02T10:25:27Z</time>
      </trkpt>
      <trkpt lat="48.56001" lon="2.06873">
        <ele>137.2</ele>
        <time>2026-02-02T10:25:28Z</time>
      </trkpt>
      <trkpt lat="48.56002" lon="2.06877">
        <ele>137.8</ele>
        <time>2026-02-02T10:25:29Z</time>
      </trkpt>
      <trkpt lat="48.56002" lon="2.06881">
        <ele>137.8</ele>
        <time>2026-02-02T10:25:30Z</time>
      </trkpt>
      <trkpt lat="48.56002" lon="2.06884">
        <ele>137.8</ele>
        <time>2026-02-02T10:25:31Z</time>
      </trkpt>
      <trkpt lat="48.56003" lon="2.06888">
        <ele>137.8</ele>
        <time>2026-02-02T10:25:32Z</time>
      </trkpt>
      <trkpt lat="48.56004" lon="2.06892">
        <ele>138.6</ele>
        <time>2026-02-02T10:25:33Z</time>
      </trkpt>
      <trkpt lat="48.56005" lon="2.06897">
        <ele>138.6</ele>
        <time>2026-02-02T10:25:34Z</time>
      </trkpt>
      <trkpt lat="48.56006" lon="2.06901">
        <ele>138.6</ele>
        <time>2026-02-02T10:25:35Z</time>
      </trkpt>
      <trkpt lat="48.56008" lon="2.06905">
        <ele>139.2</ele>
        <time>2026-02-02T10:25:36Z</time>
      </trkpt>
      <trkpt lat="48.5601" lon="2.06909">
        <ele>139.4</ele>
        <time>2026-02-02T10:25:37Z</time>
      </trkpt>
      <trkpt lat="48.56012" lon="2.06913">
        <ele>139.4</ele>
        <time>2026-02-02T10:25:38Z</time>
      </trkpt>
      <trkpt lat="48.56013" lon="2.06917">
        <ele>139.4</ele>
        <time>2026-02-02T10:25:39Z</time>
      </trkpt>
      <trkpt lat="48.56015" lon="2.06921">
        <ele>139.4</ele>
        <time>2026-02-02T10:25:40Z</time>
      </trkpt>
      <trkpt lat="48.56017" lon="2.06924">
        <ele>139.8</ele>
        <time>2026-02-02T10:25:41Z</time>
      </trkpt>
      <trkpt lat="48.5602" lon="2.06928">
        <ele>139.8</ele>
        <time>2026-02-02T10:25:42Z</time>
      </trkpt>
      <trkpt lat="48.56022" lon="2.06931">
        <ele>139.8</ele>
        <time>2026-02-02T10:25:43Z</time>
      </trkpt>
      <trkpt lat="48.56025" lon="2.06935">
        <ele>140.6</ele>
        <time>2026-02-02T10:25:44Z</time>
      </trkpt>
      <trkpt lat="48.56026" lon="2.06939">
        <ele>140.8</ele>
        <time>2026-02-02T10:25:45Z</time>
      </trkpt>
      <trkpt lat="48.56027" lon="2.06942">
        <ele>140.8</ele>
        <time>2026-02-02T10:25:46Z</time>
      </trkpt>
      <trkpt lat="48.56029" lon="2.06945">
        <ele>140.8</ele>
        <time>2026-02-02T10:25:47Z</time>
      </trkpt>
      <trkpt lat="48.5603" lon="2.06947">
        <ele>141.6</ele>
        <time>2026-02-02T10:25:48Z</time>
      </trkpt>
      <trkpt lat="48.56031" lon="2.06951">
        <ele>141.6</ele>
        <time>2026-02-02T10:25:49Z</time>
      </trkpt>
      <trkpt lat="48.56032" lon="2.06954">
        <ele>141.6</ele>
        <time>2026-02-02T10:25:50Z</time>
      </trkpt>
      <trkpt lat="48.56033" lon="2.06958">
        <ele>141.6</ele>
        <time>2026-02-02T10:25:51Z</time>
      </trkpt>
      <trkpt lat="48.56035" lon="2.06962">
        <ele>141.6</ele>
        <time>2026-02-02T10:25:52Z</time>
      </trkpt>
      <trkpt lat="48.56036" lon="2.06966">
        <ele>142.2</ele>
        <time>2026-02-02T10:25:53Z</time>
      </trkpt>
      <trkpt lat="48.56037" lon="2.0697">
        <ele>142.2</ele>
        <time>2026-02-02T10:25:54Z</time>
      </trkpt>
      <trkpt lat="48.56039" lon="2.06974">
        <ele>142.2</ele>
        <time>2026-02-02T10:25:55Z</time>
      </trkpt>
      <trkpt lat="48.56039" lon="2.06978">
        <ele>143.2</ele>
        <time>2026-02-02T10:25:56Z</time>
      </trkpt>
      <trkpt lat="48.5604" lon="2.06982">
        <ele>142.6</ele>
        <time>2026-02-02T10:25:57Z</time>
      </trkpt>
      <trkpt lat="48.56039" lon="2.06987">
        <ele>142.6</ele>
        <time>2026-02-02T10:25:58Z</time>
      </trkpt>
      <trkpt lat="48.56039" lon="2.06991">
        <ele>142.6</ele>
        <time>2026-02-02T10:25:59Z</time>
      </trkpt>
      <trkpt lat="48.56039" lon="2.06995">
        <ele>143.4</ele>
        <time>2026-02-02T10:26:00Z</time>
      </trkpt>
      <trkpt lat="48.56039" lon="2.06999">
        <ele>143.8</ele>
        <time>2026-02-02T10:26:01Z</time>
      </trkpt>
      <trkpt lat="48.56038" lon="2.07003">
        <ele>143.8</ele>
        <time>2026-02-02T10:26:02Z</time>
      </trkpt>
      <trkpt lat="48.56037" lon="2.07007">
        <ele>143.8</ele>
        <time>2026-02-02T10:26:03Z</time>
      </trkpt>
      <trkpt lat="48.56037" lon="2.0701">
        <ele>144.4</ele>
        <time>2026-02-02T10:26:04Z</time>
      </trkpt>
      <trkpt lat="48.56036" lon="2.07014">
        <ele>144.6</ele>
        <time>2026-02-02T10:26:05Z</time>
      </trkpt>
      <trkpt lat="48.56034" lon="2.07018">
        <ele>144.6</ele>
        <time>2026-02-02T10:26:06Z</time>
      </trkpt>
      <trkpt lat="48.56033" lon="2.07022">
        <ele>144.6</ele>
        <time>2026-02-02T10:26:07Z</time>
      </trkpt>
      <trkpt lat="48.56032" lon="2.07025">
        <ele>145.4</ele>
        <time>2026-02-02T10:26:08Z</time>
      </trkpt>
      <trkpt lat="48.5603" lon="2.07027">
        <ele>145.2</ele>
        <time>2026-02-02T10:26:09Z</time>
      </trkpt>
      <trkpt lat="48.56028" lon="2.0703">
        <ele>145.2</ele>
        <time>2026-02-02T10:26:10Z</time>
      </trkpt>
      <trkpt lat="48.56027" lon="2.07033">
        <ele>145.2</ele>
        <time>2026-02-02T10:26:11Z</time>
      </trkpt>
      <trkpt lat="48.56025" lon="2.07036">
        <ele>145.2</ele>
        <time>2026-02-02T10:26:12Z</time>
      </trkpt>
      <trkpt lat="48.56023" lon="2.07038">
        <ele>146</ele>
        <time>2026-02-02T10:26:13Z</time>
      </trkpt>
      <trkpt lat="48.56021" lon="2.0704">
        <ele>146</ele>
        <time>2026-02-02T10:26:14Z</time>
      </trkpt>
      <trkpt lat="48.56019" lon="2.07042">
        <ele>146</ele>
        <time>2026-02-02T10:26:15Z</time>
      </trkpt>
      <trkpt lat="48.56017" lon="2.07044">
        <ele>146.6</ele>
        <time>2026-02-02T10:26:16Z</time>
      </trkpt>
      <trkpt lat="48.56015" lon="2.07046">
        <ele>146.4</ele>
        <time>2026-02-02T10:26:17Z</time>
      </trkpt>
      <trkpt lat="48.56012" lon="2.07048">
        <ele>146.4</ele>
        <time>2026-02-02T10:26:18Z</time>
      </trkpt>
      <trkpt lat="48.5601" lon="2.0705">
        <ele>146.4</ele>
        <time>2026-02-02T10:26:19Z</time>
      </trkpt>
      <trkpt lat="48.56007" lon="2.07051">
        <ele>147.4</ele>
        <time>2026-02-02T10:26:20Z</time>
      </trkpt>
      <trkpt lat="48.56005" lon="2.07053">
        <ele>147.6</ele>
        <time>2026-02-02T10:26:21Z</time>
      </trkpt>
      <trkpt lat="48.56003" lon="2.07055">
        <ele>147.6</ele>
        <time>2026-02-02T10:26:22Z</time>
      </trkpt>
      <trkpt lat="48.56" lon="2.07057">
        <ele>147.6</ele>
        <time>2026-02-02T10:26:23Z</time>
      </trkpt>
      <trkpt lat="48.55998" lon="2.07058">
        <ele>148.6</ele>
        <time>2026-02-02T10:26:24Z</time>
      </trkpt>
      <trkpt lat="48.55996" lon="2.07061">
        <ele>148</ele>
        <time>2026-02-02T10:26:25Z</time>
      </trkpt>
      <trkpt lat="48.55994" lon="2.07063">
        <ele>148</ele>
        <time>2026-02-02T10:26:26Z</time>
      </trkpt>
      <trkpt lat="48.55991" lon="2.07065">
        <ele>148</ele>
        <time>2026-02-02T10:26:27Z</time>
      </trkpt>
      <trkpt lat="48.55989" lon="2.07067">
        <ele>148.8</ele>
        <time>2026-02-02T10:26:28Z</time>
      </trkpt>
      <trkpt lat="48.55988" lon="2.07069">
        <ele>148.6</ele>
        <time>2026-02-02T10:26:29Z</time>
      </trkpt>
      <trkpt lat="48.55986" lon="2.07072">
        <ele>148.6</ele>
        <time>2026-02-02T10:26:30Z</time>
      </trkpt>
      <trkpt lat="48.55984" lon="2.07074">
        <ele>148.6</ele>
        <time>2026-02-02T10:26:31Z</time>
      </trkpt>
      <trkpt lat="48.55982" lon="2.07077">
        <ele>149.6</ele>
        <time>2026-02-02T10:26:32Z</time>
      </trkpt>
      <trkpt lat="48.55981" lon="2.07079">
        <ele>149.8</ele>
        <time>2026-02-02T10:26:33Z</time>
      </trkpt>
      <trkpt lat="48.55979" lon="2.07083">
        <ele>149.8</ele>
        <time>2026-02-02T10:26:34Z</time>
      </trkpt>
      <trkpt lat="48.55978" lon="2.07086">
        <ele>149.8</ele>
        <time>2026-02-02T10:26:35Z</time>
      </trkpt>
      <trkpt lat="48.55977" lon="2.07089">
        <ele>149.8</ele>
        <time>2026-02-02T10:26:36Z</time>
      </trkpt>
      <trkpt lat="48.55976" lon="2.07092">
        <ele>150.8</ele>
        <time>2026-02-02T10:26:37Z</time>
      </trkpt>
      <trkpt lat="48.55974" lon="2.07097">
        <ele>150.8</ele>
        <time>2026-02-02T10:26:38Z</time>
      </trkpt>
      <trkpt lat="48.55973" lon="2.071">
        <ele>150.8</ele>
        <time>2026-02-02T10:26:39Z</time>
      </trkpt>
      <trkpt lat="48.55972" lon="2.07103">
        <ele>150.8</ele>
        <time>2026-02-02T10:26:40Z</time>
      </trkpt>
      <trkpt lat="48.55971" lon="2.07107">
        <ele>151.4</ele>
        <time>2026-02-02T10:26:41Z</time>
      </trkpt>
      <trkpt lat="48.5597" lon="2.0711">
        <ele>151.4</ele>
        <time>2026-02-02T10:26:42Z</time>
      </trkpt>
      <trkpt lat="48.55968" lon="2.07113">
        <ele>151.4</ele>
        <time>2026-02-02T10:26:43Z</time>
      </trkpt>
      <trkpt lat="48.55967" lon="2.07116">
        <ele>151.8</ele>
        <time>2026-02-02T10:26:44Z</time>
      </trkpt>
      <trkpt lat="48.55965" lon="2.07119">
        <ele>152.2</ele>
        <time>2026-02-02T10:26:45Z</time>
      </trkpt>
      <trkpt lat="48.55964" lon="2.07122">
        <ele>152.2</ele>
        <time>2026-02-02T10:26:46Z</time>
      </trkpt>
      <trkpt lat="48.55962" lon="2.07125">
        <ele>152.2</ele>
        <time>2026-02-02T10:26:47Z</time>
      </trkpt>
      <trkpt lat="48.5596" lon="2.07128">
        <ele>152.2</ele>
        <time>2026-02-02T10:26:48Z</time>
      </trkpt>
      <trkpt lat="48.55959" lon="2.07131">
        <ele>152.8</ele>
        <time>2026-02-02T10:26:49Z</time>
      </trkpt>
      <trkpt lat="48.55957" lon="2.07133">
        <ele>152.8</ele>
        <time>2026-02-02T10:26:50Z</time>
      </trkpt>
      <trkpt lat="48.55955" lon="2.07135">
        <ele>152.8</ele>
        <time>2026-02-02T10:26:51Z</time>
      </trkpt>
      <trkpt lat="48.55953" lon="2.07138">
        <ele>153.4</ele>
        <time>2026-02-02T10:26:52Z</time>
      </trkpt>
      <trkpt lat="48.55951" lon="2.07139">
        <ele>154</ele>
        <time>2026-02-02T10:26:53Z</time>
      </trkpt>
      <trkpt lat="48.55949" lon="2.07141">
        <ele>154</ele>
        <time>2026-02-02T10:26:54Z</time>
      </trkpt>
      <trkpt lat="48.55948" lon="2.07142">
        <ele>154</ele>
        <time>2026-02-02T10:26:55Z</time>
      </trkpt>
      <trkpt lat="48.55946" lon="2.07143">
        <ele>154</ele>
        <time>2026-02-02T10:26:56Z</time>
      </trkpt>
      <trkpt lat="48.55944" lon="2.07143">
        <ele>153.8</ele>
        <time>2026-02-02T10:26:57Z</time>
      </trkpt>
      <trkpt lat="48.55942" lon="2.07143">
        <ele>153.8</ele>
        <time>2026-02-02T10:26:58Z</time>
      </trkpt>
      <trkpt lat="48.5594" lon="2.07143">
        <ele>153.8</ele>
        <time>2026-02-02T10:26:59Z</time>
      </trkpt>
      <trkpt lat="48.55937" lon="2.07144">
        <ele>154.6</ele>
        <time>2026-02-02T10:27:00Z</time>
      </trkpt>
      <trkpt lat="48.55935" lon="2.07144">
        <ele>154.8</ele>
        <time>2026-02-02T10:27:01Z</time>
      </trkpt>
      <trkpt lat="48.55932" lon="2.07144">
        <ele>154.8</ele>
        <time>2026-02-02T10:27:02Z</time>
      </trkpt>
      <trkpt lat="48.5593" lon="2.07144">
        <ele>154.8</ele>
        <time>2026-02-02T10:27:03Z</time>
      </trkpt>
      <trkpt lat="48.55928" lon="2.07143">
        <ele>155.6</ele>
        <time>2026-02-02T10:27:04Z</time>
      </trkpt>
      <trkpt lat="48.55925" lon="2.07142">
        <ele>155.4</ele>
        <time>2026-02-02T10:27:05Z</time>
      </trkpt>
      <trkpt lat="48.55923" lon="2.07141">
        <ele>155.4</ele>
        <time>2026-02-02T10:27:06Z</time>
      </trkpt>
      <trkpt lat="48.55921" lon="2.07139">
        <ele>155.4</ele>
        <time>2026-02-02T10:27:07Z</time>
      </trkpt>
      <trkpt lat="48.55919" lon="2.07138">
        <ele>155.8</ele>
        <time>2026-02-02T10:27:08Z</time>
      </trkpt>
      <trkpt lat="48.55917" lon="2.07136">
        <ele>156.2</ele>
        <time>2026-02-02T10:27:09Z</time>
      </trkpt>
      <trkpt lat="48.55914" lon="2.07135">
        <ele>156.2</ele>
        <time>2026-02-02T10:27:10Z</time>
      </trkpt>
      <trkpt lat="48.55911" lon="2.07133">
        <ele>156.2</ele>
        <time>2026-02-02T10:27:11Z</time>
      </trkpt>
      <trkpt lat="48.55908" lon="2.07132">
        <ele>156.6</ele>
        <time>2026-02-02T10:27:12Z</time>
      </trkpt>
      <trkpt lat="48.55906" lon="2.07131">
        <ele>157.2</ele>
        <time>2026-02-02T10:27:13Z</time>
      </trkpt>
      <trkpt lat="48.55903" lon="2.0713">
        <ele>157.2</ele>
        <time>2026-02-02T10:27:14Z</time>
      </trkpt>
      <trkpt lat="48.559" lon="2.07129">
        <ele>157.2</ele>
        <time>2026-02-02T10:27:15Z</time>
      </trkpt>
      <trkpt lat="48.55897" lon="2.07127">
        <ele>157.2</ele>
        <time>2026-02-02T10:27:16Z</time>
      </trkpt>
      <trkpt lat="48.55894" lon="2.07126">
        <ele>157.4</ele>
        <time>2026-02-02T10:27:17Z</time>
      </trkpt>
      <trkpt lat="48.55891" lon="2.07124">
        <ele>157.4</ele>
        <time>2026-02-02T10:27:18Z</time>
      </trkpt>
      <trkpt lat="48.55888" lon="2.07123">
        <ele>157.4</ele>
        <time>2026-02-02T10:27:19Z</time>
      </trkpt>
      <trkpt lat="48.55885" lon="2.07121">
        <ele>157.6</ele>
        <time>2026-02-02T10:27:20Z</time>
      </trkpt>
      <trkpt lat="48.55882" lon="2.07119">
        <ele>158</ele>
        <time>2026-02-02T10:27:21Z</time>
      </trkpt>
      <trkpt lat="48.55879" lon="2.07118">
        <ele>158</ele>
        <time>2026-02-02T10:27:22Z</time>
      </trkpt>
      <trkpt lat="48.55875" lon="2.07117">
        <ele>158</ele>
        <time>2026-02-02T10:27:23Z</time>
      </trkpt>
      <trkpt lat="48.55872" lon="2.07116">
        <ele>158</ele>
        <time>2026-02-02T10:27:24Z</time>
      </trkpt>
      <trkpt lat="48.55868" lon="2.07115">
        <ele>158</ele>
        <time>2026-02-02T10:27:25Z</time>
      </trkpt>
      <trkpt lat="48.55865" lon="2.07114">
        <ele>158</ele>
        <time>2026-02-02T10:27:26Z</time>
      </trkpt>
      <trkpt lat="48.55862" lon="2.07112">
        <ele>158</ele>
        <time>2026-02-02T10:27:27Z</time>
      </trkpt>
      <trkpt lat="48.55858" lon="2.0711">
        <ele>158.6</ele>
        <time>2026-02-02T10:27:28Z</time>
      </trkpt>
      <trkpt lat="48.55855" lon="2.07108">
        <ele>158.6</ele>
        <time>2026-02-02T10:27:29Z</time>
      </trkpt>
      <trkpt lat="48.55852" lon="2.07106">
        <ele>158.6</ele>
        <time>2026-02-02T10:27:30Z</time>
      </trkpt>
      <trkpt lat="48.55849" lon="2.07104">
        <ele>158.6</ele>
        <time>2026-02-02T10:27:31Z</time>
      </trkpt>
      <trkpt lat="48.55845" lon="2.07102">
        <ele>158.6</ele>
        <time>2026-02-02T10:27:32Z</time>
      </trkpt>
      <trkpt lat="48.55842" lon="2.07099">
        <ele>158.8</ele>
        <time>2026-02-02T10:27:33Z</time>
      </trkpt>
      <trkpt lat="48.55838" lon="2.07097">
        <ele>158.8</ele>
        <time>2026-02-02T10:27:34Z</time>
      </trkpt>
      <trkpt lat="48.55835" lon="2.07095">
        <ele>158.8</ele>
        <time>2026-02-02T10:27:35Z</time>
      </trkpt>
      <trkpt lat="48.55831" lon="2.07092">
        <ele>158.8</ele>
        <time>2026-02-02T10:27:36Z</time>
      </trkpt>
      <trkpt lat="48.55828" lon="2.07089">
        <ele>159</ele>
        <time>2026-02-02T10:27:37Z</time>
      </trkpt>
      <trkpt lat="48.55824" lon="2.07086">
        <ele>159</ele>
        <time>2026-02-02T10:27:38Z</time>
      </trkpt>
      <trkpt lat="48.5582" lon="2.07084">
        <ele>159</ele>
        <time>2026-02-02T10:27:39Z</time>
      </trkpt>
      <trkpt lat="48.55816" lon="2.07081">
        <ele>159</ele>
        <time>2026-02-02T10:27:40Z</time>
      </trkpt>
      <trkpt lat="48.55812" lon="2.07079">
        <ele>158.8</ele>
        <time>2026-02-02T10:27:41Z</time>
      </trkpt>
      <trkpt lat="48.55808" lon="2.07076">
        <ele>158.8</ele>
        <time>2026-02-02T10:27:42Z</time>
      </trkpt>
      <trkpt lat="48.55804" lon="2.07073">
        <ele>158.8</ele>
        <time>2026-02-02T10:27:43Z</time>
      </trkpt>
      <trkpt lat="48.55801" lon="2.0707">
        <ele>159.4</ele>
        <time>2026-02-02T10:27:44Z</time>
      </trkpt>
      <trkpt lat="48.55797" lon="2.07067">
        <ele>159.2</ele>
        <time>2026-02-02T10:27:45Z</time>
      </trkpt>
      <trkpt lat="48.55793" lon="2.07064">
        <ele>159.2</ele>
        <time>2026-02-02T10:27:46Z</time>
      </trkpt>
      <trkpt lat="48.55789" lon="2.07061">
        <ele>159.2</ele>
        <time>2026-02-02T10:27:47Z</time>
      </trkpt>
      <trkpt lat="48.55785" lon="2.07058">
        <ele>159.8</ele>
        <time>2026-02-02T10:27:48Z</time>
      </trkpt>
      <trkpt lat="48.55781" lon="2.07056">
        <ele>159.6</ele>
        <time>2026-02-02T10:27:49Z</time>
      </trkpt>
      <trkpt lat="48.55777" lon="2.07053">
        <ele>159.6</ele>
        <time>2026-02-02T10:27:50Z</time>
      </trkpt>
      <trkpt lat="48.55773" lon="2.0705">
        <ele>159.6</ele>
        <time>2026-02-02T10:27:51Z</time>
      </trkpt>
      <trkpt lat="48.55768" lon="2.07047">
        <ele>159.6</ele>
        <time>2026-02-02T10:27:52Z</time>
      </trkpt>
      <trkpt lat="48.55764" lon="2.07044">
        <ele>159.2</ele>
        <time>2026-02-02T10:27:53Z</time>
      </trkpt>
      <trkpt lat="48.5576" lon="2.07041">
        <ele>159.2</ele>
        <time>2026-02-02T10:27:54Z</time>
      </trkpt>
      <trkpt lat="48.55755" lon="2.07037">
        <ele>159.2</ele>
        <time>2026-02-02T10:27:55Z</time>
      </trkpt>
      <trkpt lat="48.55751" lon="2.07034">
        <ele>159.4</ele>
        <time>2026-02-02T10:27:56Z</time>
      </trkpt>
      <trkpt lat="48.55746" lon="2.07031">
        <ele>159.4</ele>
        <time>2026-02-02T10:27:57Z</time>
      </trkpt>
      <trkpt lat="48.55742" lon="2.07027">
        <ele>159.4</ele>
        <time>2026-02-02T10:27:58Z</time>
      </trkpt>
      <trkpt lat="48.55737" lon="2.07023">
        <ele>159.4</ele>
        <time>2026-02-02T10:27:59Z</time>
      </trkpt>
      <trkpt lat="48.55733" lon="2.07019">
        <ele>159.4</ele>
        <time>2026-02-02T10:28:00Z</time>
      </trkpt>
      <trkpt lat="48.55728" lon="2.07015">
        <ele>159.6</ele>
        <time>2026-02-02T10:28:01Z</time>
      </trkpt>
      <trkpt lat="48.55722" lon="2.07012">
        <ele>159.6</ele>
        <time>2026-02-02T10:28:02Z</time>
      </trkpt>
      <trkpt lat="48.55717" lon="2.07008">
        <ele>159.6</ele>
        <time>2026-02-02T10:28:03Z</time>
      </trkpt>
      <trkpt lat="48.55712" lon="2.07005">
        <ele>159.6</ele>
        <time>2026-02-02T10:28:04Z</time>
      </trkpt>
      <trkpt lat="48.55707" lon="2.07001">
        <ele>159</ele>
        <time>2026-02-02T10:28:05Z</time>
      </trkpt>
      <trkpt lat="48.55702" lon="2.06997">
        <ele>159</ele>
        <time>2026-02-02T10:28:06Z</time>
      </trkpt>
      <trkpt lat="48.55697" lon="2.06993">
        <ele>159</ele>
        <time>2026-02-02T10:28:07Z</time>
      </trkpt>
      <trkpt lat="48.55691" lon="2.06989">
        <ele>159</ele>
        <time>2026-02-02T10:28:08Z</time>
      </trkpt>
      <trkpt lat="48.55686" lon="2.06985">
        <ele>159</ele>
        <time>2026-02-02T10:28:09Z</time>
      </trkpt>
      <trkpt lat="48.55681" lon="2.06981">
        <ele>159</ele>
        <time>2026-02-02T10:28:10Z</time>
      </trkpt>
      <trkpt lat="48.55676" lon="2.06977">
        <ele>159</ele>
        <time>2026-02-02T10:28:11Z</time>
      </trkpt>
      <trkpt lat="48.5567" lon="2.06974">
        <ele>159</ele>
        <time>2026-02-02T10:28:12Z</time>
      </trkpt>
      <trkpt lat="48.55665" lon="2.0697">
        <ele>158.8</ele>
        <time>2026-02-02T10:28:13Z</time>
      </trkpt>
      <trkpt lat="48.55659" lon="2.06966">
        <ele>158.8</ele>
        <time>2026-02-02T10:28:14Z</time>
      </trkpt>
      <trkpt lat="48.55654" lon="2.06962">
        <ele>158.8</ele>
        <time>2026-02-02T10:28:15Z</time>
      </trkpt>
      <trkpt lat="48.55649" lon="2.06957">
        <ele>158.8</ele>
        <time>2026-02-02T10:28:16Z</time>
      </trkpt>
      <trkpt lat="48.55644" lon="2.06952">
        <ele>158.6</ele>
        <time>2026-02-02T10:28:17Z</time>
      </trkpt>
      <trkpt lat="48.55638" lon="2.06948">
        <ele>158.6</ele>
        <time>2026-02-02T10:28:18Z</time>
      </trkpt>
      <trkpt lat="48.55633" lon="2.06944">
        <ele>158.6</ele>
        <time>2026-02-02T10:28:19Z</time>
      </trkpt>
      <trkpt lat="48.55627" lon="2.06939">
        <ele>158</ele>
        <time>2026-02-02T10:28:20Z</time>
      </trkpt>
      <trkpt lat="48.55621" lon="2.06935">
        <ele>158.6</ele>
        <time>2026-02-02T10:28:21Z</time>
      </trkpt>
      <trkpt lat="48.55616" lon="2.0693">
        <ele>158.6</ele>
        <time>2026-02-02T10:28:22Z</time>
      </trkpt>
      <trkpt lat="48.5561" lon="2.06925">
        <ele>158.6</ele>
        <time>2026-02-02T10:28:23Z</time>
      </trkpt>
      <trkpt lat="48.55604" lon="2.0692">
        <ele>158</ele>
        <time>2026-02-02T10:28:24Z</time>
      </trkpt>
      <trkpt lat="48.55598" lon="2.06915">
        <ele>158</ele>
        <time>2026-02-02T10:28:25Z</time>
      </trkpt>
      <trkpt lat="48.55592" lon="2.0691">
        <ele>158</ele>
        <time>2026-02-02T10:28:26Z</time>
      </trkpt>
      <trkpt lat="48.55586" lon="2.06906">
        <ele>158</ele>
        <time>2026-02-02T10:28:27Z</time>
      </trkpt>
      <trkpt lat="48.5558" lon="2.06902">
        <ele>157</ele>
        <time>2026-02-02T10:28:28Z</time>
      </trkpt>
      <trkpt lat="48.55574" lon="2.06898">
        <ele>156.8</ele>
        <time>2026-02-02T10:28:29Z</time>
      </trkpt>
      <trkpt lat="48.55567" lon="2.06895">
        <ele>156.8</ele>
        <time>2026-02-02T10:28:30Z</time>
      </trkpt>
      <trkpt lat="48.55561" lon="2.06891">
        <ele>156.8</ele>
        <time>2026-02-02T10:28:31Z</time>
      </trkpt>
      <trkpt lat="48.55554" lon="2.06889">
        <ele>156.8</ele>
        <time>2026-02-02T10:28:32Z</time>
      </trkpt>
      <trkpt lat="48.55546" lon="2.06888">
        <ele>156.2</ele>
        <time>2026-02-02T10:28:33Z</time>
      </trkpt>
      <trkpt lat="48.55538" lon="2.06887">
        <ele>156.2</ele>
        <time>2026-02-02T10:28:34Z</time>
      </trkpt>
      <trkpt lat="48.55531" lon="2.06886">
        <ele>156.2</ele>
        <time>2026-02-02T10:28:35Z</time>
      </trkpt>
      <trkpt lat="48.55523" lon="2.06886">
        <ele>156.2</ele>
        <time>2026-02-02T10:28:36Z</time>
      </trkpt>
      <trkpt lat="48.55515" lon="2.06886">
        <ele>156</ele>
        <time>2026-02-02T10:28:37Z</time>
      </trkpt>
      <trkpt lat="48.55507" lon="2.06886">
        <ele>156</ele>
        <time>2026-02-02T10:28:38Z</time>
      </trkpt>
      <trkpt lat="48.55498" lon="2.06887">
        <ele>156</ele>
        <time>2026-02-02T10:28:39Z</time>
      </trkpt>
      <trkpt lat="48.5549" lon="2.06887">
        <ele>155.4</ele>
        <time>2026-02-02T10:28:40Z</time>
      </trkpt>
      <trkpt lat="48.55483" lon="2.06887">
        <ele>155.6</ele>
        <time>2026-02-02T10:28:41Z</time>
      </trkpt>
      <trkpt lat="48.55475" lon="2.06888">
        <ele>155.6</ele>
        <time>2026-02-02T10:28:42Z</time>
      </trkpt>
      <trkpt lat="48.55467" lon="2.06889">
        <ele>155.6</ele>
        <time>2026-02-02T10:28:43Z</time>
      </trkpt>
      <trkpt lat="48.5546" lon="2.0689">
        <ele>155.6</ele>
        <time>2026-02-02T10:28:44Z</time>
      </trkpt>
      <trkpt lat="48.55452" lon="2.0689">
        <ele>155</ele>
        <time>2026-02-02T10:28:45Z</time>
      </trkpt>
      <trkpt lat="48.55445" lon="2.06891">
        <ele>155</ele>
        <time>2026-02-02T10:28:46Z</time>
      </trkpt>
      <trkpt lat="48.55438" lon="2.06891">
        <ele>155</ele>
        <time>2026-02-02T10:28:47Z</time>
      </trkpt>
      <trkpt lat="48.55431" lon="2.06892">
        <ele>155</ele>
        <time>2026-02-02T10:28:48Z</time>
      </trkpt>
      <trkpt lat="48.55424" lon="2.06893">
        <ele>155.4</ele>
        <time>2026-02-02T10:28:49Z</time>
      </trkpt>
      <trkpt lat="48.55417" lon="2.06894">
        <ele>155.4</ele>
        <time>2026-02-02T10:28:50Z</time>
      </trkpt>
      <trkpt lat="48.5541" lon="2.06895">
        <ele>155.4</ele>
        <time>2026-02-02T10:28:51Z</time>
      </trkpt>
      <trkpt lat="48.55403" lon="2.06895">
        <ele>155.4</ele>
        <time>2026-02-02T10:28:52Z</time>
      </trkpt>
      <trkpt lat="48.55397" lon="2.06896">
        <ele>155.6</ele>
        <time>2026-02-02T10:28:53Z</time>
      </trkpt>
      <trkpt lat="48.5539" lon="2.06897">
        <ele>155.6</ele>
        <time>2026-02-02T10:28:54Z</time>
      </trkpt>
      <trkpt lat="48.55384" lon="2.06897">
        <ele>155.6</ele>
        <time>2026-02-02T10:28:55Z</time>
      </trkpt>
      <trkpt lat="48.55377" lon="2.06898">
        <ele>155.6</ele>
        <time>2026-02-02T10:28:56Z</time>
      </trkpt>
      <trkpt lat="48.55371" lon="2.06899">
        <ele>155.6</ele>
        <time>2026-02-02T10:28:57Z</time>
      </trkpt>
      <trkpt lat="48.55365" lon="2.06899">
        <ele>155.6</ele>
        <time>2026-02-02T10:28:58Z</time>
      </trkpt>
      <trkpt lat="48.55358" lon="2.069">
        <ele>155.6</ele>
        <time>2026-02-02T10:28:59Z</time>
      </trkpt>
      <trkpt lat="48.55352" lon="2.06901">
        <ele>155.6</ele>
        <time>2026-02-02T10:29:00Z</time>
      </trkpt>
      <trkpt lat="48.55346" lon="2.06902">
        <ele>155.6</ele>
        <time>2026-02-02T10:29:01Z</time>
      </trkpt>
      <trkpt lat="48.5534" lon="2.06902">
        <ele>155.6</ele>
        <time>2026-02-02T10:29:02Z</time>
      </trkpt>
      <trkpt lat="48.55335" lon="2.06903">
        <ele>155.6</ele>
        <time>2026-02-02T10:29:03Z</time>
      </trkpt>
      <trkpt lat="48.55329" lon="2.06904">
        <ele>155.6</ele>
        <time>2026-02-02T10:29:04Z</time>
      </trkpt>
      <trkpt lat="48.55323" lon="2.06905">
        <ele>155.8</ele>
        <time>2026-02-02T10:29:05Z</time>
      </trkpt>
      <trkpt lat="48.55317" lon="2.06906">
        <ele>155.8</ele>
        <time>2026-02-02T10:29:06Z</time>
      </trkpt>
      <trkpt lat="48.55311" lon="2.06906">
        <ele>155.8</ele>
        <time>2026-02-02T10:29:07Z</time>
      </trkpt>
      <trkpt lat="48.55306" lon="2.06907">
        <ele>155.8</ele>
        <time>2026-02-02T10:29:08Z</time>
      </trkpt>
      <trkpt lat="48.553" lon="2.06908">
        <ele>156.4</ele>
        <time>2026-02-02T10:29:09Z</time>
      </trkpt>
      <trkpt lat="48.55294" lon="2.06908">
        <ele>156.4</ele>
        <time>2026-02-02T10:29:10Z</time>
      </trkpt>
      <trkpt lat="48.55288" lon="2.06909">
        <ele>156.4</ele>
        <time>2026-02-02T10:29:11Z</time>
      </trkpt>
      <trkpt lat="48.55283" lon="2.06909">
        <ele>156</ele>
        <time>2026-02-02T10:29:12Z</time>
      </trkpt>
      <trkpt lat="48.55277" lon="2.06909">
        <ele>156.4</ele>
        <time>2026-02-02T10:29:13Z</time>
      </trkpt>
      <trkpt lat="48.55271" lon="2.0691">
        <ele>156.4</ele>
        <time>2026-02-02T10:29:14Z</time>
      </trkpt>
      <trkpt lat="48.55266" lon="2.0691">
        <ele>156.4</ele>
        <time>2026-02-02T10:29:15Z</time>
      </trkpt>
      <trkpt lat="48.5526" lon="2.06911">
        <ele>155.6</ele>
        <time>2026-02-02T10:29:16Z</time>
      </trkpt>
      <trkpt lat="48.55254" lon="2.06912">
        <ele>155.6</ele>
        <time>2026-02-02T10:29:17Z</time>
      </trkpt>
      <trkpt lat="48.55248" lon="2.06912">
        <ele>155.6</ele>
        <time>2026-02-02T10:29:18Z</time>
      </trkpt>
      <trkpt lat="48.55243" lon="2.06913">
        <ele>155.6</ele>
        <time>2026-02-02T10:29:19Z</time>
      </trkpt>
      <trkpt lat="48.55237" lon="2.06913">
        <ele>155.6</ele>
        <time>2026-02-02T10:29:20Z</time>
      </trkpt>
      <trkpt lat="48.55231" lon="2.06914">
        <ele>157</ele>
        <time>2026-02-02T10:29:21Z</time>
      </trkpt>
      <trkpt lat="48.55226" lon="2.06915">
        <ele>157</ele>
        <time>2026-02-02T10:29:22Z</time>
      </trkpt>
      <trkpt lat="48.5522" lon="2.06915">
        <ele>157</ele>
        <time>2026-02-02T10:29:23Z</time>
      </trkpt>
      <trkpt lat="48.55215" lon="2.06916">
        <ele>156</ele>
        <time>2026-02-02T10:29:24Z</time>
      </trkpt>
      <trkpt lat="48.55209" lon="2.06917">
        <ele>155.6</ele>
        <time>2026-02-02T10:29:25Z</time>
      </trkpt>
      <trkpt lat="48.55204" lon="2.06917">
        <ele>155.6</ele>
        <time>2026-02-02T10:29:26Z</time>
      </trkpt>
      <trkpt lat="48.55198" lon="2.06918">
        <ele>155.6</ele>
        <time>2026-02-02T10:29:27Z</time>
      </trkpt>
      <trkpt lat="48.55193" lon="2.06918">
        <ele>156.4</ele>
        <time>2026-02-02T10:29:28Z</time>
      </trkpt>
      <trkpt lat="48.55187" lon="2.06919">
        <ele>155.8</ele>
        <time>2026-02-02T10:29:29Z</time>
      </trkpt>
      <trkpt lat="48.55182" lon="2.0692">
        <ele>155.8</ele>
        <time>2026-02-02T10:29:30Z</time>
      </trkpt>
      <trkpt lat="48.55177" lon="2.0692">
        <ele>155.8</ele>
        <time>2026-02-02T10:29:31Z</time>
      </trkpt>
      <trkpt lat="48.55171" lon="2.06921">
        <ele>156.6</ele>
        <time>2026-02-02T10:29:32Z</time>
      </trkpt>
      <trkpt lat="48.55166" lon="2.06922">
        <ele>157</ele>
        <time>2026-02-02T10:29:33Z</time>
      </trkpt>
      <trkpt lat="48.55161" lon="2.06922">
        <ele>157</ele>
        <time>2026-02-02T10:29:34Z</time>
      </trkpt>
      <trkpt lat="48.55155" lon="2.06923">
        <ele>157</ele>
        <time>2026-02-02T10:29:35Z</time>
      </trkpt>
      <trkpt lat="48.5515" lon="2.06923">
        <ele>156.4</ele>
        <time>2026-02-02T10:29:36Z</time>
      </trkpt>
      <trkpt lat="48.55145" lon="2.06924">
        <ele>156.8</ele>
        <time>2026-02-02T10:29:37Z</time>
      </trkpt>
      <trkpt lat="48.55139" lon="2.06925">
        <ele>156.8</ele>
        <time>2026-02-02T10:29:38Z</time>
      </trkpt>
      <trkpt lat="48.55134" lon="2.06926">
        <ele>156.8</ele>
        <time>2026-02-02T10:29:39Z</time>
      </trkpt>
      <trkpt lat="48.55129" lon="2.06927">
        <ele>156.8</ele>
        <time>2026-02-02T10:29:40Z</time>
      </trkpt>
      <trkpt lat="48.55124" lon="2.06928">
        <ele>156.8</ele>
        <time>2026-02-02T10:29:41Z</time>
      </trkpt>
      <trkpt lat="48.55118" lon="2.06928">
        <ele>156.8</ele>
        <time>2026-02-02T10:29:42Z</time>
      </trkpt>
      <trkpt lat="48.55113" lon="2.06929">
        <ele>156.8</ele>
        <time>2026-02-02T10:29:43Z</time>
      </trkpt>
      <trkpt lat="48.55108" lon="2.0693">
        <ele>157</ele>
        <time>2026-02-02T10:29:44Z</time>
      </trkpt>
      <trkpt lat="48.55102" lon="2.0693">
        <ele>156.8</ele>
        <time>2026-02-02T10:29:45Z</time>
      </trkpt>
      <trkpt lat="48.55097" lon="2.06931">
        <ele>156.8</ele>
        <time>2026-02-02T10:29:46Z</time>
      </trkpt>
      <trkpt lat="48.55092" lon="2.06931">
        <ele>156.8</ele>
        <time>2026-02-02T10:29:47Z</time>
      </trkpt>
      <trkpt lat="48.55086" lon="2.06932">
        <ele>157.6</ele>
        <time>2026-02-02T10:29:48Z</time>
      </trkpt>
      <trkpt lat="48.55081" lon="2.06932">
        <ele>157.6</ele>
        <time>2026-02-02T10:29:49Z</time>
      </trkpt>
      <trkpt lat="48.55075" lon="2.06933">
        <ele>157.6</ele>
        <time>2026-02-02T10:29:50Z</time>
      </trkpt>
      <trkpt lat="48.5507" lon="2.06933">
        <ele>157.6</ele>
        <time>2026-02-02T10:29:51Z</time>
      </trkpt>
      <trkpt lat="48.55065" lon="2.06934">
        <ele>157.6</ele>
        <time>2026-02-02T10:29:52Z</time>
      </trkpt>
      <trkpt lat="48.55059" lon="2.06934">
        <ele>157.6</ele>
        <time>2026-02-02T10:29:53Z</time>
      </trkpt>
      <trkpt lat="48.55054" lon="2.06935">
        <ele>157.6</ele>
        <time>2026-02-02T10:29:54Z</time>
      </trkpt>
      <trkpt lat="48.55048" lon="2.06935">
        <ele>157.6</ele>
        <time>2026-02-02T10:29:55Z</time>
      </trkpt>
      <trkpt lat="48.55043" lon="2.06936">
        <ele>157.6</ele>
        <time>2026-02-02T10:29:56Z</time>
      </trkpt>
      <trkpt lat="48.55038" lon="2.06937">
        <ele>157.8</ele>
        <time>2026-02-02T10:29:57Z</time>
      </trkpt>
      <trkpt lat="48.55032" lon="2.06938">
        <ele>157.8</ele>
        <time>2026-02-02T10:29:58Z</time>
      </trkpt>
      <trkpt lat="48.55027" lon="2.06939">
        <ele>157.8</ele>
        <time>2026-02-02T10:29:59Z</time>
      </trkpt>
      <trkpt lat="48.55021" lon="2.06939">
        <ele>157.8</ele>
        <time>2026-02-02T10:30:00Z</time>
      </trkpt>
      <trkpt lat="48.55014" lon="2.0694">
        <ele>158.2</ele>
        <time>2026-02-02T10:30:01Z</time>
      </trkpt>
      <trkpt lat="48.55008" lon="2.06941">
        <ele>158.2</ele>
        <time>2026-02-02T10:30:02Z</time>
      </trkpt>
      <trkpt lat="48.55002" lon="2.06942">
        <ele>158.2</ele>
        <time>2026-02-02T10:30:03Z</time>
      </trkpt>
      <trkpt lat="48.54996" lon="2.06944">
        <ele>158.2</ele>
        <time>2026-02-02T10:30:04Z</time>
      </trkpt>
      <trkpt lat="48.5499" lon="2.06945">
        <ele>158.4</ele>
        <time>2026-02-02T10:30:05Z</time>
      </trkpt>
      <trkpt lat="48.54984" lon="2.06947">
        <ele>158.4</ele>
        <time>2026-02-02T10:30:06Z</time>
      </trkpt>
      <trkpt lat="48.54979" lon="2.06949">
        <ele>158.4</ele>
        <time>2026-02-02T10:30:07Z</time>
      </trkpt>
      <trkpt lat="48.54973" lon="2.06951">
        <ele>158.4</ele>
        <time>2026-02-02T10:30:08Z</time>
      </trkpt>
      <trkpt lat="48.54968" lon="2.06954">
        <ele>158.2</ele>
        <time>2026-02-02T10:30:09Z</time>
      </trkpt>
      <trkpt lat="48.54962" lon="2.06956">
        <ele>158.2</ele>
        <time>2026-02-02T10:30:10Z</time>
      </trkpt>
      <trkpt lat="48.54957" lon="2.06959">
        <ele>158.2</ele>
        <time>2026-02-02T10:30:11Z</time>
      </trkpt>
      <trkpt lat="48.54952" lon="2.06962">
        <ele>158.6</ele>
        <time>2026-02-02T10:30:12Z</time>
      </trkpt>
      <trkpt lat="48.54946" lon="2.06964">
        <ele>158.4</ele>
        <time>2026-02-02T10:30:13Z</time>
      </trkpt>
      <trkpt lat="48.54941" lon="2.06967">
        <ele>158.4</ele>
        <time>2026-02-02T10:30:14Z</time>
      </trkpt>
      <trkpt lat="48.54936" lon="2.06969">
        <ele>158.4</ele>
        <time>2026-02-02T10:30:15Z</time>
      </trkpt>
      <trkpt lat="48.54931" lon="2.06972">
        <ele>158.8</ele>
        <time>2026-02-02T10:30:16Z</time>
      </trkpt>
      <trkpt lat="48.54926" lon="2.06975">
        <ele>159</ele>
        <time>2026-02-02T10:30:17Z</time>
      </trkpt>
      <trkpt lat="48.5492" lon="2.06978">
        <ele>159</ele>
        <time>2026-02-02T10:30:18Z</time>
      </trkpt>
      <trkpt lat="48.54915" lon="2.06981">
        <ele>159</ele>
        <time>2026-02-02T10:30:19Z</time>
      </trkpt>
      <trkpt lat="48.5491" lon="2.06983">
        <ele>159</ele>
        <time>2026-02-02T10:30:20Z</time>
      </trkpt>
      <trkpt lat="48.54905" lon="2.06986">
        <ele>159.8</ele>
        <time>2026-02-02T10:30:21Z</time>
      </trkpt>
      <trkpt lat="48.549" lon="2.06988">
        <ele>159.8</ele>
        <time>2026-02-02T10:30:22Z</time>
      </trkpt>
      <trkpt lat="48.54895" lon="2.06991">
        <ele>159.8</ele>
        <time>2026-02-02T10:30:23Z</time>
      </trkpt>
      <trkpt lat="48.5489" lon="2.06994">
        <ele>159.2</ele>
        <time>2026-02-02T10:30:24Z</time>
      </trkpt>
      <trkpt lat="48.54885" lon="2.06996">
        <ele>159.2</ele>
        <time>2026-02-02T10:30:25Z</time>
      </trkpt>
      <trkpt lat="48.5488" lon="2.06999">
        <ele>159.2</ele>
        <time>2026-02-02T10:30:26Z</time>
      </trkpt>
      <trkpt lat="48.54875" lon="2.07002">
        <ele>159.2</ele>
        <time>2026-02-02T10:30:27Z</time>
      </trkpt>
      <trkpt lat="48.5487" lon="2.07005">
        <ele>159.8</ele>
        <time>2026-02-02T10:30:28Z</time>
      </trkpt>
      <trkpt lat="48.54866" lon="2.07007">
        <ele>159.4</ele>
        <time>2026-02-02T10:30:29Z</time>
      </trkpt>
      <trkpt lat="48.54861" lon="2.0701">
        <ele>159.4</ele>
        <time>2026-02-02T10:30:30Z</time>
      </trkpt>
      <trkpt lat="48.54856" lon="2.07012">
        <ele>159.4</ele>
        <time>2026-02-02T10:30:31Z</time>
      </trkpt>
      <trkpt lat="48.54852" lon="2.07015">
        <ele>159.6</ele>
        <time>2026-02-02T10:30:32Z</time>
      </trkpt>
      <trkpt lat="48.54847" lon="2.07017">
        <ele>160</ele>
        <time>2026-02-02T10:30:33Z</time>
      </trkpt>
      <trkpt lat="48.54842" lon="2.0702">
        <ele>160</ele>
        <time>2026-02-02T10:30:34Z</time>
      </trkpt>
      <trkpt lat="48.54838" lon="2.07022">
        <ele>160</ele>
        <time>2026-02-02T10:30:35Z</time>
      </trkpt>
      <trkpt lat="48.54833" lon="2.07025">
        <ele>160</ele>
        <time>2026-02-02T10:30:36Z</time>
      </trkpt>
      <trkpt lat="48.54828" lon="2.07028">
        <ele>160</ele>
        <time>2026-02-02T10:30:37Z</time>
      </trkpt>
      <trkpt lat="48.54824" lon="2.07031">
        <ele>160</ele>
        <time>2026-02-02T10:30:38Z</time>
      </trkpt>
      <trkpt lat="48.54819" lon="2.07033">
        <ele>160</ele>
        <time>2026-02-02T10:30:39Z</time>
      </trkpt>
      <trkpt lat="48.54815" lon="2.07035">
        <ele>160.8</ele>
        <time>2026-02-02T10:30:40Z</time>
      </trkpt>
      <trkpt lat="48.54813" lon="2.07036">
        <ele>160.6</ele>
        <time>2026-02-02T10:30:41Z</time>
      </trkpt>
      <trkpt lat="48.54812" lon="2.07036">
        <ele>160.6</ele>
        <time>2026-02-02T10:30:42Z</time>
      </trkpt>
      <trkpt lat="48.54811" lon="2.07036">
        <ele>160.6</ele>
        <time>2026-02-02T10:30:43Z</time>
      </trkpt>
      <trkpt lat="48.54811" lon="2.07036">
        <ele>161.2</ele>
        <time>2026-02-02T10:30:44Z</time>
      </trkpt>
      <trkpt lat="48.54806" lon="2.0704">
        <ele>160.8</ele>
        <time>2026-02-02T10:31:31Z</time>
      </trkpt>
      <trkpt lat="48.54803" lon="2.07041">
        <ele>160.8</ele>
        <time>2026-02-02T10:31:32Z</time>
      </trkpt>
      <trkpt lat="48.548" lon="2.07043">
        <ele>160.8</ele>
        <time>2026-02-02T10:31:33Z</time>
      </trkpt>
      <trkpt lat="48.54796" lon="2.07045">
        <ele>160.8</ele>
        <time>2026-02-02T10:31:34Z</time>
      </trkpt>
      <trkpt lat="48.54792" lon="2.07048">
        <ele>160.8</ele>
        <time>2026-02-02T10:31:35Z</time>
      </trkpt>
      <trkpt lat="48.54788" lon="2.0705">
        <ele>160.8</ele>
        <time>2026-02-02T10:31:36Z</time>
      </trkpt>
      <trkpt lat="48.54783" lon="2.07052">
        <ele>160.4</ele>
        <time>2026-02-02T10:31:37Z</time>
      </trkpt>
      <trkpt lat="48.54778" lon="2.07055">
        <ele>160.4</ele>
        <time>2026-02-02T10:31:38Z</time>
      </trkpt>
      <trkpt lat="48.54773" lon="2.07057">
        <ele>160.4</ele>
        <time>2026-02-02T10:31:39Z</time>
      </trkpt>
      <trkpt lat="48.54768" lon="2.0706">
        <ele>160.4</ele>
        <time>2026-02-02T10:31:40Z</time>
      </trkpt>
      <trkpt lat="48.54763" lon="2.07062">
        <ele>160</ele>
        <time>2026-02-02T10:31:41Z</time>
      </trkpt>
      <trkpt lat="48.54758" lon="2.07065">
        <ele>160</ele>
        <time>2026-02-02T10:31:42Z</time>
      </trkpt>
      <trkpt lat="48.54752" lon="2.07068">
        <ele>160</ele>
        <time>2026-02-02T10:31:43Z</time>
      </trkpt>
      <trkpt lat="48.54747" lon="2.07071">
        <ele>159.6</ele>
        <time>2026-02-02T10:31:44Z</time>
      </trkpt>
      <trkpt lat="48.54741" lon="2.07074">
        <ele>160</ele>
        <time>2026-02-02T10:31:45Z</time>
      </trkpt>
      <trkpt lat="48.54736" lon="2.07077">
        <ele>160</ele>
        <time>2026-02-02T10:31:46Z</time>
      </trkpt>
      <trkpt lat="48.5473" lon="2.0708">
        <ele>160</ele>
        <time>2026-02-02T10:31:47Z</time>
      </trkpt>
      <trkpt lat="48.54724" lon="2.07083">
        <ele>159.8</ele>
        <time>2026-02-02T10:31:48Z</time>
      </trkpt>
      <trkpt lat="48.54719" lon="2.07086">
        <ele>159.4</ele>
        <time>2026-02-02T10:31:49Z</time>
      </trkpt>
      <trkpt lat="48.54713" lon="2.07089">
        <ele>159.4</ele>
        <time>2026-02-02T10:31:50Z</time>
      </trkpt>
      <trkpt lat="48.54708" lon="2.07092">
        <ele>159.4</ele>
        <time>2026-02-02T10:31:51Z</time>
      </trkpt>
      <trkpt lat="48.54702" lon="2.07096">
        <ele>159.4</ele>
        <time>2026-02-02T10:31:52Z</time>
      </trkpt>
      <trkpt lat="48.54696" lon="2.07099">
        <ele>159.6</ele>
        <time>2026-02-02T10:31:53Z</time>
      </trkpt>
      <trkpt lat="48.54691" lon="2.07102">
        <ele>159.6</ele>
        <time>2026-02-02T10:31:54Z</time>
      </trkpt>
      <trkpt lat="48.54685" lon="2.07105">
        <ele>159.6</ele>
        <time>2026-02-02T10:31:55Z</time>
      </trkpt>
      <trkpt lat="48.5468" lon="2.07108">
        <ele>159.4</ele>
        <time>2026-02-02T10:31:56Z</time>
      </trkpt>
      <trkpt lat="48.54674" lon="2.07111">
        <ele>159.6</ele>
        <time>2026-02-02T10:31:57Z</time>
      </trkpt>
      <trkpt lat="48.54668" lon="2.07114">
        <ele>159.6</ele>
        <time>2026-02-02T10:31:58Z</time>
      </trkpt>
      <trkpt lat="48.54662" lon="2.07117">
        <ele>159.6</ele>
        <time>2026-02-02T10:31:59Z</time>
      </trkpt>
      <trkpt lat="48.54657" lon="2.0712">
        <ele>159.2</ele>
        <time>2026-02-02T10:32:00Z</time>
      </trkpt>
      <trkpt lat="48.54651" lon="2.07123">
        <ele>159</ele>
        <time>2026-02-02T10:32:01Z</time>
      </trkpt>
      <trkpt lat="48.54645" lon="2.07126">
        <ele>159</ele>
        <time>2026-02-02T10:32:02Z</time>
      </trkpt>
      <trkpt lat="48.54639" lon="2.0713">
        <ele>159</ele>
        <time>2026-02-02T10:32:03Z</time>
      </trkpt>
      <trkpt lat="48.54634" lon="2.07133">
        <ele>159</ele>
        <time>2026-02-02T10:32:04Z</time>
      </trkpt>
      <trkpt lat="48.54628" lon="2.07136">
        <ele>159</ele>
        <time>2026-02-02T10:32:05Z</time>
      </trkpt>
      <trkpt lat="48.54622" lon="2.07139">
        <ele>159</ele>
        <time>2026-02-02T10:32:06Z</time>
      </trkpt>
      <trkpt lat="48.54616" lon="2.07142">
        <ele>159</ele>
        <time>2026-02-02T10:32:07Z</time>
      </trkpt>
      <trkpt lat="48.5461" lon="2.07145">
        <ele>159</ele>
        <time>2026-02-02T10:32:08Z</time>
      </trkpt>
      <trkpt lat="48.54604" lon="2.07149">
        <ele>158.4</ele>
        <time>2026-02-02T10:32:09Z</time>
      </trkpt>
      <trkpt lat="48.54598" lon="2.07152">
        <ele>158.4</ele>
        <time>2026-02-02T10:32:10Z</time>
      </trkpt>
      <trkpt lat="48.54592" lon="2.07155">
        <ele>158.4</ele>
        <time>2026-02-02T10:32:11Z</time>
      </trkpt>
      <trkpt lat="48.54586" lon="2.07158">
        <ele>158.4</ele>
        <time>2026-02-02T10:32:12Z</time>
      </trkpt>
      <trkpt lat="48.5458" lon="2.07161">
        <ele>158.2</ele>
        <time>2026-02-02T10:32:13Z</time>
      </trkpt>
      <trkpt lat="48.54574" lon="2.07164">
        <ele>158.2</ele>
        <time>2026-02-02T10:32:14Z</time>
      </trkpt>
      <trkpt lat="48.54569" lon="2.07167">
        <ele>158.2</ele>
        <time>2026-02-02T10:32:15Z</time>
      </trkpt>
      <trkpt lat="48.54563" lon="2.07171">
        <ele>158.2</ele>
        <time>2026-02-02T10:32:16Z</time>
      </trkpt>
      <trkpt lat="48.54557" lon="2.07174">
        <ele>158</ele>
        <time>2026-02-02T10:32:17Z</time>
      </trkpt>
      <trkpt lat="48.54551" lon="2.07177">
        <ele>158</ele>
        <time>2026-02-02T10:32:18Z</time>
      </trkpt>
      <trkpt lat="48.54544" lon="2.07181">
        <ele>158</ele>
        <time>2026-02-02T10:32:19Z</time>
      </trkpt>
      <trkpt lat="48.54538" lon="2.07184">
        <ele>157.6</ele>
        <time>2026-02-02T10:32:20Z</time>
      </trkpt>
      <trkpt lat="48.54532" lon="2.07187">
        <ele>157.6</ele>
        <time>2026-02-02T10:32:21Z</time>
      </trkpt>
      <trkpt lat="48.54526" lon="2.0719">
        <ele>157.6</ele>
        <time>2026-02-02T10:32:22Z</time>
      </trkpt>
      <trkpt lat="48.5452" lon="2.07194">
        <ele>157.6</ele>
        <time>2026-02-02T10:32:23Z</time>
      </trkpt>
      <trkpt lat="48.54513" lon="2.07197">
        <ele>156.6</ele>
        <time>2026-02-02T10:32:24Z</time>
      </trkpt>
      <trkpt lat="48.54507" lon="2.072">
        <ele>157.2</ele>
        <time>2026-02-02T10:32:25Z</time>
      </trkpt>
      <trkpt lat="48.54501" lon="2.07204">
        <ele>157.2</ele>
        <time>2026-02-02T10:32:26Z</time>
      </trkpt>
      <trkpt lat="48.54495" lon="2.07207">
        <ele>157.2</ele>
        <time>2026-02-02T10:32:27Z</time>
      </trkpt>
      <trkpt lat="48.54489" lon="2.07211">
        <ele>157.2</ele>
        <time>2026-02-02T10:32:28Z</time>
      </trkpt>
      <trkpt lat="48.54482" lon="2.07214">
        <ele>157</ele>
        <time>2026-02-02T10:32:29Z</time>
      </trkpt>
      <trkpt lat="48.54476" lon="2.07217">
        <ele>157</ele>
        <time>2026-02-02T10:32:30Z</time>
      </trkpt>
      <trkpt lat="48.5447" lon="2.07221">
        <ele>157</ele>
        <time>2026-02-02T10:32:31Z</time>
      </trkpt>
      <trkpt lat="48.54464" lon="2.07224">
        <ele>157</ele>
        <time>2026-02-02T10:32:32Z</time>
      </trkpt>
      <trkpt lat="48.54457" lon="2.07227">
        <ele>157</ele>
        <time>2026-02-02T10:32:33Z</time>
      </trkpt>
      <trkpt lat="48.54451" lon="2.07231">
        <ele>157</ele>
        <time>2026-02-02T10:32:34Z</time>
      </trkpt>
      <trkpt lat="48.54445" lon="2.07234">
        <ele>157</ele>
        <time>2026-02-02T10:32:35Z</time>
      </trkpt>
      <trkpt lat="48.54439" lon="2.07238">
        <ele>156.4</ele>
        <time>2026-02-02T10:32:36Z</time>
      </trkpt>
      <trkpt lat="48.54432" lon="2.07241">
        <ele>156.6</ele>
        <time>2026-02-02T10:32:37Z</time>
      </trkpt>
      <trkpt lat="48.54426" lon="2.07244">
        <ele>156.6</ele>
        <time>2026-02-02T10:32:38Z</time>
      </trkpt>
      <trkpt lat="48.5442" lon="2.07248">
        <ele>156.6</ele>
        <time>2026-02-02T10:32:39Z</time>
      </trkpt>
      <trkpt lat="48.54414" lon="2.07252">
        <ele>156.4</ele>
        <time>2026-02-02T10:32:40Z</time>
      </trkpt>
      <trkpt lat="48.54407" lon="2.07256">
        <ele>156</ele>
        <time>2026-02-02T10:32:41Z</time>
      </trkpt>
      <trkpt lat="48.54401" lon="2.0726">
        <ele>156</ele>
        <time>2026-02-02T10:32:42Z</time>
      </trkpt>
      <trkpt lat="48.54395" lon="2.07265">
        <ele>156</ele>
        <time>2026-02-02T10:32:43Z</time>
      </trkpt>
      <trkpt lat="48.54389" lon="2.0727">
        <ele>156</ele>
        <time>2026-02-02T10:32:44Z</time>
      </trkpt>
      <trkpt lat="48.54383" lon="2.07274">
        <ele>155.2</ele>
        <time>2026-02-02T10:32:45Z</time>
      </trkpt>
      <trkpt lat="48.54376" lon="2.07279">
        <ele>155.2</ele>
        <time>2026-02-02T10:32:46Z</time>
      </trkpt>
      <trkpt lat="48.5437" lon="2.07283">
        <ele>155.2</ele>
        <time>2026-02-02T10:32:47Z</time>
      </trkpt>
      <trkpt lat="48.54364" lon="2.07288">
        <ele>154.6</ele>
        <time>2026-02-02T10:32:48Z</time>
      </trkpt>
      <trkpt lat="48.54357" lon="2.07292">
        <ele>154.2</ele>
        <time>2026-02-02T10:32:49Z</time>
      </trkpt>
      <trkpt lat="48.54351" lon="2.07297">
        <ele>154.2</ele>
        <time>2026-02-02T10:32:50Z</time>
      </trkpt>
      <trkpt lat="48.54344" lon="2.07302">
        <ele>154.2</ele>
        <time>2026-02-02T10:32:51Z</time>
      </trkpt>
      <trkpt lat="48.54337" lon="2.07306">
        <ele>154.2</ele>
        <time>2026-02-02T10:32:52Z</time>
      </trkpt>
      <trkpt lat="48.5433" lon="2.0731">
        <ele>153</ele>
        <time>2026-02-02T10:32:53Z</time>
      </trkpt>
      <trkpt lat="48.54323" lon="2.07315">
        <ele>153</ele>
        <time>2026-02-02T10:32:54Z</time>
      </trkpt>
      <trkpt lat="48.54316" lon="2.07319">
        <ele>153</ele>
        <time>2026-02-02T10:32:55Z</time>
      </trkpt>
      <trkpt lat="48.54308" lon="2.07323">
        <ele>153</ele>
        <time>2026-02-02T10:32:56Z</time>
      </trkpt>
      <trkpt lat="48.54301" lon="2.07328">
        <ele>151.2</ele>
        <time>2026-02-02T10:32:57Z</time>
      </trkpt>
      <trkpt lat="48.54293" lon="2.07332">
        <ele>151.2</ele>
        <time>2026-02-02T10:32:58Z</time>
      </trkpt>
      <trkpt lat="48.54286" lon="2.07337">
        <ele>151.2</ele>
        <time>2026-02-02T10:32:59Z</time>
      </trkpt>
      <trkpt lat="48.54278" lon="2.07342">
        <ele>151.2</ele>
        <time>2026-02-02T10:33:00Z</time>
      </trkpt>
      <trkpt lat="48.5427" lon="2.07347">
        <ele>149.8</ele>
        <time>2026-02-02T10:33:01Z</time>
      </trkpt>
      <trkpt lat="48.54263" lon="2.07352">
        <ele>149.8</ele>
        <time>2026-02-02T10:33:02Z</time>
      </trkpt>
      <trkpt lat="48.54255" lon="2.07357">
        <ele>149.8</ele>
        <time>2026-02-02T10:33:03Z</time>
      </trkpt>
      <trkpt lat="48.54247" lon="2.07363">
        <ele>148.8</ele>
        <time>2026-02-02T10:33:04Z</time>
      </trkpt>
      <trkpt lat="48.54239" lon="2.07368">
        <ele>146.8</ele>
        <time>2026-02-02T10:33:05Z</time>
      </trkpt>
      <trkpt lat="48.54231" lon="2.07373">
        <ele>146.8</ele>
        <time>2026-02-02T10:33:06Z</time>
      </trkpt>
      <trkpt lat="48.54223" lon="2.07378">
        <ele>146.8</ele>
        <time>2026-02-02T10:33:07Z</time>
      </trkpt>
      <trkpt lat="48.54215" lon="2.07383">
        <ele>146.8</ele>
        <time>2026-02-02T10:33:08Z</time>
      </trkpt>
      <trkpt lat="48.54207" lon="2.07389">
        <ele>145.2</ele>
        <time>2026-02-02T10:33:09Z</time>
      </trkpt>
      <trkpt lat="48.54199" lon="2.07395">
        <ele>145.2</ele>
        <time>2026-02-02T10:33:10Z</time>
      </trkpt>
      <trkpt lat="48.54192" lon="2.07402">
        <ele>145.2</ele>
        <time>2026-02-02T10:33:11Z</time>
      </trkpt>
      <trkpt lat="48.54185" lon="2.07409">
        <ele>144.2</ele>
        <time>2026-02-02T10:33:12Z</time>
      </trkpt>
      <trkpt lat="48.54178" lon="2.07417">
        <ele>143.4</ele>
        <time>2026-02-02T10:33:13Z</time>
      </trkpt>
      <trkpt lat="48.54172" lon="2.07425">
        <ele>143.4</ele>
        <time>2026-02-02T10:33:14Z</time>
      </trkpt>
      <trkpt lat="48.54168" lon="2.07434">
        <ele>143.4</ele>
        <time>2026-02-02T10:33:15Z</time>
      </trkpt>
      <trkpt lat="48.54164" lon="2.07444">
        <ele>142.4</ele>
        <time>2026-02-02T10:33:16Z</time>
      </trkpt>
      <trkpt lat="48.5416" lon="2.07453">
        <ele>141.4</ele>
        <time>2026-02-02T10:33:17Z</time>
      </trkpt>
      <trkpt lat="48.54157" lon="2.07463">
        <ele>141.4</ele>
        <time>2026-02-02T10:33:18Z</time>
      </trkpt>
      <trkpt lat="48.54154" lon="2.07474">
        <ele>141.4</ele>
        <time>2026-02-02T10:33:19Z</time>
      </trkpt>
      <trkpt lat="48.54153" lon="2.07486">
        <ele>141.4</ele>
        <time>2026-02-02T10:33:20Z</time>
      </trkpt>
      <trkpt lat="48.54151" lon="2.07498">
        <ele>139.8</ele>
        <time>2026-02-02T10:33:21Z</time>
      </trkpt>
      <trkpt lat="48.54151" lon="2.0751">
        <ele>139.8</ele>
        <time>2026-02-02T10:33:22Z</time>
      </trkpt>
      <trkpt lat="48.54149" lon="2.07521">
        <ele>139.8</ele>
        <time>2026-02-02T10:33:23Z</time>
      </trkpt>
      <trkpt lat="48.54149" lon="2.07531">
        <ele>138.8</ele>
        <time>2026-02-02T10:33:24Z</time>
      </trkpt>
      <trkpt lat="48.54148" lon="2.0754">
        <ele>138.4</ele>
        <time>2026-02-02T10:33:25Z</time>
      </trkpt>
      <trkpt lat="48.54146" lon="2.07549">
        <ele>138.4</ele>
        <time>2026-02-02T10:33:26Z</time>
      </trkpt>
      <trkpt lat="48.54144" lon="2.07557">
        <ele>138.4</ele>
        <time>2026-02-02T10:33:27Z</time>
      </trkpt>
      <trkpt lat="48.5414" lon="2.07565">
        <ele>137.4</ele>
        <time>2026-02-02T10:33:28Z</time>
      </trkpt>
      <trkpt lat="48.54136" lon="2.07573">
        <ele>136.2</ele>
        <time>2026-02-02T10:33:29Z</time>
      </trkpt>
      <trkpt lat="48.54131" lon="2.07578">
        <ele>136.2</ele>
        <time>2026-02-02T10:33:30Z</time>
      </trkpt>
      <trkpt lat="48.54125" lon="2.07581">
        <ele>136.2</ele>
        <time>2026-02-02T10:33:31Z</time>
      </trkpt>
      <trkpt lat="48.54119" lon="2.07582">
        <ele>135.2</ele>
        <time>2026-02-02T10:33:32Z</time>
      </trkpt>
      <trkpt lat="48.54113" lon="2.07583">
        <ele>134.4</ele>
        <time>2026-02-02T10:33:33Z</time>
      </trkpt>
      <trkpt lat="48.54106" lon="2.07586">
        <ele>134.4</ele>
        <time>2026-02-02T10:33:34Z</time>
      </trkpt>
      <trkpt lat="48.54099" lon="2.0759">
        <ele>134.4</ele>
        <time>2026-02-02T10:33:35Z</time>
      </trkpt>
      <trkpt lat="48.54093" lon="2.07595">
        <ele>133.4</ele>
        <time>2026-02-02T10:33:36Z</time>
      </trkpt>
      <trkpt lat="48.54087" lon="2.07601">
        <ele>131.8</ele>
        <time>2026-02-02T10:33:37Z</time>
      </trkpt>
      <trkpt lat="48.54081" lon="2.07608">
        <ele>131.8</ele>
        <time>2026-02-02T10:33:38Z</time>
      </trkpt>
      <trkpt lat="48.54076" lon="2.07615">
        <ele>131.8</ele>
        <time>2026-02-02T10:33:39Z</time>
      </trkpt>
      <trkpt lat="48.54071" lon="2.07622">
        <ele>131</ele>
        <time>2026-02-02T10:33:40Z</time>
      </trkpt>
      <trkpt lat="48.54066" lon="2.07629">
        <ele>130.8</ele>
        <time>2026-02-02T10:33:41Z</time>
      </trkpt>
      <trkpt lat="48.54063" lon="2.07636">
        <ele>130.8</ele>
        <time>2026-02-02T10:33:42Z</time>
      </trkpt>
      <trkpt lat="48.54059" lon="2.07644">
        <ele>130.8</ele>
        <time>2026-02-02T10:33:43Z</time>
      </trkpt>
      <trkpt lat="48.54057" lon="2.07654">
        <ele>129.8</ele>
        <time>2026-02-02T10:33:44Z</time>
      </trkpt>
      <trkpt lat="48.54056" lon="2.07663">
        <ele>128.8</ele>
        <time>2026-02-02T10:33:45Z</time>
      </trkpt>
      <trkpt lat="48.54056" lon="2.07673">
        <ele>128.8</ele>
        <time>2026-02-02T10:33:46Z</time>
      </trkpt>
      <trkpt lat="48.54057" lon="2.07684">
        <ele>128.8</ele>
        <time>2026-02-02T10:33:47Z</time>
      </trkpt>
      <trkpt lat="48.5406" lon="2.07692">
        <ele>128</ele>
        <time>2026-02-02T10:33:48Z</time>
      </trkpt>
      <trkpt lat="48.54064" lon="2.077">
        <ele>127.6</ele>
        <time>2026-02-02T10:33:49Z</time>
      </trkpt>
      <trkpt lat="48.54067" lon="2.07707">
        <ele>127.6</ele>
        <time>2026-02-02T10:33:50Z</time>
      </trkpt>
      <trkpt lat="48.54069" lon="2.07714">
        <ele>127.6</ele>
        <time>2026-02-02T10:33:51Z</time>
      </trkpt>
      <trkpt lat="48.54071" lon="2.07721">
        <ele>127.6</ele>
        <time>2026-02-02T10:33:52Z</time>
      </trkpt>
      <trkpt lat="48.54071" lon="2.07728">
        <ele>127.6</ele>
        <time>2026-02-02T10:33:53Z</time>
      </trkpt>
      <trkpt lat="48.54068" lon="2.07734">
        <ele>127.6</ele>
        <time>2026-02-02T10:33:54Z</time>
      </trkpt>
      <trkpt lat="48.54065" lon="2.07738">
        <ele>127.6</ele>
        <time>2026-02-02T10:33:55Z</time>
      </trkpt>
      <trkpt lat="48.54061" lon="2.07739">
        <ele>126.8</ele>
        <time>2026-02-02T10:33:56Z</time>
      </trkpt>
      <trkpt lat="48.54056" lon="2.07738">
        <ele>126.4</ele>
        <time>2026-02-02T10:33:57Z</time>
      </trkpt>
      <trkpt lat="48.54052" lon="2.07737">
        <ele>126.4</ele>
        <time>2026-02-02T10:33:58Z</time>
      </trkpt>
      <trkpt lat="48.5405" lon="2.07733">
        <ele>126.4</ele>
        <time>2026-02-02T10:33:59Z</time>
      </trkpt>
      <trkpt lat="48.54047" lon="2.07728">
        <ele>125.8</ele>
        <time>2026-02-02T10:34:00Z</time>
      </trkpt>
      <trkpt lat="48.54044" lon="2.07722">
        <ele>125.4</ele>
        <time>2026-02-02T10:34:01Z</time>
      </trkpt>
      <trkpt lat="48.5404" lon="2.07718">
        <ele>125.4</ele>
        <time>2026-02-02T10:34:02Z</time>
      </trkpt>
      <trkpt lat="48.54037" lon="2.07712">
        <ele>125.4</ele>
        <time>2026-02-02T10:34:03Z</time>
      </trkpt>
      <trkpt lat="48.54034" lon="2.07706">
        <ele>124.8</ele>
        <time>2026-02-02T10:34:04Z</time>
      </trkpt>
      <trkpt lat="48.54031" lon="2.077">
        <ele>124.6</ele>
        <time>2026-02-02T10:34:05Z</time>
      </trkpt>
      <trkpt lat="48.5403" lon="2.07694">
        <ele>124.6</ele>
        <time>2026-02-02T10:34:06Z</time>
      </trkpt>
      <trkpt lat="48.5403" lon="2.07688">
        <ele>124.6</ele>
        <time>2026-02-02T10:34:07Z</time>
      </trkpt>
      <trkpt lat="48.54031" lon="2.07683">
        <ele>123.6</ele>
        <time>2026-02-02T10:34:08Z</time>
      </trkpt>
      <trkpt lat="48.54033" lon="2.07677">
        <ele>122.8</ele>
        <time>2026-02-02T10:34:09Z</time>
      </trkpt>
      <trkpt lat="48.54035" lon="2.07671">
        <ele>122.8</ele>
        <time>2026-02-02T10:34:10Z</time>
      </trkpt>
      <trkpt lat="48.54039" lon="2.07664">
        <ele>122.8</ele>
        <time>2026-02-02T10:34:11Z</time>
      </trkpt>
      <trkpt lat="48.54042" lon="2.07658">
        <ele>121.8</ele>
        <time>2026-02-02T10:34:12Z</time>
      </trkpt>
      <trkpt lat="48.54045" lon="2.0765">
        <ele>120.6</ele>
        <time>2026-02-02T10:34:13Z</time>
      </trkpt>
      <trkpt lat="48.54049" lon="2.07641">
        <ele>120.6</ele>
        <time>2026-02-02T10:34:14Z</time>
      </trkpt>
      <trkpt lat="48.54051" lon="2.07633">
        <ele>120.6</ele>
        <time>2026-02-02T10:34:15Z</time>
      </trkpt>
      <trkpt lat="48.54053" lon="2.07623">
        <ele>119.6</ele>
        <time>2026-02-02T10:34:16Z</time>
      </trkpt>
      <trkpt lat="48.54056" lon="2.07614">
        <ele>118.6</ele>
        <time>2026-02-02T10:34:17Z</time>
      </trkpt>
      <trkpt lat="48.54062" lon="2.07607">
        <ele>118.6</ele>
        <time>2026-02-02T10:34:18Z</time>
      </trkpt>
      <trkpt lat="48.54067" lon="2.07599">
        <ele>118.6</ele>
        <time>2026-02-02T10:34:19Z</time>
      </trkpt>
      <trkpt lat="48.54071" lon="2.07594">
        <ele>117.6</ele>
        <time>2026-02-02T10:34:20Z</time>
      </trkpt>
      <trkpt lat="48.54075" lon="2.07589">
        <ele>117.2</ele>
        <time>2026-02-02T10:34:21Z</time>
      </trkpt>
      <trkpt lat="48.54078" lon="2.07584">
        <ele>117.2</ele>
        <time>2026-02-02T10:34:22Z</time>
      </trkpt>
      <trkpt lat="48.5408" lon="2.07575">
        <ele>117.2</ele>
        <time>2026-02-02T10:34:23Z</time>
      </trkpt>
      <trkpt lat="48.54081" lon="2.07566">
        <ele>116.2</ele>
        <time>2026-02-02T10:34:24Z</time>
      </trkpt>
      <trkpt lat="48.5408" lon="2.07556">
        <ele>115.6</ele>
        <time>2026-02-02T10:34:25Z</time>
      </trkpt>
      <trkpt lat="48.54079" lon="2.07549">
        <ele>115.6</ele>
        <time>2026-02-02T10:34:26Z</time>
      </trkpt>
      <trkpt lat="48.54077" lon="2.07542">
        <ele>115.6</ele>
        <time>2026-02-02T10:34:27Z</time>
      </trkpt>
      <trkpt lat="48.54074" lon="2.07538">
        <ele>114.6</ele>
        <time>2026-02-02T10:34:28Z</time>
      </trkpt>
      <trkpt lat="48.54071" lon="2.07534">
        <ele>114.2</ele>
        <time>2026-02-02T10:34:29Z</time>
      </trkpt>
      <trkpt lat="48.54066" lon="2.0753">
        <ele>114.2</ele>
        <time>2026-02-02T10:34:30Z</time>
      </trkpt>
      <trkpt lat="48.54061" lon="2.07527">
        <ele>114.2</ele>
        <time>2026-02-02T10:34:31Z</time>
      </trkpt>
      <trkpt lat="48.54057" lon="2.07524">
        <ele>113.2</ele>
        <time>2026-02-02T10:34:32Z</time>
      </trkpt>
      <trkpt lat="48.54052" lon="2.07522">
        <ele>111.8</ele>
        <time>2026-02-02T10:34:33Z</time>
      </trkpt>
      <trkpt lat="48.54047" lon="2.07522">
        <ele>111.8</ele>
        <time>2026-02-02T10:34:34Z</time>
      </trkpt>
      <trkpt lat="48.54043" lon="2.07524">
        <ele>111.8</ele>
        <time>2026-02-02T10:34:35Z</time>
      </trkpt>
      <trkpt lat="48.54039" lon="2.07526">
        <ele>110.8</ele>
        <time>2026-02-02T10:34:36Z</time>
      </trkpt>
      <trkpt lat="48.54036" lon="2.07529">
        <ele>110.4</ele>
        <time>2026-02-02T10:34:37Z</time>
      </trkpt>
      <trkpt lat="48.54033" lon="2.07532">
        <ele>110.4</ele>
        <time>2026-02-02T10:34:38Z</time>
      </trkpt>
      <trkpt lat="48.54029" lon="2.07539">
        <ele>110.4</ele>
        <time>2026-02-02T10:34:39Z</time>
      </trkpt>
      <trkpt lat="48.54028" lon="2.07544">
        <ele>109.6</ele>
        <time>2026-02-02T10:34:40Z</time>
      </trkpt>
      <trkpt lat="48.54028" lon="2.0755">
        <ele>108.8</ele>
        <time>2026-02-02T10:34:41Z</time>
      </trkpt>
      <trkpt lat="48.54026" lon="2.07559">
        <ele>108.8</ele>
        <time>2026-02-02T10:34:42Z</time>
      </trkpt>
      <trkpt lat="48.54024" lon="2.07567">
        <ele>108.8</ele>
        <time>2026-02-02T10:34:43Z</time>
      </trkpt>
      <trkpt lat="48.54024" lon="2.07575">
        <ele>107.8</ele>
        <time>2026-02-02T10:34:44Z</time>
      </trkpt>
      <trkpt lat="48.54024" lon="2.07584">
        <ele>106.8</ele>
        <time>2026-02-02T10:34:45Z</time>
      </trkpt>
      <trkpt lat="48.54022" lon="2.07591">
        <ele>106.8</ele>
        <time>2026-02-02T10:34:46Z</time>
      </trkpt>
      <trkpt lat="48.54019" lon="2.07597">
        <ele>106.8</ele>
        <time>2026-02-02T10:34:47Z</time>
      </trkpt>
      <trkpt lat="48.54016" lon="2.07602">
        <ele>105.8</ele>
        <time>2026-02-02T10:34:48Z</time>
      </trkpt>
      <trkpt lat="48.54012" lon="2.07606">
        <ele>105</ele>
        <time>2026-02-02T10:34:49Z</time>
      </trkpt>
      <trkpt lat="48.54008" lon="2.07613">
        <ele>105</ele>
        <time>2026-02-02T10:34:50Z</time>
      </trkpt>
      <trkpt lat="48.54003" lon="2.07618">
        <ele>105</ele>
        <time>2026-02-02T10:34:51Z</time>
      </trkpt>
      <trkpt lat="48.53999" lon="2.07622">
        <ele>104</ele>
        <time>2026-02-02T10:34:52Z</time>
      </trkpt>
      <trkpt lat="48.53994" lon="2.07625">
        <ele>103.2</ele>
        <time>2026-02-02T10:34:53Z</time>
      </trkpt>
      <trkpt lat="48.53988" lon="2.07629">
        <ele>103.2</ele>
        <time>2026-02-02T10:34:54Z</time>
      </trkpt>
      <trkpt lat="48.53981" lon="2.07631">
        <ele>103.2</ele>
        <time>2026-02-02T10:34:55Z</time>
      </trkpt>
      <trkpt lat="48.53974" lon="2.07631">
        <ele>102.2</ele>
        <time>2026-02-02T10:34:56Z</time>
      </trkpt>
      <trkpt lat="48.53968" lon="2.0763">
        <ele>100.8</ele>
        <time>2026-02-02T10:34:57Z</time>
      </trkpt>
      <trkpt lat="48.53961" lon="2.07625">
        <ele>100.8</ele>
        <time>2026-02-02T10:34:58Z</time>
      </trkpt>
      <trkpt lat="48.53955" lon="2.07618">
        <ele>100.8</ele>
        <time>2026-02-02T10:34:59Z</time>
      </trkpt>
      <trkpt lat="48.5395" lon="2.07611">
        <ele>99.8</ele>
        <time>2026-02-02T10:35:00Z</time>
      </trkpt>
      <trkpt lat="48.53946" lon="2.07602">
        <ele>99.6</ele>
        <time>2026-02-02T10:35:01Z</time>
      </trkpt>
      <trkpt lat="48.53942" lon="2.07593">
        <ele>99.6</ele>
        <time>2026-02-02T10:35:02Z</time>
      </trkpt>
      <trkpt lat="48.53939" lon="2.07584">
        <ele>99.6</ele>
        <time>2026-02-02T10:35:03Z</time>
      </trkpt>
      <trkpt lat="48.53936" lon="2.07576">
        <ele>99.6</ele>
        <time>2026-02-02T10:35:04Z</time>
      </trkpt>
      <trkpt lat="48.53932" lon="2.0757">
        <ele>99.2</ele>
        <time>2026-02-02T10:35:05Z</time>
      </trkpt>
      <trkpt lat="48.53928" lon="2.07566">
        <ele>99.2</ele>
        <time>2026-02-02T10:35:06Z</time>
      </trkpt>
      <trkpt lat="48.53923" lon="2.07564">
        <ele>99.2</ele>
        <time>2026-02-02T10:35:07Z</time>
      </trkpt>
      <trkpt lat="48.53918" lon="2.07566">
        <ele>99.2</ele>
        <time>2026-02-02T10:35:08Z</time>
      </trkpt>
      <trkpt lat="48.53913" lon="2.07569">
        <ele>99</ele>
        <time>2026-02-02T10:35:09Z</time>
      </trkpt>
      <trkpt lat="48.53907" lon="2.07573">
        <ele>99</ele>
        <time>2026-02-02T10:35:10Z</time>
      </trkpt>
      <trkpt lat="48.53902" lon="2.07576">
        <ele>99</ele>
        <time>2026-02-02T10:35:11Z</time>
      </trkpt>
      <trkpt lat="48.53896" lon="2.07581">
        <ele>98.2</ele>
        <time>2026-02-02T10:35:12Z</time>
      </trkpt>
      <trkpt lat="48.53891" lon="2.07587">
        <ele>97.8</ele>
        <time>2026-02-02T10:35:13Z</time>
      </trkpt>
      <trkpt lat="48.53888" lon="2.07595">
        <ele>97.8</ele>
        <time>2026-02-02T10:35:14Z</time>
      </trkpt>
      <trkpt lat="48.53887" lon="2.07604">
        <ele>97.8</ele>
        <time>2026-02-02T10:35:15Z</time>
      </trkpt>
      <trkpt lat="48.53888" lon="2.07613">
        <ele>96.8</ele>
        <time>2026-02-02T10:35:16Z</time>
      </trkpt>
      <trkpt lat="48.53891" lon="2.07622">
        <ele>96</ele>
        <time>2026-02-02T10:35:17Z</time>
      </trkpt>
      <trkpt lat="48.53894" lon="2.07632">
        <ele>96</ele>
        <time>2026-02-02T10:35:18Z</time>
      </trkpt>
      <trkpt lat="48.53897" lon="2.07641">
        <ele>96</ele>
        <time>2026-02-02T10:35:19Z</time>
      </trkpt>
      <trkpt lat="48.53901" lon="2.07651">
        <ele>95</ele>
        <time>2026-02-02T10:35:20Z</time>
      </trkpt>
      <trkpt lat="48.53905" lon="2.07661">
        <ele>92.4</ele>
        <time>2026-02-02T10:35:21Z</time>
      </trkpt>
      <trkpt lat="48.5391" lon="2.07669">
        <ele>92.4</ele>
        <time>2026-02-02T10:35:22Z</time>
      </trkpt>
      <trkpt lat="48.53914" lon="2.07678">
        <ele>92.4</ele>
        <time>2026-02-02T10:35:23Z</time>
      </trkpt>
      <trkpt lat="48.53917" lon="2.07686">
        <ele>91.4</ele>
        <time>2026-02-02T10:35:24Z</time>
      </trkpt>
      <trkpt lat="48.53919" lon="2.07694">
        <ele>90.4</ele>
        <time>2026-02-02T10:35:25Z</time>
      </trkpt>
      <trkpt lat="48.5392" lon="2.07702">
        <ele>90.4</ele>
        <time>2026-02-02T10:35:26Z</time>
      </trkpt>
      <trkpt lat="48.5392" lon="2.07711">
        <ele>90.4</ele>
        <time>2026-02-02T10:35:27Z</time>
      </trkpt>
      <trkpt lat="48.53918" lon="2.07719">
        <ele>90.4</ele>
        <time>2026-02-02T10:35:28Z</time>
      </trkpt>
      <trkpt lat="48.53916" lon="2.07729">
        <ele>87.6</ele>
        <time>2026-02-02T10:35:29Z</time>
      </trkpt>
      <trkpt lat="48.53913" lon="2.07738">
        <ele>87.6</ele>
        <time>2026-02-02T10:35:30Z</time>
      </trkpt>
      <trkpt lat="48.53911" lon="2.07749">
        <ele>87.6</ele>
        <time>2026-02-02T10:35:31Z</time>
      </trkpt>
      <trkpt lat="48.53909" lon="2.07761">
        <ele>86.6</ele>
        <time>2026-02-02T10:35:32Z</time>
      </trkpt>
      <trkpt lat="48.53907" lon="2.07772">
        <ele>85.2</ele>
        <time>2026-02-02T10:35:33Z</time>
      </trkpt>
      <trkpt lat="48.53906" lon="2.07783">
        <ele>85.2</ele>
        <time>2026-02-02T10:35:34Z</time>
      </trkpt>
      <trkpt lat="48.53905" lon="2.07794">
        <ele>85.2</ele>
        <time>2026-02-02T10:35:35Z</time>
      </trkpt>
      <trkpt lat="48.53905" lon="2.07805">
        <ele>84.2</ele>
        <time>2026-02-02T10:35:36Z</time>
      </trkpt>
      <trkpt lat="48.53905" lon="2.07815">
        <ele>83.2</ele>
        <time>2026-02-02T10:35:37Z</time>
      </trkpt>
      <trkpt lat="48.53904" lon="2.07824">
        <ele>83.2</ele>
        <time>2026-02-02T10:35:38Z</time>
      </trkpt>
      <trkpt lat="48.53904" lon="2.07832">
        <ele>83.2</ele>
        <time>2026-02-02T10:35:39Z</time>
      </trkpt>
      <trkpt lat="48.53904" lon="2.07838">
        <ele>82.4</ele>
        <time>2026-02-02T10:35:40Z</time>
      </trkpt>
      <trkpt lat="48.53904" lon="2.07842">
        <ele>82</ele>
        <time>2026-02-02T10:35:41Z</time>
      </trkpt>
      <trkpt lat="48.53903" lon="2.07845">
        <ele>82</ele>
        <time>2026-02-02T10:35:42Z</time>
      </trkpt>
      <trkpt lat="48.53902" lon="2.07847">
        <ele>82</ele>
        <time>2026-02-02T10:35:43Z</time>
      </trkpt>
      <trkpt lat="48.53902" lon="2.07849">
        <ele>81.4</ele>
        <time>2026-02-02T10:35:44Z</time>
      </trkpt>
      <trkpt lat="48.53901" lon="2.07853">
        <ele>81.6</ele>
        <time>2026-02-02T10:35:45Z</time>
      </trkpt>
      <trkpt lat="48.539" lon="2.07858">
        <ele>81.6</ele>
        <time>2026-02-02T10:35:46Z</time>
      </trkpt>
      <trkpt lat="48.539" lon="2.07863">
        <ele>81.6</ele>
        <time>2026-02-02T10:35:47Z</time>
      </trkpt>
      <trkpt lat="48.539" lon="2.07868">
        <ele>81</ele>
        <time>2026-02-02T10:35:48Z</time>
      </trkpt>
      <trkpt lat="48.53902" lon="2.07874">
        <ele>81</ele>
        <time>2026-02-02T10:35:49Z</time>
      </trkpt>
      <trkpt lat="48.53904" lon="2.0788">
        <ele>81</ele>
        <time>2026-02-02T10:35:50Z</time>
      </trkpt>
      <trkpt lat="48.53906" lon="2.07886">
        <ele>81</ele>
        <time>2026-02-02T10:35:51Z</time>
      </trkpt>
      <trkpt lat="48.53908" lon="2.07893">
        <ele>81</ele>
        <time>2026-02-02T10:35:52Z</time>
      </trkpt>
      <trkpt lat="48.5391" lon="2.07899">
        <ele>81</ele>
        <time>2026-02-02T10:35:53Z</time>
      </trkpt>
      <trkpt lat="48.53913" lon="2.07906">
        <ele>81</ele>
        <time>2026-02-02T10:35:54Z</time>
      </trkpt>
      <trkpt lat="48.53915" lon="2.07913">
        <ele>81</ele>
        <time>2026-02-02T10:35:55Z</time>
      </trkpt>
      <trkpt lat="48.53917" lon="2.0792">
        <ele>80.2</ele>
        <time>2026-02-02T10:35:56Z</time>
      </trkpt>
      <trkpt lat="48.5392" lon="2.07927">
        <ele>80.2</ele>
        <time>2026-02-02T10:35:57Z</time>
      </trkpt>
      <trkpt lat="48.5392" lon="2.07935">
        <ele>80.2</ele>
        <time>2026-02-02T10:35:58Z</time>
      </trkpt>
      <trkpt lat="48.53919" lon="2.07942">
        <ele>80.2</ele>
        <time>2026-02-02T10:35:59Z</time>
      </trkpt>
      <trkpt lat="48.53916" lon="2.07949">
        <ele>80.2</ele>
        <time>2026-02-02T10:36:00Z</time>
      </trkpt>
      <trkpt lat="48.53912" lon="2.07953">
        <ele>80.6</ele>
        <time>2026-02-02T10:36:01Z</time>
      </trkpt>
      <trkpt lat="48.53908" lon="2.07957">
        <ele>80.6</ele>
        <time>2026-02-02T10:36:02Z</time>
      </trkpt>
      <trkpt lat="48.53903" lon="2.0796">
        <ele>80.6</ele>
        <time>2026-02-02T10:36:03Z</time>
      </trkpt>
      <trkpt lat="48.53899" lon="2.07964">
        <ele>80.8</ele>
        <time>2026-02-02T10:36:04Z</time>
      </trkpt>
      <trkpt lat="48.53894" lon="2.07967">
        <ele>81</ele>
        <time>2026-02-02T10:36:05Z</time>
      </trkpt>
      <trkpt lat="48.5389" lon="2.07971">
        <ele>81</ele>
        <time>2026-02-02T10:36:06Z</time>
      </trkpt>
      <trkpt lat="48.53885" lon="2.07974">
        <ele>81</ele>
        <time>2026-02-02T10:36:07Z</time>
      </trkpt>
      <trkpt lat="48.5388" lon="2.07977">
        <ele>80.6</ele>
        <time>2026-02-02T10:36:08Z</time>
      </trkpt>
      <trkpt lat="48.53875" lon="2.07981">
        <ele>80.6</ele>
        <time>2026-02-02T10:36:09Z</time>
      </trkpt>
      <trkpt lat="48.5387" lon="2.07984">
        <ele>80.6</ele>
        <time>2026-02-02T10:36:10Z</time>
      </trkpt>
      <trkpt lat="48.53864" lon="2.07988">
        <ele>80.6</ele>
        <time>2026-02-02T10:36:11Z</time>
      </trkpt>
      <trkpt lat="48.53859" lon="2.07992">
        <ele>79.8</ele>
        <time>2026-02-02T10:36:12Z</time>
      </trkpt>
      <trkpt lat="48.53854" lon="2.07996">
        <ele>79.8</ele>
        <time>2026-02-02T10:36:13Z</time>
      </trkpt>
      <trkpt lat="48.53848" lon="2.08">
        <ele>79.8</ele>
        <time>2026-02-02T10:36:14Z</time>
      </trkpt>
      <trkpt lat="48.53843" lon="2.08004">
        <ele>79.8</ele>
        <time>2026-02-02T10:36:15Z</time>
      </trkpt>
      <trkpt lat="48.53837" lon="2.08009">
        <ele>79.8</ele>
        <time>2026-02-02T10:36:16Z</time>
      </trkpt>
      <trkpt lat="48.53832" lon="2.08013">
        <ele>79.8</ele>
        <time>2026-02-02T10:36:17Z</time>
      </trkpt>
      <trkpt lat="48.53826" lon="2.08018">
        <ele>79.8</ele>
        <time>2026-02-02T10:36:18Z</time>
      </trkpt>
      <trkpt lat="48.53821" lon="2.08022">
        <ele>79.8</ele>
        <time>2026-02-02T10:36:19Z</time>
      </trkpt>
      <trkpt lat="48.53815" lon="2.08026">
        <ele>80</ele>
        <time>2026-02-02T10:36:20Z</time>
      </trkpt>
      <trkpt lat="48.5381" lon="2.0803">
        <ele>79.8</ele>
        <time>2026-02-02T10:36:21Z</time>
      </trkpt>
      <trkpt lat="48.53805" lon="2.08035">
        <ele>79.8</ele>
        <time>2026-02-02T10:36:22Z</time>
      </trkpt>
      <trkpt lat="48.53799" lon="2.08039">
        <ele>79.8</ele>
        <time>2026-02-02T10:36:23Z</time>
      </trkpt>
      <trkpt lat="48.53794" lon="2.08043">
        <ele>79.8</ele>
        <time>2026-02-02T10:36:24Z</time>
      </trkpt>
      <trkpt lat="48.53789" lon="2.08048">
        <ele>79.8</ele>
        <time>2026-02-02T10:36:25Z</time>
      </trkpt>
      <trkpt lat="48.53784" lon="2.08052">
        <ele>79.8</ele>
        <time>2026-02-02T10:36:26Z</time>
      </trkpt>
      <trkpt lat="48.53779" lon="2.08056">
        <ele>79.8</ele>
        <time>2026-02-02T10:36:27Z</time>
      </trkpt>
      <trkpt lat="48.53774" lon="2.0806">
        <ele>80.2</ele>
        <time>2026-02-02T10:36:28Z</time>
      </trkpt>
      <trkpt lat="48.53769" lon="2.08064">
        <ele>79.8</ele>
        <time>2026-02-02T10:36:29Z</time>
      </trkpt>
      <trkpt lat="48.53764" lon="2.08068">
        <ele>79.8</ele>
        <time>2026-02-02T10:36:30Z</time>
      </trkpt>
      <trkpt lat="48.53758" lon="2.08071">
        <ele>79.8</ele>
        <time>2026-02-02T10:36:31Z</time>
      </trkpt>
      <trkpt lat="48.53753" lon="2.08074">
        <ele>80.4</ele>
        <time>2026-02-02T10:36:32Z</time>
      </trkpt>
      <trkpt lat="48.53748" lon="2.08077">
        <ele>80.6</ele>
        <time>2026-02-02T10:36:33Z</time>
      </trkpt>
      <trkpt lat="48.53743" lon="2.08079">
        <ele>80.6</ele>
        <time>2026-02-02T10:36:34Z</time>
      </trkpt>
      <trkpt lat="48.53737" lon="2.08081">
        <ele>80.6</ele>
        <time>2026-02-02T10:36:35Z</time>
      </trkpt>
      <trkpt lat="48.53732" lon="2.08083">
        <ele>80.6</ele>
        <time>2026-02-02T10:36:36Z</time>
      </trkpt>
      <trkpt lat="48.53727" lon="2.08086">
        <ele>80.8</ele>
        <time>2026-02-02T10:36:37Z</time>
      </trkpt>
      <trkpt lat="48.53721" lon="2.08088">
        <ele>80.8</ele>
        <time>2026-02-02T10:36:38Z</time>
      </trkpt>
      <trkpt lat="48.53716" lon="2.08091">
        <ele>80.8</ele>
        <time>2026-02-02T10:36:39Z</time>
      </trkpt>
      <trkpt lat="48.53711" lon="2.08092">
        <ele>81.6</ele>
        <time>2026-02-02T10:36:40Z</time>
      </trkpt>
      <trkpt lat="48.53706" lon="2.08094">
        <ele>81.2</ele>
        <time>2026-02-02T10:36:41Z</time>
      </trkpt>
      <trkpt lat="48.53701" lon="2.08095">
        <ele>81.2</ele>
        <time>2026-02-02T10:36:42Z</time>
      </trkpt>
      <trkpt lat="48.53696" lon="2.08096">
        <ele>81.2</ele>
        <time>2026-02-02T10:36:43Z</time>
      </trkpt>
      <trkpt lat="48.53692" lon="2.08096">
        <ele>81.8</ele>
        <time>2026-02-02T10:36:44Z</time>
      </trkpt>
      <trkpt lat="48.53687" lon="2.08095">
        <ele>81.6</ele>
        <time>2026-02-02T10:36:45Z</time>
      </trkpt>
      <trkpt lat="48.53683" lon="2.08091">
        <ele>81.6</ele>
        <time>2026-02-02T10:36:46Z</time>
      </trkpt>
      <trkpt lat="48.53679" lon="2.08085">
        <ele>81.6</ele>
        <time>2026-02-02T10:36:47Z</time>
      </trkpt>
      <trkpt lat="48.53677" lon="2.08079">
        <ele>81.6</ele>
        <time>2026-02-02T10:36:48Z</time>
      </trkpt>
      <trkpt lat="48.53674" lon="2.08074">
        <ele>81.6</ele>
        <time>2026-02-02T10:36:49Z</time>
      </trkpt>
      <trkpt lat="48.53671" lon="2.08068">
        <ele>81.6</ele>
        <time>2026-02-02T10:36:50Z</time>
      </trkpt>
      <trkpt lat="48.53667" lon="2.08063">
        <ele>81.6</ele>
        <time>2026-02-02T10:36:51Z</time>
      </trkpt>
      <trkpt lat="48.53664" lon="2.08059">
        <ele>81.6</ele>
        <time>2026-02-02T10:36:52Z</time>
      </trkpt>
      <trkpt lat="48.5366" lon="2.08055">
        <ele>81.4</ele>
        <time>2026-02-02T10:36:53Z</time>
      </trkpt>
      <trkpt lat="48.53655" lon="2.08054">
        <ele>81.4</ele>
        <time>2026-02-02T10:36:54Z</time>
      </trkpt>
      <trkpt lat="48.53651" lon="2.08054">
        <ele>81.4</ele>
        <time>2026-02-02T10:36:55Z</time>
      </trkpt>
      <trkpt lat="48.53647" lon="2.08056">
        <ele>81.6</ele>
        <time>2026-02-02T10:36:56Z</time>
      </trkpt>
      <trkpt lat="48.53642" lon="2.08057">
        <ele>82.2</ele>
        <time>2026-02-02T10:36:57Z</time>
      </trkpt>
      <trkpt lat="48.53637" lon="2.08056">
        <ele>82.2</ele>
        <time>2026-02-02T10:36:58Z</time>
      </trkpt>
      <trkpt lat="48.53633" lon="2.08052">
        <ele>82.2</ele>
        <time>2026-02-02T10:36:59Z</time>
      </trkpt>
      <trkpt lat="48.53631" lon="2.08047">
        <ele>83.2</ele>
        <time>2026-02-02T10:37:00Z</time>
      </trkpt>
      <trkpt lat="48.53629" lon="2.08041">
        <ele>83</ele>
        <time>2026-02-02T10:37:01Z</time>
      </trkpt>
      <trkpt lat="48.53628" lon="2.08034">
        <ele>83</ele>
        <time>2026-02-02T10:37:02Z</time>
      </trkpt>
      <trkpt lat="48.53627" lon="2.08028">
        <ele>83</ele>
        <time>2026-02-02T10:37:03Z</time>
      </trkpt>
      <trkpt lat="48.53626" lon="2.08022">
        <ele>83.6</ele>
        <time>2026-02-02T10:37:04Z</time>
      </trkpt>
      <trkpt lat="48.53625" lon="2.08015">
        <ele>83.6</ele>
        <time>2026-02-02T10:37:05Z</time>
      </trkpt>
      <trkpt lat="48.53624" lon="2.08009">
        <ele>83.6</ele>
        <time>2026-02-02T10:37:06Z</time>
      </trkpt>
      <trkpt lat="48.53624" lon="2.08003">
        <ele>83.6</ele>
        <time>2026-02-02T10:37:07Z</time>
      </trkpt>
      <trkpt lat="48.53623" lon="2.07997">
        <ele>84</ele>
        <time>2026-02-02T10:37:08Z</time>
      </trkpt>
      <trkpt lat="48.53624" lon="2.0799">
        <ele>84</ele>
        <time>2026-02-02T10:37:09Z</time>
      </trkpt>
      <trkpt lat="48.53625" lon="2.07984">
        <ele>84</ele>
        <time>2026-02-02T10:37:10Z</time>
      </trkpt>
      <trkpt lat="48.53628" lon="2.07978">
        <ele>84</ele>
        <time>2026-02-02T10:37:11Z</time>
      </trkpt>
      <trkpt lat="48.53631" lon="2.07972">
        <ele>84</ele>
        <time>2026-02-02T10:37:12Z</time>
      </trkpt>
      <trkpt lat="48.53634" lon="2.07965">
        <ele>83.6</ele>
        <time>2026-02-02T10:37:13Z</time>
      </trkpt>
      <trkpt lat="48.53635" lon="2.07958">
        <ele>83.6</ele>
        <time>2026-02-02T10:37:14Z</time>
      </trkpt>
      <trkpt lat="48.53636" lon="2.0795">
        <ele>83.6</ele>
        <time>2026-02-02T10:37:15Z</time>
      </trkpt>
      <trkpt lat="48.53635" lon="2.07941">
        <ele>83.6</ele>
        <time>2026-02-02T10:37:16Z</time>
      </trkpt>
      <trkpt lat="48.53635" lon="2.07934">
        <ele>83.4</ele>
        <time>2026-02-02T10:37:17Z</time>
      </trkpt>
      <trkpt lat="48.53634" lon="2.07925">
        <ele>83.4</ele>
        <time>2026-02-02T10:37:18Z</time>
      </trkpt>
      <trkpt lat="48.53633" lon="2.07916">
        <ele>83.4</ele>
        <time>2026-02-02T10:37:19Z</time>
      </trkpt>
      <trkpt lat="48.53632" lon="2.07908">
        <ele>83.4</ele>
        <time>2026-02-02T10:37:20Z</time>
      </trkpt>
      <trkpt lat="48.5363" lon="2.07899">
        <ele>83.2</ele>
        <time>2026-02-02T10:37:21Z</time>
      </trkpt>
      <trkpt lat="48.53629" lon="2.0789">
        <ele>83.2</ele>
        <time>2026-02-02T10:37:22Z</time>
      </trkpt>
      <trkpt lat="48.53627" lon="2.07881">
        <ele>83.2</ele>
        <time>2026-02-02T10:37:23Z</time>
      </trkpt>
      <trkpt lat="48.53626" lon="2.07872">
        <ele>82.8</ele>
        <time>2026-02-02T10:37:24Z</time>
      </trkpt>
      <trkpt lat="48.53624" lon="2.07862">
        <ele>82.4</ele>
        <time>2026-02-02T10:37:25Z</time>
      </trkpt>
      <trkpt lat="48.53622" lon="2.07853">
        <ele>82.4</ele>
        <time>2026-02-02T10:37:26Z</time>
      </trkpt>
      <trkpt lat="48.5362" lon="2.07843">
        <ele>82.4</ele>
        <time>2026-02-02T10:37:27Z</time>
      </trkpt>
      <trkpt lat="48.53618" lon="2.07834">
        <ele>82</ele>
        <time>2026-02-02T10:37:28Z</time>
      </trkpt>
      <trkpt lat="48.53616" lon="2.07824">
        <ele>82</ele>
        <time>2026-02-02T10:37:29Z</time>
      </trkpt>
      <trkpt lat="48.53615" lon="2.07814">
        <ele>82</ele>
        <time>2026-02-02T10:37:30Z</time>
      </trkpt>
      <trkpt lat="48.53613" lon="2.07805">
        <ele>82</ele>
        <time>2026-02-02T10:37:31Z</time>
      </trkpt>
      <trkpt lat="48.53611" lon="2.07796">
        <ele>82</ele>
        <time>2026-02-02T10:37:32Z</time>
      </trkpt>
      <trkpt lat="48.53609" lon="2.07786">
        <ele>81.8</ele>
        <time>2026-02-02T10:37:33Z</time>
      </trkpt>
      <trkpt lat="48.53608" lon="2.07777">
        <ele>81.8</ele>
        <time>2026-02-02T10:37:34Z</time>
      </trkpt>
      <trkpt lat="48.53606" lon="2.07767">
        <ele>81.8</ele>
        <time>2026-02-02T10:37:35Z</time>
      </trkpt>
      <trkpt lat="48.53604" lon="2.07758">
        <ele>81.8</ele>
        <time>2026-02-02T10:37:36Z</time>
      </trkpt>
      <trkpt lat="48.53602" lon="2.07748">
        <ele>81.4</ele>
        <time>2026-02-02T10:37:37Z</time>
      </trkpt>
      <trkpt lat="48.53599" lon="2.07739">
        <ele>81.4</ele>
        <time>2026-02-02T10:37:38Z</time>
      </trkpt>
      <trkpt lat="48.53597" lon="2.07729">
        <ele>81.4</ele>
        <time>2026-02-02T10:37:39Z</time>
      </trkpt>
      <trkpt lat="48.53595" lon="2.07719">
        <ele>81.8</ele>
        <time>2026-02-02T10:37:40Z</time>
      </trkpt>
      <trkpt lat="48.53593" lon="2.07709">
        <ele>81.8</ele>
        <time>2026-02-02T10:37:41Z</time>
      </trkpt>
      <trkpt lat="48.5359" lon="2.077">
        <ele>81.8</ele>
        <time>2026-02-02T10:37:42Z</time>
      </trkpt>
      <trkpt lat="48.53588" lon="2.0769">
        <ele>81.8</ele>
        <time>2026-02-02T10:37:43Z</time>
      </trkpt>
      <trkpt lat="48.53585" lon="2.07681">
        <ele>81.8</ele>
        <time>2026-02-02T10:37:44Z</time>
      </trkpt>
      <trkpt lat="48.53582" lon="2.07671">
        <ele>82.6</ele>
        <time>2026-02-02T10:37:45Z</time>
      </trkpt>
      <trkpt lat="48.5358" lon="2.07662">
        <ele>82.6</ele>
        <time>2026-02-02T10:37:46Z</time>
      </trkpt>
      <trkpt lat="48.53577" lon="2.07653">
        <ele>82.6</ele>
        <time>2026-02-02T10:37:47Z</time>
      </trkpt>
      <trkpt lat="48.53574" lon="2.07643">
        <ele>82.2</ele>
        <time>2026-02-02T10:37:48Z</time>
      </trkpt>
      <trkpt lat="48.53571" lon="2.07634">
        <ele>82</ele>
        <time>2026-02-02T10:37:49Z</time>
      </trkpt>
      <trkpt lat="48.53568" lon="2.07625">
        <ele>82</ele>
        <time>2026-02-02T10:37:50Z</time>
      </trkpt>
      <trkpt lat="48.53564" lon="2.07615">
        <ele>82</ele>
        <time>2026-02-02T10:37:51Z</time>
      </trkpt>
      <trkpt lat="48.5356" lon="2.07605">
        <ele>81</ele>
        <time>2026-02-02T10:37:52Z</time>
      </trkpt>
      <trkpt lat="48.53556" lon="2.07596">
        <ele>80.6</ele>
        <time>2026-02-02T10:37:53Z</time>
      </trkpt>
      <trkpt lat="48.53551" lon="2.07586">
        <ele>80.6</ele>
        <time>2026-02-02T10:37:54Z</time>
      </trkpt>
      <trkpt lat="48.53546" lon="2.07577">
        <ele>80.6</ele>
        <time>2026-02-02T10:37:55Z</time>
      </trkpt>
      <trkpt lat="48.53542" lon="2.07567">
        <ele>80.6</ele>
        <time>2026-02-02T10:37:56Z</time>
      </trkpt>
      <trkpt lat="48.53537" lon="2.07558">
        <ele>80.2</ele>
        <time>2026-02-02T10:37:57Z</time>
      </trkpt>
      <trkpt lat="48.53532" lon="2.07549">
        <ele>80.2</ele>
        <time>2026-02-02T10:37:58Z</time>
      </trkpt>
      <trkpt lat="48.53528" lon="2.07539">
        <ele>80.2</ele>
        <time>2026-02-02T10:37:59Z</time>
      </trkpt>
      <trkpt lat="48.53523" lon="2.0753">
        <ele>80.4</ele>
        <time>2026-02-02T10:38:00Z</time>
      </trkpt>
      <trkpt lat="48.53519" lon="2.07521">
        <ele>80.6</ele>
        <time>2026-02-02T10:38:01Z</time>
      </trkpt>
      <trkpt lat="48.53515" lon="2.07511">
        <ele>80.6</ele>
        <time>2026-02-02T10:38:02Z</time>
      </trkpt>
      <trkpt lat="48.53511" lon="2.07502">
        <ele>80.6</ele>
        <time>2026-02-02T10:38:03Z</time>
      </trkpt>
      <trkpt lat="48.53507" lon="2.07493">
        <ele>80.6</ele>
        <time>2026-02-02T10:38:04Z</time>
      </trkpt>
      <trkpt lat="48.53504" lon="2.07483">
        <ele>81.2</ele>
        <time>2026-02-02T10:38:05Z</time>
      </trkpt>
      <trkpt lat="48.535" lon="2.07474">
        <ele>81.2</ele>
        <time>2026-02-02T10:38:06Z</time>
      </trkpt>
      <trkpt lat="48.53496" lon="2.07465">
        <ele>81.2</ele>
        <time>2026-02-02T10:38:07Z</time>
      </trkpt>
      <trkpt lat="48.53492" lon="2.07456">
        <ele>81.2</ele>
        <time>2026-02-02T10:38:08Z</time>
      </trkpt>
      <trkpt lat="48.53489" lon="2.07447">
        <ele>81</ele>
        <time>2026-02-02T10:38:09Z</time>
      </trkpt>
      <trkpt lat="48.53484" lon="2.07439">
        <ele>81</ele>
        <time>2026-02-02T10:38:10Z</time>
      </trkpt>
      <trkpt lat="48.5348" lon="2.0743">
        <ele>81</ele>
        <time>2026-02-02T10:38:11Z</time>
      </trkpt>
      <trkpt lat="48.53476" lon="2.07422">
        <ele>81</ele>
        <time>2026-02-02T10:38:12Z</time>
      </trkpt>
      <trkpt lat="48.53471" lon="2.07414">
        <ele>80.6</ele>
        <time>2026-02-02T10:38:13Z</time>
      </trkpt>
      <trkpt lat="48.53467" lon="2.07406">
        <ele>80.6</ele>
        <time>2026-02-02T10:38:14Z</time>
      </trkpt>
      <trkpt lat="48.53462" lon="2.07398">
        <ele>80.6</ele>
        <time>2026-02-02T10:38:15Z</time>
      </trkpt>
      <trkpt lat="48.53457" lon="2.0739">
        <ele>80.8</ele>
        <time>2026-02-02T10:38:16Z</time>
      </trkpt>
      <trkpt lat="48.53452" lon="2.07383">
        <ele>80.8</ele>
        <time>2026-02-02T10:38:17Z</time>
      </trkpt>
      <trkpt lat="48.53447" lon="2.07375">
        <ele>80.8</ele>
        <time>2026-02-02T10:38:18Z</time>
      </trkpt>
      <trkpt lat="48.53442" lon="2.07367">
        <ele>80.8</ele>
        <time>2026-02-02T10:38:19Z</time>
      </trkpt>
      <trkpt lat="48.53437" lon="2.07358">
        <ele>80.6</ele>
        <time>2026-02-02T10:38:20Z</time>
      </trkpt>
      <trkpt lat="48.53432" lon="2.0735">
        <ele>80.6</ele>
        <time>2026-02-02T10:38:21Z</time>
      </trkpt>
      <trkpt lat="48.53427" lon="2.07343">
        <ele>80.6</ele>
        <time>2026-02-02T10:38:22Z</time>
      </trkpt>
      <trkpt lat="48.53422" lon="2.07335">
        <ele>80.6</ele>
        <time>2026-02-02T10:38:23Z</time>
      </trkpt>
      <trkpt lat="48.53418" lon="2.07328">
        <ele>81.4</ele>
        <time>2026-02-02T10:38:24Z</time>
      </trkpt>
      <trkpt lat="48.53413" lon="2.07321">
        <ele>81.6</ele>
        <time>2026-02-02T10:38:25Z</time>
      </trkpt>
      <trkpt lat="48.53409" lon="2.07314">
        <ele>81.6</ele>
        <time>2026-02-02T10:38:26Z</time>
      </trkpt>
      <trkpt lat="48.53405" lon="2.07307">
        <ele>81.6</ele>
        <time>2026-02-02T10:38:27Z</time>
      </trkpt>
      <trkpt lat="48.53401" lon="2.07301">
        <ele>82.2</ele>
        <time>2026-02-02T10:38:28Z</time>
      </trkpt>
      <trkpt lat="48.53397" lon="2.07295">
        <ele>82.2</ele>
        <time>2026-02-02T10:38:29Z</time>
      </trkpt>
      <trkpt lat="48.53393" lon="2.07289">
        <ele>82.2</ele>
        <time>2026-02-02T10:38:30Z</time>
      </trkpt>
      <trkpt lat="48.53389" lon="2.07283">
        <ele>82.2</ele>
        <time>2026-02-02T10:38:31Z</time>
      </trkpt>
      <trkpt lat="48.53386" lon="2.07278">
        <ele>83.2</ele>
        <time>2026-02-02T10:38:32Z</time>
      </trkpt>
      <trkpt lat="48.53382" lon="2.07272">
        <ele>83.2</ele>
        <time>2026-02-02T10:38:33Z</time>
      </trkpt>
      <trkpt lat="48.53378" lon="2.07266">
        <ele>83.2</ele>
        <time>2026-02-02T10:38:34Z</time>
      </trkpt>
      <trkpt lat="48.53375" lon="2.07261">
        <ele>83.2</ele>
        <time>2026-02-02T10:38:35Z</time>
      </trkpt>
      <trkpt lat="48.53371" lon="2.07255">
        <ele>84</ele>
        <time>2026-02-02T10:38:36Z</time>
      </trkpt>
      <trkpt lat="48.53367" lon="2.07249">
        <ele>84.4</ele>
        <time>2026-02-02T10:38:37Z</time>
      </trkpt>
      <trkpt lat="48.53364" lon="2.07243">
        <ele>84.4</ele>
        <time>2026-02-02T10:38:38Z</time>
      </trkpt>
      <trkpt lat="48.53361" lon="2.07238">
        <ele>84.4</ele>
        <time>2026-02-02T10:38:39Z</time>
      </trkpt>
      <trkpt lat="48.53358" lon="2.07232">
        <ele>84.4</ele>
        <time>2026-02-02T10:38:40Z</time>
      </trkpt>
      <trkpt lat="48.53355" lon="2.07227">
        <ele>84.4</ele>
        <time>2026-02-02T10:38:41Z</time>
      </trkpt>
      <trkpt lat="48.53352" lon="2.07221">
        <ele>84.4</ele>
        <time>2026-02-02T10:38:42Z</time>
      </trkpt>
      <trkpt lat="48.53349" lon="2.07216">
        <ele>84.4</ele>
        <time>2026-02-02T10:38:43Z</time>
      </trkpt>
      <trkpt lat="48.53347" lon="2.0721">
        <ele>84.8</ele>
        <time>2026-02-02T10:38:44Z</time>
      </trkpt>
      <trkpt lat="48.53344" lon="2.07205">
        <ele>85.4</ele>
        <time>2026-02-02T10:38:45Z</time>
      </trkpt>
      <trkpt lat="48.53341" lon="2.072">
        <ele>85.4</ele>
        <time>2026-02-02T10:38:46Z</time>
      </trkpt>
      <trkpt lat="48.53338" lon="2.07194">
        <ele>85.4</ele>
        <time>2026-02-02T10:38:47Z</time>
      </trkpt>
      <trkpt lat="48.53336" lon="2.07189">
        <ele>85.2</ele>
        <time>2026-02-02T10:38:48Z</time>
      </trkpt>
      <trkpt lat="48.53333" lon="2.07185">
        <ele>85.4</ele>
        <time>2026-02-02T10:38:49Z</time>
      </trkpt>
      <trkpt lat="48.5333" lon="2.0718">
        <ele>85.4</ele>
        <time>2026-02-02T10:38:50Z</time>
      </trkpt>
      <trkpt lat="48.53328" lon="2.07176">
        <ele>85.4</ele>
        <time>2026-02-02T10:38:51Z</time>
      </trkpt>
      <trkpt lat="48.53325" lon="2.0717">
        <ele>85.4</ele>
        <time>2026-02-02T10:38:52Z</time>
      </trkpt>
      <trkpt lat="48.53323" lon="2.07164">
        <ele>85.6</ele>
        <time>2026-02-02T10:38:53Z</time>
      </trkpt>
      <trkpt lat="48.5332" lon="2.07157">
        <ele>85.6</ele>
        <time>2026-02-02T10:38:54Z</time>
      </trkpt>
      <trkpt lat="48.53317" lon="2.07151">
        <ele>85.6</ele>
        <time>2026-02-02T10:38:55Z</time>
      </trkpt>
      <trkpt lat="48.53314" lon="2.07144">
        <ele>85.6</ele>
        <time>2026-02-02T10:38:56Z</time>
      </trkpt>
      <trkpt lat="48.53312" lon="2.07138">
        <ele>85.8</ele>
        <time>2026-02-02T10:38:57Z</time>
      </trkpt>
      <trkpt lat="48.53309" lon="2.07131">
        <ele>85.8</ele>
        <time>2026-02-02T10:38:58Z</time>
      </trkpt>
      <trkpt lat="48.53306" lon="2.07124">
        <ele>85.8</ele>
        <time>2026-02-02T10:38:59Z</time>
      </trkpt>
      <trkpt lat="48.53303" lon="2.07118">
        <ele>85.8</ele>
        <time>2026-02-02T10:39:00Z</time>
      </trkpt>
      <trkpt lat="48.533" lon="2.07111">
        <ele>86.2</ele>
        <time>2026-02-02T10:39:01Z</time>
      </trkpt>
      <trkpt lat="48.53297" lon="2.07105">
        <ele>86.2</ele>
        <time>2026-02-02T10:39:02Z</time>
      </trkpt>
      <trkpt lat="48.53294" lon="2.07099">
        <ele>86.2</ele>
        <time>2026-02-02T10:39:03Z</time>
      </trkpt>
      <trkpt lat="48.53291" lon="2.07092">
        <ele>87</ele>
        <time>2026-02-02T10:39:04Z</time>
      </trkpt>
      <trkpt lat="48.53288" lon="2.07085">
        <ele>86.8</ele>
        <time>2026-02-02T10:39:05Z</time>
      </trkpt>
      <trkpt lat="48.53286" lon="2.07079">
        <ele>86.8</ele>
        <time>2026-02-02T10:39:06Z</time>
      </trkpt>
      <trkpt lat="48.53282" lon="2.07072">
        <ele>86.8</ele>
        <time>2026-02-02T10:39:07Z</time>
      </trkpt>
      <trkpt lat="48.53279" lon="2.07066">
        <ele>87.2</ele>
        <time>2026-02-02T10:39:08Z</time>
      </trkpt>
      <trkpt lat="48.53276" lon="2.0706">
        <ele>88</ele>
        <time>2026-02-02T10:39:09Z</time>
      </trkpt>
      <trkpt lat="48.53273" lon="2.07054">
        <ele>88</ele>
        <time>2026-02-02T10:39:10Z</time>
      </trkpt>
      <trkpt lat="48.5327" lon="2.07049">
        <ele>88</ele>
        <time>2026-02-02T10:39:11Z</time>
      </trkpt>
      <trkpt lat="48.53267" lon="2.07044">
        <ele>88.8</ele>
        <time>2026-02-02T10:39:12Z</time>
      </trkpt>
      <trkpt lat="48.53264" lon="2.07039">
        <ele>88.6</ele>
        <time>2026-02-02T10:39:13Z</time>
      </trkpt>
      <trkpt lat="48.53261" lon="2.07034">
        <ele>88.6</ele>
        <time>2026-02-02T10:39:14Z</time>
      </trkpt>
      <trkpt lat="48.53259" lon="2.0703">
        <ele>88.6</ele>
        <time>2026-02-02T10:39:15Z</time>
      </trkpt>
      <trkpt lat="48.53256" lon="2.07025">
        <ele>89.4</ele>
        <time>2026-02-02T10:39:16Z</time>
      </trkpt>
      <trkpt lat="48.53253" lon="2.07021">
        <ele>89.6</ele>
        <time>2026-02-02T10:39:17Z</time>
      </trkpt>
      <trkpt lat="48.5325" lon="2.07017">
        <ele>89.6</ele>
        <time>2026-02-02T10:39:18Z</time>
      </trkpt>
      <trkpt lat="48.53248" lon="2.07013">
        <ele>89.6</ele>
        <time>2026-02-02T10:39:19Z</time>
      </trkpt>
      <trkpt lat="48.53245" lon="2.0701">
        <ele>89.8</ele>
        <time>2026-02-02T10:39:20Z</time>
      </trkpt>
      <trkpt lat="48.53243" lon="2.07006">
        <ele>90.6</ele>
        <time>2026-02-02T10:39:21Z</time>
      </trkpt>
      <trkpt lat="48.5324" lon="2.07002">
        <ele>90.6</ele>
        <time>2026-02-02T10:39:22Z</time>
      </trkpt>
      <trkpt lat="48.53237" lon="2.06997">
        <ele>90.6</ele>
        <time>2026-02-02T10:39:23Z</time>
      </trkpt>
      <trkpt lat="48.53235" lon="2.06993">
        <ele>90.6</ele>
        <time>2026-02-02T10:39:24Z</time>
      </trkpt>
      <trkpt lat="48.53232" lon="2.0699">
        <ele>91</ele>
        <time>2026-02-02T10:39:25Z</time>
      </trkpt>
      <trkpt lat="48.53229" lon="2.06986">
        <ele>91</ele>
        <time>2026-02-02T10:39:26Z</time>
      </trkpt>
      <trkpt lat="48.53227" lon="2.06981">
        <ele>91</ele>
        <time>2026-02-02T10:39:27Z</time>
      </trkpt>
      <trkpt lat="48.53225" lon="2.06977">
        <ele>91.6</ele>
        <time>2026-02-02T10:39:28Z</time>
      </trkpt>
      <trkpt lat="48.53222" lon="2.06973">
        <ele>91.6</ele>
        <time>2026-02-02T10:39:29Z</time>
      </trkpt>
      <trkpt lat="48.5322" lon="2.06968">
        <ele>91.6</ele>
        <time>2026-02-02T10:39:30Z</time>
      </trkpt>
      <trkpt lat="48.53217" lon="2.06964">
        <ele>91.6</ele>
        <time>2026-02-02T10:39:31Z</time>
      </trkpt>
      <trkpt lat="48.53215" lon="2.0696">
        <ele>92.4</ele>
        <time>2026-02-02T10:39:32Z</time>
      </trkpt>
      <trkpt lat="48.53212" lon="2.06955">
        <ele>92.8</ele>
        <time>2026-02-02T10:39:33Z</time>
      </trkpt>
      <trkpt lat="48.5321" lon="2.06951">
        <ele>92.8</ele>
        <time>2026-02-02T10:39:34Z</time>
      </trkpt>
      <trkpt lat="48.53207" lon="2.06947">
        <ele>92.8</ele>
        <time>2026-02-02T10:39:35Z</time>
      </trkpt>
      <trkpt lat="48.53205" lon="2.06942">
        <ele>92.8</ele>
        <time>2026-02-02T10:39:36Z</time>
      </trkpt>
      <trkpt lat="48.53202" lon="2.06938">
        <ele>93.4</ele>
        <time>2026-02-02T10:39:37Z</time>
      </trkpt>
      <trkpt lat="48.532" lon="2.06933">
        <ele>93.4</ele>
        <time>2026-02-02T10:39:38Z</time>
      </trkpt>
      <trkpt lat="48.53197" lon="2.06929">
        <ele>93.4</ele>
        <time>2026-02-02T10:39:39Z</time>
      </trkpt>
      <trkpt lat="48.53195" lon="2.06924">
        <ele>94.2</ele>
        <time>2026-02-02T10:39:40Z</time>
      </trkpt>
      <trkpt lat="48.53193" lon="2.0692">
        <ele>94</ele>
        <time>2026-02-02T10:39:41Z</time>
      </trkpt>
      <trkpt lat="48.53191" lon="2.06914">
        <ele>94</ele>
        <time>2026-02-02T10:39:42Z</time>
      </trkpt>
      <trkpt lat="48.53189" lon="2.06909">
        <ele>94</ele>
        <time>2026-02-02T10:39:43Z</time>
      </trkpt>
      <trkpt lat="48.53186" lon="2.06904">
        <ele>94.6</ele>
        <time>2026-02-02T10:39:44Z</time>
      </trkpt>
      <trkpt lat="48.53184" lon="2.06899">
        <ele>94.4</ele>
        <time>2026-02-02T10:39:45Z</time>
      </trkpt>
      <trkpt lat="48.53182" lon="2.06893">
        <ele>94.4</ele>
        <time>2026-02-02T10:39:46Z</time>
      </trkpt>
      <trkpt lat="48.5318" lon="2.06888">
        <ele>94.4</ele>
        <time>2026-02-02T10:39:47Z</time>
      </trkpt>
      <trkpt lat="48.53179" lon="2.06882">
        <ele>94.4</ele>
        <time>2026-02-02T10:39:48Z</time>
      </trkpt>
      <trkpt lat="48.53178" lon="2.06877">
        <ele>95</ele>
        <time>2026-02-02T10:39:49Z</time>
      </trkpt>
      <trkpt lat="48.53176" lon="2.06871">
        <ele>95</ele>
        <time>2026-02-02T10:39:50Z</time>
      </trkpt>
      <trkpt lat="48.53175" lon="2.06866">
        <ele>95</ele>
        <time>2026-02-02T10:39:51Z</time>
      </trkpt>
      <trkpt lat="48.53174" lon="2.0686">
        <ele>94.2</ele>
        <time>2026-02-02T10:39:52Z</time>
      </trkpt>
      <trkpt lat="48.53172" lon="2.06855">
        <ele>94.2</ele>
        <time>2026-02-02T10:39:53Z</time>
      </trkpt>
      <trkpt lat="48.53172" lon="2.06849">
        <ele>94.2</ele>
        <time>2026-02-02T10:39:54Z</time>
      </trkpt>
      <trkpt lat="48.53171" lon="2.06844">
        <ele>94.2</ele>
        <time>2026-02-02T10:39:55Z</time>
      </trkpt>
      <trkpt lat="48.53171" lon="2.06838">
        <ele>94.2</ele>
        <time>2026-02-02T10:39:56Z</time>
      </trkpt>
      <trkpt lat="48.53171" lon="2.06832">
        <ele>94.2</ele>
        <time>2026-02-02T10:39:57Z</time>
      </trkpt>
      <trkpt lat="48.5317" lon="2.06827">
        <ele>94.2</ele>
        <time>2026-02-02T10:39:58Z</time>
      </trkpt>
      <trkpt lat="48.53168" lon="2.06822">
        <ele>94.2</ele>
        <time>2026-02-02T10:39:59Z</time>
      </trkpt>
      <trkpt lat="48.53167" lon="2.06817">
        <ele>94.2</ele>
        <time>2026-02-02T10:40:00Z</time>
      </trkpt>
      <trkpt lat="48.53165" lon="2.06813">
        <ele>94.2</ele>
        <time>2026-02-02T10:40:01Z</time>
      </trkpt>
      <trkpt lat="48.53163" lon="2.06807">
        <ele>94.2</ele>
        <time>2026-02-02T10:40:02Z</time>
      </trkpt>
      <trkpt lat="48.53161" lon="2.06803">
        <ele>94.2</ele>
        <time>2026-02-02T10:40:03Z</time>
      </trkpt>
      <trkpt lat="48.53159" lon="2.06796">
        <ele>94.2</ele>
        <time>2026-02-02T10:40:04Z</time>
      </trkpt>
      <trkpt lat="48.53157" lon="2.0679">
        <ele>93.4</ele>
        <time>2026-02-02T10:40:05Z</time>
      </trkpt>
      <trkpt lat="48.53155" lon="2.06783">
        <ele>93.4</ele>
        <time>2026-02-02T10:40:06Z</time>
      </trkpt>
      <trkpt lat="48.53153" lon="2.06777">
        <ele>93.4</ele>
        <time>2026-02-02T10:40:07Z</time>
      </trkpt>
      <trkpt lat="48.53151" lon="2.0677">
        <ele>92.8</ele>
        <time>2026-02-02T10:40:08Z</time>
      </trkpt>
      <trkpt lat="48.53148" lon="2.06762">
        <ele>91.8</ele>
        <time>2026-02-02T10:40:09Z</time>
      </trkpt>
      <trkpt lat="48.53146" lon="2.06755">
        <ele>91.8</ele>
        <time>2026-02-02T10:40:10Z</time>
      </trkpt>
      <trkpt lat="48.53144" lon="2.06747">
        <ele>91.8</ele>
        <time>2026-02-02T10:40:11Z</time>
      </trkpt>
      <trkpt lat="48.53143" lon="2.06737">
        <ele>90.8</ele>
        <time>2026-02-02T10:40:12Z</time>
      </trkpt>
      <trkpt lat="48.53142" lon="2.06728">
        <ele>90.8</ele>
        <time>2026-02-02T10:40:13Z</time>
      </trkpt>
      <trkpt lat="48.53141" lon="2.06716">
        <ele>90.8</ele>
        <time>2026-02-02T10:40:14Z</time>
      </trkpt>
      <trkpt lat="48.5314" lon="2.06706">
        <ele>90.8</ele>
        <time>2026-02-02T10:40:15Z</time>
      </trkpt>
      <trkpt lat="48.53139" lon="2.06696">
        <ele>89.8</ele>
        <time>2026-02-02T10:40:16Z</time>
      </trkpt>
      <trkpt lat="48.53136" lon="2.06685">
        <ele>88.8</ele>
        <time>2026-02-02T10:40:17Z</time>
      </trkpt>
      <trkpt lat="48.53133" lon="2.06674">
        <ele>88.8</ele>
        <time>2026-02-02T10:40:18Z</time>
      </trkpt>
      <trkpt lat="48.53131" lon="2.06665">
        <ele>88.8</ele>
        <time>2026-02-02T10:40:19Z</time>
      </trkpt>
      <trkpt lat="48.53128" lon="2.06654">
        <ele>88.8</ele>
        <time>2026-02-02T10:40:20Z</time>
      </trkpt>
      <trkpt lat="48.53126" lon="2.06642">
        <ele>89.2</ele>
        <time>2026-02-02T10:40:21Z</time>
      </trkpt>
      <trkpt lat="48.53123" lon="2.06633">
        <ele>89.2</ele>
        <time>2026-02-02T10:40:22Z</time>
      </trkpt>
      <trkpt lat="48.5312" lon="2.06622">
        <ele>89.2</ele>
        <time>2026-02-02T10:40:23Z</time>
      </trkpt>
      <trkpt lat="48.53118" lon="2.06613">
        <ele>89</ele>
        <time>2026-02-02T10:40:24Z</time>
      </trkpt>
      <trkpt lat="48.53115" lon="2.06602">
        <ele>88.6</ele>
        <time>2026-02-02T10:40:25Z</time>
      </trkpt>
      <trkpt lat="48.53112" lon="2.06591">
        <ele>88.6</ele>
        <time>2026-02-02T10:40:26Z</time>
      </trkpt>
      <trkpt lat="48.53109" lon="2.0658">
        <ele>88.6</ele>
        <time>2026-02-02T10:40:27Z</time>
      </trkpt>
      <trkpt lat="48.53105" lon="2.06569">
        <ele>88.6</ele>
        <time>2026-02-02T10:40:28Z</time>
      </trkpt>
      <trkpt lat="48.53103" lon="2.06556">
        <ele>88</ele>
        <time>2026-02-02T10:40:29Z</time>
      </trkpt>
      <trkpt lat="48.53099" lon="2.06546">
        <ele>88</ele>
        <time>2026-02-02T10:40:30Z</time>
      </trkpt>
      <trkpt lat="48.53096" lon="2.06533">
        <ele>88</ele>
        <time>2026-02-02T10:40:31Z</time>
      </trkpt>
      <trkpt lat="48.53093" lon="2.06521">
        <ele>88</ele>
        <time>2026-02-02T10:40:32Z</time>
      </trkpt>
      <trkpt lat="48.53089" lon="2.0651">
        <ele>88.4</ele>
        <time>2026-02-02T10:40:33Z</time>
      </trkpt>
      <trkpt lat="48.53087" lon="2.06497">
        <ele>88.4</ele>
        <time>2026-02-02T10:40:34Z</time>
      </trkpt>
      <trkpt lat="48.53083" lon="2.06488">
        <ele>88.4</ele>
        <time>2026-02-02T10:40:35Z</time>
      </trkpt>
      <trkpt lat="48.5308" lon="2.06478">
        <ele>88.8</ele>
        <time>2026-02-02T10:40:36Z</time>
      </trkpt>
      <trkpt lat="48.53078" lon="2.06468">
        <ele>89</ele>
        <time>2026-02-02T10:40:37Z</time>
      </trkpt>
      <trkpt lat="48.53075" lon="2.06459">
        <ele>89</ele>
        <time>2026-02-02T10:40:38Z</time>
      </trkpt>
      <trkpt lat="48.53073" lon="2.06449">
        <ele>89</ele>
        <time>2026-02-02T10:40:39Z</time>
      </trkpt>
      <trkpt lat="48.53071" lon="2.0644">
        <ele>89.4</ele>
        <time>2026-02-02T10:40:40Z</time>
      </trkpt>
      <trkpt lat="48.53068" lon="2.06431">
        <ele>89.6</ele>
        <time>2026-02-02T10:40:41Z</time>
      </trkpt>
      <trkpt lat="48.53065" lon="2.06425">
        <ele>89.6</ele>
        <time>2026-02-02T10:40:42Z</time>
      </trkpt>
      <trkpt lat="48.53063" lon="2.06418">
        <ele>89.6</ele>
        <time>2026-02-02T10:40:43Z</time>
      </trkpt>
      <trkpt lat="48.5306" lon="2.06398">
        <ele>89.6</ele>
        <time>2026-02-02T10:40:44Z</time>
      </trkpt>
      <trkpt lat="48.5306" lon="2.06389">
        <ele>89.8</ele>
        <time>2026-02-02T10:40:45Z</time>
      </trkpt>
      <trkpt lat="48.53059" lon="2.06369">
        <ele>89.8</ele>
        <time>2026-02-02T10:40:46Z</time>
      </trkpt>
      <trkpt lat="48.53057" lon="2.06356">
        <ele>89.8</ele>
        <time>2026-02-02T10:40:47Z</time>
      </trkpt>
      <trkpt lat="48.53055" lon="2.06347">
        <ele>89.8</ele>
        <time>2026-02-02T10:40:48Z</time>
      </trkpt>
      <trkpt lat="48.53052" lon="2.06338">
        <ele>90</ele>
        <time>2026-02-02T10:40:49Z</time>
      </trkpt>
      <trkpt lat="48.5305" lon="2.06328">
        <ele>90</ele>
        <time>2026-02-02T10:40:50Z</time>
      </trkpt>
      <trkpt lat="48.53048" lon="2.06319">
        <ele>90</ele>
        <time>2026-02-02T10:40:51Z</time>
      </trkpt>
      <trkpt lat="48.53047" lon="2.06311">
        <ele>90</ele>
        <time>2026-02-02T10:40:52Z</time>
      </trkpt>
      <trkpt lat="48.53046" lon="2.06303">
        <ele>90.2</ele>
        <time>2026-02-02T10:40:53Z</time>
      </trkpt>
      <trkpt lat="48.53045" lon="2.06294">
        <ele>90.2</ele>
        <time>2026-02-02T10:40:54Z</time>
      </trkpt>
      <trkpt lat="48.53044" lon="2.06284">
        <ele>90.2</ele>
        <time>2026-02-02T10:40:55Z</time>
      </trkpt>
      <trkpt lat="48.53043" lon="2.06275">
        <ele>90.2</ele>
        <time>2026-02-02T10:40:56Z</time>
      </trkpt>
      <trkpt lat="48.53041" lon="2.06267">
        <ele>90.8</ele>
        <time>2026-02-02T10:40:57Z</time>
      </trkpt>
      <trkpt lat="48.5304" lon="2.06258">
        <ele>90.8</ele>
        <time>2026-02-02T10:40:58Z</time>
      </trkpt>
      <trkpt lat="48.5304" lon="2.0625">
        <ele>90.8</ele>
        <time>2026-02-02T10:40:59Z</time>
      </trkpt>
      <trkpt lat="48.53039" lon="2.06242">
        <ele>90.8</ele>
        <time>2026-02-02T10:41:00Z</time>
      </trkpt>
      <trkpt lat="48.53039" lon="2.06234">
        <ele>91</ele>
        <time>2026-02-02T10:41:01Z</time>
      </trkpt>
      <trkpt lat="48.53039" lon="2.06226">
        <ele>91</ele>
        <time>2026-02-02T10:41:02Z</time>
      </trkpt>
      <trkpt lat="48.53039" lon="2.06218">
        <ele>91</ele>
        <time>2026-02-02T10:41:03Z</time>
      </trkpt>
      <trkpt lat="48.53038" lon="2.0621">
        <ele>91</ele>
        <time>2026-02-02T10:41:04Z</time>
      </trkpt>
      <trkpt lat="48.53039" lon="2.06203">
        <ele>91.2</ele>
        <time>2026-02-02T10:41:05Z</time>
      </trkpt>
      <trkpt lat="48.53039" lon="2.06196">
        <ele>91.2</ele>
        <time>2026-02-02T10:41:06Z</time>
      </trkpt>
      <trkpt lat="48.53038" lon="2.06188">
        <ele>91.2</ele>
        <time>2026-02-02T10:41:07Z</time>
      </trkpt>
      <trkpt lat="48.53038" lon="2.0618">
        <ele>92</ele>
        <time>2026-02-02T10:41:08Z</time>
      </trkpt>
      <trkpt lat="48.53037" lon="2.06172">
        <ele>92.2</ele>
        <time>2026-02-02T10:41:09Z</time>
      </trkpt>
      <trkpt lat="48.53037" lon="2.06164">
        <ele>92.2</ele>
        <time>2026-02-02T10:41:10Z</time>
      </trkpt>
      <trkpt lat="48.53036" lon="2.06156">
        <ele>92.2</ele>
        <time>2026-02-02T10:41:11Z</time>
      </trkpt>
      <trkpt lat="48.53036" lon="2.06147">
        <ele>92.2</ele>
        <time>2026-02-02T10:41:12Z</time>
      </trkpt>
      <trkpt lat="48.53035" lon="2.0614">
        <ele>92.2</ele>
        <time>2026-02-02T10:41:13Z</time>
      </trkpt>
      <trkpt lat="48.53035" lon="2.0613">
        <ele>92.2</ele>
        <time>2026-02-02T10:41:14Z</time>
      </trkpt>
      <trkpt lat="48.53034" lon="2.06121">
        <ele>92.2</ele>
        <time>2026-02-02T10:41:15Z</time>
      </trkpt>
      <trkpt lat="48.53034" lon="2.06112">
        <ele>91.8</ele>
        <time>2026-02-02T10:41:16Z</time>
      </trkpt>
      <trkpt lat="48.53034" lon="2.06102">
        <ele>91.8</ele>
        <time>2026-02-02T10:41:17Z</time>
      </trkpt>
      <trkpt lat="48.53034" lon="2.06091">
        <ele>91.8</ele>
        <time>2026-02-02T10:41:18Z</time>
      </trkpt>
      <trkpt lat="48.53034" lon="2.06081">
        <ele>91.8</ele>
        <time>2026-02-02T10:41:19Z</time>
      </trkpt>
      <trkpt lat="48.53034" lon="2.06071">
        <ele>91.8</ele>
        <time>2026-02-02T10:41:20Z</time>
      </trkpt>
      <trkpt lat="48.53034" lon="2.06061">
        <ele>91.4</ele>
        <time>2026-02-02T10:41:21Z</time>
      </trkpt>
      <trkpt lat="48.53033" lon="2.0605">
        <ele>91.4</ele>
        <time>2026-02-02T10:41:22Z</time>
      </trkpt>
      <trkpt lat="48.53033" lon="2.0604">
        <ele>91.4</ele>
        <time>2026-02-02T10:41:23Z</time>
      </trkpt>
      <trkpt lat="48.53033" lon="2.0603">
        <ele>91.4</ele>
        <time>2026-02-02T10:41:24Z</time>
      </trkpt>
      <trkpt lat="48.53034" lon="2.06019">
        <ele>91.8</ele>
        <time>2026-02-02T10:41:25Z</time>
      </trkpt>
      <trkpt lat="48.53034" lon="2.06009">
        <ele>91.8</ele>
        <time>2026-02-02T10:41:26Z</time>
      </trkpt>
      <trkpt lat="48.53034" lon="2.05999">
        <ele>91.8</ele>
        <time>2026-02-02T10:41:27Z</time>
      </trkpt>
      <trkpt lat="48.53035" lon="2.05989">
        <ele>91.2</ele>
        <time>2026-02-02T10:41:28Z</time>
      </trkpt>
      <trkpt lat="48.53035" lon="2.0598">
        <ele>92</ele>
        <time>2026-02-02T10:41:29Z</time>
      </trkpt>
      <trkpt lat="48.53035" lon="2.0597">
        <ele>92</ele>
        <time>2026-02-02T10:41:30Z</time>
      </trkpt>
      <trkpt lat="48.53036" lon="2.0596">
        <ele>92</ele>
        <time>2026-02-02T10:41:31Z</time>
      </trkpt>
      <trkpt lat="48.53036" lon="2.05951">
        <ele>92</ele>
        <time>2026-02-02T10:41:32Z</time>
      </trkpt>
      <trkpt lat="48.53037" lon="2.05942">
        <ele>92.4</ele>
        <time>2026-02-02T10:41:33Z</time>
      </trkpt>
      <trkpt lat="48.53037" lon="2.05933">
        <ele>92.4</ele>
        <time>2026-02-02T10:41:34Z</time>
      </trkpt>
      <trkpt lat="48.53037" lon="2.05924">
        <ele>92.4</ele>
        <time>2026-02-02T10:41:35Z</time>
      </trkpt>
      <trkpt lat="48.53038" lon="2.05916">
        <ele>92.8</ele>
        <time>2026-02-02T10:41:36Z</time>
      </trkpt>
      <trkpt lat="48.53038" lon="2.05907">
        <ele>93.4</ele>
        <time>2026-02-02T10:41:37Z</time>
      </trkpt>
      <trkpt lat="48.53038" lon="2.05899">
        <ele>93.4</ele>
        <time>2026-02-02T10:41:38Z</time>
      </trkpt>
      <trkpt lat="48.53039" lon="2.05892">
        <ele>93.4</ele>
        <time>2026-02-02T10:41:39Z</time>
      </trkpt>
      <trkpt lat="48.53039" lon="2.05883">
        <ele>93.4</ele>
        <time>2026-02-02T10:41:40Z</time>
      </trkpt>
      <trkpt lat="48.53038" lon="2.05874">
        <ele>93.2</ele>
        <time>2026-02-02T10:41:41Z</time>
      </trkpt>
      <trkpt lat="48.53038" lon="2.05864">
        <ele>93.2</ele>
        <time>2026-02-02T10:41:42Z</time>
      </trkpt>
      <trkpt lat="48.53037" lon="2.05855">
        <ele>93.2</ele>
        <time>2026-02-02T10:41:43Z</time>
      </trkpt>
      <trkpt lat="48.53036" lon="2.05846">
        <ele>94.2</ele>
        <time>2026-02-02T10:41:44Z</time>
      </trkpt>
      <trkpt lat="48.53035" lon="2.05837">
        <ele>94</ele>
        <time>2026-02-02T10:41:45Z</time>
      </trkpt>
      <trkpt lat="48.53034" lon="2.05828">
        <ele>94</ele>
        <time>2026-02-02T10:41:46Z</time>
      </trkpt>
      <trkpt lat="48.53034" lon="2.0582">
        <ele>94</ele>
        <time>2026-02-02T10:41:47Z</time>
      </trkpt>
      <trkpt lat="48.53033" lon="2.05811">
        <ele>93.8</ele>
        <time>2026-02-02T10:41:48Z</time>
      </trkpt>
      <trkpt lat="48.53032" lon="2.05801">
        <ele>94</ele>
        <time>2026-02-02T10:41:49Z</time>
      </trkpt>
      <trkpt lat="48.53031" lon="2.05792">
        <ele>94</ele>
        <time>2026-02-02T10:41:50Z</time>
      </trkpt>
      <trkpt lat="48.5303" lon="2.05783">
        <ele>94</ele>
        <time>2026-02-02T10:41:51Z</time>
      </trkpt>
      <trkpt lat="48.5303" lon="2.05774">
        <ele>93.6</ele>
        <time>2026-02-02T10:41:52Z</time>
      </trkpt>
      <trkpt lat="48.53029" lon="2.05765">
        <ele>93.4</ele>
        <time>2026-02-02T10:41:53Z</time>
      </trkpt>
      <trkpt lat="48.53029" lon="2.05755">
        <ele>93.4</ele>
        <time>2026-02-02T10:41:54Z</time>
      </trkpt>
      <trkpt lat="48.53028" lon="2.05746">
        <ele>93.4</ele>
        <time>2026-02-02T10:41:55Z</time>
      </trkpt>
      <trkpt lat="48.53027" lon="2.05736">
        <ele>93.4</ele>
        <time>2026-02-02T10:41:56Z</time>
      </trkpt>
      <trkpt lat="48.53026" lon="2.05728">
        <ele>93.2</ele>
        <time>2026-02-02T10:41:57Z</time>
      </trkpt>
      <trkpt lat="48.53025" lon="2.05719">
        <ele>93.2</ele>
        <time>2026-02-02T10:41:58Z</time>
      </trkpt>
      <trkpt lat="48.53024" lon="2.0571">
        <ele>93.2</ele>
        <time>2026-02-02T10:41:59Z</time>
      </trkpt>
      <trkpt lat="48.53023" lon="2.057">
        <ele>93</ele>
        <time>2026-02-02T10:42:00Z</time>
      </trkpt>
      <trkpt lat="48.53022" lon="2.05691">
        <ele>92.8</ele>
        <time>2026-02-02T10:42:01Z</time>
      </trkpt>
      <trkpt lat="48.53022" lon="2.05682">
        <ele>92.8</ele>
        <time>2026-02-02T10:42:02Z</time>
      </trkpt>
      <trkpt lat="48.53021" lon="2.05673">
        <ele>92.8</ele>
        <time>2026-02-02T10:42:03Z</time>
      </trkpt>
      <trkpt lat="48.53021" lon="2.05664">
        <ele>92.8</ele>
        <time>2026-02-02T10:42:04Z</time>
      </trkpt>
      <trkpt lat="48.5302" lon="2.05654">
        <ele>92.8</ele>
        <time>2026-02-02T10:42:05Z</time>
      </trkpt>
      <trkpt lat="48.53018" lon="2.05645">
        <ele>92.8</ele>
        <time>2026-02-02T10:42:06Z</time>
      </trkpt>
      <trkpt lat="48.53017" lon="2.05635">
        <ele>92.8</ele>
        <time>2026-02-02T10:42:07Z</time>
      </trkpt>
      <trkpt lat="48.53017" lon="2.05626">
        <ele>92.8</ele>
        <time>2026-02-02T10:42:08Z</time>
      </trkpt>
      <trkpt lat="48.53016" lon="2.05617">
        <ele>92.8</ele>
        <time>2026-02-02T10:42:09Z</time>
      </trkpt>
      <trkpt lat="48.53015" lon="2.05607">
        <ele>92.8</ele>
        <time>2026-02-02T10:42:10Z</time>
      </trkpt>
      <trkpt lat="48.53014" lon="2.05598">
        <ele>92.8</ele>
        <time>2026-02-02T10:42:11Z</time>
      </trkpt>
      <trkpt lat="48.53013" lon="2.05587">
        <ele>92.8</ele>
        <time>2026-02-02T10:42:12Z</time>
      </trkpt>
      <trkpt lat="48.53012" lon="2.05578">
        <ele>92.2</ele>
        <time>2026-02-02T10:42:13Z</time>
      </trkpt>
      <trkpt lat="48.53011" lon="2.05569">
        <ele>92.2</ele>
        <time>2026-02-02T10:42:14Z</time>
      </trkpt>
      <trkpt lat="48.5301" lon="2.0556">
        <ele>92.2</ele>
        <time>2026-02-02T10:42:15Z</time>
      </trkpt>
      <trkpt lat="48.5301" lon="2.0555">
        <ele>92.2</ele>
        <time>2026-02-02T10:42:16Z</time>
      </trkpt>
      <trkpt lat="48.53008" lon="2.0554">
        <ele>91.6</ele>
        <time>2026-02-02T10:42:17Z</time>
      </trkpt>
      <trkpt lat="48.53008" lon="2.05529">
        <ele>91.6</ele>
        <time>2026-02-02T10:42:18Z</time>
      </trkpt>
      <trkpt lat="48.53007" lon="2.05519">
        <ele>91.6</ele>
        <time>2026-02-02T10:42:19Z</time>
      </trkpt>
      <trkpt lat="48.53006" lon="2.05509">
        <ele>91.6</ele>
        <time>2026-02-02T10:42:20Z</time>
      </trkpt>
      <trkpt lat="48.53005" lon="2.05499">
        <ele>90.8</ele>
        <time>2026-02-02T10:42:21Z</time>
      </trkpt>
      <trkpt lat="48.53004" lon="2.05487">
        <ele>90.8</ele>
        <time>2026-02-02T10:42:22Z</time>
      </trkpt>
      <trkpt lat="48.53004" lon="2.05476">
        <ele>90.8</ele>
        <time>2026-02-02T10:42:23Z</time>
      </trkpt>
      <trkpt lat="48.53003" lon="2.05464">
        <ele>90.8</ele>
        <time>2026-02-02T10:42:24Z</time>
      </trkpt>
      <trkpt lat="48.53002" lon="2.05453">
        <ele>90</ele>
        <time>2026-02-02T10:42:25Z</time>
      </trkpt>
      <trkpt lat="48.53" lon="2.05442">
        <ele>90</ele>
        <time>2026-02-02T10:42:26Z</time>
      </trkpt>
      <trkpt lat="48.52999" lon="2.05431">
        <ele>90</ele>
        <time>2026-02-02T10:42:27Z</time>
      </trkpt>
      <trkpt lat="48.52998" lon="2.05421">
        <ele>90</ele>
        <time>2026-02-02T10:42:28Z</time>
      </trkpt>
      <trkpt lat="48.52997" lon="2.0541">
        <ele>89.2</ele>
        <time>2026-02-02T10:42:29Z</time>
      </trkpt>
      <trkpt lat="48.52995" lon="2.05399">
        <ele>89.2</ele>
        <time>2026-02-02T10:42:30Z</time>
      </trkpt>
      <trkpt lat="48.52994" lon="2.05388">
        <ele>89.2</ele>
        <time>2026-02-02T10:42:31Z</time>
      </trkpt>
      <trkpt lat="48.52993" lon="2.05377">
        <ele>89.6</ele>
        <time>2026-02-02T10:42:32Z</time>
      </trkpt>
      <trkpt lat="48.52992" lon="2.05366">
        <ele>89.8</ele>
        <time>2026-02-02T10:42:33Z</time>
      </trkpt>
      <trkpt lat="48.52991" lon="2.05355">
        <ele>89.8</ele>
        <time>2026-02-02T10:42:34Z</time>
      </trkpt>
      <trkpt lat="48.52989" lon="2.05344">
        <ele>89.8</ele>
        <time>2026-02-02T10:42:35Z</time>
      </trkpt>
      <trkpt lat="48.52988" lon="2.05333">
        <ele>89</ele>
        <time>2026-02-02T10:42:36Z</time>
      </trkpt>
      <trkpt lat="48.52987" lon="2.05322">
        <ele>89</ele>
        <time>2026-02-02T10:42:37Z</time>
      </trkpt>
      <trkpt lat="48.52986" lon="2.05311">
        <ele>89</ele>
        <time>2026-02-02T10:42:38Z</time>
      </trkpt>
      <trkpt lat="48.52984" lon="2.053">
        <ele>89</ele>
        <time>2026-02-02T10:42:39Z</time>
      </trkpt>
      <trkpt lat="48.52983" lon="2.0529">
        <ele>89</ele>
        <time>2026-02-02T10:42:40Z</time>
      </trkpt>
      <trkpt lat="48.52982" lon="2.0528">
        <ele>90</ele>
        <time>2026-02-02T10:42:41Z</time>
      </trkpt>
      <trkpt lat="48.52981" lon="2.0527">
        <ele>90</ele>
        <time>2026-02-02T10:42:42Z</time>
      </trkpt>
      <trkpt lat="48.52981" lon="2.0526">
        <ele>90</ele>
        <time>2026-02-02T10:42:43Z</time>
      </trkpt>
      <trkpt lat="48.52979" lon="2.05251">
        <ele>90.4</ele>
        <time>2026-02-02T10:42:44Z</time>
      </trkpt>
      <trkpt lat="48.52979" lon="2.05241">
        <ele>90.4</ele>
        <time>2026-02-02T10:42:45Z</time>
      </trkpt>
      <trkpt lat="48.52977" lon="2.05232">
        <ele>90.4</ele>
        <time>2026-02-02T10:42:46Z</time>
      </trkpt>
      <trkpt lat="48.52976" lon="2.05223">
        <ele>90.4</ele>
        <time>2026-02-02T10:42:47Z</time>
      </trkpt>
      <trkpt lat="48.52975" lon="2.05215">
        <ele>91</ele>
        <time>2026-02-02T10:42:48Z</time>
      </trkpt>
      <trkpt lat="48.52974" lon="2.05206">
        <ele>90.8</ele>
        <time>2026-02-02T10:42:49Z</time>
      </trkpt>
      <trkpt lat="48.52972" lon="2.05197">
        <ele>90.8</ele>
        <time>2026-02-02T10:42:50Z</time>
      </trkpt>
      <trkpt lat="48.52971" lon="2.05188">
        <ele>90.8</ele>
        <time>2026-02-02T10:42:51Z</time>
      </trkpt>
      <trkpt lat="48.52969" lon="2.05179">
        <ele>91.6</ele>
        <time>2026-02-02T10:42:52Z</time>
      </trkpt>
      <trkpt lat="48.52968" lon="2.05171">
        <ele>91.6</ele>
        <time>2026-02-02T10:42:53Z</time>
      </trkpt>
      <trkpt lat="48.52965" lon="2.05163">
        <ele>91.6</ele>
        <time>2026-02-02T10:42:54Z</time>
      </trkpt>
      <trkpt lat="48.5296" lon="2.05157">
        <ele>91.6</ele>
        <time>2026-02-02T10:42:55Z</time>
      </trkpt>
      <trkpt lat="48.52957" lon="2.05149">
        <ele>91.6</ele>
        <time>2026-02-02T10:42:56Z</time>
      </trkpt>
      <trkpt lat="48.52956" lon="2.05141">
        <ele>91.8</ele>
        <time>2026-02-02T10:42:57Z</time>
      </trkpt>
      <trkpt lat="48.52954" lon="2.05131">
        <ele>91.8</ele>
        <time>2026-02-02T10:42:58Z</time>
      </trkpt>
      <trkpt lat="48.52954" lon="2.05121">
        <ele>91.8</ele>
        <time>2026-02-02T10:42:59Z</time>
      </trkpt>
      <trkpt lat="48.52953" lon="2.05111">
        <ele>91.8</ele>
        <time>2026-02-02T10:43:00Z</time>
      </trkpt>
      <trkpt lat="48.52953" lon="2.05101">
        <ele>92</ele>
        <time>2026-02-02T10:43:01Z</time>
      </trkpt>
      <trkpt lat="48.52952" lon="2.05091">
        <ele>92</ele>
        <time>2026-02-02T10:43:02Z</time>
      </trkpt>
      <trkpt lat="48.52952" lon="2.05081">
        <ele>92</ele>
        <time>2026-02-02T10:43:03Z</time>
      </trkpt>
      <trkpt lat="48.52952" lon="2.0507">
        <ele>92</ele>
        <time>2026-02-02T10:43:04Z</time>
      </trkpt>
      <trkpt lat="48.52952" lon="2.0506">
        <ele>91.6</ele>
        <time>2026-02-02T10:43:05Z</time>
      </trkpt>
      <trkpt lat="48.52952" lon="2.0505">
        <ele>91.6</ele>
        <time>2026-02-02T10:43:06Z</time>
      </trkpt>
      <trkpt lat="48.52953" lon="2.0504">
        <ele>91.6</ele>
        <time>2026-02-02T10:43:07Z</time>
      </trkpt>
      <trkpt lat="48.52953" lon="2.0503">
        <ele>91.6</ele>
        <time>2026-02-02T10:43:08Z</time>
      </trkpt>
      <trkpt lat="48.52954" lon="2.05019">
        <ele>91.2</ele>
        <time>2026-02-02T10:43:09Z</time>
      </trkpt>
      <trkpt lat="48.52955" lon="2.05009">
        <ele>91.2</ele>
        <time>2026-02-02T10:43:10Z</time>
      </trkpt>
      <trkpt lat="48.52956" lon="2.04999">
        <ele>91.2</ele>
        <time>2026-02-02T10:43:11Z</time>
      </trkpt>
      <trkpt lat="48.52957" lon="2.0499">
        <ele>91.2</ele>
        <time>2026-02-02T10:43:12Z</time>
      </trkpt>
      <trkpt lat="48.52958" lon="2.0498">
        <ele>91.6</ele>
        <time>2026-02-02T10:43:13Z</time>
      </trkpt>
      <trkpt lat="48.52958" lon="2.0497">
        <ele>91.6</ele>
        <time>2026-02-02T10:43:14Z</time>
      </trkpt>
      <trkpt lat="48.52959" lon="2.0496">
        <ele>91.6</ele>
        <time>2026-02-02T10:43:15Z</time>
      </trkpt>
      <trkpt lat="48.5296" lon="2.04951">
        <ele>92.4</ele>
        <time>2026-02-02T10:43:16Z</time>
      </trkpt>
      <trkpt lat="48.5296" lon="2.04941">
        <ele>92.2</ele>
        <time>2026-02-02T10:43:17Z</time>
      </trkpt>
      <trkpt lat="48.52961" lon="2.04932">
        <ele>92.2</ele>
        <time>2026-02-02T10:43:18Z</time>
      </trkpt>
      <trkpt lat="48.52961" lon="2.04922">
        <ele>92.2</ele>
        <time>2026-02-02T10:43:19Z</time>
      </trkpt>
      <trkpt lat="48.52961" lon="2.04913">
        <ele>92.2</ele>
        <time>2026-02-02T10:43:20Z</time>
      </trkpt>
      <trkpt lat="48.52962" lon="2.04904">
        <ele>92.6</ele>
        <time>2026-02-02T10:43:21Z</time>
      </trkpt>
      <trkpt lat="48.52962" lon="2.04894">
        <ele>92.6</ele>
        <time>2026-02-02T10:43:22Z</time>
      </trkpt>
      <trkpt lat="48.52962" lon="2.04885">
        <ele>92.6</ele>
        <time>2026-02-02T10:43:23Z</time>
      </trkpt>
      <trkpt lat="48.52962" lon="2.04876">
        <ele>92.8</ele>
        <time>2026-02-02T10:43:24Z</time>
      </trkpt>
      <trkpt lat="48.52963" lon="2.04866">
        <ele>92.4</ele>
        <time>2026-02-02T10:43:25Z</time>
      </trkpt>
      <trkpt lat="48.52963" lon="2.04857">
        <ele>92.4</ele>
        <time>2026-02-02T10:43:26Z</time>
      </trkpt>
      <trkpt lat="48.52964" lon="2.04848">
        <ele>92.4</ele>
        <time>2026-02-02T10:43:27Z</time>
      </trkpt>
      <trkpt lat="48.52965" lon="2.04839">
        <ele>92.4</ele>
        <time>2026-02-02T10:43:28Z</time>
      </trkpt>
      <trkpt lat="48.52965" lon="2.0483">
        <ele>92.6</ele>
        <time>2026-02-02T10:43:29Z</time>
      </trkpt>
      <trkpt lat="48.52965" lon="2.04821">
        <ele>92.6</ele>
        <time>2026-02-02T10:43:30Z</time>
      </trkpt>
      <trkpt lat="48.52966" lon="2.04812">
        <ele>92.6</ele>
        <time>2026-02-02T10:43:31Z</time>
      </trkpt>
      <trkpt lat="48.52966" lon="2.04802">
        <ele>92.6</ele>
        <time>2026-02-02T10:43:32Z</time>
      </trkpt>
      <trkpt lat="48.52967" lon="2.04793">
        <ele>92</ele>
        <time>2026-02-02T10:43:33Z</time>
      </trkpt>
      <trkpt lat="48.52968" lon="2.04783">
        <ele>92</ele>
        <time>2026-02-02T10:43:34Z</time>
      </trkpt>
      <trkpt lat="48.52969" lon="2.04773">
        <ele>92</ele>
        <time>2026-02-02T10:43:35Z</time>
      </trkpt>
      <trkpt lat="48.52969" lon="2.04763">
        <ele>92.4</ele>
        <time>2026-02-02T10:43:36Z</time>
      </trkpt>
      <trkpt lat="48.5297" lon="2.04753">
        <ele>92.4</ele>
        <time>2026-02-02T10:43:37Z</time>
      </trkpt>
      <trkpt lat="48.5297" lon="2.04743">
        <ele>92.4</ele>
        <time>2026-02-02T10:43:38Z</time>
      </trkpt>
      <trkpt lat="48.52969" lon="2.04733">
        <ele>92.4</ele>
        <time>2026-02-02T10:43:39Z</time>
      </trkpt>
      <trkpt lat="48.52969" lon="2.04723">
        <ele>92.2</ele>
        <time>2026-02-02T10:43:40Z</time>
      </trkpt>
      <trkpt lat="48.52968" lon="2.04713">
        <ele>92.2</ele>
        <time>2026-02-02T10:43:41Z</time>
      </trkpt>
      <trkpt lat="48.52968" lon="2.04702">
        <ele>92.2</ele>
        <time>2026-02-02T10:43:42Z</time>
      </trkpt>
      <trkpt lat="48.52968" lon="2.04692">
        <ele>92.2</ele>
        <time>2026-02-02T10:43:43Z</time>
      </trkpt>
      <trkpt lat="48.52969" lon="2.04682">
        <ele>91.2</ele>
        <time>2026-02-02T10:43:44Z</time>
      </trkpt>
      <trkpt lat="48.52968" lon="2.04672">
        <ele>91.2</ele>
        <time>2026-02-02T10:43:45Z</time>
      </trkpt>
      <trkpt lat="48.52968" lon="2.04663">
        <ele>91.2</ele>
        <time>2026-02-02T10:43:46Z</time>
      </trkpt>
      <trkpt lat="48.52967" lon="2.04655">
        <ele>91.2</ele>
        <time>2026-02-02T10:43:47Z</time>
      </trkpt>
      <trkpt lat="48.52966" lon="2.0465">
        <ele>92.2</ele>
        <time>2026-02-02T10:43:48Z</time>
      </trkpt>
      <trkpt lat="48.52966" lon="2.04647">
        <ele>92.4</ele>
        <time>2026-02-02T10:43:49Z</time>
      </trkpt>
      <trkpt lat="48.52966" lon="2.04645">
        <ele>92.4</ele>
        <time>2026-02-02T10:43:50Z</time>
      </trkpt>
      <trkpt lat="48.52966" lon="2.04645">
        <ele>92.4</ele>
        <time>2026-02-02T10:43:51Z</time>
      </trkpt>
      <trkpt lat="48.52966" lon="2.04645">
        <ele>92.4</ele>
        <time>2026-02-02T10:43:52Z</time>
      </trkpt>
      <trkpt lat="48.52966" lon="2.04645">
        <ele>92.2</ele>
        <time>2026-02-02T10:43:53Z</time>
      </trkpt>
      <trkpt lat="48.52962" lon="2.04641">
        <ele>92.6</ele>
        <time>2026-02-02T10:43:58Z</time>
      </trkpt>
      <trkpt lat="48.5296" lon="2.04641">
        <ele>92.6</ele>
        <time>2026-02-02T10:43:59Z</time>
      </trkpt>
      <trkpt lat="48.52957" lon="2.04641">
        <ele>92.6</ele>
        <time>2026-02-02T10:44:00Z</time>
      </trkpt>
      <trkpt lat="48.52955" lon="2.04641">
        <ele>93</ele>
        <time>2026-02-02T10:44:01Z</time>
      </trkpt>
      <trkpt lat="48.52953" lon="2.04642">
        <ele>93</ele>
        <time>2026-02-02T10:44:02Z</time>
      </trkpt>
      <trkpt lat="48.5295" lon="2.04643">
        <ele>93</ele>
        <time>2026-02-02T10:44:03Z</time>
      </trkpt>
      <trkpt lat="48.52948" lon="2.04644">
        <ele>93</ele>
        <time>2026-02-02T10:44:04Z</time>
      </trkpt>
      <trkpt lat="48.52945" lon="2.04645">
        <ele>93.6</ele>
        <time>2026-02-02T10:44:05Z</time>
      </trkpt>
      <trkpt lat="48.52942" lon="2.04646">
        <ele>93.6</ele>
        <time>2026-02-02T10:44:06Z</time>
      </trkpt>
      <trkpt lat="48.52939" lon="2.04648">
        <ele>93.6</ele>
        <time>2026-02-02T10:44:07Z</time>
      </trkpt>
      <trkpt lat="48.52936" lon="2.04649">
        <ele>94.6</ele>
        <time>2026-02-02T10:44:08Z</time>
      </trkpt>
      <trkpt lat="48.52933" lon="2.0465">
        <ele>94.6</ele>
        <time>2026-02-02T10:44:09Z</time>
      </trkpt>
      <trkpt lat="48.5293" lon="2.04652">
        <ele>94.6</ele>
        <time>2026-02-02T10:44:10Z</time>
      </trkpt>
      <trkpt lat="48.52927" lon="2.04653">
        <ele>94.6</ele>
        <time>2026-02-02T10:44:11Z</time>
      </trkpt>
      <trkpt lat="48.52924" lon="2.04654">
        <ele>95.2</ele>
        <time>2026-02-02T10:44:12Z</time>
      </trkpt>
      <trkpt lat="48.52921" lon="2.04655">
        <ele>95.4</ele>
        <time>2026-02-02T10:44:13Z</time>
      </trkpt>
      <trkpt lat="48.52918" lon="2.04656">
        <ele>95.4</ele>
        <time>2026-02-02T10:44:14Z</time>
      </trkpt>
      <trkpt lat="48.52915" lon="2.04657">
        <ele>95.4</ele>
        <time>2026-02-02T10:44:15Z</time>
      </trkpt>
      <trkpt lat="48.52912" lon="2.04658">
        <ele>95.4</ele>
        <time>2026-02-02T10:44:16Z</time>
      </trkpt>
      <trkpt lat="48.52909" lon="2.04659">
        <ele>95.8</ele>
        <time>2026-02-02T10:44:17Z</time>
      </trkpt>
      <trkpt lat="48.52906" lon="2.0466">
        <ele>95.8</ele>
        <time>2026-02-02T10:44:18Z</time>
      </trkpt>
      <trkpt lat="48.52904" lon="2.04661">
        <ele>95.8</ele>
        <time>2026-02-02T10:44:19Z</time>
      </trkpt>
      <trkpt lat="48.52901" lon="2.04662">
        <ele>96.6</ele>
        <time>2026-02-02T10:44:20Z</time>
      </trkpt>
      <trkpt lat="48.52898" lon="2.04662">
        <ele>96.8</ele>
        <time>2026-02-02T10:44:21Z</time>
      </trkpt>
      <trkpt lat="48.52895" lon="2.04663">
        <ele>96.8</ele>
        <time>2026-02-02T10:44:22Z</time>
      </trkpt>
      <trkpt lat="48.52892" lon="2.04663">
        <ele>96.8</ele>
        <time>2026-02-02T10:44:23Z</time>
      </trkpt>
      <trkpt lat="48.5289" lon="2.04663">
        <ele>97.4</ele>
        <time>2026-02-02T10:44:24Z</time>
      </trkpt>
      <trkpt lat="48.52887" lon="2.04663">
        <ele>97.4</ele>
        <time>2026-02-02T10:44:25Z</time>
      </trkpt>
      <trkpt lat="48.52885" lon="2.04664">
        <ele>97.4</ele>
        <time>2026-02-02T10:44:26Z</time>
      </trkpt>
      <trkpt lat="48.52882" lon="2.04664">
        <ele>97.4</ele>
        <time>2026-02-02T10:44:27Z</time>
      </trkpt>
      <trkpt lat="48.5288" lon="2.04664">
        <ele>98.4</ele>
        <time>2026-02-02T10:44:28Z</time>
      </trkpt>
      <trkpt lat="48.52877" lon="2.04665">
        <ele>98.4</ele>
        <time>2026-02-02T10:44:29Z</time>
      </trkpt>
      <trkpt lat="48.52874" lon="2.04665">
        <ele>98.4</ele>
        <time>2026-02-02T10:44:30Z</time>
      </trkpt>
      <trkpt lat="48.52872" lon="2.04666">
        <ele>98.4</ele>
        <time>2026-02-02T10:44:31Z</time>
      </trkpt>
      <trkpt lat="48.52869" lon="2.04666">
        <ele>99.4</ele>
        <time>2026-02-02T10:44:32Z</time>
      </trkpt>
      <trkpt lat="48.52866" lon="2.04667">
        <ele>99.4</ele>
        <time>2026-02-02T10:44:33Z</time>
      </trkpt>
      <trkpt lat="48.52863" lon="2.04667">
        <ele>99.4</ele>
        <time>2026-02-02T10:44:34Z</time>
      </trkpt>
      <trkpt lat="48.5286" lon="2.04668">
        <ele>99.4</ele>
        <time>2026-02-02T10:44:35Z</time>
      </trkpt>
      <trkpt lat="48.52857" lon="2.04668">
        <ele>99.6</ele>
        <time>2026-02-02T10:44:36Z</time>
      </trkpt>
      <trkpt lat="48.52854" lon="2.04668">
        <ele>99.6</ele>
        <time>2026-02-02T10:44:37Z</time>
      </trkpt>
      <trkpt lat="48.52851" lon="2.04668">
        <ele>99.6</ele>
        <time>2026-02-02T10:44:38Z</time>
      </trkpt>
      <trkpt lat="48.52848" lon="2.04668">
        <ele>99.6</ele>
        <time>2026-02-02T10:44:39Z</time>
      </trkpt>
      <trkpt lat="48.52846" lon="2.04668">
        <ele>100.6</ele>
        <time>2026-02-02T10:44:40Z</time>
      </trkpt>
      <trkpt lat="48.52843" lon="2.04668">
        <ele>101</ele>
        <time>2026-02-02T10:44:41Z</time>
      </trkpt>
      <trkpt lat="48.52841" lon="2.04666">
        <ele>101</ele>
        <time>2026-02-02T10:44:42Z</time>
      </trkpt>
      <trkpt lat="48.52838" lon="2.04666">
        <ele>101</ele>
        <time>2026-02-02T10:44:43Z</time>
      </trkpt>
      <trkpt lat="48.52836" lon="2.04666">
        <ele>101</ele>
        <time>2026-02-02T10:44:44Z</time>
      </trkpt>
      <trkpt lat="48.52833" lon="2.04666">
        <ele>101.6</ele>
        <time>2026-02-02T10:44:45Z</time>
      </trkpt>
      <trkpt lat="48.5283" lon="2.04665">
        <ele>101.6</ele>
        <time>2026-02-02T10:44:46Z</time>
      </trkpt>
      <trkpt lat="48.52828" lon="2.04665">
        <ele>101.6</ele>
        <time>2026-02-02T10:44:47Z</time>
      </trkpt>
      <trkpt lat="48.52825" lon="2.04665">
        <ele>102.2</ele>
        <time>2026-02-02T10:44:48Z</time>
      </trkpt>
      <trkpt lat="48.52822" lon="2.04665">
        <ele>102.6</ele>
        <time>2026-02-02T10:44:49Z</time>
      </trkpt>
      <trkpt lat="48.5282" lon="2.04665">
        <ele>102.6</ele>
        <time>2026-02-02T10:44:50Z</time>
      </trkpt>
      <trkpt lat="48.52817" lon="2.04666">
        <ele>102.6</ele>
        <time>2026-02-02T10:44:51Z</time>
      </trkpt>
      <trkpt lat="48.52814" lon="2.04667">
        <ele>103.6</ele>
        <time>2026-02-02T10:44:52Z</time>
      </trkpt>
      <trkpt lat="48.52812" lon="2.04667">
        <ele>103.6</ele>
        <time>2026-02-02T10:44:53Z</time>
      </trkpt>
      <trkpt lat="48.52809" lon="2.04668">
        <ele>103.6</ele>
        <time>2026-02-02T10:44:54Z</time>
      </trkpt>
      <trkpt lat="48.52806" lon="2.04668">
        <ele>103.6</ele>
        <time>2026-02-02T10:44:55Z</time>
      </trkpt>
      <trkpt lat="48.52803" lon="2.04669">
        <ele>104.2</ele>
        <time>2026-02-02T10:44:56Z</time>
      </trkpt>
      <trkpt lat="48.528" lon="2.0467">
        <ele>104.2</ele>
        <time>2026-02-02T10:44:57Z</time>
      </trkpt>
      <trkpt lat="48.52798" lon="2.04672">
        <ele>104.2</ele>
        <time>2026-02-02T10:44:58Z</time>
      </trkpt>
      <trkpt lat="48.52795" lon="2.04673">
        <ele>104.2</ele>
        <time>2026-02-02T10:44:59Z</time>
      </trkpt>
      <trkpt lat="48.52792" lon="2.04674">
        <ele>105.2</ele>
        <time>2026-02-02T10:45:00Z</time>
      </trkpt>
      <trkpt lat="48.52789" lon="2.04675">
        <ele>105.4</ele>
        <time>2026-02-02T10:45:01Z</time>
      </trkpt>
      <trkpt lat="48.52786" lon="2.04677">
        <ele>105.4</ele>
        <time>2026-02-02T10:45:02Z</time>
      </trkpt>
      <trkpt lat="48.52783" lon="2.04678">
        <ele>105.4</ele>
        <time>2026-02-02T10:45:03Z</time>
      </trkpt>
      <trkpt lat="48.52781" lon="2.0468">
        <ele>105.4</ele>
        <time>2026-02-02T10:45:04Z</time>
      </trkpt>
      <trkpt lat="48.52778" lon="2.04681">
        <ele>106.2</ele>
        <time>2026-02-02T10:45:05Z</time>
      </trkpt>
      <trkpt lat="48.52775" lon="2.04683">
        <ele>106.2</ele>
        <time>2026-02-02T10:45:06Z</time>
      </trkpt>
      <trkpt lat="48.52772" lon="2.04685">
        <ele>106.2</ele>
        <time>2026-02-02T10:45:07Z</time>
      </trkpt>
      <trkpt lat="48.5277" lon="2.04687">
        <ele>106.2</ele>
        <time>2026-02-02T10:45:08Z</time>
      </trkpt>
      <trkpt lat="48.52767" lon="2.04689">
        <ele>106.8</ele>
        <time>2026-02-02T10:45:09Z</time>
      </trkpt>
      <trkpt lat="48.52765" lon="2.04691">
        <ele>106.8</ele>
        <time>2026-02-02T10:45:10Z</time>
      </trkpt>
      <trkpt lat="48.52762" lon="2.04693">
        <ele>106.8</ele>
        <time>2026-02-02T10:45:11Z</time>
      </trkpt>
      <trkpt lat="48.5276" lon="2.04695">
        <ele>107.4</ele>
        <time>2026-02-02T10:45:12Z</time>
      </trkpt>
      <trkpt lat="48.52757" lon="2.04697">
        <ele>107.2</ele>
        <time>2026-02-02T10:45:13Z</time>
      </trkpt>
      <trkpt lat="48.52754" lon="2.04699">
        <ele>107.2</ele>
        <time>2026-02-02T10:45:14Z</time>
      </trkpt>
      <trkpt lat="48.52752" lon="2.04701">
        <ele>107.2</ele>
        <time>2026-02-02T10:45:15Z</time>
      </trkpt>
      <trkpt lat="48.52749" lon="2.04703">
        <ele>107.6</ele>
        <time>2026-02-02T10:45:16Z</time>
      </trkpt>
      <trkpt lat="48.52747" lon="2.04705">
        <ele>108</ele>
        <time>2026-02-02T10:45:17Z</time>
      </trkpt>
      <trkpt lat="48.52745" lon="2.04707">
        <ele>108</ele>
        <time>2026-02-02T10:45:18Z</time>
      </trkpt>
      <trkpt lat="48.52742" lon="2.04709">
        <ele>108</ele>
        <time>2026-02-02T10:45:19Z</time>
      </trkpt>
      <trkpt lat="48.5274" lon="2.04712">
        <ele>108.2</ele>
        <time>2026-02-02T10:45:20Z</time>
      </trkpt>
      <trkpt lat="48.52737" lon="2.04714">
        <ele>108.6</ele>
        <time>2026-02-02T10:45:21Z</time>
      </trkpt>
      <trkpt lat="48.52734" lon="2.04716">
        <ele>108.6</ele>
        <time>2026-02-02T10:45:22Z</time>
      </trkpt>
      <trkpt lat="48.52732" lon="2.04718">
        <ele>108.6</ele>
        <time>2026-02-02T10:45:23Z</time>
      </trkpt>
      <trkpt lat="48.52729" lon="2.0472">
        <ele>109.4</ele>
        <time>2026-02-02T10:45:24Z</time>
      </trkpt>
      <trkpt lat="48.52727" lon="2.04722">
        <ele>109.6</ele>
        <time>2026-02-02T10:45:25Z</time>
      </trkpt>
      <trkpt lat="48.52724" lon="2.04724">
        <ele>109.6</ele>
        <time>2026-02-02T10:45:26Z</time>
      </trkpt>
      <trkpt lat="48.52722" lon="2.04726">
        <ele>109.6</ele>
        <time>2026-02-02T10:45:27Z</time>
      </trkpt>
      <trkpt lat="48.52719" lon="2.04728">
        <ele>110.2</ele>
        <time>2026-02-02T10:45:28Z</time>
      </trkpt>
      <trkpt lat="48.52717" lon="2.0473">
        <ele>110.2</ele>
        <time>2026-02-02T10:45:29Z</time>
      </trkpt>
      <trkpt lat="48.52715" lon="2.04732">
        <ele>110.2</ele>
        <time>2026-02-02T10:45:30Z</time>
      </trkpt>
      <trkpt lat="48.52712" lon="2.04734">
        <ele>110.2</ele>
        <time>2026-02-02T10:45:31Z</time>
      </trkpt>
      <trkpt lat="48.5271" lon="2.04736">
        <ele>111.2</ele>
        <time>2026-02-02T10:45:32Z</time>
      </trkpt>
      <trkpt lat="48.52708" lon="2.04739">
        <ele>111.4</ele>
        <time>2026-02-02T10:45:33Z</time>
      </trkpt>
      <trkpt lat="48.52705" lon="2.04741">
        <ele>111.4</ele>
        <time>2026-02-02T10:45:34Z</time>
      </trkpt>
      <trkpt lat="48.52703" lon="2.04743">
        <ele>111.4</ele>
        <time>2026-02-02T10:45:35Z</time>
      </trkpt>
      <trkpt lat="48.527" lon="2.04745">
        <ele>111.4</ele>
        <time>2026-02-02T10:45:36Z</time>
      </trkpt>
      <trkpt lat="48.52698" lon="2.04747">
        <ele>112.6</ele>
        <time>2026-02-02T10:45:37Z</time>
      </trkpt>
      <trkpt lat="48.52695" lon="2.04749">
        <ele>112.6</ele>
        <time>2026-02-02T10:45:38Z</time>
      </trkpt>
      <trkpt lat="48.52692" lon="2.04751">
        <ele>112.6</ele>
        <time>2026-02-02T10:45:39Z</time>
      </trkpt>
      <trkpt lat="48.5269" lon="2.04753">
        <ele>112.6</ele>
        <time>2026-02-02T10:45:40Z</time>
      </trkpt>
      <trkpt lat="48.52688" lon="2.04755">
        <ele>113.2</ele>
        <time>2026-02-02T10:45:41Z</time>
      </trkpt>
      <trkpt lat="48.52685" lon="2.04758">
        <ele>113.2</ele>
        <time>2026-02-02T10:45:42Z</time>
      </trkpt>
      <trkpt lat="48.52683" lon="2.0476">
        <ele>113.2</ele>
        <time>2026-02-02T10:45:43Z</time>
      </trkpt>
      <trkpt lat="48.52681" lon="2.04762">
        <ele>113.2</ele>
        <time>2026-02-02T10:45:44Z</time>
      </trkpt>
      <trkpt lat="48.52678" lon="2.04764">
        <ele>114.2</ele>
        <time>2026-02-02T10:45:45Z</time>
      </trkpt>
      <trkpt lat="48.52676" lon="2.04765">
        <ele>114.2</ele>
        <time>2026-02-02T10:45:46Z</time>
      </trkpt>
      <trkpt lat="48.52673" lon="2.04768">
        <ele>114.2</ele>
        <time>2026-02-02T10:45:47Z</time>
      </trkpt>
      <trkpt lat="48.5267" lon="2.0477">
        <ele>114.2</ele>
        <time>2026-02-02T10:45:48Z</time>
      </trkpt>
      <trkpt lat="48.52668" lon="2.04772">
        <ele>114.6</ele>
        <time>2026-02-02T10:45:49Z</time>
      </trkpt>
      <trkpt lat="48.52665" lon="2.04774">
        <ele>114.6</ele>
        <time>2026-02-02T10:45:50Z</time>
      </trkpt>
      <trkpt lat="48.52662" lon="2.04776">
        <ele>114.6</ele>
        <time>2026-02-02T10:45:51Z</time>
      </trkpt>
      <trkpt lat="48.5266" lon="2.04778">
        <ele>115.2</ele>
        <time>2026-02-02T10:45:52Z</time>
      </trkpt>
      <trkpt lat="48.52657" lon="2.0478">
        <ele>115.6</ele>
        <time>2026-02-02T10:45:53Z</time>
      </trkpt>
      <trkpt lat="48.52655" lon="2.04782">
        <ele>115.6</ele>
        <time>2026-02-02T10:45:54Z</time>
      </trkpt>
      <trkpt lat="48.52652" lon="2.04783">
        <ele>115.6</ele>
        <time>2026-02-02T10:45:55Z</time>
      </trkpt>
      <trkpt lat="48.52649" lon="2.04785">
        <ele>115.6</ele>
        <time>2026-02-02T10:45:56Z</time>
      </trkpt>
      <trkpt lat="48.52647" lon="2.04786">
        <ele>116.2</ele>
        <time>2026-02-02T10:45:57Z</time>
      </trkpt>
      <trkpt lat="48.52645" lon="2.04786">
        <ele>116.2</ele>
        <time>2026-02-02T10:45:58Z</time>
      </trkpt>
      <trkpt lat="48.52642" lon="2.04788">
        <ele>116.2</ele>
        <time>2026-02-02T10:45:59Z</time>
      </trkpt>
      <trkpt lat="48.5264" lon="2.04789">
        <ele>116.2</ele>
        <time>2026-02-02T10:46:00Z</time>
      </trkpt>
      <trkpt lat="48.52637" lon="2.04791">
        <ele>116.4</ele>
        <time>2026-02-02T10:46:01Z</time>
      </trkpt>
      <trkpt lat="48.52634" lon="2.04792">
        <ele>116.4</ele>
        <time>2026-02-02T10:46:02Z</time>
      </trkpt>
      <trkpt lat="48.52631" lon="2.04794">
        <ele>116.4</ele>
        <time>2026-02-02T10:46:03Z</time>
      </trkpt>
      <trkpt lat="48.52629" lon="2.04796">
        <ele>116.8</ele>
        <time>2026-02-02T10:46:04Z</time>
      </trkpt>
      <trkpt lat="48.52625" lon="2.04798">
        <ele>117</ele>
        <time>2026-02-02T10:46:05Z</time>
      </trkpt>
      <trkpt lat="48.52622" lon="2.048">
        <ele>117</ele>
        <time>2026-02-02T10:46:06Z</time>
      </trkpt>
      <trkpt lat="48.52619" lon="2.04802">
        <ele>117</ele>
        <time>2026-02-02T10:46:07Z</time>
      </trkpt>
      <trkpt lat="48.52616" lon="2.04805">
        <ele>117</ele>
        <time>2026-02-02T10:46:08Z</time>
      </trkpt>
      <trkpt lat="48.52612" lon="2.04807">
        <ele>117.2</ele>
        <time>2026-02-02T10:46:09Z</time>
      </trkpt>
      <trkpt lat="48.52609" lon="2.0481">
        <ele>117.2</ele>
        <time>2026-02-02T10:46:10Z</time>
      </trkpt>
      <trkpt lat="48.52605" lon="2.04813">
        <ele>117.2</ele>
        <time>2026-02-02T10:46:11Z</time>
      </trkpt>
      <trkpt lat="48.52602" lon="2.04816">
        <ele>117.4</ele>
        <time>2026-02-02T10:46:12Z</time>
      </trkpt>
      <trkpt lat="48.52598" lon="2.04818">
        <ele>117.4</ele>
        <time>2026-02-02T10:46:13Z</time>
      </trkpt>
      <trkpt lat="48.52595" lon="2.04821">
        <ele>117.4</ele>
        <time>2026-02-02T10:46:14Z</time>
      </trkpt>
      <trkpt lat="48.52591" lon="2.04823">
        <ele>117.4</ele>
        <time>2026-02-02T10:46:15Z</time>
      </trkpt>
      <trkpt lat="48.52587" lon="2.04826">
        <ele>117.4</ele>
        <time>2026-02-02T10:46:16Z</time>
      </trkpt>
      <trkpt lat="48.52583" lon="2.04829">
        <ele>117.4</ele>
        <time>2026-02-02T10:46:17Z</time>
      </trkpt>
      <trkpt lat="48.52579" lon="2.04832">
        <ele>117.4</ele>
        <time>2026-02-02T10:46:18Z</time>
      </trkpt>
      <trkpt lat="48.52575" lon="2.04835">
        <ele>117.4</ele>
        <time>2026-02-02T10:46:19Z</time>
      </trkpt>
      <trkpt lat="48.52571" lon="2.04838">
        <ele>117.8</ele>
        <time>2026-02-02T10:46:20Z</time>
      </trkpt>
      <trkpt lat="48.52567" lon="2.04841">
        <ele>117.8</ele>
        <time>2026-02-02T10:46:21Z</time>
      </trkpt>
      <trkpt lat="48.52563" lon="2.04844">
        <ele>117.8</ele>
        <time>2026-02-02T10:46:22Z</time>
      </trkpt>
      <trkpt lat="48.52559" lon="2.04847">
        <ele>117.8</ele>
        <time>2026-02-02T10:46:23Z</time>
      </trkpt>
      <trkpt lat="48.52554" lon="2.0485">
        <ele>118</ele>
        <time>2026-02-02T10:46:24Z</time>
      </trkpt>
      <trkpt lat="48.5255" lon="2.04853">
        <ele>118</ele>
        <time>2026-02-02T10:46:25Z</time>
      </trkpt>
      <trkpt lat="48.52546" lon="2.04856">
        <ele>118</ele>
        <time>2026-02-02T10:46:26Z</time>
      </trkpt>
      <trkpt lat="48.52542" lon="2.04859">
        <ele>118</ele>
        <time>2026-02-02T10:46:27Z</time>
      </trkpt>
      <trkpt lat="48.52537" lon="2.04862">
        <ele>118</ele>
        <time>2026-02-02T10:46:28Z</time>
      </trkpt>
      <trkpt lat="48.52533" lon="2.04865">
        <ele>118.2</ele>
        <time>2026-02-02T10:46:29Z</time>
      </trkpt>
      <trkpt lat="48.52529" lon="2.04868">
        <ele>118.2</ele>
        <time>2026-02-02T10:46:30Z</time>
      </trkpt>
      <trkpt lat="48.52524" lon="2.04871">
        <ele>118.2</ele>
        <time>2026-02-02T10:46:31Z</time>
      </trkpt>
      <trkpt lat="48.5252" lon="2.04874">
        <ele>118.2</ele>
        <time>2026-02-02T10:46:32Z</time>
      </trkpt>
      <trkpt lat="48.52516" lon="2.04877">
        <ele>118</ele>
        <time>2026-02-02T10:46:33Z</time>
      </trkpt>
      <trkpt lat="48.52512" lon="2.0488">
        <ele>118</ele>
        <time>2026-02-02T10:46:34Z</time>
      </trkpt>
      <trkpt lat="48.52508" lon="2.04883">
        <ele>118</ele>
        <time>2026-02-02T10:46:35Z</time>
      </trkpt>
      <trkpt lat="48.52503" lon="2.04885">
        <ele>118.6</ele>
        <time>2026-02-02T10:46:36Z</time>
      </trkpt>
      <trkpt lat="48.52499" lon="2.04888">
        <ele>118.6</ele>
        <time>2026-02-02T10:46:37Z</time>
      </trkpt>
      <trkpt lat="48.52495" lon="2.04892">
        <ele>118.6</ele>
        <time>2026-02-02T10:46:38Z</time>
      </trkpt>
      <trkpt lat="48.52491" lon="2.04894">
        <ele>118.6</ele>
        <time>2026-02-02T10:46:39Z</time>
      </trkpt>
      <trkpt lat="48.52486" lon="2.04897">
        <ele>118.6</ele>
        <time>2026-02-02T10:46:40Z</time>
      </trkpt>
      <trkpt lat="48.52482" lon="2.049">
        <ele>118.8</ele>
        <time>2026-02-02T10:46:41Z</time>
      </trkpt>
      <trkpt lat="48.52478" lon="2.04903">
        <ele>118.8</ele>
        <time>2026-02-02T10:46:42Z</time>
      </trkpt>
      <trkpt lat="48.52474" lon="2.04906">
        <ele>118.8</ele>
        <time>2026-02-02T10:46:43Z</time>
      </trkpt>
      <trkpt lat="48.5247" lon="2.04909">
        <ele>118.8</ele>
        <time>2026-02-02T10:46:44Z</time>
      </trkpt>
      <trkpt lat="48.52466" lon="2.04912">
        <ele>119.2</ele>
        <time>2026-02-02T10:46:45Z</time>
      </trkpt>
      <trkpt lat="48.52462" lon="2.04915">
        <ele>119.2</ele>
        <time>2026-02-02T10:46:46Z</time>
      </trkpt>
      <trkpt lat="48.52458" lon="2.04918">
        <ele>119.2</ele>
        <time>2026-02-02T10:46:47Z</time>
      </trkpt>
      <trkpt lat="48.52454" lon="2.0492">
        <ele>119.4</ele>
        <time>2026-02-02T10:46:48Z</time>
      </trkpt>
      <trkpt lat="48.5245" lon="2.04923">
        <ele>119.4</ele>
        <time>2026-02-02T10:46:49Z</time>
      </trkpt>
      <trkpt lat="48.52445" lon="2.04926">
        <ele>119.4</ele>
        <time>2026-02-02T10:46:50Z</time>
      </trkpt>
      <trkpt lat="48.52441" lon="2.04929">
        <ele>119.4</ele>
        <time>2026-02-02T10:46:51Z</time>
      </trkpt>
      <trkpt lat="48.52437" lon="2.04932">
        <ele>119.4</ele>
        <time>2026-02-02T10:46:52Z</time>
      </trkpt>
      <trkpt lat="48.52433" lon="2.04935">
        <ele>119.8</ele>
        <time>2026-02-02T10:46:53Z</time>
      </trkpt>
      <trkpt lat="48.52429" lon="2.04937">
        <ele>119.8</ele>
        <time>2026-02-02T10:46:54Z</time>
      </trkpt>
      <trkpt lat="48.52426" lon="2.0494">
        <ele>119.8</ele>
        <time>2026-02-02T10:46:55Z</time>
      </trkpt>
      <trkpt lat="48.52422" lon="2.04943">
        <ele>119.8</ele>
        <time>2026-02-02T10:46:56Z</time>
      </trkpt>
      <trkpt lat="48.52418" lon="2.04946">
        <ele>120</ele>
        <time>2026-02-02T10:46:57Z</time>
      </trkpt>
      <trkpt lat="48.52414" lon="2.04948">
        <ele>120</ele>
        <time>2026-02-02T10:46:58Z</time>
      </trkpt>
      <trkpt lat="48.5241" lon="2.04951">
        <ele>120</ele>
        <time>2026-02-02T10:46:59Z</time>
      </trkpt>
      <trkpt lat="48.52406" lon="2.04954">
        <ele>120</ele>
        <time>2026-02-02T10:47:00Z</time>
      </trkpt>
      <trkpt lat="48.52402" lon="2.04957">
        <ele>120</ele>
        <time>2026-02-02T10:47:01Z</time>
      </trkpt>
      <trkpt lat="48.52398" lon="2.04959">
        <ele>120</ele>
        <time>2026-02-02T10:47:02Z</time>
      </trkpt>
      <trkpt lat="48.52395" lon="2.04962">
        <ele>120</ele>
        <time>2026-02-02T10:47:03Z</time>
      </trkpt>
      <trkpt lat="48.52391" lon="2.04965">
        <ele>120.8</ele>
        <time>2026-02-02T10:47:04Z</time>
      </trkpt>
      <trkpt lat="48.52387" lon="2.04968">
        <ele>121</ele>
        <time>2026-02-02T10:47:05Z</time>
      </trkpt>
      <trkpt lat="48.52383" lon="2.0497">
        <ele>121</ele>
        <time>2026-02-02T10:47:06Z</time>
      </trkpt>
      <trkpt lat="48.52379" lon="2.04973">
        <ele>121</ele>
        <time>2026-02-02T10:47:07Z</time>
      </trkpt>
      <trkpt lat="48.52374" lon="2.04975">
        <ele>121</ele>
        <time>2026-02-02T10:47:08Z</time>
      </trkpt>
      <trkpt lat="48.5237" lon="2.04978">
        <ele>121.4</ele>
        <time>2026-02-02T10:47:09Z</time>
      </trkpt>
      <trkpt lat="48.52366" lon="2.0498">
        <ele>121.4</ele>
        <time>2026-02-02T10:47:10Z</time>
      </trkpt>
      <trkpt lat="48.52362" lon="2.04982">
        <ele>121.4</ele>
        <time>2026-02-02T10:47:11Z</time>
      </trkpt>
      <trkpt lat="48.52358" lon="2.04984">
        <ele>121.6</ele>
        <time>2026-02-02T10:47:12Z</time>
      </trkpt>
      <trkpt lat="48.52353" lon="2.04986">
        <ele>122</ele>
        <time>2026-02-02T10:47:13Z</time>
      </trkpt>
      <trkpt lat="48.52349" lon="2.04988">
        <ele>122</ele>
        <time>2026-02-02T10:47:14Z</time>
      </trkpt>
      <trkpt lat="48.52345" lon="2.0499">
        <ele>122</ele>
        <time>2026-02-02T10:47:15Z</time>
      </trkpt>
      <trkpt lat="48.5234" lon="2.04992">
        <ele>122</ele>
        <time>2026-02-02T10:47:16Z</time>
      </trkpt>
      <trkpt lat="48.52336" lon="2.04993">
        <ele>122</ele>
        <time>2026-02-02T10:47:17Z</time>
      </trkpt>
      <trkpt lat="48.52331" lon="2.04994">
        <ele>122</ele>
        <time>2026-02-02T10:47:18Z</time>
      </trkpt>
      <trkpt lat="48.52327" lon="2.04994">
        <ele>122</ele>
        <time>2026-02-02T10:47:19Z</time>
      </trkpt>
      <trkpt lat="48.52323" lon="2.04995">
        <ele>122</ele>
        <time>2026-02-02T10:47:20Z</time>
      </trkpt>
      <trkpt lat="48.52318" lon="2.04995">
        <ele>122.6</ele>
        <time>2026-02-02T10:47:21Z</time>
      </trkpt>
      <trkpt lat="48.52314" lon="2.04995">
        <ele>122.6</ele>
        <time>2026-02-02T10:47:22Z</time>
      </trkpt>
      <trkpt lat="48.5231" lon="2.04995">
        <ele>122.6</ele>
        <time>2026-02-02T10:47:23Z</time>
      </trkpt>
      <trkpt lat="48.52305" lon="2.04995">
        <ele>122.6</ele>
        <time>2026-02-02T10:47:24Z</time>
      </trkpt>
      <trkpt lat="48.52301" lon="2.04994">
        <ele>122.8</ele>
        <time>2026-02-02T10:47:25Z</time>
      </trkpt>
      <trkpt lat="48.52297" lon="2.04993">
        <ele>122.8</ele>
        <time>2026-02-02T10:47:26Z</time>
      </trkpt>
      <trkpt lat="48.52293" lon="2.04992">
        <ele>122.8</ele>
        <time>2026-02-02T10:47:27Z</time>
      </trkpt>
      <trkpt lat="48.52289" lon="2.04991">
        <ele>122.8</ele>
        <time>2026-02-02T10:47:28Z</time>
      </trkpt>
      <trkpt lat="48.52284" lon="2.0499">
        <ele>122.8</ele>
        <time>2026-02-02T10:47:29Z</time>
      </trkpt>
      <trkpt lat="48.5228" lon="2.04988">
        <ele>122.8</ele>
        <time>2026-02-02T10:47:30Z</time>
      </trkpt>
      <trkpt lat="48.52276" lon="2.04986">
        <ele>122.8</ele>
        <time>2026-02-02T10:47:31Z</time>
      </trkpt>
      <trkpt lat="48.52272" lon="2.04984">
        <ele>123.2</ele>
        <time>2026-02-02T10:47:32Z</time>
      </trkpt>
      <trkpt lat="48.52268" lon="2.04982">
        <ele>123.4</ele>
        <time>2026-02-02T10:47:33Z</time>
      </trkpt>
      <trkpt lat="48.52264" lon="2.04979">
        <ele>123.4</ele>
        <time>2026-02-02T10:47:34Z</time>
      </trkpt>
      <trkpt lat="48.5226" lon="2.04977">
        <ele>123.4</ele>
        <time>2026-02-02T10:47:35Z</time>
      </trkpt>
      <trkpt lat="48.52256" lon="2.04974">
        <ele>124</ele>
        <time>2026-02-02T10:47:36Z</time>
      </trkpt>
      <trkpt lat="48.52252" lon="2.04971">
        <ele>123.8</ele>
        <time>2026-02-02T10:47:37Z</time>
      </trkpt>
      <trkpt lat="48.52248" lon="2.04968">
        <ele>123.8</ele>
        <time>2026-02-02T10:47:38Z</time>
      </trkpt>
      <trkpt lat="48.52244" lon="2.04965">
        <ele>123.8</ele>
        <time>2026-02-02T10:47:39Z</time>
      </trkpt>
      <trkpt lat="48.52239" lon="2.04962">
        <ele>124</ele>
        <time>2026-02-02T10:47:40Z</time>
      </trkpt>
      <trkpt lat="48.52235" lon="2.04958">
        <ele>124.2</ele>
        <time>2026-02-02T10:47:41Z</time>
      </trkpt>
      <trkpt lat="48.52231" lon="2.04955">
        <ele>124.2</ele>
        <time>2026-02-02T10:47:42Z</time>
      </trkpt>
      <trkpt lat="48.52227" lon="2.04952">
        <ele>124.2</ele>
        <time>2026-02-02T10:47:43Z</time>
      </trkpt>
      <trkpt lat="48.52223" lon="2.04949">
        <ele>125.2</ele>
        <time>2026-02-02T10:47:44Z</time>
      </trkpt>
      <trkpt lat="48.52219" lon="2.04946">
        <ele>124.8</ele>
        <time>2026-02-02T10:47:45Z</time>
      </trkpt>
      <trkpt lat="48.52215" lon="2.04943">
        <ele>124.8</ele>
        <time>2026-02-02T10:47:46Z</time>
      </trkpt>
      <trkpt lat="48.52211" lon="2.0494">
        <ele>124.8</ele>
        <time>2026-02-02T10:47:47Z</time>
      </trkpt>
      <trkpt lat="48.52207" lon="2.04937">
        <ele>124.8</ele>
        <time>2026-02-02T10:47:48Z</time>
      </trkpt>
      <trkpt lat="48.52203" lon="2.04934">
        <ele>124.8</ele>
        <time>2026-02-02T10:47:49Z</time>
      </trkpt>
      <trkpt lat="48.52199" lon="2.04931">
        <ele>124.8</ele>
        <time>2026-02-02T10:47:50Z</time>
      </trkpt>
      <trkpt lat="48.52195" lon="2.04928">
        <ele>124.8</ele>
        <time>2026-02-02T10:47:51Z</time>
      </trkpt>
      <trkpt lat="48.52191" lon="2.04924">
        <ele>125.2</ele>
        <time>2026-02-02T10:47:52Z</time>
      </trkpt>
      <trkpt lat="48.52187" lon="2.04921">
        <ele>125</ele>
        <time>2026-02-02T10:47:53Z</time>
      </trkpt>
      <trkpt lat="48.52183" lon="2.04917">
        <ele>125</ele>
        <time>2026-02-02T10:47:54Z</time>
      </trkpt>
      <trkpt lat="48.52179" lon="2.04914">
        <ele>125</ele>
        <time>2026-02-02T10:47:55Z</time>
      </trkpt>
      <trkpt lat="48.52175" lon="2.04911">
        <ele>125.2</ele>
        <time>2026-02-02T10:47:56Z</time>
      </trkpt>
      <trkpt lat="48.52171" lon="2.04908">
        <ele>125.8</ele>
        <time>2026-02-02T10:47:57Z</time>
      </trkpt>
      <trkpt lat="48.52167" lon="2.04905">
        <ele>125.8</ele>
        <time>2026-02-02T10:47:58Z</time>
      </trkpt>
      <trkpt lat="48.52162" lon="2.04901">
        <ele>125.8</ele>
        <time>2026-02-02T10:47:59Z</time>
      </trkpt>
      <trkpt lat="48.52158" lon="2.04898">
        <ele>125.2</ele>
        <time>2026-02-02T10:48:00Z</time>
      </trkpt>
      <trkpt lat="48.52154" lon="2.04895">
        <ele>125.2</ele>
        <time>2026-02-02T10:48:01Z</time>
      </trkpt>
      <trkpt lat="48.5215" lon="2.04892">
        <ele>125.2</ele>
        <time>2026-02-02T10:48:02Z</time>
      </trkpt>
      <trkpt lat="48.52146" lon="2.04889">
        <ele>125.2</ele>
        <time>2026-02-02T10:48:03Z</time>
      </trkpt>
      <trkpt lat="48.52142" lon="2.04886">
        <ele>126</ele>
        <time>2026-02-02T10:48:04Z</time>
      </trkpt>
      <trkpt lat="48.52138" lon="2.04883">
        <ele>126.2</ele>
        <time>2026-02-02T10:48:05Z</time>
      </trkpt>
      <trkpt lat="48.52134" lon="2.04879">
        <ele>126.2</ele>
        <time>2026-02-02T10:48:06Z</time>
      </trkpt>
      <trkpt lat="48.5213" lon="2.04876">
        <ele>126.2</ele>
        <time>2026-02-02T10:48:07Z</time>
      </trkpt>
      <trkpt lat="48.52126" lon="2.04873">
        <ele>126.2</ele>
        <time>2026-02-02T10:48:08Z</time>
      </trkpt>
      <trkpt lat="48.52122" lon="2.0487">
        <ele>126.4</ele>
        <time>2026-02-02T10:48:09Z</time>
      </trkpt>
      <trkpt lat="48.52118" lon="2.04867">
        <ele>126.4</ele>
        <time>2026-02-02T10:48:10Z</time>
      </trkpt>
      <trkpt lat="48.52114" lon="2.04864">
        <ele>126.4</ele>
        <time>2026-02-02T10:48:11Z</time>
      </trkpt>
      <trkpt lat="48.5211" lon="2.0486">
        <ele>126.4</ele>
        <time>2026-02-02T10:48:12Z</time>
      </trkpt>
      <trkpt lat="48.52106" lon="2.04857">
        <ele>126.4</ele>
        <time>2026-02-02T10:48:13Z</time>
      </trkpt>
      <trkpt lat="48.52102" lon="2.04854">
        <ele>126.4</ele>
        <time>2026-02-02T10:48:14Z</time>
      </trkpt>
      <trkpt lat="48.52098" lon="2.04851">
        <ele>126.4</ele>
        <time>2026-02-02T10:48:15Z</time>
      </trkpt>
      <trkpt lat="48.52094" lon="2.04848">
        <ele>126.4</ele>
        <time>2026-02-02T10:48:16Z</time>
      </trkpt>
      <trkpt lat="48.5209" lon="2.04844">
        <ele>126.4</ele>
        <time>2026-02-02T10:48:17Z</time>
      </trkpt>
      <trkpt lat="48.52086" lon="2.04841">
        <ele>126.4</ele>
        <time>2026-02-02T10:48:18Z</time>
      </trkpt>
      <trkpt lat="48.52081" lon="2.04838">
        <ele>126.4</ele>
        <time>2026-02-02T10:48:19Z</time>
      </trkpt>
      <trkpt lat="48.52077" lon="2.04835">
        <ele>127.4</ele>
        <time>2026-02-02T10:48:20Z</time>
      </trkpt>
      <trkpt lat="48.52073" lon="2.04832">
        <ele>127.4</ele>
        <time>2026-02-02T10:48:21Z</time>
      </trkpt>
      <trkpt lat="48.52069" lon="2.04828">
        <ele>127.4</ele>
        <time>2026-02-02T10:48:22Z</time>
      </trkpt>
      <trkpt lat="48.52065" lon="2.04825">
        <ele>127.4</ele>
        <time>2026-02-02T10:48:23Z</time>
      </trkpt>
      <trkpt lat="48.52061" lon="2.04822">
        <ele>127</ele>
        <time>2026-02-02T10:48:24Z</time>
      </trkpt>
      <trkpt lat="48.52057" lon="2.04819">
        <ele>127.2</ele>
        <time>2026-02-02T10:48:25Z</time>
      </trkpt>
      <trkpt lat="48.52052" lon="2.04816">
        <ele>127.2</ele>
        <time>2026-02-02T10:48:26Z</time>
      </trkpt>
      <trkpt lat="48.52048" lon="2.04812">
        <ele>127.2</ele>
        <time>2026-02-02T10:48:27Z</time>
      </trkpt>
      <trkpt lat="48.52044" lon="2.04809">
        <ele>127.8</ele>
        <time>2026-02-02T10:48:28Z</time>
      </trkpt>
      <trkpt lat="48.5204" lon="2.04806">
        <ele>127.8</ele>
        <time>2026-02-02T10:48:29Z</time>
      </trkpt>
      <trkpt lat="48.52035" lon="2.04802">
        <ele>127.8</ele>
        <time>2026-02-02T10:48:30Z</time>
      </trkpt>
      <trkpt lat="48.52031" lon="2.048">
        <ele>127.8</ele>
        <time>2026-02-02T10:48:31Z</time>
      </trkpt>
      <trkpt lat="48.52026" lon="2.04797">
        <ele>128.6</ele>
        <time>2026-02-02T10:48:32Z</time>
      </trkpt>
      <trkpt lat="48.52022" lon="2.04795">
        <ele>128.2</ele>
        <time>2026-02-02T10:48:33Z</time>
      </trkpt>
      <trkpt lat="48.52017" lon="2.04792">
        <ele>128.2</ele>
        <time>2026-02-02T10:48:34Z</time>
      </trkpt>
      <trkpt lat="48.52013" lon="2.0479">
        <ele>128.2</ele>
        <time>2026-02-02T10:48:35Z</time>
      </trkpt>
      <trkpt lat="48.52008" lon="2.04789">
        <ele>128.2</ele>
        <time>2026-02-02T10:48:36Z</time>
      </trkpt>
      <trkpt lat="48.52003" lon="2.04788">
        <ele>128.2</ele>
        <time>2026-02-02T10:48:37Z</time>
      </trkpt>
      <trkpt lat="48.51998" lon="2.04788">
        <ele>128.2</ele>
        <time>2026-02-02T10:48:38Z</time>
      </trkpt>
      <trkpt lat="48.51994" lon="2.04789">
        <ele>128.2</ele>
        <time>2026-02-02T10:48:39Z</time>
      </trkpt>
      <trkpt lat="48.51989" lon="2.04791">
        <ele>128.4</ele>
        <time>2026-02-02T10:48:40Z</time>
      </trkpt>
      <trkpt lat="48.51984" lon="2.04793">
        <ele>128.6</ele>
        <time>2026-02-02T10:48:41Z</time>
      </trkpt>
      <trkpt lat="48.5198" lon="2.04796">
        <ele>128.6</ele>
        <time>2026-02-02T10:48:42Z</time>
      </trkpt>
      <trkpt lat="48.51975" lon="2.04799">
        <ele>128.6</ele>
        <time>2026-02-02T10:48:43Z</time>
      </trkpt>
      <trkpt lat="48.51971" lon="2.04803">
        <ele>128.6</ele>
        <time>2026-02-02T10:48:44Z</time>
      </trkpt>
      <trkpt lat="48.51968" lon="2.04808">
        <ele>128.8</ele>
        <time>2026-02-02T10:48:45Z</time>
      </trkpt>
      <trkpt lat="48.51964" lon="2.04813">
        <ele>128.8</ele>
        <time>2026-02-02T10:48:46Z</time>
      </trkpt>
      <trkpt lat="48.51961" lon="2.04818">
        <ele>128.8</ele>
        <time>2026-02-02T10:48:47Z</time>
      </trkpt>
      <trkpt lat="48.51958" lon="2.04823">
        <ele>128.8</ele>
        <time>2026-02-02T10:48:48Z</time>
      </trkpt>
      <trkpt lat="48.51955" lon="2.04829">
        <ele>129.2</ele>
        <time>2026-02-02T10:48:49Z</time>
      </trkpt>
      <trkpt lat="48.51953" lon="2.04835">
        <ele>129.2</ele>
        <time>2026-02-02T10:48:50Z</time>
      </trkpt>
      <trkpt lat="48.51951" lon="2.04842">
        <ele>129.2</ele>
        <time>2026-02-02T10:48:51Z</time>
      </trkpt>
      <trkpt lat="48.51949" lon="2.04848">
        <ele>129.2</ele>
        <time>2026-02-02T10:48:52Z</time>
      </trkpt>
      <trkpt lat="48.51948" lon="2.04855">
        <ele>129.6</ele>
        <time>2026-02-02T10:48:53Z</time>
      </trkpt>
      <trkpt lat="48.51947" lon="2.04862">
        <ele>129.6</ele>
        <time>2026-02-02T10:48:54Z</time>
      </trkpt>
      <trkpt lat="48.51946" lon="2.04868">
        <ele>129.6</ele>
        <time>2026-02-02T10:48:55Z</time>
      </trkpt>
      <trkpt lat="48.51945" lon="2.04875">
        <ele>130.6</ele>
        <time>2026-02-02T10:48:56Z</time>
      </trkpt>
      <trkpt lat="48.51944" lon="2.04881">
        <ele>130.4</ele>
        <time>2026-02-02T10:48:57Z</time>
      </trkpt>
      <trkpt lat="48.51944" lon="2.04887">
        <ele>130.4</ele>
        <time>2026-02-02T10:48:58Z</time>
      </trkpt>
      <trkpt lat="48.51944" lon="2.04892">
        <ele>130.4</ele>
        <time>2026-02-02T10:48:59Z</time>
      </trkpt>
      <trkpt lat="48.51944" lon="2.04898">
        <ele>131.4</ele>
        <time>2026-02-02T10:49:00Z</time>
      </trkpt>
      <trkpt lat="48.51943" lon="2.04902">
        <ele>131.4</ele>
        <time>2026-02-02T10:49:01Z</time>
      </trkpt>
      <trkpt lat="48.51944" lon="2.04908">
        <ele>131.4</ele>
        <time>2026-02-02T10:49:02Z</time>
      </trkpt>
      <trkpt lat="48.51944" lon="2.04912">
        <ele>131.4</ele>
        <time>2026-02-02T10:49:03Z</time>
      </trkpt>
      <trkpt lat="48.51945" lon="2.04918">
        <ele>131.8</ele>
        <time>2026-02-02T10:49:04Z</time>
      </trkpt>
      <trkpt lat="48.51946" lon="2.04923">
        <ele>131.8</ele>
        <time>2026-02-02T10:49:05Z</time>
      </trkpt>
      <trkpt lat="48.51946" lon="2.04928">
        <ele>131.8</ele>
        <time>2026-02-02T10:49:06Z</time>
      </trkpt>
      <trkpt lat="48.51947" lon="2.04934">
        <ele>131.8</ele>
        <time>2026-02-02T10:49:07Z</time>
      </trkpt>
      <trkpt lat="48.51949" lon="2.04938">
        <ele>132.4</ele>
        <time>2026-02-02T10:49:08Z</time>
      </trkpt>
      <trkpt lat="48.51949" lon="2.04944">
        <ele>132.6</ele>
        <time>2026-02-02T10:49:09Z</time>
      </trkpt>
      <trkpt lat="48.51948" lon="2.04949">
        <ele>132.6</ele>
        <time>2026-02-02T10:49:10Z</time>
      </trkpt>
      <trkpt lat="48.51948" lon="2.04954">
        <ele>132.6</ele>
        <time>2026-02-02T10:49:11Z</time>
      </trkpt>
      <trkpt lat="48.51947" lon="2.04959">
        <ele>133</ele>
        <time>2026-02-02T10:49:12Z</time>
      </trkpt>
      <trkpt lat="48.51947" lon="2.04964">
        <ele>133.4</ele>
        <time>2026-02-02T10:49:13Z</time>
      </trkpt>
      <trkpt lat="48.51947" lon="2.04969">
        <ele>133.4</ele>
        <time>2026-02-02T10:49:14Z</time>
      </trkpt>
      <trkpt lat="48.51947" lon="2.04974">
        <ele>133.4</ele>
        <time>2026-02-02T10:49:15Z</time>
      </trkpt>
      <trkpt lat="48.51947" lon="2.04978">
        <ele>134.2</ele>
        <time>2026-02-02T10:49:16Z</time>
      </trkpt>
      <trkpt lat="48.51946" lon="2.04982">
        <ele>134.2</ele>
        <time>2026-02-02T10:49:17Z</time>
      </trkpt>
      <trkpt lat="48.51945" lon="2.04986">
        <ele>134.2</ele>
        <time>2026-02-02T10:49:18Z</time>
      </trkpt>
      <trkpt lat="48.51944" lon="2.0499">
        <ele>134.2</ele>
        <time>2026-02-02T10:49:19Z</time>
      </trkpt>
      <trkpt lat="48.51942" lon="2.04994">
        <ele>134.2</ele>
        <time>2026-02-02T10:49:20Z</time>
      </trkpt>
      <trkpt lat="48.51941" lon="2.04998">
        <ele>134.8</ele>
        <time>2026-02-02T10:49:21Z</time>
      </trkpt>
      <trkpt lat="48.5194" lon="2.05002">
        <ele>134.8</ele>
        <time>2026-02-02T10:49:22Z</time>
      </trkpt>
      <trkpt lat="48.51938" lon="2.05005">
        <ele>134.8</ele>
        <time>2026-02-02T10:49:23Z</time>
      </trkpt>
      <trkpt lat="48.51936" lon="2.05009">
        <ele>135.8</ele>
        <time>2026-02-02T10:49:24Z</time>
      </trkpt>
      <trkpt lat="48.51934" lon="2.05012">
        <ele>135.6</ele>
        <time>2026-02-02T10:49:25Z</time>
      </trkpt>
      <trkpt lat="48.51933" lon="2.05015">
        <ele>135.6</ele>
        <time>2026-02-02T10:49:26Z</time>
      </trkpt>
      <trkpt lat="48.5193" lon="2.05018">
        <ele>135.6</ele>
        <time>2026-02-02T10:49:27Z</time>
      </trkpt>
      <trkpt lat="48.51928" lon="2.05021">
        <ele>136.6</ele>
        <time>2026-02-02T10:49:28Z</time>
      </trkpt>
      <trkpt lat="48.51925" lon="2.05023">
        <ele>137.4</ele>
        <time>2026-02-02T10:49:29Z</time>
      </trkpt>
      <trkpt lat="48.51922" lon="2.05026">
        <ele>137.4</ele>
        <time>2026-02-02T10:49:30Z</time>
      </trkpt>
      <trkpt lat="48.5192" lon="2.05029">
        <ele>137.4</ele>
        <time>2026-02-02T10:49:31Z</time>
      </trkpt>
      <trkpt lat="48.51917" lon="2.05032">
        <ele>138</ele>
        <time>2026-02-02T10:49:32Z</time>
      </trkpt>
      <trkpt lat="48.51915" lon="2.05035">
        <ele>138.4</ele>
        <time>2026-02-02T10:49:33Z</time>
      </trkpt>
      <trkpt lat="48.51913" lon="2.05037">
        <ele>138.4</ele>
        <time>2026-02-02T10:49:34Z</time>
      </trkpt>
      <trkpt lat="48.5191" lon="2.05041">
        <ele>138.4</ele>
        <time>2026-02-02T10:49:35Z</time>
      </trkpt>
      <trkpt lat="48.51908" lon="2.05044">
        <ele>138.4</ele>
        <time>2026-02-02T10:49:36Z</time>
      </trkpt>
      <trkpt lat="48.51906" lon="2.05047">
        <ele>138.4</ele>
        <time>2026-02-02T10:49:37Z</time>
      </trkpt>
      <trkpt lat="48.51903" lon="2.0505">
        <ele>138.4</ele>
        <time>2026-02-02T10:49:38Z</time>
      </trkpt>
      <trkpt lat="48.51901" lon="2.05054">
        <ele>138.4</ele>
        <time>2026-02-02T10:49:39Z</time>
      </trkpt>
      <trkpt lat="48.51899" lon="2.05058">
        <ele>139.2</ele>
        <time>2026-02-02T10:49:40Z</time>
      </trkpt>
      <trkpt lat="48.51898" lon="2.05061">
        <ele>139.2</ele>
        <time>2026-02-02T10:49:41Z</time>
      </trkpt>
      <trkpt lat="48.51896" lon="2.05065">
        <ele>139.2</ele>
        <time>2026-02-02T10:49:42Z</time>
      </trkpt>
      <trkpt lat="48.51895" lon="2.0507">
        <ele>139.2</ele>
        <time>2026-02-02T10:49:43Z</time>
      </trkpt>
      <trkpt lat="48.51893" lon="2.05074">
        <ele>139.2</ele>
        <time>2026-02-02T10:49:44Z</time>
      </trkpt>
      <trkpt lat="48.51894" lon="2.05079">
        <ele>140</ele>
        <time>2026-02-02T10:49:45Z</time>
      </trkpt>
      <trkpt lat="48.51893" lon="2.05084">
        <ele>140</ele>
        <time>2026-02-02T10:49:46Z</time>
      </trkpt>
      <trkpt lat="48.51893" lon="2.05089">
        <ele>140</ele>
        <time>2026-02-02T10:49:47Z</time>
      </trkpt>
      <trkpt lat="48.51893" lon="2.05094">
        <ele>140.4</ele>
        <time>2026-02-02T10:49:48Z</time>
      </trkpt>
      <trkpt lat="48.51893" lon="2.051">
        <ele>140.4</ele>
        <time>2026-02-02T10:49:49Z</time>
      </trkpt>
      <trkpt lat="48.51893" lon="2.05105">
        <ele>140.4</ele>
        <time>2026-02-02T10:49:50Z</time>
      </trkpt>
      <trkpt lat="48.51893" lon="2.0511">
        <ele>140.4</ele>
        <time>2026-02-02T10:49:51Z</time>
      </trkpt>
      <trkpt lat="48.51893" lon="2.05115">
        <ele>141.4</ele>
        <time>2026-02-02T10:49:52Z</time>
      </trkpt>
      <trkpt lat="48.51893" lon="2.0512">
        <ele>141.6</ele>
        <time>2026-02-02T10:49:53Z</time>
      </trkpt>
      <trkpt lat="48.51894" lon="2.05126">
        <ele>141.6</ele>
        <time>2026-02-02T10:49:54Z</time>
      </trkpt>
      <trkpt lat="48.51894" lon="2.05132">
        <ele>141.6</ele>
        <time>2026-02-02T10:49:55Z</time>
      </trkpt>
      <trkpt lat="48.51895" lon="2.05138">
        <ele>141.6</ele>
        <time>2026-02-02T10:49:56Z</time>
      </trkpt>
      <trkpt lat="48.51896" lon="2.05144">
        <ele>142.2</ele>
        <time>2026-02-02T10:49:57Z</time>
      </trkpt>
      <trkpt lat="48.51896" lon="2.0515">
        <ele>142.2</ele>
        <time>2026-02-02T10:49:58Z</time>
      </trkpt>
      <trkpt lat="48.51897" lon="2.05156">
        <ele>142.2</ele>
        <time>2026-02-02T10:49:59Z</time>
      </trkpt>
      <trkpt lat="48.51898" lon="2.05162">
        <ele>142.2</ele>
        <time>2026-02-02T10:50:00Z</time>
      </trkpt>
      <trkpt lat="48.51898" lon="2.05167">
        <ele>142.8</ele>
        <time>2026-02-02T10:50:01Z</time>
      </trkpt>
      <trkpt lat="48.51898" lon="2.05173">
        <ele>142.8</ele>
        <time>2026-02-02T10:50:02Z</time>
      </trkpt>
      <trkpt lat="48.51898" lon="2.05178">
        <ele>142.8</ele>
        <time>2026-02-02T10:50:03Z</time>
      </trkpt>
      <trkpt lat="48.51898" lon="2.05183">
        <ele>143.6</ele>
        <time>2026-02-02T10:50:04Z</time>
      </trkpt>
      <trkpt lat="48.51899" lon="2.05188">
        <ele>143.4</ele>
        <time>2026-02-02T10:50:05Z</time>
      </trkpt>
      <trkpt lat="48.51899" lon="2.05193">
        <ele>143.4</ele>
        <time>2026-02-02T10:50:06Z</time>
      </trkpt>
      <trkpt lat="48.51899" lon="2.05198">
        <ele>143.4</ele>
        <time>2026-02-02T10:50:07Z</time>
      </trkpt>
      <trkpt lat="48.519" lon="2.05203">
        <ele>144.4</ele>
        <time>2026-02-02T10:50:08Z</time>
      </trkpt>
      <trkpt lat="48.519" lon="2.05209">
        <ele>144.4</ele>
        <time>2026-02-02T10:50:09Z</time>
      </trkpt>
      <trkpt lat="48.519" lon="2.05214">
        <ele>144.4</ele>
        <time>2026-02-02T10:50:10Z</time>
      </trkpt>
      <trkpt lat="48.519" lon="2.05219">
        <ele>144.4</ele>
        <time>2026-02-02T10:50:11Z</time>
      </trkpt>
      <trkpt lat="48.519" lon="2.05224">
        <ele>145</ele>
        <time>2026-02-02T10:50:12Z</time>
      </trkpt>
      <trkpt lat="48.519" lon="2.05229">
        <ele>145.2</ele>
        <time>2026-02-02T10:50:13Z</time>
      </trkpt>
      <trkpt lat="48.519" lon="2.05234">
        <ele>145.2</ele>
        <time>2026-02-02T10:50:14Z</time>
      </trkpt>
      <trkpt lat="48.519" lon="2.05239">
        <ele>145.2</ele>
        <time>2026-02-02T10:50:15Z</time>
      </trkpt>
      <trkpt lat="48.519" lon="2.05243">
        <ele>146.2</ele>
        <time>2026-02-02T10:50:16Z</time>
      </trkpt>
      <trkpt lat="48.519" lon="2.05248">
        <ele>146</ele>
        <time>2026-02-02T10:50:17Z</time>
      </trkpt>
      <trkpt lat="48.51901" lon="2.05253">
        <ele>146</ele>
        <time>2026-02-02T10:50:18Z</time>
      </trkpt>
      <trkpt lat="48.51901" lon="2.05257">
        <ele>146</ele>
        <time>2026-02-02T10:50:19Z</time>
      </trkpt>
      <trkpt lat="48.51901" lon="2.05261">
        <ele>146.8</ele>
        <time>2026-02-02T10:50:20Z</time>
      </trkpt>
      <trkpt lat="48.51901" lon="2.05266">
        <ele>147</ele>
        <time>2026-02-02T10:50:21Z</time>
      </trkpt>
      <trkpt lat="48.51901" lon="2.0527">
        <ele>147</ele>
        <time>2026-02-02T10:50:22Z</time>
      </trkpt>
      <trkpt lat="48.51901" lon="2.05275">
        <ele>147</ele>
        <time>2026-02-02T10:50:23Z</time>
      </trkpt>
      <trkpt lat="48.51902" lon="2.0528">
        <ele>147.4</ele>
        <time>2026-02-02T10:50:24Z</time>
      </trkpt>
      <trkpt lat="48.51902" lon="2.05284">
        <ele>147.4</ele>
        <time>2026-02-02T10:50:25Z</time>
      </trkpt>
      <trkpt lat="48.51902" lon="2.05289">
        <ele>147.4</ele>
        <time>2026-02-02T10:50:26Z</time>
      </trkpt>
      <trkpt lat="48.51902" lon="2.05294">
        <ele>147.4</ele>
        <time>2026-02-02T10:50:27Z</time>
      </trkpt>
      <trkpt lat="48.51902" lon="2.05299">
        <ele>147.8</ele>
        <time>2026-02-02T10:50:28Z</time>
      </trkpt>
      <trkpt lat="48.51903" lon="2.05303">
        <ele>148</ele>
        <time>2026-02-02T10:50:29Z</time>
      </trkpt>
      <trkpt lat="48.51903" lon="2.05308">
        <ele>148</ele>
        <time>2026-02-02T10:50:30Z</time>
      </trkpt>
      <trkpt lat="48.51903" lon="2.05313">
        <ele>148</ele>
        <time>2026-02-02T10:50:31Z</time>
      </trkpt>
      <trkpt lat="48.51904" lon="2.05318">
        <ele>148</ele>
        <time>2026-02-02T10:50:32Z</time>
      </trkpt>
      <trkpt lat="48.51904" lon="2.05322">
        <ele>148.8</ele>
        <time>2026-02-02T10:50:33Z</time>
      </trkpt>
      <trkpt lat="48.51904" lon="2.05327">
        <ele>148.8</ele>
        <time>2026-02-02T10:50:34Z</time>
      </trkpt>
      <trkpt lat="48.51905" lon="2.05332">
        <ele>148.8</ele>
        <time>2026-02-02T10:50:35Z</time>
      </trkpt>
      <trkpt lat="48.51905" lon="2.05337">
        <ele>149.6</ele>
        <time>2026-02-02T10:50:36Z</time>
      </trkpt>
      <trkpt lat="48.51905" lon="2.05342">
        <ele>149.4</ele>
        <time>2026-02-02T10:50:37Z</time>
      </trkpt>
      <trkpt lat="48.51905" lon="2.05346">
        <ele>149.4</ele>
        <time>2026-02-02T10:50:38Z</time>
      </trkpt>
      <trkpt lat="48.51906" lon="2.05351">
        <ele>149.4</ele>
        <time>2026-02-02T10:50:39Z</time>
      </trkpt>
      <trkpt lat="48.51906" lon="2.05356">
        <ele>150.2</ele>
        <time>2026-02-02T10:50:40Z</time>
      </trkpt>
      <trkpt lat="48.51906" lon="2.0536">
        <ele>150.2</ele>
        <time>2026-02-02T10:50:41Z</time>
      </trkpt>
      <trkpt lat="48.51906" lon="2.05365">
        <ele>150.2</ele>
        <time>2026-02-02T10:50:42Z</time>
      </trkpt>
      <trkpt lat="48.51906" lon="2.0537">
        <ele>150.2</ele>
        <time>2026-02-02T10:50:43Z</time>
      </trkpt>
      <trkpt lat="48.51907" lon="2.05374">
        <ele>150.6</ele>
        <time>2026-02-02T10:50:44Z</time>
      </trkpt>
      <trkpt lat="48.51907" lon="2.05379">
        <ele>150.8</ele>
        <time>2026-02-02T10:50:45Z</time>
      </trkpt>
      <trkpt lat="48.51907" lon="2.05384">
        <ele>150.8</ele>
        <time>2026-02-02T10:50:46Z</time>
      </trkpt>
      <trkpt lat="48.51907" lon="2.05389">
        <ele>150.8</ele>
        <time>2026-02-02T10:50:47Z</time>
      </trkpt>
      <trkpt lat="48.51908" lon="2.05393">
        <ele>151.8</ele>
        <time>2026-02-02T10:50:48Z</time>
      </trkpt>
      <trkpt lat="48.51907" lon="2.05398">
        <ele>152</ele>
        <time>2026-02-02T10:50:49Z</time>
      </trkpt>
      <trkpt lat="48.51907" lon="2.05403">
        <ele>152</ele>
        <time>2026-02-02T10:50:50Z</time>
      </trkpt>
      <trkpt lat="48.51906" lon="2.05407">
        <ele>152</ele>
        <time>2026-02-02T10:50:51Z</time>
      </trkpt>
      <trkpt lat="48.51906" lon="2.05412">
        <ele>152.2</ele>
        <time>2026-02-02T10:50:52Z</time>
      </trkpt>
      <trkpt lat="48.51906" lon="2.05416">
        <ele>153</ele>
        <time>2026-02-02T10:50:53Z</time>
      </trkpt>
      <trkpt lat="48.51906" lon="2.0542">
        <ele>153</ele>
        <time>2026-02-02T10:50:54Z</time>
      </trkpt>
      <trkpt lat="48.51906" lon="2.05423">
        <ele>153</ele>
        <time>2026-02-02T10:50:55Z</time>
      </trkpt>
      <trkpt lat="48.51905" lon="2.05427">
        <ele>153</ele>
        <time>2026-02-02T10:50:56Z</time>
      </trkpt>
      <trkpt lat="48.51904" lon="2.05432">
        <ele>153.4</ele>
        <time>2026-02-02T10:50:57Z</time>
      </trkpt>
      <trkpt lat="48.51903" lon="2.05436">
        <ele>153.4</ele>
        <time>2026-02-02T10:50:58Z</time>
      </trkpt>
      <trkpt lat="48.51902" lon="2.0544">
        <ele>153.4</ele>
        <time>2026-02-02T10:50:59Z</time>
      </trkpt>
      <trkpt lat="48.51902" lon="2.05445">
        <ele>153.4</ele>
        <time>2026-02-02T10:51:00Z</time>
      </trkpt>
      <trkpt lat="48.51902" lon="2.05449">
        <ele>154</ele>
        <time>2026-02-02T10:51:01Z</time>
      </trkpt>
      <trkpt lat="48.51901" lon="2.05454">
        <ele>154</ele>
        <time>2026-02-02T10:51:02Z</time>
      </trkpt>
      <trkpt lat="48.51901" lon="2.05459">
        <ele>154</ele>
        <time>2026-02-02T10:51:03Z</time>
      </trkpt>
      <trkpt lat="48.51902" lon="2.05463">
        <ele>154</ele>
        <time>2026-02-02T10:51:04Z</time>
      </trkpt>
      <trkpt lat="48.51902" lon="2.05468">
        <ele>154.8</ele>
        <time>2026-02-02T10:51:05Z</time>
      </trkpt>
      <trkpt lat="48.51902" lon="2.05472">
        <ele>154.8</ele>
        <time>2026-02-02T10:51:06Z</time>
      </trkpt>
      <trkpt lat="48.51902" lon="2.05476">
        <ele>154.8</ele>
        <time>2026-02-02T10:51:07Z</time>
      </trkpt>
      <trkpt lat="48.51902" lon="2.0548">
        <ele>155.2</ele>
        <time>2026-02-02T10:51:08Z</time>
      </trkpt>
      <trkpt lat="48.51902" lon="2.05484">
        <ele>155.4</ele>
        <time>2026-02-02T10:51:09Z</time>
      </trkpt>
      <trkpt lat="48.51901" lon="2.05487">
        <ele>155.4</ele>
        <time>2026-02-02T10:51:10Z</time>
      </trkpt>
      <trkpt lat="48.519" lon="2.05489">
        <ele>155.4</ele>
        <time>2026-02-02T10:51:11Z</time>
      </trkpt>
      <trkpt lat="48.519" lon="2.05493">
        <ele>156</ele>
        <time>2026-02-02T10:51:12Z</time>
      </trkpt>
      <trkpt lat="48.51899" lon="2.05496">
        <ele>156.4</ele>
        <time>2026-02-02T10:51:13Z</time>
      </trkpt>
      <trkpt lat="48.51898" lon="2.055">
        <ele>156.4</ele>
        <time>2026-02-02T10:51:14Z</time>
      </trkpt>
      <trkpt lat="48.51897" lon="2.05504">
        <ele>156.4</ele>
        <time>2026-02-02T10:51:15Z</time>
      </trkpt>
      <trkpt lat="48.51895" lon="2.05506">
        <ele>156.4</ele>
        <time>2026-02-02T10:51:16Z</time>
      </trkpt>
      <trkpt lat="48.51894" lon="2.05509">
        <ele>156.6</ele>
        <time>2026-02-02T10:51:17Z</time>
      </trkpt>
      <trkpt lat="48.51892" lon="2.05512">
        <ele>156.6</ele>
        <time>2026-02-02T10:51:18Z</time>
      </trkpt>
      <trkpt lat="48.5189" lon="2.05515">
        <ele>156.6</ele>
        <time>2026-02-02T10:51:19Z</time>
      </trkpt>
      <trkpt lat="48.51888" lon="2.05518">
        <ele>157.4</ele>
        <time>2026-02-02T10:51:20Z</time>
      </trkpt>
      <trkpt lat="48.51886" lon="2.0552">
        <ele>157.6</ele>
        <time>2026-02-02T10:51:21Z</time>
      </trkpt>
      <trkpt lat="48.51884" lon="2.05522">
        <ele>157.6</ele>
        <time>2026-02-02T10:51:22Z</time>
      </trkpt>
      <trkpt lat="48.51881" lon="2.05524">
        <ele>157.6</ele>
        <time>2026-02-02T10:51:23Z</time>
      </trkpt>
      <trkpt lat="48.51879" lon="2.05526">
        <ele>157.6</ele>
        <time>2026-02-02T10:51:24Z</time>
      </trkpt>
      <trkpt lat="48.51876" lon="2.05527">
        <ele>158.4</ele>
        <time>2026-02-02T10:51:25Z</time>
      </trkpt>
      <trkpt lat="48.51873" lon="2.05528">
        <ele>158.4</ele>
        <time>2026-02-02T10:51:26Z</time>
      </trkpt>
      <trkpt lat="48.5187" lon="2.05529">
        <ele>158.4</ele>
        <time>2026-02-02T10:51:27Z</time>
      </trkpt>
      <trkpt lat="48.51868" lon="2.05531">
        <ele>158.4</ele>
        <time>2026-02-02T10:51:28Z</time>
      </trkpt>
      <trkpt lat="48.51865" lon="2.05533">
        <ele>159.4</ele>
        <time>2026-02-02T10:51:29Z</time>
      </trkpt>
      <trkpt lat="48.51863" lon="2.05536">
        <ele>159.4</ele>
        <time>2026-02-02T10:51:30Z</time>
      </trkpt>
      <trkpt lat="48.51861" lon="2.05539">
        <ele>159.4</ele>
        <time>2026-02-02T10:51:31Z</time>
      </trkpt>
      <trkpt lat="48.51859" lon="2.05542">
        <ele>159.8</ele>
        <time>2026-02-02T10:51:32Z</time>
      </trkpt>
      <trkpt lat="48.51856" lon="2.05545">
        <ele>160</ele>
        <time>2026-02-02T10:51:33Z</time>
      </trkpt>
      <trkpt lat="48.51853" lon="2.05548">
        <ele>160</ele>
        <time>2026-02-02T10:51:34Z</time>
      </trkpt>
      <trkpt lat="48.5185" lon="2.0555">
        <ele>160</ele>
        <time>2026-02-02T10:51:35Z</time>
      </trkpt>
      <trkpt lat="48.51847" lon="2.05552">
        <ele>160</ele>
        <time>2026-02-02T10:51:36Z</time>
      </trkpt>
      <trkpt lat="48.51844" lon="2.05555">
        <ele>160.6</ele>
        <time>2026-02-02T10:51:37Z</time>
      </trkpt>
      <trkpt lat="48.51841" lon="2.05558">
        <ele>160.6</ele>
        <time>2026-02-02T10:51:38Z</time>
      </trkpt>
      <trkpt lat="48.51838" lon="2.0556">
        <ele>160.6</ele>
        <time>2026-02-02T10:51:39Z</time>
      </trkpt>
      <trkpt lat="48.51835" lon="2.05562">
        <ele>160.6</ele>
        <time>2026-02-02T10:51:40Z</time>
      </trkpt>
      <trkpt lat="48.51832" lon="2.05565">
        <ele>161.2</ele>
        <time>2026-02-02T10:51:41Z</time>
      </trkpt>
      <trkpt lat="48.51829" lon="2.05567">
        <ele>161.2</ele>
        <time>2026-02-02T10:51:42Z</time>
      </trkpt>
      <trkpt lat="48.51826" lon="2.0557">
        <ele>161.2</ele>
        <time>2026-02-02T10:51:43Z</time>
      </trkpt>
      <trkpt lat="48.51823" lon="2.05573">
        <ele>161.6</ele>
        <time>2026-02-02T10:51:44Z</time>
      </trkpt>
      <trkpt lat="48.5182" lon="2.05576">
        <ele>161.8</ele>
        <time>2026-02-02T10:51:45Z</time>
      </trkpt>
      <trkpt lat="48.51816" lon="2.05579">
        <ele>161.8</ele>
        <time>2026-02-02T10:51:46Z</time>
      </trkpt>
      <trkpt lat="48.51813" lon="2.05582">
        <ele>161.8</ele>
        <time>2026-02-02T10:51:47Z</time>
      </trkpt>
      <trkpt lat="48.51809" lon="2.05585">
        <ele>161.8</ele>
        <time>2026-02-02T10:51:48Z</time>
      </trkpt>
      <trkpt lat="48.51806" lon="2.05588">
        <ele>162.6</ele>
        <time>2026-02-02T10:51:49Z</time>
      </trkpt>
      <trkpt lat="48.51802" lon="2.05591">
        <ele>162.6</ele>
        <time>2026-02-02T10:51:50Z</time>
      </trkpt>
      <trkpt lat="48.51799" lon="2.05594">
        <ele>162.6</ele>
        <time>2026-02-02T10:51:51Z</time>
      </trkpt>
      <trkpt lat="48.51795" lon="2.05597">
        <ele>162.6</ele>
        <time>2026-02-02T10:51:52Z</time>
      </trkpt>
      <trkpt lat="48.51792" lon="2.05599">
        <ele>163</ele>
        <time>2026-02-02T10:51:53Z</time>
      </trkpt>
      <trkpt lat="48.51788" lon="2.05602">
        <ele>163</ele>
        <time>2026-02-02T10:51:54Z</time>
      </trkpt>
      <trkpt lat="48.51785" lon="2.05604">
        <ele>163</ele>
        <time>2026-02-02T10:51:55Z</time>
      </trkpt>
      <trkpt lat="48.51781" lon="2.05607">
        <ele>163</ele>
        <time>2026-02-02T10:51:56Z</time>
      </trkpt>
      <trkpt lat="48.51777" lon="2.05611">
        <ele>163.4</ele>
        <time>2026-02-02T10:51:57Z</time>
      </trkpt>
      <trkpt lat="48.51773" lon="2.05614">
        <ele>163.4</ele>
        <time>2026-02-02T10:51:58Z</time>
      </trkpt>
      <trkpt lat="48.51769" lon="2.05616">
        <ele>163.4</ele>
        <time>2026-02-02T10:51:59Z</time>
      </trkpt>
      <trkpt lat="48.51766" lon="2.05619">
        <ele>163.4</ele>
        <time>2026-02-02T10:52:00Z</time>
      </trkpt>
      <trkpt lat="48.51762" lon="2.05622">
        <ele>164</ele>
        <time>2026-02-02T10:52:01Z</time>
      </trkpt>
      <trkpt lat="48.51758" lon="2.05624">
        <ele>164</ele>
        <time>2026-02-02T10:52:02Z</time>
      </trkpt>
      <trkpt lat="48.51753" lon="2.05627">
        <ele>164</ele>
        <time>2026-02-02T10:52:03Z</time>
      </trkpt>
      <trkpt lat="48.51749" lon="2.05629">
        <ele>163.6</ele>
        <time>2026-02-02T10:52:04Z</time>
      </trkpt>
      <trkpt lat="48.51744" lon="2.05631">
        <ele>163.4</ele>
        <time>2026-02-02T10:52:05Z</time>
      </trkpt>
      <trkpt lat="48.5174" lon="2.05633">
        <ele>163.4</ele>
        <time>2026-02-02T10:52:06Z</time>
      </trkpt>
      <trkpt lat="48.51736" lon="2.05633">
        <ele>163.4</ele>
        <time>2026-02-02T10:52:07Z</time>
      </trkpt>
      <trkpt lat="48.51733" lon="2.05633">
        <ele>163.8</ele>
        <time>2026-02-02T10:52:08Z</time>
      </trkpt>
      <trkpt lat="48.5173" lon="2.05634">
        <ele>163.6</ele>
        <time>2026-02-02T10:52:09Z</time>
      </trkpt>
      <trkpt lat="48.51728" lon="2.05635">
        <ele>163.6</ele>
        <time>2026-02-02T10:52:10Z</time>
      </trkpt>
      <trkpt lat="48.51725" lon="2.05635">
        <ele>163.6</ele>
        <time>2026-02-02T10:52:11Z</time>
      </trkpt>
      <trkpt lat="48.51724" lon="2.05633">
        <ele>163.4</ele>
        <time>2026-02-02T10:52:12Z</time>
      </trkpt>
      <trkpt lat="48.51724" lon="2.05632">
        <ele>163.2</ele>
        <time>2026-02-02T10:52:13Z</time>
      </trkpt>
      <trkpt lat="48.51724" lon="2.05631">
        <ele>163.2</ele>
        <time>2026-02-02T10:52:14Z</time>
      </trkpt>
      <trkpt lat="48.51724" lon="2.05631">
        <ele>163.2</ele>
        <time>2026-02-02T10:52:15Z</time>
      </trkpt>
      <trkpt lat="48.51724" lon="2.05631">
        <ele>163.2</ele>
        <time>2026-02-02T10:52:16Z</time>
      </trkpt>
      <trkpt lat="48.51724" lon="2.05631">
        <ele>163.2</ele>
        <time>2026-02-02T10:52:17Z</time>
      </trkpt>
      <trkpt lat="48.5171" lon="2.0565">
        <ele>163</ele>
        <time>2026-02-02T10:54:55Z</time>
      </trkpt>
      <trkpt lat="48.51707" lon="2.05651">
        <ele>163</ele>
        <time>2026-02-02T10:54:56Z</time>
      </trkpt>
      <trkpt lat="48.51705" lon="2.05652">
        <ele>162.8</ele>
        <time>2026-02-02T10:54:57Z</time>
      </trkpt>
      <trkpt lat="48.51702" lon="2.05653">
        <ele>162.8</ele>
        <time>2026-02-02T10:54:58Z</time>
      </trkpt>
      <trkpt lat="48.51699" lon="2.05654">
        <ele>162.8</ele>
        <time>2026-02-02T10:54:59Z</time>
      </trkpt>
      <trkpt lat="48.51697" lon="2.05655">
        <ele>162.8</ele>
        <time>2026-02-02T10:55:00Z</time>
      </trkpt>
      <trkpt lat="48.51693" lon="2.05657">
        <ele>162.6</ele>
        <time>2026-02-02T10:55:01Z</time>
      </trkpt>
      <trkpt lat="48.5169" lon="2.0566">
        <ele>162.6</ele>
        <time>2026-02-02T10:55:02Z</time>
      </trkpt>
      <trkpt lat="48.51685" lon="2.05663">
        <ele>162.6</ele>
        <time>2026-02-02T10:55:03Z</time>
      </trkpt>
      <trkpt lat="48.5168" lon="2.05665">
        <ele>161.6</ele>
        <time>2026-02-02T10:55:04Z</time>
      </trkpt>
      <trkpt lat="48.51675" lon="2.05667">
        <ele>161.8</ele>
        <time>2026-02-02T10:55:05Z</time>
      </trkpt>
      <trkpt lat="48.5167" lon="2.0567">
        <ele>161.8</ele>
        <time>2026-02-02T10:55:06Z</time>
      </trkpt>
      <trkpt lat="48.51666" lon="2.05673">
        <ele>161.8</ele>
        <time>2026-02-02T10:55:07Z</time>
      </trkpt>
      <trkpt lat="48.51661" lon="2.05676">
        <ele>161.8</ele>
        <time>2026-02-02T10:55:08Z</time>
      </trkpt>
      <trkpt lat="48.51655" lon="2.05678">
        <ele>161.4</ele>
        <time>2026-02-02T10:55:09Z</time>
      </trkpt>
      <trkpt lat="48.5165" lon="2.05681">
        <ele>161.4</ele>
        <time>2026-02-02T10:55:10Z</time>
      </trkpt>
      <trkpt lat="48.51645" lon="2.05684">
        <ele>161.4</ele>
        <time>2026-02-02T10:55:11Z</time>
      </trkpt>
      <trkpt lat="48.51639" lon="2.05687">
        <ele>161.4</ele>
        <time>2026-02-02T10:55:12Z</time>
      </trkpt>
      <trkpt lat="48.51634" lon="2.0569">
        <ele>161.2</ele>
        <time>2026-02-02T10:55:13Z</time>
      </trkpt>
      <trkpt lat="48.51628" lon="2.05694">
        <ele>161.2</ele>
        <time>2026-02-02T10:55:14Z</time>
      </trkpt>
      <trkpt lat="48.51623" lon="2.05697">
        <ele>161.2</ele>
        <time>2026-02-02T10:55:15Z</time>
      </trkpt>
      <trkpt lat="48.51617" lon="2.057">
        <ele>160.6</ele>
        <time>2026-02-02T10:55:16Z</time>
      </trkpt>
      <trkpt lat="48.51611" lon="2.05704">
        <ele>161</ele>
        <time>2026-02-02T10:55:17Z</time>
      </trkpt>
      <trkpt lat="48.51607" lon="2.05709">
        <ele>161</ele>
        <time>2026-02-02T10:55:18Z</time>
      </trkpt>
      <trkpt lat="48.51604" lon="2.05716">
        <ele>161</ele>
        <time>2026-02-02T10:55:19Z</time>
      </trkpt>
      <trkpt lat="48.51602" lon="2.05725">
        <ele>161</ele>
        <time>2026-02-02T10:55:20Z</time>
      </trkpt>
      <trkpt lat="48.51602" lon="2.05733">
        <ele>160.6</ele>
        <time>2026-02-02T10:55:21Z</time>
      </trkpt>
      <trkpt lat="48.51603" lon="2.05741">
        <ele>160.6</ele>
        <time>2026-02-02T10:55:22Z</time>
      </trkpt>
      <trkpt lat="48.51603" lon="2.0575">
        <ele>160.6</ele>
        <time>2026-02-02T10:55:23Z</time>
      </trkpt>
      <trkpt lat="48.51604" lon="2.05759">
        <ele>161</ele>
        <time>2026-02-02T10:55:24Z</time>
      </trkpt>
      <trkpt lat="48.51605" lon="2.05768">
        <ele>160.6</ele>
        <time>2026-02-02T10:55:25Z</time>
      </trkpt>
      <trkpt lat="48.51607" lon="2.05777">
        <ele>160.6</ele>
        <time>2026-02-02T10:55:26Z</time>
      </trkpt>
      <trkpt lat="48.5161" lon="2.05785">
        <ele>160.6</ele>
        <time>2026-02-02T10:55:27Z</time>
      </trkpt>
      <trkpt lat="48.51613" lon="2.05794">
        <ele>160.4</ele>
        <time>2026-02-02T10:55:28Z</time>
      </trkpt>
      <trkpt lat="48.51616" lon="2.05802">
        <ele>160.8</ele>
        <time>2026-02-02T10:55:29Z</time>
      </trkpt>
      <trkpt lat="48.5162" lon="2.0581">
        <ele>160.8</ele>
        <time>2026-02-02T10:55:30Z</time>
      </trkpt>
      <trkpt lat="48.51624" lon="2.05818">
        <ele>160.8</ele>
        <time>2026-02-02T10:55:31Z</time>
      </trkpt>
      <trkpt lat="48.51627" lon="2.05826">
        <ele>159.8</ele>
        <time>2026-02-02T10:55:32Z</time>
      </trkpt>
      <trkpt lat="48.51631" lon="2.05834">
        <ele>160.2</ele>
        <time>2026-02-02T10:55:33Z</time>
      </trkpt>
      <trkpt lat="48.51635" lon="2.05843">
        <ele>160.2</ele>
        <time>2026-02-02T10:55:34Z</time>
      </trkpt>
      <trkpt lat="48.51638" lon="2.05851">
        <ele>160.2</ele>
        <time>2026-02-02T10:55:35Z</time>
      </trkpt>
      <trkpt lat="48.51642" lon="2.0586">
        <ele>160.2</ele>
        <time>2026-02-02T10:55:36Z</time>
      </trkpt>
      <trkpt lat="48.51646" lon="2.05868">
        <ele>160</ele>
        <time>2026-02-02T10:55:37Z</time>
      </trkpt>
      <trkpt lat="48.51649" lon="2.05876">
        <ele>160</ele>
        <time>2026-02-02T10:55:38Z</time>
      </trkpt>
      <trkpt lat="48.51653" lon="2.05884">
        <ele>160</ele>
        <time>2026-02-02T10:55:39Z</time>
      </trkpt>
      <trkpt lat="48.51657" lon="2.05893">
        <ele>160</ele>
        <time>2026-02-02T10:55:40Z</time>
      </trkpt>
      <trkpt lat="48.51661" lon="2.05901">
        <ele>160</ele>
        <time>2026-02-02T10:55:41Z</time>
      </trkpt>
      <trkpt lat="48.51665" lon="2.0591">
        <ele>160</ele>
        <time>2026-02-02T10:55:42Z</time>
      </trkpt>
      <trkpt lat="48.51668" lon="2.05918">
        <ele>160</ele>
        <time>2026-02-02T10:55:43Z</time>
      </trkpt>
      <trkpt lat="48.51672" lon="2.05927">
        <ele>159.8</ele>
        <time>2026-02-02T10:55:44Z</time>
      </trkpt>
      <trkpt lat="48.51676" lon="2.05935">
        <ele>159.4</ele>
        <time>2026-02-02T10:55:45Z</time>
      </trkpt>
      <trkpt lat="48.5168" lon="2.05944">
        <ele>159.4</ele>
        <time>2026-02-02T10:55:46Z</time>
      </trkpt>
      <trkpt lat="48.51684" lon="2.05952">
        <ele>159.4</ele>
        <time>2026-02-02T10:55:47Z</time>
      </trkpt>
      <trkpt lat="48.51688" lon="2.05961">
        <ele>159.4</ele>
        <time>2026-02-02T10:55:48Z</time>
      </trkpt>
      <trkpt lat="48.51692" lon="2.05969">
        <ele>159.4</ele>
        <time>2026-02-02T10:55:49Z</time>
      </trkpt>
      <trkpt lat="48.51696" lon="2.05977">
        <ele>159.6</ele>
        <time>2026-02-02T10:55:50Z</time>
      </trkpt>
      <trkpt lat="48.517" lon="2.05986">
        <ele>159.6</ele>
        <time>2026-02-02T10:55:51Z</time>
      </trkpt>
      <trkpt lat="48.51704" lon="2.05994">
        <ele>159.6</ele>
        <time>2026-02-02T10:55:52Z</time>
      </trkpt>
      <trkpt lat="48.51707" lon="2.06003">
        <ele>159.2</ele>
        <time>2026-02-02T10:55:53Z</time>
      </trkpt>
      <trkpt lat="48.51711" lon="2.06011">
        <ele>159.2</ele>
        <time>2026-02-02T10:55:54Z</time>
      </trkpt>
      <trkpt lat="48.51715" lon="2.0602">
        <ele>159.2</ele>
        <time>2026-02-02T10:55:55Z</time>
      </trkpt>
      <trkpt lat="48.51719" lon="2.06028">
        <ele>159.2</ele>
        <time>2026-02-02T10:55:56Z</time>
      </trkpt>
      <trkpt lat="48.51722" lon="2.06038">
        <ele>159</ele>
        <time>2026-02-02T10:55:57Z</time>
      </trkpt>
      <trkpt lat="48.51726" lon="2.06047">
        <ele>159</ele>
        <time>2026-02-02T10:55:58Z</time>
      </trkpt>
      <trkpt lat="48.51728" lon="2.06057">
        <ele>159</ele>
        <time>2026-02-02T10:55:59Z</time>
      </trkpt>
      <trkpt lat="48.51731" lon="2.06067">
        <ele>159</ele>
        <time>2026-02-02T10:56:00Z</time>
      </trkpt>
      <trkpt lat="48.51732" lon="2.06077">
        <ele>159</ele>
        <time>2026-02-02T10:56:01Z</time>
      </trkpt>
      <trkpt lat="48.51734" lon="2.06087">
        <ele>159</ele>
        <time>2026-02-02T10:56:02Z</time>
      </trkpt>
      <trkpt lat="48.51734" lon="2.06098">
        <ele>159</ele>
        <time>2026-02-02T10:56:03Z</time>
      </trkpt>
      <trkpt lat="48.51734" lon="2.06108">
        <ele>158.8</ele>
        <time>2026-02-02T10:56:04Z</time>
      </trkpt>
      <trkpt lat="48.51734" lon="2.06118">
        <ele>158.2</ele>
        <time>2026-02-02T10:56:05Z</time>
      </trkpt>
      <trkpt lat="48.51733" lon="2.06128">
        <ele>158.2</ele>
        <time>2026-02-02T10:56:06Z</time>
      </trkpt>
      <trkpt lat="48.51732" lon="2.06138">
        <ele>158.2</ele>
        <time>2026-02-02T10:56:07Z</time>
      </trkpt>
      <trkpt lat="48.51732" lon="2.06148">
        <ele>158.8</ele>
        <time>2026-02-02T10:56:08Z</time>
      </trkpt>
      <trkpt lat="48.51731" lon="2.06158">
        <ele>158.4</ele>
        <time>2026-02-02T10:56:09Z</time>
      </trkpt>
      <trkpt lat="48.5173" lon="2.06168">
        <ele>158.4</ele>
        <time>2026-02-02T10:56:10Z</time>
      </trkpt>
      <trkpt lat="48.51729" lon="2.06178">
        <ele>158.4</ele>
        <time>2026-02-02T10:56:11Z</time>
      </trkpt>
      <trkpt lat="48.51728" lon="2.06189">
        <ele>158.4</ele>
        <time>2026-02-02T10:56:12Z</time>
      </trkpt>
      <trkpt lat="48.51727" lon="2.06199">
        <ele>158.4</ele>
        <time>2026-02-02T10:56:13Z</time>
      </trkpt>
      <trkpt lat="48.51726" lon="2.06209">
        <ele>158.4</ele>
        <time>2026-02-02T10:56:14Z</time>
      </trkpt>
      <trkpt lat="48.51725" lon="2.0622">
        <ele>158.4</ele>
        <time>2026-02-02T10:56:15Z</time>
      </trkpt>
      <trkpt lat="48.51724" lon="2.0623">
        <ele>158.4</ele>
        <time>2026-02-02T10:56:16Z</time>
      </trkpt>
      <trkpt lat="48.51723" lon="2.0624">
        <ele>158.6</ele>
        <time>2026-02-02T10:56:17Z</time>
      </trkpt>
      <trkpt lat="48.51722" lon="2.06251">
        <ele>158.6</ele>
        <time>2026-02-02T10:56:18Z</time>
      </trkpt>
      <trkpt lat="48.51721" lon="2.06261">
        <ele>158.6</ele>
        <time>2026-02-02T10:56:19Z</time>
      </trkpt>
      <trkpt lat="48.5172" lon="2.06272">
        <ele>158.6</ele>
        <time>2026-02-02T10:56:20Z</time>
      </trkpt>
      <trkpt lat="48.5172" lon="2.06282">
        <ele>158.2</ele>
        <time>2026-02-02T10:56:21Z</time>
      </trkpt>
      <trkpt lat="48.51719" lon="2.06293">
        <ele>158.2</ele>
        <time>2026-02-02T10:56:22Z</time>
      </trkpt>
      <trkpt lat="48.51718" lon="2.06303">
        <ele>158.2</ele>
        <time>2026-02-02T10:56:23Z</time>
      </trkpt>
      <trkpt lat="48.51717" lon="2.06314">
        <ele>158.2</ele>
        <time>2026-02-02T10:56:24Z</time>
      </trkpt>
      <trkpt lat="48.51716" lon="2.06324">
        <ele>157.6</ele>
        <time>2026-02-02T10:56:25Z</time>
      </trkpt>
      <trkpt lat="48.51716" lon="2.06334">
        <ele>157.6</ele>
        <time>2026-02-02T10:56:26Z</time>
      </trkpt>
      <trkpt lat="48.51715" lon="2.06344">
        <ele>157.6</ele>
        <time>2026-02-02T10:56:27Z</time>
      </trkpt>
      <trkpt lat="48.51714" lon="2.06354">
        <ele>158.2</ele>
        <time>2026-02-02T10:56:28Z</time>
      </trkpt>
      <trkpt lat="48.51713" lon="2.06364">
        <ele>158.2</ele>
        <time>2026-02-02T10:56:29Z</time>
      </trkpt>
      <trkpt lat="48.51712" lon="2.06374">
        <ele>158.2</ele>
        <time>2026-02-02T10:56:30Z</time>
      </trkpt>
      <trkpt lat="48.51712" lon="2.06384">
        <ele>158.2</ele>
        <time>2026-02-02T10:56:31Z</time>
      </trkpt>
      <trkpt lat="48.51711" lon="2.06394">
        <ele>157.6</ele>
        <time>2026-02-02T10:56:32Z</time>
      </trkpt>
      <trkpt lat="48.5171" lon="2.06403">
        <ele>157.4</ele>
        <time>2026-02-02T10:56:33Z</time>
      </trkpt>
      <trkpt lat="48.51709" lon="2.06413">
        <ele>157.4</ele>
        <time>2026-02-02T10:56:34Z</time>
      </trkpt>
      <trkpt lat="48.51708" lon="2.06423">
        <ele>157.4</ele>
        <time>2026-02-02T10:56:35Z</time>
      </trkpt>
      <trkpt lat="48.51707" lon="2.06432">
        <ele>157.6</ele>
        <time>2026-02-02T10:56:36Z</time>
      </trkpt>
      <trkpt lat="48.51707" lon="2.06441">
        <ele>157.6</ele>
        <time>2026-02-02T10:56:37Z</time>
      </trkpt>
      <trkpt lat="48.51706" lon="2.06451">
        <ele>157.6</ele>
        <time>2026-02-02T10:56:38Z</time>
      </trkpt>
      <trkpt lat="48.51705" lon="2.0646">
        <ele>157.6</ele>
        <time>2026-02-02T10:56:39Z</time>
      </trkpt>
      <trkpt lat="48.51704" lon="2.06469">
        <ele>157.6</ele>
        <time>2026-02-02T10:56:40Z</time>
      </trkpt>
      <trkpt lat="48.51704" lon="2.06479">
        <ele>157.4</ele>
        <time>2026-02-02T10:56:41Z</time>
      </trkpt>
      <trkpt lat="48.51703" lon="2.06488">
        <ele>157.4</ele>
        <time>2026-02-02T10:56:42Z</time>
      </trkpt>
      <trkpt lat="48.51702" lon="2.06497">
        <ele>157.4</ele>
        <time>2026-02-02T10:56:43Z</time>
      </trkpt>
      <trkpt lat="48.51701" lon="2.06506">
        <ele>157.4</ele>
        <time>2026-02-02T10:56:44Z</time>
      </trkpt>
      <trkpt lat="48.51701" lon="2.06515">
        <ele>157.2</ele>
        <time>2026-02-02T10:56:45Z</time>
      </trkpt>
      <trkpt lat="48.517" lon="2.06524">
        <ele>157.2</ele>
        <time>2026-02-02T10:56:46Z</time>
      </trkpt>
      <trkpt lat="48.51699" lon="2.06533">
        <ele>157.2</ele>
        <time>2026-02-02T10:56:47Z</time>
      </trkpt>
      <trkpt lat="48.51698" lon="2.06542">
        <ele>157.2</ele>
        <time>2026-02-02T10:56:48Z</time>
      </trkpt>
      <trkpt lat="48.51697" lon="2.06552">
        <ele>157.4</ele>
        <time>2026-02-02T10:56:49Z</time>
      </trkpt>
      <trkpt lat="48.51697" lon="2.0656">
        <ele>157.4</ele>
        <time>2026-02-02T10:56:50Z</time>
      </trkpt>
      <trkpt lat="48.51696" lon="2.06569">
        <ele>157.4</ele>
        <time>2026-02-02T10:56:51Z</time>
      </trkpt>
      <trkpt lat="48.51695" lon="2.06578">
        <ele>157.4</ele>
        <time>2026-02-02T10:56:52Z</time>
      </trkpt>
      <trkpt lat="48.51695" lon="2.06587">
        <ele>157.4</ele>
        <time>2026-02-02T10:56:53Z</time>
      </trkpt>
      <trkpt lat="48.51694" lon="2.06596">
        <ele>157.4</ele>
        <time>2026-02-02T10:56:54Z</time>
      </trkpt>
      <trkpt lat="48.51693" lon="2.06604">
        <ele>157.4</ele>
        <time>2026-02-02T10:56:55Z</time>
      </trkpt>
      <trkpt lat="48.51693" lon="2.06613">
        <ele>157.4</ele>
        <time>2026-02-02T10:56:56Z</time>
      </trkpt>
      <trkpt lat="48.51692" lon="2.06622">
        <ele>157.2</ele>
        <time>2026-02-02T10:56:57Z</time>
      </trkpt>
      <trkpt lat="48.51691" lon="2.06631">
        <ele>157.2</ele>
        <time>2026-02-02T10:56:58Z</time>
      </trkpt>
      <trkpt lat="48.5169" lon="2.0664">
        <ele>157.2</ele>
        <time>2026-02-02T10:56:59Z</time>
      </trkpt>
      <trkpt lat="48.5169" lon="2.06648">
        <ele>157.2</ele>
        <time>2026-02-02T10:57:00Z</time>
      </trkpt>
      <trkpt lat="48.51689" lon="2.06657">
        <ele>157</ele>
        <time>2026-02-02T10:57:01Z</time>
      </trkpt>
      <trkpt lat="48.51688" lon="2.06666">
        <ele>157</ele>
        <time>2026-02-02T10:57:02Z</time>
      </trkpt>
      <trkpt lat="48.51687" lon="2.06675">
        <ele>157</ele>
        <time>2026-02-02T10:57:03Z</time>
      </trkpt>
      <trkpt lat="48.51686" lon="2.06684">
        <ele>157.2</ele>
        <time>2026-02-02T10:57:04Z</time>
      </trkpt>
      <trkpt lat="48.51686" lon="2.06693">
        <ele>157</ele>
        <time>2026-02-02T10:57:05Z</time>
      </trkpt>
      <trkpt lat="48.51685" lon="2.06702">
        <ele>157</ele>
        <time>2026-02-02T10:57:06Z</time>
      </trkpt>
      <trkpt lat="48.51684" lon="2.06711">
        <ele>157</ele>
        <time>2026-02-02T10:57:07Z</time>
      </trkpt>
      <trkpt lat="48.51683" lon="2.0672">
        <ele>157</ele>
        <time>2026-02-02T10:57:08Z</time>
      </trkpt>
      <trkpt lat="48.51683" lon="2.06729">
        <ele>157</ele>
        <time>2026-02-02T10:57:09Z</time>
      </trkpt>
      <trkpt lat="48.51682" lon="2.06738">
        <ele>157</ele>
        <time>2026-02-02T10:57:10Z</time>
      </trkpt>
      <trkpt lat="48.51682" lon="2.06747">
        <ele>157</ele>
        <time>2026-02-02T10:57:11Z</time>
      </trkpt>
      <trkpt lat="48.51681" lon="2.06756">
        <ele>157</ele>
        <time>2026-02-02T10:57:12Z</time>
      </trkpt>
      <trkpt lat="48.51681" lon="2.06765">
        <ele>156.6</ele>
        <time>2026-02-02T10:57:13Z</time>
      </trkpt>
      <trkpt lat="48.51681" lon="2.06775">
        <ele>156.6</ele>
        <time>2026-02-02T10:57:14Z</time>
      </trkpt>
      <trkpt lat="48.51681" lon="2.06784">
        <ele>156.6</ele>
        <time>2026-02-02T10:57:15Z</time>
      </trkpt>
      <trkpt lat="48.51681" lon="2.06793">
        <ele>156.6</ele>
        <time>2026-02-02T10:57:16Z</time>
      </trkpt>
      <trkpt lat="48.51681" lon="2.06802">
        <ele>156</ele>
        <time>2026-02-02T10:57:17Z</time>
      </trkpt>
      <trkpt lat="48.5168" lon="2.06812">
        <ele>156</ele>
        <time>2026-02-02T10:57:18Z</time>
      </trkpt>
      <trkpt lat="48.51681" lon="2.06821">
        <ele>156</ele>
        <time>2026-02-02T10:57:19Z</time>
      </trkpt>
      <trkpt lat="48.51681" lon="2.0683">
        <ele>156.4</ele>
        <time>2026-02-02T10:57:20Z</time>
      </trkpt>
      <trkpt lat="48.51681" lon="2.06839">
        <ele>156.4</ele>
        <time>2026-02-02T10:57:21Z</time>
      </trkpt>
      <trkpt lat="48.51681" lon="2.06849">
        <ele>156.4</ele>
        <time>2026-02-02T10:57:22Z</time>
      </trkpt>
      <trkpt lat="48.51681" lon="2.06858">
        <ele>156.4</ele>
        <time>2026-02-02T10:57:23Z</time>
      </trkpt>
      <trkpt lat="48.51681" lon="2.06867">
        <ele>155.8</ele>
        <time>2026-02-02T10:57:24Z</time>
      </trkpt>
      <trkpt lat="48.51681" lon="2.06877">
        <ele>155.6</ele>
        <time>2026-02-02T10:57:25Z</time>
      </trkpt>
      <trkpt lat="48.51681" lon="2.06886">
        <ele>155.6</ele>
        <time>2026-02-02T10:57:26Z</time>
      </trkpt>
      <trkpt lat="48.51681" lon="2.06896">
        <ele>155.6</ele>
        <time>2026-02-02T10:57:27Z</time>
      </trkpt>
      <trkpt lat="48.51681" lon="2.06905">
        <ele>155.6</ele>
        <time>2026-02-02T10:57:28Z</time>
      </trkpt>
      <trkpt lat="48.51681" lon="2.06915">
        <ele>155</ele>
        <time>2026-02-02T10:57:29Z</time>
      </trkpt>
      <trkpt lat="48.51681" lon="2.06924">
        <ele>155</ele>
        <time>2026-02-02T10:57:30Z</time>
      </trkpt>
      <trkpt lat="48.51681" lon="2.06934">
        <ele>155</ele>
        <time>2026-02-02T10:57:31Z</time>
      </trkpt>
      <trkpt lat="48.51681" lon="2.06943">
        <ele>155</ele>
        <time>2026-02-02T10:57:32Z</time>
      </trkpt>
      <trkpt lat="48.51681" lon="2.06953">
        <ele>154.4</ele>
        <time>2026-02-02T10:57:33Z</time>
      </trkpt>
      <trkpt lat="48.51681" lon="2.06962">
        <ele>154.4</ele>
        <time>2026-02-02T10:57:34Z</time>
      </trkpt>
      <trkpt lat="48.51681" lon="2.06972">
        <ele>154.4</ele>
        <time>2026-02-02T10:57:35Z</time>
      </trkpt>
      <trkpt lat="48.51681" lon="2.06981">
        <ele>154.4</ele>
        <time>2026-02-02T10:57:36Z</time>
      </trkpt>
      <trkpt lat="48.51681" lon="2.06991">
        <ele>154.6</ele>
        <time>2026-02-02T10:57:37Z</time>
      </trkpt>
      <trkpt lat="48.51682" lon="2.07001">
        <ele>154.6</ele>
        <time>2026-02-02T10:57:38Z</time>
      </trkpt>
      <trkpt lat="48.51682" lon="2.0701">
        <ele>154.6</ele>
        <time>2026-02-02T10:57:39Z</time>
      </trkpt>
      <trkpt lat="48.51683" lon="2.0702">
        <ele>154.2</ele>
        <time>2026-02-02T10:57:40Z</time>
      </trkpt>
      <trkpt lat="48.51684" lon="2.0703">
        <ele>154</ele>
        <time>2026-02-02T10:57:41Z</time>
      </trkpt>
      <trkpt lat="48.51685" lon="2.07039">
        <ele>154</ele>
        <time>2026-02-02T10:57:42Z</time>
      </trkpt>
      <trkpt lat="48.51686" lon="2.07049">
        <ele>154</ele>
        <time>2026-02-02T10:57:43Z</time>
      </trkpt>
      <trkpt lat="48.51687" lon="2.07059">
        <ele>153.4</ele>
        <time>2026-02-02T10:57:44Z</time>
      </trkpt>
      <trkpt lat="48.51688" lon="2.07069">
        <ele>153.4</ele>
        <time>2026-02-02T10:57:45Z</time>
      </trkpt>
      <trkpt lat="48.51689" lon="2.07078">
        <ele>153.4</ele>
        <time>2026-02-02T10:57:46Z</time>
      </trkpt>
      <trkpt lat="48.51691" lon="2.07088">
        <ele>153.4</ele>
        <time>2026-02-02T10:57:47Z</time>
      </trkpt>
      <trkpt lat="48.51692" lon="2.07097">
        <ele>153.4</ele>
        <time>2026-02-02T10:57:48Z</time>
      </trkpt>
      <trkpt lat="48.51693" lon="2.07107">
        <ele>153.4</ele>
        <time>2026-02-02T10:57:49Z</time>
      </trkpt>
      <trkpt lat="48.51694" lon="2.07116">
        <ele>153.4</ele>
        <time>2026-02-02T10:57:50Z</time>
      </trkpt>
      <trkpt lat="48.51695" lon="2.07125">
        <ele>153.4</ele>
        <time>2026-02-02T10:57:51Z</time>
      </trkpt>
      <trkpt lat="48.51696" lon="2.07134">
        <ele>153.4</ele>
        <time>2026-02-02T10:57:52Z</time>
      </trkpt>
      <trkpt lat="48.51697" lon="2.07142">
        <ele>154</ele>
        <time>2026-02-02T10:57:53Z</time>
      </trkpt>
      <trkpt lat="48.51698" lon="2.07151">
        <ele>154</ele>
        <time>2026-02-02T10:57:54Z</time>
      </trkpt>
      <trkpt lat="48.51699" lon="2.0716">
        <ele>154</ele>
        <time>2026-02-02T10:57:55Z</time>
      </trkpt>
      <trkpt lat="48.517" lon="2.07168">
        <ele>154</ele>
        <time>2026-02-02T10:57:56Z</time>
      </trkpt>
      <trkpt lat="48.51701" lon="2.07176">
        <ele>154.4</ele>
        <time>2026-02-02T10:57:57Z</time>
      </trkpt>
      <trkpt lat="48.51702" lon="2.07183">
        <ele>154.4</ele>
        <time>2026-02-02T10:57:58Z</time>
      </trkpt>
      <trkpt lat="48.51703" lon="2.0719">
        <ele>154.4</ele>
        <time>2026-02-02T10:57:59Z</time>
      </trkpt>
      <trkpt lat="48.51703" lon="2.07197">
        <ele>154.4</ele>
        <time>2026-02-02T10:58:00Z</time>
      </trkpt>
      <trkpt lat="48.51704" lon="2.07203">
        <ele>155.4</ele>
        <time>2026-02-02T10:58:01Z</time>
      </trkpt>
      <trkpt lat="48.51705" lon="2.0721">
        <ele>155.4</ele>
        <time>2026-02-02T10:58:02Z</time>
      </trkpt>
      <trkpt lat="48.51706" lon="2.07216">
        <ele>155.4</ele>
        <time>2026-02-02T10:58:03Z</time>
      </trkpt>
      <trkpt lat="48.51707" lon="2.07223">
        <ele>155.4</ele>
        <time>2026-02-02T10:58:04Z</time>
      </trkpt>
      <trkpt lat="48.51707" lon="2.07229">
        <ele>156</ele>
        <time>2026-02-02T10:58:05Z</time>
      </trkpt>
      <trkpt lat="48.51708" lon="2.07236">
        <ele>156</ele>
        <time>2026-02-02T10:58:06Z</time>
      </trkpt>
      <trkpt lat="48.51709" lon="2.07242">
        <ele>156</ele>
        <time>2026-02-02T10:58:07Z</time>
      </trkpt>
      <trkpt lat="48.51709" lon="2.07248">
        <ele>156</ele>
        <time>2026-02-02T10:58:08Z</time>
      </trkpt>
      <trkpt lat="48.5171" lon="2.07255">
        <ele>156.4</ele>
        <time>2026-02-02T10:58:09Z</time>
      </trkpt>
      <trkpt lat="48.51711" lon="2.07261">
        <ele>156.4</ele>
        <time>2026-02-02T10:58:10Z</time>
      </trkpt>
      <trkpt lat="48.51712" lon="2.07267">
        <ele>156.4</ele>
        <time>2026-02-02T10:58:11Z</time>
      </trkpt>
      <trkpt lat="48.51712" lon="2.07274">
        <ele>157</ele>
        <time>2026-02-02T10:58:12Z</time>
      </trkpt>
      <trkpt lat="48.51713" lon="2.0728">
        <ele>157</ele>
        <time>2026-02-02T10:58:13Z</time>
      </trkpt>
      <trkpt lat="48.51714" lon="2.07287">
        <ele>157</ele>
        <time>2026-02-02T10:58:14Z</time>
      </trkpt>
      <trkpt lat="48.51714" lon="2.07293">
        <ele>157</ele>
        <time>2026-02-02T10:58:15Z</time>
      </trkpt>
      <trkpt lat="48.51715" lon="2.07299">
        <ele>157</ele>
        <time>2026-02-02T10:58:16Z</time>
      </trkpt>
      <trkpt lat="48.51716" lon="2.07306">
        <ele>157.6</ele>
        <time>2026-02-02T10:58:17Z</time>
      </trkpt>
      <trkpt lat="48.51717" lon="2.07312">
        <ele>157.6</ele>
        <time>2026-02-02T10:58:18Z</time>
      </trkpt>
      <trkpt lat="48.51717" lon="2.07318">
        <ele>157.6</ele>
        <time>2026-02-02T10:58:19Z</time>
      </trkpt>
      <trkpt lat="48.51718" lon="2.07325">
        <ele>158</ele>
        <time>2026-02-02T10:58:20Z</time>
      </trkpt>
      <trkpt lat="48.51719" lon="2.07331">
        <ele>158</ele>
        <time>2026-02-02T10:58:21Z</time>
      </trkpt>
      <trkpt lat="48.5172" lon="2.07338">
        <ele>158</ele>
        <time>2026-02-02T10:58:22Z</time>
      </trkpt>
      <trkpt lat="48.5172" lon="2.07344">
        <ele>158</ele>
        <time>2026-02-02T10:58:23Z</time>
      </trkpt>
      <trkpt lat="48.51721" lon="2.07351">
        <ele>158</ele>
        <time>2026-02-02T10:58:24Z</time>
      </trkpt>
      <trkpt lat="48.51722" lon="2.07357">
        <ele>158.2</ele>
        <time>2026-02-02T10:58:25Z</time>
      </trkpt>
      <trkpt lat="48.51723" lon="2.07364">
        <ele>158.2</ele>
        <time>2026-02-02T10:58:26Z</time>
      </trkpt>
      <trkpt lat="48.51723" lon="2.07371">
        <ele>158.2</ele>
        <time>2026-02-02T10:58:27Z</time>
      </trkpt>
      <trkpt lat="48.51724" lon="2.07377">
        <ele>158.2</ele>
        <time>2026-02-02T10:58:28Z</time>
      </trkpt>
      <trkpt lat="48.51725" lon="2.07384">
        <ele>158.4</ele>
        <time>2026-02-02T10:58:29Z</time>
      </trkpt>
      <trkpt lat="48.51726" lon="2.07391">
        <ele>158.4</ele>
        <time>2026-02-02T10:58:30Z</time>
      </trkpt>
      <trkpt lat="48.51727" lon="2.07397">
        <ele>158.4</ele>
        <time>2026-02-02T10:58:31Z</time>
      </trkpt>
      <trkpt lat="48.51727" lon="2.07404">
        <ele>158.6</ele>
        <time>2026-02-02T10:58:32Z</time>
      </trkpt>
      <trkpt lat="48.51728" lon="2.0741">
        <ele>158.8</ele>
        <time>2026-02-02T10:58:33Z</time>
      </trkpt>
      <trkpt lat="48.51729" lon="2.07417">
        <ele>158.8</ele>
        <time>2026-02-02T10:58:34Z</time>
      </trkpt>
      <trkpt lat="48.5173" lon="2.07424">
        <ele>158.8</ele>
        <time>2026-02-02T10:58:35Z</time>
      </trkpt>
      <trkpt lat="48.51731" lon="2.0743">
        <ele>159.2</ele>
        <time>2026-02-02T10:58:36Z</time>
      </trkpt>
      <trkpt lat="48.51731" lon="2.07437">
        <ele>159.4</ele>
        <time>2026-02-02T10:58:37Z</time>
      </trkpt>
      <trkpt lat="48.51732" lon="2.07443">
        <ele>159.4</ele>
        <time>2026-02-02T10:58:38Z</time>
      </trkpt>
      <trkpt lat="48.51733" lon="2.0745">
        <ele>159.4</ele>
        <time>2026-02-02T10:58:39Z</time>
      </trkpt>
      <trkpt lat="48.51734" lon="2.07456">
        <ele>159.4</ele>
        <time>2026-02-02T10:58:40Z</time>
      </trkpt>
      <trkpt lat="48.51735" lon="2.07463">
        <ele>159.6</ele>
        <time>2026-02-02T10:58:41Z</time>
      </trkpt>
      <trkpt lat="48.51735" lon="2.0747">
        <ele>159.6</ele>
        <time>2026-02-02T10:58:42Z</time>
      </trkpt>
      <trkpt lat="48.51736" lon="2.07477">
        <ele>159.6</ele>
        <time>2026-02-02T10:58:43Z</time>
      </trkpt>
      <trkpt lat="48.51737" lon="2.07483">
        <ele>159.8</ele>
        <time>2026-02-02T10:58:44Z</time>
      </trkpt>
      <trkpt lat="48.51737" lon="2.0749">
        <ele>160.6</ele>
        <time>2026-02-02T10:58:45Z</time>
      </trkpt>
      <trkpt lat="48.51738" lon="2.07497">
        <ele>160.6</ele>
        <time>2026-02-02T10:58:46Z</time>
      </trkpt>
      <trkpt lat="48.51739" lon="2.07504">
        <ele>160.6</ele>
        <time>2026-02-02T10:58:47Z</time>
      </trkpt>
      <trkpt lat="48.51739" lon="2.07511">
        <ele>160.2</ele>
        <time>2026-02-02T10:58:48Z</time>
      </trkpt>
      <trkpt lat="48.51739" lon="2.07518">
        <ele>159.8</ele>
        <time>2026-02-02T10:58:49Z</time>
      </trkpt>
      <trkpt lat="48.5174" lon="2.07526">
        <ele>159.8</ele>
        <time>2026-02-02T10:58:50Z</time>
      </trkpt>
      <trkpt lat="48.5174" lon="2.07533">
        <ele>159.8</ele>
        <time>2026-02-02T10:58:51Z</time>
      </trkpt>
      <trkpt lat="48.5174" lon="2.0754">
        <ele>159.8</ele>
        <time>2026-02-02T10:58:52Z</time>
      </trkpt>
      <trkpt lat="48.5174" lon="2.07548">
        <ele>160</ele>
        <time>2026-02-02T10:58:53Z</time>
      </trkpt>
      <trkpt lat="48.5174" lon="2.07555">
        <ele>160</ele>
        <time>2026-02-02T10:58:54Z</time>
      </trkpt>
      <trkpt lat="48.5174" lon="2.07562">
        <ele>160</ele>
        <time>2026-02-02T10:58:55Z</time>
      </trkpt>
      <trkpt lat="48.51739" lon="2.0757">
        <ele>160</ele>
        <time>2026-02-02T10:58:56Z</time>
      </trkpt>
      <trkpt lat="48.51739" lon="2.07577">
        <ele>160</ele>
        <time>2026-02-02T10:58:57Z</time>
      </trkpt>
      <trkpt lat="48.51739" lon="2.07585">
        <ele>160</ele>
        <time>2026-02-02T10:58:58Z</time>
      </trkpt>
      <trkpt lat="48.51738" lon="2.07592">
        <ele>160</ele>
        <time>2026-02-02T10:58:59Z</time>
      </trkpt>
      <trkpt lat="48.51738" lon="2.076">
        <ele>160</ele>
        <time>2026-02-02T10:59:00Z</time>
      </trkpt>
      <trkpt lat="48.51737" lon="2.07607">
        <ele>159.8</ele>
        <time>2026-02-02T10:59:01Z</time>
      </trkpt>
      <trkpt lat="48.51737" lon="2.07615">
        <ele>159.8</ele>
        <time>2026-02-02T10:59:02Z</time>
      </trkpt>
      <trkpt lat="48.51736" lon="2.07622">
        <ele>159.8</ele>
        <time>2026-02-02T10:59:03Z</time>
      </trkpt>
      <trkpt lat="48.51736" lon="2.0763">
        <ele>159.8</ele>
        <time>2026-02-02T10:59:04Z</time>
      </trkpt>
      <trkpt lat="48.51735" lon="2.07638">
        <ele>161.2</ele>
        <time>2026-02-02T10:59:05Z</time>
      </trkpt>
      <trkpt lat="48.51735" lon="2.07645">
        <ele>161.2</ele>
        <time>2026-02-02T10:59:06Z</time>
      </trkpt>
      <trkpt lat="48.51734" lon="2.07653">
        <ele>161.2</ele>
        <time>2026-02-02T10:59:07Z</time>
      </trkpt>
      <trkpt lat="48.51734" lon="2.07661">
        <ele>160.2</ele>
        <time>2026-02-02T10:59:08Z</time>
      </trkpt>
      <trkpt lat="48.51733" lon="2.07669">
        <ele>160</ele>
        <time>2026-02-02T10:59:09Z</time>
      </trkpt>
      <trkpt lat="48.51733" lon="2.07676">
        <ele>160</ele>
        <time>2026-02-02T10:59:10Z</time>
      </trkpt>
      <trkpt lat="48.51732" lon="2.07684">
        <ele>160</ele>
        <time>2026-02-02T10:59:11Z</time>
      </trkpt>
      <trkpt lat="48.51732" lon="2.07692">
        <ele>160.2</ele>
        <time>2026-02-02T10:59:12Z</time>
      </trkpt>
      <trkpt lat="48.51731" lon="2.07701">
        <ele>160.2</ele>
        <time>2026-02-02T10:59:13Z</time>
      </trkpt>
      <trkpt lat="48.51731" lon="2.07709">
        <ele>160.2</ele>
        <time>2026-02-02T10:59:14Z</time>
      </trkpt>
      <trkpt lat="48.5173" lon="2.07717">
        <ele>160.2</ele>
        <time>2026-02-02T10:59:15Z</time>
      </trkpt>
      <trkpt lat="48.5173" lon="2.07725">
        <ele>160.2</ele>
        <time>2026-02-02T10:59:16Z</time>
      </trkpt>
      <trkpt lat="48.5173" lon="2.07733">
        <ele>160</ele>
        <time>2026-02-02T10:59:17Z</time>
      </trkpt>
      <trkpt lat="48.51729" lon="2.07741">
        <ele>160</ele>
        <time>2026-02-02T10:59:18Z</time>
      </trkpt>
      <trkpt lat="48.51729" lon="2.07749">
        <ele>160</ele>
        <time>2026-02-02T10:59:19Z</time>
      </trkpt>
      <trkpt lat="48.51728" lon="2.07758">
        <ele>160.6</ele>
        <time>2026-02-02T10:59:20Z</time>
      </trkpt>
      <trkpt lat="48.51728" lon="2.07766">
        <ele>161</ele>
        <time>2026-02-02T10:59:21Z</time>
      </trkpt>
      <trkpt lat="48.51727" lon="2.07774">
        <ele>161</ele>
        <time>2026-02-02T10:59:22Z</time>
      </trkpt>
      <trkpt lat="48.51727" lon="2.07782">
        <ele>161</ele>
        <time>2026-02-02T10:59:23Z</time>
      </trkpt>
      <trkpt lat="48.51726" lon="2.0779">
        <ele>160.6</ele>
        <time>2026-02-02T10:59:24Z</time>
      </trkpt>
      <trkpt lat="48.51726" lon="2.07799">
        <ele>160.4</ele>
        <time>2026-02-02T10:59:25Z</time>
      </trkpt>
      <trkpt lat="48.51725" lon="2.07807">
        <ele>160.4</ele>
        <time>2026-02-02T10:59:26Z</time>
      </trkpt>
      <trkpt lat="48.51725" lon="2.07815">
        <ele>160.4</ele>
        <time>2026-02-02T10:59:27Z</time>
      </trkpt>
      <trkpt lat="48.51725" lon="2.07823">
        <ele>160.4</ele>
        <time>2026-02-02T10:59:28Z</time>
      </trkpt>
      <trkpt lat="48.51724" lon="2.07831">
        <ele>160.8</ele>
        <time>2026-02-02T10:59:29Z</time>
      </trkpt>
      <trkpt lat="48.51724" lon="2.07839">
        <ele>160.8</ele>
        <time>2026-02-02T10:59:30Z</time>
      </trkpt>
      <trkpt lat="48.51723" lon="2.07847">
        <ele>160.8</ele>
        <time>2026-02-02T10:59:31Z</time>
      </trkpt>
      <trkpt lat="48.51723" lon="2.07855">
        <ele>160.8</ele>
        <time>2026-02-02T10:59:32Z</time>
      </trkpt>
      <trkpt lat="48.51722" lon="2.07863">
        <ele>161.2</ele>
        <time>2026-02-02T10:59:33Z</time>
      </trkpt>
      <trkpt lat="48.51721" lon="2.07871">
        <ele>161.2</ele>
        <time>2026-02-02T10:59:34Z</time>
      </trkpt>
      <trkpt lat="48.51721" lon="2.07879">
        <ele>161.2</ele>
        <time>2026-02-02T10:59:35Z</time>
      </trkpt>
      <trkpt lat="48.5172" lon="2.07886">
        <ele>160.6</ele>
        <time>2026-02-02T10:59:36Z</time>
      </trkpt>
      <trkpt lat="48.51719" lon="2.07894">
        <ele>161.2</ele>
        <time>2026-02-02T10:59:37Z</time>
      </trkpt>
      <trkpt lat="48.51719" lon="2.07902">
        <ele>161.2</ele>
        <time>2026-02-02T10:59:38Z</time>
      </trkpt>
      <trkpt lat="48.51718" lon="2.0791">
        <ele>161.2</ele>
        <time>2026-02-02T10:59:39Z</time>
      </trkpt>
      <trkpt lat="48.51717" lon="2.07918">
        <ele>161</ele>
        <time>2026-02-02T10:59:40Z</time>
      </trkpt>
      <trkpt lat="48.51716" lon="2.07926">
        <ele>161</ele>
        <time>2026-02-02T10:59:41Z</time>
      </trkpt>
      <trkpt lat="48.51715" lon="2.07933">
        <ele>161</ele>
        <time>2026-02-02T10:59:42Z</time>
      </trkpt>
      <trkpt lat="48.51714" lon="2.07941">
        <ele>161</ele>
        <time>2026-02-02T10:59:43Z</time>
      </trkpt>
      <trkpt lat="48.51713" lon="2.07949">
        <ele>161</ele>
        <time>2026-02-02T10:59:44Z</time>
      </trkpt>
      <trkpt lat="48.51712" lon="2.07957">
        <ele>161.4</ele>
        <time>2026-02-02T10:59:45Z</time>
      </trkpt>
      <trkpt lat="48.51711" lon="2.07964">
        <ele>161.4</ele>
        <time>2026-02-02T10:59:46Z</time>
      </trkpt>
      <trkpt lat="48.51709" lon="2.07972">
        <ele>161.4</ele>
        <time>2026-02-02T10:59:47Z</time>
      </trkpt>
      <trkpt lat="48.51708" lon="2.0798">
        <ele>161.2</ele>
        <time>2026-02-02T10:59:48Z</time>
      </trkpt>
      <trkpt lat="48.51707" lon="2.07988">
        <ele>161.4</ele>
        <time>2026-02-02T10:59:49Z</time>
      </trkpt>
      <trkpt lat="48.51706" lon="2.07995">
        <ele>161.4</ele>
        <time>2026-02-02T10:59:50Z</time>
      </trkpt>
      <trkpt lat="48.51705" lon="2.08003">
        <ele>161.4</ele>
        <time>2026-02-02T10:59:51Z</time>
      </trkpt>
      <trkpt lat="48.51704" lon="2.0801">
        <ele>161.4</ele>
        <time>2026-02-02T10:59:52Z</time>
      </trkpt>
      <trkpt lat="48.51703" lon="2.08018">
        <ele>161.6</ele>
        <time>2026-02-02T10:59:53Z</time>
      </trkpt>
      <trkpt lat="48.51702" lon="2.08026">
        <ele>161.6</ele>
        <time>2026-02-02T10:59:54Z</time>
      </trkpt>
      <trkpt lat="48.51701" lon="2.08033">
        <ele>161.6</ele>
        <time>2026-02-02T10:59:55Z</time>
      </trkpt>
      <trkpt lat="48.517" lon="2.08041">
        <ele>161.6</ele>
        <time>2026-02-02T10:59:56Z</time>
      </trkpt>
      <trkpt lat="48.51699" lon="2.08049">
        <ele>161.6</ele>
        <time>2026-02-02T10:59:57Z</time>
      </trkpt>
      <trkpt lat="48.51698" lon="2.08056">
        <ele>161.6</ele>
        <time>2026-02-02T10:59:58Z</time>
      </trkpt>
      <trkpt lat="48.51697" lon="2.08064">
        <ele>161.6</ele>
        <time>2026-02-02T10:59:59Z</time>
      </trkpt>
      <trkpt lat="48.51696" lon="2.08072">
        <ele>161.6</ele>
        <time>2026-02-02T11:00:00Z</time>
      </trkpt>
      <trkpt lat="48.51695" lon="2.08079">
        <ele>161.8</ele>
        <time>2026-02-02T11:00:01Z</time>
      </trkpt>
      <trkpt lat="48.51694" lon="2.08087">
        <ele>161.8</ele>
        <time>2026-02-02T11:00:02Z</time>
      </trkpt>
      <trkpt lat="48.51693" lon="2.08095">
        <ele>161.8</ele>
        <time>2026-02-02T11:00:03Z</time>
      </trkpt>
      <trkpt lat="48.51692" lon="2.08102">
        <ele>161.8</ele>
        <time>2026-02-02T11:00:04Z</time>
      </trkpt>
      <trkpt lat="48.51691" lon="2.0811">
        <ele>162.4</ele>
        <time>2026-02-02T11:00:05Z</time>
      </trkpt>
      <trkpt lat="48.5169" lon="2.08117">
        <ele>162.4</ele>
        <time>2026-02-02T11:00:06Z</time>
      </trkpt>
      <trkpt lat="48.51689" lon="2.08125">
        <ele>162.4</ele>
        <time>2026-02-02T11:00:07Z</time>
      </trkpt>
      <trkpt lat="48.51688" lon="2.08132">
        <ele>162.4</ele>
        <time>2026-02-02T11:00:08Z</time>
      </trkpt>
      <trkpt lat="48.51687" lon="2.0814">
        <ele>162.4</ele>
        <time>2026-02-02T11:00:09Z</time>
      </trkpt>
      <trkpt lat="48.51686" lon="2.08147">
        <ele>162.4</ele>
        <time>2026-02-02T11:00:10Z</time>
      </trkpt>
      <trkpt lat="48.51685" lon="2.08155">
        <ele>162.4</ele>
        <time>2026-02-02T11:00:11Z</time>
      </trkpt>
      <trkpt lat="48.51684" lon="2.08163">
        <ele>162.4</ele>
        <time>2026-02-02T11:00:12Z</time>
      </trkpt>
      <trkpt lat="48.51683" lon="2.0817">
        <ele>162.6</ele>
        <time>2026-02-02T11:00:13Z</time>
      </trkpt>
      <trkpt lat="48.51682" lon="2.08177">
        <ele>162.6</ele>
        <time>2026-02-02T11:00:14Z</time>
      </trkpt>
      <trkpt lat="48.51681" lon="2.08185">
        <ele>162.6</ele>
        <time>2026-02-02T11:00:15Z</time>
      </trkpt>
      <trkpt lat="48.5168" lon="2.08192">
        <ele>162.6</ele>
        <time>2026-02-02T11:00:16Z</time>
      </trkpt>
      <trkpt lat="48.51679" lon="2.082">
        <ele>162.8</ele>
        <time>2026-02-02T11:00:17Z</time>
      </trkpt>
      <trkpt lat="48.51678" lon="2.08207">
        <ele>162.8</ele>
        <time>2026-02-02T11:00:18Z</time>
      </trkpt>
      <trkpt lat="48.51677" lon="2.08214">
        <ele>162.8</ele>
        <time>2026-02-02T11:00:19Z</time>
      </trkpt>
      <trkpt lat="48.51676" lon="2.08222">
        <ele>162.6</ele>
        <time>2026-02-02T11:00:20Z</time>
      </trkpt>
      <trkpt lat="48.51675" lon="2.08229">
        <ele>162.8</ele>
        <time>2026-02-02T11:00:21Z</time>
      </trkpt>
      <trkpt lat="48.51674" lon="2.08237">
        <ele>162.8</ele>
        <time>2026-02-02T11:00:22Z</time>
      </trkpt>
      <trkpt lat="48.51673" lon="2.08244">
        <ele>162.8</ele>
        <time>2026-02-02T11:00:23Z</time>
      </trkpt>
      <trkpt lat="48.51672" lon="2.08252">
        <ele>162.8</ele>
        <time>2026-02-02T11:00:24Z</time>
      </trkpt>
      <trkpt lat="48.51671" lon="2.0826">
        <ele>163</ele>
        <time>2026-02-02T11:00:25Z</time>
      </trkpt>
      <trkpt lat="48.5167" lon="2.08268">
        <ele>163</ele>
        <time>2026-02-02T11:00:26Z</time>
      </trkpt>
      <trkpt lat="48.51668" lon="2.08276">
        <ele>163</ele>
        <time>2026-02-02T11:00:27Z</time>
      </trkpt>
      <trkpt lat="48.51667" lon="2.08284">
        <ele>162.6</ele>
        <time>2026-02-02T11:00:28Z</time>
      </trkpt>
      <trkpt lat="48.51666" lon="2.08292">
        <ele>162.6</ele>
        <time>2026-02-02T11:00:29Z</time>
      </trkpt>
      <trkpt lat="48.51665" lon="2.083">
        <ele>162.6</ele>
        <time>2026-02-02T11:00:30Z</time>
      </trkpt>
      <trkpt lat="48.51663" lon="2.08309">
        <ele>162.6</ele>
        <time>2026-02-02T11:00:31Z</time>
      </trkpt>
      <trkpt lat="48.51661" lon="2.08317">
        <ele>162.6</ele>
        <time>2026-02-02T11:00:32Z</time>
      </trkpt>
      <trkpt lat="48.5166" lon="2.08325">
        <ele>162.6</ele>
        <time>2026-02-02T11:00:33Z</time>
      </trkpt>
      <trkpt lat="48.51658" lon="2.08334">
        <ele>162.6</ele>
        <time>2026-02-02T11:00:34Z</time>
      </trkpt>
      <trkpt lat="48.51656" lon="2.08342">
        <ele>162.6</ele>
        <time>2026-02-02T11:00:35Z</time>
      </trkpt>
      <trkpt lat="48.51655" lon="2.0835">
        <ele>162.4</ele>
        <time>2026-02-02T11:00:36Z</time>
      </trkpt>
      <trkpt lat="48.51653" lon="2.08359">
        <ele>162.4</ele>
        <time>2026-02-02T11:00:37Z</time>
      </trkpt>
      <trkpt lat="48.51651" lon="2.08367">
        <ele>162.4</ele>
        <time>2026-02-02T11:00:38Z</time>
      </trkpt>
      <trkpt lat="48.51649" lon="2.08375">
        <ele>162.4</ele>
        <time>2026-02-02T11:00:39Z</time>
      </trkpt>
      <trkpt lat="48.51648" lon="2.08383">
        <ele>162.4</ele>
        <time>2026-02-02T11:00:40Z</time>
      </trkpt>
      <trkpt lat="48.51646" lon="2.08391">
        <ele>162.6</ele>
        <time>2026-02-02T11:00:41Z</time>
      </trkpt>
      <trkpt lat="48.51644" lon="2.08399">
        <ele>162.6</ele>
        <time>2026-02-02T11:00:42Z</time>
      </trkpt>
      <trkpt lat="48.51642" lon="2.08408">
        <ele>162.6</ele>
        <time>2026-02-02T11:00:43Z</time>
      </trkpt>
      <trkpt lat="48.51641" lon="2.08416">
        <ele>162.8</ele>
        <time>2026-02-02T11:00:44Z</time>
      </trkpt>
      <trkpt lat="48.51639" lon="2.08424">
        <ele>162.6</ele>
        <time>2026-02-02T11:00:45Z</time>
      </trkpt>
      <trkpt lat="48.51637" lon="2.08433">
        <ele>162.6</ele>
        <time>2026-02-02T11:00:46Z</time>
      </trkpt>
      <trkpt lat="48.51635" lon="2.08441">
        <ele>162.6</ele>
        <time>2026-02-02T11:00:47Z</time>
      </trkpt>
      <trkpt lat="48.51633" lon="2.0845">
        <ele>162.6</ele>
        <time>2026-02-02T11:00:48Z</time>
      </trkpt>
      <trkpt lat="48.51632" lon="2.08458">
        <ele>162.6</ele>
        <time>2026-02-02T11:00:49Z</time>
      </trkpt>
      <trkpt lat="48.5163" lon="2.08466">
        <ele>162.6</ele>
        <time>2026-02-02T11:00:50Z</time>
      </trkpt>
      <trkpt lat="48.51628" lon="2.08475">
        <ele>162.6</ele>
        <time>2026-02-02T11:00:51Z</time>
      </trkpt>
      <trkpt lat="48.51626" lon="2.08484">
        <ele>162.6</ele>
        <time>2026-02-02T11:00:52Z</time>
      </trkpt>
      <trkpt lat="48.51624" lon="2.08492">
        <ele>162.4</ele>
        <time>2026-02-02T11:00:53Z</time>
      </trkpt>
      <trkpt lat="48.51622" lon="2.08501">
        <ele>162.4</ele>
        <time>2026-02-02T11:00:54Z</time>
      </trkpt>
      <trkpt lat="48.5162" lon="2.0851">
        <ele>162.4</ele>
        <time>2026-02-02T11:00:55Z</time>
      </trkpt>
      <trkpt lat="48.51618" lon="2.08518">
        <ele>162.4</ele>
        <time>2026-02-02T11:00:56Z</time>
      </trkpt>
      <trkpt lat="48.51616" lon="2.08527">
        <ele>162</ele>
        <time>2026-02-02T11:00:57Z</time>
      </trkpt>
      <trkpt lat="48.51615" lon="2.08536">
        <ele>162</ele>
        <time>2026-02-02T11:00:58Z</time>
      </trkpt>
      <trkpt lat="48.51613" lon="2.08545">
        <ele>162</ele>
        <time>2026-02-02T11:00:59Z</time>
      </trkpt>
      <trkpt lat="48.51611" lon="2.08554">
        <ele>162</ele>
        <time>2026-02-02T11:01:00Z</time>
      </trkpt>
      <trkpt lat="48.51609" lon="2.08562">
        <ele>161.4</ele>
        <time>2026-02-02T11:01:01Z</time>
      </trkpt>
      <trkpt lat="48.51607" lon="2.08571">
        <ele>161.4</ele>
        <time>2026-02-02T11:01:02Z</time>
      </trkpt>
      <trkpt lat="48.51605" lon="2.0858">
        <ele>161.4</ele>
        <time>2026-02-02T11:01:03Z</time>
      </trkpt>
      <trkpt lat="48.51603" lon="2.08588">
        <ele>161.8</ele>
        <time>2026-02-02T11:01:04Z</time>
      </trkpt>
      <trkpt lat="48.51601" lon="2.08597">
        <ele>161.6</ele>
        <time>2026-02-02T11:01:05Z</time>
      </trkpt>
      <trkpt lat="48.51599" lon="2.08606">
        <ele>161.6</ele>
        <time>2026-02-02T11:01:06Z</time>
      </trkpt>
      <trkpt lat="48.51598" lon="2.08614">
        <ele>161.6</ele>
        <time>2026-02-02T11:01:07Z</time>
      </trkpt>
      <trkpt lat="48.51596" lon="2.08623">
        <ele>161.6</ele>
        <time>2026-02-02T11:01:08Z</time>
      </trkpt>
      <trkpt lat="48.51594" lon="2.08632">
        <ele>161</ele>
        <time>2026-02-02T11:01:09Z</time>
      </trkpt>
      <trkpt lat="48.51592" lon="2.0864">
        <ele>161</ele>
        <time>2026-02-02T11:01:10Z</time>
      </trkpt>
      <trkpt lat="48.5159" lon="2.08649">
        <ele>161</ele>
        <time>2026-02-02T11:01:11Z</time>
      </trkpt>
      <trkpt lat="48.51588" lon="2.08658">
        <ele>161.4</ele>
        <time>2026-02-02T11:01:12Z</time>
      </trkpt>
      <trkpt lat="48.51586" lon="2.08666">
        <ele>161.4</ele>
        <time>2026-02-02T11:01:13Z</time>
      </trkpt>
      <trkpt lat="48.51584" lon="2.08675">
        <ele>161.4</ele>
        <time>2026-02-02T11:01:14Z</time>
      </trkpt>
      <trkpt lat="48.51583" lon="2.08684">
        <ele>161.4</ele>
        <time>2026-02-02T11:01:15Z</time>
      </trkpt>
      <trkpt lat="48.51581" lon="2.08692">
        <ele>161.6</ele>
        <time>2026-02-02T11:01:16Z</time>
      </trkpt>
      <trkpt lat="48.51579" lon="2.08701">
        <ele>162</ele>
        <time>2026-02-02T11:01:17Z</time>
      </trkpt>
      <trkpt lat="48.51577" lon="2.0871">
        <ele>162</ele>
        <time>2026-02-02T11:01:18Z</time>
      </trkpt>
      <trkpt lat="48.51575" lon="2.08718">
        <ele>162</ele>
        <time>2026-02-02T11:01:19Z</time>
      </trkpt>
      <trkpt lat="48.51574" lon="2.08727">
        <ele>161.8</ele>
        <time>2026-02-02T11:01:20Z</time>
      </trkpt>
      <trkpt lat="48.51572" lon="2.08736">
        <ele>161.4</ele>
        <time>2026-02-02T11:01:21Z</time>
      </trkpt>
      <trkpt lat="48.5157" lon="2.08745">
        <ele>161.4</ele>
        <time>2026-02-02T11:01:22Z</time>
      </trkpt>
      <trkpt lat="48.51568" lon="2.08753">
        <ele>161.4</ele>
        <time>2026-02-02T11:01:23Z</time>
      </trkpt>
      <trkpt lat="48.51566" lon="2.08762">
        <ele>161.2</ele>
        <time>2026-02-02T11:01:24Z</time>
      </trkpt>
      <trkpt lat="48.51565" lon="2.08771">
        <ele>161.2</ele>
        <time>2026-02-02T11:01:25Z</time>
      </trkpt>
      <trkpt lat="48.51563" lon="2.0878">
        <ele>161.2</ele>
        <time>2026-02-02T11:01:26Z</time>
      </trkpt>
      <trkpt lat="48.51562" lon="2.08789">
        <ele>161.2</ele>
        <time>2026-02-02T11:01:27Z</time>
      </trkpt>
      <trkpt lat="48.5156" lon="2.08798">
        <ele>161.2</ele>
        <time>2026-02-02T11:01:28Z</time>
      </trkpt>
      <trkpt lat="48.51558" lon="2.08807">
        <ele>161</ele>
        <time>2026-02-02T11:01:29Z</time>
      </trkpt>
      <trkpt lat="48.51557" lon="2.08816">
        <ele>161</ele>
        <time>2026-02-02T11:01:30Z</time>
      </trkpt>
      <trkpt lat="48.51555" lon="2.08825">
        <ele>161</ele>
        <time>2026-02-02T11:01:31Z</time>
      </trkpt>
      <trkpt lat="48.51554" lon="2.08834">
        <ele>161</ele>
        <time>2026-02-02T11:01:32Z</time>
      </trkpt>
      <trkpt lat="48.51552" lon="2.08843">
        <ele>161.6</ele>
        <time>2026-02-02T11:01:33Z</time>
      </trkpt>
      <trkpt lat="48.51551" lon="2.08852">
        <ele>161.6</ele>
        <time>2026-02-02T11:01:34Z</time>
      </trkpt>
      <trkpt lat="48.51549" lon="2.08861">
        <ele>161.6</ele>
        <time>2026-02-02T11:01:35Z</time>
      </trkpt>
      <trkpt lat="48.51548" lon="2.0887">
        <ele>160.6</ele>
        <time>2026-02-02T11:01:36Z</time>
      </trkpt>
      <trkpt lat="48.51546" lon="2.08878">
        <ele>161.2</ele>
        <time>2026-02-02T11:01:37Z</time>
      </trkpt>
      <trkpt lat="48.51545" lon="2.08887">
        <ele>161.2</ele>
        <time>2026-02-02T11:01:38Z</time>
      </trkpt>
      <trkpt lat="48.51543" lon="2.08896">
        <ele>161.2</ele>
        <time>2026-02-02T11:01:39Z</time>
      </trkpt>
      <trkpt lat="48.51542" lon="2.08905">
        <ele>161.2</ele>
        <time>2026-02-02T11:01:40Z</time>
      </trkpt>
      <trkpt lat="48.51541" lon="2.08913">
        <ele>160.8</ele>
        <time>2026-02-02T11:01:41Z</time>
      </trkpt>
      <trkpt lat="48.51539" lon="2.08922">
        <ele>160.8</ele>
        <time>2026-02-02T11:01:42Z</time>
      </trkpt>
      <trkpt lat="48.51538" lon="2.0893">
        <ele>160.8</ele>
        <time>2026-02-02T11:01:43Z</time>
      </trkpt>
      <trkpt lat="48.51536" lon="2.08939">
        <ele>161.4</ele>
        <time>2026-02-02T11:01:44Z</time>
      </trkpt>
      <trkpt lat="48.51535" lon="2.08948">
        <ele>160.8</ele>
        <time>2026-02-02T11:01:45Z</time>
      </trkpt>
      <trkpt lat="48.51534" lon="2.08956">
        <ele>160.8</ele>
        <time>2026-02-02T11:01:46Z</time>
      </trkpt>
      <trkpt lat="48.51532" lon="2.08965">
        <ele>160.8</ele>
        <time>2026-02-02T11:01:47Z</time>
      </trkpt>
      <trkpt lat="48.51531" lon="2.08973">
        <ele>161</ele>
        <time>2026-02-02T11:01:48Z</time>
      </trkpt>
      <trkpt lat="48.5153" lon="2.08982">
        <ele>160.8</ele>
        <time>2026-02-02T11:01:49Z</time>
      </trkpt>
      <trkpt lat="48.51528" lon="2.0899">
        <ele>160.8</ele>
        <time>2026-02-02T11:01:50Z</time>
      </trkpt>
      <trkpt lat="48.51527" lon="2.08999">
        <ele>160.8</ele>
        <time>2026-02-02T11:01:51Z</time>
      </trkpt>
      <trkpt lat="48.51526" lon="2.09007">
        <ele>160.8</ele>
        <time>2026-02-02T11:01:52Z</time>
      </trkpt>
      <trkpt lat="48.51524" lon="2.09016">
        <ele>161</ele>
        <time>2026-02-02T11:01:53Z</time>
      </trkpt>
      <trkpt lat="48.51523" lon="2.09024">
        <ele>161</ele>
        <time>2026-02-02T11:01:54Z</time>
      </trkpt>
      <trkpt lat="48.51521" lon="2.09033">
        <ele>161</ele>
        <time>2026-02-02T11:01:55Z</time>
      </trkpt>
      <trkpt lat="48.5152" lon="2.09041">
        <ele>161</ele>
        <time>2026-02-02T11:01:56Z</time>
      </trkpt>
      <trkpt lat="48.51518" lon="2.0905">
        <ele>161.4</ele>
        <time>2026-02-02T11:01:57Z</time>
      </trkpt>
      <trkpt lat="48.51517" lon="2.09058">
        <ele>161.4</ele>
        <time>2026-02-02T11:01:58Z</time>
      </trkpt>
      <trkpt lat="48.51515" lon="2.09067">
        <ele>161.4</ele>
        <time>2026-02-02T11:01:59Z</time>
      </trkpt>
      <trkpt lat="48.51514" lon="2.09076">
        <ele>161.4</ele>
        <time>2026-02-02T11:02:00Z</time>
      </trkpt>
      <trkpt lat="48.51512" lon="2.09084">
        <ele>161.2</ele>
        <time>2026-02-02T11:02:01Z</time>
      </trkpt>
      <trkpt lat="48.51511" lon="2.09093">
        <ele>161.2</ele>
        <time>2026-02-02T11:02:02Z</time>
      </trkpt>
      <trkpt lat="48.5151" lon="2.09101">
        <ele>161.2</ele>
        <time>2026-02-02T11:02:03Z</time>
      </trkpt>
      <trkpt lat="48.51508" lon="2.0911">
        <ele>161.2</ele>
        <time>2026-02-02T11:02:04Z</time>
      </trkpt>
      <trkpt lat="48.51507" lon="2.09119">
        <ele>160.6</ele>
        <time>2026-02-02T11:02:05Z</time>
      </trkpt>
      <trkpt lat="48.51505" lon="2.09127">
        <ele>160.6</ele>
        <time>2026-02-02T11:02:06Z</time>
      </trkpt>
      <trkpt lat="48.51504" lon="2.09136">
        <ele>160.6</ele>
        <time>2026-02-02T11:02:07Z</time>
      </trkpt>
      <trkpt lat="48.51502" lon="2.09145">
        <ele>160.6</ele>
        <time>2026-02-02T11:02:08Z</time>
      </trkpt>
      <trkpt lat="48.51501" lon="2.09153">
        <ele>160.8</ele>
        <time>2026-02-02T11:02:09Z</time>
      </trkpt>
      <trkpt lat="48.515" lon="2.09162">
        <ele>160.8</ele>
        <time>2026-02-02T11:02:10Z</time>
      </trkpt>
      <trkpt lat="48.51498" lon="2.09171">
        <ele>160.8</ele>
        <time>2026-02-02T11:02:11Z</time>
      </trkpt>
      <trkpt lat="48.51497" lon="2.09179">
        <ele>160.8</ele>
        <time>2026-02-02T11:02:12Z</time>
      </trkpt>
      <trkpt lat="48.51495" lon="2.09188">
        <ele>160.4</ele>
        <time>2026-02-02T11:02:13Z</time>
      </trkpt>
      <trkpt lat="48.51494" lon="2.09197">
        <ele>160.4</ele>
        <time>2026-02-02T11:02:14Z</time>
      </trkpt>
      <trkpt lat="48.51493" lon="2.09206">
        <ele>160.4</ele>
        <time>2026-02-02T11:02:15Z</time>
      </trkpt>
      <trkpt lat="48.51491" lon="2.09214">
        <ele>160.6</ele>
        <time>2026-02-02T11:02:16Z</time>
      </trkpt>
      <trkpt lat="48.5149" lon="2.09223">
        <ele>160</ele>
        <time>2026-02-02T11:02:17Z</time>
      </trkpt>
      <trkpt lat="48.51489" lon="2.09233">
        <ele>160</ele>
        <time>2026-02-02T11:02:18Z</time>
      </trkpt>
      <trkpt lat="48.51488" lon="2.09242">
        <ele>160</ele>
        <time>2026-02-02T11:02:19Z</time>
      </trkpt>
      <trkpt lat="48.51487" lon="2.09251">
        <ele>160.4</ele>
        <time>2026-02-02T11:02:20Z</time>
      </trkpt>
      <trkpt lat="48.51486" lon="2.0926">
        <ele>159.8</ele>
        <time>2026-02-02T11:02:21Z</time>
      </trkpt>
      <trkpt lat="48.51486" lon="2.0927">
        <ele>159.8</ele>
        <time>2026-02-02T11:02:22Z</time>
      </trkpt>
      <trkpt lat="48.51485" lon="2.09279">
        <ele>159.8</ele>
        <time>2026-02-02T11:02:23Z</time>
      </trkpt>
      <trkpt lat="48.51485" lon="2.09289">
        <ele>159.8</ele>
        <time>2026-02-02T11:02:24Z</time>
      </trkpt>
      <trkpt lat="48.51484" lon="2.09298">
        <ele>159.4</ele>
        <time>2026-02-02T11:02:25Z</time>
      </trkpt>
      <trkpt lat="48.51484" lon="2.09308">
        <ele>159.4</ele>
        <time>2026-02-02T11:02:26Z</time>
      </trkpt>
      <trkpt lat="48.51484" lon="2.09317">
        <ele>159.4</ele>
        <time>2026-02-02T11:02:27Z</time>
      </trkpt>
      <trkpt lat="48.51483" lon="2.09326">
        <ele>159.8</ele>
        <time>2026-02-02T11:02:28Z</time>
      </trkpt>
      <trkpt lat="48.51483" lon="2.09336">
        <ele>159.6</ele>
        <time>2026-02-02T11:02:29Z</time>
      </trkpt>
      <trkpt lat="48.51483" lon="2.09345">
        <ele>159.6</ele>
        <time>2026-02-02T11:02:30Z</time>
      </trkpt>
      <trkpt lat="48.51482" lon="2.09355">
        <ele>159.6</ele>
        <time>2026-02-02T11:02:31Z</time>
      </trkpt>
      <trkpt lat="48.51482" lon="2.09365">
        <ele>159.4</ele>
        <time>2026-02-02T11:02:32Z</time>
      </trkpt>
      <trkpt lat="48.51481" lon="2.09375">
        <ele>159.2</ele>
        <time>2026-02-02T11:02:33Z</time>
      </trkpt>
      <trkpt lat="48.51481" lon="2.09384">
        <ele>159.2</ele>
        <time>2026-02-02T11:02:34Z</time>
      </trkpt>
      <trkpt lat="48.5148" lon="2.09394">
        <ele>159.2</ele>
        <time>2026-02-02T11:02:35Z</time>
      </trkpt>
      <trkpt lat="48.5148" lon="2.09404">
        <ele>158.6</ele>
        <time>2026-02-02T11:02:36Z</time>
      </trkpt>
      <trkpt lat="48.5148" lon="2.09414">
        <ele>158.8</ele>
        <time>2026-02-02T11:02:37Z</time>
      </trkpt>
      <trkpt lat="48.51479" lon="2.09424">
        <ele>158.8</ele>
        <time>2026-02-02T11:02:38Z</time>
      </trkpt>
      <trkpt lat="48.51479" lon="2.09435">
        <ele>158.8</ele>
        <time>2026-02-02T11:02:39Z</time>
      </trkpt>
      <trkpt lat="48.51479" lon="2.09445">
        <ele>158.8</ele>
        <time>2026-02-02T11:02:40Z</time>
      </trkpt>
      <trkpt lat="48.51479" lon="2.09455">
        <ele>158</ele>
        <time>2026-02-02T11:02:41Z</time>
      </trkpt>
      <trkpt lat="48.51479" lon="2.09466">
        <ele>158</ele>
        <time>2026-02-02T11:02:42Z</time>
      </trkpt>
      <trkpt lat="48.51479" lon="2.09476">
        <ele>158</ele>
        <time>2026-02-02T11:02:43Z</time>
      </trkpt>
      <trkpt lat="48.5148" lon="2.09487">
        <ele>158.2</ele>
        <time>2026-02-02T11:02:44Z</time>
      </trkpt>
      <trkpt lat="48.51482" lon="2.09497">
        <ele>157.6</ele>
        <time>2026-02-02T11:02:45Z</time>
      </trkpt>
      <trkpt lat="48.51484" lon="2.09507">
        <ele>157.6</ele>
        <time>2026-02-02T11:02:46Z</time>
      </trkpt>
      <trkpt lat="48.51486" lon="2.09517">
        <ele>157.6</ele>
        <time>2026-02-02T11:02:47Z</time>
      </trkpt>
      <trkpt lat="48.51489" lon="2.09527">
        <ele>156.6</ele>
        <time>2026-02-02T11:02:48Z</time>
      </trkpt>
      <trkpt lat="48.51492" lon="2.09537">
        <ele>156.6</ele>
        <time>2026-02-02T11:02:49Z</time>
      </trkpt>
      <trkpt lat="48.51495" lon="2.09547">
        <ele>156.6</ele>
        <time>2026-02-02T11:02:50Z</time>
      </trkpt>
      <trkpt lat="48.51499" lon="2.09556">
        <ele>156.6</ele>
        <time>2026-02-02T11:02:51Z</time>
      </trkpt>
      <trkpt lat="48.51502" lon="2.09565">
        <ele>156</ele>
        <time>2026-02-02T11:02:52Z</time>
      </trkpt>
      <trkpt lat="48.51506" lon="2.09574">
        <ele>155.8</ele>
        <time>2026-02-02T11:02:53Z</time>
      </trkpt>
      <trkpt lat="48.5151" lon="2.09583">
        <ele>155.8</ele>
        <time>2026-02-02T11:02:54Z</time>
      </trkpt>
      <trkpt lat="48.51515" lon="2.09592">
        <ele>155.8</ele>
        <time>2026-02-02T11:02:55Z</time>
      </trkpt>
      <trkpt lat="48.51519" lon="2.09602">
        <ele>155.8</ele>
        <time>2026-02-02T11:02:56Z</time>
      </trkpt>
      <trkpt lat="48.51523" lon="2.09611">
        <ele>155.2</ele>
        <time>2026-02-02T11:02:57Z</time>
      </trkpt>
      <trkpt lat="48.51527" lon="2.0962">
        <ele>155.2</ele>
        <time>2026-02-02T11:02:58Z</time>
      </trkpt>
      <trkpt lat="48.51531" lon="2.09629">
        <ele>155.2</ele>
        <time>2026-02-02T11:02:59Z</time>
      </trkpt>
      <trkpt lat="48.51535" lon="2.09639">
        <ele>154.6</ele>
        <time>2026-02-02T11:03:00Z</time>
      </trkpt>
      <trkpt lat="48.51539" lon="2.09648">
        <ele>154.8</ele>
        <time>2026-02-02T11:03:01Z</time>
      </trkpt>
      <trkpt lat="48.51543" lon="2.09657">
        <ele>154.8</ele>
        <time>2026-02-02T11:03:02Z</time>
      </trkpt>
      <trkpt lat="48.51546" lon="2.09667">
        <ele>154.8</ele>
        <time>2026-02-02T11:03:03Z</time>
      </trkpt>
      <trkpt lat="48.51549" lon="2.09677">
        <ele>154.2</ele>
        <time>2026-02-02T11:03:04Z</time>
      </trkpt>
      <trkpt lat="48.51551" lon="2.09688">
        <ele>154</ele>
        <time>2026-02-02T11:03:05Z</time>
      </trkpt>
      <trkpt lat="48.51553" lon="2.09699">
        <ele>154</ele>
        <time>2026-02-02T11:03:06Z</time>
      </trkpt>
      <trkpt lat="48.51554" lon="2.0971">
        <ele>154</ele>
        <time>2026-02-02T11:03:07Z</time>
      </trkpt>
      <trkpt lat="48.51554" lon="2.09721">
        <ele>154</ele>
        <time>2026-02-02T11:03:08Z</time>
      </trkpt>
      <trkpt lat="48.51554" lon="2.09732">
        <ele>153.6</ele>
        <time>2026-02-02T11:03:09Z</time>
      </trkpt>
      <trkpt lat="48.51554" lon="2.09743">
        <ele>153.6</ele>
        <time>2026-02-02T11:03:10Z</time>
      </trkpt>
      <trkpt lat="48.51553" lon="2.09753">
        <ele>153.6</ele>
        <time>2026-02-02T11:03:11Z</time>
      </trkpt>
      <trkpt lat="48.51552" lon="2.09763">
        <ele>153.6</ele>
        <time>2026-02-02T11:03:12Z</time>
      </trkpt>
      <trkpt lat="48.51551" lon="2.09773">
        <ele>153.8</ele>
        <time>2026-02-02T11:03:13Z</time>
      </trkpt>
      <trkpt lat="48.51549" lon="2.09783">
        <ele>153.8</ele>
        <time>2026-02-02T11:03:14Z</time>
      </trkpt>
      <trkpt lat="48.51548" lon="2.09792">
        <ele>153.8</ele>
        <time>2026-02-02T11:03:15Z</time>
      </trkpt>
      <trkpt lat="48.51547" lon="2.09801">
        <ele>153.8</ele>
        <time>2026-02-02T11:03:16Z</time>
      </trkpt>
      <trkpt lat="48.51545" lon="2.09811">
        <ele>153.8</ele>
        <time>2026-02-02T11:03:17Z</time>
      </trkpt>
      <trkpt lat="48.51543" lon="2.0982">
        <ele>153.8</ele>
        <time>2026-02-02T11:03:18Z</time>
      </trkpt>
      <trkpt lat="48.51541" lon="2.09828">
        <ele>153.8</ele>
        <time>2026-02-02T11:03:19Z</time>
      </trkpt>
      <trkpt lat="48.51539" lon="2.09836">
        <ele>154.8</ele>
        <time>2026-02-02T11:03:20Z</time>
      </trkpt>
      <trkpt lat="48.51537" lon="2.09843">
        <ele>155</ele>
        <time>2026-02-02T11:03:21Z</time>
      </trkpt>
      <trkpt lat="48.51535" lon="2.0985">
        <ele>155</ele>
        <time>2026-02-02T11:03:22Z</time>
      </trkpt>
      <trkpt lat="48.51532" lon="2.09856">
        <ele>155</ele>
        <time>2026-02-02T11:03:23Z</time>
      </trkpt>
      <trkpt lat="48.5153" lon="2.09862">
        <ele>155.4</ele>
        <time>2026-02-02T11:03:24Z</time>
      </trkpt>
      <trkpt lat="48.51528" lon="2.09868">
        <ele>155.4</ele>
        <time>2026-02-02T11:03:25Z</time>
      </trkpt>
      <trkpt lat="48.51526" lon="2.09874">
        <ele>155.4</ele>
        <time>2026-02-02T11:03:26Z</time>
      </trkpt>
      <trkpt lat="48.51525" lon="2.0988">
        <ele>155.4</ele>
        <time>2026-02-02T11:03:27Z</time>
      </trkpt>
      <trkpt lat="48.51522" lon="2.09886">
        <ele>156</ele>
        <time>2026-02-02T11:03:28Z</time>
      </trkpt>
      <trkpt lat="48.5152" lon="2.09892">
        <ele>155.8</ele>
        <time>2026-02-02T11:03:29Z</time>
      </trkpt>
      <trkpt lat="48.51519" lon="2.09899">
        <ele>155.8</ele>
        <time>2026-02-02T11:03:30Z</time>
      </trkpt>
      <trkpt lat="48.51518" lon="2.09905">
        <ele>155.8</ele>
        <time>2026-02-02T11:03:31Z</time>
      </trkpt>
      <trkpt lat="48.51516" lon="2.09912">
        <ele>156.6</ele>
        <time>2026-02-02T11:03:32Z</time>
      </trkpt>
      <trkpt lat="48.51515" lon="2.09918">
        <ele>156.8</ele>
        <time>2026-02-02T11:03:33Z</time>
      </trkpt>
      <trkpt lat="48.51515" lon="2.09922">
        <ele>156.8</ele>
        <time>2026-02-02T11:03:34Z</time>
      </trkpt>
      <trkpt lat="48.51514" lon="2.09926">
        <ele>156.8</ele>
        <time>2026-02-02T11:03:35Z</time>
      </trkpt>
      <trkpt lat="48.51513" lon="2.09933">
        <ele>156.8</ele>
        <time>2026-02-02T11:03:36Z</time>
      </trkpt>
      <trkpt lat="48.51514" lon="2.09937">
        <ele>157.4</ele>
        <time>2026-02-02T11:03:37Z</time>
      </trkpt>
      <trkpt lat="48.51512" lon="2.09946">
        <ele>157.4</ele>
        <time>2026-02-02T11:03:38Z</time>
      </trkpt>
      <trkpt lat="48.51513" lon="2.09954">
        <ele>157.4</ele>
        <time>2026-02-02T11:03:39Z</time>
      </trkpt>
      <trkpt lat="48.51513" lon="2.09962">
        <ele>157.6</ele>
        <time>2026-02-02T11:03:40Z</time>
      </trkpt>
      <trkpt lat="48.51514" lon="2.09971">
        <ele>157.6</ele>
        <time>2026-02-02T11:03:41Z</time>
      </trkpt>
      <trkpt lat="48.51513" lon="2.09979">
        <ele>157.6</ele>
        <time>2026-02-02T11:03:42Z</time>
      </trkpt>
      <trkpt lat="48.51513" lon="2.09988">
        <ele>157.6</ele>
        <time>2026-02-02T11:03:43Z</time>
      </trkpt>
      <trkpt lat="48.51513" lon="2.09998">
        <ele>157.6</ele>
        <time>2026-02-02T11:03:44Z</time>
      </trkpt>
      <trkpt lat="48.51514" lon="2.10007">
        <ele>157.6</ele>
        <time>2026-02-02T11:03:45Z</time>
      </trkpt>
      <trkpt lat="48.51514" lon="2.10017">
        <ele>157.6</ele>
        <time>2026-02-02T11:03:46Z</time>
      </trkpt>
      <trkpt lat="48.51514" lon="2.10027">
        <ele>157.6</ele>
        <time>2026-02-02T11:03:47Z</time>
      </trkpt>
      <trkpt lat="48.51515" lon="2.10037">
        <ele>157.6</ele>
        <time>2026-02-02T11:03:48Z</time>
      </trkpt>
      <trkpt lat="48.51515" lon="2.10045">
        <ele>158</ele>
        <time>2026-02-02T11:03:49Z</time>
      </trkpt>
      <trkpt lat="48.51516" lon="2.10055">
        <ele>158</ele>
        <time>2026-02-02T11:03:50Z</time>
      </trkpt>
      <trkpt lat="48.51517" lon="2.10064">
        <ele>158</ele>
        <time>2026-02-02T11:03:51Z</time>
      </trkpt>
      <trkpt lat="48.51517" lon="2.10073">
        <ele>157.8</ele>
        <time>2026-02-02T11:03:52Z</time>
      </trkpt>
      <trkpt lat="48.51517" lon="2.10083">
        <ele>158</ele>
        <time>2026-02-02T11:03:53Z</time>
      </trkpt>
      <trkpt lat="48.51517" lon="2.10092">
        <ele>158</ele>
        <time>2026-02-02T11:03:54Z</time>
      </trkpt>
      <trkpt lat="48.51517" lon="2.10103">
        <ele>158</ele>
        <time>2026-02-02T11:03:55Z</time>
      </trkpt>
      <trkpt lat="48.51516" lon="2.10112">
        <ele>157.6</ele>
        <time>2026-02-02T11:03:56Z</time>
      </trkpt>
      <trkpt lat="48.51515" lon="2.10122">
        <ele>157.8</ele>
        <time>2026-02-02T11:03:57Z</time>
      </trkpt>
      <trkpt lat="48.51514" lon="2.10131">
        <ele>157.8</ele>
        <time>2026-02-02T11:03:58Z</time>
      </trkpt>
      <trkpt lat="48.51512" lon="2.10141">
        <ele>157.8</ele>
        <time>2026-02-02T11:03:59Z</time>
      </trkpt>
      <trkpt lat="48.51511" lon="2.10152">
        <ele>157.8</ele>
        <time>2026-02-02T11:04:00Z</time>
      </trkpt>
      <trkpt lat="48.51509" lon="2.10162">
        <ele>157.6</ele>
        <time>2026-02-02T11:04:01Z</time>
      </trkpt>
      <trkpt lat="48.51507" lon="2.10172">
        <ele>157.6</ele>
        <time>2026-02-02T11:04:02Z</time>
      </trkpt>
      <trkpt lat="48.51505" lon="2.10182">
        <ele>157.6</ele>
        <time>2026-02-02T11:04:03Z</time>
      </trkpt>
      <trkpt lat="48.51504" lon="2.10192">
        <ele>157.6</ele>
        <time>2026-02-02T11:04:04Z</time>
      </trkpt>
      <trkpt lat="48.51502" lon="2.10202">
        <ele>157.4</ele>
        <time>2026-02-02T11:04:05Z</time>
      </trkpt>
      <trkpt lat="48.515" lon="2.10211">
        <ele>157.4</ele>
        <time>2026-02-02T11:04:06Z</time>
      </trkpt>
      <trkpt lat="48.51498" lon="2.1022">
        <ele>157.4</ele>
        <time>2026-02-02T11:04:07Z</time>
      </trkpt>
      <trkpt lat="48.51496" lon="2.1023">
        <ele>157.4</ele>
        <time>2026-02-02T11:04:08Z</time>
      </trkpt>
      <trkpt lat="48.51494" lon="2.10239">
        <ele>157.4</ele>
        <time>2026-02-02T11:04:09Z</time>
      </trkpt>
      <trkpt lat="48.51492" lon="2.10249">
        <ele>157.4</ele>
        <time>2026-02-02T11:04:10Z</time>
      </trkpt>
      <trkpt lat="48.51489" lon="2.10258">
        <ele>157.4</ele>
        <time>2026-02-02T11:04:11Z</time>
      </trkpt>
      <trkpt lat="48.51487" lon="2.10268">
        <ele>157.4</ele>
        <time>2026-02-02T11:04:12Z</time>
      </trkpt>
      <trkpt lat="48.51484" lon="2.10277">
        <ele>157.4</ele>
        <time>2026-02-02T11:04:13Z</time>
      </trkpt>
      <trkpt lat="48.51482" lon="2.10286">
        <ele>157.4</ele>
        <time>2026-02-02T11:04:14Z</time>
      </trkpt>
      <trkpt lat="48.5148" lon="2.10296">
        <ele>157.4</ele>
        <time>2026-02-02T11:04:15Z</time>
      </trkpt>
      <trkpt lat="48.51477" lon="2.10305">
        <ele>157.4</ele>
        <time>2026-02-02T11:04:16Z</time>
      </trkpt>
      <trkpt lat="48.51475" lon="2.10315">
        <ele>157.6</ele>
        <time>2026-02-02T11:04:17Z</time>
      </trkpt>
      <trkpt lat="48.51472" lon="2.10324">
        <ele>157.6</ele>
        <time>2026-02-02T11:04:18Z</time>
      </trkpt>
      <trkpt lat="48.51469" lon="2.10334">
        <ele>157.6</ele>
        <time>2026-02-02T11:04:19Z</time>
      </trkpt>
      <trkpt lat="48.51467" lon="2.10343">
        <ele>157.6</ele>
        <time>2026-02-02T11:04:20Z</time>
      </trkpt>
      <trkpt lat="48.51464" lon="2.10352">
        <ele>157.6</ele>
        <time>2026-02-02T11:04:21Z</time>
      </trkpt>
      <trkpt lat="48.51461" lon="2.10361">
        <ele>157.6</ele>
        <time>2026-02-02T11:04:22Z</time>
      </trkpt>
      <trkpt lat="48.51459" lon="2.1037">
        <ele>157.6</ele>
        <time>2026-02-02T11:04:23Z</time>
      </trkpt>
      <trkpt lat="48.51456" lon="2.10379">
        <ele>157.6</ele>
        <time>2026-02-02T11:04:24Z</time>
      </trkpt>
      <trkpt lat="48.51454" lon="2.10388">
        <ele>157.2</ele>
        <time>2026-02-02T11:04:25Z</time>
      </trkpt>
      <trkpt lat="48.51451" lon="2.10397">
        <ele>157.2</ele>
        <time>2026-02-02T11:04:26Z</time>
      </trkpt>
      <trkpt lat="48.51448" lon="2.10405">
        <ele>157.2</ele>
        <time>2026-02-02T11:04:27Z</time>
      </trkpt>
      <trkpt lat="48.51446" lon="2.10413">
        <ele>157.2</ele>
        <time>2026-02-02T11:04:28Z</time>
      </trkpt>
      <trkpt lat="48.51443" lon="2.10422">
        <ele>157.2</ele>
        <time>2026-02-02T11:04:29Z</time>
      </trkpt>
      <trkpt lat="48.5144" lon="2.10431">
        <ele>157.2</ele>
        <time>2026-02-02T11:04:30Z</time>
      </trkpt>
      <trkpt lat="48.51437" lon="2.10441">
        <ele>157.2</ele>
        <time>2026-02-02T11:04:31Z</time>
      </trkpt>
      <trkpt lat="48.51434" lon="2.10449">
        <ele>157.2</ele>
        <time>2026-02-02T11:04:32Z</time>
      </trkpt>
      <trkpt lat="48.51431" lon="2.10457">
        <ele>156.6</ele>
        <time>2026-02-02T11:04:33Z</time>
      </trkpt>
      <trkpt lat="48.51428" lon="2.10466">
        <ele>156.6</ele>
        <time>2026-02-02T11:04:34Z</time>
      </trkpt>
      <trkpt lat="48.51424" lon="2.10473">
        <ele>156.6</ele>
        <time>2026-02-02T11:04:35Z</time>
      </trkpt>
      <trkpt lat="48.51421" lon="2.10479">
        <ele>156.6</ele>
        <time>2026-02-02T11:04:36Z</time>
      </trkpt>
      <trkpt lat="48.51417" lon="2.10487">
        <ele>156.4</ele>
        <time>2026-02-02T11:04:37Z</time>
      </trkpt>
      <trkpt lat="48.51413" lon="2.10494">
        <ele>156.4</ele>
        <time>2026-02-02T11:04:38Z</time>
      </trkpt>
      <trkpt lat="48.51411" lon="2.10501">
        <ele>156.4</ele>
        <time>2026-02-02T11:04:39Z</time>
      </trkpt>
      <trkpt lat="48.51407" lon="2.10508">
        <ele>156.4</ele>
        <time>2026-02-02T11:04:40Z</time>
      </trkpt>
      <trkpt lat="48.51403" lon="2.10515">
        <ele>156</ele>
        <time>2026-02-02T11:04:41Z</time>
      </trkpt>
      <trkpt lat="48.51399" lon="2.10521">
        <ele>156</ele>
        <time>2026-02-02T11:04:42Z</time>
      </trkpt>
      <trkpt lat="48.51394" lon="2.10528">
        <ele>156</ele>
        <time>2026-02-02T11:04:43Z</time>
      </trkpt>
      <trkpt lat="48.5139" lon="2.10535">
        <ele>156</ele>
        <time>2026-02-02T11:04:44Z</time>
      </trkpt>
      <trkpt lat="48.51385" lon="2.10544">
        <ele>156.4</ele>
        <time>2026-02-02T11:04:45Z</time>
      </trkpt>
      <trkpt lat="48.5138" lon="2.10553">
        <ele>156.4</ele>
        <time>2026-02-02T11:04:46Z</time>
      </trkpt>
      <trkpt lat="48.51375" lon="2.10561">
        <ele>156.4</ele>
        <time>2026-02-02T11:04:47Z</time>
      </trkpt>
      <trkpt lat="48.5137" lon="2.1057">
        <ele>156.4</ele>
        <time>2026-02-02T11:04:48Z</time>
      </trkpt>
      <trkpt lat="48.51365" lon="2.10579">
        <ele>156.4</ele>
        <time>2026-02-02T11:04:49Z</time>
      </trkpt>
      <trkpt lat="48.51359" lon="2.10587">
        <ele>156.4</ele>
        <time>2026-02-02T11:04:50Z</time>
      </trkpt>
      <trkpt lat="48.51354" lon="2.10595">
        <ele>156.4</ele>
        <time>2026-02-02T11:04:51Z</time>
      </trkpt>
      <trkpt lat="48.51348" lon="2.10602">
        <ele>156.4</ele>
        <time>2026-02-02T11:04:52Z</time>
      </trkpt>
      <trkpt lat="48.51343" lon="2.10608">
        <ele>156.4</ele>
        <time>2026-02-02T11:04:53Z</time>
      </trkpt>
      <trkpt lat="48.51337" lon="2.10615">
        <ele>156.4</ele>
        <time>2026-02-02T11:04:54Z</time>
      </trkpt>
      <trkpt lat="48.51332" lon="2.10622">
        <ele>156.4</ele>
        <time>2026-02-02T11:04:55Z</time>
      </trkpt>
      <trkpt lat="48.51327" lon="2.10629">
        <ele>156.4</ele>
        <time>2026-02-02T11:04:56Z</time>
      </trkpt>
      <trkpt lat="48.51321" lon="2.10637">
        <ele>156.4</ele>
        <time>2026-02-02T11:04:57Z</time>
      </trkpt>
      <trkpt lat="48.51316" lon="2.10644">
        <ele>156.4</ele>
        <time>2026-02-02T11:04:58Z</time>
      </trkpt>
      <trkpt lat="48.5131" lon="2.1065">
        <ele>156.4</ele>
        <time>2026-02-02T11:04:59Z</time>
      </trkpt>
      <trkpt lat="48.51304" lon="2.10657">
        <ele>156</ele>
        <time>2026-02-02T11:05:00Z</time>
      </trkpt>
      <trkpt lat="48.51299" lon="2.10663">
        <ele>155.8</ele>
        <time>2026-02-02T11:05:01Z</time>
      </trkpt>
      <trkpt lat="48.51293" lon="2.1067">
        <ele>155.8</ele>
        <time>2026-02-02T11:05:02Z</time>
      </trkpt>
      <trkpt lat="48.51287" lon="2.10676">
        <ele>155.8</ele>
        <time>2026-02-02T11:05:03Z</time>
      </trkpt>
      <trkpt lat="48.51282" lon="2.10682">
        <ele>155.8</ele>
        <time>2026-02-02T11:05:04Z</time>
      </trkpt>
      <trkpt lat="48.51276" lon="2.10688">
        <ele>156.2</ele>
        <time>2026-02-02T11:05:05Z</time>
      </trkpt>
      <trkpt lat="48.51271" lon="2.10694">
        <ele>156.2</ele>
        <time>2026-02-02T11:05:06Z</time>
      </trkpt>
      <trkpt lat="48.51266" lon="2.107">
        <ele>156.2</ele>
        <time>2026-02-02T11:05:07Z</time>
      </trkpt>
      <trkpt lat="48.51261" lon="2.10705">
        <ele>156.2</ele>
        <time>2026-02-02T11:05:08Z</time>
      </trkpt>
      <trkpt lat="48.51256" lon="2.10711">
        <ele>155.2</ele>
        <time>2026-02-02T11:05:09Z</time>
      </trkpt>
      <trkpt lat="48.51251" lon="2.10718">
        <ele>155.2</ele>
        <time>2026-02-02T11:05:10Z</time>
      </trkpt>
      <trkpt lat="48.51246" lon="2.10724">
        <ele>155.2</ele>
        <time>2026-02-02T11:05:11Z</time>
      </trkpt>
      <trkpt lat="48.51241" lon="2.10731">
        <ele>154.4</ele>
        <time>2026-02-02T11:05:12Z</time>
      </trkpt>
      <trkpt lat="48.51236" lon="2.10737">
        <ele>154</ele>
        <time>2026-02-02T11:05:13Z</time>
      </trkpt>
      <trkpt lat="48.51231" lon="2.10744">
        <ele>154</ele>
        <time>2026-02-02T11:05:14Z</time>
      </trkpt>
      <trkpt lat="48.51227" lon="2.10752">
        <ele>154</ele>
        <time>2026-02-02T11:05:15Z</time>
      </trkpt>
      <trkpt lat="48.51222" lon="2.1076">
        <ele>153</ele>
        <time>2026-02-02T11:05:16Z</time>
      </trkpt>
      <trkpt lat="48.51217" lon="2.10769">
        <ele>152.8</ele>
        <time>2026-02-02T11:05:17Z</time>
      </trkpt>
      <trkpt lat="48.51213" lon="2.10778">
        <ele>152.8</ele>
        <time>2026-02-02T11:05:18Z</time>
      </trkpt>
      <trkpt lat="48.51208" lon="2.10788">
        <ele>152.8</ele>
        <time>2026-02-02T11:05:19Z</time>
      </trkpt>
      <trkpt lat="48.51205" lon="2.108">
        <ele>152</ele>
        <time>2026-02-02T11:05:20Z</time>
      </trkpt>
      <trkpt lat="48.51201" lon="2.10811">
        <ele>151</ele>
        <time>2026-02-02T11:05:21Z</time>
      </trkpt>
      <trkpt lat="48.51199" lon="2.10823">
        <ele>151</ele>
        <time>2026-02-02T11:05:22Z</time>
      </trkpt>
      <trkpt lat="48.51196" lon="2.10836">
        <ele>151</ele>
        <time>2026-02-02T11:05:23Z</time>
      </trkpt>
      <trkpt lat="48.51194" lon="2.10849">
        <ele>150</ele>
        <time>2026-02-02T11:05:24Z</time>
      </trkpt>
      <trkpt lat="48.51192" lon="2.10862">
        <ele>148.8</ele>
        <time>2026-02-02T11:05:25Z</time>
      </trkpt>
      <trkpt lat="48.51191" lon="2.10875">
        <ele>148.8</ele>
        <time>2026-02-02T11:05:26Z</time>
      </trkpt>
      <trkpt lat="48.5119" lon="2.10888">
        <ele>148.8</ele>
        <time>2026-02-02T11:05:27Z</time>
      </trkpt>
      <trkpt lat="48.51189" lon="2.10901">
        <ele>147.8</ele>
        <time>2026-02-02T11:05:28Z</time>
      </trkpt>
      <trkpt lat="48.51189" lon="2.10915">
        <ele>146.8</ele>
        <time>2026-02-02T11:05:29Z</time>
      </trkpt>
      <trkpt lat="48.5119" lon="2.10928">
        <ele>146.8</ele>
        <time>2026-02-02T11:05:30Z</time>
      </trkpt>
      <trkpt lat="48.51192" lon="2.10941">
        <ele>146.8</ele>
        <time>2026-02-02T11:05:31Z</time>
      </trkpt>
      <trkpt lat="48.51193" lon="2.10954">
        <ele>145.8</ele>
        <time>2026-02-02T11:05:32Z</time>
      </trkpt>
      <trkpt lat="48.51195" lon="2.10967">
        <ele>145.2</ele>
        <time>2026-02-02T11:05:33Z</time>
      </trkpt>
      <trkpt lat="48.51197" lon="2.1098">
        <ele>145.2</ele>
        <time>2026-02-02T11:05:34Z</time>
      </trkpt>
      <trkpt lat="48.512" lon="2.10993">
        <ele>145.2</ele>
        <time>2026-02-02T11:05:35Z</time>
      </trkpt>
      <trkpt lat="48.51202" lon="2.11006">
        <ele>144.2</ele>
        <time>2026-02-02T11:05:36Z</time>
      </trkpt>
      <trkpt lat="48.51205" lon="2.11019">
        <ele>143.4</ele>
        <time>2026-02-02T11:05:37Z</time>
      </trkpt>
      <trkpt lat="48.51209" lon="2.11032">
        <ele>143.4</ele>
        <time>2026-02-02T11:05:38Z</time>
      </trkpt>
      <trkpt lat="48.51212" lon="2.11045">
        <ele>143.4</ele>
        <time>2026-02-02T11:05:39Z</time>
      </trkpt>
      <trkpt lat="48.51215" lon="2.11058">
        <ele>143.4</ele>
        <time>2026-02-02T11:05:40Z</time>
      </trkpt>
      <trkpt lat="48.51218" lon="2.11071">
        <ele>140.2</ele>
        <time>2026-02-02T11:05:41Z</time>
      </trkpt>
      <trkpt lat="48.5122" lon="2.11086">
        <ele>140.2</ele>
        <time>2026-02-02T11:05:42Z</time>
      </trkpt>
      <trkpt lat="48.51221" lon="2.111">
        <ele>140.2</ele>
        <time>2026-02-02T11:05:43Z</time>
      </trkpt>
      <trkpt lat="48.51221" lon="2.11114">
        <ele>140.2</ele>
        <time>2026-02-02T11:05:44Z</time>
      </trkpt>
      <trkpt lat="48.5122" lon="2.11128">
        <ele>138.6</ele>
        <time>2026-02-02T11:05:45Z</time>
      </trkpt>
      <trkpt lat="48.51219" lon="2.11142">
        <ele>138.6</ele>
        <time>2026-02-02T11:05:46Z</time>
      </trkpt>
      <trkpt lat="48.51217" lon="2.11156">
        <ele>138.6</ele>
        <time>2026-02-02T11:05:47Z</time>
      </trkpt>
      <trkpt lat="48.51215" lon="2.1117">
        <ele>138</ele>
        <time>2026-02-02T11:05:48Z</time>
      </trkpt>
      <trkpt lat="48.51214" lon="2.11184">
        <ele>136.4</ele>
        <time>2026-02-02T11:05:49Z</time>
      </trkpt>
      <trkpt lat="48.51212" lon="2.11198">
        <ele>136.4</ele>
        <time>2026-02-02T11:05:50Z</time>
      </trkpt>
      <trkpt lat="48.51211" lon="2.11212">
        <ele>136.4</ele>
        <time>2026-02-02T11:05:51Z</time>
      </trkpt>
      <trkpt lat="48.51209" lon="2.11226">
        <ele>136.4</ele>
        <time>2026-02-02T11:05:52Z</time>
      </trkpt>
      <trkpt lat="48.51209" lon="2.11241">
        <ele>134.2</ele>
        <time>2026-02-02T11:05:53Z</time>
      </trkpt>
      <trkpt lat="48.51208" lon="2.11255">
        <ele>134.2</ele>
        <time>2026-02-02T11:05:54Z</time>
      </trkpt>
      <trkpt lat="48.51209" lon="2.1127">
        <ele>134.2</ele>
        <time>2026-02-02T11:05:55Z</time>
      </trkpt>
      <trkpt lat="48.51209" lon="2.11284">
        <ele>133.2</ele>
        <time>2026-02-02T11:05:56Z</time>
      </trkpt>
      <trkpt lat="48.5121" lon="2.11299">
        <ele>131.6</ele>
        <time>2026-02-02T11:05:57Z</time>
      </trkpt>
      <trkpt lat="48.51211" lon="2.11313">
        <ele>131.6</ele>
        <time>2026-02-02T11:05:58Z</time>
      </trkpt>
      <trkpt lat="48.51213" lon="2.11328">
        <ele>131.6</ele>
        <time>2026-02-02T11:05:59Z</time>
      </trkpt>
      <trkpt lat="48.51215" lon="2.11341">
        <ele>130.6</ele>
        <time>2026-02-02T11:06:00Z</time>
      </trkpt>
      <trkpt lat="48.51217" lon="2.11355">
        <ele>128.8</ele>
        <time>2026-02-02T11:06:01Z</time>
      </trkpt>
      <trkpt lat="48.5122" lon="2.11368">
        <ele>128.8</ele>
        <time>2026-02-02T11:06:02Z</time>
      </trkpt>
      <trkpt lat="48.51222" lon="2.1138">
        <ele>128.8</ele>
        <time>2026-02-02T11:06:03Z</time>
      </trkpt>
      <trkpt lat="48.51226" lon="2.11393">
        <ele>128.8</ele>
        <time>2026-02-02T11:06:04Z</time>
      </trkpt>
      <trkpt lat="48.51229" lon="2.11405">
        <ele>127</ele>
        <time>2026-02-02T11:06:05Z</time>
      </trkpt>
      <trkpt lat="48.51233" lon="2.11417">
        <ele>127</ele>
        <time>2026-02-02T11:06:06Z</time>
      </trkpt>
      <trkpt lat="48.51237" lon="2.11428">
        <ele>127</ele>
        <time>2026-02-02T11:06:07Z</time>
      </trkpt>
      <trkpt lat="48.51242" lon="2.1144">
        <ele>126</ele>
        <time>2026-02-02T11:06:08Z</time>
      </trkpt>
      <trkpt lat="48.51247" lon="2.11452">
        <ele>125.2</ele>
        <time>2026-02-02T11:06:09Z</time>
      </trkpt>
      <trkpt lat="48.51253" lon="2.11464">
        <ele>125.2</ele>
        <time>2026-02-02T11:06:10Z</time>
      </trkpt>
      <trkpt lat="48.51258" lon="2.11476">
        <ele>125.2</ele>
        <time>2026-02-02T11:06:11Z</time>
      </trkpt>
      <trkpt lat="48.51262" lon="2.11488">
        <ele>124.2</ele>
        <time>2026-02-02T11:06:12Z</time>
      </trkpt>
      <trkpt lat="48.51268" lon="2.11501">
        <ele>122.6</ele>
        <time>2026-02-02T11:06:13Z</time>
      </trkpt>
      <trkpt lat="48.51273" lon="2.11514">
        <ele>122.6</ele>
        <time>2026-02-02T11:06:14Z</time>
      </trkpt>
      <trkpt lat="48.51278" lon="2.11528">
        <ele>122.6</ele>
        <time>2026-02-02T11:06:15Z</time>
      </trkpt>
      <trkpt lat="48.51283" lon="2.11541">
        <ele>121.6</ele>
        <time>2026-02-02T11:06:16Z</time>
      </trkpt>
      <trkpt lat="48.51287" lon="2.11554">
        <ele>120</ele>
        <time>2026-02-02T11:06:17Z</time>
      </trkpt>
      <trkpt lat="48.51291" lon="2.11568">
        <ele>120</ele>
        <time>2026-02-02T11:06:18Z</time>
      </trkpt>
      <trkpt lat="48.51295" lon="2.11582">
        <ele>120</ele>
        <time>2026-02-02T11:06:19Z</time>
      </trkpt>
      <trkpt lat="48.51299" lon="2.11596">
        <ele>119</ele>
        <time>2026-02-02T11:06:20Z</time>
      </trkpt>
      <trkpt lat="48.51303" lon="2.11611">
        <ele>117.8</ele>
        <time>2026-02-02T11:06:21Z</time>
      </trkpt>
      <trkpt lat="48.51306" lon="2.11625">
        <ele>117.8</ele>
        <time>2026-02-02T11:06:22Z</time>
      </trkpt>
      <trkpt lat="48.51309" lon="2.1164">
        <ele>117.8</ele>
        <time>2026-02-02T11:06:23Z</time>
      </trkpt>
      <trkpt lat="48.51311" lon="2.11655">
        <ele>116.8</ele>
        <time>2026-02-02T11:06:24Z</time>
      </trkpt>
      <trkpt lat="48.51313" lon="2.1167">
        <ele>115.2</ele>
        <time>2026-02-02T11:06:25Z</time>
      </trkpt>
      <trkpt lat="48.51315" lon="2.11685">
        <ele>115.2</ele>
        <time>2026-02-02T11:06:26Z</time>
      </trkpt>
      <trkpt lat="48.51315" lon="2.117">
        <ele>115.2</ele>
        <time>2026-02-02T11:06:27Z</time>
      </trkpt>
      <trkpt lat="48.51315" lon="2.11714">
        <ele>114.2</ele>
        <time>2026-02-02T11:06:28Z</time>
      </trkpt>
      <trkpt lat="48.51314" lon="2.11728">
        <ele>113</ele>
        <time>2026-02-02T11:06:29Z</time>
      </trkpt>
      <trkpt lat="48.51313" lon="2.11742">
        <ele>113</ele>
        <time>2026-02-02T11:06:30Z</time>
      </trkpt>
      <trkpt lat="48.51311" lon="2.11755">
        <ele>113</ele>
        <time>2026-02-02T11:06:31Z</time>
      </trkpt>
      <trkpt lat="48.51308" lon="2.11768">
        <ele>112</ele>
        <time>2026-02-02T11:06:32Z</time>
      </trkpt>
      <trkpt lat="48.51306" lon="2.11781">
        <ele>111</ele>
        <time>2026-02-02T11:06:33Z</time>
      </trkpt>
      <trkpt lat="48.51303" lon="2.11793">
        <ele>111</ele>
        <time>2026-02-02T11:06:34Z</time>
      </trkpt>
      <trkpt lat="48.51301" lon="2.11805">
        <ele>111</ele>
        <time>2026-02-02T11:06:35Z</time>
      </trkpt>
      <trkpt lat="48.513" lon="2.11817">
        <ele>110</ele>
        <time>2026-02-02T11:06:36Z</time>
      </trkpt>
      <trkpt lat="48.51298" lon="2.11829">
        <ele>109.6</ele>
        <time>2026-02-02T11:06:37Z</time>
      </trkpt>
      <trkpt lat="48.51297" lon="2.11841">
        <ele>109.6</ele>
        <time>2026-02-02T11:06:38Z</time>
      </trkpt>
      <trkpt lat="48.51297" lon="2.11854">
        <ele>109.6</ele>
        <time>2026-02-02T11:06:39Z</time>
      </trkpt>
      <trkpt lat="48.51298" lon="2.11866">
        <ele>108.6</ele>
        <time>2026-02-02T11:06:40Z</time>
      </trkpt>
      <trkpt lat="48.51299" lon="2.11878">
        <ele>107.6</ele>
        <time>2026-02-02T11:06:41Z</time>
      </trkpt>
      <trkpt lat="48.513" lon="2.11891">
        <ele>107.6</ele>
        <time>2026-02-02T11:06:42Z</time>
      </trkpt>
      <trkpt lat="48.51303" lon="2.11904">
        <ele>107.6</ele>
        <time>2026-02-02T11:06:43Z</time>
      </trkpt>
      <trkpt lat="48.51305" lon="2.11916">
        <ele>106.6</ele>
        <time>2026-02-02T11:06:44Z</time>
      </trkpt>
      <trkpt lat="48.51308" lon="2.11929">
        <ele>104.8</ele>
        <time>2026-02-02T11:06:45Z</time>
      </trkpt>
      <trkpt lat="48.51311" lon="2.11942">
        <ele>104.8</ele>
        <time>2026-02-02T11:06:46Z</time>
      </trkpt>
      <trkpt lat="48.51314" lon="2.11954">
        <ele>104.8</ele>
        <time>2026-02-02T11:06:47Z</time>
      </trkpt>
      <trkpt lat="48.51318" lon="2.11967">
        <ele>103.8</ele>
        <time>2026-02-02T11:06:48Z</time>
      </trkpt>
      <trkpt lat="48.51321" lon="2.11981">
        <ele>103</ele>
        <time>2026-02-02T11:06:49Z</time>
      </trkpt>
      <trkpt lat="48.51324" lon="2.11994">
        <ele>103</ele>
        <time>2026-02-02T11:06:50Z</time>
      </trkpt>
      <trkpt lat="48.51327" lon="2.12008">
        <ele>103</ele>
        <time>2026-02-02T11:06:51Z</time>
      </trkpt>
      <trkpt lat="48.5133" lon="2.12023">
        <ele>102</ele>
        <time>2026-02-02T11:06:52Z</time>
      </trkpt>
      <trkpt lat="48.51333" lon="2.12037">
        <ele>100.4</ele>
        <time>2026-02-02T11:06:53Z</time>
      </trkpt>
      <trkpt lat="48.51337" lon="2.12052">
        <ele>100.4</ele>
        <time>2026-02-02T11:06:54Z</time>
      </trkpt>
      <trkpt lat="48.5134" lon="2.12066">
        <ele>100.4</ele>
        <time>2026-02-02T11:06:55Z</time>
      </trkpt>
      <trkpt lat="48.51343" lon="2.12081">
        <ele>99.4</ele>
        <time>2026-02-02T11:06:56Z</time>
      </trkpt>
      <trkpt lat="48.51347" lon="2.12095">
        <ele>98</ele>
        <time>2026-02-02T11:06:57Z</time>
      </trkpt>
      <trkpt lat="48.5135" lon="2.1211">
        <ele>98</ele>
        <time>2026-02-02T11:06:58Z</time>
      </trkpt>
      <trkpt lat="48.51354" lon="2.12124">
        <ele>98</ele>
        <time>2026-02-02T11:06:59Z</time>
      </trkpt>
      <trkpt lat="48.51357" lon="2.12137">
        <ele>97</ele>
        <time>2026-02-02T11:07:00Z</time>
      </trkpt>
      <trkpt lat="48.5136" lon="2.1215">
        <ele>96.8</ele>
        <time>2026-02-02T11:07:01Z</time>
      </trkpt>
      <trkpt lat="48.51363" lon="2.12163">
        <ele>96.8</ele>
        <time>2026-02-02T11:07:02Z</time>
      </trkpt>
      <trkpt lat="48.51366" lon="2.12176">
        <ele>96.8</ele>
        <time>2026-02-02T11:07:03Z</time>
      </trkpt>
      <trkpt lat="48.51369" lon="2.12188">
        <ele>96.2</ele>
        <time>2026-02-02T11:07:04Z</time>
      </trkpt>
      <trkpt lat="48.51373" lon="2.12199">
        <ele>96.2</ele>
        <time>2026-02-02T11:07:05Z</time>
      </trkpt>
      <trkpt lat="48.51377" lon="2.1221">
        <ele>96.2</ele>
        <time>2026-02-02T11:07:06Z</time>
      </trkpt>
      <trkpt lat="48.51381" lon="2.1222">
        <ele>96.2</ele>
        <time>2026-02-02T11:07:07Z</time>
      </trkpt>
      <trkpt lat="48.51386" lon="2.12229">
        <ele>96</ele>
        <time>2026-02-02T11:07:08Z</time>
      </trkpt>
      <trkpt lat="48.51391" lon="2.12239">
        <ele>96</ele>
        <time>2026-02-02T11:07:09Z</time>
      </trkpt>
      <trkpt lat="48.51396" lon="2.12248">
        <ele>96</ele>
        <time>2026-02-02T11:07:10Z</time>
      </trkpt>
      <trkpt lat="48.51401" lon="2.12257">
        <ele>96</ele>
        <time>2026-02-02T11:07:11Z</time>
      </trkpt>
      <trkpt lat="48.51405" lon="2.12266">
        <ele>96</ele>
        <time>2026-02-02T11:07:12Z</time>
      </trkpt>
      <trkpt lat="48.51409" lon="2.12275">
        <ele>95.8</ele>
        <time>2026-02-02T11:07:13Z</time>
      </trkpt>
      <trkpt lat="48.51413" lon="2.12283">
        <ele>95.8</ele>
        <time>2026-02-02T11:07:14Z</time>
      </trkpt>
      <trkpt lat="48.51417" lon="2.12291">
        <ele>95.8</ele>
        <time>2026-02-02T11:07:15Z</time>
      </trkpt>
      <trkpt lat="48.51421" lon="2.123">
        <ele>95.6</ele>
        <time>2026-02-02T11:07:16Z</time>
      </trkpt>
      <trkpt lat="48.51425" lon="2.12309">
        <ele>95</ele>
        <time>2026-02-02T11:07:17Z</time>
      </trkpt>
      <trkpt lat="48.51426" lon="2.12318">
        <ele>95</ele>
        <time>2026-02-02T11:07:18Z</time>
      </trkpt>
      <trkpt lat="48.51426" lon="2.12328">
        <ele>95</ele>
        <time>2026-02-02T11:07:19Z</time>
      </trkpt>
      <trkpt lat="48.51426" lon="2.12337">
        <ele>95</ele>
        <time>2026-02-02T11:07:20Z</time>
      </trkpt>
      <trkpt lat="48.51426" lon="2.12346">
        <ele>95</ele>
        <time>2026-02-02T11:07:21Z</time>
      </trkpt>
      <trkpt lat="48.51427" lon="2.12355">
        <ele>95</ele>
        <time>2026-02-02T11:07:22Z</time>
      </trkpt>
      <trkpt lat="48.51426" lon="2.12364">
        <ele>95</ele>
        <time>2026-02-02T11:07:23Z</time>
      </trkpt>
      <trkpt lat="48.51425" lon="2.12372">
        <ele>95.4</ele>
        <time>2026-02-02T11:07:24Z</time>
      </trkpt>
      <trkpt lat="48.51424" lon="2.1238">
        <ele>95</ele>
        <time>2026-02-02T11:07:25Z</time>
      </trkpt>
      <trkpt lat="48.51424" lon="2.12388">
        <ele>95</ele>
        <time>2026-02-02T11:07:26Z</time>
      </trkpt>
      <trkpt lat="48.51423" lon="2.12397">
        <ele>95</ele>
        <time>2026-02-02T11:07:27Z</time>
      </trkpt>
      <trkpt lat="48.51422" lon="2.12406">
        <ele>95</ele>
        <time>2026-02-02T11:07:28Z</time>
      </trkpt>
      <trkpt lat="48.51421" lon="2.12415">
        <ele>95</ele>
        <time>2026-02-02T11:07:29Z</time>
      </trkpt>
      <trkpt lat="48.5142" lon="2.12423">
        <ele>95</ele>
        <time>2026-02-02T11:07:30Z</time>
      </trkpt>
      <trkpt lat="48.51418" lon="2.1243">
        <ele>95</ele>
        <time>2026-02-02T11:07:31Z</time>
      </trkpt>
      <trkpt lat="48.51416" lon="2.12437">
        <ele>95</ele>
        <time>2026-02-02T11:07:32Z</time>
      </trkpt>
      <trkpt lat="48.51414" lon="2.12444">
        <ele>95.8</ele>
        <time>2026-02-02T11:07:33Z</time>
      </trkpt>
      <trkpt lat="48.51411" lon="2.1245">
        <ele>95.8</ele>
        <time>2026-02-02T11:07:34Z</time>
      </trkpt>
      <trkpt lat="48.51408" lon="2.12456">
        <ele>95.8</ele>
        <time>2026-02-02T11:07:35Z</time>
      </trkpt>
      <trkpt lat="48.51406" lon="2.12463">
        <ele>95.8</ele>
        <time>2026-02-02T11:07:36Z</time>
      </trkpt>
      <trkpt lat="48.51402" lon="2.12469">
        <ele>96</ele>
        <time>2026-02-02T11:07:37Z</time>
      </trkpt>
      <trkpt lat="48.51399" lon="2.12475">
        <ele>96</ele>
        <time>2026-02-02T11:07:38Z</time>
      </trkpt>
      <trkpt lat="48.51396" lon="2.12481">
        <ele>96</ele>
        <time>2026-02-02T11:07:39Z</time>
      </trkpt>
      <trkpt lat="48.51393" lon="2.12487">
        <ele>96</ele>
        <time>2026-02-02T11:07:40Z</time>
      </trkpt>
      <trkpt lat="48.51389" lon="2.12493">
        <ele>96.2</ele>
        <time>2026-02-02T11:07:41Z</time>
      </trkpt>
      <trkpt lat="48.51386" lon="2.12498">
        <ele>96.2</ele>
        <time>2026-02-02T11:07:42Z</time>
      </trkpt>
      <trkpt lat="48.51382" lon="2.12503">
        <ele>96.2</ele>
        <time>2026-02-02T11:07:43Z</time>
      </trkpt>
      <trkpt lat="48.51379" lon="2.12508">
        <ele>97.2</ele>
        <time>2026-02-02T11:07:44Z</time>
      </trkpt>
      <trkpt lat="48.51376" lon="2.12512">
        <ele>97.8</ele>
        <time>2026-02-02T11:07:45Z</time>
      </trkpt>
      <trkpt lat="48.51373" lon="2.12516">
        <ele>97.8</ele>
        <time>2026-02-02T11:07:46Z</time>
      </trkpt>
      <trkpt lat="48.51369" lon="2.1252">
        <ele>97.8</ele>
        <time>2026-02-02T11:07:47Z</time>
      </trkpt>
      <trkpt lat="48.51366" lon="2.12525">
        <ele>97.8</ele>
        <time>2026-02-02T11:07:48Z</time>
      </trkpt>
      <trkpt lat="48.51364" lon="2.12529">
        <ele>98</ele>
        <time>2026-02-02T11:07:49Z</time>
      </trkpt>
      <trkpt lat="48.51361" lon="2.12534">
        <ele>98</ele>
        <time>2026-02-02T11:07:50Z</time>
      </trkpt>
      <trkpt lat="48.51359" lon="2.1254">
        <ele>98</ele>
        <time>2026-02-02T11:07:51Z</time>
      </trkpt>
      <trkpt lat="48.51359" lon="2.12547">
        <ele>98.6</ele>
        <time>2026-02-02T11:07:52Z</time>
      </trkpt>
      <trkpt lat="48.51359" lon="2.12553">
        <ele>98.8</ele>
        <time>2026-02-02T11:07:53Z</time>
      </trkpt>
      <trkpt lat="48.51359" lon="2.12561">
        <ele>98.8</ele>
        <time>2026-02-02T11:07:54Z</time>
      </trkpt>
      <trkpt lat="48.5136" lon="2.12567">
        <ele>98.8</ele>
        <time>2026-02-02T11:07:55Z</time>
      </trkpt>
      <trkpt lat="48.5136" lon="2.12573">
        <ele>98.8</ele>
        <time>2026-02-02T11:07:56Z</time>
      </trkpt>
      <trkpt lat="48.5136" lon="2.1258">
        <ele>99.2</ele>
        <time>2026-02-02T11:07:57Z</time>
      </trkpt>
      <trkpt lat="48.5136" lon="2.12586">
        <ele>99.2</ele>
        <time>2026-02-02T11:07:58Z</time>
      </trkpt>
      <trkpt lat="48.5136" lon="2.12592">
        <ele>99.2</ele>
        <time>2026-02-02T11:07:59Z</time>
      </trkpt>
      <trkpt lat="48.5136" lon="2.12598">
        <ele>99.8</ele>
        <time>2026-02-02T11:08:00Z</time>
      </trkpt>
      <trkpt lat="48.5136" lon="2.12604">
        <ele>100.2</ele>
        <time>2026-02-02T11:08:01Z</time>
      </trkpt>
      <trkpt lat="48.5136" lon="2.12611">
        <ele>100.2</ele>
        <time>2026-02-02T11:08:02Z</time>
      </trkpt>
      <trkpt lat="48.5136" lon="2.12617">
        <ele>100.2</ele>
        <time>2026-02-02T11:08:03Z</time>
      </trkpt>
      <trkpt lat="48.5136" lon="2.12622">
        <ele>100.2</ele>
        <time>2026-02-02T11:08:04Z</time>
      </trkpt>
      <trkpt lat="48.5136" lon="2.12629">
        <ele>100.6</ele>
        <time>2026-02-02T11:08:05Z</time>
      </trkpt>
      <trkpt lat="48.5136" lon="2.12635">
        <ele>100.6</ele>
        <time>2026-02-02T11:08:06Z</time>
      </trkpt>
      <trkpt lat="48.51361" lon="2.1264">
        <ele>100.6</ele>
        <time>2026-02-02T11:08:07Z</time>
      </trkpt>
      <trkpt lat="48.51361" lon="2.12646">
        <ele>101.4</ele>
        <time>2026-02-02T11:08:08Z</time>
      </trkpt>
      <trkpt lat="48.51361" lon="2.12652">
        <ele>101.4</ele>
        <time>2026-02-02T11:08:09Z</time>
      </trkpt>
      <trkpt lat="48.51362" lon="2.12657">
        <ele>101.4</ele>
        <time>2026-02-02T11:08:10Z</time>
      </trkpt>
      <trkpt lat="48.51362" lon="2.12663">
        <ele>101.4</ele>
        <time>2026-02-02T11:08:11Z</time>
      </trkpt>
      <trkpt lat="48.51362" lon="2.12668">
        <ele>101.6</ele>
        <time>2026-02-02T11:08:12Z</time>
      </trkpt>
      <trkpt lat="48.51363" lon="2.12673">
        <ele>102</ele>
        <time>2026-02-02T11:08:13Z</time>
      </trkpt>
      <trkpt lat="48.51363" lon="2.12678">
        <ele>102</ele>
        <time>2026-02-02T11:08:14Z</time>
      </trkpt>
      <trkpt lat="48.51363" lon="2.12683">
        <ele>102</ele>
        <time>2026-02-02T11:08:15Z</time>
      </trkpt>
      <trkpt lat="48.51363" lon="2.12688">
        <ele>102</ele>
        <time>2026-02-02T11:08:16Z</time>
      </trkpt>
      <trkpt lat="48.51364" lon="2.12692">
        <ele>102.6</ele>
        <time>2026-02-02T11:08:17Z</time>
      </trkpt>
      <trkpt lat="48.51364" lon="2.12696">
        <ele>102.6</ele>
        <time>2026-02-02T11:08:18Z</time>
      </trkpt>
      <trkpt lat="48.51364" lon="2.127">
        <ele>102.6</ele>
        <time>2026-02-02T11:08:19Z</time>
      </trkpt>
      <trkpt lat="48.51364" lon="2.12705">
        <ele>102.6</ele>
        <time>2026-02-02T11:08:20Z</time>
      </trkpt>
      <trkpt lat="48.51364" lon="2.12709">
        <ele>103.2</ele>
        <time>2026-02-02T11:08:21Z</time>
      </trkpt>
      <trkpt lat="48.51365" lon="2.12714">
        <ele>103.2</ele>
        <time>2026-02-02T11:08:22Z</time>
      </trkpt>
      <trkpt lat="48.51365" lon="2.12719">
        <ele>103.2</ele>
        <time>2026-02-02T11:08:23Z</time>
      </trkpt>
      <trkpt lat="48.51365" lon="2.12724">
        <ele>103.8</ele>
        <time>2026-02-02T11:08:24Z</time>
      </trkpt>
      <trkpt lat="48.51366" lon="2.12729">
        <ele>103.8</ele>
        <time>2026-02-02T11:08:25Z</time>
      </trkpt>
      <trkpt lat="48.51366" lon="2.12733">
        <ele>103.8</ele>
        <time>2026-02-02T11:08:26Z</time>
      </trkpt>
      <trkpt lat="48.51366" lon="2.12738">
        <ele>103.8</ele>
        <time>2026-02-02T11:08:27Z</time>
      </trkpt>
      <trkpt lat="48.51366" lon="2.12743">
        <ele>103.8</ele>
        <time>2026-02-02T11:08:28Z</time>
      </trkpt>
      <trkpt lat="48.51367" lon="2.12747">
        <ele>104.8</ele>
        <time>2026-02-02T11:08:29Z</time>
      </trkpt>
      <trkpt lat="48.51367" lon="2.12751">
        <ele>104.8</ele>
        <time>2026-02-02T11:08:30Z</time>
      </trkpt>
      <trkpt lat="48.51367" lon="2.12755">
        <ele>104.8</ele>
        <time>2026-02-02T11:08:31Z</time>
      </trkpt>
      <trkpt lat="48.51367" lon="2.12759">
        <ele>105.2</ele>
        <time>2026-02-02T11:08:32Z</time>
      </trkpt>
      <trkpt lat="48.51368" lon="2.12763">
        <ele>105.8</ele>
        <time>2026-02-02T11:08:33Z</time>
      </trkpt>
      <trkpt lat="48.51368" lon="2.12767">
        <ele>105.8</ele>
        <time>2026-02-02T11:08:34Z</time>
      </trkpt>
      <trkpt lat="48.51368" lon="2.12771">
        <ele>105.8</ele>
        <time>2026-02-02T11:08:35Z</time>
      </trkpt>
      <trkpt lat="48.51368" lon="2.12775">
        <ele>105.8</ele>
        <time>2026-02-02T11:08:36Z</time>
      </trkpt>
      <trkpt lat="48.51369" lon="2.12779">
        <ele>106.4</ele>
        <time>2026-02-02T11:08:37Z</time>
      </trkpt>
      <trkpt lat="48.51369" lon="2.12783">
        <ele>106.4</ele>
        <time>2026-02-02T11:08:38Z</time>
      </trkpt>
      <trkpt lat="48.51369" lon="2.12787">
        <ele>106.4</ele>
        <time>2026-02-02T11:08:39Z</time>
      </trkpt>
      <trkpt lat="48.5137" lon="2.12791">
        <ele>107.2</ele>
        <time>2026-02-02T11:08:40Z</time>
      </trkpt>
      <trkpt lat="48.5137" lon="2.12795">
        <ele>107.2</ele>
        <time>2026-02-02T11:08:41Z</time>
      </trkpt>
      <trkpt lat="48.5137" lon="2.12799">
        <ele>107.2</ele>
        <time>2026-02-02T11:08:42Z</time>
      </trkpt>
      <trkpt lat="48.5137" lon="2.12803">
        <ele>107.2</ele>
        <time>2026-02-02T11:08:43Z</time>
      </trkpt>
      <trkpt lat="48.5137" lon="2.12807">
        <ele>107.8</ele>
        <time>2026-02-02T11:08:44Z</time>
      </trkpt>
      <trkpt lat="48.51371" lon="2.12811">
        <ele>108</ele>
        <time>2026-02-02T11:08:45Z</time>
      </trkpt>
      <trkpt lat="48.51371" lon="2.12815">
        <ele>108</ele>
        <time>2026-02-02T11:08:46Z</time>
      </trkpt>
      <trkpt lat="48.51371" lon="2.12818">
        <ele>108</ele>
        <time>2026-02-02T11:08:47Z</time>
      </trkpt>
      <trkpt lat="48.51371" lon="2.12822">
        <ele>108</ele>
        <time>2026-02-02T11:08:48Z</time>
      </trkpt>
      <trkpt lat="48.51372" lon="2.12826">
        <ele>108.6</ele>
        <time>2026-02-02T11:08:49Z</time>
      </trkpt>
      <trkpt lat="48.51372" lon="2.1283">
        <ele>108.6</ele>
        <time>2026-02-02T11:08:50Z</time>
      </trkpt>
      <trkpt lat="48.51372" lon="2.12833">
        <ele>108.6</ele>
        <time>2026-02-02T11:08:51Z</time>
      </trkpt>
      <trkpt lat="48.51372" lon="2.12837">
        <ele>109</ele>
        <time>2026-02-02T11:08:52Z</time>
      </trkpt>
      <trkpt lat="48.51372" lon="2.12841">
        <ele>109.6</ele>
        <time>2026-02-02T11:08:53Z</time>
      </trkpt>
      <trkpt lat="48.51372" lon="2.12844">
        <ele>109.6</ele>
        <time>2026-02-02T11:08:54Z</time>
      </trkpt>
      <trkpt lat="48.51372" lon="2.12848">
        <ele>109.6</ele>
        <time>2026-02-02T11:08:55Z</time>
      </trkpt>
      <trkpt lat="48.51371" lon="2.12852">
        <ele>109.6</ele>
        <time>2026-02-02T11:08:56Z</time>
      </trkpt>
      <trkpt lat="48.51371" lon="2.12856">
        <ele>110.4</ele>
        <time>2026-02-02T11:08:57Z</time>
      </trkpt>
      <trkpt lat="48.51371" lon="2.12859">
        <ele>110.4</ele>
        <time>2026-02-02T11:08:58Z</time>
      </trkpt>
      <trkpt lat="48.51371" lon="2.12863">
        <ele>110.4</ele>
        <time>2026-02-02T11:08:59Z</time>
      </trkpt>
      <trkpt lat="48.5137" lon="2.12867">
        <ele>110.8</ele>
        <time>2026-02-02T11:09:00Z</time>
      </trkpt>
      <trkpt lat="48.51369" lon="2.1287">
        <ele>111.4</ele>
        <time>2026-02-02T11:09:01Z</time>
      </trkpt>
      <trkpt lat="48.51369" lon="2.12874">
        <ele>111.4</ele>
        <time>2026-02-02T11:09:02Z</time>
      </trkpt>
      <trkpt lat="48.51368" lon="2.12877">
        <ele>111.4</ele>
        <time>2026-02-02T11:09:03Z</time>
      </trkpt>
      <trkpt lat="48.51367" lon="2.12881">
        <ele>111.8</ele>
        <time>2026-02-02T11:09:04Z</time>
      </trkpt>
      <trkpt lat="48.51366" lon="2.12884">
        <ele>112.2</ele>
        <time>2026-02-02T11:09:05Z</time>
      </trkpt>
      <trkpt lat="48.51365" lon="2.12887">
        <ele>112.2</ele>
        <time>2026-02-02T11:09:06Z</time>
      </trkpt>
      <trkpt lat="48.51363" lon="2.1289">
        <ele>112.2</ele>
        <time>2026-02-02T11:09:07Z</time>
      </trkpt>
      <trkpt lat="48.51362" lon="2.12893">
        <ele>112.8</ele>
        <time>2026-02-02T11:09:08Z</time>
      </trkpt>
      <trkpt lat="48.51361" lon="2.12896">
        <ele>113.4</ele>
        <time>2026-02-02T11:09:09Z</time>
      </trkpt>
      <trkpt lat="48.51359" lon="2.12899">
        <ele>113.4</ele>
        <time>2026-02-02T11:09:10Z</time>
      </trkpt>
      <trkpt lat="48.51358" lon="2.12901">
        <ele>113.4</ele>
        <time>2026-02-02T11:09:11Z</time>
      </trkpt>
      <trkpt lat="48.51356" lon="2.12904">
        <ele>114.2</ele>
        <time>2026-02-02T11:09:12Z</time>
      </trkpt>
      <trkpt lat="48.51355" lon="2.12907">
        <ele>114.6</ele>
        <time>2026-02-02T11:09:13Z</time>
      </trkpt>
      <trkpt lat="48.51353" lon="2.12909">
        <ele>114.6</ele>
        <time>2026-02-02T11:09:14Z</time>
      </trkpt>
      <trkpt lat="48.51352" lon="2.12912">
        <ele>114.6</ele>
        <time>2026-02-02T11:09:15Z</time>
      </trkpt>
      <trkpt lat="48.5135" lon="2.12915">
        <ele>114.6</ele>
        <time>2026-02-02T11:09:16Z</time>
      </trkpt>
      <trkpt lat="48.51348" lon="2.12918">
        <ele>115.2</ele>
        <time>2026-02-02T11:09:17Z</time>
      </trkpt>
      <trkpt lat="48.51346" lon="2.1292">
        <ele>115.2</ele>
        <time>2026-02-02T11:09:18Z</time>
      </trkpt>
      <trkpt lat="48.51345" lon="2.12923">
        <ele>115.2</ele>
        <time>2026-02-02T11:09:19Z</time>
      </trkpt>
      <trkpt lat="48.51343" lon="2.12925">
        <ele>115.2</ele>
        <time>2026-02-02T11:09:20Z</time>
      </trkpt>
      <trkpt lat="48.51341" lon="2.12928">
        <ele>115.8</ele>
        <time>2026-02-02T11:09:21Z</time>
      </trkpt>
      <trkpt lat="48.5134" lon="2.12931">
        <ele>115.8</ele>
        <time>2026-02-02T11:09:22Z</time>
      </trkpt>
      <trkpt lat="48.51338" lon="2.12933">
        <ele>115.8</ele>
        <time>2026-02-02T11:09:23Z</time>
      </trkpt>
      <trkpt lat="48.51336" lon="2.12936">
        <ele>116.6</ele>
        <time>2026-02-02T11:09:24Z</time>
      </trkpt>
      <trkpt lat="48.51335" lon="2.12939">
        <ele>117</ele>
        <time>2026-02-02T11:09:25Z</time>
      </trkpt>
      <trkpt lat="48.51333" lon="2.12941">
        <ele>117</ele>
        <time>2026-02-02T11:09:26Z</time>
      </trkpt>
      <trkpt lat="48.51332" lon="2.12944">
        <ele>117</ele>
        <time>2026-02-02T11:09:27Z</time>
      </trkpt>
      <trkpt lat="48.5133" lon="2.12946">
        <ele>117.2</ele>
        <time>2026-02-02T11:09:28Z</time>
      </trkpt>
      <trkpt lat="48.51328" lon="2.12949">
        <ele>117.4</ele>
        <time>2026-02-02T11:09:29Z</time>
      </trkpt>
      <trkpt lat="48.51326" lon="2.12952">
        <ele>117.4</ele>
        <time>2026-02-02T11:09:30Z</time>
      </trkpt>
      <trkpt lat="48.51325" lon="2.12955">
        <ele>117.4</ele>
        <time>2026-02-02T11:09:31Z</time>
      </trkpt>
      <trkpt lat="48.51323" lon="2.12957">
        <ele>118.2</ele>
        <time>2026-02-02T11:09:32Z</time>
      </trkpt>
      <trkpt lat="48.51322" lon="2.1296">
        <ele>118.4</ele>
        <time>2026-02-02T11:09:33Z</time>
      </trkpt>
      <trkpt lat="48.5132" lon="2.12962">
        <ele>118.4</ele>
        <time>2026-02-02T11:09:34Z</time>
      </trkpt>
      <trkpt lat="48.51318" lon="2.12965">
        <ele>118.4</ele>
        <time>2026-02-02T11:09:35Z</time>
      </trkpt>
      <trkpt lat="48.51316" lon="2.12967">
        <ele>118.8</ele>
        <time>2026-02-02T11:09:36Z</time>
      </trkpt>
      <trkpt lat="48.51314" lon="2.1297">
        <ele>119</ele>
        <time>2026-02-02T11:09:37Z</time>
      </trkpt>
      <trkpt lat="48.51313" lon="2.12973">
        <ele>119</ele>
        <time>2026-02-02T11:09:38Z</time>
      </trkpt>
      <trkpt lat="48.51311" lon="2.12976">
        <ele>119</ele>
        <time>2026-02-02T11:09:39Z</time>
      </trkpt>
      <trkpt lat="48.51309" lon="2.12978">
        <ele>119</ele>
        <time>2026-02-02T11:09:40Z</time>
      </trkpt>
      <trkpt lat="48.51308" lon="2.12981">
        <ele>120</ele>
        <time>2026-02-02T11:09:41Z</time>
      </trkpt>
      <trkpt lat="48.51306" lon="2.12983">
        <ele>120</ele>
        <time>2026-02-02T11:09:42Z</time>
      </trkpt>
      <trkpt lat="48.51304" lon="2.12986">
        <ele>120</ele>
        <time>2026-02-02T11:09:43Z</time>
      </trkpt>
      <trkpt lat="48.51302" lon="2.12988">
        <ele>120.8</ele>
        <time>2026-02-02T11:09:44Z</time>
      </trkpt>
      <trkpt lat="48.51301" lon="2.12991">
        <ele>121</ele>
        <time>2026-02-02T11:09:45Z</time>
      </trkpt>
      <trkpt lat="48.51299" lon="2.12993">
        <ele>121</ele>
        <time>2026-02-02T11:09:46Z</time>
      </trkpt>
      <trkpt lat="48.51298" lon="2.12996">
        <ele>121</ele>
        <time>2026-02-02T11:09:47Z</time>
      </trkpt>
      <trkpt lat="48.51296" lon="2.12998">
        <ele>121.6</ele>
        <time>2026-02-02T11:09:48Z</time>
      </trkpt>
      <trkpt lat="48.51294" lon="2.13001">
        <ele>121.8</ele>
        <time>2026-02-02T11:09:49Z</time>
      </trkpt>
      <trkpt lat="48.51292" lon="2.13003">
        <ele>121.8</ele>
        <time>2026-02-02T11:09:50Z</time>
      </trkpt>
      <trkpt lat="48.51291" lon="2.13006">
        <ele>121.8</ele>
        <time>2026-02-02T11:09:51Z</time>
      </trkpt>
      <trkpt lat="48.51289" lon="2.13008">
        <ele>122</ele>
        <time>2026-02-02T11:09:52Z</time>
      </trkpt>
      <trkpt lat="48.51288" lon="2.1301">
        <ele>122.2</ele>
        <time>2026-02-02T11:09:53Z</time>
      </trkpt>
      <trkpt lat="48.51286" lon="2.13013">
        <ele>122.2</ele>
        <time>2026-02-02T11:09:54Z</time>
      </trkpt>
      <trkpt lat="48.51285" lon="2.13016">
        <ele>122.2</ele>
        <time>2026-02-02T11:09:55Z</time>
      </trkpt>
      <trkpt lat="48.51284" lon="2.13019">
        <ele>123.2</ele>
        <time>2026-02-02T11:09:56Z</time>
      </trkpt>
      <trkpt lat="48.51282" lon="2.13021">
        <ele>123.4</ele>
        <time>2026-02-02T11:09:57Z</time>
      </trkpt>
      <trkpt lat="48.51281" lon="2.13024">
        <ele>123.4</ele>
        <time>2026-02-02T11:09:58Z</time>
      </trkpt>
      <trkpt lat="48.5128" lon="2.13026">
        <ele>123.4</ele>
        <time>2026-02-02T11:09:59Z</time>
      </trkpt>
      <trkpt lat="48.51278" lon="2.13028">
        <ele>123.4</ele>
        <time>2026-02-02T11:10:00Z</time>
      </trkpt>
      <trkpt lat="48.51277" lon="2.13031">
        <ele>123.8</ele>
        <time>2026-02-02T11:10:01Z</time>
      </trkpt>
      <trkpt lat="48.51276" lon="2.13034">
        <ele>123.8</ele>
        <time>2026-02-02T11:10:02Z</time>
      </trkpt>
      <trkpt lat="48.51274" lon="2.13037">
        <ele>123.8</ele>
        <time>2026-02-02T11:10:03Z</time>
      </trkpt>
      <trkpt lat="48.51273" lon="2.13041">
        <ele>124.4</ele>
        <time>2026-02-02T11:10:04Z</time>
      </trkpt>
      <trkpt lat="48.51272" lon="2.13044">
        <ele>124.6</ele>
        <time>2026-02-02T11:10:05Z</time>
      </trkpt>
      <trkpt lat="48.51271" lon="2.13048">
        <ele>124.6</ele>
        <time>2026-02-02T11:10:06Z</time>
      </trkpt>
      <trkpt lat="48.5127" lon="2.13052">
        <ele>124.6</ele>
        <time>2026-02-02T11:10:07Z</time>
      </trkpt>
      <trkpt lat="48.51269" lon="2.13056">
        <ele>125.2</ele>
        <time>2026-02-02T11:10:08Z</time>
      </trkpt>
      <trkpt lat="48.51268" lon="2.1306">
        <ele>125.2</ele>
        <time>2026-02-02T11:10:09Z</time>
      </trkpt>
      <trkpt lat="48.51267" lon="2.13064">
        <ele>125.2</ele>
        <time>2026-02-02T11:10:10Z</time>
      </trkpt>
      <trkpt lat="48.51267" lon="2.13068">
        <ele>125.2</ele>
        <time>2026-02-02T11:10:11Z</time>
      </trkpt>
      <trkpt lat="48.51266" lon="2.13072">
        <ele>126.2</ele>
        <time>2026-02-02T11:10:12Z</time>
      </trkpt>
      <trkpt lat="48.51266" lon="2.13076">
        <ele>126.2</ele>
        <time>2026-02-02T11:10:13Z</time>
      </trkpt>
      <trkpt lat="48.51266" lon="2.1308">
        <ele>126.2</ele>
        <time>2026-02-02T11:10:14Z</time>
      </trkpt>
      <trkpt lat="48.51265" lon="2.13084">
        <ele>126.2</ele>
        <time>2026-02-02T11:10:15Z</time>
      </trkpt>
      <trkpt lat="48.51265" lon="2.13088">
        <ele>127.2</ele>
        <time>2026-02-02T11:10:16Z</time>
      </trkpt>
      <trkpt lat="48.51265" lon="2.13092">
        <ele>127.8</ele>
        <time>2026-02-02T11:10:17Z</time>
      </trkpt>
      <trkpt lat="48.51265" lon="2.13096">
        <ele>127.8</ele>
        <time>2026-02-02T11:10:18Z</time>
      </trkpt>
      <trkpt lat="48.51265" lon="2.131">
        <ele>127.8</ele>
        <time>2026-02-02T11:10:19Z</time>
      </trkpt>
      <trkpt lat="48.51265" lon="2.13104">
        <ele>127.8</ele>
        <time>2026-02-02T11:10:20Z</time>
      </trkpt>
      <trkpt lat="48.51266" lon="2.13108">
        <ele>128.6</ele>
        <time>2026-02-02T11:10:21Z</time>
      </trkpt>
      <trkpt lat="48.51266" lon="2.13112">
        <ele>128.6</ele>
        <time>2026-02-02T11:10:22Z</time>
      </trkpt>
      <trkpt lat="48.51267" lon="2.13116">
        <ele>128.6</ele>
        <time>2026-02-02T11:10:23Z</time>
      </trkpt>
      <trkpt lat="48.51267" lon="2.1312">
        <ele>128.6</ele>
        <time>2026-02-02T11:10:24Z</time>
      </trkpt>
      <trkpt lat="48.51268" lon="2.13124">
        <ele>129.4</ele>
        <time>2026-02-02T11:10:25Z</time>
      </trkpt>
      <trkpt lat="48.51269" lon="2.13127">
        <ele>129.4</ele>
        <time>2026-02-02T11:10:26Z</time>
      </trkpt>
      <trkpt lat="48.51269" lon="2.1313">
        <ele>129.4</ele>
        <time>2026-02-02T11:10:27Z</time>
      </trkpt>
      <trkpt lat="48.5127" lon="2.13134">
        <ele>130</ele>
        <time>2026-02-02T11:10:28Z</time>
      </trkpt>
      <trkpt lat="48.51271" lon="2.13137">
        <ele>129.8</ele>
        <time>2026-02-02T11:10:29Z</time>
      </trkpt>
      <trkpt lat="48.51271" lon="2.1314">
        <ele>129.8</ele>
        <time>2026-02-02T11:10:30Z</time>
      </trkpt>
      <trkpt lat="48.51272" lon="2.13143">
        <ele>129.8</ele>
        <time>2026-02-02T11:10:31Z</time>
      </trkpt>
      <trkpt lat="48.51273" lon="2.13147">
        <ele>130.8</ele>
        <time>2026-02-02T11:10:32Z</time>
      </trkpt>
      <trkpt lat="48.51274" lon="2.1315">
        <ele>130.8</ele>
        <time>2026-02-02T11:10:33Z</time>
      </trkpt>
      <trkpt lat="48.51275" lon="2.13152">
        <ele>130.8</ele>
        <time>2026-02-02T11:10:34Z</time>
      </trkpt>
      <trkpt lat="48.51276" lon="2.13155">
        <ele>130.8</ele>
        <time>2026-02-02T11:10:35Z</time>
      </trkpt>
      <trkpt lat="48.51277" lon="2.13158">
        <ele>131.2</ele>
        <time>2026-02-02T11:10:36Z</time>
      </trkpt>
      <trkpt lat="48.51278" lon="2.13161">
        <ele>131.8</ele>
        <time>2026-02-02T11:10:37Z</time>
      </trkpt>
      <trkpt lat="48.51279" lon="2.13164">
        <ele>131.8</ele>
        <time>2026-02-02T11:10:38Z</time>
      </trkpt>
      <trkpt lat="48.5128" lon="2.13167">
        <ele>131.8</ele>
        <time>2026-02-02T11:10:39Z</time>
      </trkpt>
      <trkpt lat="48.51281" lon="2.13171">
        <ele>132.4</ele>
        <time>2026-02-02T11:10:40Z</time>
      </trkpt>
      <trkpt lat="48.51282" lon="2.13174">
        <ele>132.2</ele>
        <time>2026-02-02T11:10:41Z</time>
      </trkpt>
      <trkpt lat="48.51284" lon="2.13177">
        <ele>132.2</ele>
        <time>2026-02-02T11:10:42Z</time>
      </trkpt>
      <trkpt lat="48.51285" lon="2.1318">
        <ele>132.2</ele>
        <time>2026-02-02T11:10:43Z</time>
      </trkpt>
      <trkpt lat="48.51286" lon="2.13183">
        <ele>133.2</ele>
        <time>2026-02-02T11:10:44Z</time>
      </trkpt>
      <trkpt lat="48.51287" lon="2.13186">
        <ele>132.8</ele>
        <time>2026-02-02T11:10:45Z</time>
      </trkpt>
      <trkpt lat="48.51289" lon="2.13189">
        <ele>132.8</ele>
        <time>2026-02-02T11:10:46Z</time>
      </trkpt>
      <trkpt lat="48.51289" lon="2.13192">
        <ele>132.8</ele>
        <time>2026-02-02T11:10:47Z</time>
      </trkpt>
      <trkpt lat="48.51291" lon="2.13195">
        <ele>133.8</ele>
        <time>2026-02-02T11:10:48Z</time>
      </trkpt>
      <trkpt lat="48.51292" lon="2.13198">
        <ele>134.4</ele>
        <time>2026-02-02T11:10:49Z</time>
      </trkpt>
      <trkpt lat="48.51293" lon="2.13201">
        <ele>134.4</ele>
        <time>2026-02-02T11:10:50Z</time>
      </trkpt>
      <trkpt lat="48.51294" lon="2.13203">
        <ele>134.4</ele>
        <time>2026-02-02T11:10:51Z</time>
      </trkpt>
      <trkpt lat="48.51295" lon="2.13206">
        <ele>134.4</ele>
        <time>2026-02-02T11:10:52Z</time>
      </trkpt>
      <trkpt lat="48.51296" lon="2.13209">
        <ele>135</ele>
        <time>2026-02-02T11:10:53Z</time>
      </trkpt>
      <trkpt lat="48.51297" lon="2.13212">
        <ele>135</ele>
        <time>2026-02-02T11:10:54Z</time>
      </trkpt>
      <trkpt lat="48.51299" lon="2.13215">
        <ele>135</ele>
        <time>2026-02-02T11:10:55Z</time>
      </trkpt>
      <trkpt lat="48.513" lon="2.13217">
        <ele>135</ele>
        <time>2026-02-02T11:10:56Z</time>
      </trkpt>
      <trkpt lat="48.51301" lon="2.1322">
        <ele>135.8</ele>
        <time>2026-02-02T11:10:57Z</time>
      </trkpt>
      <trkpt lat="48.51301" lon="2.13223">
        <ele>135.8</ele>
        <time>2026-02-02T11:10:58Z</time>
      </trkpt>
      <trkpt lat="48.51302" lon="2.13226">
        <ele>135.8</ele>
        <time>2026-02-02T11:10:59Z</time>
      </trkpt>
      <trkpt lat="48.51303" lon="2.13229">
        <ele>136.2</ele>
        <time>2026-02-02T11:11:00Z</time>
      </trkpt>
      <trkpt lat="48.51304" lon="2.13232">
        <ele>136.4</ele>
        <time>2026-02-02T11:11:01Z</time>
      </trkpt>
      <trkpt lat="48.51305" lon="2.13234">
        <ele>136.4</ele>
        <time>2026-02-02T11:11:02Z</time>
      </trkpt>
      <trkpt lat="48.51306" lon="2.13237">
        <ele>136.4</ele>
        <time>2026-02-02T11:11:03Z</time>
      </trkpt>
      <trkpt lat="48.51307" lon="2.1324">
        <ele>137.2</ele>
        <time>2026-02-02T11:11:04Z</time>
      </trkpt>
      <trkpt lat="48.51308" lon="2.13244">
        <ele>137.4</ele>
        <time>2026-02-02T11:11:05Z</time>
      </trkpt>
      <trkpt lat="48.51309" lon="2.13247">
        <ele>137.4</ele>
        <time>2026-02-02T11:11:06Z</time>
      </trkpt>
      <trkpt lat="48.5131" lon="2.1325">
        <ele>137.4</ele>
        <time>2026-02-02T11:11:07Z</time>
      </trkpt>
      <trkpt lat="48.51311" lon="2.13253">
        <ele>137.4</ele>
        <time>2026-02-02T11:11:08Z</time>
      </trkpt>
      <trkpt lat="48.51312" lon="2.13256">
        <ele>138</ele>
        <time>2026-02-02T11:11:09Z</time>
      </trkpt>
      <trkpt lat="48.51313" lon="2.13259">
        <ele>138</ele>
        <time>2026-02-02T11:11:10Z</time>
      </trkpt>
      <trkpt lat="48.51314" lon="2.13262">
        <ele>138</ele>
        <time>2026-02-02T11:11:11Z</time>
      </trkpt>
      <trkpt lat="48.51315" lon="2.13266">
        <ele>138.4</ele>
        <time>2026-02-02T11:11:12Z</time>
      </trkpt>
      <trkpt lat="48.51316" lon="2.13269">
        <ele>138.6</ele>
        <time>2026-02-02T11:11:13Z</time>
      </trkpt>
      <trkpt lat="48.51317" lon="2.13272">
        <ele>138.6</ele>
        <time>2026-02-02T11:11:14Z</time>
      </trkpt>
      <trkpt lat="48.51318" lon="2.13275">
        <ele>138.6</ele>
        <time>2026-02-02T11:11:15Z</time>
      </trkpt>
      <trkpt lat="48.51319" lon="2.13279">
        <ele>139</ele>
        <time>2026-02-02T11:11:16Z</time>
      </trkpt>
      <trkpt lat="48.5132" lon="2.13282">
        <ele>139.6</ele>
        <time>2026-02-02T11:11:17Z</time>
      </trkpt>
      <trkpt lat="48.51321" lon="2.13285">
        <ele>139.6</ele>
        <time>2026-02-02T11:11:18Z</time>
      </trkpt>
      <trkpt lat="48.51322" lon="2.13289">
        <ele>139.6</ele>
        <time>2026-02-02T11:11:19Z</time>
      </trkpt>
      <trkpt lat="48.51323" lon="2.13292">
        <ele>139.6</ele>
        <time>2026-02-02T11:11:20Z</time>
      </trkpt>
      <trkpt lat="48.51324" lon="2.13295">
        <ele>140.4</ele>
        <time>2026-02-02T11:11:21Z</time>
      </trkpt>
      <trkpt lat="48.51324" lon="2.13299">
        <ele>140.4</ele>
        <time>2026-02-02T11:11:22Z</time>
      </trkpt>
      <trkpt lat="48.51325" lon="2.13302">
        <ele>140.4</ele>
        <time>2026-02-02T11:11:23Z</time>
      </trkpt>
      <trkpt lat="48.51326" lon="2.13305">
        <ele>141.2</ele>
        <time>2026-02-02T11:11:24Z</time>
      </trkpt>
      <trkpt lat="48.51326" lon="2.13308">
        <ele>141.6</ele>
        <time>2026-02-02T11:11:25Z</time>
      </trkpt>
      <trkpt lat="48.51327" lon="2.13312">
        <ele>141.6</ele>
        <time>2026-02-02T11:11:26Z</time>
      </trkpt>
      <trkpt lat="48.51328" lon="2.13315">
        <ele>141.6</ele>
        <time>2026-02-02T11:11:27Z</time>
      </trkpt>
      <trkpt lat="48.51328" lon="2.13319">
        <ele>142</ele>
        <time>2026-02-02T11:11:28Z</time>
      </trkpt>
      <trkpt lat="48.51329" lon="2.13322">
        <ele>142.2</ele>
        <time>2026-02-02T11:11:29Z</time>
      </trkpt>
      <trkpt lat="48.51329" lon="2.13326">
        <ele>142.2</ele>
        <time>2026-02-02T11:11:30Z</time>
      </trkpt>
      <trkpt lat="48.51329" lon="2.13329">
        <ele>142.2</ele>
        <time>2026-02-02T11:11:31Z</time>
      </trkpt>
      <trkpt lat="48.51329" lon="2.13333">
        <ele>142.8</ele>
        <time>2026-02-02T11:11:32Z</time>
      </trkpt>
      <trkpt lat="48.51329" lon="2.13336">
        <ele>143.2</ele>
        <time>2026-02-02T11:11:33Z</time>
      </trkpt>
      <trkpt lat="48.51329" lon="2.13339">
        <ele>143.2</ele>
        <time>2026-02-02T11:11:34Z</time>
      </trkpt>
      <trkpt lat="48.51329" lon="2.13343">
        <ele>143.2</ele>
        <time>2026-02-02T11:11:35Z</time>
      </trkpt>
      <trkpt lat="48.51328" lon="2.13346">
        <ele>143.4</ele>
        <time>2026-02-02T11:11:36Z</time>
      </trkpt>
      <trkpt lat="48.51328" lon="2.1335">
        <ele>143.8</ele>
        <time>2026-02-02T11:11:37Z</time>
      </trkpt>
      <trkpt lat="48.51327" lon="2.13353">
        <ele>143.8</ele>
        <time>2026-02-02T11:11:38Z</time>
      </trkpt>
      <trkpt lat="48.51326" lon="2.13356">
        <ele>143.8</ele>
        <time>2026-02-02T11:11:39Z</time>
      </trkpt>
      <trkpt lat="48.51326" lon="2.13359">
        <ele>144.4</ele>
        <time>2026-02-02T11:11:40Z</time>
      </trkpt>
      <trkpt lat="48.51325" lon="2.13362">
        <ele>144.6</ele>
        <time>2026-02-02T11:11:41Z</time>
      </trkpt>
      <trkpt lat="48.51325" lon="2.13364">
        <ele>144.6</ele>
        <time>2026-02-02T11:11:42Z</time>
      </trkpt>
      <trkpt lat="48.51324" lon="2.13367">
        <ele>144.6</ele>
        <time>2026-02-02T11:11:43Z</time>
      </trkpt>
      <trkpt lat="48.51324" lon="2.1337">
        <ele>145.4</ele>
        <time>2026-02-02T11:11:44Z</time>
      </trkpt>
      <trkpt lat="48.51323" lon="2.13373">
        <ele>145.2</ele>
        <time>2026-02-02T11:11:45Z</time>
      </trkpt>
      <trkpt lat="48.51322" lon="2.13375">
        <ele>145.2</ele>
        <time>2026-02-02T11:11:46Z</time>
      </trkpt>
      <trkpt lat="48.5132" lon="2.13377">
        <ele>145.2</ele>
        <time>2026-02-02T11:11:47Z</time>
      </trkpt>
      <trkpt lat="48.51319" lon="2.13379">
        <ele>146</ele>
        <time>2026-02-02T11:11:48Z</time>
      </trkpt>
      <trkpt lat="48.51317" lon="2.13381">
        <ele>146</ele>
        <time>2026-02-02T11:11:49Z</time>
      </trkpt>
      <trkpt lat="48.51316" lon="2.13383">
        <ele>146</ele>
        <time>2026-02-02T11:11:50Z</time>
      </trkpt>
      <trkpt lat="48.51315" lon="2.13384">
        <ele>146</ele>
        <time>2026-02-02T11:11:51Z</time>
      </trkpt>
      <trkpt lat="48.51313" lon="2.13386">
        <ele>147</ele>
        <time>2026-02-02T11:11:52Z</time>
      </trkpt>
      <trkpt lat="48.51312" lon="2.13388">
        <ele>147</ele>
        <time>2026-02-02T11:11:53Z</time>
      </trkpt>
      <trkpt lat="48.51311" lon="2.1339">
        <ele>147</ele>
        <time>2026-02-02T11:11:54Z</time>
      </trkpt>
      <trkpt lat="48.51309" lon="2.13391">
        <ele>147</ele>
        <time>2026-02-02T11:11:55Z</time>
      </trkpt>
      <trkpt lat="48.51308" lon="2.13393">
        <ele>147</ele>
        <time>2026-02-02T11:11:56Z</time>
      </trkpt>
      <trkpt lat="48.51307" lon="2.13395">
        <ele>147.4</ele>
        <time>2026-02-02T11:11:57Z</time>
      </trkpt>
      <trkpt lat="48.51305" lon="2.13396">
        <ele>147.4</ele>
        <time>2026-02-02T11:11:58Z</time>
      </trkpt>
      <trkpt lat="48.51304" lon="2.13398">
        <ele>147.4</ele>
        <time>2026-02-02T11:11:59Z</time>
      </trkpt>
      <trkpt lat="48.51303" lon="2.134">
        <ele>147.4</ele>
        <time>2026-02-02T11:12:00Z</time>
      </trkpt>
      <trkpt lat="48.51301" lon="2.13402">
        <ele>148</ele>
        <time>2026-02-02T11:12:01Z</time>
      </trkpt>
      <trkpt lat="48.51299" lon="2.13403">
        <ele>148</ele>
        <time>2026-02-02T11:12:02Z</time>
      </trkpt>
      <trkpt lat="48.51298" lon="2.13406">
        <ele>148</ele>
        <time>2026-02-02T11:12:03Z</time>
      </trkpt>
      <trkpt lat="48.51297" lon="2.13408">
        <ele>148.8</ele>
        <time>2026-02-02T11:12:04Z</time>
      </trkpt>
      <trkpt lat="48.51295" lon="2.13411">
        <ele>149</ele>
        <time>2026-02-02T11:12:05Z</time>
      </trkpt>
      <trkpt lat="48.51294" lon="2.13413">
        <ele>149</ele>
        <time>2026-02-02T11:12:06Z</time>
      </trkpt>
      <trkpt lat="48.51292" lon="2.13415">
        <ele>149</ele>
        <time>2026-02-02T11:12:07Z</time>
      </trkpt>
      <trkpt lat="48.51291" lon="2.13417">
        <ele>149.6</ele>
        <time>2026-02-02T11:12:08Z</time>
      </trkpt>
      <trkpt lat="48.51289" lon="2.13419">
        <ele>150</ele>
        <time>2026-02-02T11:12:09Z</time>
      </trkpt>
      <trkpt lat="48.51288" lon="2.13422">
        <ele>150</ele>
        <time>2026-02-02T11:12:10Z</time>
      </trkpt>
      <trkpt lat="48.51286" lon="2.13424">
        <ele>150</ele>
        <time>2026-02-02T11:12:11Z</time>
      </trkpt>
      <trkpt lat="48.51284" lon="2.13426">
        <ele>150.6</ele>
        <time>2026-02-02T11:12:12Z</time>
      </trkpt>
      <trkpt lat="48.51283" lon="2.13427">
        <ele>151</ele>
        <time>2026-02-02T11:12:13Z</time>
      </trkpt>
      <trkpt lat="48.51281" lon="2.13429">
        <ele>151</ele>
        <time>2026-02-02T11:12:14Z</time>
      </trkpt>
      <trkpt lat="48.51279" lon="2.13431">
        <ele>151</ele>
        <time>2026-02-02T11:12:15Z</time>
      </trkpt>
      <trkpt lat="48.51278" lon="2.13434">
        <ele>151</ele>
        <time>2026-02-02T11:12:16Z</time>
      </trkpt>
      <trkpt lat="48.51276" lon="2.13438">
        <ele>152.2</ele>
        <time>2026-02-02T11:12:17Z</time>
      </trkpt>
      <trkpt lat="48.51275" lon="2.1344">
        <ele>152.2</ele>
        <time>2026-02-02T11:12:18Z</time>
      </trkpt>
      <trkpt lat="48.51274" lon="2.13441">
        <ele>152.2</ele>
        <time>2026-02-02T11:12:19Z</time>
      </trkpt>
      <trkpt lat="48.51272" lon="2.13443">
        <ele>152.2</ele>
        <time>2026-02-02T11:12:20Z</time>
      </trkpt>
      <trkpt lat="48.51271" lon="2.13446">
        <ele>152.8</ele>
        <time>2026-02-02T11:12:21Z</time>
      </trkpt>
      <trkpt lat="48.51269" lon="2.13448">
        <ele>152.8</ele>
        <time>2026-02-02T11:12:22Z</time>
      </trkpt>
      <trkpt lat="48.51268" lon="2.13452">
        <ele>152.8</ele>
        <time>2026-02-02T11:12:23Z</time>
      </trkpt>
      <trkpt lat="48.51268" lon="2.13455">
        <ele>152.8</ele>
        <time>2026-02-02T11:12:24Z</time>
      </trkpt>
      <trkpt lat="48.51267" lon="2.13458">
        <ele>153.4</ele>
        <time>2026-02-02T11:12:25Z</time>
      </trkpt>
      <trkpt lat="48.51265" lon="2.13461">
        <ele>153.4</ele>
        <time>2026-02-02T11:12:26Z</time>
      </trkpt>
      <trkpt lat="48.51264" lon="2.13464">
        <ele>153.4</ele>
        <time>2026-02-02T11:12:27Z</time>
      </trkpt>
      <trkpt lat="48.51263" lon="2.13467">
        <ele>153.8</ele>
        <time>2026-02-02T11:12:28Z</time>
      </trkpt>
      <trkpt lat="48.51262" lon="2.13471">
        <ele>153.8</ele>
        <time>2026-02-02T11:12:29Z</time>
      </trkpt>
      <trkpt lat="48.51263" lon="2.13475">
        <ele>153.8</ele>
        <time>2026-02-02T11:12:30Z</time>
      </trkpt>
      <trkpt lat="48.51263" lon="2.1348">
        <ele>153.8</ele>
        <time>2026-02-02T11:12:31Z</time>
      </trkpt>
      <trkpt lat="48.51262" lon="2.13483">
        <ele>154.4</ele>
        <time>2026-02-02T11:12:32Z</time>
      </trkpt>
      <trkpt lat="48.51261" lon="2.13486">
        <ele>154.4</ele>
        <time>2026-02-02T11:12:33Z</time>
      </trkpt>
      <trkpt lat="48.5126" lon="2.1349">
        <ele>154.4</ele>
        <time>2026-02-02T11:12:34Z</time>
      </trkpt>
      <trkpt lat="48.5126" lon="2.13493">
        <ele>154.4</ele>
        <time>2026-02-02T11:12:35Z</time>
      </trkpt>
      <trkpt lat="48.5126" lon="2.13496">
        <ele>155.2</ele>
        <time>2026-02-02T11:12:36Z</time>
      </trkpt>
      <trkpt lat="48.51259" lon="2.135">
        <ele>155.6</ele>
        <time>2026-02-02T11:12:37Z</time>
      </trkpt>
      <trkpt lat="48.51258" lon="2.13503">
        <ele>155.6</ele>
        <time>2026-02-02T11:12:38Z</time>
      </trkpt>
      <trkpt lat="48.51258" lon="2.13507">
        <ele>155.6</ele>
        <time>2026-02-02T11:12:39Z</time>
      </trkpt>
      <trkpt lat="48.51257" lon="2.13512">
        <ele>156.2</ele>
        <time>2026-02-02T11:12:40Z</time>
      </trkpt>
      <trkpt lat="48.51256" lon="2.13517">
        <ele>156.4</ele>
        <time>2026-02-02T11:12:41Z</time>
      </trkpt>
      <trkpt lat="48.51256" lon="2.13522">
        <ele>156.4</ele>
        <time>2026-02-02T11:12:42Z</time>
      </trkpt>
      <trkpt lat="48.51255" lon="2.13527">
        <ele>156.4</ele>
        <time>2026-02-02T11:12:43Z</time>
      </trkpt>
      <trkpt lat="48.51254" lon="2.1353">
        <ele>156.4</ele>
        <time>2026-02-02T11:12:44Z</time>
      </trkpt>
      <trkpt lat="48.51253" lon="2.13534">
        <ele>156.6</ele>
        <time>2026-02-02T11:12:45Z</time>
      </trkpt>
      <trkpt lat="48.51253" lon="2.13539">
        <ele>156.6</ele>
        <time>2026-02-02T11:12:46Z</time>
      </trkpt>
      <trkpt lat="48.51252" lon="2.13544">
        <ele>156.6</ele>
        <time>2026-02-02T11:12:47Z</time>
      </trkpt>
      <trkpt lat="48.51251" lon="2.13549">
        <ele>157.2</ele>
        <time>2026-02-02T11:12:48Z</time>
      </trkpt>
      <trkpt lat="48.51251" lon="2.13553">
        <ele>157.4</ele>
        <time>2026-02-02T11:12:49Z</time>
      </trkpt>
      <trkpt lat="48.5125" lon="2.13557">
        <ele>157.4</ele>
        <time>2026-02-02T11:12:50Z</time>
      </trkpt>
      <trkpt lat="48.5125" lon="2.13562">
        <ele>157.4</ele>
        <time>2026-02-02T11:12:51Z</time>
      </trkpt>
      <trkpt lat="48.51249" lon="2.13566">
        <ele>157.8</ele>
        <time>2026-02-02T11:12:52Z</time>
      </trkpt>
      <trkpt lat="48.51248" lon="2.1357">
        <ele>158.2</ele>
        <time>2026-02-02T11:12:53Z</time>
      </trkpt>
      <trkpt lat="48.51248" lon="2.13574">
        <ele>158.2</ele>
        <time>2026-02-02T11:12:54Z</time>
      </trkpt>
      <trkpt lat="48.51247" lon="2.13578">
        <ele>158.2</ele>
        <time>2026-02-02T11:12:55Z</time>
      </trkpt>
      <trkpt lat="48.51247" lon="2.13583">
        <ele>158.8</ele>
        <time>2026-02-02T11:12:56Z</time>
      </trkpt>
      <trkpt lat="48.51246" lon="2.13587">
        <ele>159.2</ele>
        <time>2026-02-02T11:12:57Z</time>
      </trkpt>
      <trkpt lat="48.51245" lon="2.13591">
        <ele>159.2</ele>
        <time>2026-02-02T11:12:58Z</time>
      </trkpt>
      <trkpt lat="48.51245" lon="2.13595">
        <ele>159.2</ele>
        <time>2026-02-02T11:12:59Z</time>
      </trkpt>
      <trkpt lat="48.51244" lon="2.13599">
        <ele>159.4</ele>
        <time>2026-02-02T11:13:00Z</time>
      </trkpt>
      <trkpt lat="48.51243" lon="2.13604">
        <ele>159.4</ele>
        <time>2026-02-02T11:13:01Z</time>
      </trkpt>
      <trkpt lat="48.51242" lon="2.13609">
        <ele>159.4</ele>
        <time>2026-02-02T11:13:02Z</time>
      </trkpt>
      <trkpt lat="48.51241" lon="2.13614">
        <ele>159.4</ele>
        <time>2026-02-02T11:13:03Z</time>
      </trkpt>
      <trkpt lat="48.5124" lon="2.13618">
        <ele>159.4</ele>
        <time>2026-02-02T11:13:04Z</time>
      </trkpt>
      <trkpt lat="48.51239" lon="2.13623">
        <ele>160</ele>
        <time>2026-02-02T11:13:05Z</time>
      </trkpt>
      <trkpt lat="48.51238" lon="2.13627">
        <ele>160</ele>
        <time>2026-02-02T11:13:06Z</time>
      </trkpt>
      <trkpt lat="48.51237" lon="2.13632">
        <ele>160</ele>
        <time>2026-02-02T11:13:07Z</time>
      </trkpt>
      <trkpt lat="48.51236" lon="2.13636">
        <ele>160</ele>
        <time>2026-02-02T11:13:08Z</time>
      </trkpt>
      <trkpt lat="48.51235" lon="2.13641">
        <ele>160.2</ele>
        <time>2026-02-02T11:13:09Z</time>
      </trkpt>
      <trkpt lat="48.51234" lon="2.13645">
        <ele>160.2</ele>
        <time>2026-02-02T11:13:10Z</time>
      </trkpt>
      <trkpt lat="48.51232" lon="2.13649">
        <ele>160.2</ele>
        <time>2026-02-02T11:13:11Z</time>
      </trkpt>
      <trkpt lat="48.51231" lon="2.13654">
        <ele>160.2</ele>
        <time>2026-02-02T11:13:12Z</time>
      </trkpt>
      <trkpt lat="48.5123" lon="2.13659">
        <ele>160.4</ele>
        <time>2026-02-02T11:13:13Z</time>
      </trkpt>
      <trkpt lat="48.51228" lon="2.13663">
        <ele>160.4</ele>
        <time>2026-02-02T11:13:14Z</time>
      </trkpt>
      <trkpt lat="48.51227" lon="2.13668">
        <ele>160.4</ele>
        <time>2026-02-02T11:13:15Z</time>
      </trkpt>
      <trkpt lat="48.51226" lon="2.13673">
        <ele>160.4</ele>
        <time>2026-02-02T11:13:16Z</time>
      </trkpt>
      <trkpt lat="48.51225" lon="2.13678">
        <ele>160.6</ele>
        <time>2026-02-02T11:13:17Z</time>
      </trkpt>
      <trkpt lat="48.51223" lon="2.13682">
        <ele>160.6</ele>
        <time>2026-02-02T11:13:18Z</time>
      </trkpt>
      <trkpt lat="48.51222" lon="2.13687">
        <ele>160.6</ele>
        <time>2026-02-02T11:13:19Z</time>
      </trkpt>
      <trkpt lat="48.51221" lon="2.13692">
        <ele>160.8</ele>
        <time>2026-02-02T11:13:20Z</time>
      </trkpt>
      <trkpt lat="48.51219" lon="2.13697">
        <ele>161.2</ele>
        <time>2026-02-02T11:13:21Z</time>
      </trkpt>
      <trkpt lat="48.51218" lon="2.13702">
        <ele>161.2</ele>
        <time>2026-02-02T11:13:22Z</time>
      </trkpt>
      <trkpt lat="48.51217" lon="2.13707">
        <ele>161.2</ele>
        <time>2026-02-02T11:13:23Z</time>
      </trkpt>
      <trkpt lat="48.51216" lon="2.13712">
        <ele>160.8</ele>
        <time>2026-02-02T11:13:24Z</time>
      </trkpt>
      <trkpt lat="48.51215" lon="2.13718">
        <ele>160.8</ele>
        <time>2026-02-02T11:13:25Z</time>
      </trkpt>
      <trkpt lat="48.51213" lon="2.13723">
        <ele>160.8</ele>
        <time>2026-02-02T11:13:26Z</time>
      </trkpt>
      <trkpt lat="48.51212" lon="2.13729">
        <ele>160.8</ele>
        <time>2026-02-02T11:13:27Z</time>
      </trkpt>
      <trkpt lat="48.51211" lon="2.13734">
        <ele>160.8</ele>
        <time>2026-02-02T11:13:28Z</time>
      </trkpt>
      <trkpt lat="48.5121" lon="2.1374">
        <ele>161</ele>
        <time>2026-02-02T11:13:29Z</time>
      </trkpt>
      <trkpt lat="48.51208" lon="2.13746">
        <ele>161</ele>
        <time>2026-02-02T11:13:30Z</time>
      </trkpt>
      <trkpt lat="48.51207" lon="2.13752">
        <ele>161</ele>
        <time>2026-02-02T11:13:31Z</time>
      </trkpt>
      <trkpt lat="48.51206" lon="2.13757">
        <ele>161</ele>
        <time>2026-02-02T11:13:32Z</time>
      </trkpt>
      <trkpt lat="48.51205" lon="2.13763">
        <ele>161.2</ele>
        <time>2026-02-02T11:13:33Z</time>
      </trkpt>
      <trkpt lat="48.51203" lon="2.13769">
        <ele>161.2</ele>
        <time>2026-02-02T11:13:34Z</time>
      </trkpt>
      <trkpt lat="48.51202" lon="2.13775">
        <ele>161.2</ele>
        <time>2026-02-02T11:13:35Z</time>
      </trkpt>
      <trkpt lat="48.51201" lon="2.13781">
        <ele>161.6</ele>
        <time>2026-02-02T11:13:36Z</time>
      </trkpt>
      <trkpt lat="48.51199" lon="2.13786">
        <ele>162</ele>
        <time>2026-02-02T11:13:37Z</time>
      </trkpt>
      <trkpt lat="48.51198" lon="2.13792">
        <ele>162</ele>
        <time>2026-02-02T11:13:38Z</time>
      </trkpt>
      <trkpt lat="48.51197" lon="2.13798">
        <ele>162</ele>
        <time>2026-02-02T11:13:39Z</time>
      </trkpt>
      <trkpt lat="48.51196" lon="2.13804">
        <ele>162</ele>
        <time>2026-02-02T11:13:40Z</time>
      </trkpt>
      <trkpt lat="48.51194" lon="2.1381">
        <ele>161.8</ele>
        <time>2026-02-02T11:13:41Z</time>
      </trkpt>
      <trkpt lat="48.51193" lon="2.13816">
        <ele>161.8</ele>
        <time>2026-02-02T11:13:42Z</time>
      </trkpt>
      <trkpt lat="48.51192" lon="2.13822">
        <ele>161.8</ele>
        <time>2026-02-02T11:13:43Z</time>
      </trkpt>
      <trkpt lat="48.5119" lon="2.13828">
        <ele>161.8</ele>
        <time>2026-02-02T11:13:44Z</time>
      </trkpt>
      <trkpt lat="48.51189" lon="2.13834">
        <ele>161.8</ele>
        <time>2026-02-02T11:13:45Z</time>
      </trkpt>
      <trkpt lat="48.51188" lon="2.1384">
        <ele>161.8</ele>
        <time>2026-02-02T11:13:46Z</time>
      </trkpt>
      <trkpt lat="48.51187" lon="2.13846">
        <ele>161.8</ele>
        <time>2026-02-02T11:13:47Z</time>
      </trkpt>
      <trkpt lat="48.51186" lon="2.13852">
        <ele>161.8</ele>
        <time>2026-02-02T11:13:48Z</time>
      </trkpt>
      <trkpt lat="48.51185" lon="2.13858">
        <ele>162</ele>
        <time>2026-02-02T11:13:49Z</time>
      </trkpt>
      <trkpt lat="48.51184" lon="2.13864">
        <ele>162</ele>
        <time>2026-02-02T11:13:50Z</time>
      </trkpt>
      <trkpt lat="48.51183" lon="2.1387">
        <ele>162</ele>
        <time>2026-02-02T11:13:51Z</time>
      </trkpt>
      <trkpt lat="48.51181" lon="2.13876">
        <ele>162</ele>
        <time>2026-02-02T11:13:52Z</time>
      </trkpt>
      <trkpt lat="48.5118" lon="2.13882">
        <ele>162.4</ele>
        <time>2026-02-02T11:13:53Z</time>
      </trkpt>
      <trkpt lat="48.51179" lon="2.13888">
        <ele>162.4</ele>
        <time>2026-02-02T11:13:54Z</time>
      </trkpt>
      <trkpt lat="48.51178" lon="2.13894">
        <ele>162.4</ele>
        <time>2026-02-02T11:13:55Z</time>
      </trkpt>
      <trkpt lat="48.51177" lon="2.139">
        <ele>162.4</ele>
        <time>2026-02-02T11:13:56Z</time>
      </trkpt>
      <trkpt lat="48.51176" lon="2.13906">
        <ele>162.4</ele>
        <time>2026-02-02T11:13:57Z</time>
      </trkpt>
      <trkpt lat="48.51175" lon="2.13911">
        <ele>162.4</ele>
        <time>2026-02-02T11:13:58Z</time>
      </trkpt>
      <trkpt lat="48.51173" lon="2.13918">
        <ele>162.4</ele>
        <time>2026-02-02T11:13:59Z</time>
      </trkpt>
      <trkpt lat="48.51173" lon="2.13924">
        <ele>162.4</ele>
        <time>2026-02-02T11:14:00Z</time>
      </trkpt>
      <trkpt lat="48.51172" lon="2.13931">
        <ele>162.4</ele>
        <time>2026-02-02T11:14:01Z</time>
      </trkpt>
      <trkpt lat="48.51171" lon="2.13938">
        <ele>162.4</ele>
        <time>2026-02-02T11:14:02Z</time>
      </trkpt>
      <trkpt lat="48.51171" lon="2.13945">
        <ele>162.4</ele>
        <time>2026-02-02T11:14:03Z</time>
      </trkpt>
      <trkpt lat="48.5117" lon="2.13951">
        <ele>163</ele>
        <time>2026-02-02T11:14:04Z</time>
      </trkpt>
      <trkpt lat="48.51169" lon="2.13958">
        <ele>163</ele>
        <time>2026-02-02T11:14:05Z</time>
      </trkpt>
      <trkpt lat="48.51169" lon="2.13965">
        <ele>163</ele>
        <time>2026-02-02T11:14:06Z</time>
      </trkpt>
      <trkpt lat="48.51168" lon="2.13972">
        <ele>163</ele>
        <time>2026-02-02T11:14:07Z</time>
      </trkpt>
      <trkpt lat="48.51168" lon="2.13978">
        <ele>163</ele>
        <time>2026-02-02T11:14:08Z</time>
      </trkpt>
      <trkpt lat="48.51167" lon="2.13985">
        <ele>163</ele>
        <time>2026-02-02T11:14:09Z</time>
      </trkpt>
      <trkpt lat="48.51167" lon="2.13992">
        <ele>163</ele>
        <time>2026-02-02T11:14:10Z</time>
      </trkpt>
      <trkpt lat="48.51166" lon="2.13999">
        <ele>163</ele>
        <time>2026-02-02T11:14:11Z</time>
      </trkpt>
      <trkpt lat="48.51166" lon="2.14006">
        <ele>163</ele>
        <time>2026-02-02T11:14:12Z</time>
      </trkpt>
      <trkpt lat="48.51165" lon="2.14012">
        <ele>162.8</ele>
        <time>2026-02-02T11:14:13Z</time>
      </trkpt>
      <trkpt lat="48.51164" lon="2.14019">
        <ele>162.8</ele>
        <time>2026-02-02T11:14:14Z</time>
      </trkpt>
      <trkpt lat="48.51164" lon="2.14026">
        <ele>162.8</ele>
        <time>2026-02-02T11:14:15Z</time>
      </trkpt>
      <trkpt lat="48.51163" lon="2.14033">
        <ele>162.8</ele>
        <time>2026-02-02T11:14:16Z</time>
      </trkpt>
      <trkpt lat="48.51162" lon="2.14039">
        <ele>163.2</ele>
        <time>2026-02-02T11:14:17Z</time>
      </trkpt>
      <trkpt lat="48.51161" lon="2.14046">
        <ele>163.2</ele>
        <time>2026-02-02T11:14:18Z</time>
      </trkpt>
      <trkpt lat="48.5116" lon="2.14053">
        <ele>163.2</ele>
        <time>2026-02-02T11:14:19Z</time>
      </trkpt>
      <trkpt lat="48.51159" lon="2.14059">
        <ele>163.4</ele>
        <time>2026-02-02T11:14:20Z</time>
      </trkpt>
      <trkpt lat="48.51159" lon="2.14066">
        <ele>163.4</ele>
        <time>2026-02-02T11:14:21Z</time>
      </trkpt>
      <trkpt lat="48.51157" lon="2.14072">
        <ele>163.4</ele>
        <time>2026-02-02T11:14:22Z</time>
      </trkpt>
      <trkpt lat="48.51156" lon="2.14079">
        <ele>163.4</ele>
        <time>2026-02-02T11:14:23Z</time>
      </trkpt>
      <trkpt lat="48.51155" lon="2.14086">
        <ele>164</ele>
        <time>2026-02-02T11:14:24Z</time>
      </trkpt>
      <trkpt lat="48.51154" lon="2.14092">
        <ele>163.8</ele>
        <time>2026-02-02T11:14:25Z</time>
      </trkpt>
      <trkpt lat="48.51153" lon="2.14099">
        <ele>163.8</ele>
        <time>2026-02-02T11:14:26Z</time>
      </trkpt>
      <trkpt lat="48.51151" lon="2.14105">
        <ele>163.8</ele>
        <time>2026-02-02T11:14:27Z</time>
      </trkpt>
      <trkpt lat="48.5115" lon="2.14112">
        <ele>163.4</ele>
        <time>2026-02-02T11:14:28Z</time>
      </trkpt>
      <trkpt lat="48.51149" lon="2.14119">
        <ele>163.2</ele>
        <time>2026-02-02T11:14:29Z</time>
      </trkpt>
      <trkpt lat="48.51147" lon="2.14126">
        <ele>163.2</ele>
        <time>2026-02-02T11:14:30Z</time>
      </trkpt>
      <trkpt lat="48.51145" lon="2.14133">
        <ele>163.2</ele>
        <time>2026-02-02T11:14:31Z</time>
      </trkpt>
      <trkpt lat="48.51144" lon="2.1414">
        <ele>162.6</ele>
        <time>2026-02-02T11:14:32Z</time>
      </trkpt>
      <trkpt lat="48.51142" lon="2.14146">
        <ele>163.2</ele>
        <time>2026-02-02T11:14:33Z</time>
      </trkpt>
      <trkpt lat="48.5114" lon="2.14153">
        <ele>163.2</ele>
        <time>2026-02-02T11:14:34Z</time>
      </trkpt>
      <trkpt lat="48.51138" lon="2.1416">
        <ele>163.2</ele>
        <time>2026-02-02T11:14:35Z</time>
      </trkpt>
      <trkpt lat="48.51136" lon="2.14167">
        <ele>163.2</ele>
        <time>2026-02-02T11:14:36Z</time>
      </trkpt>
      <trkpt lat="48.51134" lon="2.14174">
        <ele>163.2</ele>
        <time>2026-02-02T11:14:37Z</time>
      </trkpt>
      <trkpt lat="48.51132" lon="2.14182">
        <ele>163.2</ele>
        <time>2026-02-02T11:14:38Z</time>
      </trkpt>
      <trkpt lat="48.5113" lon="2.14189">
        <ele>163.2</ele>
        <time>2026-02-02T11:14:39Z</time>
      </trkpt>
      <trkpt lat="48.51128" lon="2.14196">
        <ele>163.2</ele>
        <time>2026-02-02T11:14:40Z</time>
      </trkpt>
      <trkpt lat="48.51126" lon="2.14203">
        <ele>163.2</ele>
        <time>2026-02-02T11:14:41Z</time>
      </trkpt>
      <trkpt lat="48.51123" lon="2.1421">
        <ele>163.2</ele>
        <time>2026-02-02T11:14:42Z</time>
      </trkpt>
      <trkpt lat="48.51121" lon="2.14218">
        <ele>163.2</ele>
        <time>2026-02-02T11:14:43Z</time>
      </trkpt>
      <trkpt lat="48.51118" lon="2.14225">
        <ele>163.2</ele>
        <time>2026-02-02T11:14:44Z</time>
      </trkpt>
      <trkpt lat="48.51116" lon="2.14232">
        <ele>163.2</ele>
        <time>2026-02-02T11:14:45Z</time>
      </trkpt>
      <trkpt lat="48.51114" lon="2.14239">
        <ele>163.2</ele>
        <time>2026-02-02T11:14:46Z</time>
      </trkpt>
      <trkpt lat="48.51111" lon="2.14246">
        <ele>163.2</ele>
        <time>2026-02-02T11:14:47Z</time>
      </trkpt>
      <trkpt lat="48.51109" lon="2.14253">
        <ele>163</ele>
        <time>2026-02-02T11:14:48Z</time>
      </trkpt>
      <trkpt lat="48.51106" lon="2.1426">
        <ele>163.2</ele>
        <time>2026-02-02T11:14:49Z</time>
      </trkpt>
      <trkpt lat="48.51104" lon="2.14267">
        <ele>163.2</ele>
        <time>2026-02-02T11:14:50Z</time>
      </trkpt>
      <trkpt lat="48.51102" lon="2.14275">
        <ele>163.2</ele>
        <time>2026-02-02T11:14:51Z</time>
      </trkpt>
      <trkpt lat="48.511" lon="2.14282">
        <ele>163.2</ele>
        <time>2026-02-02T11:14:52Z</time>
      </trkpt>
      <trkpt lat="48.51098" lon="2.14289">
        <ele>163</ele>
        <time>2026-02-02T11:14:53Z</time>
      </trkpt>
      <trkpt lat="48.51096" lon="2.14296">
        <ele>163</ele>
        <time>2026-02-02T11:14:54Z</time>
      </trkpt>
      <trkpt lat="48.51094" lon="2.14304">
        <ele>163</ele>
        <time>2026-02-02T11:14:55Z</time>
      </trkpt>
      <trkpt lat="48.51091" lon="2.14311">
        <ele>163</ele>
        <time>2026-02-02T11:14:56Z</time>
      </trkpt>
      <trkpt lat="48.51089" lon="2.14318">
        <ele>163</ele>
        <time>2026-02-02T11:14:57Z</time>
      </trkpt>
      <trkpt lat="48.51087" lon="2.14326">
        <ele>163</ele>
        <time>2026-02-02T11:14:58Z</time>
      </trkpt>
      <trkpt lat="48.51085" lon="2.14333">
        <ele>163</ele>
        <time>2026-02-02T11:14:59Z</time>
      </trkpt>
      <trkpt lat="48.51083" lon="2.14342">
        <ele>163</ele>
        <time>2026-02-02T11:15:00Z</time>
      </trkpt>
      <trkpt lat="48.5108" lon="2.1435">
        <ele>162.6</ele>
        <time>2026-02-02T11:15:01Z</time>
      </trkpt>
      <trkpt lat="48.51078" lon="2.14359">
        <ele>162.6</ele>
        <time>2026-02-02T11:15:02Z</time>
      </trkpt>
      <trkpt lat="48.51076" lon="2.14367">
        <ele>162.6</ele>
        <time>2026-02-02T11:15:03Z</time>
      </trkpt>
      <trkpt lat="48.51074" lon="2.14375">
        <ele>163.2</ele>
        <time>2026-02-02T11:15:04Z</time>
      </trkpt>
      <trkpt lat="48.51072" lon="2.14383">
        <ele>162.6</ele>
        <time>2026-02-02T11:15:05Z</time>
      </trkpt>
      <trkpt lat="48.51069" lon="2.14391">
        <ele>162.6</ele>
        <time>2026-02-02T11:15:06Z</time>
      </trkpt>
      <trkpt lat="48.51067" lon="2.14399">
        <ele>162.6</ele>
        <time>2026-02-02T11:15:07Z</time>
      </trkpt>
      <trkpt lat="48.51065" lon="2.14407">
        <ele>162.6</ele>
        <time>2026-02-02T11:15:08Z</time>
      </trkpt>
      <trkpt lat="48.51063" lon="2.14414">
        <ele>162.8</ele>
        <time>2026-02-02T11:15:09Z</time>
      </trkpt>
      <trkpt lat="48.51061" lon="2.14422">
        <ele>162.8</ele>
        <time>2026-02-02T11:15:10Z</time>
      </trkpt>
      <trkpt lat="48.51059" lon="2.1443">
        <ele>162.8</ele>
        <time>2026-02-02T11:15:11Z</time>
      </trkpt>
      <trkpt lat="48.51057" lon="2.14437">
        <ele>162.8</ele>
        <time>2026-02-02T11:15:12Z</time>
      </trkpt>
      <trkpt lat="48.51055" lon="2.14445">
        <ele>163</ele>
        <time>2026-02-02T11:15:13Z</time>
      </trkpt>
      <trkpt lat="48.51053" lon="2.14452">
        <ele>163</ele>
        <time>2026-02-02T11:15:14Z</time>
      </trkpt>
      <trkpt lat="48.5105" lon="2.14459">
        <ele>163</ele>
        <time>2026-02-02T11:15:15Z</time>
      </trkpt>
      <trkpt lat="48.51048" lon="2.14467">
        <ele>163</ele>
        <time>2026-02-02T11:15:16Z</time>
      </trkpt>
      <trkpt lat="48.51046" lon="2.14474">
        <ele>163</ele>
        <time>2026-02-02T11:15:17Z</time>
      </trkpt>
      <trkpt lat="48.51044" lon="2.14481">
        <ele>163</ele>
        <time>2026-02-02T11:15:18Z</time>
      </trkpt>
      <trkpt lat="48.51042" lon="2.14488">
        <ele>163</ele>
        <time>2026-02-02T11:15:19Z</time>
      </trkpt>
      <trkpt lat="48.5104" lon="2.14495">
        <ele>163</ele>
        <time>2026-02-02T11:15:20Z</time>
      </trkpt>
      <trkpt lat="48.51038" lon="2.14502">
        <ele>163.2</ele>
        <time>2026-02-02T11:15:21Z</time>
      </trkpt>
      <trkpt lat="48.51036" lon="2.1451">
        <ele>163.2</ele>
        <time>2026-02-02T11:15:22Z</time>
      </trkpt>
      <trkpt lat="48.51034" lon="2.14517">
        <ele>163.2</ele>
        <time>2026-02-02T11:15:23Z</time>
      </trkpt>
      <trkpt lat="48.51032" lon="2.14524">
        <ele>163</ele>
        <time>2026-02-02T11:15:24Z</time>
      </trkpt>
      <trkpt lat="48.5103" lon="2.14532">
        <ele>162.6</ele>
        <time>2026-02-02T11:15:25Z</time>
      </trkpt>
      <trkpt lat="48.51028" lon="2.1454">
        <ele>162.6</ele>
        <time>2026-02-02T11:15:26Z</time>
      </trkpt>
      <trkpt lat="48.51026" lon="2.14547">
        <ele>162.6</ele>
        <time>2026-02-02T11:15:27Z</time>
      </trkpt>
      <trkpt lat="48.51024" lon="2.14555">
        <ele>163</ele>
        <time>2026-02-02T11:15:28Z</time>
      </trkpt>
      <trkpt lat="48.51021" lon="2.14563">
        <ele>162.8</ele>
        <time>2026-02-02T11:15:29Z</time>
      </trkpt>
      <trkpt lat="48.51019" lon="2.14571">
        <ele>162.8</ele>
        <time>2026-02-02T11:15:30Z</time>
      </trkpt>
      <trkpt lat="48.51017" lon="2.14579">
        <ele>162.8</ele>
        <time>2026-02-02T11:15:31Z</time>
      </trkpt>
      <trkpt lat="48.51015" lon="2.14587">
        <ele>162.8</ele>
        <time>2026-02-02T11:15:32Z</time>
      </trkpt>
      <trkpt lat="48.51013" lon="2.14595">
        <ele>162.6</ele>
        <time>2026-02-02T11:15:33Z</time>
      </trkpt>
      <trkpt lat="48.51011" lon="2.14603">
        <ele>162.6</ele>
        <time>2026-02-02T11:15:34Z</time>
      </trkpt>
      <trkpt lat="48.51009" lon="2.14611">
        <ele>162.6</ele>
        <time>2026-02-02T11:15:35Z</time>
      </trkpt>
      <trkpt lat="48.51008" lon="2.1462">
        <ele>162.6</ele>
        <time>2026-02-02T11:15:36Z</time>
      </trkpt>
      <trkpt lat="48.51006" lon="2.14628">
        <ele>162.4</ele>
        <time>2026-02-02T11:15:37Z</time>
      </trkpt>
      <trkpt lat="48.51004" lon="2.14636">
        <ele>162.4</ele>
        <time>2026-02-02T11:15:38Z</time>
      </trkpt>
      <trkpt lat="48.51003" lon="2.14644">
        <ele>162.4</ele>
        <time>2026-02-02T11:15:39Z</time>
      </trkpt>
      <trkpt lat="48.51001" lon="2.14652">
        <ele>163.2</ele>
        <time>2026-02-02T11:15:40Z</time>
      </trkpt>
      <trkpt lat="48.51" lon="2.1466">
        <ele>163.4</ele>
        <time>2026-02-02T11:15:41Z</time>
      </trkpt>
      <trkpt lat="48.50999" lon="2.14668">
        <ele>163.4</ele>
        <time>2026-02-02T11:15:42Z</time>
      </trkpt>
      <trkpt lat="48.50997" lon="2.14676">
        <ele>163.4</ele>
        <time>2026-02-02T11:15:43Z</time>
      </trkpt>
      <trkpt lat="48.50996" lon="2.14685">
        <ele>162.8</ele>
        <time>2026-02-02T11:15:44Z</time>
      </trkpt>
      <trkpt lat="48.50995" lon="2.14693">
        <ele>163</ele>
        <time>2026-02-02T11:15:45Z</time>
      </trkpt>
      <trkpt lat="48.50994" lon="2.14701">
        <ele>163</ele>
        <time>2026-02-02T11:15:46Z</time>
      </trkpt>
      <trkpt lat="48.50993" lon="2.14709">
        <ele>163</ele>
        <time>2026-02-02T11:15:47Z</time>
      </trkpt>
      <trkpt lat="48.50992" lon="2.14717">
        <ele>163</ele>
        <time>2026-02-02T11:15:48Z</time>
      </trkpt>
      <trkpt lat="48.5099" lon="2.14725">
        <ele>163</ele>
        <time>2026-02-02T11:15:49Z</time>
      </trkpt>
      <trkpt lat="48.5099" lon="2.14733">
        <ele>163</ele>
        <time>2026-02-02T11:15:50Z</time>
      </trkpt>
      <trkpt lat="48.50989" lon="2.14741">
        <ele>163</ele>
        <time>2026-02-02T11:15:51Z</time>
      </trkpt>
      <trkpt lat="48.50988" lon="2.14749">
        <ele>163</ele>
        <time>2026-02-02T11:15:52Z</time>
      </trkpt>
      <trkpt lat="48.50986" lon="2.14757">
        <ele>162.4</ele>
        <time>2026-02-02T11:15:53Z</time>
      </trkpt>
      <trkpt lat="48.50985" lon="2.14765">
        <ele>162.4</ele>
        <time>2026-02-02T11:15:54Z</time>
      </trkpt>
      <trkpt lat="48.50984" lon="2.14773">
        <ele>162.4</ele>
        <time>2026-02-02T11:15:55Z</time>
      </trkpt>
      <trkpt lat="48.50983" lon="2.14781">
        <ele>162</ele>
        <time>2026-02-02T11:15:56Z</time>
      </trkpt>
      <trkpt lat="48.50982" lon="2.1479">
        <ele>162</ele>
        <time>2026-02-02T11:15:57Z</time>
      </trkpt>
      <trkpt lat="48.5098" lon="2.14798">
        <ele>162</ele>
        <time>2026-02-02T11:15:58Z</time>
      </trkpt>
      <trkpt lat="48.50979" lon="2.14807">
        <ele>162</ele>
        <time>2026-02-02T11:15:59Z</time>
      </trkpt>
      <trkpt lat="48.50977" lon="2.14815">
        <ele>161.8</ele>
        <time>2026-02-02T11:16:00Z</time>
      </trkpt>
      <trkpt lat="48.50975" lon="2.14823">
        <ele>161.4</ele>
        <time>2026-02-02T11:16:01Z</time>
      </trkpt>
      <trkpt lat="48.50974" lon="2.14832">
        <ele>161.4</ele>
        <time>2026-02-02T11:16:02Z</time>
      </trkpt>
      <trkpt lat="48.50972" lon="2.1484">
        <ele>161.4</ele>
        <time>2026-02-02T11:16:03Z</time>
      </trkpt>
      <trkpt lat="48.5097" lon="2.14849">
        <ele>161.8</ele>
        <time>2026-02-02T11:16:04Z</time>
      </trkpt>
      <trkpt lat="48.50968" lon="2.14857">
        <ele>161.4</ele>
        <time>2026-02-02T11:16:05Z</time>
      </trkpt>
      <trkpt lat="48.50966" lon="2.14866">
        <ele>161.4</ele>
        <time>2026-02-02T11:16:06Z</time>
      </trkpt>
      <trkpt lat="48.50964" lon="2.14874">
        <ele>161.4</ele>
        <time>2026-02-02T11:16:07Z</time>
      </trkpt>
      <trkpt lat="48.50962" lon="2.14883">
        <ele>161.4</ele>
        <time>2026-02-02T11:16:08Z</time>
      </trkpt>
      <trkpt lat="48.50959" lon="2.14892">
        <ele>160.8</ele>
        <time>2026-02-02T11:16:09Z</time>
      </trkpt>
      <trkpt lat="48.50957" lon="2.149">
        <ele>160.8</ele>
        <time>2026-02-02T11:16:10Z</time>
      </trkpt>
      <trkpt lat="48.50955" lon="2.14908">
        <ele>160.8</ele>
        <time>2026-02-02T11:16:11Z</time>
      </trkpt>
      <trkpt lat="48.50953" lon="2.14915">
        <ele>161</ele>
        <time>2026-02-02T11:16:12Z</time>
      </trkpt>
      <trkpt lat="48.5095" lon="2.14923">
        <ele>161</ele>
        <time>2026-02-02T11:16:13Z</time>
      </trkpt>
      <trkpt lat="48.50948" lon="2.14931">
        <ele>161</ele>
        <time>2026-02-02T11:16:14Z</time>
      </trkpt>
      <trkpt lat="48.50946" lon="2.14939">
        <ele>161</ele>
        <time>2026-02-02T11:16:15Z</time>
      </trkpt>
      <trkpt lat="48.50944" lon="2.14947">
        <ele>161</ele>
        <time>2026-02-02T11:16:16Z</time>
      </trkpt>
      <trkpt lat="48.50943" lon="2.14955">
        <ele>160.6</ele>
        <time>2026-02-02T11:16:17Z</time>
      </trkpt>
      <trkpt lat="48.50942" lon="2.14965">
        <ele>160.6</ele>
        <time>2026-02-02T11:16:18Z</time>
      </trkpt>
      <trkpt lat="48.50941" lon="2.14975">
        <ele>160.6</ele>
        <time>2026-02-02T11:16:19Z</time>
      </trkpt>
      <trkpt lat="48.5094" lon="2.14985">
        <ele>160.6</ele>
        <time>2026-02-02T11:16:20Z</time>
      </trkpt>
      <trkpt lat="48.5094" lon="2.14994">
        <ele>160.2</ele>
        <time>2026-02-02T11:16:21Z</time>
      </trkpt>
      <trkpt lat="48.5094" lon="2.15004">
        <ele>160.2</ele>
        <time>2026-02-02T11:16:22Z</time>
      </trkpt>
      <trkpt lat="48.5094" lon="2.15013">
        <ele>160.2</ele>
        <time>2026-02-02T11:16:23Z</time>
      </trkpt>
      <trkpt lat="48.5094" lon="2.15023">
        <ele>160.2</ele>
        <time>2026-02-02T11:16:24Z</time>
      </trkpt>
      <trkpt lat="48.5094" lon="2.15032">
        <ele>160.2</ele>
        <time>2026-02-02T11:16:25Z</time>
      </trkpt>
      <trkpt lat="48.5094" lon="2.15041">
        <ele>160.2</ele>
        <time>2026-02-02T11:16:26Z</time>
      </trkpt>
      <trkpt lat="48.50941" lon="2.15051">
        <ele>160.2</ele>
        <time>2026-02-02T11:16:27Z</time>
      </trkpt>
      <trkpt lat="48.50941" lon="2.1506">
        <ele>160.2</ele>
        <time>2026-02-02T11:16:28Z</time>
      </trkpt>
      <trkpt lat="48.50941" lon="2.15069">
        <ele>160</ele>
        <time>2026-02-02T11:16:29Z</time>
      </trkpt>
      <trkpt lat="48.50942" lon="2.15078">
        <ele>160</ele>
        <time>2026-02-02T11:16:30Z</time>
      </trkpt>
      <trkpt lat="48.50942" lon="2.15087">
        <ele>160</ele>
        <time>2026-02-02T11:16:31Z</time>
      </trkpt>
      <trkpt lat="48.50942" lon="2.15096">
        <ele>160</ele>
        <time>2026-02-02T11:16:32Z</time>
      </trkpt>
      <trkpt lat="48.50942" lon="2.15105">
        <ele>159.8</ele>
        <time>2026-02-02T11:16:33Z</time>
      </trkpt>
      <trkpt lat="48.50942" lon="2.15113">
        <ele>159.8</ele>
        <time>2026-02-02T11:16:34Z</time>
      </trkpt>
      <trkpt lat="48.50943" lon="2.15121">
        <ele>159.8</ele>
        <time>2026-02-02T11:16:35Z</time>
      </trkpt>
      <trkpt lat="48.50943" lon="2.1513">
        <ele>160.4</ele>
        <time>2026-02-02T11:16:36Z</time>
      </trkpt>
      <trkpt lat="48.50943" lon="2.15138">
        <ele>160.2</ele>
        <time>2026-02-02T11:16:37Z</time>
      </trkpt>
      <trkpt lat="48.50943" lon="2.15146">
        <ele>160.2</ele>
        <time>2026-02-02T11:16:38Z</time>
      </trkpt>
      <trkpt lat="48.50943" lon="2.15155">
        <ele>160.2</ele>
        <time>2026-02-02T11:16:39Z</time>
      </trkpt>
      <trkpt lat="48.50943" lon="2.15164">
        <ele>160</ele>
        <time>2026-02-02T11:16:40Z</time>
      </trkpt>
      <trkpt lat="48.50943" lon="2.15172">
        <ele>159.6</ele>
        <time>2026-02-02T11:16:41Z</time>
      </trkpt>
      <trkpt lat="48.50944" lon="2.15181">
        <ele>159.6</ele>
        <time>2026-02-02T11:16:42Z</time>
      </trkpt>
      <trkpt lat="48.50944" lon="2.15189">
        <ele>159.6</ele>
        <time>2026-02-02T11:16:43Z</time>
      </trkpt>
      <trkpt lat="48.50944" lon="2.15197">
        <ele>160.6</ele>
        <time>2026-02-02T11:16:44Z</time>
      </trkpt>
      <trkpt lat="48.50944" lon="2.15206">
        <ele>160.8</ele>
        <time>2026-02-02T11:16:45Z</time>
      </trkpt>
      <trkpt lat="48.50945" lon="2.15214">
        <ele>160.8</ele>
        <time>2026-02-02T11:16:46Z</time>
      </trkpt>
      <trkpt lat="48.50945" lon="2.15223">
        <ele>160.8</ele>
        <time>2026-02-02T11:16:47Z</time>
      </trkpt>
      <trkpt lat="48.50945" lon="2.15231">
        <ele>160.2</ele>
        <time>2026-02-02T11:16:48Z</time>
      </trkpt>
      <trkpt lat="48.50945" lon="2.1524">
        <ele>160.4</ele>
        <time>2026-02-02T11:16:49Z</time>
      </trkpt>
      <trkpt lat="48.50945" lon="2.15248">
        <ele>160.4</ele>
        <time>2026-02-02T11:16:50Z</time>
      </trkpt>
      <trkpt lat="48.50945" lon="2.15256">
        <ele>160.4</ele>
        <time>2026-02-02T11:16:51Z</time>
      </trkpt>
      <trkpt lat="48.50945" lon="2.15265">
        <ele>159.6</ele>
        <time>2026-02-02T11:16:52Z</time>
      </trkpt>
      <trkpt lat="48.50945" lon="2.15273">
        <ele>159.6</ele>
        <time>2026-02-02T11:16:53Z</time>
      </trkpt>
      <trkpt lat="48.50946" lon="2.15281">
        <ele>159.6</ele>
        <time>2026-02-02T11:16:54Z</time>
      </trkpt>
      <trkpt lat="48.50946" lon="2.1529">
        <ele>159.6</ele>
        <time>2026-02-02T11:16:55Z</time>
      </trkpt>
      <trkpt lat="48.50946" lon="2.15298">
        <ele>159.6</ele>
        <time>2026-02-02T11:16:56Z</time>
      </trkpt>
      <trkpt lat="48.50946" lon="2.15306">
        <ele>159.2</ele>
        <time>2026-02-02T11:16:57Z</time>
      </trkpt>
      <trkpt lat="48.50946" lon="2.15315">
        <ele>159.2</ele>
        <time>2026-02-02T11:16:58Z</time>
      </trkpt>
      <trkpt lat="48.50946" lon="2.15323">
        <ele>159.2</ele>
        <time>2026-02-02T11:16:59Z</time>
      </trkpt>
      <trkpt lat="48.50946" lon="2.15331">
        <ele>159.4</ele>
        <time>2026-02-02T11:17:00Z</time>
      </trkpt>
      <trkpt lat="48.50946" lon="2.15339">
        <ele>159.4</ele>
        <time>2026-02-02T11:17:01Z</time>
      </trkpt>
      <trkpt lat="48.50947" lon="2.15347">
        <ele>159.4</ele>
        <time>2026-02-02T11:17:02Z</time>
      </trkpt>
      <trkpt lat="48.50947" lon="2.15355">
        <ele>159.4</ele>
        <time>2026-02-02T11:17:03Z</time>
      </trkpt>
      <trkpt lat="48.50947" lon="2.15363">
        <ele>159.4</ele>
        <time>2026-02-02T11:17:04Z</time>
      </trkpt>
      <trkpt lat="48.50947" lon="2.15371">
        <ele>159.6</ele>
        <time>2026-02-02T11:17:05Z</time>
      </trkpt>
      <trkpt lat="48.50947" lon="2.15379">
        <ele>159.6</ele>
        <time>2026-02-02T11:17:06Z</time>
      </trkpt>
      <trkpt lat="48.50947" lon="2.15387">
        <ele>159.6</ele>
        <time>2026-02-02T11:17:07Z</time>
      </trkpt>
      <trkpt lat="48.50947" lon="2.15395">
        <ele>159.6</ele>
        <time>2026-02-02T11:17:08Z</time>
      </trkpt>
      <trkpt lat="48.50947" lon="2.15403">
        <ele>159.4</ele>
        <time>2026-02-02T11:17:09Z</time>
      </trkpt>
      <trkpt lat="48.50947" lon="2.15411">
        <ele>159.4</ele>
        <time>2026-02-02T11:17:10Z</time>
      </trkpt>
      <trkpt lat="48.50948" lon="2.15419">
        <ele>159.4</ele>
        <time>2026-02-02T11:17:11Z</time>
      </trkpt>
      <trkpt lat="48.50948" lon="2.15427">
        <ele>159.4</ele>
        <time>2026-02-02T11:17:12Z</time>
      </trkpt>
      <trkpt lat="48.50948" lon="2.15435">
        <ele>159.4</ele>
        <time>2026-02-02T11:17:13Z</time>
      </trkpt>
      <trkpt lat="48.50949" lon="2.15443">
        <ele>159.4</ele>
        <time>2026-02-02T11:17:14Z</time>
      </trkpt>
      <trkpt lat="48.50949" lon="2.15451">
        <ele>159.4</ele>
        <time>2026-02-02T11:17:15Z</time>
      </trkpt>
      <trkpt lat="48.50949" lon="2.15459">
        <ele>159.4</ele>
        <time>2026-02-02T11:17:16Z</time>
      </trkpt>
      <trkpt lat="48.5095" lon="2.15467">
        <ele>159.6</ele>
        <time>2026-02-02T11:17:17Z</time>
      </trkpt>
      <trkpt lat="48.5095" lon="2.15475">
        <ele>159.6</ele>
        <time>2026-02-02T11:17:18Z</time>
      </trkpt>
      <trkpt lat="48.50951" lon="2.15483">
        <ele>159.6</ele>
        <time>2026-02-02T11:17:19Z</time>
      </trkpt>
      <trkpt lat="48.50951" lon="2.15491">
        <ele>159.6</ele>
        <time>2026-02-02T11:17:20Z</time>
      </trkpt>
      <trkpt lat="48.50952" lon="2.15499">
        <ele>159.4</ele>
        <time>2026-02-02T11:17:21Z</time>
      </trkpt>
      <trkpt lat="48.50953" lon="2.15508">
        <ele>159.4</ele>
        <time>2026-02-02T11:17:22Z</time>
      </trkpt>
      <trkpt lat="48.50953" lon="2.15516">
        <ele>159.4</ele>
        <time>2026-02-02T11:17:23Z</time>
      </trkpt>
      <trkpt lat="48.50954" lon="2.15524">
        <ele>159.4</ele>
        <time>2026-02-02T11:17:24Z</time>
      </trkpt>
      <trkpt lat="48.50954" lon="2.15532">
        <ele>159.8</ele>
        <time>2026-02-02T11:17:25Z</time>
      </trkpt>
      <trkpt lat="48.50955" lon="2.1554">
        <ele>159.8</ele>
        <time>2026-02-02T11:17:26Z</time>
      </trkpt>
      <trkpt lat="48.50956" lon="2.15548">
        <ele>159.8</ele>
        <time>2026-02-02T11:17:27Z</time>
      </trkpt>
      <trkpt lat="48.50956" lon="2.15556">
        <ele>159.6</ele>
        <time>2026-02-02T11:17:28Z</time>
      </trkpt>
      <trkpt lat="48.50957" lon="2.15564">
        <ele>160</ele>
        <time>2026-02-02T11:17:29Z</time>
      </trkpt>
      <trkpt lat="48.50958" lon="2.15572">
        <ele>160</ele>
        <time>2026-02-02T11:17:30Z</time>
      </trkpt>
      <trkpt lat="48.50958" lon="2.1558">
        <ele>160</ele>
        <time>2026-02-02T11:17:31Z</time>
      </trkpt>
      <trkpt lat="48.50959" lon="2.15588">
        <ele>160</ele>
        <time>2026-02-02T11:17:32Z</time>
      </trkpt>
      <trkpt lat="48.50959" lon="2.15596">
        <ele>160.2</ele>
        <time>2026-02-02T11:17:33Z</time>
      </trkpt>
      <trkpt lat="48.50959" lon="2.15604">
        <ele>160.2</ele>
        <time>2026-02-02T11:17:34Z</time>
      </trkpt>
      <trkpt lat="48.5096" lon="2.15612">
        <ele>160.2</ele>
        <time>2026-02-02T11:17:35Z</time>
      </trkpt>
      <trkpt lat="48.5096" lon="2.1562">
        <ele>159.4</ele>
        <time>2026-02-02T11:17:36Z</time>
      </trkpt>
      <trkpt lat="48.5096" lon="2.15628">
        <ele>159.4</ele>
        <time>2026-02-02T11:17:37Z</time>
      </trkpt>
      <trkpt lat="48.5096" lon="2.15636">
        <ele>159.4</ele>
        <time>2026-02-02T11:17:38Z</time>
      </trkpt>
      <trkpt lat="48.50961" lon="2.15644">
        <ele>159.4</ele>
        <time>2026-02-02T11:17:39Z</time>
      </trkpt>
      <trkpt lat="48.50961" lon="2.15652">
        <ele>160.2</ele>
        <time>2026-02-02T11:17:40Z</time>
      </trkpt>
      <trkpt lat="48.5096" lon="2.15661">
        <ele>160.2</ele>
        <time>2026-02-02T11:17:41Z</time>
      </trkpt>
      <trkpt lat="48.5096" lon="2.15669">
        <ele>160.2</ele>
        <time>2026-02-02T11:17:42Z</time>
      </trkpt>
      <trkpt lat="48.5096" lon="2.15678">
        <ele>160.2</ele>
        <time>2026-02-02T11:17:43Z</time>
      </trkpt>
      <trkpt lat="48.50959" lon="2.15687">
        <ele>160.2</ele>
        <time>2026-02-02T11:17:44Z</time>
      </trkpt>
      <trkpt lat="48.50959" lon="2.15695">
        <ele>160.4</ele>
        <time>2026-02-02T11:17:45Z</time>
      </trkpt>
      <trkpt lat="48.50958" lon="2.15704">
        <ele>160.4</ele>
        <time>2026-02-02T11:17:46Z</time>
      </trkpt>
      <trkpt lat="48.50957" lon="2.15713">
        <ele>160.4</ele>
        <time>2026-02-02T11:17:47Z</time>
      </trkpt>
      <trkpt lat="48.50957" lon="2.15721">
        <ele>161</ele>
        <time>2026-02-02T11:17:48Z</time>
      </trkpt>
      <trkpt lat="48.50956" lon="2.15729">
        <ele>161</ele>
        <time>2026-02-02T11:17:49Z</time>
      </trkpt>
      <trkpt lat="48.50955" lon="2.15737">
        <ele>161</ele>
        <time>2026-02-02T11:17:50Z</time>
      </trkpt>
      <trkpt lat="48.50953" lon="2.15745">
        <ele>161</ele>
        <time>2026-02-02T11:17:51Z</time>
      </trkpt>
      <trkpt lat="48.50952" lon="2.15752">
        <ele>161.8</ele>
        <time>2026-02-02T11:17:52Z</time>
      </trkpt>
      <trkpt lat="48.50951" lon="2.15759">
        <ele>161.8</ele>
        <time>2026-02-02T11:17:53Z</time>
      </trkpt>
      <trkpt lat="48.50949" lon="2.15767">
        <ele>161.8</ele>
        <time>2026-02-02T11:17:54Z</time>
      </trkpt>
      <trkpt lat="48.50948" lon="2.15774">
        <ele>161.8</ele>
        <time>2026-02-02T11:17:55Z</time>
      </trkpt>
      <trkpt lat="48.50946" lon="2.15781">
        <ele>161.8</ele>
        <time>2026-02-02T11:17:56Z</time>
      </trkpt>
      <trkpt lat="48.50944" lon="2.15788">
        <ele>162.4</ele>
        <time>2026-02-02T11:17:57Z</time>
      </trkpt>
      <trkpt lat="48.50942" lon="2.15795">
        <ele>162.4</ele>
        <time>2026-02-02T11:17:58Z</time>
      </trkpt>
      <trkpt lat="48.50941" lon="2.15801">
        <ele>162.4</ele>
        <time>2026-02-02T11:17:59Z</time>
      </trkpt>
      <trkpt lat="48.50939" lon="2.15807">
        <ele>162.6</ele>
        <time>2026-02-02T11:18:00Z</time>
      </trkpt>
      <trkpt lat="48.50937" lon="2.15813">
        <ele>162.6</ele>
        <time>2026-02-02T11:18:01Z</time>
      </trkpt>
      <trkpt lat="48.50936" lon="2.1582">
        <ele>162.6</ele>
        <time>2026-02-02T11:18:02Z</time>
      </trkpt>
      <trkpt lat="48.50934" lon="2.15826">
        <ele>162.6</ele>
        <time>2026-02-02T11:18:03Z</time>
      </trkpt>
      <trkpt lat="48.50932" lon="2.15832">
        <ele>162.6</ele>
        <time>2026-02-02T11:18:04Z</time>
      </trkpt>
      <trkpt lat="48.5093" lon="2.15839">
        <ele>163</ele>
        <time>2026-02-02T11:18:05Z</time>
      </trkpt>
      <trkpt lat="48.50928" lon="2.15845">
        <ele>163</ele>
        <time>2026-02-02T11:18:06Z</time>
      </trkpt>
      <trkpt lat="48.50926" lon="2.15851">
        <ele>163</ele>
        <time>2026-02-02T11:18:07Z</time>
      </trkpt>
      <trkpt lat="48.50924" lon="2.15858">
        <ele>163</ele>
        <time>2026-02-02T11:18:08Z</time>
      </trkpt>
      <trkpt lat="48.50922" lon="2.15864">
        <ele>162.8</ele>
        <time>2026-02-02T11:18:09Z</time>
      </trkpt>
      <trkpt lat="48.5092" lon="2.1587">
        <ele>162.8</ele>
        <time>2026-02-02T11:18:10Z</time>
      </trkpt>
      <trkpt lat="48.50918" lon="2.15877">
        <ele>162.8</ele>
        <time>2026-02-02T11:18:11Z</time>
      </trkpt>
      <trkpt lat="48.50916" lon="2.15883">
        <ele>163.4</ele>
        <time>2026-02-02T11:18:12Z</time>
      </trkpt>
      <trkpt lat="48.50914" lon="2.1589">
        <ele>163.4</ele>
        <time>2026-02-02T11:18:13Z</time>
      </trkpt>
      <trkpt lat="48.50911" lon="2.15896">
        <ele>163.4</ele>
        <time>2026-02-02T11:18:14Z</time>
      </trkpt>
      <trkpt lat="48.50909" lon="2.15902">
        <ele>163.4</ele>
        <time>2026-02-02T11:18:15Z</time>
      </trkpt>
      <trkpt lat="48.50907" lon="2.15909">
        <ele>163.4</ele>
        <time>2026-02-02T11:18:16Z</time>
      </trkpt>
      <trkpt lat="48.50905" lon="2.15915">
        <ele>163.4</ele>
        <time>2026-02-02T11:18:17Z</time>
      </trkpt>
      <trkpt lat="48.50903" lon="2.15922">
        <ele>163.4</ele>
        <time>2026-02-02T11:18:18Z</time>
      </trkpt>
      <trkpt lat="48.509" lon="2.15928">
        <ele>163.4</ele>
        <time>2026-02-02T11:18:19Z</time>
      </trkpt>
      <trkpt lat="48.50898" lon="2.15934">
        <ele>163.6</ele>
        <time>2026-02-02T11:18:20Z</time>
      </trkpt>
      <trkpt lat="48.50896" lon="2.15941">
        <ele>163.6</ele>
        <time>2026-02-02T11:18:21Z</time>
      </trkpt>
      <trkpt lat="48.50893" lon="2.15947">
        <ele>163.6</ele>
        <time>2026-02-02T11:18:22Z</time>
      </trkpt>
      <trkpt lat="48.50891" lon="2.15953">
        <ele>163.6</ele>
        <time>2026-02-02T11:18:23Z</time>
      </trkpt>
      <trkpt lat="48.50888" lon="2.1596">
        <ele>164</ele>
        <time>2026-02-02T11:18:24Z</time>
      </trkpt>
      <trkpt lat="48.50886" lon="2.15966">
        <ele>163.4</ele>
        <time>2026-02-02T11:18:25Z</time>
      </trkpt>
      <trkpt lat="48.50883" lon="2.15972">
        <ele>163.4</ele>
        <time>2026-02-02T11:18:26Z</time>
      </trkpt>
      <trkpt lat="48.5088" lon="2.15978">
        <ele>163.4</ele>
        <time>2026-02-02T11:18:27Z</time>
      </trkpt>
      <trkpt lat="48.50877" lon="2.15984">
        <ele>163.8</ele>
        <time>2026-02-02T11:18:28Z</time>
      </trkpt>
      <trkpt lat="48.50874" lon="2.1599">
        <ele>163.6</ele>
        <time>2026-02-02T11:18:29Z</time>
      </trkpt>
      <trkpt lat="48.50872" lon="2.15996">
        <ele>163.6</ele>
        <time>2026-02-02T11:18:30Z</time>
      </trkpt>
      <trkpt lat="48.50869" lon="2.16002">
        <ele>163.6</ele>
        <time>2026-02-02T11:18:31Z</time>
      </trkpt>
      <trkpt lat="48.50866" lon="2.16008">
        <ele>164</ele>
        <time>2026-02-02T11:18:32Z</time>
      </trkpt>
      <trkpt lat="48.50862" lon="2.16014">
        <ele>164.2</ele>
        <time>2026-02-02T11:18:33Z</time>
      </trkpt>
      <trkpt lat="48.50859" lon="2.1602">
        <ele>164.2</ele>
        <time>2026-02-02T11:18:34Z</time>
      </trkpt>
      <trkpt lat="48.50856" lon="2.16026">
        <ele>164.2</ele>
        <time>2026-02-02T11:18:35Z</time>
      </trkpt>
      <trkpt lat="48.50853" lon="2.16032">
        <ele>164</ele>
        <time>2026-02-02T11:18:36Z</time>
      </trkpt>
      <trkpt lat="48.5085" lon="2.16037">
        <ele>164</ele>
        <time>2026-02-02T11:18:37Z</time>
      </trkpt>
      <trkpt lat="48.50847" lon="2.16043">
        <ele>164</ele>
        <time>2026-02-02T11:18:38Z</time>
      </trkpt>
      <trkpt lat="48.50844" lon="2.16048">
        <ele>164</ele>
        <time>2026-02-02T11:18:39Z</time>
      </trkpt>
      <trkpt lat="48.5084" lon="2.16054">
        <ele>164</ele>
        <time>2026-02-02T11:18:40Z</time>
      </trkpt>
      <trkpt lat="48.50837" lon="2.16059">
        <ele>164</ele>
        <time>2026-02-02T11:18:41Z</time>
      </trkpt>
      <trkpt lat="48.50834" lon="2.16064">
        <ele>164</ele>
        <time>2026-02-02T11:18:42Z</time>
      </trkpt>
      <trkpt lat="48.50831" lon="2.16069">
        <ele>164</ele>
        <time>2026-02-02T11:18:43Z</time>
      </trkpt>
      <trkpt lat="48.50828" lon="2.16075">
        <ele>164</ele>
        <time>2026-02-02T11:18:44Z</time>
      </trkpt>
      <trkpt lat="48.50824" lon="2.1608">
        <ele>164.2</ele>
        <time>2026-02-02T11:18:45Z</time>
      </trkpt>
      <trkpt lat="48.50821" lon="2.16085">
        <ele>164.2</ele>
        <time>2026-02-02T11:18:46Z</time>
      </trkpt>
      <trkpt lat="48.50817" lon="2.16091">
        <ele>164.2</ele>
        <time>2026-02-02T11:18:47Z</time>
      </trkpt>
      <trkpt lat="48.50814" lon="2.16096">
        <ele>164.2</ele>
        <time>2026-02-02T11:18:48Z</time>
      </trkpt>
      <trkpt lat="48.5081" lon="2.16101">
        <ele>164</ele>
        <time>2026-02-02T11:18:49Z</time>
      </trkpt>
      <trkpt lat="48.50806" lon="2.16107">
        <ele>164</ele>
        <time>2026-02-02T11:18:50Z</time>
      </trkpt>
      <trkpt lat="48.50802" lon="2.16113">
        <ele>164</ele>
        <time>2026-02-02T11:18:51Z</time>
      </trkpt>
      <trkpt lat="48.50799" lon="2.16118">
        <ele>164</ele>
        <time>2026-02-02T11:18:52Z</time>
      </trkpt>
      <trkpt lat="48.50794" lon="2.16124">
        <ele>164.2</ele>
        <time>2026-02-02T11:18:53Z</time>
      </trkpt>
      <trkpt lat="48.5079" lon="2.16129">
        <ele>164.2</ele>
        <time>2026-02-02T11:18:54Z</time>
      </trkpt>
      <trkpt lat="48.50786" lon="2.16134">
        <ele>164.2</ele>
        <time>2026-02-02T11:18:55Z</time>
      </trkpt>
      <trkpt lat="48.50782" lon="2.1614">
        <ele>164</ele>
        <time>2026-02-02T11:18:56Z</time>
      </trkpt>
      <trkpt lat="48.50777" lon="2.16145">
        <ele>164</ele>
        <time>2026-02-02T11:18:57Z</time>
      </trkpt>
      <trkpt lat="48.50773" lon="2.1615">
        <ele>164</ele>
        <time>2026-02-02T11:18:58Z</time>
      </trkpt>
      <trkpt lat="48.50768" lon="2.16155">
        <ele>164</ele>
        <time>2026-02-02T11:18:59Z</time>
      </trkpt>
      <trkpt lat="48.50764" lon="2.1616">
        <ele>163.6</ele>
        <time>2026-02-02T11:19:00Z</time>
      </trkpt>
      <trkpt lat="48.50759" lon="2.16165">
        <ele>164</ele>
        <time>2026-02-02T11:19:01Z</time>
      </trkpt>
      <trkpt lat="48.50754" lon="2.1617">
        <ele>164</ele>
        <time>2026-02-02T11:19:02Z</time>
      </trkpt>
      <trkpt lat="48.50749" lon="2.16175">
        <ele>164</ele>
        <time>2026-02-02T11:19:03Z</time>
      </trkpt>
      <trkpt lat="48.50744" lon="2.1618">
        <ele>163.4</ele>
        <time>2026-02-02T11:19:04Z</time>
      </trkpt>
      <trkpt lat="48.50739" lon="2.16184">
        <ele>163.4</ele>
        <time>2026-02-02T11:19:05Z</time>
      </trkpt>
      <trkpt lat="48.50734" lon="2.16189">
        <ele>163.4</ele>
        <time>2026-02-02T11:19:06Z</time>
      </trkpt>
      <trkpt lat="48.50729" lon="2.16193">
        <ele>163.4</ele>
        <time>2026-02-02T11:19:07Z</time>
      </trkpt>
      <trkpt lat="48.50724" lon="2.16198">
        <ele>163.4</ele>
        <time>2026-02-02T11:19:08Z</time>
      </trkpt>
      <trkpt lat="48.50719" lon="2.16202">
        <ele>163.4</ele>
        <time>2026-02-02T11:19:09Z</time>
      </trkpt>
      <trkpt lat="48.50714" lon="2.16207">
        <ele>163.4</ele>
        <time>2026-02-02T11:19:10Z</time>
      </trkpt>
      <trkpt lat="48.50708" lon="2.16211">
        <ele>163.4</ele>
        <time>2026-02-02T11:19:11Z</time>
      </trkpt>
      <trkpt lat="48.50703" lon="2.16216">
        <ele>163.4</ele>
        <time>2026-02-02T11:19:12Z</time>
      </trkpt>
      <trkpt lat="48.50698" lon="2.1622">
        <ele>163</ele>
        <time>2026-02-02T11:19:13Z</time>
      </trkpt>
      <trkpt lat="48.50692" lon="2.16225">
        <ele>163</ele>
        <time>2026-02-02T11:19:14Z</time>
      </trkpt>
      <trkpt lat="48.50687" lon="2.16229">
        <ele>163</ele>
        <time>2026-02-02T11:19:15Z</time>
      </trkpt>
      <trkpt lat="48.50682" lon="2.16234">
        <ele>163.4</ele>
        <time>2026-02-02T11:19:16Z</time>
      </trkpt>
      <trkpt lat="48.50677" lon="2.16239">
        <ele>163.6</ele>
        <time>2026-02-02T11:19:17Z</time>
      </trkpt>
      <trkpt lat="48.50671" lon="2.16243">
        <ele>163.6</ele>
        <time>2026-02-02T11:19:18Z</time>
      </trkpt>
      <trkpt lat="48.50666" lon="2.16248">
        <ele>163.6</ele>
        <time>2026-02-02T11:19:19Z</time>
      </trkpt>
      <trkpt lat="48.50661" lon="2.16252">
        <ele>163.6</ele>
        <time>2026-02-02T11:19:20Z</time>
      </trkpt>
      <trkpt lat="48.50655" lon="2.16257">
        <ele>163</ele>
        <time>2026-02-02T11:19:21Z</time>
      </trkpt>
      <trkpt lat="48.5065" lon="2.16262">
        <ele>163</ele>
        <time>2026-02-02T11:19:22Z</time>
      </trkpt>
      <trkpt lat="48.50645" lon="2.16266">
        <ele>163</ele>
        <time>2026-02-02T11:19:23Z</time>
      </trkpt>
      <trkpt lat="48.5064" lon="2.16271">
        <ele>163</ele>
        <time>2026-02-02T11:19:24Z</time>
      </trkpt>
      <trkpt lat="48.50634" lon="2.16276">
        <ele>162.6</ele>
        <time>2026-02-02T11:19:25Z</time>
      </trkpt>
      <trkpt lat="48.50629" lon="2.16281">
        <ele>162.6</ele>
        <time>2026-02-02T11:19:26Z</time>
      </trkpt>
      <trkpt lat="48.50624" lon="2.16286">
        <ele>162.6</ele>
        <time>2026-02-02T11:19:27Z</time>
      </trkpt>
      <trkpt lat="48.50619" lon="2.1629">
        <ele>162.8</ele>
        <time>2026-02-02T11:19:28Z</time>
      </trkpt>
      <trkpt lat="48.50613" lon="2.16295">
        <ele>162.6</ele>
        <time>2026-02-02T11:19:29Z</time>
      </trkpt>
      <trkpt lat="48.50608" lon="2.16299">
        <ele>162.6</ele>
        <time>2026-02-02T11:19:30Z</time>
      </trkpt>
      <trkpt lat="48.50603" lon="2.16304">
        <ele>162.6</ele>
        <time>2026-02-02T11:19:31Z</time>
      </trkpt>
      <trkpt lat="48.50597" lon="2.16309">
        <ele>163.4</ele>
        <time>2026-02-02T11:19:32Z</time>
      </trkpt>
      <trkpt lat="48.50592" lon="2.16313">
        <ele>163.2</ele>
        <time>2026-02-02T11:19:33Z</time>
      </trkpt>
      <trkpt lat="48.50587" lon="2.16318">
        <ele>163.2</ele>
        <time>2026-02-02T11:19:34Z</time>
      </trkpt>
      <trkpt lat="48.50582" lon="2.16322">
        <ele>163.2</ele>
        <time>2026-02-02T11:19:35Z</time>
      </trkpt>
      <trkpt lat="48.50576" lon="2.16327">
        <ele>162.2</ele>
        <time>2026-02-02T11:19:36Z</time>
      </trkpt>
      <trkpt lat="48.50571" lon="2.16332">
        <ele>162.6</ele>
        <time>2026-02-02T11:19:37Z</time>
      </trkpt>
      <trkpt lat="48.50566" lon="2.16337">
        <ele>162.6</ele>
        <time>2026-02-02T11:19:38Z</time>
      </trkpt>
      <trkpt lat="48.50561" lon="2.16342">
        <ele>162.6</ele>
        <time>2026-02-02T11:19:39Z</time>
      </trkpt>
      <trkpt lat="48.50555" lon="2.16348">
        <ele>162.6</ele>
        <time>2026-02-02T11:19:40Z</time>
      </trkpt>
      <trkpt lat="48.5055" lon="2.16353">
        <ele>162.4</ele>
        <time>2026-02-02T11:19:41Z</time>
      </trkpt>
      <trkpt lat="48.50545" lon="2.16359">
        <ele>162.4</ele>
        <time>2026-02-02T11:19:42Z</time>
      </trkpt>
      <trkpt lat="48.5054" lon="2.16364">
        <ele>162.4</ele>
        <time>2026-02-02T11:19:43Z</time>
      </trkpt>
      <trkpt lat="48.50535" lon="2.1637">
        <ele>162.4</ele>
        <time>2026-02-02T11:19:44Z</time>
      </trkpt>
      <trkpt lat="48.5053" lon="2.16376">
        <ele>161.8</ele>
        <time>2026-02-02T11:19:45Z</time>
      </trkpt>
      <trkpt lat="48.50525" lon="2.16383">
        <ele>161.8</ele>
        <time>2026-02-02T11:19:46Z</time>
      </trkpt>
      <trkpt lat="48.5052" lon="2.16389">
        <ele>161.8</ele>
        <time>2026-02-02T11:19:47Z</time>
      </trkpt>
      <trkpt lat="48.50515" lon="2.16395">
        <ele>160.8</ele>
        <time>2026-02-02T11:19:48Z</time>
      </trkpt>
      <trkpt lat="48.5051" lon="2.16401">
        <ele>161.2</ele>
        <time>2026-02-02T11:19:49Z</time>
      </trkpt>
      <trkpt lat="48.50505" lon="2.16408">
        <ele>161.2</ele>
        <time>2026-02-02T11:19:50Z</time>
      </trkpt>
      <trkpt lat="48.50501" lon="2.16414">
        <ele>161.2</ele>
        <time>2026-02-02T11:19:51Z</time>
      </trkpt>
      <trkpt lat="48.50496" lon="2.16421">
        <ele>162</ele>
        <time>2026-02-02T11:19:52Z</time>
      </trkpt>
      <trkpt lat="48.50491" lon="2.16427">
        <ele>161.8</ele>
        <time>2026-02-02T11:19:53Z</time>
      </trkpt>
      <trkpt lat="48.50486" lon="2.16434">
        <ele>161.8</ele>
        <time>2026-02-02T11:19:54Z</time>
      </trkpt>
      <trkpt lat="48.50481" lon="2.1644">
        <ele>161.8</ele>
        <time>2026-02-02T11:19:55Z</time>
      </trkpt>
      <trkpt lat="48.50476" lon="2.16447">
        <ele>161.2</ele>
        <time>2026-02-02T11:19:56Z</time>
      </trkpt>
      <trkpt lat="48.50472" lon="2.16453">
        <ele>161.8</ele>
        <time>2026-02-02T11:19:57Z</time>
      </trkpt>
      <trkpt lat="48.50467" lon="2.1646">
        <ele>161.8</ele>
        <time>2026-02-02T11:19:58Z</time>
      </trkpt>
      <trkpt lat="48.50462" lon="2.16466">
        <ele>161.8</ele>
        <time>2026-02-02T11:19:59Z</time>
      </trkpt>
      <trkpt lat="48.50458" lon="2.16472">
        <ele>161.2</ele>
        <time>2026-02-02T11:20:00Z</time>
      </trkpt>
      <trkpt lat="48.50453" lon="2.16478">
        <ele>161.4</ele>
        <time>2026-02-02T11:20:01Z</time>
      </trkpt>
      <trkpt lat="48.50449" lon="2.16484">
        <ele>161.4</ele>
        <time>2026-02-02T11:20:02Z</time>
      </trkpt>
      <trkpt lat="48.50444" lon="2.1649">
        <ele>161.4</ele>
        <time>2026-02-02T11:20:03Z</time>
      </trkpt>
      <trkpt lat="48.5044" lon="2.16496">
        <ele>161.6</ele>
        <time>2026-02-02T11:20:04Z</time>
      </trkpt>
      <trkpt lat="48.50436" lon="2.16502">
        <ele>161.4</ele>
        <time>2026-02-02T11:20:05Z</time>
      </trkpt>
      <trkpt lat="48.50431" lon="2.16508">
        <ele>161.4</ele>
        <time>2026-02-02T11:20:06Z</time>
      </trkpt>
      <trkpt lat="48.50427" lon="2.16514">
        <ele>161.4</ele>
        <time>2026-02-02T11:20:07Z</time>
      </trkpt>
      <trkpt lat="48.50423" lon="2.16519">
        <ele>161.8</ele>
        <time>2026-02-02T11:20:08Z</time>
      </trkpt>
      <trkpt lat="48.50418" lon="2.16525">
        <ele>161.8</ele>
        <time>2026-02-02T11:20:09Z</time>
      </trkpt>
      <trkpt lat="48.50414" lon="2.16531">
        <ele>161.8</ele>
        <time>2026-02-02T11:20:10Z</time>
      </trkpt>
      <trkpt lat="48.5041" lon="2.16536">
        <ele>161.8</ele>
        <time>2026-02-02T11:20:11Z</time>
      </trkpt>
      <trkpt lat="48.50405" lon="2.16542">
        <ele>161.8</ele>
        <time>2026-02-02T11:20:12Z</time>
      </trkpt>
      <trkpt lat="48.50401" lon="2.16547">
        <ele>162</ele>
        <time>2026-02-02T11:20:13Z</time>
      </trkpt>
      <trkpt lat="48.50397" lon="2.16553">
        <ele>162</ele>
        <time>2026-02-02T11:20:14Z</time>
      </trkpt>
      <trkpt lat="48.50393" lon="2.16558">
        <ele>162</ele>
        <time>2026-02-02T11:20:15Z</time>
      </trkpt>
      <trkpt lat="48.50388" lon="2.16564">
        <ele>162</ele>
        <time>2026-02-02T11:20:16Z</time>
      </trkpt>
      <trkpt lat="48.50384" lon="2.1657">
        <ele>162.2</ele>
        <time>2026-02-02T11:20:17Z</time>
      </trkpt>
      <trkpt lat="48.50379" lon="2.16576">
        <ele>162.2</ele>
        <time>2026-02-02T11:20:18Z</time>
      </trkpt>
      <trkpt lat="48.50374" lon="2.16582">
        <ele>162.2</ele>
        <time>2026-02-02T11:20:19Z</time>
      </trkpt>
      <trkpt lat="48.50369" lon="2.16589">
        <ele>162.4</ele>
        <time>2026-02-02T11:20:20Z</time>
      </trkpt>
      <trkpt lat="48.50365" lon="2.16595">
        <ele>162.8</ele>
        <time>2026-02-02T11:20:21Z</time>
      </trkpt>
      <trkpt lat="48.5036" lon="2.16601">
        <ele>162.8</ele>
        <time>2026-02-02T11:20:22Z</time>
      </trkpt>
      <trkpt lat="48.50355" lon="2.16607">
        <ele>162.8</ele>
        <time>2026-02-02T11:20:23Z</time>
      </trkpt>
      <trkpt lat="48.50351" lon="2.16613">
        <ele>162.6</ele>
        <time>2026-02-02T11:20:24Z</time>
      </trkpt>
      <trkpt lat="48.50347" lon="2.16619">
        <ele>163</ele>
        <time>2026-02-02T11:20:25Z</time>
      </trkpt>
      <trkpt lat="48.50342" lon="2.16624">
        <ele>163</ele>
        <time>2026-02-02T11:20:26Z</time>
      </trkpt>
      <trkpt lat="48.50338" lon="2.1663">
        <ele>163</ele>
        <time>2026-02-02T11:20:27Z</time>
      </trkpt>
      <trkpt lat="48.50334" lon="2.16636">
        <ele>163</ele>
        <time>2026-02-02T11:20:28Z</time>
      </trkpt>
      <trkpt lat="48.5033" lon="2.16641">
        <ele>163</ele>
        <time>2026-02-02T11:20:29Z</time>
      </trkpt>
      <trkpt lat="48.50326" lon="2.16647">
        <ele>163</ele>
        <time>2026-02-02T11:20:30Z</time>
      </trkpt>
      <trkpt lat="48.50322" lon="2.16653">
        <ele>163</ele>
        <time>2026-02-02T11:20:31Z</time>
      </trkpt>
      <trkpt lat="48.50318" lon="2.16658">
        <ele>163.8</ele>
        <time>2026-02-02T11:20:32Z</time>
      </trkpt>
      <trkpt lat="48.50313" lon="2.16664">
        <ele>163.4</ele>
        <time>2026-02-02T11:20:33Z</time>
      </trkpt>
      <trkpt lat="48.50309" lon="2.1667">
        <ele>163.4</ele>
        <time>2026-02-02T11:20:34Z</time>
      </trkpt>
      <trkpt lat="48.50306" lon="2.16676">
        <ele>163.4</ele>
        <time>2026-02-02T11:20:35Z</time>
      </trkpt>
      <trkpt lat="48.50302" lon="2.16682">
        <ele>163.4</ele>
        <time>2026-02-02T11:20:36Z</time>
      </trkpt>
      <trkpt lat="48.50298" lon="2.16688">
        <ele>163.4</ele>
        <time>2026-02-02T11:20:37Z</time>
      </trkpt>
      <trkpt lat="48.50294" lon="2.16694">
        <ele>163.4</ele>
        <time>2026-02-02T11:20:38Z</time>
      </trkpt>
      <trkpt lat="48.5029" lon="2.167">
        <ele>163.4</ele>
        <time>2026-02-02T11:20:39Z</time>
      </trkpt>
      <trkpt lat="48.50286" lon="2.16707">
        <ele>163.4</ele>
        <time>2026-02-02T11:20:40Z</time>
      </trkpt>
      <trkpt lat="48.50283" lon="2.16713">
        <ele>163.2</ele>
        <time>2026-02-02T11:20:41Z</time>
      </trkpt>
      <trkpt lat="48.50279" lon="2.1672">
        <ele>163.2</ele>
        <time>2026-02-02T11:20:42Z</time>
      </trkpt>
      <trkpt lat="48.50276" lon="2.16727">
        <ele>163.2</ele>
        <time>2026-02-02T11:20:43Z</time>
      </trkpt>
      <trkpt lat="48.50273" lon="2.16734">
        <ele>163.2</ele>
        <time>2026-02-02T11:20:44Z</time>
      </trkpt>
      <trkpt lat="48.50269" lon="2.16741">
        <ele>163</ele>
        <time>2026-02-02T11:20:45Z</time>
      </trkpt>
      <trkpt lat="48.50266" lon="2.16749">
        <ele>163</ele>
        <time>2026-02-02T11:20:46Z</time>
      </trkpt>
      <trkpt lat="48.50263" lon="2.16756">
        <ele>163</ele>
        <time>2026-02-02T11:20:47Z</time>
      </trkpt>
      <trkpt lat="48.50259" lon="2.16763">
        <ele>163</ele>
        <time>2026-02-02T11:20:48Z</time>
      </trkpt>
      <trkpt lat="48.50256" lon="2.16771">
        <ele>163.2</ele>
        <time>2026-02-02T11:20:49Z</time>
      </trkpt>
      <trkpt lat="48.50253" lon="2.16778">
        <ele>163.2</ele>
        <time>2026-02-02T11:20:50Z</time>
      </trkpt>
      <trkpt lat="48.50249" lon="2.16786">
        <ele>163.2</ele>
        <time>2026-02-02T11:20:51Z</time>
      </trkpt>
      <trkpt lat="48.50246" lon="2.16793">
        <ele>163.2</ele>
        <time>2026-02-02T11:20:52Z</time>
      </trkpt>
      <trkpt lat="48.50243" lon="2.16801">
        <ele>163.4</ele>
        <time>2026-02-02T11:20:53Z</time>
      </trkpt>
      <trkpt lat="48.50239" lon="2.16808">
        <ele>163.4</ele>
        <time>2026-02-02T11:20:54Z</time>
      </trkpt>
      <trkpt lat="48.50236" lon="2.16815">
        <ele>163.4</ele>
        <time>2026-02-02T11:20:55Z</time>
      </trkpt>
      <trkpt lat="48.50233" lon="2.16822">
        <ele>163.4</ele>
        <time>2026-02-02T11:20:56Z</time>
      </trkpt>
      <trkpt lat="48.5023" lon="2.1683">
        <ele>163</ele>
        <time>2026-02-02T11:20:57Z</time>
      </trkpt>
      <trkpt lat="48.50226" lon="2.16837">
        <ele>163</ele>
        <time>2026-02-02T11:20:58Z</time>
      </trkpt>
      <trkpt lat="48.50223" lon="2.16844">
        <ele>163</ele>
        <time>2026-02-02T11:20:59Z</time>
      </trkpt>
      <trkpt lat="48.5022" lon="2.16851">
        <ele>163</ele>
        <time>2026-02-02T11:21:00Z</time>
      </trkpt>
      <trkpt lat="48.50217" lon="2.16858">
        <ele>163</ele>
        <time>2026-02-02T11:21:01Z</time>
      </trkpt>
      <trkpt lat="48.50213" lon="2.16865">
        <ele>163</ele>
        <time>2026-02-02T11:21:02Z</time>
      </trkpt>
      <trkpt lat="48.5021" lon="2.16871">
        <ele>163</ele>
        <time>2026-02-02T11:21:03Z</time>
      </trkpt>
      <trkpt lat="48.50207" lon="2.16878">
        <ele>163.2</ele>
        <time>2026-02-02T11:21:04Z</time>
      </trkpt>
      <trkpt lat="48.50203" lon="2.16884">
        <ele>163</ele>
        <time>2026-02-02T11:21:05Z</time>
      </trkpt>
      <trkpt lat="48.50199" lon="2.16891">
        <ele>163</ele>
        <time>2026-02-02T11:21:06Z</time>
      </trkpt>
      <trkpt lat="48.50196" lon="2.16898">
        <ele>163</ele>
        <time>2026-02-02T11:21:07Z</time>
      </trkpt>
      <trkpt lat="48.50193" lon="2.16903">
        <ele>163</ele>
        <time>2026-02-02T11:21:08Z</time>
      </trkpt>
      <trkpt lat="48.50189" lon="2.1691">
        <ele>163</ele>
        <time>2026-02-02T11:21:09Z</time>
      </trkpt>
      <trkpt lat="48.50185" lon="2.16916">
        <ele>163</ele>
        <time>2026-02-02T11:21:10Z</time>
      </trkpt>
      <trkpt lat="48.50181" lon="2.16921">
        <ele>163</ele>
        <time>2026-02-02T11:21:11Z</time>
      </trkpt>
      <trkpt lat="48.50177" lon="2.16927">
        <ele>162.6</ele>
        <time>2026-02-02T11:21:12Z</time>
      </trkpt>
      <trkpt lat="48.50174" lon="2.16933">
        <ele>162.4</ele>
        <time>2026-02-02T11:21:13Z</time>
      </trkpt>
      <trkpt lat="48.5017" lon="2.16938">
        <ele>162.4</ele>
        <time>2026-02-02T11:21:14Z</time>
      </trkpt>
      <trkpt lat="48.50167" lon="2.16944">
        <ele>162.4</ele>
        <time>2026-02-02T11:21:15Z</time>
      </trkpt>
      <trkpt lat="48.50164" lon="2.16949">
        <ele>162</ele>
        <time>2026-02-02T11:21:16Z</time>
      </trkpt>
      <trkpt lat="48.50161" lon="2.16954">
        <ele>162</ele>
        <time>2026-02-02T11:21:17Z</time>
      </trkpt>
      <trkpt lat="48.50158" lon="2.16958">
        <ele>162</ele>
        <time>2026-02-02T11:21:18Z</time>
      </trkpt>
      <trkpt lat="48.50154" lon="2.16962">
        <ele>162</ele>
        <time>2026-02-02T11:21:19Z</time>
      </trkpt>
      <trkpt lat="48.50149" lon="2.16965">
        <ele>161.4</ele>
        <time>2026-02-02T11:21:20Z</time>
      </trkpt>
      <trkpt lat="48.50144" lon="2.16969">
        <ele>162</ele>
        <time>2026-02-02T11:21:21Z</time>
      </trkpt>
      <trkpt lat="48.50139" lon="2.16972">
        <ele>162</ele>
        <time>2026-02-02T11:21:22Z</time>
      </trkpt>
      <trkpt lat="48.50134" lon="2.16976">
        <ele>162</ele>
        <time>2026-02-02T11:21:23Z</time>
      </trkpt>
      <trkpt lat="48.50128" lon="2.1698">
        <ele>161</ele>
        <time>2026-02-02T11:21:24Z</time>
      </trkpt>
      <trkpt lat="48.50123" lon="2.16983">
        <ele>161.8</ele>
        <time>2026-02-02T11:21:25Z</time>
      </trkpt>
      <trkpt lat="48.50117" lon="2.16987">
        <ele>161.8</ele>
        <time>2026-02-02T11:21:26Z</time>
      </trkpt>
      <trkpt lat="48.50111" lon="2.16991">
        <ele>161.8</ele>
        <time>2026-02-02T11:21:27Z</time>
      </trkpt>
      <trkpt lat="48.50106" lon="2.16995">
        <ele>161</ele>
        <time>2026-02-02T11:21:28Z</time>
      </trkpt>
      <trkpt lat="48.501" lon="2.16999">
        <ele>160.6</ele>
        <time>2026-02-02T11:21:29Z</time>
      </trkpt>
      <trkpt lat="48.50093" lon="2.17003">
        <ele>160.6</ele>
        <time>2026-02-02T11:21:30Z</time>
      </trkpt>
      <trkpt lat="48.50087" lon="2.17007">
        <ele>160.6</ele>
        <time>2026-02-02T11:21:31Z</time>
      </trkpt>
      <trkpt lat="48.50081" lon="2.17012">
        <ele>160.6</ele>
        <time>2026-02-02T11:21:32Z</time>
      </trkpt>
      <trkpt lat="48.50075" lon="2.17016">
        <ele>160.6</ele>
        <time>2026-02-02T11:21:33Z</time>
      </trkpt>
      <trkpt lat="48.50069" lon="2.1702">
        <ele>160.6</ele>
        <time>2026-02-02T11:21:34Z</time>
      </trkpt>
      <trkpt lat="48.50062" lon="2.17025">
        <ele>160.6</ele>
        <time>2026-02-02T11:21:35Z</time>
      </trkpt>
      <trkpt lat="48.50056" lon="2.17031">
        <ele>159.6</ele>
        <time>2026-02-02T11:21:36Z</time>
      </trkpt>
      <trkpt lat="48.5005" lon="2.17037">
        <ele>158.4</ele>
        <time>2026-02-02T11:21:37Z</time>
      </trkpt>
      <trkpt lat="48.50043" lon="2.17042">
        <ele>158.4</ele>
        <time>2026-02-02T11:21:38Z</time>
      </trkpt>
      <trkpt lat="48.50036" lon="2.17048">
        <ele>158.4</ele>
        <time>2026-02-02T11:21:39Z</time>
      </trkpt>
      <trkpt lat="48.50029" lon="2.17055">
        <ele>157.4</ele>
        <time>2026-02-02T11:21:40Z</time>
      </trkpt>
      <trkpt lat="48.50022" lon="2.17061">
        <ele>155.8</ele>
        <time>2026-02-02T11:21:41Z</time>
      </trkpt>
      <trkpt lat="48.50015" lon="2.17069">
        <ele>155.8</ele>
        <time>2026-02-02T11:21:42Z</time>
      </trkpt>
      <trkpt lat="48.50007" lon="2.17078">
        <ele>155.8</ele>
        <time>2026-02-02T11:21:43Z</time>
      </trkpt>
      <trkpt lat="48.5" lon="2.17088">
        <ele>154.8</ele>
        <time>2026-02-02T11:21:44Z</time>
      </trkpt>
      <trkpt lat="48.49994" lon="2.17099">
        <ele>152</ele>
        <time>2026-02-02T11:21:45Z</time>
      </trkpt>
      <trkpt lat="48.49988" lon="2.17111">
        <ele>152</ele>
        <time>2026-02-02T11:21:46Z</time>
      </trkpt>
      <trkpt lat="48.49982" lon="2.17124">
        <ele>152</ele>
        <time>2026-02-02T11:21:47Z</time>
      </trkpt>
      <trkpt lat="48.49977" lon="2.17138">
        <ele>151</ele>
        <time>2026-02-02T11:21:48Z</time>
      </trkpt>
      <trkpt lat="48.49973" lon="2.17152">
        <ele>148.8</ele>
        <time>2026-02-02T11:21:49Z</time>
      </trkpt>
      <trkpt lat="48.49968" lon="2.17166">
        <ele>148.8</ele>
        <time>2026-02-02T11:21:50Z</time>
      </trkpt>
      <trkpt lat="48.49965" lon="2.1718">
        <ele>148.8</ele>
        <time>2026-02-02T11:21:51Z</time>
      </trkpt>
      <trkpt lat="48.49961" lon="2.17193">
        <ele>147.8</ele>
        <time>2026-02-02T11:21:52Z</time>
      </trkpt>
      <trkpt lat="48.49958" lon="2.17206">
        <ele>145.6</ele>
        <time>2026-02-02T11:21:53Z</time>
      </trkpt>
      <trkpt lat="48.49955" lon="2.17219">
        <ele>145.6</ele>
        <time>2026-02-02T11:21:54Z</time>
      </trkpt>
      <trkpt lat="48.49952" lon="2.1723">
        <ele>145.6</ele>
        <time>2026-02-02T11:21:55Z</time>
      </trkpt>
      <trkpt lat="48.49948" lon="2.17242">
        <ele>144.6</ele>
        <time>2026-02-02T11:21:56Z</time>
      </trkpt>
      <trkpt lat="48.49943" lon="2.17253">
        <ele>143</ele>
        <time>2026-02-02T11:21:57Z</time>
      </trkpt>
      <trkpt lat="48.49938" lon="2.17263">
        <ele>143</ele>
        <time>2026-02-02T11:21:58Z</time>
      </trkpt>
      <trkpt lat="48.49931" lon="2.17273">
        <ele>143</ele>
        <time>2026-02-02T11:21:59Z</time>
      </trkpt>
      <trkpt lat="48.49924" lon="2.17281">
        <ele>143</ele>
        <time>2026-02-02T11:22:00Z</time>
      </trkpt>
      <trkpt lat="48.49918" lon="2.1729">
        <ele>140.4</ele>
        <time>2026-02-02T11:22:01Z</time>
      </trkpt>
      <trkpt lat="48.49911" lon="2.17301">
        <ele>140.4</ele>
        <time>2026-02-02T11:22:02Z</time>
      </trkpt>
      <trkpt lat="48.49904" lon="2.17312">
        <ele>140.4</ele>
        <time>2026-02-02T11:22:03Z</time>
      </trkpt>
      <trkpt lat="48.49897" lon="2.17324">
        <ele>139.4</ele>
        <time>2026-02-02T11:22:04Z</time>
      </trkpt>
      <trkpt lat="48.49889" lon="2.17334">
        <ele>137.4</ele>
        <time>2026-02-02T11:22:05Z</time>
      </trkpt>
      <trkpt lat="48.49881" lon="2.17344">
        <ele>137.4</ele>
        <time>2026-02-02T11:22:06Z</time>
      </trkpt>
      <trkpt lat="48.49873" lon="2.17352">
        <ele>137.4</ele>
        <time>2026-02-02T11:22:07Z</time>
      </trkpt>
      <trkpt lat="48.49866" lon="2.17358">
        <ele>136.4</ele>
        <time>2026-02-02T11:22:08Z</time>
      </trkpt>
      <trkpt lat="48.49859" lon="2.17365">
        <ele>135.6</ele>
        <time>2026-02-02T11:22:09Z</time>
      </trkpt>
      <trkpt lat="48.49852" lon="2.17372">
        <ele>135.6</ele>
        <time>2026-02-02T11:22:10Z</time>
      </trkpt>
      <trkpt lat="48.49846" lon="2.1738">
        <ele>135.6</ele>
        <time>2026-02-02T11:22:11Z</time>
      </trkpt>
      <trkpt lat="48.4984" lon="2.17388">
        <ele>134.6</ele>
        <time>2026-02-02T11:22:12Z</time>
      </trkpt>
      <trkpt lat="48.49834" lon="2.17398">
        <ele>132.8</ele>
        <time>2026-02-02T11:22:13Z</time>
      </trkpt>
      <trkpt lat="48.49829" lon="2.17408">
        <ele>132.8</ele>
        <time>2026-02-02T11:22:14Z</time>
      </trkpt>
      <trkpt lat="48.49824" lon="2.17419">
        <ele>132.8</ele>
        <time>2026-02-02T11:22:15Z</time>
      </trkpt>
      <trkpt lat="48.49818" lon="2.1743">
        <ele>131.8</ele>
        <time>2026-02-02T11:22:16Z</time>
      </trkpt>
      <trkpt lat="48.49813" lon="2.1744">
        <ele>130.4</ele>
        <time>2026-02-02T11:22:17Z</time>
      </trkpt>
      <trkpt lat="48.49808" lon="2.17451">
        <ele>130.4</ele>
        <time>2026-02-02T11:22:18Z</time>
      </trkpt>
      <trkpt lat="48.49803" lon="2.17462">
        <ele>130.4</ele>
        <time>2026-02-02T11:22:19Z</time>
      </trkpt>
      <trkpt lat="48.49798" lon="2.17472">
        <ele>129.4</ele>
        <time>2026-02-02T11:22:20Z</time>
      </trkpt>
      <trkpt lat="48.49793" lon="2.17482">
        <ele>127.4</ele>
        <time>2026-02-02T11:22:21Z</time>
      </trkpt>
      <trkpt lat="48.49788" lon="2.17493">
        <ele>127.4</ele>
        <time>2026-02-02T11:22:22Z</time>
      </trkpt>
      <trkpt lat="48.49783" lon="2.17503">
        <ele>127.4</ele>
        <time>2026-02-02T11:22:23Z</time>
      </trkpt>
      <trkpt lat="48.49778" lon="2.17514">
        <ele>126.4</ele>
        <time>2026-02-02T11:22:24Z</time>
      </trkpt>
      <trkpt lat="48.49773" lon="2.17524">
        <ele>125.4</ele>
        <time>2026-02-02T11:22:25Z</time>
      </trkpt>
      <trkpt lat="48.49768" lon="2.17536">
        <ele>125.4</ele>
        <time>2026-02-02T11:22:26Z</time>
      </trkpt>
      <trkpt lat="48.49762" lon="2.17547">
        <ele>125.4</ele>
        <time>2026-02-02T11:22:27Z</time>
      </trkpt>
      <trkpt lat="48.49757" lon="2.17558">
        <ele>124.4</ele>
        <time>2026-02-02T11:22:28Z</time>
      </trkpt>
      <trkpt lat="48.49751" lon="2.1757">
        <ele>121.8</ele>
        <time>2026-02-02T11:22:29Z</time>
      </trkpt>
      <trkpt lat="48.49746" lon="2.17582">
        <ele>121.8</ele>
        <time>2026-02-02T11:22:30Z</time>
      </trkpt>
      <trkpt lat="48.4974" lon="2.17594">
        <ele>121.8</ele>
        <time>2026-02-02T11:22:31Z</time>
      </trkpt>
      <trkpt lat="48.49734" lon="2.17607">
        <ele>120.8</ele>
        <time>2026-02-02T11:22:32Z</time>
      </trkpt>
      <trkpt lat="48.49728" lon="2.17619">
        <ele>118.6</ele>
        <time>2026-02-02T11:22:33Z</time>
      </trkpt>
      <trkpt lat="48.49723" lon="2.17633">
        <ele>118.6</ele>
        <time>2026-02-02T11:22:34Z</time>
      </trkpt>
      <trkpt lat="48.49718" lon="2.17647">
        <ele>118.6</ele>
        <time>2026-02-02T11:22:35Z</time>
      </trkpt>
      <trkpt lat="48.49714" lon="2.17662">
        <ele>117.6</ele>
        <time>2026-02-02T11:22:36Z</time>
      </trkpt>
      <trkpt lat="48.49711" lon="2.17677">
        <ele>116</ele>
        <time>2026-02-02T11:22:37Z</time>
      </trkpt>
      <trkpt lat="48.49708" lon="2.17692">
        <ele>116</ele>
        <time>2026-02-02T11:22:38Z</time>
      </trkpt>
      <trkpt lat="48.49704" lon="2.17706">
        <ele>116</ele>
        <time>2026-02-02T11:22:39Z</time>
      </trkpt>
      <trkpt lat="48.497" lon="2.17719">
        <ele>115</ele>
        <time>2026-02-02T11:22:40Z</time>
      </trkpt>
      <trkpt lat="48.49695" lon="2.17732">
        <ele>114.2</ele>
        <time>2026-02-02T11:22:41Z</time>
      </trkpt>
      <trkpt lat="48.4969" lon="2.17744">
        <ele>114.2</ele>
        <time>2026-02-02T11:22:42Z</time>
      </trkpt>
      <trkpt lat="48.49685" lon="2.17756">
        <ele>114.2</ele>
        <time>2026-02-02T11:22:43Z</time>
      </trkpt>
      <trkpt lat="48.4968" lon="2.17767">
        <ele>113.2</ele>
        <time>2026-02-02T11:22:44Z</time>
      </trkpt>
      <trkpt lat="48.49675" lon="2.17778">
        <ele>111.8</ele>
        <time>2026-02-02T11:22:45Z</time>
      </trkpt>
      <trkpt lat="48.49669" lon="2.17788">
        <ele>111.8</ele>
        <time>2026-02-02T11:22:46Z</time>
      </trkpt>
      <trkpt lat="48.49664" lon="2.17799">
        <ele>111.8</ele>
        <time>2026-02-02T11:22:47Z</time>
      </trkpt>
      <trkpt lat="48.49659" lon="2.17811">
        <ele>110.8</ele>
        <time>2026-02-02T11:22:48Z</time>
      </trkpt>
      <trkpt lat="48.49653" lon="2.17822">
        <ele>109.6</ele>
        <time>2026-02-02T11:22:49Z</time>
      </trkpt>
      <trkpt lat="48.49648" lon="2.17832">
        <ele>109.6</ele>
        <time>2026-02-02T11:22:50Z</time>
      </trkpt>
      <trkpt lat="48.49643" lon="2.17843">
        <ele>109.6</ele>
        <time>2026-02-02T11:22:51Z</time>
      </trkpt>
      <trkpt lat="48.49637" lon="2.17854">
        <ele>109</ele>
        <time>2026-02-02T11:22:52Z</time>
      </trkpt>
      <trkpt lat="48.49632" lon="2.17865">
        <ele>108</ele>
        <time>2026-02-02T11:22:53Z</time>
      </trkpt>
      <trkpt lat="48.49628" lon="2.17875">
        <ele>108</ele>
        <time>2026-02-02T11:22:54Z</time>
      </trkpt>
      <trkpt lat="48.49623" lon="2.17884">
        <ele>108</ele>
        <time>2026-02-02T11:22:55Z</time>
      </trkpt>
      <trkpt lat="48.49618" lon="2.17894">
        <ele>107</ele>
        <time>2026-02-02T11:22:56Z</time>
      </trkpt>
      <trkpt lat="48.49614" lon="2.17904">
        <ele>106.6</ele>
        <time>2026-02-02T11:22:57Z</time>
      </trkpt>
      <trkpt lat="48.49609" lon="2.17914">
        <ele>106.6</ele>
        <time>2026-02-02T11:22:58Z</time>
      </trkpt>
      <trkpt lat="48.49604" lon="2.17925">
        <ele>106.6</ele>
        <time>2026-02-02T11:22:59Z</time>
      </trkpt>
      <trkpt lat="48.49599" lon="2.17935">
        <ele>105.6</ele>
        <time>2026-02-02T11:23:00Z</time>
      </trkpt>
      <trkpt lat="48.49595" lon="2.17946">
        <ele>105.2</ele>
        <time>2026-02-02T11:23:01Z</time>
      </trkpt>
      <trkpt lat="48.49589" lon="2.17957">
        <ele>105.2</ele>
        <time>2026-02-02T11:23:02Z</time>
      </trkpt>
      <trkpt lat="48.49584" lon="2.17968">
        <ele>105.2</ele>
        <time>2026-02-02T11:23:03Z</time>
      </trkpt>
      <trkpt lat="48.49579" lon="2.17979">
        <ele>104.2</ele>
        <time>2026-02-02T11:23:04Z</time>
      </trkpt>
      <trkpt lat="48.49574" lon="2.17991">
        <ele>102.8</ele>
        <time>2026-02-02T11:23:05Z</time>
      </trkpt>
      <trkpt lat="48.49569" lon="2.18001">
        <ele>102.8</ele>
        <time>2026-02-02T11:23:06Z</time>
      </trkpt>
      <trkpt lat="48.49565" lon="2.18012">
        <ele>102.8</ele>
        <time>2026-02-02T11:23:07Z</time>
      </trkpt>
      <trkpt lat="48.4956" lon="2.18022">
        <ele>102.8</ele>
        <time>2026-02-02T11:23:08Z</time>
      </trkpt>
      <trkpt lat="48.49556" lon="2.18031">
        <ele>101</ele>
        <time>2026-02-02T11:23:09Z</time>
      </trkpt>
      <trkpt lat="48.49552" lon="2.18041">
        <ele>101</ele>
        <time>2026-02-02T11:23:10Z</time>
      </trkpt>
      <trkpt lat="48.49548" lon="2.18051">
        <ele>101</ele>
        <time>2026-02-02T11:23:11Z</time>
      </trkpt>
      <trkpt lat="48.49544" lon="2.18059">
        <ele>100</ele>
        <time>2026-02-02T11:23:12Z</time>
      </trkpt>
      <trkpt lat="48.49541" lon="2.18065">
        <ele>99.2</ele>
        <time>2026-02-02T11:23:13Z</time>
      </trkpt>
      <trkpt lat="48.49536" lon="2.18069">
        <ele>99.2</ele>
        <time>2026-02-02T11:23:14Z</time>
      </trkpt>
      <trkpt lat="48.49531" lon="2.18073">
        <ele>99.2</ele>
        <time>2026-02-02T11:23:15Z</time>
      </trkpt>
      <trkpt lat="48.49526" lon="2.18078">
        <ele>98.4</ele>
        <time>2026-02-02T11:23:16Z</time>
      </trkpt>
      <trkpt lat="48.49524" lon="2.18084">
        <ele>98.6</ele>
        <time>2026-02-02T11:23:17Z</time>
      </trkpt>
      <trkpt lat="48.49524" lon="2.18091">
        <ele>98.6</ele>
        <time>2026-02-02T11:23:18Z</time>
      </trkpt>
      <trkpt lat="48.49524" lon="2.18098">
        <ele>98.6</ele>
        <time>2026-02-02T11:23:19Z</time>
      </trkpt>
      <trkpt lat="48.49523" lon="2.18105">
        <ele>98.6</ele>
        <time>2026-02-02T11:23:20Z</time>
      </trkpt>
      <trkpt lat="48.49523" lon="2.18113">
        <ele>98.4</ele>
        <time>2026-02-02T11:23:21Z</time>
      </trkpt>
      <trkpt lat="48.49521" lon="2.1812">
        <ele>98.4</ele>
        <time>2026-02-02T11:23:22Z</time>
      </trkpt>
      <trkpt lat="48.49519" lon="2.18128">
        <ele>98.4</ele>
        <time>2026-02-02T11:23:23Z</time>
      </trkpt>
      <trkpt lat="48.49517" lon="2.18136">
        <ele>97.8</ele>
        <time>2026-02-02T11:23:24Z</time>
      </trkpt>
      <trkpt lat="48.49514" lon="2.18144">
        <ele>97.4</ele>
        <time>2026-02-02T11:23:25Z</time>
      </trkpt>
      <trkpt lat="48.49512" lon="2.18153">
        <ele>97.4</ele>
        <time>2026-02-02T11:23:26Z</time>
      </trkpt>
      <trkpt lat="48.49509" lon="2.18161">
        <ele>97.4</ele>
        <time>2026-02-02T11:23:27Z</time>
      </trkpt>
      <trkpt lat="48.49506" lon="2.1817">
        <ele>97.4</ele>
        <time>2026-02-02T11:23:28Z</time>
      </trkpt>
      <trkpt lat="48.49502" lon="2.18178">
        <ele>97</ele>
        <time>2026-02-02T11:23:29Z</time>
      </trkpt>
      <trkpt lat="48.49499" lon="2.18186">
        <ele>97</ele>
        <time>2026-02-02T11:23:30Z</time>
      </trkpt>
      <trkpt lat="48.49495" lon="2.18194">
        <ele>97</ele>
        <time>2026-02-02T11:23:31Z</time>
      </trkpt>
      <trkpt lat="48.49491" lon="2.18202">
        <ele>97</ele>
        <time>2026-02-02T11:23:32Z</time>
      </trkpt>
      <trkpt lat="48.49488" lon="2.1821">
        <ele>96.6</ele>
        <time>2026-02-02T11:23:33Z</time>
      </trkpt>
      <trkpt lat="48.49484" lon="2.18218">
        <ele>96.6</ele>
        <time>2026-02-02T11:23:34Z</time>
      </trkpt>
      <trkpt lat="48.49479" lon="2.18225">
        <ele>96.6</ele>
        <time>2026-02-02T11:23:35Z</time>
      </trkpt>
      <trkpt lat="48.49476" lon="2.18233">
        <ele>96.6</ele>
        <time>2026-02-02T11:23:36Z</time>
      </trkpt>
      <trkpt lat="48.49471" lon="2.1824">
        <ele>96.4</ele>
        <time>2026-02-02T11:23:37Z</time>
      </trkpt>
      <trkpt lat="48.49467" lon="2.18248">
        <ele>96.4</ele>
        <time>2026-02-02T11:23:38Z</time>
      </trkpt>
      <trkpt lat="48.49463" lon="2.18255">
        <ele>96.4</ele>
        <time>2026-02-02T11:23:39Z</time>
      </trkpt>
      <trkpt lat="48.49459" lon="2.18263">
        <ele>96.6</ele>
        <time>2026-02-02T11:23:40Z</time>
      </trkpt>
      <trkpt lat="48.49455" lon="2.1827">
        <ele>96.4</ele>
        <time>2026-02-02T11:23:41Z</time>
      </trkpt>
      <trkpt lat="48.49451" lon="2.18278">
        <ele>96.4</ele>
        <time>2026-02-02T11:23:42Z</time>
      </trkpt>
      <trkpt lat="48.49447" lon="2.18286">
        <ele>96.4</ele>
        <time>2026-02-02T11:23:43Z</time>
      </trkpt>
      <trkpt lat="48.49443" lon="2.18294">
        <ele>96.4</ele>
        <time>2026-02-02T11:23:44Z</time>
      </trkpt>
      <trkpt lat="48.4944" lon="2.18302">
        <ele>96.2</ele>
        <time>2026-02-02T11:23:45Z</time>
      </trkpt>
      <trkpt lat="48.49436" lon="2.1831">
        <ele>96.2</ele>
        <time>2026-02-02T11:23:46Z</time>
      </trkpt>
      <trkpt lat="48.49433" lon="2.18318">
        <ele>96.2</ele>
        <time>2026-02-02T11:23:47Z</time>
      </trkpt>
      <trkpt lat="48.49429" lon="2.18326">
        <ele>96</ele>
        <time>2026-02-02T11:23:48Z</time>
      </trkpt>
      <trkpt lat="48.49426" lon="2.18334">
        <ele>96</ele>
        <time>2026-02-02T11:23:49Z</time>
      </trkpt>
      <trkpt lat="48.49422" lon="2.18342">
        <ele>96</ele>
        <time>2026-02-02T11:23:50Z</time>
      </trkpt>
      <trkpt lat="48.49419" lon="2.1835">
        <ele>96</ele>
        <time>2026-02-02T11:23:51Z</time>
      </trkpt>
      <trkpt lat="48.49415" lon="2.18358">
        <ele>96</ele>
        <time>2026-02-02T11:23:52Z</time>
      </trkpt>
      <trkpt lat="48.49412" lon="2.18366">
        <ele>96</ele>
        <time>2026-02-02T11:23:53Z</time>
      </trkpt>
      <trkpt lat="48.49409" lon="2.18373">
        <ele>96</ele>
        <time>2026-02-02T11:23:54Z</time>
      </trkpt>
      <trkpt lat="48.49406" lon="2.18381">
        <ele>96</ele>
        <time>2026-02-02T11:23:55Z</time>
      </trkpt>
      <trkpt lat="48.49403" lon="2.18389">
        <ele>96</ele>
        <time>2026-02-02T11:23:56Z</time>
      </trkpt>
      <trkpt lat="48.494" lon="2.18397">
        <ele>95.8</ele>
        <time>2026-02-02T11:23:57Z</time>
      </trkpt>
      <trkpt lat="48.49397" lon="2.18405">
        <ele>95.8</ele>
        <time>2026-02-02T11:23:58Z</time>
      </trkpt>
      <trkpt lat="48.49394" lon="2.18413">
        <ele>95.8</ele>
        <time>2026-02-02T11:23:59Z</time>
      </trkpt>
      <trkpt lat="48.49391" lon="2.18422">
        <ele>95</ele>
        <time>2026-02-02T11:24:00Z</time>
      </trkpt>
      <trkpt lat="48.49388" lon="2.18431">
        <ele>94.6</ele>
        <time>2026-02-02T11:24:01Z</time>
      </trkpt>
      <trkpt lat="48.49385" lon="2.1844">
        <ele>94.6</ele>
        <time>2026-02-02T11:24:02Z</time>
      </trkpt>
      <trkpt lat="48.49382" lon="2.18449">
        <ele>94.6</ele>
        <time>2026-02-02T11:24:03Z</time>
      </trkpt>
      <trkpt lat="48.4938" lon="2.18458">
        <ele>94.6</ele>
        <time>2026-02-02T11:24:04Z</time>
      </trkpt>
      <trkpt lat="48.49377" lon="2.18468">
        <ele>93.4</ele>
        <time>2026-02-02T11:24:05Z</time>
      </trkpt>
      <trkpt lat="48.49375" lon="2.18477">
        <ele>93.4</ele>
        <time>2026-02-02T11:24:06Z</time>
      </trkpt>
      <trkpt lat="48.49372" lon="2.18486">
        <ele>93.4</ele>
        <time>2026-02-02T11:24:07Z</time>
      </trkpt>
      <trkpt lat="48.4937" lon="2.18496">
        <ele>93.4</ele>
        <time>2026-02-02T11:24:08Z</time>
      </trkpt>
      <trkpt lat="48.49369" lon="2.18505">
        <ele>92.6</ele>
        <time>2026-02-02T11:24:09Z</time>
      </trkpt>
      <trkpt lat="48.49367" lon="2.18515">
        <ele>92.6</ele>
        <time>2026-02-02T11:24:10Z</time>
      </trkpt>
      <trkpt lat="48.49365" lon="2.18524">
        <ele>92.6</ele>
        <time>2026-02-02T11:24:11Z</time>
      </trkpt>
      <trkpt lat="48.49363" lon="2.18533">
        <ele>92.6</ele>
        <time>2026-02-02T11:24:12Z</time>
      </trkpt>
      <trkpt lat="48.49362" lon="2.18542">
        <ele>92.8</ele>
        <time>2026-02-02T11:24:13Z</time>
      </trkpt>
      <trkpt lat="48.4936" lon="2.18549">
        <ele>92.8</ele>
        <time>2026-02-02T11:24:14Z</time>
      </trkpt>
      <trkpt lat="48.49358" lon="2.18554">
        <ele>92.8</ele>
        <time>2026-02-02T11:24:15Z</time>
      </trkpt>
      <trkpt lat="48.49357" lon="2.18557">
        <ele>92.6</ele>
        <time>2026-02-02T11:24:16Z</time>
      </trkpt>
      <trkpt lat="48.49355" lon="2.1856">
        <ele>92.6</ele>
        <time>2026-02-02T11:24:17Z</time>
      </trkpt>
      <trkpt lat="48.49353" lon="2.18562">
        <ele>92.6</ele>
        <time>2026-02-02T11:24:18Z</time>
      </trkpt>
      <trkpt lat="48.4935" lon="2.18564">
        <ele>92.6</ele>
        <time>2026-02-02T11:24:19Z</time>
      </trkpt>
      <trkpt lat="48.49346" lon="2.18565">
        <ele>92.4</ele>
        <time>2026-02-02T11:24:20Z</time>
      </trkpt>
      <trkpt lat="48.49342" lon="2.18567">
        <ele>91.8</ele>
        <time>2026-02-02T11:24:21Z</time>
      </trkpt>
      <trkpt lat="48.49338" lon="2.18569">
        <ele>91.8</ele>
        <time>2026-02-02T11:24:22Z</time>
      </trkpt>
      <trkpt lat="48.49333" lon="2.18572">
        <ele>91.8</ele>
        <time>2026-02-02T11:24:23Z</time>
      </trkpt>
      <trkpt lat="48.49328" lon="2.18574">
        <ele>91.8</ele>
        <time>2026-02-02T11:24:24Z</time>
      </trkpt>
      <trkpt lat="48.49323" lon="2.18577">
        <ele>91</ele>
        <time>2026-02-02T11:24:25Z</time>
      </trkpt>
      <trkpt lat="48.49317" lon="2.1858">
        <ele>91</ele>
        <time>2026-02-02T11:24:26Z</time>
      </trkpt>
      <trkpt lat="48.49311" lon="2.18583">
        <ele>91</ele>
        <time>2026-02-02T11:24:27Z</time>
      </trkpt>
      <trkpt lat="48.49305" lon="2.18586">
        <ele>91</ele>
        <time>2026-02-02T11:24:28Z</time>
      </trkpt>
      <trkpt lat="48.49299" lon="2.18588">
        <ele>90</ele>
        <time>2026-02-02T11:24:29Z</time>
      </trkpt>
      <trkpt lat="48.49292" lon="2.1859">
        <ele>90</ele>
        <time>2026-02-02T11:24:30Z</time>
      </trkpt>
      <trkpt lat="48.49286" lon="2.18592">
        <ele>90</ele>
        <time>2026-02-02T11:24:31Z</time>
      </trkpt>
      <trkpt lat="48.49279" lon="2.18595">
        <ele>89.2</ele>
        <time>2026-02-02T11:24:32Z</time>
      </trkpt>
      <trkpt lat="48.49273" lon="2.18598">
        <ele>89</ele>
        <time>2026-02-02T11:24:33Z</time>
      </trkpt>
      <trkpt lat="48.49266" lon="2.18602">
        <ele>89</ele>
        <time>2026-02-02T11:24:34Z</time>
      </trkpt>
      <trkpt lat="48.4926" lon="2.18606">
        <ele>89</ele>
        <time>2026-02-02T11:24:35Z</time>
      </trkpt>
      <trkpt lat="48.49253" lon="2.1861">
        <ele>89</ele>
        <time>2026-02-02T11:24:36Z</time>
      </trkpt>
      <trkpt lat="48.49247" lon="2.18614">
        <ele>87.8</ele>
        <time>2026-02-02T11:24:37Z</time>
      </trkpt>
      <trkpt lat="48.4924" lon="2.18618">
        <ele>87.8</ele>
        <time>2026-02-02T11:24:38Z</time>
      </trkpt>
      <trkpt lat="48.49234" lon="2.18622">
        <ele>87.8</ele>
        <time>2026-02-02T11:24:39Z</time>
      </trkpt>
      <trkpt lat="48.49227" lon="2.18625">
        <ele>87.8</ele>
        <time>2026-02-02T11:24:40Z</time>
      </trkpt>
      <trkpt lat="48.49221" lon="2.18629">
        <ele>87.2</ele>
        <time>2026-02-02T11:24:41Z</time>
      </trkpt>
      <trkpt lat="48.49214" lon="2.18632">
        <ele>87.2</ele>
        <time>2026-02-02T11:24:42Z</time>
      </trkpt>
      <trkpt lat="48.49209" lon="2.18636">
        <ele>87.2</ele>
        <time>2026-02-02T11:24:43Z</time>
      </trkpt>
      <trkpt lat="48.49204" lon="2.1864">
        <ele>87.2</ele>
        <time>2026-02-02T11:24:44Z</time>
      </trkpt>
      <trkpt lat="48.49199" lon="2.18643">
        <ele>86.8</ele>
        <time>2026-02-02T11:24:45Z</time>
      </trkpt>
      <trkpt lat="48.49194" lon="2.18647">
        <ele>86.8</ele>
        <time>2026-02-02T11:24:46Z</time>
      </trkpt>
      <trkpt lat="48.49188" lon="2.18651">
        <ele>86.8</ele>
        <time>2026-02-02T11:24:47Z</time>
      </trkpt>
      <trkpt lat="48.49183" lon="2.18655">
        <ele>86</ele>
        <time>2026-02-02T11:24:48Z</time>
      </trkpt>
      <trkpt lat="48.49178" lon="2.18659">
        <ele>86.2</ele>
        <time>2026-02-02T11:24:49Z</time>
      </trkpt>
      <trkpt lat="48.49172" lon="2.18663">
        <ele>86.2</ele>
        <time>2026-02-02T11:24:50Z</time>
      </trkpt>
      <trkpt lat="48.49166" lon="2.18667">
        <ele>86.2</ele>
        <time>2026-02-02T11:24:51Z</time>
      </trkpt>
      <trkpt lat="48.49161" lon="2.18672">
        <ele>85.8</ele>
        <time>2026-02-02T11:24:52Z</time>
      </trkpt>
      <trkpt lat="48.49155" lon="2.18677">
        <ele>85.4</ele>
        <time>2026-02-02T11:24:53Z</time>
      </trkpt>
      <trkpt lat="48.49149" lon="2.18682">
        <ele>85.4</ele>
        <time>2026-02-02T11:24:54Z</time>
      </trkpt>
      <trkpt lat="48.49143" lon="2.18687">
        <ele>85.4</ele>
        <time>2026-02-02T11:24:55Z</time>
      </trkpt>
      <trkpt lat="48.49137" lon="2.18692">
        <ele>85.4</ele>
        <time>2026-02-02T11:24:56Z</time>
      </trkpt>
      <trkpt lat="48.4913" lon="2.18697">
        <ele>84</ele>
        <time>2026-02-02T11:24:57Z</time>
      </trkpt>
      <trkpt lat="48.49124" lon="2.18701">
        <ele>84</ele>
        <time>2026-02-02T11:24:58Z</time>
      </trkpt>
      <trkpt lat="48.49117" lon="2.18705">
        <ele>84</ele>
        <time>2026-02-02T11:24:59Z</time>
      </trkpt>
      <trkpt lat="48.49111" lon="2.18709">
        <ele>84</ele>
        <time>2026-02-02T11:25:00Z</time>
      </trkpt>
      <trkpt lat="48.49105" lon="2.18714">
        <ele>84</ele>
        <time>2026-02-02T11:25:01Z</time>
      </trkpt>
      <trkpt lat="48.49099" lon="2.18719">
        <ele>84</ele>
        <time>2026-02-02T11:25:02Z</time>
      </trkpt>
      <trkpt lat="48.49093" lon="2.18724">
        <ele>84</ele>
        <time>2026-02-02T11:25:03Z</time>
      </trkpt>
      <trkpt lat="48.49086" lon="2.18728">
        <ele>83.2</ele>
        <time>2026-02-02T11:25:04Z</time>
      </trkpt>
      <trkpt lat="48.4908" lon="2.18731">
        <ele>82.8</ele>
        <time>2026-02-02T11:25:05Z</time>
      </trkpt>
      <trkpt lat="48.49073" lon="2.18735">
        <ele>82.8</ele>
        <time>2026-02-02T11:25:06Z</time>
      </trkpt>
      <trkpt lat="48.49066" lon="2.18738">
        <ele>82.8</ele>
        <time>2026-02-02T11:25:07Z</time>
      </trkpt>
      <trkpt lat="48.49059" lon="2.18743">
        <ele>81.8</ele>
        <time>2026-02-02T11:25:08Z</time>
      </trkpt>
      <trkpt lat="48.49052" lon="2.18747">
        <ele>81.6</ele>
        <time>2026-02-02T11:25:09Z</time>
      </trkpt>
      <trkpt lat="48.49046" lon="2.18751">
        <ele>81.6</ele>
        <time>2026-02-02T11:25:10Z</time>
      </trkpt>
      <trkpt lat="48.49039" lon="2.18755">
        <ele>81.6</ele>
        <time>2026-02-02T11:25:11Z</time>
      </trkpt>
      <trkpt lat="48.49032" lon="2.18759">
        <ele>81</ele>
        <time>2026-02-02T11:25:12Z</time>
      </trkpt>
      <trkpt lat="48.49025" lon="2.18764">
        <ele>78.6</ele>
        <time>2026-02-02T11:25:13Z</time>
      </trkpt>
      <trkpt lat="48.49018" lon="2.18769">
        <ele>78.6</ele>
        <time>2026-02-02T11:25:14Z</time>
      </trkpt>
      <trkpt lat="48.49011" lon="2.18774">
        <ele>78.6</ele>
        <time>2026-02-02T11:25:15Z</time>
      </trkpt>
      <trkpt lat="48.49004" lon="2.18779">
        <ele>79.6</ele>
        <time>2026-02-02T11:25:16Z</time>
      </trkpt>
      <trkpt lat="48.48997" lon="2.18784">
        <ele>80.4</ele>
        <time>2026-02-02T11:25:17Z</time>
      </trkpt>
      <trkpt lat="48.48991" lon="2.18788">
        <ele>80.4</ele>
        <time>2026-02-02T11:25:18Z</time>
      </trkpt>
      <trkpt lat="48.48984" lon="2.18792">
        <ele>80.4</ele>
        <time>2026-02-02T11:25:19Z</time>
      </trkpt>
      <trkpt lat="48.48977" lon="2.18795">
        <ele>79.4</ele>
        <time>2026-02-02T11:25:20Z</time>
      </trkpt>
      <trkpt lat="48.4897" lon="2.188">
        <ele>79</ele>
        <time>2026-02-02T11:25:21Z</time>
      </trkpt>
      <trkpt lat="48.48964" lon="2.18805">
        <ele>79</ele>
        <time>2026-02-02T11:25:22Z</time>
      </trkpt>
      <trkpt lat="48.48958" lon="2.18811">
        <ele>79</ele>
        <time>2026-02-02T11:25:23Z</time>
      </trkpt>
      <trkpt lat="48.48952" lon="2.18817">
        <ele>79</ele>
        <time>2026-02-02T11:25:24Z</time>
      </trkpt>
      <trkpt lat="48.48947" lon="2.18824">
        <ele>78.8</ele>
        <time>2026-02-02T11:25:25Z</time>
      </trkpt>
      <trkpt lat="48.48942" lon="2.18832">
        <ele>78.8</ele>
        <time>2026-02-02T11:25:26Z</time>
      </trkpt>
      <trkpt lat="48.48938" lon="2.18841">
        <ele>78.8</ele>
        <time>2026-02-02T11:25:27Z</time>
      </trkpt>
      <trkpt lat="48.48934" lon="2.1885">
        <ele>78.8</ele>
        <time>2026-02-02T11:25:28Z</time>
      </trkpt>
      <trkpt lat="48.48931" lon="2.18858">
        <ele>78.6</ele>
        <time>2026-02-02T11:25:29Z</time>
      </trkpt>
      <trkpt lat="48.48927" lon="2.18866">
        <ele>78.6</ele>
        <time>2026-02-02T11:25:30Z</time>
      </trkpt>
      <trkpt lat="48.48924" lon="2.18873">
        <ele>78.6</ele>
        <time>2026-02-02T11:25:31Z</time>
      </trkpt>
      <trkpt lat="48.48921" lon="2.18877">
        <ele>78.6</ele>
        <time>2026-02-02T11:25:32Z</time>
      </trkpt>
      <trkpt lat="48.48918" lon="2.1888">
        <ele>78.6</ele>
        <time>2026-02-02T11:25:33Z</time>
      </trkpt>
      <trkpt lat="48.48915" lon="2.18881">
        <ele>78.6</ele>
        <time>2026-02-02T11:25:34Z</time>
      </trkpt>
      <trkpt lat="48.48911" lon="2.18881">
        <ele>78.6</ele>
        <time>2026-02-02T11:25:35Z</time>
      </trkpt>
      <trkpt lat="48.48907" lon="2.1888">
        <ele>79</ele>
        <time>2026-02-02T11:25:36Z</time>
      </trkpt>
      <trkpt lat="48.48903" lon="2.18879">
        <ele>78.6</ele>
        <time>2026-02-02T11:25:37Z</time>
      </trkpt>
      <trkpt lat="48.48898" lon="2.18878">
        <ele>78.6</ele>
        <time>2026-02-02T11:25:38Z</time>
      </trkpt>
      <trkpt lat="48.48894" lon="2.18877">
        <ele>78.6</ele>
        <time>2026-02-02T11:25:39Z</time>
      </trkpt>
      <trkpt lat="48.48889" lon="2.18876">
        <ele>78</ele>
        <time>2026-02-02T11:25:40Z</time>
      </trkpt>
      <trkpt lat="48.48883" lon="2.18875">
        <ele>78</ele>
        <time>2026-02-02T11:25:41Z</time>
      </trkpt>
      <trkpt lat="48.48878" lon="2.18875">
        <ele>78</ele>
        <time>2026-02-02T11:25:42Z</time>
      </trkpt>
      <trkpt lat="48.48873" lon="2.18875">
        <ele>78</ele>
        <time>2026-02-02T11:25:43Z</time>
      </trkpt>
      <trkpt lat="48.48867" lon="2.18874">
        <ele>78</ele>
        <time>2026-02-02T11:25:44Z</time>
      </trkpt>
      <trkpt lat="48.48862" lon="2.18875">
        <ele>77.8</ele>
        <time>2026-02-02T11:25:45Z</time>
      </trkpt>
      <trkpt lat="48.48856" lon="2.18875">
        <ele>77.8</ele>
        <time>2026-02-02T11:25:46Z</time>
      </trkpt>
      <trkpt lat="48.48851" lon="2.18876">
        <ele>77.8</ele>
        <time>2026-02-02T11:25:47Z</time>
      </trkpt>
      <trkpt lat="48.48845" lon="2.18877">
        <ele>78.4</ele>
        <time>2026-02-02T11:25:48Z</time>
      </trkpt>
      <trkpt lat="48.4884" lon="2.18878">
        <ele>78.2</ele>
        <time>2026-02-02T11:25:49Z</time>
      </trkpt>
      <trkpt lat="48.48835" lon="2.18879">
        <ele>78.2</ele>
        <time>2026-02-02T11:25:50Z</time>
      </trkpt>
      <trkpt lat="48.48829" lon="2.18879">
        <ele>78.2</ele>
        <time>2026-02-02T11:25:51Z</time>
      </trkpt>
      <trkpt lat="48.48824" lon="2.1888">
        <ele>78.4</ele>
        <time>2026-02-02T11:25:52Z</time>
      </trkpt>
      <trkpt lat="48.48819" lon="2.18881">
        <ele>78.6</ele>
        <time>2026-02-02T11:25:53Z</time>
      </trkpt>
      <trkpt lat="48.48814" lon="2.18884">
        <ele>78.6</ele>
        <time>2026-02-02T11:25:54Z</time>
      </trkpt>
      <trkpt lat="48.48809" lon="2.18889">
        <ele>78.6</ele>
        <time>2026-02-02T11:25:55Z</time>
      </trkpt>
      <trkpt lat="48.48806" lon="2.18896">
        <ele>78.6</ele>
        <time>2026-02-02T11:25:56Z</time>
      </trkpt>
      <trkpt lat="48.48802" lon="2.18902">
        <ele>78.6</ele>
        <time>2026-02-02T11:25:57Z</time>
      </trkpt>
      <trkpt lat="48.48798" lon="2.18906">
        <ele>78.6</ele>
        <time>2026-02-02T11:25:58Z</time>
      </trkpt>
      <trkpt lat="48.48793" lon="2.1891">
        <ele>78.6</ele>
        <time>2026-02-02T11:25:59Z</time>
      </trkpt>
      <trkpt lat="48.48788" lon="2.18914">
        <ele>78.6</ele>
        <time>2026-02-02T11:26:00Z</time>
      </trkpt>
      <trkpt lat="48.48784" lon="2.18918">
        <ele>78.6</ele>
        <time>2026-02-02T11:26:01Z</time>
      </trkpt>
      <trkpt lat="48.48779" lon="2.18922">
        <ele>78.6</ele>
        <time>2026-02-02T11:26:02Z</time>
      </trkpt>
      <trkpt lat="48.48774" lon="2.18925">
        <ele>78.6</ele>
        <time>2026-02-02T11:26:03Z</time>
      </trkpt>
      <trkpt lat="48.48769" lon="2.18928">
        <ele>79.6</ele>
        <time>2026-02-02T11:26:04Z</time>
      </trkpt>
      <trkpt lat="48.48764" lon="2.18931">
        <ele>79.8</ele>
        <time>2026-02-02T11:26:05Z</time>
      </trkpt>
      <trkpt lat="48.48759" lon="2.18934">
        <ele>79.8</ele>
        <time>2026-02-02T11:26:06Z</time>
      </trkpt>
      <trkpt lat="48.48754" lon="2.18936">
        <ele>79.8</ele>
        <time>2026-02-02T11:26:07Z</time>
      </trkpt>
      <trkpt lat="48.48749" lon="2.18939">
        <ele>79.2</ele>
        <time>2026-02-02T11:26:08Z</time>
      </trkpt>
      <trkpt lat="48.48744" lon="2.18942">
        <ele>79.8</ele>
        <time>2026-02-02T11:26:09Z</time>
      </trkpt>
      <trkpt lat="48.4874" lon="2.18945">
        <ele>79.8</ele>
        <time>2026-02-02T11:26:10Z</time>
      </trkpt>
      <trkpt lat="48.48735" lon="2.18948">
        <ele>79.8</ele>
        <time>2026-02-02T11:26:11Z</time>
      </trkpt>
      <trkpt lat="48.48731" lon="2.1895">
        <ele>79.8</ele>
        <time>2026-02-02T11:26:12Z</time>
      </trkpt>
      <trkpt lat="48.48726" lon="2.18953">
        <ele>80</ele>
        <time>2026-02-02T11:26:13Z</time>
      </trkpt>
      <trkpt lat="48.48721" lon="2.18956">
        <ele>80</ele>
        <time>2026-02-02T11:26:14Z</time>
      </trkpt>
      <trkpt lat="48.48716" lon="2.18959">
        <ele>80</ele>
        <time>2026-02-02T11:26:15Z</time>
      </trkpt>
      <trkpt lat="48.48712" lon="2.18962">
        <ele>80</ele>
        <time>2026-02-02T11:26:16Z</time>
      </trkpt>
      <trkpt lat="48.48707" lon="2.18964">
        <ele>80.4</ele>
        <time>2026-02-02T11:26:17Z</time>
      </trkpt>
      <trkpt lat="48.48702" lon="2.18967">
        <ele>80.4</ele>
        <time>2026-02-02T11:26:18Z</time>
      </trkpt>
      <trkpt lat="48.48698" lon="2.18969">
        <ele>80.4</ele>
        <time>2026-02-02T11:26:19Z</time>
      </trkpt>
      <trkpt lat="48.48693" lon="2.18972">
        <ele>80.4</ele>
        <time>2026-02-02T11:26:20Z</time>
      </trkpt>
      <trkpt lat="48.48689" lon="2.18975">
        <ele>80.2</ele>
        <time>2026-02-02T11:26:21Z</time>
      </trkpt>
      <trkpt lat="48.48684" lon="2.18977">
        <ele>80.2</ele>
        <time>2026-02-02T11:26:22Z</time>
      </trkpt>
      <trkpt lat="48.48679" lon="2.18981">
        <ele>80.2</ele>
        <time>2026-02-02T11:26:23Z</time>
      </trkpt>
      <trkpt lat="48.48674" lon="2.18984">
        <ele>80.2</ele>
        <time>2026-02-02T11:26:24Z</time>
      </trkpt>
      <trkpt lat="48.48669" lon="2.18987">
        <ele>80.4</ele>
        <time>2026-02-02T11:26:25Z</time>
      </trkpt>
      <trkpt lat="48.48665" lon="2.18991">
        <ele>80.4</ele>
        <time>2026-02-02T11:26:26Z</time>
      </trkpt>
      <trkpt lat="48.4866" lon="2.18994">
        <ele>80.4</ele>
        <time>2026-02-02T11:26:27Z</time>
      </trkpt>
      <trkpt lat="48.48655" lon="2.18998">
        <ele>79.8</ele>
        <time>2026-02-02T11:26:28Z</time>
      </trkpt>
      <trkpt lat="48.4865" lon="2.19002">
        <ele>79.8</ele>
        <time>2026-02-02T11:26:29Z</time>
      </trkpt>
      <trkpt lat="48.48646" lon="2.19006">
        <ele>79.8</ele>
        <time>2026-02-02T11:26:30Z</time>
      </trkpt>
      <trkpt lat="48.48641" lon="2.1901">
        <ele>79.8</ele>
        <time>2026-02-02T11:26:31Z</time>
      </trkpt>
      <trkpt lat="48.48636" lon="2.19015">
        <ele>79.8</ele>
        <time>2026-02-02T11:26:32Z</time>
      </trkpt>
      <trkpt lat="48.48631" lon="2.1902">
        <ele>79.8</ele>
        <time>2026-02-02T11:26:33Z</time>
      </trkpt>
      <trkpt lat="48.48627" lon="2.19025">
        <ele>79.8</ele>
        <time>2026-02-02T11:26:34Z</time>
      </trkpt>
      <trkpt lat="48.48622" lon="2.1903">
        <ele>79.8</ele>
        <time>2026-02-02T11:26:35Z</time>
      </trkpt>
      <trkpt lat="48.48617" lon="2.19035">
        <ele>79.8</ele>
        <time>2026-02-02T11:26:36Z</time>
      </trkpt>
      <trkpt lat="48.48613" lon="2.19041">
        <ele>79.2</ele>
        <time>2026-02-02T11:26:37Z</time>
      </trkpt>
      <trkpt lat="48.48608" lon="2.19046">
        <ele>79.2</ele>
        <time>2026-02-02T11:26:38Z</time>
      </trkpt>
      <trkpt lat="48.48603" lon="2.19052">
        <ele>79.2</ele>
        <time>2026-02-02T11:26:39Z</time>
      </trkpt>
      <trkpt lat="48.48598" lon="2.19058">
        <ele>79</ele>
        <time>2026-02-02T11:26:40Z</time>
      </trkpt>
      <trkpt lat="48.48593" lon="2.19064">
        <ele>78.8</ele>
        <time>2026-02-02T11:26:41Z</time>
      </trkpt>
      <trkpt lat="48.48589" lon="2.19069">
        <ele>78.8</ele>
        <time>2026-02-02T11:26:42Z</time>
      </trkpt>
      <trkpt lat="48.48586" lon="2.19073">
        <ele>78.8</ele>
        <time>2026-02-02T11:26:43Z</time>
      </trkpt>
      <trkpt lat="48.48581" lon="2.19079">
        <ele>78.8</ele>
        <time>2026-02-02T11:26:44Z</time>
      </trkpt>
      <trkpt lat="48.48577" lon="2.19087">
        <ele>78.2</ele>
        <time>2026-02-02T11:26:45Z</time>
      </trkpt>
      <trkpt lat="48.48574" lon="2.19096">
        <ele>78.2</ele>
        <time>2026-02-02T11:26:46Z</time>
      </trkpt>
      <trkpt lat="48.48569" lon="2.19102">
        <ele>78.2</ele>
        <time>2026-02-02T11:26:47Z</time>
      </trkpt>
      <trkpt lat="48.48568" lon="2.19103">
        <ele>78.2</ele>
        <time>2026-02-02T11:26:48Z</time>
      </trkpt>
      <trkpt lat="48.48561" lon="2.19109">
        <ele>78.6</ele>
        <time>2026-02-02T11:26:49Z</time>
      </trkpt>
      <trkpt lat="48.48554" lon="2.19113">
        <ele>78.6</ele>
        <time>2026-02-02T11:26:50Z</time>
      </trkpt>
      <trkpt lat="48.48548" lon="2.19118">
        <ele>78.6</ele>
        <time>2026-02-02T11:26:51Z</time>
      </trkpt>
      <trkpt lat="48.48542" lon="2.19123">
        <ele>78.6</ele>
        <time>2026-02-02T11:26:52Z</time>
      </trkpt>
      <trkpt lat="48.48536" lon="2.1913">
        <ele>79.4</ele>
        <time>2026-02-02T11:26:53Z</time>
      </trkpt>
      <trkpt lat="48.48531" lon="2.19135">
        <ele>79.4</ele>
        <time>2026-02-02T11:26:54Z</time>
      </trkpt>
      <trkpt lat="48.48526" lon="2.1914">
        <ele>79.4</ele>
        <time>2026-02-02T11:26:55Z</time>
      </trkpt>
      <trkpt lat="48.4852" lon="2.19145">
        <ele>79.4</ele>
        <time>2026-02-02T11:26:56Z</time>
      </trkpt>
      <trkpt lat="48.48514" lon="2.19148">
        <ele>79</ele>
        <time>2026-02-02T11:26:57Z</time>
      </trkpt>
      <trkpt lat="48.48509" lon="2.19153">
        <ele>79</ele>
        <time>2026-02-02T11:26:58Z</time>
      </trkpt>
      <trkpt lat="48.48504" lon="2.19161">
        <ele>79</ele>
        <time>2026-02-02T11:26:59Z</time>
      </trkpt>
      <trkpt lat="48.48502" lon="2.19169">
        <ele>79</ele>
        <time>2026-02-02T11:27:00Z</time>
      </trkpt>
      <trkpt lat="48.48501" lon="2.19179">
        <ele>79.2</ele>
        <time>2026-02-02T11:27:01Z</time>
      </trkpt>
      <trkpt lat="48.48501" lon="2.19189">
        <ele>79.2</ele>
        <time>2026-02-02T11:27:02Z</time>
      </trkpt>
      <trkpt lat="48.48503" lon="2.19199">
        <ele>79.2</ele>
        <time>2026-02-02T11:27:03Z</time>
      </trkpt>
      <trkpt lat="48.48506" lon="2.19208">
        <ele>79.2</ele>
        <time>2026-02-02T11:27:04Z</time>
      </trkpt>
      <trkpt lat="48.4851" lon="2.19217">
        <ele>78</ele>
        <time>2026-02-02T11:27:05Z</time>
      </trkpt>
      <trkpt lat="48.48512" lon="2.19228">
        <ele>78</ele>
        <time>2026-02-02T11:27:06Z</time>
      </trkpt>
      <trkpt lat="48.48515" lon="2.19238">
        <ele>78</ele>
        <time>2026-02-02T11:27:07Z</time>
      </trkpt>
      <trkpt lat="48.48517" lon="2.19249">
        <ele>77</ele>
        <time>2026-02-02T11:27:08Z</time>
      </trkpt>
      <trkpt lat="48.48519" lon="2.1926">
        <ele>76.4</ele>
        <time>2026-02-02T11:27:09Z</time>
      </trkpt>
      <trkpt lat="48.48519" lon="2.19272">
        <ele>76.4</ele>
        <time>2026-02-02T11:27:10Z</time>
      </trkpt>
      <trkpt lat="48.48518" lon="2.19284">
        <ele>76.4</ele>
        <time>2026-02-02T11:27:11Z</time>
      </trkpt>
      <trkpt lat="48.48517" lon="2.19296">
        <ele>75.6</ele>
        <time>2026-02-02T11:27:12Z</time>
      </trkpt>
      <trkpt lat="48.48515" lon="2.19308">
        <ele>74.8</ele>
        <time>2026-02-02T11:27:13Z</time>
      </trkpt>
      <trkpt lat="48.48513" lon="2.1932">
        <ele>74.8</ele>
        <time>2026-02-02T11:27:14Z</time>
      </trkpt>
      <trkpt lat="48.48511" lon="2.19332">
        <ele>74.8</ele>
        <time>2026-02-02T11:27:15Z</time>
      </trkpt>
      <trkpt lat="48.48509" lon="2.19345">
        <ele>73.8</ele>
        <time>2026-02-02T11:27:16Z</time>
      </trkpt>
      <trkpt lat="48.48508" lon="2.19357">
        <ele>73.6</ele>
        <time>2026-02-02T11:27:17Z</time>
      </trkpt>
      <trkpt lat="48.48506" lon="2.19369">
        <ele>73.6</ele>
        <time>2026-02-02T11:27:18Z</time>
      </trkpt>
      <trkpt lat="48.48504" lon="2.19382">
        <ele>73.6</ele>
        <time>2026-02-02T11:27:19Z</time>
      </trkpt>
      <trkpt lat="48.48502" lon="2.19394">
        <ele>72.8</ele>
        <time>2026-02-02T11:27:20Z</time>
      </trkpt>
      <trkpt lat="48.485" lon="2.19405">
        <ele>72.4</ele>
        <time>2026-02-02T11:27:21Z</time>
      </trkpt>
      <trkpt lat="48.48497" lon="2.19416">
        <ele>72.4</ele>
        <time>2026-02-02T11:27:22Z</time>
      </trkpt>
      <trkpt lat="48.48496" lon="2.19427">
        <ele>72.4</ele>
        <time>2026-02-02T11:27:23Z</time>
      </trkpt>
      <trkpt lat="48.48492" lon="2.19437">
        <ele>72.4</ele>
        <time>2026-02-02T11:27:24Z</time>
      </trkpt>
      <trkpt lat="48.4849" lon="2.19446">
        <ele>72.4</ele>
        <time>2026-02-02T11:27:25Z</time>
      </trkpt>
      <trkpt lat="48.48488" lon="2.19457">
        <ele>72.4</ele>
        <time>2026-02-02T11:27:26Z</time>
      </trkpt>
      <trkpt lat="48.48484" lon="2.19466">
        <ele>72.4</ele>
        <time>2026-02-02T11:27:27Z</time>
      </trkpt>
      <trkpt lat="48.48479" lon="2.19473">
        <ele>72.4</ele>
        <time>2026-02-02T11:27:28Z</time>
      </trkpt>
      <trkpt lat="48.48475" lon="2.1948">
        <ele>72.4</ele>
        <time>2026-02-02T11:27:29Z</time>
      </trkpt>
      <trkpt lat="48.48472" lon="2.19489">
        <ele>72.4</ele>
        <time>2026-02-02T11:27:30Z</time>
      </trkpt>
      <trkpt lat="48.48469" lon="2.19498">
        <ele>72.4</ele>
        <time>2026-02-02T11:27:31Z</time>
      </trkpt>
      <trkpt lat="48.48468" lon="2.19509">
        <ele>72.4</ele>
        <time>2026-02-02T11:27:32Z</time>
      </trkpt>
      <trkpt lat="48.48469" lon="2.19519">
        <ele>72.6</ele>
        <time>2026-02-02T11:27:33Z</time>
      </trkpt>
      <trkpt lat="48.4847" lon="2.1953">
        <ele>72.6</ele>
        <time>2026-02-02T11:27:34Z</time>
      </trkpt>
      <trkpt lat="48.48472" lon="2.1954">
        <ele>72.6</ele>
        <time>2026-02-02T11:27:35Z</time>
      </trkpt>
      <trkpt lat="48.48473" lon="2.1955">
        <ele>72.6</ele>
        <time>2026-02-02T11:27:36Z</time>
      </trkpt>
      <trkpt lat="48.48473" lon="2.1956">
        <ele>72</ele>
        <time>2026-02-02T11:27:37Z</time>
      </trkpt>
      <trkpt lat="48.48472" lon="2.1957">
        <ele>72</ele>
        <time>2026-02-02T11:27:38Z</time>
      </trkpt>
      <trkpt lat="48.48471" lon="2.19579">
        <ele>72</ele>
        <time>2026-02-02T11:27:39Z</time>
      </trkpt>
      <trkpt lat="48.48469" lon="2.19589">
        <ele>72.4</ele>
        <time>2026-02-02T11:27:40Z</time>
      </trkpt>
      <trkpt lat="48.48468" lon="2.19599">
        <ele>71.8</ele>
        <time>2026-02-02T11:27:41Z</time>
      </trkpt>
      <trkpt lat="48.48466" lon="2.19609">
        <ele>71.8</ele>
        <time>2026-02-02T11:27:42Z</time>
      </trkpt>
      <trkpt lat="48.48465" lon="2.19618">
        <ele>71.8</ele>
        <time>2026-02-02T11:27:43Z</time>
      </trkpt>
      <trkpt lat="48.48464" lon="2.19628">
        <ele>71.8</ele>
        <time>2026-02-02T11:27:44Z</time>
      </trkpt>
      <trkpt lat="48.48462" lon="2.19638">
        <ele>72</ele>
        <time>2026-02-02T11:27:45Z</time>
      </trkpt>
      <trkpt lat="48.48461" lon="2.19648">
        <ele>72</ele>
        <time>2026-02-02T11:27:46Z</time>
      </trkpt>
      <trkpt lat="48.48459" lon="2.19658">
        <ele>72</ele>
        <time>2026-02-02T11:27:47Z</time>
      </trkpt>
      <trkpt lat="48.48457" lon="2.19667">
        <ele>72</ele>
        <time>2026-02-02T11:27:48Z</time>
      </trkpt>
      <trkpt lat="48.48456" lon="2.19678">
        <ele>71.4</ele>
        <time>2026-02-02T11:27:49Z</time>
      </trkpt>
      <trkpt lat="48.48455" lon="2.19688">
        <ele>71.4</ele>
        <time>2026-02-02T11:27:50Z</time>
      </trkpt>
      <trkpt lat="48.48454" lon="2.19699">
        <ele>71.4</ele>
        <time>2026-02-02T11:27:51Z</time>
      </trkpt>
      <trkpt lat="48.48452" lon="2.19709">
        <ele>71.4</ele>
        <time>2026-02-02T11:27:52Z</time>
      </trkpt>
      <trkpt lat="48.48452" lon="2.19719">
        <ele>71.2</ele>
        <time>2026-02-02T11:27:53Z</time>
      </trkpt>
      <trkpt lat="48.48451" lon="2.1973">
        <ele>71.2</ele>
        <time>2026-02-02T11:27:54Z</time>
      </trkpt>
      <trkpt lat="48.48451" lon="2.1974">
        <ele>71.2</ele>
        <time>2026-02-02T11:27:55Z</time>
      </trkpt>
      <trkpt lat="48.48451" lon="2.19751">
        <ele>71</ele>
        <time>2026-02-02T11:27:56Z</time>
      </trkpt>
      <trkpt lat="48.48451" lon="2.19761">
        <ele>70.6</ele>
        <time>2026-02-02T11:27:57Z</time>
      </trkpt>
      <trkpt lat="48.48452" lon="2.19772">
        <ele>70.6</ele>
        <time>2026-02-02T11:27:58Z</time>
      </trkpt>
      <trkpt lat="48.48453" lon="2.19782">
        <ele>70.6</ele>
        <time>2026-02-02T11:27:59Z</time>
      </trkpt>
      <trkpt lat="48.48454" lon="2.19792">
        <ele>70.8</ele>
        <time>2026-02-02T11:28:00Z</time>
      </trkpt>
      <trkpt lat="48.48455" lon="2.19803">
        <ele>71</ele>
        <time>2026-02-02T11:28:01Z</time>
      </trkpt>
      <trkpt lat="48.48456" lon="2.19813">
        <ele>71</ele>
        <time>2026-02-02T11:28:02Z</time>
      </trkpt>
      <trkpt lat="48.48457" lon="2.19822">
        <ele>71</ele>
        <time>2026-02-02T11:28:03Z</time>
      </trkpt>
      <trkpt lat="48.48458" lon="2.19832">
        <ele>70.6</ele>
        <time>2026-02-02T11:28:04Z</time>
      </trkpt>
      <trkpt lat="48.4846" lon="2.19842">
        <ele>70.8</ele>
        <time>2026-02-02T11:28:05Z</time>
      </trkpt>
      <trkpt lat="48.48462" lon="2.19852">
        <ele>70.8</ele>
        <time>2026-02-02T11:28:06Z</time>
      </trkpt>
      <trkpt lat="48.48463" lon="2.19862">
        <ele>70.8</ele>
        <time>2026-02-02T11:28:07Z</time>
      </trkpt>
      <trkpt lat="48.48465" lon="2.19872">
        <ele>70.8</ele>
        <time>2026-02-02T11:28:08Z</time>
      </trkpt>
      <trkpt lat="48.48466" lon="2.19882">
        <ele>71</ele>
        <time>2026-02-02T11:28:09Z</time>
      </trkpt>
      <trkpt lat="48.48468" lon="2.19891">
        <ele>71</ele>
        <time>2026-02-02T11:28:10Z</time>
      </trkpt>
      <trkpt lat="48.48469" lon="2.19901">
        <ele>71</ele>
        <time>2026-02-02T11:28:11Z</time>
      </trkpt>
      <trkpt lat="48.48471" lon="2.1991">
        <ele>71</ele>
        <time>2026-02-02T11:28:12Z</time>
      </trkpt>
      <trkpt lat="48.48472" lon="2.1992">
        <ele>71</ele>
        <time>2026-02-02T11:28:13Z</time>
      </trkpt>
      <trkpt lat="48.48474" lon="2.19929">
        <ele>71</ele>
        <time>2026-02-02T11:28:14Z</time>
      </trkpt>
      <trkpt lat="48.48476" lon="2.19938">
        <ele>71</ele>
        <time>2026-02-02T11:28:15Z</time>
      </trkpt>
      <trkpt lat="48.48477" lon="2.19947">
        <ele>71</ele>
        <time>2026-02-02T11:28:16Z</time>
      </trkpt>
      <trkpt lat="48.48479" lon="2.19956">
        <ele>71.2</ele>
        <time>2026-02-02T11:28:17Z</time>
      </trkpt>
      <trkpt lat="48.4848" lon="2.19965">
        <ele>71.2</ele>
        <time>2026-02-02T11:28:18Z</time>
      </trkpt>
      <trkpt lat="48.48482" lon="2.19974">
        <ele>71.2</ele>
        <time>2026-02-02T11:28:19Z</time>
      </trkpt>
      <trkpt lat="48.48483" lon="2.19983">
        <ele>71.2</ele>
        <time>2026-02-02T11:28:20Z</time>
      </trkpt>
      <trkpt lat="48.48484" lon="2.19991">
        <ele>71.2</ele>
        <time>2026-02-02T11:28:21Z</time>
      </trkpt>
      <trkpt lat="48.48485" lon="2.19999">
        <ele>71.2</ele>
        <time>2026-02-02T11:28:22Z</time>
      </trkpt>
      <trkpt lat="48.48487" lon="2.20007">
        <ele>71.2</ele>
        <time>2026-02-02T11:28:23Z</time>
      </trkpt>
      <trkpt lat="48.48488" lon="2.20014">
        <ele>71.8</ele>
        <time>2026-02-02T11:28:24Z</time>
      </trkpt>
      <trkpt lat="48.48489" lon="2.20022">
        <ele>71.8</ele>
        <time>2026-02-02T11:28:25Z</time>
      </trkpt>
      <trkpt lat="48.48491" lon="2.2003">
        <ele>71.8</ele>
        <time>2026-02-02T11:28:26Z</time>
      </trkpt>
      <trkpt lat="48.48492" lon="2.20038">
        <ele>71.8</ele>
        <time>2026-02-02T11:28:27Z</time>
      </trkpt>
      <trkpt lat="48.48493" lon="2.20045">
        <ele>71.8</ele>
        <time>2026-02-02T11:28:28Z</time>
      </trkpt>
      <trkpt lat="48.48495" lon="2.20053">
        <ele>72</ele>
        <time>2026-02-02T11:28:29Z</time>
      </trkpt>
      <trkpt lat="48.48496" lon="2.20061">
        <ele>72</ele>
        <time>2026-02-02T11:28:30Z</time>
      </trkpt>
      <trkpt lat="48.48497" lon="2.20069">
        <ele>72</ele>
        <time>2026-02-02T11:28:31Z</time>
      </trkpt>
      <trkpt lat="48.48499" lon="2.20076">
        <ele>72</ele>
        <time>2026-02-02T11:28:32Z</time>
      </trkpt>
      <trkpt lat="48.485" lon="2.20084">
        <ele>72.4</ele>
        <time>2026-02-02T11:28:33Z</time>
      </trkpt>
      <trkpt lat="48.48501" lon="2.20091">
        <ele>72.4</ele>
        <time>2026-02-02T11:28:34Z</time>
      </trkpt>
      <trkpt lat="48.48502" lon="2.20098">
        <ele>72.4</ele>
        <time>2026-02-02T11:28:35Z</time>
      </trkpt>
      <trkpt lat="48.48503" lon="2.20105">
        <ele>72.8</ele>
        <time>2026-02-02T11:28:36Z</time>
      </trkpt>
      <trkpt lat="48.48504" lon="2.20112">
        <ele>73</ele>
        <time>2026-02-02T11:28:37Z</time>
      </trkpt>
      <trkpt lat="48.48505" lon="2.2012">
        <ele>73</ele>
        <time>2026-02-02T11:28:38Z</time>
      </trkpt>
      <trkpt lat="48.48506" lon="2.20127">
        <ele>73</ele>
        <time>2026-02-02T11:28:39Z</time>
      </trkpt>
      <trkpt lat="48.48507" lon="2.20135">
        <ele>73</ele>
        <time>2026-02-02T11:28:40Z</time>
      </trkpt>
      <trkpt lat="48.48508" lon="2.20142">
        <ele>72.6</ele>
        <time>2026-02-02T11:28:41Z</time>
      </trkpt>
      <trkpt lat="48.48509" lon="2.20149">
        <ele>72.6</ele>
        <time>2026-02-02T11:28:42Z</time>
      </trkpt>
      <trkpt lat="48.4851" lon="2.20157">
        <ele>72.6</ele>
        <time>2026-02-02T11:28:43Z</time>
      </trkpt>
      <trkpt lat="48.48511" lon="2.20165">
        <ele>72.6</ele>
        <time>2026-02-02T11:28:44Z</time>
      </trkpt>
      <trkpt lat="48.48511" lon="2.20173">
        <ele>72.8</ele>
        <time>2026-02-02T11:28:45Z</time>
      </trkpt>
      <trkpt lat="48.48512" lon="2.2018">
        <ele>72.8</ele>
        <time>2026-02-02T11:28:46Z</time>
      </trkpt>
      <trkpt lat="48.48512" lon="2.20188">
        <ele>72.8</ele>
        <time>2026-02-02T11:28:47Z</time>
      </trkpt>
      <trkpt lat="48.48512" lon="2.20196">
        <ele>73</ele>
        <time>2026-02-02T11:28:48Z</time>
      </trkpt>
      <trkpt lat="48.48511" lon="2.20203">
        <ele>73.2</ele>
        <time>2026-02-02T11:28:49Z</time>
      </trkpt>
      <trkpt lat="48.48511" lon="2.2021">
        <ele>73.2</ele>
        <time>2026-02-02T11:28:50Z</time>
      </trkpt>
      <trkpt lat="48.48511" lon="2.20217">
        <ele>73.2</ele>
        <time>2026-02-02T11:28:51Z</time>
      </trkpt>
      <trkpt lat="48.4851" lon="2.20223">
        <ele>73.4</ele>
        <time>2026-02-02T11:28:52Z</time>
      </trkpt>
      <trkpt lat="48.48509" lon="2.2023">
        <ele>74.2</ele>
        <time>2026-02-02T11:28:53Z</time>
      </trkpt>
      <trkpt lat="48.48508" lon="2.20237">
        <ele>74.2</ele>
        <time>2026-02-02T11:28:54Z</time>
      </trkpt>
      <trkpt lat="48.48507" lon="2.20244">
        <ele>74.2</ele>
        <time>2026-02-02T11:28:55Z</time>
      </trkpt>
      <trkpt lat="48.48506" lon="2.2025">
        <ele>74.4</ele>
        <time>2026-02-02T11:28:56Z</time>
      </trkpt>
      <trkpt lat="48.48504" lon="2.20256">
        <ele>75</ele>
        <time>2026-02-02T11:28:57Z</time>
      </trkpt>
      <trkpt lat="48.48504" lon="2.20262">
        <ele>75</ele>
        <time>2026-02-02T11:28:58Z</time>
      </trkpt>
      <trkpt lat="48.48503" lon="2.20268">
        <ele>75</ele>
        <time>2026-02-02T11:28:59Z</time>
      </trkpt>
      <trkpt lat="48.48501" lon="2.20273">
        <ele>75</ele>
        <time>2026-02-02T11:29:00Z</time>
      </trkpt>
      <trkpt lat="48.48499" lon="2.20278">
        <ele>75.6</ele>
        <time>2026-02-02T11:29:01Z</time>
      </trkpt>
      <trkpt lat="48.48497" lon="2.20283">
        <ele>75.6</ele>
        <time>2026-02-02T11:29:02Z</time>
      </trkpt>
      <trkpt lat="48.48496" lon="2.20289">
        <ele>75.6</ele>
        <time>2026-02-02T11:29:03Z</time>
      </trkpt>
      <trkpt lat="48.48494" lon="2.20293">
        <ele>75.6</ele>
        <time>2026-02-02T11:29:04Z</time>
      </trkpt>
      <trkpt lat="48.48493" lon="2.20299">
        <ele>75.8</ele>
        <time>2026-02-02T11:29:05Z</time>
      </trkpt>
      <trkpt lat="48.48491" lon="2.20304">
        <ele>75.8</ele>
        <time>2026-02-02T11:29:06Z</time>
      </trkpt>
      <trkpt lat="48.48489" lon="2.2031">
        <ele>75.8</ele>
        <time>2026-02-02T11:29:07Z</time>
      </trkpt>
      <trkpt lat="48.48487" lon="2.20315">
        <ele>76.4</ele>
        <time>2026-02-02T11:29:08Z</time>
      </trkpt>
      <trkpt lat="48.48486" lon="2.2032">
        <ele>76.6</ele>
        <time>2026-02-02T11:29:09Z</time>
      </trkpt>
      <trkpt lat="48.48484" lon="2.20325">
        <ele>76.6</ele>
        <time>2026-02-02T11:29:10Z</time>
      </trkpt>
      <trkpt lat="48.48482" lon="2.20331">
        <ele>76.6</ele>
        <time>2026-02-02T11:29:11Z</time>
      </trkpt>
      <trkpt lat="48.4848" lon="2.20336">
        <ele>76.6</ele>
        <time>2026-02-02T11:29:12Z</time>
      </trkpt>
      <trkpt lat="48.48478" lon="2.2034">
        <ele>77</ele>
        <time>2026-02-02T11:29:13Z</time>
      </trkpt>
      <trkpt lat="48.48477" lon="2.20345">
        <ele>77</ele>
        <time>2026-02-02T11:29:14Z</time>
      </trkpt>
      <trkpt lat="48.48475" lon="2.20349">
        <ele>77</ele>
        <time>2026-02-02T11:29:15Z</time>
      </trkpt>
      <trkpt lat="48.48474" lon="2.20353">
        <ele>77.6</ele>
        <time>2026-02-02T11:29:16Z</time>
      </trkpt>
      <trkpt lat="48.48472" lon="2.20356">
        <ele>77.6</ele>
        <time>2026-02-02T11:29:17Z</time>
      </trkpt>
      <trkpt lat="48.4847" lon="2.20359">
        <ele>77.6</ele>
        <time>2026-02-02T11:29:18Z</time>
      </trkpt>
      <trkpt lat="48.48468" lon="2.20363">
        <ele>77.6</ele>
        <time>2026-02-02T11:29:19Z</time>
      </trkpt>
      <trkpt lat="48.48466" lon="2.20366">
        <ele>77.6</ele>
        <time>2026-02-02T11:29:20Z</time>
      </trkpt>
      <trkpt lat="48.48464" lon="2.2037">
        <ele>78.2</ele>
        <time>2026-02-02T11:29:21Z</time>
      </trkpt>
      <trkpt lat="48.48462" lon="2.20374">
        <ele>78.2</ele>
        <time>2026-02-02T11:29:22Z</time>
      </trkpt>
      <trkpt lat="48.4846" lon="2.20379">
        <ele>78.2</ele>
        <time>2026-02-02T11:29:23Z</time>
      </trkpt>
      <trkpt lat="48.48458" lon="2.20385">
        <ele>78.2</ele>
        <time>2026-02-02T11:29:24Z</time>
      </trkpt>
      <trkpt lat="48.48457" lon="2.20389">
        <ele>79</ele>
        <time>2026-02-02T11:29:25Z</time>
      </trkpt>
      <trkpt lat="48.48455" lon="2.20394">
        <ele>79</ele>
        <time>2026-02-02T11:29:26Z</time>
      </trkpt>
      <trkpt lat="48.48453" lon="2.20398">
        <ele>79</ele>
        <time>2026-02-02T11:29:27Z</time>
      </trkpt>
      <trkpt lat="48.48451" lon="2.20403">
        <ele>78.8</ele>
        <time>2026-02-02T11:29:28Z</time>
      </trkpt>
      <trkpt lat="48.4845" lon="2.20407">
        <ele>79.2</ele>
        <time>2026-02-02T11:29:29Z</time>
      </trkpt>
      <trkpt lat="48.48448" lon="2.20412">
        <ele>79.2</ele>
        <time>2026-02-02T11:29:30Z</time>
      </trkpt>
      <trkpt lat="48.48446" lon="2.20416">
        <ele>79.2</ele>
        <time>2026-02-02T11:29:31Z</time>
      </trkpt>
      <trkpt lat="48.48444" lon="2.2042">
        <ele>79.8</ele>
        <time>2026-02-02T11:29:32Z</time>
      </trkpt>
      <trkpt lat="48.48442" lon="2.20424">
        <ele>79.8</ele>
        <time>2026-02-02T11:29:33Z</time>
      </trkpt>
      <trkpt lat="48.4844" lon="2.20428">
        <ele>79.8</ele>
        <time>2026-02-02T11:29:34Z</time>
      </trkpt>
      <trkpt lat="48.48439" lon="2.20432">
        <ele>79.8</ele>
        <time>2026-02-02T11:29:35Z</time>
      </trkpt>
      <trkpt lat="48.48437" lon="2.20438">
        <ele>80.4</ele>
        <time>2026-02-02T11:29:36Z</time>
      </trkpt>
      <trkpt lat="48.48435" lon="2.20443">
        <ele>80.8</ele>
        <time>2026-02-02T11:29:37Z</time>
      </trkpt>
      <trkpt lat="48.48433" lon="2.20448">
        <ele>80.8</ele>
        <time>2026-02-02T11:29:38Z</time>
      </trkpt>
      <trkpt lat="48.48431" lon="2.20452">
        <ele>80.8</ele>
        <time>2026-02-02T11:29:39Z</time>
      </trkpt>
      <trkpt lat="48.48428" lon="2.20456">
        <ele>81.4</ele>
        <time>2026-02-02T11:29:40Z</time>
      </trkpt>
      <trkpt lat="48.48427" lon="2.2046">
        <ele>81.8</ele>
        <time>2026-02-02T11:29:41Z</time>
      </trkpt>
      <trkpt lat="48.48425" lon="2.20464">
        <ele>81.8</ele>
        <time>2026-02-02T11:29:42Z</time>
      </trkpt>
      <trkpt lat="48.48423" lon="2.20468">
        <ele>81.8</ele>
        <time>2026-02-02T11:29:43Z</time>
      </trkpt>
      <trkpt lat="48.48421" lon="2.20472">
        <ele>81.4</ele>
        <time>2026-02-02T11:29:44Z</time>
      </trkpt>
      <trkpt lat="48.48419" lon="2.20477">
        <ele>81.8</ele>
        <time>2026-02-02T11:29:45Z</time>
      </trkpt>
      <trkpt lat="48.48417" lon="2.20482">
        <ele>81.8</ele>
        <time>2026-02-02T11:29:46Z</time>
      </trkpt>
      <trkpt lat="48.48415" lon="2.20487">
        <ele>81.8</ele>
        <time>2026-02-02T11:29:47Z</time>
      </trkpt>
      <trkpt lat="48.48413" lon="2.20492">
        <ele>81.8</ele>
        <time>2026-02-02T11:29:48Z</time>
      </trkpt>
      <trkpt lat="48.48412" lon="2.205">
        <ele>82</ele>
        <time>2026-02-02T11:29:49Z</time>
      </trkpt>
      <trkpt lat="48.4841" lon="2.20506">
        <ele>82</ele>
        <time>2026-02-02T11:29:50Z</time>
      </trkpt>
      <trkpt lat="48.48406" lon="2.2051">
        <ele>82</ele>
        <time>2026-02-02T11:29:51Z</time>
      </trkpt>
      <trkpt lat="48.48403" lon="2.20514">
        <ele>82</ele>
        <time>2026-02-02T11:29:52Z</time>
      </trkpt>
      <trkpt lat="48.48399" lon="2.20518">
        <ele>82</ele>
        <time>2026-02-02T11:29:53Z</time>
      </trkpt>
      <trkpt lat="48.48396" lon="2.20523">
        <ele>82</ele>
        <time>2026-02-02T11:29:54Z</time>
      </trkpt>
      <trkpt lat="48.48393" lon="2.20529">
        <ele>82</ele>
        <time>2026-02-02T11:29:55Z</time>
      </trkpt>
      <trkpt lat="48.48392" lon="2.20535">
        <ele>82.4</ele>
        <time>2026-02-02T11:29:56Z</time>
      </trkpt>
      <trkpt lat="48.48392" lon="2.20543">
        <ele>82.2</ele>
        <time>2026-02-02T11:29:57Z</time>
      </trkpt>
      <trkpt lat="48.48393" lon="2.20551">
        <ele>82.2</ele>
        <time>2026-02-02T11:29:58Z</time>
      </trkpt>
      <trkpt lat="48.48395" lon="2.20558">
        <ele>82.2</ele>
        <time>2026-02-02T11:29:59Z</time>
      </trkpt>
      <trkpt lat="48.48396" lon="2.20565">
        <ele>82.8</ele>
        <time>2026-02-02T11:30:00Z</time>
      </trkpt>
      <trkpt lat="48.48396" lon="2.20572">
        <ele>82.8</ele>
        <time>2026-02-02T11:30:01Z</time>
      </trkpt>
      <trkpt lat="48.48396" lon="2.20578">
        <ele>82.8</ele>
        <time>2026-02-02T11:30:02Z</time>
      </trkpt>
      <trkpt lat="48.48395" lon="2.20585">
        <ele>82.8</ele>
        <time>2026-02-02T11:30:03Z</time>
      </trkpt>
      <trkpt lat="48.48393" lon="2.20591">
        <ele>82.8</ele>
        <time>2026-02-02T11:30:04Z</time>
      </trkpt>
      <trkpt lat="48.48392" lon="2.20598">
        <ele>83.4</ele>
        <time>2026-02-02T11:30:05Z</time>
      </trkpt>
      <trkpt lat="48.48391" lon="2.20604">
        <ele>83.4</ele>
        <time>2026-02-02T11:30:06Z</time>
      </trkpt>
      <trkpt lat="48.4839" lon="2.2061">
        <ele>83.4</ele>
        <time>2026-02-02T11:30:07Z</time>
      </trkpt>
      <trkpt lat="48.48388" lon="2.20617">
        <ele>83.4</ele>
        <time>2026-02-02T11:30:08Z</time>
      </trkpt>
      <trkpt lat="48.48387" lon="2.20623">
        <ele>83.4</ele>
        <time>2026-02-02T11:30:09Z</time>
      </trkpt>
      <trkpt lat="48.48385" lon="2.2063">
        <ele>83.4</ele>
        <time>2026-02-02T11:30:10Z</time>
      </trkpt>
      <trkpt lat="48.48384" lon="2.20636">
        <ele>83.4</ele>
        <time>2026-02-02T11:30:11Z</time>
      </trkpt>
      <trkpt lat="48.48382" lon="2.20643">
        <ele>83.4</ele>
        <time>2026-02-02T11:30:12Z</time>
      </trkpt>
      <trkpt lat="48.48381" lon="2.20649">
        <ele>84.2</ele>
        <time>2026-02-02T11:30:13Z</time>
      </trkpt>
      <trkpt lat="48.48379" lon="2.20655">
        <ele>84.2</ele>
        <time>2026-02-02T11:30:14Z</time>
      </trkpt>
      <trkpt lat="48.48378" lon="2.20662">
        <ele>84.2</ele>
        <time>2026-02-02T11:30:15Z</time>
      </trkpt>
      <trkpt lat="48.48377" lon="2.20668">
        <ele>84.2</ele>
        <time>2026-02-02T11:30:16Z</time>
      </trkpt>
      <trkpt lat="48.48375" lon="2.20674">
        <ele>84</ele>
        <time>2026-02-02T11:30:17Z</time>
      </trkpt>
      <trkpt lat="48.48374" lon="2.2068">
        <ele>84</ele>
        <time>2026-02-02T11:30:18Z</time>
      </trkpt>
      <trkpt lat="48.48372" lon="2.20687">
        <ele>84</ele>
        <time>2026-02-02T11:30:19Z</time>
      </trkpt>
      <trkpt lat="48.48371" lon="2.20693">
        <ele>84.4</ele>
        <time>2026-02-02T11:30:20Z</time>
      </trkpt>
      <trkpt lat="48.4837" lon="2.20699">
        <ele>84.4</ele>
        <time>2026-02-02T11:30:21Z</time>
      </trkpt>
      <trkpt lat="48.48368" lon="2.20705">
        <ele>84.4</ele>
        <time>2026-02-02T11:30:22Z</time>
      </trkpt>
      <trkpt lat="48.48367" lon="2.20712">
        <ele>84.4</ele>
        <time>2026-02-02T11:30:23Z</time>
      </trkpt>
      <trkpt lat="48.48365" lon="2.20718">
        <ele>84.4</ele>
        <time>2026-02-02T11:30:24Z</time>
      </trkpt>
      <trkpt lat="48.48364" lon="2.20724">
        <ele>84.4</ele>
        <time>2026-02-02T11:30:25Z</time>
      </trkpt>
      <trkpt lat="48.48363" lon="2.2073">
        <ele>84.4</ele>
        <time>2026-02-02T11:30:26Z</time>
      </trkpt>
      <trkpt lat="48.48361" lon="2.20737">
        <ele>84.4</ele>
        <time>2026-02-02T11:30:27Z</time>
      </trkpt>
      <trkpt lat="48.4836" lon="2.20743">
        <ele>85</ele>
        <time>2026-02-02T11:30:28Z</time>
      </trkpt>
      <trkpt lat="48.48359" lon="2.20749">
        <ele>84.8</ele>
        <time>2026-02-02T11:30:29Z</time>
      </trkpt>
      <trkpt lat="48.48357" lon="2.20755">
        <ele>84.8</ele>
        <time>2026-02-02T11:30:30Z</time>
      </trkpt>
      <trkpt lat="48.48356" lon="2.20761">
        <ele>84.8</ele>
        <time>2026-02-02T11:30:31Z</time>
      </trkpt>
      <trkpt lat="48.48354" lon="2.20767">
        <ele>85.4</ele>
        <time>2026-02-02T11:30:32Z</time>
      </trkpt>
      <trkpt lat="48.48353" lon="2.20774">
        <ele>85.4</ele>
        <time>2026-02-02T11:30:33Z</time>
      </trkpt>
      <trkpt lat="48.48352" lon="2.2078">
        <ele>85.4</ele>
        <time>2026-02-02T11:30:34Z</time>
      </trkpt>
      <trkpt lat="48.4835" lon="2.20786">
        <ele>85.4</ele>
        <time>2026-02-02T11:30:35Z</time>
      </trkpt>
      <trkpt lat="48.48349" lon="2.20792">
        <ele>85.4</ele>
        <time>2026-02-02T11:30:36Z</time>
      </trkpt>
      <trkpt lat="48.48347" lon="2.20798">
        <ele>85.6</ele>
        <time>2026-02-02T11:30:37Z</time>
      </trkpt>
      <trkpt lat="48.48346" lon="2.20804">
        <ele>85.6</ele>
        <time>2026-02-02T11:30:38Z</time>
      </trkpt>
      <trkpt lat="48.48344" lon="2.2081">
        <ele>85.6</ele>
        <time>2026-02-02T11:30:39Z</time>
      </trkpt>
      <trkpt lat="48.48342" lon="2.20816">
        <ele>85.6</ele>
        <time>2026-02-02T11:30:40Z</time>
      </trkpt>
      <trkpt lat="48.48341" lon="2.20822">
        <ele>85.8</ele>
        <time>2026-02-02T11:30:41Z</time>
      </trkpt>
      <trkpt lat="48.48339" lon="2.20828">
        <ele>85.8</ele>
        <time>2026-02-02T11:30:42Z</time>
      </trkpt>
      <trkpt lat="48.48337" lon="2.20834">
        <ele>85.8</ele>
        <time>2026-02-02T11:30:43Z</time>
      </trkpt>
      <trkpt lat="48.48335" lon="2.2084">
        <ele>85.8</ele>
        <time>2026-02-02T11:30:44Z</time>
      </trkpt>
      <trkpt lat="48.48333" lon="2.20845">
        <ele>86.2</ele>
        <time>2026-02-02T11:30:45Z</time>
      </trkpt>
      <trkpt lat="48.48331" lon="2.20851">
        <ele>86.2</ele>
        <time>2026-02-02T11:30:46Z</time>
      </trkpt>
      <trkpt lat="48.48329" lon="2.20856">
        <ele>86.2</ele>
        <time>2026-02-02T11:30:47Z</time>
      </trkpt>
      <trkpt lat="48.48327" lon="2.20861">
        <ele>86.4</ele>
        <time>2026-02-02T11:30:48Z</time>
      </trkpt>
      <trkpt lat="48.48325" lon="2.20867">
        <ele>87</ele>
        <time>2026-02-02T11:30:49Z</time>
      </trkpt>
      <trkpt lat="48.48322" lon="2.20872">
        <ele>87</ele>
        <time>2026-02-02T11:30:50Z</time>
      </trkpt>
      <trkpt lat="48.4832" lon="2.20878">
        <ele>87</ele>
        <time>2026-02-02T11:30:51Z</time>
      </trkpt>
      <trkpt lat="48.48318" lon="2.20883">
        <ele>87</ele>
        <time>2026-02-02T11:30:52Z</time>
      </trkpt>
      <trkpt lat="48.48316" lon="2.20888">
        <ele>86.8</ele>
        <time>2026-02-02T11:30:53Z</time>
      </trkpt>
      <trkpt lat="48.48313" lon="2.20894">
        <ele>86.8</ele>
        <time>2026-02-02T11:30:54Z</time>
      </trkpt>
      <trkpt lat="48.48311" lon="2.20899">
        <ele>86.8</ele>
        <time>2026-02-02T11:30:55Z</time>
      </trkpt>
      <trkpt lat="48.48309" lon="2.20904">
        <ele>87</ele>
        <time>2026-02-02T11:30:56Z</time>
      </trkpt>
      <trkpt lat="48.48307" lon="2.20909">
        <ele>88.2</ele>
        <time>2026-02-02T11:30:57Z</time>
      </trkpt>
      <trkpt lat="48.48305" lon="2.20915">
        <ele>88.2</ele>
        <time>2026-02-02T11:30:58Z</time>
      </trkpt>
      <trkpt lat="48.48303" lon="2.2092">
        <ele>88.2</ele>
        <time>2026-02-02T11:30:59Z</time>
      </trkpt>
      <trkpt lat="48.483" lon="2.20925">
        <ele>87.8</ele>
        <time>2026-02-02T11:31:00Z</time>
      </trkpt>
      <trkpt lat="48.48298" lon="2.2093">
        <ele>87.8</ele>
        <time>2026-02-02T11:31:01Z</time>
      </trkpt>
      <trkpt lat="48.48296" lon="2.20935">
        <ele>87.8</ele>
        <time>2026-02-02T11:31:02Z</time>
      </trkpt>
      <trkpt lat="48.48294" lon="2.2094">
        <ele>87.8</ele>
        <time>2026-02-02T11:31:03Z</time>
      </trkpt>
      <trkpt lat="48.48292" lon="2.20944">
        <ele>88.2</ele>
        <time>2026-02-02T11:31:04Z</time>
      </trkpt>
      <trkpt lat="48.4829" lon="2.20949">
        <ele>88.6</ele>
        <time>2026-02-02T11:31:05Z</time>
      </trkpt>
      <trkpt lat="48.48287" lon="2.20954">
        <ele>88.6</ele>
        <time>2026-02-02T11:31:06Z</time>
      </trkpt>
      <trkpt lat="48.48285" lon="2.20959">
        <ele>88.6</ele>
        <time>2026-02-02T11:31:07Z</time>
      </trkpt>
      <trkpt lat="48.48283" lon="2.20964">
        <ele>88.6</ele>
        <time>2026-02-02T11:31:08Z</time>
      </trkpt>
      <trkpt lat="48.48281" lon="2.20969">
        <ele>88.8</ele>
        <time>2026-02-02T11:31:09Z</time>
      </trkpt>
      <trkpt lat="48.48279" lon="2.20974">
        <ele>88.8</ele>
        <time>2026-02-02T11:31:10Z</time>
      </trkpt>
      <trkpt lat="48.48277" lon="2.20979">
        <ele>88.8</ele>
        <time>2026-02-02T11:31:11Z</time>
      </trkpt>
      <trkpt lat="48.48275" lon="2.20984">
        <ele>88.8</ele>
        <time>2026-02-02T11:31:12Z</time>
      </trkpt>
      <trkpt lat="48.48273" lon="2.20989">
        <ele>89.2</ele>
        <time>2026-02-02T11:31:13Z</time>
      </trkpt>
      <trkpt lat="48.48271" lon="2.20994">
        <ele>89.2</ele>
        <time>2026-02-02T11:31:14Z</time>
      </trkpt>
      <trkpt lat="48.48269" lon="2.20998">
        <ele>89.2</ele>
        <time>2026-02-02T11:31:15Z</time>
      </trkpt>
      <trkpt lat="48.48266" lon="2.21003">
        <ele>89.6</ele>
        <time>2026-02-02T11:31:16Z</time>
      </trkpt>
      <trkpt lat="48.48265" lon="2.21008">
        <ele>90</ele>
        <time>2026-02-02T11:31:17Z</time>
      </trkpt>
      <trkpt lat="48.48262" lon="2.21013">
        <ele>90</ele>
        <time>2026-02-02T11:31:18Z</time>
      </trkpt>
      <trkpt lat="48.4826" lon="2.21017">
        <ele>90</ele>
        <time>2026-02-02T11:31:19Z</time>
      </trkpt>
      <trkpt lat="48.48258" lon="2.21022">
        <ele>90</ele>
        <time>2026-02-02T11:31:20Z</time>
      </trkpt>
      <trkpt lat="48.48256" lon="2.21026">
        <ele>90.2</ele>
        <time>2026-02-02T11:31:21Z</time>
      </trkpt>
      <trkpt lat="48.48255" lon="2.21031">
        <ele>90.2</ele>
        <time>2026-02-02T11:31:22Z</time>
      </trkpt>
      <trkpt lat="48.48253" lon="2.21036">
        <ele>90.2</ele>
        <time>2026-02-02T11:31:23Z</time>
      </trkpt>
      <trkpt lat="48.48251" lon="2.2104">
        <ele>90.6</ele>
        <time>2026-02-02T11:31:24Z</time>
      </trkpt>
      <trkpt lat="48.48249" lon="2.21045">
        <ele>90.4</ele>
        <time>2026-02-02T11:31:25Z</time>
      </trkpt>
      <trkpt lat="48.48247" lon="2.2105">
        <ele>90.4</ele>
        <time>2026-02-02T11:31:26Z</time>
      </trkpt>
      <trkpt lat="48.48245" lon="2.21054">
        <ele>90.4</ele>
        <time>2026-02-02T11:31:27Z</time>
      </trkpt>
      <trkpt lat="48.48243" lon="2.21059">
        <ele>90.4</ele>
        <time>2026-02-02T11:31:28Z</time>
      </trkpt>
      <trkpt lat="48.48241" lon="2.21063">
        <ele>91</ele>
        <time>2026-02-02T11:31:29Z</time>
      </trkpt>
      <trkpt lat="48.48239" lon="2.21068">
        <ele>91</ele>
        <time>2026-02-02T11:31:30Z</time>
      </trkpt>
      <trkpt lat="48.48237" lon="2.21072">
        <ele>91</ele>
        <time>2026-02-02T11:31:31Z</time>
      </trkpt>
      <trkpt lat="48.48235" lon="2.21077">
        <ele>91</ele>
        <time>2026-02-02T11:31:32Z</time>
      </trkpt>
      <trkpt lat="48.48233" lon="2.21081">
        <ele>91.2</ele>
        <time>2026-02-02T11:31:33Z</time>
      </trkpt>
      <trkpt lat="48.48231" lon="2.21086">
        <ele>91.2</ele>
        <time>2026-02-02T11:31:34Z</time>
      </trkpt>
      <trkpt lat="48.48229" lon="2.2109">
        <ele>91.2</ele>
        <time>2026-02-02T11:31:35Z</time>
      </trkpt>
      <trkpt lat="48.48227" lon="2.21095">
        <ele>91.6</ele>
        <time>2026-02-02T11:31:36Z</time>
      </trkpt>
      <trkpt lat="48.48225" lon="2.21099">
        <ele>92.2</ele>
        <time>2026-02-02T11:31:37Z</time>
      </trkpt>
      <trkpt lat="48.48223" lon="2.21104">
        <ele>92.2</ele>
        <time>2026-02-02T11:31:38Z</time>
      </trkpt>
      <trkpt lat="48.48221" lon="2.21109">
        <ele>92.2</ele>
        <time>2026-02-02T11:31:39Z</time>
      </trkpt>
      <trkpt lat="48.48219" lon="2.21113">
        <ele>92.2</ele>
        <time>2026-02-02T11:31:40Z</time>
      </trkpt>
      <trkpt lat="48.48217" lon="2.21118">
        <ele>92.2</ele>
        <time>2026-02-02T11:31:41Z</time>
      </trkpt>
      <trkpt lat="48.48215" lon="2.21123">
        <ele>92.2</ele>
        <time>2026-02-02T11:31:42Z</time>
      </trkpt>
      <trkpt lat="48.48213" lon="2.21128">
        <ele>92.2</ele>
        <time>2026-02-02T11:31:43Z</time>
      </trkpt>
      <trkpt lat="48.48211" lon="2.21132">
        <ele>93.2</ele>
        <time>2026-02-02T11:31:44Z</time>
      </trkpt>
      <trkpt lat="48.48209" lon="2.21137">
        <ele>93</ele>
        <time>2026-02-02T11:31:45Z</time>
      </trkpt>
      <trkpt lat="48.48208" lon="2.21142">
        <ele>93</ele>
        <time>2026-02-02T11:31:46Z</time>
      </trkpt>
      <trkpt lat="48.48206" lon="2.21147">
        <ele>93</ele>
        <time>2026-02-02T11:31:47Z</time>
      </trkpt>
      <trkpt lat="48.48204" lon="2.21151">
        <ele>93.6</ele>
        <time>2026-02-02T11:31:48Z</time>
      </trkpt>
      <trkpt lat="48.48202" lon="2.21156">
        <ele>93.4</ele>
        <time>2026-02-02T11:31:49Z</time>
      </trkpt>
      <trkpt lat="48.482" lon="2.21161">
        <ele>93.4</ele>
        <time>2026-02-02T11:31:50Z</time>
      </trkpt>
      <trkpt lat="48.48198" lon="2.21165">
        <ele>93.4</ele>
        <time>2026-02-02T11:31:51Z</time>
      </trkpt>
      <trkpt lat="48.48197" lon="2.2117">
        <ele>93.8</ele>
        <time>2026-02-02T11:31:52Z</time>
      </trkpt>
      <trkpt lat="48.48195" lon="2.21175">
        <ele>94.2</ele>
        <time>2026-02-02T11:31:53Z</time>
      </trkpt>
      <trkpt lat="48.48193" lon="2.2118">
        <ele>94.2</ele>
        <time>2026-02-02T11:31:54Z</time>
      </trkpt>
      <trkpt lat="48.48192" lon="2.21184">
        <ele>94.2</ele>
        <time>2026-02-02T11:31:55Z</time>
      </trkpt>
      <trkpt lat="48.4819" lon="2.21189">
        <ele>94</ele>
        <time>2026-02-02T11:31:56Z</time>
      </trkpt>
      <trkpt lat="48.48189" lon="2.21194">
        <ele>94</ele>
        <time>2026-02-02T11:31:57Z</time>
      </trkpt>
      <trkpt lat="48.48187" lon="2.21199">
        <ele>94</ele>
        <time>2026-02-02T11:31:58Z</time>
      </trkpt>
      <trkpt lat="48.48186" lon="2.21203">
        <ele>94</ele>
        <time>2026-02-02T11:31:59Z</time>
      </trkpt>
      <trkpt lat="48.48184" lon="2.21208">
        <ele>94</ele>
        <time>2026-02-02T11:32:00Z</time>
      </trkpt>
      <trkpt lat="48.48182" lon="2.21213">
        <ele>94.2</ele>
        <time>2026-02-02T11:32:01Z</time>
      </trkpt>
      <trkpt lat="48.48181" lon="2.21218">
        <ele>94.2</ele>
        <time>2026-02-02T11:32:02Z</time>
      </trkpt>
      <trkpt lat="48.48179" lon="2.21222">
        <ele>94.2</ele>
        <time>2026-02-02T11:32:03Z</time>
      </trkpt>
      <trkpt lat="48.48178" lon="2.21227">
        <ele>95</ele>
        <time>2026-02-02T11:32:04Z</time>
      </trkpt>
      <trkpt lat="48.48176" lon="2.21232">
        <ele>95.2</ele>
        <time>2026-02-02T11:32:05Z</time>
      </trkpt>
      <trkpt lat="48.48175" lon="2.21237">
        <ele>95.2</ele>
        <time>2026-02-02T11:32:06Z</time>
      </trkpt>
      <trkpt lat="48.48174" lon="2.21242">
        <ele>95.2</ele>
        <time>2026-02-02T11:32:07Z</time>
      </trkpt>
      <trkpt lat="48.48173" lon="2.21247">
        <ele>95.2</ele>
        <time>2026-02-02T11:32:08Z</time>
      </trkpt>
      <trkpt lat="48.48172" lon="2.21252">
        <ele>95.8</ele>
        <time>2026-02-02T11:32:09Z</time>
      </trkpt>
      <trkpt lat="48.4817" lon="2.21257">
        <ele>95.8</ele>
        <time>2026-02-02T11:32:10Z</time>
      </trkpt>
      <trkpt lat="48.48169" lon="2.21262">
        <ele>95.8</ele>
        <time>2026-02-02T11:32:11Z</time>
      </trkpt>
      <trkpt lat="48.48168" lon="2.21268">
        <ele>96.2</ele>
        <time>2026-02-02T11:32:12Z</time>
      </trkpt>
      <trkpt lat="48.48167" lon="2.21273">
        <ele>96.6</ele>
        <time>2026-02-02T11:32:13Z</time>
      </trkpt>
      <trkpt lat="48.48166" lon="2.21278">
        <ele>96.6</ele>
        <time>2026-02-02T11:32:14Z</time>
      </trkpt>
      <trkpt lat="48.48165" lon="2.21284">
        <ele>96.6</ele>
        <time>2026-02-02T11:32:15Z</time>
      </trkpt>
      <trkpt lat="48.48164" lon="2.21289">
        <ele>96.6</ele>
        <time>2026-02-02T11:32:16Z</time>
      </trkpt>
      <trkpt lat="48.48163" lon="2.21294">
        <ele>96.4</ele>
        <time>2026-02-02T11:32:17Z</time>
      </trkpt>
      <trkpt lat="48.48162" lon="2.21299">
        <ele>96.4</ele>
        <time>2026-02-02T11:32:18Z</time>
      </trkpt>
      <trkpt lat="48.4816" lon="2.21304">
        <ele>96.4</ele>
        <time>2026-02-02T11:32:19Z</time>
      </trkpt>
      <trkpt lat="48.48159" lon="2.2131">
        <ele>97.4</ele>
        <time>2026-02-02T11:32:20Z</time>
      </trkpt>
      <trkpt lat="48.48158" lon="2.21315">
        <ele>97.4</ele>
        <time>2026-02-02T11:32:21Z</time>
      </trkpt>
      <trkpt lat="48.48157" lon="2.2132">
        <ele>97.4</ele>
        <time>2026-02-02T11:32:22Z</time>
      </trkpt>
      <trkpt lat="48.48156" lon="2.21325">
        <ele>97.4</ele>
        <time>2026-02-02T11:32:23Z</time>
      </trkpt>
      <trkpt lat="48.48155" lon="2.21331">
        <ele>98</ele>
        <time>2026-02-02T11:32:24Z</time>
      </trkpt>
      <trkpt lat="48.48154" lon="2.21336">
        <ele>98.2</ele>
        <time>2026-02-02T11:32:25Z</time>
      </trkpt>
      <trkpt lat="48.48153" lon="2.21341">
        <ele>98.2</ele>
        <time>2026-02-02T11:32:26Z</time>
      </trkpt>
      <trkpt lat="48.48153" lon="2.21347">
        <ele>98.2</ele>
        <time>2026-02-02T11:32:27Z</time>
      </trkpt>
      <trkpt lat="48.48152" lon="2.21352">
        <ele>98.2</ele>
        <time>2026-02-02T11:32:28Z</time>
      </trkpt>
      <trkpt lat="48.48151" lon="2.21357">
        <ele>98.6</ele>
        <time>2026-02-02T11:32:29Z</time>
      </trkpt>
      <trkpt lat="48.4815" lon="2.21363">
        <ele>98.6</ele>
        <time>2026-02-02T11:32:30Z</time>
      </trkpt>
      <trkpt lat="48.48149" lon="2.21368">
        <ele>98.6</ele>
        <time>2026-02-02T11:32:31Z</time>
      </trkpt>
      <trkpt lat="48.48148" lon="2.21374">
        <ele>98.6</ele>
        <time>2026-02-02T11:32:32Z</time>
      </trkpt>
      <trkpt lat="48.48147" lon="2.21379">
        <ele>98.8</ele>
        <time>2026-02-02T11:32:33Z</time>
      </trkpt>
      <trkpt lat="48.48146" lon="2.21384">
        <ele>98.8</ele>
        <time>2026-02-02T11:32:34Z</time>
      </trkpt>
      <trkpt lat="48.48145" lon="2.21389">
        <ele>98.8</ele>
        <time>2026-02-02T11:32:35Z</time>
      </trkpt>
      <trkpt lat="48.48144" lon="2.21395">
        <ele>99.2</ele>
        <time>2026-02-02T11:32:36Z</time>
      </trkpt>
      <trkpt lat="48.48143" lon="2.214">
        <ele>99.6</ele>
        <time>2026-02-02T11:32:37Z</time>
      </trkpt>
      <trkpt lat="48.48142" lon="2.21406">
        <ele>99.6</ele>
        <time>2026-02-02T11:32:38Z</time>
      </trkpt>
      <trkpt lat="48.48141" lon="2.21411">
        <ele>99.6</ele>
        <time>2026-02-02T11:32:39Z</time>
      </trkpt>
      <trkpt lat="48.4814" lon="2.21417">
        <ele>99.6</ele>
        <time>2026-02-02T11:32:40Z</time>
      </trkpt>
      <trkpt lat="48.48139" lon="2.21422">
        <ele>99.8</ele>
        <time>2026-02-02T11:32:41Z</time>
      </trkpt>
      <trkpt lat="48.48138" lon="2.21427">
        <ele>99.8</ele>
        <time>2026-02-02T11:32:42Z</time>
      </trkpt>
      <trkpt lat="48.48137" lon="2.21433">
        <ele>99.8</ele>
        <time>2026-02-02T11:32:43Z</time>
      </trkpt>
      <trkpt lat="48.48137" lon="2.21438">
        <ele>100.4</ele>
        <time>2026-02-02T11:32:44Z</time>
      </trkpt>
      <trkpt lat="48.48136" lon="2.21443">
        <ele>100.6</ele>
        <time>2026-02-02T11:32:45Z</time>
      </trkpt>
      <trkpt lat="48.48135" lon="2.21449">
        <ele>100.6</ele>
        <time>2026-02-02T11:32:46Z</time>
      </trkpt>
      <trkpt lat="48.48134" lon="2.21454">
        <ele>100.6</ele>
        <time>2026-02-02T11:32:47Z</time>
      </trkpt>
      <trkpt lat="48.48133" lon="2.2146">
        <ele>100.6</ele>
        <time>2026-02-02T11:32:48Z</time>
      </trkpt>
      <trkpt lat="48.48132" lon="2.21465">
        <ele>100.4</ele>
        <time>2026-02-02T11:32:49Z</time>
      </trkpt>
      <trkpt lat="48.48132" lon="2.21471">
        <ele>100.4</ele>
        <time>2026-02-02T11:32:50Z</time>
      </trkpt>
      <trkpt lat="48.48131" lon="2.21476">
        <ele>100.4</ele>
        <time>2026-02-02T11:32:51Z</time>
      </trkpt>
      <trkpt lat="48.48131" lon="2.21482">
        <ele>101.2</ele>
        <time>2026-02-02T11:32:52Z</time>
      </trkpt>
      <trkpt lat="48.4813" lon="2.21487">
        <ele>101</ele>
        <time>2026-02-02T11:32:53Z</time>
      </trkpt>
      <trkpt lat="48.48129" lon="2.21493">
        <ele>101</ele>
        <time>2026-02-02T11:32:54Z</time>
      </trkpt>
      <trkpt lat="48.48129" lon="2.21499">
        <ele>101</ele>
        <time>2026-02-02T11:32:55Z</time>
      </trkpt>
      <trkpt lat="48.48128" lon="2.21505">
        <ele>101.4</ele>
        <time>2026-02-02T11:32:56Z</time>
      </trkpt>
      <trkpt lat="48.48127" lon="2.21511">
        <ele>101.8</ele>
        <time>2026-02-02T11:32:57Z</time>
      </trkpt>
      <trkpt lat="48.48126" lon="2.21516">
        <ele>101.8</ele>
        <time>2026-02-02T11:32:58Z</time>
      </trkpt>
      <trkpt lat="48.48125" lon="2.21522">
        <ele>101.8</ele>
        <time>2026-02-02T11:32:59Z</time>
      </trkpt>
      <trkpt lat="48.48124" lon="2.21528">
        <ele>101.8</ele>
        <time>2026-02-02T11:33:00Z</time>
      </trkpt>
      <trkpt lat="48.48124" lon="2.21534">
        <ele>102</ele>
        <time>2026-02-02T11:33:01Z</time>
      </trkpt>
      <trkpt lat="48.48123" lon="2.2154">
        <ele>102</ele>
        <time>2026-02-02T11:33:02Z</time>
      </trkpt>
      <trkpt lat="48.48122" lon="2.21546">
        <ele>102</ele>
        <time>2026-02-02T11:33:03Z</time>
      </trkpt>
      <trkpt lat="48.48121" lon="2.21552">
        <ele>102</ele>
        <time>2026-02-02T11:33:04Z</time>
      </trkpt>
      <trkpt lat="48.4812" lon="2.21558">
        <ele>102.4</ele>
        <time>2026-02-02T11:33:05Z</time>
      </trkpt>
      <trkpt lat="48.48118" lon="2.21563">
        <ele>102.4</ele>
        <time>2026-02-02T11:33:06Z</time>
      </trkpt>
      <trkpt lat="48.48117" lon="2.21569">
        <ele>102.4</ele>
        <time>2026-02-02T11:33:07Z</time>
      </trkpt>
      <trkpt lat="48.48116" lon="2.21574">
        <ele>102.4</ele>
        <time>2026-02-02T11:33:08Z</time>
      </trkpt>
      <trkpt lat="48.48114" lon="2.21579">
        <ele>102.8</ele>
        <time>2026-02-02T11:33:09Z</time>
      </trkpt>
      <trkpt lat="48.48112" lon="2.21585">
        <ele>102.8</ele>
        <time>2026-02-02T11:33:10Z</time>
      </trkpt>
      <trkpt lat="48.4811" lon="2.21589">
        <ele>102.8</ele>
        <time>2026-02-02T11:33:11Z</time>
      </trkpt>
      <trkpt lat="48.48108" lon="2.21593">
        <ele>102.8</ele>
        <time>2026-02-02T11:33:12Z</time>
      </trkpt>
      <trkpt lat="48.48106" lon="2.21596">
        <ele>103</ele>
        <time>2026-02-02T11:33:13Z</time>
      </trkpt>
      <trkpt lat="48.48104" lon="2.21599">
        <ele>103</ele>
        <time>2026-02-02T11:33:14Z</time>
      </trkpt>
      <trkpt lat="48.48102" lon="2.21602">
        <ele>103</ele>
        <time>2026-02-02T11:33:15Z</time>
      </trkpt>
      <trkpt lat="48.481" lon="2.21605">
        <ele>103</ele>
        <time>2026-02-02T11:33:16Z</time>
      </trkpt>
      <trkpt lat="48.48097" lon="2.21607">
        <ele>103.8</ele>
        <time>2026-02-02T11:33:17Z</time>
      </trkpt>
      <trkpt lat="48.48095" lon="2.21609">
        <ele>103.8</ele>
        <time>2026-02-02T11:33:18Z</time>
      </trkpt>
      <trkpt lat="48.48093" lon="2.21612">
        <ele>103.8</ele>
        <time>2026-02-02T11:33:19Z</time>
      </trkpt>
      <trkpt lat="48.48091" lon="2.21615">
        <ele>103.8</ele>
        <time>2026-02-02T11:33:20Z</time>
      </trkpt>
      <trkpt lat="48.48089" lon="2.21618">
        <ele>104.4</ele>
        <time>2026-02-02T11:33:21Z</time>
      </trkpt>
      <trkpt lat="48.48086" lon="2.21621">
        <ele>104.4</ele>
        <time>2026-02-02T11:33:22Z</time>
      </trkpt>
      <trkpt lat="48.48084" lon="2.21623">
        <ele>104.4</ele>
        <time>2026-02-02T11:33:23Z</time>
      </trkpt>
      <trkpt lat="48.48081" lon="2.21626">
        <ele>104.8</ele>
        <time>2026-02-02T11:33:24Z</time>
      </trkpt>
      <trkpt lat="48.48079" lon="2.21629">
        <ele>104.8</ele>
        <time>2026-02-02T11:33:25Z</time>
      </trkpt>
      <trkpt lat="48.48076" lon="2.21632">
        <ele>104.8</ele>
        <time>2026-02-02T11:33:26Z</time>
      </trkpt>
      <trkpt lat="48.48073" lon="2.21634">
        <ele>104.8</ele>
        <time>2026-02-02T11:33:27Z</time>
      </trkpt>
      <trkpt lat="48.48071" lon="2.21637">
        <ele>105.8</ele>
        <time>2026-02-02T11:33:28Z</time>
      </trkpt>
      <trkpt lat="48.48068" lon="2.2164">
        <ele>105.8</ele>
        <time>2026-02-02T11:33:29Z</time>
      </trkpt>
      <trkpt lat="48.48066" lon="2.21643">
        <ele>105.8</ele>
        <time>2026-02-02T11:33:30Z</time>
      </trkpt>
      <trkpt lat="48.48063" lon="2.21646">
        <ele>105.8</ele>
        <time>2026-02-02T11:33:31Z</time>
      </trkpt>
      <trkpt lat="48.4806" lon="2.21649">
        <ele>105.8</ele>
        <time>2026-02-02T11:33:32Z</time>
      </trkpt>
      <trkpt lat="48.48058" lon="2.21651">
        <ele>106.2</ele>
        <time>2026-02-02T11:33:33Z</time>
      </trkpt>
      <trkpt lat="48.48055" lon="2.21654">
        <ele>106.2</ele>
        <time>2026-02-02T11:33:34Z</time>
      </trkpt>
      <trkpt lat="48.48053" lon="2.21657">
        <ele>106.2</ele>
        <time>2026-02-02T11:33:35Z</time>
      </trkpt>
      <trkpt lat="48.48051" lon="2.2166">
        <ele>106.6</ele>
        <time>2026-02-02T11:33:36Z</time>
      </trkpt>
      <trkpt lat="48.48048" lon="2.21663">
        <ele>107</ele>
        <time>2026-02-02T11:33:37Z</time>
      </trkpt>
      <trkpt lat="48.48046" lon="2.21666">
        <ele>107</ele>
        <time>2026-02-02T11:33:38Z</time>
      </trkpt>
      <trkpt lat="48.48043" lon="2.21669">
        <ele>107</ele>
        <time>2026-02-02T11:33:39Z</time>
      </trkpt>
      <trkpt lat="48.48041" lon="2.21672">
        <ele>107.8</ele>
        <time>2026-02-02T11:33:40Z</time>
      </trkpt>
      <trkpt lat="48.48039" lon="2.21675">
        <ele>107.8</ele>
        <time>2026-02-02T11:33:41Z</time>
      </trkpt>
      <trkpt lat="48.48036" lon="2.21678">
        <ele>107.8</ele>
        <time>2026-02-02T11:33:42Z</time>
      </trkpt>
      <trkpt lat="48.48034" lon="2.21681">
        <ele>107.8</ele>
        <time>2026-02-02T11:33:43Z</time>
      </trkpt>
      <trkpt lat="48.48032" lon="2.21684">
        <ele>108.4</ele>
        <time>2026-02-02T11:33:44Z</time>
      </trkpt>
      <trkpt lat="48.4803" lon="2.21687">
        <ele>108.4</ele>
        <time>2026-02-02T11:33:45Z</time>
      </trkpt>
      <trkpt lat="48.48028" lon="2.2169">
        <ele>108.4</ele>
        <time>2026-02-02T11:33:46Z</time>
      </trkpt>
      <trkpt lat="48.48025" lon="2.21693">
        <ele>108.4</ele>
        <time>2026-02-02T11:33:47Z</time>
      </trkpt>
      <trkpt lat="48.48023" lon="2.21696">
        <ele>108.8</ele>
        <time>2026-02-02T11:33:48Z</time>
      </trkpt>
      <trkpt lat="48.48022" lon="2.21699">
        <ele>109</ele>
        <time>2026-02-02T11:33:49Z</time>
      </trkpt>
      <trkpt lat="48.4802" lon="2.21702">
        <ele>109</ele>
        <time>2026-02-02T11:33:50Z</time>
      </trkpt>
      <trkpt lat="48.48017" lon="2.21705">
        <ele>109</ele>
        <time>2026-02-02T11:33:51Z</time>
      </trkpt>
      <trkpt lat="48.48015" lon="2.21708">
        <ele>109.6</ele>
        <time>2026-02-02T11:33:52Z</time>
      </trkpt>
      <trkpt lat="48.48013" lon="2.21711">
        <ele>110</ele>
        <time>2026-02-02T11:33:53Z</time>
      </trkpt>
      <trkpt lat="48.48011" lon="2.21714">
        <ele>110</ele>
        <time>2026-02-02T11:33:54Z</time>
      </trkpt>
      <trkpt lat="48.48009" lon="2.21717">
        <ele>110</ele>
        <time>2026-02-02T11:33:55Z</time>
      </trkpt>
      <trkpt lat="48.48007" lon="2.2172">
        <ele>110.2</ele>
        <time>2026-02-02T11:33:56Z</time>
      </trkpt>
      <trkpt lat="48.48005" lon="2.21723">
        <ele>110.6</ele>
        <time>2026-02-02T11:33:57Z</time>
      </trkpt>
      <trkpt lat="48.48003" lon="2.21727">
        <ele>110.6</ele>
        <time>2026-02-02T11:33:58Z</time>
      </trkpt>
      <trkpt lat="48.48001" lon="2.2173">
        <ele>110.6</ele>
        <time>2026-02-02T11:33:59Z</time>
      </trkpt>
      <trkpt lat="48.47999" lon="2.21733">
        <ele>110.6</ele>
        <time>2026-02-02T11:34:00Z</time>
      </trkpt>
      <trkpt lat="48.47997" lon="2.21738">
        <ele>111.2</ele>
        <time>2026-02-02T11:34:01Z</time>
      </trkpt>
      <trkpt lat="48.47996" lon="2.21741">
        <ele>111.2</ele>
        <time>2026-02-02T11:34:02Z</time>
      </trkpt>
      <trkpt lat="48.47994" lon="2.21744">
        <ele>111.2</ele>
        <time>2026-02-02T11:34:03Z</time>
      </trkpt>
      <trkpt lat="48.47992" lon="2.21748">
        <ele>111.4</ele>
        <time>2026-02-02T11:34:04Z</time>
      </trkpt>
      <trkpt lat="48.47991" lon="2.21752">
        <ele>112.4</ele>
        <time>2026-02-02T11:34:05Z</time>
      </trkpt>
      <trkpt lat="48.47989" lon="2.21756">
        <ele>112.4</ele>
        <time>2026-02-02T11:34:06Z</time>
      </trkpt>
      <trkpt lat="48.47987" lon="2.21759">
        <ele>112.4</ele>
        <time>2026-02-02T11:34:07Z</time>
      </trkpt>
      <trkpt lat="48.47986" lon="2.21763">
        <ele>113.4</ele>
        <time>2026-02-02T11:34:08Z</time>
      </trkpt>
      <trkpt lat="48.47984" lon="2.21766">
        <ele>113</ele>
        <time>2026-02-02T11:34:09Z</time>
      </trkpt>
      <trkpt lat="48.47982" lon="2.2177">
        <ele>113</ele>
        <time>2026-02-02T11:34:10Z</time>
      </trkpt>
      <trkpt lat="48.47981" lon="2.21773">
        <ele>113</ele>
        <time>2026-02-02T11:34:11Z</time>
      </trkpt>
      <trkpt lat="48.4798" lon="2.21777">
        <ele>113.8</ele>
        <time>2026-02-02T11:34:12Z</time>
      </trkpt>
      <trkpt lat="48.47979" lon="2.2178">
        <ele>113.8</ele>
        <time>2026-02-02T11:34:13Z</time>
      </trkpt>
      <trkpt lat="48.47977" lon="2.21783">
        <ele>113.8</ele>
        <time>2026-02-02T11:34:14Z</time>
      </trkpt>
      <trkpt lat="48.47975" lon="2.21787">
        <ele>113.8</ele>
        <time>2026-02-02T11:34:15Z</time>
      </trkpt>
      <trkpt lat="48.47974" lon="2.21791">
        <ele>114.2</ele>
        <time>2026-02-02T11:34:16Z</time>
      </trkpt>
      <trkpt lat="48.47972" lon="2.21794">
        <ele>114.2</ele>
        <time>2026-02-02T11:34:17Z</time>
      </trkpt>
      <trkpt lat="48.47971" lon="2.21797">
        <ele>114.2</ele>
        <time>2026-02-02T11:34:18Z</time>
      </trkpt>
      <trkpt lat="48.4797" lon="2.21801">
        <ele>114.2</ele>
        <time>2026-02-02T11:34:19Z</time>
      </trkpt>
      <trkpt lat="48.47968" lon="2.21805">
        <ele>115</ele>
        <time>2026-02-02T11:34:20Z</time>
      </trkpt>
      <trkpt lat="48.47967" lon="2.21809">
        <ele>115.6</ele>
        <time>2026-02-02T11:34:21Z</time>
      </trkpt>
      <trkpt lat="48.47965" lon="2.21812">
        <ele>115.6</ele>
        <time>2026-02-02T11:34:22Z</time>
      </trkpt>
      <trkpt lat="48.47963" lon="2.21815">
        <ele>115.6</ele>
        <time>2026-02-02T11:34:23Z</time>
      </trkpt>
      <trkpt lat="48.47962" lon="2.21818">
        <ele>116.4</ele>
        <time>2026-02-02T11:34:24Z</time>
      </trkpt>
      <trkpt lat="48.4796" lon="2.21822">
        <ele>116.4</ele>
        <time>2026-02-02T11:34:25Z</time>
      </trkpt>
      <trkpt lat="48.47959" lon="2.21826">
        <ele>116.4</ele>
        <time>2026-02-02T11:34:26Z</time>
      </trkpt>
      <trkpt lat="48.47958" lon="2.21831">
        <ele>116.4</ele>
        <time>2026-02-02T11:34:27Z</time>
      </trkpt>
      <trkpt lat="48.47957" lon="2.21834">
        <ele>116.4</ele>
        <time>2026-02-02T11:34:28Z</time>
      </trkpt>
      <trkpt lat="48.47955" lon="2.21838">
        <ele>116.8</ele>
        <time>2026-02-02T11:34:29Z</time>
      </trkpt>
      <trkpt lat="48.47954" lon="2.21842">
        <ele>116.8</ele>
        <time>2026-02-02T11:34:30Z</time>
      </trkpt>
      <trkpt lat="48.47953" lon="2.21846">
        <ele>116.8</ele>
        <time>2026-02-02T11:34:31Z</time>
      </trkpt>
      <trkpt lat="48.47952" lon="2.2185">
        <ele>117.2</ele>
        <time>2026-02-02T11:34:32Z</time>
      </trkpt>
      <trkpt lat="48.47951" lon="2.21854">
        <ele>117.6</ele>
        <time>2026-02-02T11:34:33Z</time>
      </trkpt>
      <trkpt lat="48.4795" lon="2.21858">
        <ele>117.6</ele>
        <time>2026-02-02T11:34:34Z</time>
      </trkpt>
      <trkpt lat="48.47948" lon="2.21864">
        <ele>117.6</ele>
        <time>2026-02-02T11:34:35Z</time>
      </trkpt>
      <trkpt lat="48.47947" lon="2.21867">
        <ele>117.6</ele>
        <time>2026-02-02T11:34:36Z</time>
      </trkpt>
      <trkpt lat="48.47945" lon="2.21871">
        <ele>118.2</ele>
        <time>2026-02-02T11:34:37Z</time>
      </trkpt>
      <trkpt lat="48.47944" lon="2.21876">
        <ele>118.2</ele>
        <time>2026-02-02T11:34:38Z</time>
      </trkpt>
      <trkpt lat="48.47943" lon="2.2188">
        <ele>118.2</ele>
        <time>2026-02-02T11:34:39Z</time>
      </trkpt>
      <trkpt lat="48.47943" lon="2.21884">
        <ele>118.2</ele>
        <time>2026-02-02T11:34:40Z</time>
      </trkpt>
      <trkpt lat="48.47942" lon="2.21888">
        <ele>119</ele>
        <time>2026-02-02T11:34:41Z</time>
      </trkpt>
      <trkpt lat="48.47941" lon="2.21892">
        <ele>119</ele>
        <time>2026-02-02T11:34:42Z</time>
      </trkpt>
      <trkpt lat="48.4794" lon="2.21897">
        <ele>119</ele>
        <time>2026-02-02T11:34:43Z</time>
      </trkpt>
      <trkpt lat="48.47939" lon="2.219">
        <ele>119.8</ele>
        <time>2026-02-02T11:34:44Z</time>
      </trkpt>
      <trkpt lat="48.47938" lon="2.21904">
        <ele>119.8</ele>
        <time>2026-02-02T11:34:45Z</time>
      </trkpt>
      <trkpt lat="48.47937" lon="2.21907">
        <ele>119.8</ele>
        <time>2026-02-02T11:34:46Z</time>
      </trkpt>
      <trkpt lat="48.47936" lon="2.21911">
        <ele>119.8</ele>
        <time>2026-02-02T11:34:47Z</time>
      </trkpt>
      <trkpt lat="48.47935" lon="2.21915">
        <ele>120.2</ele>
        <time>2026-02-02T11:34:48Z</time>
      </trkpt>
      <trkpt lat="48.47934" lon="2.21918">
        <ele>120.6</ele>
        <time>2026-02-02T11:34:49Z</time>
      </trkpt>
      <trkpt lat="48.47933" lon="2.21922">
        <ele>120.6</ele>
        <time>2026-02-02T11:34:50Z</time>
      </trkpt>
      <trkpt lat="48.47932" lon="2.21925">
        <ele>120.6</ele>
        <time>2026-02-02T11:34:51Z</time>
      </trkpt>
      <trkpt lat="48.47931" lon="2.21929">
        <ele>121.2</ele>
        <time>2026-02-02T11:34:52Z</time>
      </trkpt>
      <trkpt lat="48.4793" lon="2.21935">
        <ele>121.4</ele>
        <time>2026-02-02T11:34:53Z</time>
      </trkpt>
      <trkpt lat="48.47929" lon="2.21938">
        <ele>121.4</ele>
        <time>2026-02-02T11:34:54Z</time>
      </trkpt>
      <trkpt lat="48.47927" lon="2.21942">
        <ele>121.4</ele>
        <time>2026-02-02T11:34:55Z</time>
      </trkpt>
      <trkpt lat="48.47925" lon="2.21945">
        <ele>122</ele>
        <time>2026-02-02T11:34:56Z</time>
      </trkpt>
      <trkpt lat="48.47924" lon="2.21947">
        <ele>122.4</ele>
        <time>2026-02-02T11:34:57Z</time>
      </trkpt>
      <trkpt lat="48.47923" lon="2.2195">
        <ele>122.4</ele>
        <time>2026-02-02T11:34:58Z</time>
      </trkpt>
      <trkpt lat="48.47922" lon="2.21953">
        <ele>122.4</ele>
        <time>2026-02-02T11:34:59Z</time>
      </trkpt>
      <trkpt lat="48.4792" lon="2.21957">
        <ele>122.6</ele>
        <time>2026-02-02T11:35:00Z</time>
      </trkpt>
      <trkpt lat="48.47919" lon="2.2196">
        <ele>123</ele>
        <time>2026-02-02T11:35:01Z</time>
      </trkpt>
      <trkpt lat="48.47917" lon="2.21963">
        <ele>123</ele>
        <time>2026-02-02T11:35:02Z</time>
      </trkpt>
      <trkpt lat="48.47915" lon="2.21966">
        <ele>123</ele>
        <time>2026-02-02T11:35:03Z</time>
      </trkpt>
      <trkpt lat="48.47914" lon="2.2197">
        <ele>123</ele>
        <time>2026-02-02T11:35:04Z</time>
      </trkpt>
      <trkpt lat="48.47913" lon="2.21974">
        <ele>124</ele>
        <time>2026-02-02T11:35:05Z</time>
      </trkpt>
      <trkpt lat="48.47912" lon="2.21977">
        <ele>124</ele>
        <time>2026-02-02T11:35:06Z</time>
      </trkpt>
      <trkpt lat="48.4791" lon="2.21981">
        <ele>124</ele>
        <time>2026-02-02T11:35:07Z</time>
      </trkpt>
      <trkpt lat="48.47909" lon="2.21984">
        <ele>125</ele>
        <time>2026-02-02T11:35:08Z</time>
      </trkpt>
      <trkpt lat="48.47907" lon="2.21988">
        <ele>124.6</ele>
        <time>2026-02-02T11:35:09Z</time>
      </trkpt>
      <trkpt lat="48.47906" lon="2.21992">
        <ele>124.6</ele>
        <time>2026-02-02T11:35:10Z</time>
      </trkpt>
      <trkpt lat="48.47904" lon="2.21996">
        <ele>124.6</ele>
        <time>2026-02-02T11:35:11Z</time>
      </trkpt>
      <trkpt lat="48.47902" lon="2.22">
        <ele>125.6</ele>
        <time>2026-02-02T11:35:12Z</time>
      </trkpt>
      <trkpt lat="48.479" lon="2.22004">
        <ele>125.8</ele>
        <time>2026-02-02T11:35:13Z</time>
      </trkpt>
      <trkpt lat="48.47899" lon="2.22007">
        <ele>125.8</ele>
        <time>2026-02-02T11:35:14Z</time>
      </trkpt>
      <trkpt lat="48.47897" lon="2.2201">
        <ele>125.8</ele>
        <time>2026-02-02T11:35:15Z</time>
      </trkpt>
      <trkpt lat="48.47895" lon="2.22015">
        <ele>125.8</ele>
        <time>2026-02-02T11:35:16Z</time>
      </trkpt>
      <trkpt lat="48.47893" lon="2.22018">
        <ele>126.4</ele>
        <time>2026-02-02T11:35:17Z</time>
      </trkpt>
      <trkpt lat="48.47891" lon="2.22019">
        <ele>126.4</ele>
        <time>2026-02-02T11:35:18Z</time>
      </trkpt>
      <trkpt lat="48.47889" lon="2.22022">
        <ele>126.4</ele>
        <time>2026-02-02T11:35:19Z</time>
      </trkpt>
      <trkpt lat="48.47888" lon="2.22025">
        <ele>126.8</ele>
        <time>2026-02-02T11:35:20Z</time>
      </trkpt>
      <trkpt lat="48.47886" lon="2.2203">
        <ele>127</ele>
        <time>2026-02-02T11:35:21Z</time>
      </trkpt>
      <trkpt lat="48.47884" lon="2.22033">
        <ele>127</ele>
        <time>2026-02-02T11:35:22Z</time>
      </trkpt>
      <trkpt lat="48.47883" lon="2.22038">
        <ele>127</ele>
        <time>2026-02-02T11:35:23Z</time>
      </trkpt>
      <trkpt lat="48.47881" lon="2.22041">
        <ele>128</ele>
        <time>2026-02-02T11:35:24Z</time>
      </trkpt>
      <trkpt lat="48.47879" lon="2.22044">
        <ele>128</ele>
        <time>2026-02-02T11:35:25Z</time>
      </trkpt>
      <trkpt lat="48.47877" lon="2.22048">
        <ele>128</ele>
        <time>2026-02-02T11:35:26Z</time>
      </trkpt>
      <trkpt lat="48.47876" lon="2.22053">
        <ele>128</ele>
        <time>2026-02-02T11:35:27Z</time>
      </trkpt>
      <trkpt lat="48.47874" lon="2.22057">
        <ele>128</ele>
        <time>2026-02-02T11:35:28Z</time>
      </trkpt>
      <trkpt lat="48.47873" lon="2.2206">
        <ele>128.4</ele>
        <time>2026-02-02T11:35:29Z</time>
      </trkpt>
      <trkpt lat="48.47872" lon="2.22064">
        <ele>128.4</ele>
        <time>2026-02-02T11:35:30Z</time>
      </trkpt>
      <trkpt lat="48.47871" lon="2.22069">
        <ele>128.4</ele>
        <time>2026-02-02T11:35:31Z</time>
      </trkpt>
      <trkpt lat="48.47871" lon="2.22075">
        <ele>129</ele>
        <time>2026-02-02T11:35:32Z</time>
      </trkpt>
      <trkpt lat="48.47871" lon="2.2208">
        <ele>128.8</ele>
        <time>2026-02-02T11:35:33Z</time>
      </trkpt>
      <trkpt lat="48.4787" lon="2.22085">
        <ele>128.8</ele>
        <time>2026-02-02T11:35:34Z</time>
      </trkpt>
      <trkpt lat="48.4787" lon="2.22091">
        <ele>128.8</ele>
        <time>2026-02-02T11:35:35Z</time>
      </trkpt>
      <trkpt lat="48.47869" lon="2.22096">
        <ele>129.8</ele>
        <time>2026-02-02T11:35:36Z</time>
      </trkpt>
      <trkpt lat="48.47869" lon="2.22101">
        <ele>129.8</ele>
        <time>2026-02-02T11:35:37Z</time>
      </trkpt>
      <trkpt lat="48.47869" lon="2.22107">
        <ele>129.8</ele>
        <time>2026-02-02T11:35:38Z</time>
      </trkpt>
      <trkpt lat="48.47869" lon="2.22115">
        <ele>129.8</ele>
        <time>2026-02-02T11:35:39Z</time>
      </trkpt>
      <trkpt lat="48.4787" lon="2.22123">
        <ele>130.4</ele>
        <time>2026-02-02T11:35:40Z</time>
      </trkpt>
      <trkpt lat="48.4787" lon="2.22129">
        <ele>131</ele>
        <time>2026-02-02T11:35:41Z</time>
      </trkpt>
      <trkpt lat="48.4787" lon="2.22134">
        <ele>131</ele>
        <time>2026-02-02T11:35:42Z</time>
      </trkpt>
      <trkpt lat="48.47871" lon="2.22138">
        <ele>131</ele>
        <time>2026-02-02T11:35:43Z</time>
      </trkpt>
      <trkpt lat="48.47871" lon="2.22143">
        <ele>131</ele>
        <time>2026-02-02T11:35:44Z</time>
      </trkpt>
      <trkpt lat="48.47872" lon="2.22148">
        <ele>132.2</ele>
        <time>2026-02-02T11:35:45Z</time>
      </trkpt>
      <trkpt lat="48.47872" lon="2.22153">
        <ele>132.2</ele>
        <time>2026-02-02T11:35:46Z</time>
      </trkpt>
      <trkpt lat="48.47872" lon="2.22157">
        <ele>132.2</ele>
        <time>2026-02-02T11:35:47Z</time>
      </trkpt>
      <trkpt lat="48.47873" lon="2.22161">
        <ele>132.2</ele>
        <time>2026-02-02T11:35:48Z</time>
      </trkpt>
      <trkpt lat="48.47873" lon="2.22166">
        <ele>132.6</ele>
        <time>2026-02-02T11:35:49Z</time>
      </trkpt>
      <trkpt lat="48.47873" lon="2.2217">
        <ele>132.6</ele>
        <time>2026-02-02T11:35:50Z</time>
      </trkpt>
      <trkpt lat="48.47874" lon="2.22174">
        <ele>132.6</ele>
        <time>2026-02-02T11:35:51Z</time>
      </trkpt>
      <trkpt lat="48.47874" lon="2.22179">
        <ele>132.6</ele>
        <time>2026-02-02T11:35:52Z</time>
      </trkpt>
      <trkpt lat="48.47875" lon="2.22183">
        <ele>132.8</ele>
        <time>2026-02-02T11:35:53Z</time>
      </trkpt>
      <trkpt lat="48.47875" lon="2.22187">
        <ele>132.8</ele>
        <time>2026-02-02T11:35:54Z</time>
      </trkpt>
      <trkpt lat="48.47876" lon="2.22192">
        <ele>132.8</ele>
        <time>2026-02-02T11:35:55Z</time>
      </trkpt>
      <trkpt lat="48.47876" lon="2.22197">
        <ele>133.8</ele>
        <time>2026-02-02T11:35:56Z</time>
      </trkpt>
      <trkpt lat="48.47877" lon="2.22202">
        <ele>134</ele>
        <time>2026-02-02T11:35:57Z</time>
      </trkpt>
      <trkpt lat="48.47877" lon="2.22207">
        <ele>134</ele>
        <time>2026-02-02T11:35:58Z</time>
      </trkpt>
      <trkpt lat="48.47878" lon="2.22211">
        <ele>134</ele>
        <time>2026-02-02T11:35:59Z</time>
      </trkpt>
      <trkpt lat="48.47878" lon="2.22215">
        <ele>134</ele>
        <time>2026-02-02T11:36:00Z</time>
      </trkpt>
      <trkpt lat="48.47879" lon="2.2222">
        <ele>135</ele>
        <time>2026-02-02T11:36:01Z</time>
      </trkpt>
      <trkpt lat="48.47879" lon="2.22224">
        <ele>135</ele>
        <time>2026-02-02T11:36:02Z</time>
      </trkpt>
      <trkpt lat="48.4788" lon="2.22228">
        <ele>135</ele>
        <time>2026-02-02T11:36:03Z</time>
      </trkpt>
      <trkpt lat="48.4788" lon="2.22232">
        <ele>135</ele>
        <time>2026-02-02T11:36:04Z</time>
      </trkpt>
      <trkpt lat="48.47881" lon="2.22237">
        <ele>135</ele>
        <time>2026-02-02T11:36:05Z</time>
      </trkpt>
      <trkpt lat="48.47882" lon="2.22241">
        <ele>135</ele>
        <time>2026-02-02T11:36:06Z</time>
      </trkpt>
      <trkpt lat="48.47882" lon="2.22245">
        <ele>135</ele>
        <time>2026-02-02T11:36:07Z</time>
      </trkpt>
      <trkpt lat="48.47883" lon="2.22249">
        <ele>136</ele>
        <time>2026-02-02T11:36:08Z</time>
      </trkpt>
      <trkpt lat="48.47883" lon="2.22253">
        <ele>136.2</ele>
        <time>2026-02-02T11:36:09Z</time>
      </trkpt>
      <trkpt lat="48.47884" lon="2.22257">
        <ele>136.2</ele>
        <time>2026-02-02T11:36:10Z</time>
      </trkpt>
      <trkpt lat="48.47884" lon="2.22261">
        <ele>136.2</ele>
        <time>2026-02-02T11:36:11Z</time>
      </trkpt>
      <trkpt lat="48.47885" lon="2.22265">
        <ele>136.6</ele>
        <time>2026-02-02T11:36:12Z</time>
      </trkpt>
      <trkpt lat="48.47885" lon="2.2227">
        <ele>137.4</ele>
        <time>2026-02-02T11:36:13Z</time>
      </trkpt>
      <trkpt lat="48.47885" lon="2.22274">
        <ele>137.4</ele>
        <time>2026-02-02T11:36:14Z</time>
      </trkpt>
      <trkpt lat="48.47885" lon="2.22278">
        <ele>137.4</ele>
        <time>2026-02-02T11:36:15Z</time>
      </trkpt>
      <trkpt lat="48.47886" lon="2.22283">
        <ele>137.4</ele>
        <time>2026-02-02T11:36:16Z</time>
      </trkpt>
      <trkpt lat="48.47886" lon="2.22287">
        <ele>137.8</ele>
        <time>2026-02-02T11:36:17Z</time>
      </trkpt>
      <trkpt lat="48.47885" lon="2.22292">
        <ele>137.8</ele>
        <time>2026-02-02T11:36:18Z</time>
      </trkpt>
      <trkpt lat="48.47885" lon="2.22296">
        <ele>137.8</ele>
        <time>2026-02-02T11:36:19Z</time>
      </trkpt>
      <trkpt lat="48.47885" lon="2.223">
        <ele>137.8</ele>
        <time>2026-02-02T11:36:20Z</time>
      </trkpt>
      <trkpt lat="48.47884" lon="2.22304">
        <ele>138.4</ele>
        <time>2026-02-02T11:36:21Z</time>
      </trkpt>
      <trkpt lat="48.47884" lon="2.22309">
        <ele>138.4</ele>
        <time>2026-02-02T11:36:22Z</time>
      </trkpt>
      <trkpt lat="48.47883" lon="2.22313">
        <ele>138.4</ele>
        <time>2026-02-02T11:36:23Z</time>
      </trkpt>
      <trkpt lat="48.47882" lon="2.22317">
        <ele>138.4</ele>
        <time>2026-02-02T11:36:24Z</time>
      </trkpt>
      <trkpt lat="48.47881" lon="2.22322">
        <ele>139.4</ele>
        <time>2026-02-02T11:36:25Z</time>
      </trkpt>
      <trkpt lat="48.47881" lon="2.22326">
        <ele>139.4</ele>
        <time>2026-02-02T11:36:26Z</time>
      </trkpt>
      <trkpt lat="48.47879" lon="2.2233">
        <ele>139.4</ele>
        <time>2026-02-02T11:36:27Z</time>
      </trkpt>
      <trkpt lat="48.47878" lon="2.22334">
        <ele>139.4</ele>
        <time>2026-02-02T11:36:28Z</time>
      </trkpt>
      <trkpt lat="48.47877" lon="2.22338">
        <ele>140.2</ele>
        <time>2026-02-02T11:36:29Z</time>
      </trkpt>
      <trkpt lat="48.47876" lon="2.22342">
        <ele>140.2</ele>
        <time>2026-02-02T11:36:30Z</time>
      </trkpt>
      <trkpt lat="48.47874" lon="2.22345">
        <ele>140.2</ele>
        <time>2026-02-02T11:36:31Z</time>
      </trkpt>
      <trkpt lat="48.47872" lon="2.22349">
        <ele>140.2</ele>
        <time>2026-02-02T11:36:32Z</time>
      </trkpt>
      <trkpt lat="48.47871" lon="2.22352">
        <ele>140.4</ele>
        <time>2026-02-02T11:36:33Z</time>
      </trkpt>
      <trkpt lat="48.47869" lon="2.22356">
        <ele>140.4</ele>
        <time>2026-02-02T11:36:34Z</time>
      </trkpt>
      <trkpt lat="48.47867" lon="2.22359">
        <ele>140.4</ele>
        <time>2026-02-02T11:36:35Z</time>
      </trkpt>
      <trkpt lat="48.47865" lon="2.22361">
        <ele>141.2</ele>
        <time>2026-02-02T11:36:36Z</time>
      </trkpt>
      <trkpt lat="48.47863" lon="2.22364">
        <ele>141</ele>
        <time>2026-02-02T11:36:37Z</time>
      </trkpt>
      <trkpt lat="48.47861" lon="2.22366">
        <ele>141</ele>
        <time>2026-02-02T11:36:38Z</time>
      </trkpt>
      <trkpt lat="48.47859" lon="2.22368">
        <ele>141</ele>
        <time>2026-02-02T11:36:39Z</time>
      </trkpt>
      <trkpt lat="48.47856" lon="2.2237">
        <ele>141</ele>
        <time>2026-02-02T11:36:40Z</time>
      </trkpt>
      <trkpt lat="48.47853" lon="2.22371">
        <ele>141.6</ele>
        <time>2026-02-02T11:36:41Z</time>
      </trkpt>
      <trkpt lat="48.4785" lon="2.22372">
        <ele>141.6</ele>
        <time>2026-02-02T11:36:42Z</time>
      </trkpt>
      <trkpt lat="48.47847" lon="2.22373">
        <ele>141.6</ele>
        <time>2026-02-02T11:36:43Z</time>
      </trkpt>
      <trkpt lat="48.47844" lon="2.22373">
        <ele>142.2</ele>
        <time>2026-02-02T11:36:44Z</time>
      </trkpt>
      <trkpt lat="48.4784" lon="2.22372">
        <ele>142.4</ele>
        <time>2026-02-02T11:36:45Z</time>
      </trkpt>
      <trkpt lat="48.47837" lon="2.22371">
        <ele>142.4</ele>
        <time>2026-02-02T11:36:46Z</time>
      </trkpt>
      <trkpt lat="48.47835" lon="2.22369">
        <ele>142.4</ele>
        <time>2026-02-02T11:36:47Z</time>
      </trkpt>
      <trkpt lat="48.47832" lon="2.22367">
        <ele>142.8</ele>
        <time>2026-02-02T11:36:48Z</time>
      </trkpt>
      <trkpt lat="48.47829" lon="2.22364">
        <ele>142.8</ele>
        <time>2026-02-02T11:36:49Z</time>
      </trkpt>
      <trkpt lat="48.47827" lon="2.22361">
        <ele>142.8</ele>
        <time>2026-02-02T11:36:50Z</time>
      </trkpt>
      <trkpt lat="48.47824" lon="2.22358">
        <ele>142.8</ele>
        <time>2026-02-02T11:36:51Z</time>
      </trkpt>
      <trkpt lat="48.47822" lon="2.22355">
        <ele>143.4</ele>
        <time>2026-02-02T11:36:52Z</time>
      </trkpt>
      <trkpt lat="48.4782" lon="2.22351">
        <ele>143.4</ele>
        <time>2026-02-02T11:36:53Z</time>
      </trkpt>
      <trkpt lat="48.47817" lon="2.22348">
        <ele>143.4</ele>
        <time>2026-02-02T11:36:54Z</time>
      </trkpt>
      <trkpt lat="48.47815" lon="2.22344">
        <ele>143.4</ele>
        <time>2026-02-02T11:36:55Z</time>
      </trkpt>
      <trkpt lat="48.47812" lon="2.2234">
        <ele>143.6</ele>
        <time>2026-02-02T11:36:56Z</time>
      </trkpt>
      <trkpt lat="48.4781" lon="2.22337">
        <ele>144</ele>
        <time>2026-02-02T11:36:57Z</time>
      </trkpt>
      <trkpt lat="48.47808" lon="2.22333">
        <ele>144</ele>
        <time>2026-02-02T11:36:58Z</time>
      </trkpt>
      <trkpt lat="48.47805" lon="2.22329">
        <ele>144</ele>
        <time>2026-02-02T11:36:59Z</time>
      </trkpt>
      <trkpt lat="48.47803" lon="2.22326">
        <ele>144.4</ele>
        <time>2026-02-02T11:37:00Z</time>
      </trkpt>
      <trkpt lat="48.478" lon="2.22322">
        <ele>144.8</ele>
        <time>2026-02-02T11:37:01Z</time>
      </trkpt>
      <trkpt lat="48.47797" lon="2.22318">
        <ele>144.8</ele>
        <time>2026-02-02T11:37:02Z</time>
      </trkpt>
      <trkpt lat="48.47795" lon="2.22315">
        <ele>144.8</ele>
        <time>2026-02-02T11:37:03Z</time>
      </trkpt>
      <trkpt lat="48.47792" lon="2.22312">
        <ele>145.2</ele>
        <time>2026-02-02T11:37:04Z</time>
      </trkpt>
      <trkpt lat="48.47789" lon="2.22309">
        <ele>145.4</ele>
        <time>2026-02-02T11:37:05Z</time>
      </trkpt>
      <trkpt lat="48.47785" lon="2.22307">
        <ele>145.4</ele>
        <time>2026-02-02T11:37:06Z</time>
      </trkpt>
      <trkpt lat="48.47782" lon="2.22305">
        <ele>145.4</ele>
        <time>2026-02-02T11:37:07Z</time>
      </trkpt>
      <trkpt lat="48.47778" lon="2.22304">
        <ele>145.4</ele>
        <time>2026-02-02T11:37:08Z</time>
      </trkpt>
      <trkpt lat="48.47775" lon="2.22303">
        <ele>145.8</ele>
        <time>2026-02-02T11:37:09Z</time>
      </trkpt>
      <trkpt lat="48.47771" lon="2.22303">
        <ele>145.8</ele>
        <time>2026-02-02T11:37:10Z</time>
      </trkpt>
      <trkpt lat="48.47767" lon="2.22303">
        <ele>145.8</ele>
        <time>2026-02-02T11:37:11Z</time>
      </trkpt>
      <trkpt lat="48.47763" lon="2.22304">
        <ele>145.8</ele>
        <time>2026-02-02T11:37:12Z</time>
      </trkpt>
      <trkpt lat="48.4776" lon="2.22306">
        <ele>146.2</ele>
        <time>2026-02-02T11:37:13Z</time>
      </trkpt>
      <trkpt lat="48.47756" lon="2.22308">
        <ele>146.2</ele>
        <time>2026-02-02T11:37:14Z</time>
      </trkpt>
      <trkpt lat="48.47752" lon="2.2231">
        <ele>146.2</ele>
        <time>2026-02-02T11:37:15Z</time>
      </trkpt>
      <trkpt lat="48.47748" lon="2.22312">
        <ele>146.2</ele>
        <time>2026-02-02T11:37:16Z</time>
      </trkpt>
      <trkpt lat="48.47744" lon="2.22314">
        <ele>146.2</ele>
        <time>2026-02-02T11:37:17Z</time>
      </trkpt>
      <trkpt lat="48.4774" lon="2.22317">
        <ele>146.2</ele>
        <time>2026-02-02T11:37:18Z</time>
      </trkpt>
      <trkpt lat="48.47736" lon="2.22319">
        <ele>146.2</ele>
        <time>2026-02-02T11:37:19Z</time>
      </trkpt>
      <trkpt lat="48.47732" lon="2.22322">
        <ele>146.2</ele>
        <time>2026-02-02T11:37:20Z</time>
      </trkpt>
      <trkpt lat="48.47728" lon="2.22324">
        <ele>146.2</ele>
        <time>2026-02-02T11:37:21Z</time>
      </trkpt>
      <trkpt lat="48.47725" lon="2.22327">
        <ele>146.2</ele>
        <time>2026-02-02T11:37:22Z</time>
      </trkpt>
      <trkpt lat="48.47721" lon="2.22331">
        <ele>146.2</ele>
        <time>2026-02-02T11:37:23Z</time>
      </trkpt>
      <trkpt lat="48.47717" lon="2.22334">
        <ele>146.2</ele>
        <time>2026-02-02T11:37:24Z</time>
      </trkpt>
      <trkpt lat="48.47713" lon="2.22338">
        <ele>146.4</ele>
        <time>2026-02-02T11:37:25Z</time>
      </trkpt>
      <trkpt lat="48.4771" lon="2.22341">
        <ele>146.4</ele>
        <time>2026-02-02T11:37:26Z</time>
      </trkpt>
      <trkpt lat="48.47706" lon="2.22345">
        <ele>146.4</ele>
        <time>2026-02-02T11:37:27Z</time>
      </trkpt>
      <trkpt lat="48.47703" lon="2.22349">
        <ele>146.4</ele>
        <time>2026-02-02T11:37:28Z</time>
      </trkpt>
      <trkpt lat="48.47699" lon="2.22353">
        <ele>146.2</ele>
        <time>2026-02-02T11:37:29Z</time>
      </trkpt>
      <trkpt lat="48.47696" lon="2.22358">
        <ele>146.2</ele>
        <time>2026-02-02T11:37:30Z</time>
      </trkpt>
      <trkpt lat="48.47692" lon="2.22362">
        <ele>146.2</ele>
        <time>2026-02-02T11:37:31Z</time>
      </trkpt>
      <trkpt lat="48.47689" lon="2.22366">
        <ele>146.8</ele>
        <time>2026-02-02T11:37:32Z</time>
      </trkpt>
      <trkpt lat="48.47686" lon="2.22371">
        <ele>146.8</ele>
        <time>2026-02-02T11:37:33Z</time>
      </trkpt>
      <trkpt lat="48.47682" lon="2.22375">
        <ele>146.8</ele>
        <time>2026-02-02T11:37:34Z</time>
      </trkpt>
      <trkpt lat="48.47679" lon="2.2238">
        <ele>146.8</ele>
        <time>2026-02-02T11:37:35Z</time>
      </trkpt>
      <trkpt lat="48.47676" lon="2.22384">
        <ele>147.6</ele>
        <time>2026-02-02T11:37:36Z</time>
      </trkpt>
      <trkpt lat="48.47673" lon="2.22388">
        <ele>147.4</ele>
        <time>2026-02-02T11:37:37Z</time>
      </trkpt>
      <trkpt lat="48.4767" lon="2.22393">
        <ele>147.4</ele>
        <time>2026-02-02T11:37:38Z</time>
      </trkpt>
      <trkpt lat="48.47667" lon="2.22397">
        <ele>147.4</ele>
        <time>2026-02-02T11:37:39Z</time>
      </trkpt>
      <trkpt lat="48.47664" lon="2.22401">
        <ele>148.4</ele>
        <time>2026-02-02T11:37:40Z</time>
      </trkpt>
      <trkpt lat="48.47661" lon="2.22404">
        <ele>148.2</ele>
        <time>2026-02-02T11:37:41Z</time>
      </trkpt>
      <trkpt lat="48.47658" lon="2.22408">
        <ele>148.2</ele>
        <time>2026-02-02T11:37:42Z</time>
      </trkpt>
      <trkpt lat="48.47655" lon="2.22412">
        <ele>148.2</ele>
        <time>2026-02-02T11:37:43Z</time>
      </trkpt>
      <trkpt lat="48.47652" lon="2.22417">
        <ele>148.2</ele>
        <time>2026-02-02T11:37:44Z</time>
      </trkpt>
      <trkpt lat="48.47648" lon="2.22422">
        <ele>148.8</ele>
        <time>2026-02-02T11:37:45Z</time>
      </trkpt>
      <trkpt lat="48.47644" lon="2.22427">
        <ele>148.8</ele>
        <time>2026-02-02T11:37:46Z</time>
      </trkpt>
      <trkpt lat="48.47641" lon="2.22432">
        <ele>148.8</ele>
        <time>2026-02-02T11:37:47Z</time>
      </trkpt>
      <trkpt lat="48.47637" lon="2.22436">
        <ele>149.2</ele>
        <time>2026-02-02T11:37:48Z</time>
      </trkpt>
      <trkpt lat="48.47634" lon="2.22441">
        <ele>150.2</ele>
        <time>2026-02-02T11:37:49Z</time>
      </trkpt>
      <trkpt lat="48.47631" lon="2.22445">
        <ele>150.2</ele>
        <time>2026-02-02T11:37:50Z</time>
      </trkpt>
      <trkpt lat="48.47628" lon="2.22449">
        <ele>150.2</ele>
        <time>2026-02-02T11:37:51Z</time>
      </trkpt>
      <trkpt lat="48.47624" lon="2.22453">
        <ele>150.2</ele>
        <time>2026-02-02T11:37:52Z</time>
      </trkpt>
      <trkpt lat="48.47621" lon="2.22457">
        <ele>151</ele>
        <time>2026-02-02T11:37:53Z</time>
      </trkpt>
      <trkpt lat="48.47618" lon="2.2246">
        <ele>151</ele>
        <time>2026-02-02T11:37:54Z</time>
      </trkpt>
      <trkpt lat="48.47614" lon="2.22464">
        <ele>151</ele>
        <time>2026-02-02T11:37:55Z</time>
      </trkpt>
      <trkpt lat="48.47611" lon="2.22467">
        <ele>151.2</ele>
        <time>2026-02-02T11:37:56Z</time>
      </trkpt>
      <trkpt lat="48.47608" lon="2.22471">
        <ele>152</ele>
        <time>2026-02-02T11:37:57Z</time>
      </trkpt>
      <trkpt lat="48.47605" lon="2.22475">
        <ele>152</ele>
        <time>2026-02-02T11:37:58Z</time>
      </trkpt>
      <trkpt lat="48.47602" lon="2.22478">
        <ele>152</ele>
        <time>2026-02-02T11:37:59Z</time>
      </trkpt>
      <trkpt lat="48.47598" lon="2.22481">
        <ele>152.2</ele>
        <time>2026-02-02T11:38:00Z</time>
      </trkpt>
      <trkpt lat="48.47595" lon="2.22484">
        <ele>152.8</ele>
        <time>2026-02-02T11:38:01Z</time>
      </trkpt>
      <trkpt lat="48.47591" lon="2.22487">
        <ele>152.8</ele>
        <time>2026-02-02T11:38:02Z</time>
      </trkpt>
      <trkpt lat="48.47588" lon="2.2249">
        <ele>152.8</ele>
        <time>2026-02-02T11:38:03Z</time>
      </trkpt>
      <trkpt lat="48.47584" lon="2.22494">
        <ele>153</ele>
        <time>2026-02-02T11:38:04Z</time>
      </trkpt>
      <trkpt lat="48.47581" lon="2.22498">
        <ele>153</ele>
        <time>2026-02-02T11:38:05Z</time>
      </trkpt>
      <trkpt lat="48.47577" lon="2.22501">
        <ele>153</ele>
        <time>2026-02-02T11:38:06Z</time>
      </trkpt>
      <trkpt lat="48.47574" lon="2.22505">
        <ele>153</ele>
        <time>2026-02-02T11:38:07Z</time>
      </trkpt>
      <trkpt lat="48.4757" lon="2.22508">
        <ele>153</ele>
        <time>2026-02-02T11:38:08Z</time>
      </trkpt>
      <trkpt lat="48.47567" lon="2.22512">
        <ele>153.6</ele>
        <time>2026-02-02T11:38:09Z</time>
      </trkpt>
      <trkpt lat="48.47563" lon="2.22515">
        <ele>153.6</ele>
        <time>2026-02-02T11:38:10Z</time>
      </trkpt>
      <trkpt lat="48.4756" lon="2.22519">
        <ele>153.6</ele>
        <time>2026-02-02T11:38:11Z</time>
      </trkpt>
      <trkpt lat="48.47556" lon="2.22523">
        <ele>154</ele>
        <time>2026-02-02T11:38:12Z</time>
      </trkpt>
      <trkpt lat="48.47553" lon="2.22527">
        <ele>154</ele>
        <time>2026-02-02T11:38:13Z</time>
      </trkpt>
      <trkpt lat="48.47549" lon="2.2253">
        <ele>154</ele>
        <time>2026-02-02T11:38:14Z</time>
      </trkpt>
      <trkpt lat="48.47546" lon="2.22534">
        <ele>154</ele>
        <time>2026-02-02T11:38:15Z</time>
      </trkpt>
      <trkpt lat="48.47542" lon="2.22538">
        <ele>154</ele>
        <time>2026-02-02T11:38:16Z</time>
      </trkpt>
      <trkpt lat="48.47539" lon="2.22542">
        <ele>154</ele>
        <time>2026-02-02T11:38:17Z</time>
      </trkpt>
      <trkpt lat="48.47536" lon="2.22546">
        <ele>154</ele>
        <time>2026-02-02T11:38:18Z</time>
      </trkpt>
      <trkpt lat="48.47533" lon="2.2255">
        <ele>154</ele>
        <time>2026-02-02T11:38:19Z</time>
      </trkpt>
      <trkpt lat="48.4753" lon="2.22554">
        <ele>153.8</ele>
        <time>2026-02-02T11:38:20Z</time>
      </trkpt>
      <trkpt lat="48.47527" lon="2.22559">
        <ele>153.6</ele>
        <time>2026-02-02T11:38:21Z</time>
      </trkpt>
      <trkpt lat="48.47523" lon="2.22563">
        <ele>153.6</ele>
        <time>2026-02-02T11:38:22Z</time>
      </trkpt>
      <trkpt lat="48.4752" lon="2.22568">
        <ele>153.6</ele>
        <time>2026-02-02T11:38:23Z</time>
      </trkpt>
      <trkpt lat="48.47517" lon="2.22572">
        <ele>154</ele>
        <time>2026-02-02T11:38:24Z</time>
      </trkpt>
      <trkpt lat="48.47514" lon="2.22577">
        <ele>154.2</ele>
        <time>2026-02-02T11:38:25Z</time>
      </trkpt>
      <trkpt lat="48.47511" lon="2.22582">
        <ele>154.2</ele>
        <time>2026-02-02T11:38:26Z</time>
      </trkpt>
      <trkpt lat="48.47508" lon="2.22587">
        <ele>154.2</ele>
        <time>2026-02-02T11:38:27Z</time>
      </trkpt>
      <trkpt lat="48.47506" lon="2.22591">
        <ele>153.8</ele>
        <time>2026-02-02T11:38:28Z</time>
      </trkpt>
      <trkpt lat="48.47503" lon="2.22596">
        <ele>154.2</ele>
        <time>2026-02-02T11:38:29Z</time>
      </trkpt>
      <trkpt lat="48.475" lon="2.22601">
        <ele>154.2</ele>
        <time>2026-02-02T11:38:30Z</time>
      </trkpt>
      <trkpt lat="48.47497" lon="2.22606">
        <ele>154.2</ele>
        <time>2026-02-02T11:38:31Z</time>
      </trkpt>
      <trkpt lat="48.47494" lon="2.22611">
        <ele>154.2</ele>
        <time>2026-02-02T11:38:32Z</time>
      </trkpt>
      <trkpt lat="48.47491" lon="2.22616">
        <ele>154</ele>
        <time>2026-02-02T11:38:33Z</time>
      </trkpt>
      <trkpt lat="48.47489" lon="2.22621">
        <ele>154</ele>
        <time>2026-02-02T11:38:34Z</time>
      </trkpt>
      <trkpt lat="48.47486" lon="2.22626">
        <ele>154</ele>
        <time>2026-02-02T11:38:35Z</time>
      </trkpt>
      <trkpt lat="48.47483" lon="2.22632">
        <ele>154</ele>
        <time>2026-02-02T11:38:36Z</time>
      </trkpt>
      <trkpt lat="48.4748" lon="2.22637">
        <ele>153.8</ele>
        <time>2026-02-02T11:38:37Z</time>
      </trkpt>
      <trkpt lat="48.47477" lon="2.22642">
        <ele>153.8</ele>
        <time>2026-02-02T11:38:38Z</time>
      </trkpt>
      <trkpt lat="48.47474" lon="2.22647">
        <ele>153.8</ele>
        <time>2026-02-02T11:38:39Z</time>
      </trkpt>
      <trkpt lat="48.47472" lon="2.22652">
        <ele>153.8</ele>
        <time>2026-02-02T11:38:40Z</time>
      </trkpt>
      <trkpt lat="48.47469" lon="2.22657">
        <ele>153.8</ele>
        <time>2026-02-02T11:38:41Z</time>
      </trkpt>
      <trkpt lat="48.47466" lon="2.22662">
        <ele>153.8</ele>
        <time>2026-02-02T11:38:42Z</time>
      </trkpt>
      <trkpt lat="48.47463" lon="2.22667">
        <ele>153.8</ele>
        <time>2026-02-02T11:38:43Z</time>
      </trkpt>
      <trkpt lat="48.4746" lon="2.22672">
        <ele>153.8</ele>
        <time>2026-02-02T11:38:44Z</time>
      </trkpt>
      <trkpt lat="48.47457" lon="2.22677">
        <ele>154.2</ele>
        <time>2026-02-02T11:38:45Z</time>
      </trkpt>
      <trkpt lat="48.47454" lon="2.22683">
        <ele>154.2</ele>
        <time>2026-02-02T11:38:46Z</time>
      </trkpt>
      <trkpt lat="48.47451" lon="2.22688">
        <ele>154.2</ele>
        <time>2026-02-02T11:38:47Z</time>
      </trkpt>
      <trkpt lat="48.47448" lon="2.22693">
        <ele>153.8</ele>
        <time>2026-02-02T11:38:48Z</time>
      </trkpt>
      <trkpt lat="48.47446" lon="2.22698">
        <ele>154.2</ele>
        <time>2026-02-02T11:38:49Z</time>
      </trkpt>
      <trkpt lat="48.47443" lon="2.22703">
        <ele>154.2</ele>
        <time>2026-02-02T11:38:50Z</time>
      </trkpt>
      <trkpt lat="48.4744" lon="2.22707">
        <ele>154.2</ele>
        <time>2026-02-02T11:38:51Z</time>
      </trkpt>
      <trkpt lat="48.47438" lon="2.22712">
        <ele>154.2</ele>
        <time>2026-02-02T11:38:52Z</time>
      </trkpt>
      <trkpt lat="48.47435" lon="2.22717">
        <ele>154.4</ele>
        <time>2026-02-02T11:38:53Z</time>
      </trkpt>
      <trkpt lat="48.47432" lon="2.22722">
        <ele>154.4</ele>
        <time>2026-02-02T11:38:54Z</time>
      </trkpt>
      <trkpt lat="48.4743" lon="2.22726">
        <ele>154.4</ele>
        <time>2026-02-02T11:38:55Z</time>
      </trkpt>
      <trkpt lat="48.47427" lon="2.22731">
        <ele>154.4</ele>
        <time>2026-02-02T11:38:56Z</time>
      </trkpt>
      <trkpt lat="48.47424" lon="2.22736">
        <ele>154.8</ele>
        <time>2026-02-02T11:38:57Z</time>
      </trkpt>
      <trkpt lat="48.47422" lon="2.22741">
        <ele>154.8</ele>
        <time>2026-02-02T11:38:58Z</time>
      </trkpt>
      <trkpt lat="48.47419" lon="2.22746">
        <ele>154.8</ele>
        <time>2026-02-02T11:38:59Z</time>
      </trkpt>
      <trkpt lat="48.47416" lon="2.2275">
        <ele>154.8</ele>
        <time>2026-02-02T11:39:00Z</time>
      </trkpt>
      <trkpt lat="48.47413" lon="2.22755">
        <ele>155</ele>
        <time>2026-02-02T11:39:01Z</time>
      </trkpt>
      <trkpt lat="48.47411" lon="2.2276">
        <ele>155</ele>
        <time>2026-02-02T11:39:02Z</time>
      </trkpt>
      <trkpt lat="48.47408" lon="2.22765">
        <ele>155</ele>
        <time>2026-02-02T11:39:03Z</time>
      </trkpt>
      <trkpt lat="48.47405" lon="2.2277">
        <ele>155.8</ele>
        <time>2026-02-02T11:39:04Z</time>
      </trkpt>
      <trkpt lat="48.47402" lon="2.22774">
        <ele>155.6</ele>
        <time>2026-02-02T11:39:05Z</time>
      </trkpt>
      <trkpt lat="48.47399" lon="2.22779">
        <ele>155.6</ele>
        <time>2026-02-02T11:39:06Z</time>
      </trkpt>
      <trkpt lat="48.47397" lon="2.22784">
        <ele>155.6</ele>
        <time>2026-02-02T11:39:07Z</time>
      </trkpt>
      <trkpt lat="48.47394" lon="2.22789">
        <ele>156</ele>
        <time>2026-02-02T11:39:08Z</time>
      </trkpt>
      <trkpt lat="48.47391" lon="2.22794">
        <ele>156.4</ele>
        <time>2026-02-02T11:39:09Z</time>
      </trkpt>
      <trkpt lat="48.47389" lon="2.22799">
        <ele>156.4</ele>
        <time>2026-02-02T11:39:10Z</time>
      </trkpt>
      <trkpt lat="48.47386" lon="2.22804">
        <ele>156.4</ele>
        <time>2026-02-02T11:39:11Z</time>
      </trkpt>
      <trkpt lat="48.47383" lon="2.22809">
        <ele>156.4</ele>
        <time>2026-02-02T11:39:12Z</time>
      </trkpt>
      <trkpt lat="48.4738" lon="2.22814">
        <ele>156.8</ele>
        <time>2026-02-02T11:39:13Z</time>
      </trkpt>
      <trkpt lat="48.47377" lon="2.22819">
        <ele>156.8</ele>
        <time>2026-02-02T11:39:14Z</time>
      </trkpt>
      <trkpt lat="48.47374" lon="2.22824">
        <ele>156.8</ele>
        <time>2026-02-02T11:39:15Z</time>
      </trkpt>
      <trkpt lat="48.47371" lon="2.22829">
        <ele>157</ele>
        <time>2026-02-02T11:39:16Z</time>
      </trkpt>
      <trkpt lat="48.47368" lon="2.22834">
        <ele>157</ele>
        <time>2026-02-02T11:39:17Z</time>
      </trkpt>
      <trkpt lat="48.47366" lon="2.22839">
        <ele>157</ele>
        <time>2026-02-02T11:39:18Z</time>
      </trkpt>
      <trkpt lat="48.47363" lon="2.22844">
        <ele>157</ele>
        <time>2026-02-02T11:39:19Z</time>
      </trkpt>
      <trkpt lat="48.4736" lon="2.22849">
        <ele>157</ele>
        <time>2026-02-02T11:39:20Z</time>
      </trkpt>
      <trkpt lat="48.47357" lon="2.22855">
        <ele>157.6</ele>
        <time>2026-02-02T11:39:21Z</time>
      </trkpt>
      <trkpt lat="48.47354" lon="2.2286">
        <ele>157.6</ele>
        <time>2026-02-02T11:39:22Z</time>
      </trkpt>
      <trkpt lat="48.47351" lon="2.22865">
        <ele>157.6</ele>
        <time>2026-02-02T11:39:23Z</time>
      </trkpt>
      <trkpt lat="48.47348" lon="2.2287">
        <ele>158.2</ele>
        <time>2026-02-02T11:39:24Z</time>
      </trkpt>
      <trkpt lat="48.47345" lon="2.22875">
        <ele>158.2</ele>
        <time>2026-02-02T11:39:25Z</time>
      </trkpt>
      <trkpt lat="48.47342" lon="2.2288">
        <ele>158.2</ele>
        <time>2026-02-02T11:39:26Z</time>
      </trkpt>
      <trkpt lat="48.47339" lon="2.22885">
        <ele>158.2</ele>
        <time>2026-02-02T11:39:27Z</time>
      </trkpt>
      <trkpt lat="48.47336" lon="2.2289">
        <ele>158.8</ele>
        <time>2026-02-02T11:39:28Z</time>
      </trkpt>
      <trkpt lat="48.47334" lon="2.22896">
        <ele>159.4</ele>
        <time>2026-02-02T11:39:29Z</time>
      </trkpt>
      <trkpt lat="48.47331" lon="2.22901">
        <ele>159.4</ele>
        <time>2026-02-02T11:39:30Z</time>
      </trkpt>
      <trkpt lat="48.47328" lon="2.22906">
        <ele>159.4</ele>
        <time>2026-02-02T11:39:31Z</time>
      </trkpt>
      <trkpt lat="48.47325" lon="2.22911">
        <ele>159.4</ele>
        <time>2026-02-02T11:39:32Z</time>
      </trkpt>
      <trkpt lat="48.47322" lon="2.22916">
        <ele>159.8</ele>
        <time>2026-02-02T11:39:33Z</time>
      </trkpt>
      <trkpt lat="48.4732" lon="2.22921">
        <ele>159.8</ele>
        <time>2026-02-02T11:39:34Z</time>
      </trkpt>
      <trkpt lat="48.47317" lon="2.22926">
        <ele>159.8</ele>
        <time>2026-02-02T11:39:35Z</time>
      </trkpt>
      <trkpt lat="48.47315" lon="2.22931">
        <ele>160.6</ele>
        <time>2026-02-02T11:39:36Z</time>
      </trkpt>
      <trkpt lat="48.47312" lon="2.22936">
        <ele>160.6</ele>
        <time>2026-02-02T11:39:37Z</time>
      </trkpt>
      <trkpt lat="48.4731" lon="2.22942">
        <ele>160.6</ele>
        <time>2026-02-02T11:39:38Z</time>
      </trkpt>
      <trkpt lat="48.47308" lon="2.22947">
        <ele>160.6</ele>
        <time>2026-02-02T11:39:39Z</time>
      </trkpt>
      <trkpt lat="48.47306" lon="2.22952">
        <ele>160.6</ele>
        <time>2026-02-02T11:39:40Z</time>
      </trkpt>
      <trkpt lat="48.47303" lon="2.22958">
        <ele>161.4</ele>
        <time>2026-02-02T11:39:41Z</time>
      </trkpt>
      <trkpt lat="48.47301" lon="2.22964">
        <ele>161.4</ele>
        <time>2026-02-02T11:39:42Z</time>
      </trkpt>
      <trkpt lat="48.47299" lon="2.22969">
        <ele>161.4</ele>
        <time>2026-02-02T11:39:43Z</time>
      </trkpt>
      <trkpt lat="48.47297" lon="2.22975">
        <ele>162</ele>
        <time>2026-02-02T11:39:44Z</time>
      </trkpt>
      <trkpt lat="48.47296" lon="2.22981">
        <ele>161.8</ele>
        <time>2026-02-02T11:39:45Z</time>
      </trkpt>
      <trkpt lat="48.47294" lon="2.22987">
        <ele>161.8</ele>
        <time>2026-02-02T11:39:46Z</time>
      </trkpt>
      <trkpt lat="48.47292" lon="2.22994">
        <ele>161.8</ele>
        <time>2026-02-02T11:39:47Z</time>
      </trkpt>
      <trkpt lat="48.47291" lon="2.23">
        <ele>162.4</ele>
        <time>2026-02-02T11:39:48Z</time>
      </trkpt>
      <trkpt lat="48.47289" lon="2.23007">
        <ele>161.2</ele>
        <time>2026-02-02T11:39:49Z</time>
      </trkpt>
      <trkpt lat="48.47287" lon="2.23014">
        <ele>161.2</ele>
        <time>2026-02-02T11:39:50Z</time>
      </trkpt>
      <trkpt lat="48.47286" lon="2.23021">
        <ele>161.2</ele>
        <time>2026-02-02T11:39:51Z</time>
      </trkpt>
      <trkpt lat="48.47284" lon="2.23028">
        <ele>161.8</ele>
        <time>2026-02-02T11:39:52Z</time>
      </trkpt>
      <trkpt lat="48.47283" lon="2.23035">
        <ele>161.6</ele>
        <time>2026-02-02T11:39:53Z</time>
      </trkpt>
      <trkpt lat="48.47282" lon="2.23043">
        <ele>161.6</ele>
        <time>2026-02-02T11:39:54Z</time>
      </trkpt>
      <trkpt lat="48.47281" lon="2.23051">
        <ele>161.6</ele>
        <time>2026-02-02T11:39:55Z</time>
      </trkpt>
      <trkpt lat="48.4728" lon="2.23058">
        <ele>161.6</ele>
        <time>2026-02-02T11:39:56Z</time>
      </trkpt>
      <trkpt lat="48.47279" lon="2.23066">
        <ele>161.2</ele>
        <time>2026-02-02T11:39:57Z</time>
      </trkpt>
      <trkpt lat="48.47279" lon="2.23074">
        <ele>161.2</ele>
        <time>2026-02-02T11:39:58Z</time>
      </trkpt>
      <trkpt lat="48.47278" lon="2.23081">
        <ele>161.2</ele>
        <time>2026-02-02T11:39:59Z</time>
      </trkpt>
      <trkpt lat="48.47278" lon="2.23089">
        <ele>161.2</ele>
        <time>2026-02-02T11:40:00Z</time>
      </trkpt>
      <trkpt lat="48.47278" lon="2.23097">
        <ele>161.8</ele>
        <time>2026-02-02T11:40:01Z</time>
      </trkpt>
      <trkpt lat="48.47279" lon="2.23105">
        <ele>161.8</ele>
        <time>2026-02-02T11:40:02Z</time>
      </trkpt>
      <trkpt lat="48.47279" lon="2.23113">
        <ele>161.8</ele>
        <time>2026-02-02T11:40:03Z</time>
      </trkpt>
      <trkpt lat="48.47279" lon="2.23121">
        <ele>161.8</ele>
        <time>2026-02-02T11:40:04Z</time>
      </trkpt>
      <trkpt lat="48.4728" lon="2.23129">
        <ele>162.2</ele>
        <time>2026-02-02T11:40:05Z</time>
      </trkpt>
      <trkpt lat="48.47281" lon="2.23137">
        <ele>162.2</ele>
        <time>2026-02-02T11:40:06Z</time>
      </trkpt>
      <trkpt lat="48.47281" lon="2.23145">
        <ele>162.2</ele>
        <time>2026-02-02T11:40:07Z</time>
      </trkpt>
      <trkpt lat="48.47282" lon="2.23154">
        <ele>162</ele>
        <time>2026-02-02T11:40:08Z</time>
      </trkpt>
      <trkpt lat="48.47283" lon="2.23162">
        <ele>161.8</ele>
        <time>2026-02-02T11:40:09Z</time>
      </trkpt>
      <trkpt lat="48.47284" lon="2.23171">
        <ele>161.8</ele>
        <time>2026-02-02T11:40:10Z</time>
      </trkpt>
      <trkpt lat="48.47285" lon="2.23179">
        <ele>161.8</ele>
        <time>2026-02-02T11:40:11Z</time>
      </trkpt>
      <trkpt lat="48.47286" lon="2.23188">
        <ele>161.6</ele>
        <time>2026-02-02T11:40:12Z</time>
      </trkpt>
      <trkpt lat="48.47287" lon="2.23197">
        <ele>161.2</ele>
        <time>2026-02-02T11:40:13Z</time>
      </trkpt>
      <trkpt lat="48.47288" lon="2.23205">
        <ele>161.2</ele>
        <time>2026-02-02T11:40:14Z</time>
      </trkpt>
      <trkpt lat="48.47289" lon="2.23214">
        <ele>161.2</ele>
        <time>2026-02-02T11:40:15Z</time>
      </trkpt>
      <trkpt lat="48.4729" lon="2.23223">
        <ele>160.2</ele>
        <time>2026-02-02T11:40:16Z</time>
      </trkpt>
      <trkpt lat="48.47291" lon="2.23233">
        <ele>159.6</ele>
        <time>2026-02-02T11:40:17Z</time>
      </trkpt>
      <trkpt lat="48.47292" lon="2.23242">
        <ele>159.6</ele>
        <time>2026-02-02T11:40:18Z</time>
      </trkpt>
      <trkpt lat="48.47293" lon="2.23251">
        <ele>159.6</ele>
        <time>2026-02-02T11:40:19Z</time>
      </trkpt>
      <trkpt lat="48.47295" lon="2.23261">
        <ele>159.6</ele>
        <time>2026-02-02T11:40:20Z</time>
      </trkpt>
      <trkpt lat="48.47296" lon="2.2327">
        <ele>159.6</ele>
        <time>2026-02-02T11:40:21Z</time>
      </trkpt>
      <trkpt lat="48.47297" lon="2.2328">
        <ele>159.6</ele>
        <time>2026-02-02T11:40:22Z</time>
      </trkpt>
      <trkpt lat="48.47299" lon="2.23289">
        <ele>159.6</ele>
        <time>2026-02-02T11:40:23Z</time>
      </trkpt>
      <trkpt lat="48.473" lon="2.23299">
        <ele>159.2</ele>
        <time>2026-02-02T11:40:24Z</time>
      </trkpt>
      <trkpt lat="48.47301" lon="2.23309">
        <ele>158.6</ele>
        <time>2026-02-02T11:40:25Z</time>
      </trkpt>
      <trkpt lat="48.47302" lon="2.2332">
        <ele>158.6</ele>
        <time>2026-02-02T11:40:26Z</time>
      </trkpt>
      <trkpt lat="48.47303" lon="2.23331">
        <ele>158.6</ele>
        <time>2026-02-02T11:40:27Z</time>
      </trkpt>
      <trkpt lat="48.47304" lon="2.23343">
        <ele>158.2</ele>
        <time>2026-02-02T11:40:28Z</time>
      </trkpt>
      <trkpt lat="48.47306" lon="2.23355">
        <ele>158.4</ele>
        <time>2026-02-02T11:40:29Z</time>
      </trkpt>
      <trkpt lat="48.47307" lon="2.23366">
        <ele>158.4</ele>
        <time>2026-02-02T11:40:30Z</time>
      </trkpt>
      <trkpt lat="48.47309" lon="2.23378">
        <ele>158.4</ele>
        <time>2026-02-02T11:40:31Z</time>
      </trkpt>
      <trkpt lat="48.4731" lon="2.23389">
        <ele>157.4</ele>
        <time>2026-02-02T11:40:32Z</time>
      </trkpt>
      <trkpt lat="48.47311" lon="2.23401">
        <ele>157</ele>
        <time>2026-02-02T11:40:33Z</time>
      </trkpt>
      <trkpt lat="48.47312" lon="2.23413">
        <ele>157</ele>
        <time>2026-02-02T11:40:34Z</time>
      </trkpt>
      <trkpt lat="48.47313" lon="2.23425">
        <ele>157</ele>
        <time>2026-02-02T11:40:35Z</time>
      </trkpt>
      <trkpt lat="48.47314" lon="2.23437">
        <ele>156.4</ele>
        <time>2026-02-02T11:40:36Z</time>
      </trkpt>
      <trkpt lat="48.47315" lon="2.23449">
        <ele>155.2</ele>
        <time>2026-02-02T11:40:37Z</time>
      </trkpt>
      <trkpt lat="48.47316" lon="2.23462">
        <ele>155.2</ele>
        <time>2026-02-02T11:40:38Z</time>
      </trkpt>
      <trkpt lat="48.47317" lon="2.23474">
        <ele>155.2</ele>
        <time>2026-02-02T11:40:39Z</time>
      </trkpt>
      <trkpt lat="48.47318" lon="2.23487">
        <ele>155.2</ele>
        <time>2026-02-02T11:40:40Z</time>
      </trkpt>
      <trkpt lat="48.47318" lon="2.23499">
        <ele>154.4</ele>
        <time>2026-02-02T11:40:41Z</time>
      </trkpt>
      <trkpt lat="48.47318" lon="2.23512">
        <ele>154.4</ele>
        <time>2026-02-02T11:40:42Z</time>
      </trkpt>
      <trkpt lat="48.47318" lon="2.23525">
        <ele>154.4</ele>
        <time>2026-02-02T11:40:43Z</time>
      </trkpt>
      <trkpt lat="48.47318" lon="2.23538">
        <ele>153.6</ele>
        <time>2026-02-02T11:40:44Z</time>
      </trkpt>
      <trkpt lat="48.47317" lon="2.23552">
        <ele>152.8</ele>
        <time>2026-02-02T11:40:45Z</time>
      </trkpt>
      <trkpt lat="48.47316" lon="2.23565">
        <ele>152.8</ele>
        <time>2026-02-02T11:40:46Z</time>
      </trkpt>
      <trkpt lat="48.47316" lon="2.23578">
        <ele>152.8</ele>
        <time>2026-02-02T11:40:47Z</time>
      </trkpt>
      <trkpt lat="48.47315" lon="2.23591">
        <ele>152.8</ele>
        <time>2026-02-02T11:40:48Z</time>
      </trkpt>
      <trkpt lat="48.47314" lon="2.23605">
        <ele>151.4</ele>
        <time>2026-02-02T11:40:49Z</time>
      </trkpt>
      <trkpt lat="48.47314" lon="2.23618">
        <ele>151.4</ele>
        <time>2026-02-02T11:40:50Z</time>
      </trkpt>
      <trkpt lat="48.47314" lon="2.23631">
        <ele>151.4</ele>
        <time>2026-02-02T11:40:51Z</time>
      </trkpt>
      <trkpt lat="48.47314" lon="2.23644">
        <ele>151.4</ele>
        <time>2026-02-02T11:40:52Z</time>
      </trkpt>
      <trkpt lat="48.47314" lon="2.23658">
        <ele>151</ele>
        <time>2026-02-02T11:40:53Z</time>
      </trkpt>
      <trkpt lat="48.47314" lon="2.23671">
        <ele>151</ele>
        <time>2026-02-02T11:40:54Z</time>
      </trkpt>
      <trkpt lat="48.47315" lon="2.23684">
        <ele>151</ele>
        <time>2026-02-02T11:40:55Z</time>
      </trkpt>
      <trkpt lat="48.47315" lon="2.23697">
        <ele>150</ele>
        <time>2026-02-02T11:40:56Z</time>
      </trkpt>
      <trkpt lat="48.47316" lon="2.2371">
        <ele>149.8</ele>
        <time>2026-02-02T11:40:57Z</time>
      </trkpt>
      <trkpt lat="48.47317" lon="2.23723">
        <ele>149.8</ele>
        <time>2026-02-02T11:40:58Z</time>
      </trkpt>
      <trkpt lat="48.47318" lon="2.23736">
        <ele>149.8</ele>
        <time>2026-02-02T11:40:59Z</time>
      </trkpt>
      <trkpt lat="48.47319" lon="2.23749">
        <ele>148.8</ele>
        <time>2026-02-02T11:41:00Z</time>
      </trkpt>
      <trkpt lat="48.47319" lon="2.23762">
        <ele>148.2</ele>
        <time>2026-02-02T11:41:01Z</time>
      </trkpt>
      <trkpt lat="48.47319" lon="2.23776">
        <ele>148.2</ele>
        <time>2026-02-02T11:41:02Z</time>
      </trkpt>
      <trkpt lat="48.4732" lon="2.23789">
        <ele>148.2</ele>
        <time>2026-02-02T11:41:03Z</time>
      </trkpt>
      <trkpt lat="48.4732" lon="2.23802">
        <ele>147.2</ele>
        <time>2026-02-02T11:41:04Z</time>
      </trkpt>
      <trkpt lat="48.4732" lon="2.23815">
        <ele>147</ele>
        <time>2026-02-02T11:41:05Z</time>
      </trkpt>
      <trkpt lat="48.47321" lon="2.23827">
        <ele>147</ele>
        <time>2026-02-02T11:41:06Z</time>
      </trkpt>
      <trkpt lat="48.47321" lon="2.2384">
        <ele>147</ele>
        <time>2026-02-02T11:41:07Z</time>
      </trkpt>
      <trkpt lat="48.47322" lon="2.23852">
        <ele>147</ele>
        <time>2026-02-02T11:41:08Z</time>
      </trkpt>
      <trkpt lat="48.47322" lon="2.23864">
        <ele>147</ele>
        <time>2026-02-02T11:41:09Z</time>
      </trkpt>
      <trkpt lat="48.47324" lon="2.23875">
        <ele>147</ele>
        <time>2026-02-02T11:41:10Z</time>
      </trkpt>
      <trkpt lat="48.47325" lon="2.23886">
        <ele>147</ele>
        <time>2026-02-02T11:41:11Z</time>
      </trkpt>
      <trkpt lat="48.47327" lon="2.23897">
        <ele>147.4</ele>
        <time>2026-02-02T11:41:12Z</time>
      </trkpt>
      <trkpt lat="48.47329" lon="2.23907">
        <ele>147.4</ele>
        <time>2026-02-02T11:41:13Z</time>
      </trkpt>
      <trkpt lat="48.47331" lon="2.23917">
        <ele>147.4</ele>
        <time>2026-02-02T11:41:14Z</time>
      </trkpt>
      <trkpt lat="48.47333" lon="2.23927">
        <ele>147.4</ele>
        <time>2026-02-02T11:41:15Z</time>
      </trkpt>
      <trkpt lat="48.47336" lon="2.23936">
        <ele>147.4</ele>
        <time>2026-02-02T11:41:16Z</time>
      </trkpt>
      <trkpt lat="48.47338" lon="2.23945">
        <ele>148</ele>
        <time>2026-02-02T11:41:17Z</time>
      </trkpt>
      <trkpt lat="48.4734" lon="2.23954">
        <ele>148</ele>
        <time>2026-02-02T11:41:18Z</time>
      </trkpt>
      <trkpt lat="48.47342" lon="2.23962">
        <ele>148</ele>
        <time>2026-02-02T11:41:19Z</time>
      </trkpt>
      <trkpt lat="48.47344" lon="2.23971">
        <ele>148</ele>
        <time>2026-02-02T11:41:20Z</time>
      </trkpt>
      <trkpt lat="48.47346" lon="2.23979">
        <ele>148.8</ele>
        <time>2026-02-02T11:41:21Z</time>
      </trkpt>
      <trkpt lat="48.47348" lon="2.23988">
        <ele>148.8</ele>
        <time>2026-02-02T11:41:22Z</time>
      </trkpt>
      <trkpt lat="48.4735" lon="2.23996">
        <ele>148.8</ele>
        <time>2026-02-02T11:41:23Z</time>
      </trkpt>
      <trkpt lat="48.47353" lon="2.24005">
        <ele>148.8</ele>
        <time>2026-02-02T11:41:24Z</time>
      </trkpt>
      <trkpt lat="48.47355" lon="2.24014">
        <ele>149.2</ele>
        <time>2026-02-02T11:41:25Z</time>
      </trkpt>
      <trkpt lat="48.47358" lon="2.24022">
        <ele>149.2</ele>
        <time>2026-02-02T11:41:26Z</time>
      </trkpt>
      <trkpt lat="48.47361" lon="2.24031">
        <ele>149.2</ele>
        <time>2026-02-02T11:41:27Z</time>
      </trkpt>
      <trkpt lat="48.47363" lon="2.2404">
        <ele>149.6</ele>
        <time>2026-02-02T11:41:28Z</time>
      </trkpt>
      <trkpt lat="48.47367" lon="2.24049">
        <ele>150</ele>
        <time>2026-02-02T11:41:29Z</time>
      </trkpt>
      <trkpt lat="48.4737" lon="2.24059">
        <ele>150</ele>
        <time>2026-02-02T11:41:30Z</time>
      </trkpt>
      <trkpt lat="48.47373" lon="2.24068">
        <ele>150</ele>
        <time>2026-02-02T11:41:31Z</time>
      </trkpt>
      <trkpt lat="48.47377" lon="2.24078">
        <ele>150</ele>
        <time>2026-02-02T11:41:32Z</time>
      </trkpt>
      <trkpt lat="48.4738" lon="2.24087">
        <ele>150.4</ele>
        <time>2026-02-02T11:41:33Z</time>
      </trkpt>
      <trkpt lat="48.47382" lon="2.24096">
        <ele>150.4</ele>
        <time>2026-02-02T11:41:34Z</time>
      </trkpt>
      <trkpt lat="48.47385" lon="2.24106">
        <ele>150.4</ele>
        <time>2026-02-02T11:41:35Z</time>
      </trkpt>
      <trkpt lat="48.47388" lon="2.24115">
        <ele>150.4</ele>
        <time>2026-02-02T11:41:36Z</time>
      </trkpt>
      <trkpt lat="48.47391" lon="2.24123">
        <ele>150.4</ele>
        <time>2026-02-02T11:41:37Z</time>
      </trkpt>
      <trkpt lat="48.47393" lon="2.24132">
        <ele>150.4</ele>
        <time>2026-02-02T11:41:38Z</time>
      </trkpt>
      <trkpt lat="48.47396" lon="2.24141">
        <ele>150.4</ele>
        <time>2026-02-02T11:41:39Z</time>
      </trkpt>
      <trkpt lat="48.47399" lon="2.2415">
        <ele>150.4</ele>
        <time>2026-02-02T11:41:40Z</time>
      </trkpt>
      <trkpt lat="48.47402" lon="2.24159">
        <ele>149.8</ele>
        <time>2026-02-02T11:41:41Z</time>
      </trkpt>
      <trkpt lat="48.47405" lon="2.24168">
        <ele>149.8</ele>
        <time>2026-02-02T11:41:42Z</time>
      </trkpt>
      <trkpt lat="48.47408" lon="2.24177">
        <ele>149.8</ele>
        <time>2026-02-02T11:41:43Z</time>
      </trkpt>
      <trkpt lat="48.47411" lon="2.24186">
        <ele>149.2</ele>
        <time>2026-02-02T11:41:44Z</time>
      </trkpt>
      <trkpt lat="48.47413" lon="2.24196">
        <ele>149.2</ele>
        <time>2026-02-02T11:41:45Z</time>
      </trkpt>
      <trkpt lat="48.47416" lon="2.24205">
        <ele>149.2</ele>
        <time>2026-02-02T11:41:46Z</time>
      </trkpt>
      <trkpt lat="48.47419" lon="2.24215">
        <ele>149.2</ele>
        <time>2026-02-02T11:41:47Z</time>
      </trkpt>
      <trkpt lat="48.47422" lon="2.24224">
        <ele>149.2</ele>
        <time>2026-02-02T11:41:48Z</time>
      </trkpt>
      <trkpt lat="48.47425" lon="2.24234">
        <ele>148.8</ele>
        <time>2026-02-02T11:41:49Z</time>
      </trkpt>
      <trkpt lat="48.47428" lon="2.24244">
        <ele>148.8</ele>
        <time>2026-02-02T11:41:50Z</time>
      </trkpt>
      <trkpt lat="48.47431" lon="2.24254">
        <ele>148.8</ele>
        <time>2026-02-02T11:41:51Z</time>
      </trkpt>
      <trkpt lat="48.47434" lon="2.24264">
        <ele>149.4</ele>
        <time>2026-02-02T11:41:52Z</time>
      </trkpt>
      <trkpt lat="48.47437" lon="2.24274">
        <ele>149</ele>
        <time>2026-02-02T11:41:53Z</time>
      </trkpt>
      <trkpt lat="48.47439" lon="2.24284">
        <ele>149</ele>
        <time>2026-02-02T11:41:54Z</time>
      </trkpt>
      <trkpt lat="48.47442" lon="2.24294">
        <ele>149</ele>
        <time>2026-02-02T11:41:55Z</time>
      </trkpt>
      <trkpt lat="48.47444" lon="2.24305">
        <ele>148.2</ele>
        <time>2026-02-02T11:41:56Z</time>
      </trkpt>
      <trkpt lat="48.47445" lon="2.24316">
        <ele>147.6</ele>
        <time>2026-02-02T11:41:57Z</time>
      </trkpt>
      <trkpt lat="48.47447" lon="2.24327">
        <ele>147.6</ele>
        <time>2026-02-02T11:41:58Z</time>
      </trkpt>
      <trkpt lat="48.47447" lon="2.24338">
        <ele>147.6</ele>
        <time>2026-02-02T11:41:59Z</time>
      </trkpt>
      <trkpt lat="48.47448" lon="2.24348">
        <ele>148.2</ele>
        <time>2026-02-02T11:42:00Z</time>
      </trkpt>
      <trkpt lat="48.47449" lon="2.24359">
        <ele>147.6</ele>
        <time>2026-02-02T11:42:01Z</time>
      </trkpt>
      <trkpt lat="48.47449" lon="2.2437">
        <ele>147.6</ele>
        <time>2026-02-02T11:42:02Z</time>
      </trkpt>
      <trkpt lat="48.47451" lon="2.24381">
        <ele>147.6</ele>
        <time>2026-02-02T11:42:03Z</time>
      </trkpt>
      <trkpt lat="48.47452" lon="2.24391">
        <ele>147.6</ele>
        <time>2026-02-02T11:42:04Z</time>
      </trkpt>
      <trkpt lat="48.47454" lon="2.24401">
        <ele>147</ele>
        <time>2026-02-02T11:42:05Z</time>
      </trkpt>
      <trkpt lat="48.47457" lon="2.24411">
        <ele>147</ele>
        <time>2026-02-02T11:42:06Z</time>
      </trkpt>
      <trkpt lat="48.47459" lon="2.24421">
        <ele>147</ele>
        <time>2026-02-02T11:42:07Z</time>
      </trkpt>
      <trkpt lat="48.47462" lon="2.2443">
        <ele>147.6</ele>
        <time>2026-02-02T11:42:08Z</time>
      </trkpt>
      <trkpt lat="48.47465" lon="2.2444">
        <ele>147.6</ele>
        <time>2026-02-02T11:42:09Z</time>
      </trkpt>
      <trkpt lat="48.47469" lon="2.24449">
        <ele>147.6</ele>
        <time>2026-02-02T11:42:10Z</time>
      </trkpt>
      <trkpt lat="48.47472" lon="2.24458">
        <ele>147.6</ele>
        <time>2026-02-02T11:42:11Z</time>
      </trkpt>
      <trkpt lat="48.47476" lon="2.24467">
        <ele>147</ele>
        <time>2026-02-02T11:42:12Z</time>
      </trkpt>
      <trkpt lat="48.47479" lon="2.24477">
        <ele>146.6</ele>
        <time>2026-02-02T11:42:13Z</time>
      </trkpt>
      <trkpt lat="48.47483" lon="2.24486">
        <ele>146.6</ele>
        <time>2026-02-02T11:42:14Z</time>
      </trkpt>
      <trkpt lat="48.47486" lon="2.24496">
        <ele>146.6</ele>
        <time>2026-02-02T11:42:15Z</time>
      </trkpt>
      <trkpt lat="48.47488" lon="2.24506">
        <ele>146.6</ele>
        <time>2026-02-02T11:42:16Z</time>
      </trkpt>
      <trkpt lat="48.4749" lon="2.24516">
        <ele>146.2</ele>
        <time>2026-02-02T11:42:17Z</time>
      </trkpt>
      <trkpt lat="48.47492" lon="2.24526">
        <ele>146.2</ele>
        <time>2026-02-02T11:42:18Z</time>
      </trkpt>
      <trkpt lat="48.47493" lon="2.24537">
        <ele>146.2</ele>
        <time>2026-02-02T11:42:19Z</time>
      </trkpt>
      <trkpt lat="48.47493" lon="2.24547">
        <ele>146.2</ele>
        <time>2026-02-02T11:42:20Z</time>
      </trkpt>
      <trkpt lat="48.47494" lon="2.24558">
        <ele>146.2</ele>
        <time>2026-02-02T11:42:21Z</time>
      </trkpt>
      <trkpt lat="48.47494" lon="2.24568">
        <ele>146.2</ele>
        <time>2026-02-02T11:42:22Z</time>
      </trkpt>
      <trkpt lat="48.47495" lon="2.24578">
        <ele>146.2</ele>
        <time>2026-02-02T11:42:23Z</time>
      </trkpt>
      <trkpt lat="48.47496" lon="2.24587">
        <ele>146.2</ele>
        <time>2026-02-02T11:42:24Z</time>
      </trkpt>
      <trkpt lat="48.47497" lon="2.24596">
        <ele>146.4</ele>
        <time>2026-02-02T11:42:25Z</time>
      </trkpt>
      <trkpt lat="48.47498" lon="2.24604">
        <ele>146.4</ele>
        <time>2026-02-02T11:42:26Z</time>
      </trkpt>
      <trkpt lat="48.475" lon="2.24612">
        <ele>146.4</ele>
        <time>2026-02-02T11:42:27Z</time>
      </trkpt>
      <trkpt lat="48.47503" lon="2.24618">
        <ele>146</ele>
        <time>2026-02-02T11:42:28Z</time>
      </trkpt>
      <trkpt lat="48.47505" lon="2.24622">
        <ele>146.2</ele>
        <time>2026-02-02T11:42:29Z</time>
      </trkpt>
      <trkpt lat="48.47507" lon="2.24625">
        <ele>146.2</ele>
        <time>2026-02-02T11:42:30Z</time>
      </trkpt>
      <trkpt lat="48.47508" lon="2.24627">
        <ele>146.2</ele>
        <time>2026-02-02T11:42:31Z</time>
      </trkpt>
      <trkpt lat="48.47509" lon="2.24629">
        <ele>146.2</ele>
        <time>2026-02-02T11:42:32Z</time>
      </trkpt>
      <trkpt lat="48.47511" lon="2.2463">
        <ele>146.2</ele>
        <time>2026-02-02T11:42:33Z</time>
      </trkpt>
      <trkpt lat="48.47513" lon="2.24631">
        <ele>146.2</ele>
        <time>2026-02-02T11:42:34Z</time>
      </trkpt>
      <trkpt lat="48.47516" lon="2.24633">
        <ele>146.2</ele>
        <time>2026-02-02T11:42:35Z</time>
      </trkpt>
      <trkpt lat="48.47518" lon="2.24636">
        <ele>146.8</ele>
        <time>2026-02-02T11:42:36Z</time>
      </trkpt>
      <trkpt lat="48.4752" lon="2.24639">
        <ele>146.8</ele>
        <time>2026-02-02T11:42:37Z</time>
      </trkpt>
      <trkpt lat="48.47523" lon="2.24642">
        <ele>146.8</ele>
        <time>2026-02-02T11:42:38Z</time>
      </trkpt>
      <trkpt lat="48.47525" lon="2.24647">
        <ele>146.8</ele>
        <time>2026-02-02T11:42:39Z</time>
      </trkpt>
      <trkpt lat="48.47527" lon="2.24652">
        <ele>146.2</ele>
        <time>2026-02-02T11:42:40Z</time>
      </trkpt>
      <trkpt lat="48.47529" lon="2.24658">
        <ele>146.4</ele>
        <time>2026-02-02T11:42:41Z</time>
      </trkpt>
      <trkpt lat="48.4753" lon="2.24664">
        <ele>146.4</ele>
        <time>2026-02-02T11:42:42Z</time>
      </trkpt>
      <trkpt lat="48.47532" lon="2.24671">
        <ele>146.4</ele>
        <time>2026-02-02T11:42:43Z</time>
      </trkpt>
      <trkpt lat="48.47533" lon="2.24678">
        <ele>147</ele>
        <time>2026-02-02T11:42:44Z</time>
      </trkpt>
      <trkpt lat="48.47534" lon="2.24685">
        <ele>146.6</ele>
        <time>2026-02-02T11:42:45Z</time>
      </trkpt>
      <trkpt lat="48.47535" lon="2.24693">
        <ele>146.6</ele>
        <time>2026-02-02T11:42:46Z</time>
      </trkpt>
      <trkpt lat="48.47536" lon="2.24701">
        <ele>146.6</ele>
        <time>2026-02-02T11:42:47Z</time>
      </trkpt>
      <trkpt lat="48.47536" lon="2.24709">
        <ele>146.8</ele>
        <time>2026-02-02T11:42:48Z</time>
      </trkpt>
      <trkpt lat="48.47536" lon="2.24717">
        <ele>147.2</ele>
        <time>2026-02-02T11:42:49Z</time>
      </trkpt>
      <trkpt lat="48.47536" lon="2.24726">
        <ele>147.2</ele>
        <time>2026-02-02T11:42:50Z</time>
      </trkpt>
      <trkpt lat="48.47535" lon="2.24734">
        <ele>147.2</ele>
        <time>2026-02-02T11:42:51Z</time>
      </trkpt>
      <trkpt lat="48.47534" lon="2.24742">
        <ele>147.2</ele>
        <time>2026-02-02T11:42:52Z</time>
      </trkpt>
      <trkpt lat="48.47533" lon="2.2475">
        <ele>147.2</ele>
        <time>2026-02-02T11:42:53Z</time>
      </trkpt>
      <trkpt lat="48.47533" lon="2.24758">
        <ele>147.2</ele>
        <time>2026-02-02T11:42:54Z</time>
      </trkpt>
      <trkpt lat="48.47532" lon="2.24767">
        <ele>147.2</ele>
        <time>2026-02-02T11:42:55Z</time>
      </trkpt>
      <trkpt lat="48.47531" lon="2.24775">
        <ele>147.2</ele>
        <time>2026-02-02T11:42:56Z</time>
      </trkpt>
      <trkpt lat="48.4753" lon="2.24783">
        <ele>146.8</ele>
        <time>2026-02-02T11:42:57Z</time>
      </trkpt>
      <trkpt lat="48.47529" lon="2.24791">
        <ele>146.8</ele>
        <time>2026-02-02T11:42:58Z</time>
      </trkpt>
      <trkpt lat="48.47528" lon="2.24799">
        <ele>146.8</ele>
        <time>2026-02-02T11:42:59Z</time>
      </trkpt>
      <trkpt lat="48.47527" lon="2.24807">
        <ele>147.8</ele>
        <time>2026-02-02T11:43:00Z</time>
      </trkpt>
      <trkpt lat="48.47526" lon="2.24814">
        <ele>147.4</ele>
        <time>2026-02-02T11:43:01Z</time>
      </trkpt>
      <trkpt lat="48.47524" lon="2.24822">
        <ele>147.4</ele>
        <time>2026-02-02T11:43:02Z</time>
      </trkpt>
      <trkpt lat="48.47522" lon="2.24829">
        <ele>147.4</ele>
        <time>2026-02-02T11:43:03Z</time>
      </trkpt>
      <trkpt lat="48.47521" lon="2.24836">
        <ele>148</ele>
        <time>2026-02-02T11:43:04Z</time>
      </trkpt>
      <trkpt lat="48.47519" lon="2.24843">
        <ele>148</ele>
        <time>2026-02-02T11:43:05Z</time>
      </trkpt>
      <trkpt lat="48.47517" lon="2.24849">
        <ele>148</ele>
        <time>2026-02-02T11:43:06Z</time>
      </trkpt>
      <trkpt lat="48.47516" lon="2.24856">
        <ele>148</ele>
        <time>2026-02-02T11:43:07Z</time>
      </trkpt>
      <trkpt lat="48.47516" lon="2.24862">
        <ele>148.2</ele>
        <time>2026-02-02T11:43:08Z</time>
      </trkpt>
      <trkpt lat="48.47519" lon="2.24869">
        <ele>148.4</ele>
        <time>2026-02-02T11:43:09Z</time>
      </trkpt>
      <trkpt lat="48.47521" lon="2.24877">
        <ele>148.4</ele>
        <time>2026-02-02T11:43:10Z</time>
      </trkpt>
      <trkpt lat="48.47522" lon="2.24885">
        <ele>148.4</ele>
        <time>2026-02-02T11:43:11Z</time>
      </trkpt>
      <trkpt lat="48.47521" lon="2.24894">
        <ele>147.4</ele>
        <time>2026-02-02T11:43:12Z</time>
      </trkpt>
      <trkpt lat="48.4752" lon="2.24903">
        <ele>147.2</ele>
        <time>2026-02-02T11:43:13Z</time>
      </trkpt>
      <trkpt lat="48.47519" lon="2.24913">
        <ele>147.2</ele>
        <time>2026-02-02T11:43:14Z</time>
      </trkpt>
      <trkpt lat="48.47518" lon="2.24922">
        <ele>147.2</ele>
        <time>2026-02-02T11:43:15Z</time>
      </trkpt>
      <trkpt lat="48.47517" lon="2.24931">
        <ele>147.2</ele>
        <time>2026-02-02T11:43:16Z</time>
      </trkpt>
      <trkpt lat="48.47516" lon="2.24941">
        <ele>146.8</ele>
        <time>2026-02-02T11:43:17Z</time>
      </trkpt>
      <trkpt lat="48.47514" lon="2.24951">
        <ele>146.8</ele>
        <time>2026-02-02T11:43:18Z</time>
      </trkpt>
      <trkpt lat="48.47513" lon="2.24961">
        <ele>146.8</ele>
        <time>2026-02-02T11:43:19Z</time>
      </trkpt>
      <trkpt lat="48.47512" lon="2.24971">
        <ele>146</ele>
        <time>2026-02-02T11:43:20Z</time>
      </trkpt>
      <trkpt lat="48.47511" lon="2.24981">
        <ele>145.6</ele>
        <time>2026-02-02T11:43:21Z</time>
      </trkpt>
      <trkpt lat="48.47509" lon="2.24992">
        <ele>145.6</ele>
        <time>2026-02-02T11:43:22Z</time>
      </trkpt>
      <trkpt lat="48.47508" lon="2.25002">
        <ele>145.6</ele>
        <time>2026-02-02T11:43:23Z</time>
      </trkpt>
      <trkpt lat="48.47506" lon="2.25012">
        <ele>145.6</ele>
        <time>2026-02-02T11:43:24Z</time>
      </trkpt>
      <trkpt lat="48.47504" lon="2.25022">
        <ele>146</ele>
        <time>2026-02-02T11:43:25Z</time>
      </trkpt>
      <trkpt lat="48.475" lon="2.25031">
        <ele>146</ele>
        <time>2026-02-02T11:43:26Z</time>
      </trkpt>
      <trkpt lat="48.47496" lon="2.25039">
        <ele>146</ele>
        <time>2026-02-02T11:43:27Z</time>
      </trkpt>
      <trkpt lat="48.47491" lon="2.25045">
        <ele>146</ele>
        <time>2026-02-02T11:43:28Z</time>
      </trkpt>
      <trkpt lat="48.47486" lon="2.2505">
        <ele>145.8</ele>
        <time>2026-02-02T11:43:29Z</time>
      </trkpt>
      <trkpt lat="48.4748" lon="2.25055">
        <ele>145.8</ele>
        <time>2026-02-02T11:43:30Z</time>
      </trkpt>
      <trkpt lat="48.47475" lon="2.25059">
        <ele>145.8</ele>
        <time>2026-02-02T11:43:31Z</time>
      </trkpt>
      <trkpt lat="48.4747" lon="2.25063">
        <ele>146.8</ele>
        <time>2026-02-02T11:43:32Z</time>
      </trkpt>
      <trkpt lat="48.47466" lon="2.25066">
        <ele>147.2</ele>
        <time>2026-02-02T11:43:33Z</time>
      </trkpt>
      <trkpt lat="48.47461" lon="2.25069">
        <ele>147.2</ele>
        <time>2026-02-02T11:43:34Z</time>
      </trkpt>
      <trkpt lat="48.47455" lon="2.25072">
        <ele>147.2</ele>
        <time>2026-02-02T11:43:35Z</time>
      </trkpt>
      <trkpt lat="48.4745" lon="2.25076">
        <ele>147.2</ele>
        <time>2026-02-02T11:43:36Z</time>
      </trkpt>
      <trkpt lat="48.47444" lon="2.25079">
        <ele>146.4</ele>
        <time>2026-02-02T11:43:37Z</time>
      </trkpt>
      <trkpt lat="48.47438" lon="2.25083">
        <ele>146.4</ele>
        <time>2026-02-02T11:43:38Z</time>
      </trkpt>
      <trkpt lat="48.47433" lon="2.25087">
        <ele>146.4</ele>
        <time>2026-02-02T11:43:39Z</time>
      </trkpt>
      <trkpt lat="48.47427" lon="2.25092">
        <ele>146.4</ele>
        <time>2026-02-02T11:43:40Z</time>
      </trkpt>
      <trkpt lat="48.47423" lon="2.25099">
        <ele>146.2</ele>
        <time>2026-02-02T11:43:41Z</time>
      </trkpt>
      <trkpt lat="48.47419" lon="2.25106">
        <ele>146.2</ele>
        <time>2026-02-02T11:43:42Z</time>
      </trkpt>
      <trkpt lat="48.47416" lon="2.25115">
        <ele>146.2</ele>
        <time>2026-02-02T11:43:43Z</time>
      </trkpt>
      <trkpt lat="48.47413" lon="2.25123">
        <ele>145.2</ele>
        <time>2026-02-02T11:43:44Z</time>
      </trkpt>
      <trkpt lat="48.4741" lon="2.25132">
        <ele>145.2</ele>
        <time>2026-02-02T11:43:45Z</time>
      </trkpt>
      <trkpt lat="48.47408" lon="2.25142">
        <ele>145.2</ele>
        <time>2026-02-02T11:43:46Z</time>
      </trkpt>
      <trkpt lat="48.47405" lon="2.25152">
        <ele>145.2</ele>
        <time>2026-02-02T11:43:47Z</time>
      </trkpt>
      <trkpt lat="48.47404" lon="2.25163">
        <ele>144.4</ele>
        <time>2026-02-02T11:43:48Z</time>
      </trkpt>
      <trkpt lat="48.47403" lon="2.25174">
        <ele>144.8</ele>
        <time>2026-02-02T11:43:49Z</time>
      </trkpt>
      <trkpt lat="48.47403" lon="2.25185">
        <ele>144.8</ele>
        <time>2026-02-02T11:43:50Z</time>
      </trkpt>
      <trkpt lat="48.47404" lon="2.25196">
        <ele>144.8</ele>
        <time>2026-02-02T11:43:51Z</time>
      </trkpt>
      <trkpt lat="48.47406" lon="2.25206">
        <ele>144.8</ele>
        <time>2026-02-02T11:43:52Z</time>
      </trkpt>
      <trkpt lat="48.47408" lon="2.25216">
        <ele>145.2</ele>
        <time>2026-02-02T11:43:53Z</time>
      </trkpt>
      <trkpt lat="48.4741" lon="2.25225">
        <ele>145.2</ele>
        <time>2026-02-02T11:43:54Z</time>
      </trkpt>
      <trkpt lat="48.47412" lon="2.25234">
        <ele>145.2</ele>
        <time>2026-02-02T11:43:55Z</time>
      </trkpt>
      <trkpt lat="48.47414" lon="2.25243">
        <ele>145.2</ele>
        <time>2026-02-02T11:43:56Z</time>
      </trkpt>
      <trkpt lat="48.47416" lon="2.25252">
        <ele>146.4</ele>
        <time>2026-02-02T11:43:57Z</time>
      </trkpt>
      <trkpt lat="48.47418" lon="2.2526">
        <ele>146.4</ele>
        <time>2026-02-02T11:43:58Z</time>
      </trkpt>
      <trkpt lat="48.4742" lon="2.25269">
        <ele>146.4</ele>
        <time>2026-02-02T11:43:59Z</time>
      </trkpt>
      <trkpt lat="48.47421" lon="2.25277">
        <ele>146.4</ele>
        <time>2026-02-02T11:44:00Z</time>
      </trkpt>
      <trkpt lat="48.47423" lon="2.25285">
        <ele>146.4</ele>
        <time>2026-02-02T11:44:01Z</time>
      </trkpt>
      <trkpt lat="48.47424" lon="2.25292">
        <ele>146.4</ele>
        <time>2026-02-02T11:44:02Z</time>
      </trkpt>
      <trkpt lat="48.47426" lon="2.253">
        <ele>146.4</ele>
        <time>2026-02-02T11:44:03Z</time>
      </trkpt>
      <trkpt lat="48.47427" lon="2.25308">
        <ele>146.8</ele>
        <time>2026-02-02T11:44:04Z</time>
      </trkpt>
      <trkpt lat="48.47428" lon="2.25316">
        <ele>146.8</ele>
        <time>2026-02-02T11:44:05Z</time>
      </trkpt>
      <trkpt lat="48.4743" lon="2.25324">
        <ele>146.8</ele>
        <time>2026-02-02T11:44:06Z</time>
      </trkpt>
      <trkpt lat="48.47431" lon="2.25332">
        <ele>146.8</ele>
        <time>2026-02-02T11:44:07Z</time>
      </trkpt>
      <trkpt lat="48.47432" lon="2.2534">
        <ele>146.8</ele>
        <time>2026-02-02T11:44:08Z</time>
      </trkpt>
      <trkpt lat="48.47433" lon="2.25348">
        <ele>147.4</ele>
        <time>2026-02-02T11:44:09Z</time>
      </trkpt>
      <trkpt lat="48.47434" lon="2.25356">
        <ele>147.4</ele>
        <time>2026-02-02T11:44:10Z</time>
      </trkpt>
      <trkpt lat="48.47434" lon="2.25364">
        <ele>147.4</ele>
        <time>2026-02-02T11:44:11Z</time>
      </trkpt>
      <trkpt lat="48.47435" lon="2.25372">
        <ele>147</ele>
        <time>2026-02-02T11:44:12Z</time>
      </trkpt>
      <trkpt lat="48.47436" lon="2.2538">
        <ele>147</ele>
        <time>2026-02-02T11:44:13Z</time>
      </trkpt>
      <trkpt lat="48.47436" lon="2.25388">
        <ele>147</ele>
        <time>2026-02-02T11:44:14Z</time>
      </trkpt>
      <trkpt lat="48.47437" lon="2.25396">
        <ele>147</ele>
        <time>2026-02-02T11:44:15Z</time>
      </trkpt>
      <trkpt lat="48.47437" lon="2.25405">
        <ele>147</ele>
        <time>2026-02-02T11:44:16Z</time>
      </trkpt>
      <trkpt lat="48.47437" lon="2.25413">
        <ele>147.2</ele>
        <time>2026-02-02T11:44:17Z</time>
      </trkpt>
      <trkpt lat="48.47438" lon="2.25421">
        <ele>147.2</ele>
        <time>2026-02-02T11:44:18Z</time>
      </trkpt>
      <trkpt lat="48.47438" lon="2.25429">
        <ele>147.2</ele>
        <time>2026-02-02T11:44:19Z</time>
      </trkpt>
      <trkpt lat="48.47438" lon="2.25437">
        <ele>147.8</ele>
        <time>2026-02-02T11:44:20Z</time>
      </trkpt>
      <trkpt lat="48.47438" lon="2.25446">
        <ele>148</ele>
        <time>2026-02-02T11:44:21Z</time>
      </trkpt>
      <trkpt lat="48.47438" lon="2.25454">
        <ele>148</ele>
        <time>2026-02-02T11:44:22Z</time>
      </trkpt>
      <trkpt lat="48.47438" lon="2.25462">
        <ele>148</ele>
        <time>2026-02-02T11:44:23Z</time>
      </trkpt>
      <trkpt lat="48.47437" lon="2.2547">
        <ele>148.4</ele>
        <time>2026-02-02T11:44:24Z</time>
      </trkpt>
      <trkpt lat="48.47437" lon="2.25478">
        <ele>148</ele>
        <time>2026-02-02T11:44:25Z</time>
      </trkpt>
      <trkpt lat="48.47437" lon="2.25486">
        <ele>148</ele>
        <time>2026-02-02T11:44:26Z</time>
      </trkpt>
      <trkpt lat="48.47437" lon="2.25494">
        <ele>148</ele>
        <time>2026-02-02T11:44:27Z</time>
      </trkpt>
      <trkpt lat="48.47436" lon="2.25501">
        <ele>148.4</ele>
        <time>2026-02-02T11:44:28Z</time>
      </trkpt>
      <trkpt lat="48.47436" lon="2.25509">
        <ele>148.8</ele>
        <time>2026-02-02T11:44:29Z</time>
      </trkpt>
      <trkpt lat="48.47436" lon="2.25516">
        <ele>148.8</ele>
        <time>2026-02-02T11:44:30Z</time>
      </trkpt>
      <trkpt lat="48.47436" lon="2.25524">
        <ele>148.8</ele>
        <time>2026-02-02T11:44:31Z</time>
      </trkpt>
      <trkpt lat="48.47435" lon="2.25531">
        <ele>149.4</ele>
        <time>2026-02-02T11:44:32Z</time>
      </trkpt>
      <trkpt lat="48.47435" lon="2.25538">
        <ele>149</ele>
        <time>2026-02-02T11:44:33Z</time>
      </trkpt>
      <trkpt lat="48.47435" lon="2.25545">
        <ele>149</ele>
        <time>2026-02-02T11:44:34Z</time>
      </trkpt>
      <trkpt lat="48.47435" lon="2.25552">
        <ele>149</ele>
        <time>2026-02-02T11:44:35Z</time>
      </trkpt>
      <trkpt lat="48.47435" lon="2.2556">
        <ele>150</ele>
        <time>2026-02-02T11:44:36Z</time>
      </trkpt>
      <trkpt lat="48.47435" lon="2.25567">
        <ele>150</ele>
        <time>2026-02-02T11:44:37Z</time>
      </trkpt>
      <trkpt lat="48.47435" lon="2.25576">
        <ele>150</ele>
        <time>2026-02-02T11:44:38Z</time>
      </trkpt>
      <trkpt lat="48.47434" lon="2.25583">
        <ele>150</ele>
        <time>2026-02-02T11:44:39Z</time>
      </trkpt>
      <trkpt lat="48.47434" lon="2.25591">
        <ele>150</ele>
        <time>2026-02-02T11:44:40Z</time>
      </trkpt>
      <trkpt lat="48.47434" lon="2.25599">
        <ele>150.6</ele>
        <time>2026-02-02T11:44:41Z</time>
      </trkpt>
      <trkpt lat="48.47434" lon="2.25606">
        <ele>150.6</ele>
        <time>2026-02-02T11:44:42Z</time>
      </trkpt>
      <trkpt lat="48.47433" lon="2.25614">
        <ele>150.6</ele>
        <time>2026-02-02T11:44:43Z</time>
      </trkpt>
      <trkpt lat="48.47433" lon="2.25621">
        <ele>150.6</ele>
        <time>2026-02-02T11:44:44Z</time>
      </trkpt>
      <trkpt lat="48.47433" lon="2.25628">
        <ele>150.4</ele>
        <time>2026-02-02T11:44:45Z</time>
      </trkpt>
      <trkpt lat="48.47432" lon="2.25635">
        <ele>150.4</ele>
        <time>2026-02-02T11:44:46Z</time>
      </trkpt>
      <trkpt lat="48.47431" lon="2.25642">
        <ele>150.4</ele>
        <time>2026-02-02T11:44:47Z</time>
      </trkpt>
      <trkpt lat="48.4743" lon="2.25649">
        <ele>150.4</ele>
        <time>2026-02-02T11:44:48Z</time>
      </trkpt>
      <trkpt lat="48.47429" lon="2.25656">
        <ele>150.2</ele>
        <time>2026-02-02T11:44:49Z</time>
      </trkpt>
      <trkpt lat="48.47428" lon="2.25663">
        <ele>150.2</ele>
        <time>2026-02-02T11:44:50Z</time>
      </trkpt>
      <trkpt lat="48.47427" lon="2.25671">
        <ele>150.2</ele>
        <time>2026-02-02T11:44:51Z</time>
      </trkpt>
      <trkpt lat="48.47425" lon="2.25678">
        <ele>150.2</ele>
        <time>2026-02-02T11:44:52Z</time>
      </trkpt>
      <trkpt lat="48.47424" lon="2.25685">
        <ele>150.4</ele>
        <time>2026-02-02T11:44:53Z</time>
      </trkpt>
      <trkpt lat="48.47422" lon="2.25692">
        <ele>150.4</ele>
        <time>2026-02-02T11:44:54Z</time>
      </trkpt>
      <trkpt lat="48.47421" lon="2.257">
        <ele>150.4</ele>
        <time>2026-02-02T11:44:55Z</time>
      </trkpt>
      <trkpt lat="48.47419" lon="2.25707">
        <ele>150.4</ele>
        <time>2026-02-02T11:44:56Z</time>
      </trkpt>
      <trkpt lat="48.47418" lon="2.25715">
        <ele>150.2</ele>
        <time>2026-02-02T11:44:57Z</time>
      </trkpt>
      <trkpt lat="48.47416" lon="2.25722">
        <ele>150.2</ele>
        <time>2026-02-02T11:44:58Z</time>
      </trkpt>
      <trkpt lat="48.47415" lon="2.2573">
        <ele>150.2</ele>
        <time>2026-02-02T11:44:59Z</time>
      </trkpt>
      <trkpt lat="48.47414" lon="2.25737">
        <ele>150.8</ele>
        <time>2026-02-02T11:45:00Z</time>
      </trkpt>
      <trkpt lat="48.47412" lon="2.25745">
        <ele>150.2</ele>
        <time>2026-02-02T11:45:01Z</time>
      </trkpt>
      <trkpt lat="48.47411" lon="2.25753">
        <ele>150.2</ele>
        <time>2026-02-02T11:45:02Z</time>
      </trkpt>
      <trkpt lat="48.4741" lon="2.25761">
        <ele>150.2</ele>
        <time>2026-02-02T11:45:03Z</time>
      </trkpt>
      <trkpt lat="48.47409" lon="2.25769">
        <ele>150.2</ele>
        <time>2026-02-02T11:45:04Z</time>
      </trkpt>
      <trkpt lat="48.47407" lon="2.25777">
        <ele>149.8</ele>
        <time>2026-02-02T11:45:05Z</time>
      </trkpt>
      <trkpt lat="48.47406" lon="2.25785">
        <ele>149.8</ele>
        <time>2026-02-02T11:45:06Z</time>
      </trkpt>
      <trkpt lat="48.47405" lon="2.25793">
        <ele>149.8</ele>
        <time>2026-02-02T11:45:07Z</time>
      </trkpt>
      <trkpt lat="48.47403" lon="2.25802">
        <ele>149.8</ele>
        <time>2026-02-02T11:45:08Z</time>
      </trkpt>
      <trkpt lat="48.47402" lon="2.2581">
        <ele>149.2</ele>
        <time>2026-02-02T11:45:09Z</time>
      </trkpt>
      <trkpt lat="48.47401" lon="2.25818">
        <ele>149.2</ele>
        <time>2026-02-02T11:45:10Z</time>
      </trkpt>
      <trkpt lat="48.47399" lon="2.25827">
        <ele>149.2</ele>
        <time>2026-02-02T11:45:11Z</time>
      </trkpt>
      <trkpt lat="48.47397" lon="2.25835">
        <ele>149.8</ele>
        <time>2026-02-02T11:45:12Z</time>
      </trkpt>
      <trkpt lat="48.47396" lon="2.25843">
        <ele>149.4</ele>
        <time>2026-02-02T11:45:13Z</time>
      </trkpt>
      <trkpt lat="48.47395" lon="2.25852">
        <ele>149.4</ele>
        <time>2026-02-02T11:45:14Z</time>
      </trkpt>
      <trkpt lat="48.47393" lon="2.2586">
        <ele>149.4</ele>
        <time>2026-02-02T11:45:15Z</time>
      </trkpt>
      <trkpt lat="48.47392" lon="2.25869">
        <ele>149.4</ele>
        <time>2026-02-02T11:45:16Z</time>
      </trkpt>
      <trkpt lat="48.47391" lon="2.25877">
        <ele>149.4</ele>
        <time>2026-02-02T11:45:17Z</time>
      </trkpt>
      <trkpt lat="48.4739" lon="2.25886">
        <ele>149.4</ele>
        <time>2026-02-02T11:45:18Z</time>
      </trkpt>
      <trkpt lat="48.4739" lon="2.25895">
        <ele>149.4</ele>
        <time>2026-02-02T11:45:19Z</time>
      </trkpt>
      <trkpt lat="48.47389" lon="2.25904">
        <ele>149.4</ele>
        <time>2026-02-02T11:45:20Z</time>
      </trkpt>
      <trkpt lat="48.47389" lon="2.25913">
        <ele>149.8</ele>
        <time>2026-02-02T11:45:21Z</time>
      </trkpt>
      <trkpt lat="48.47389" lon="2.25922">
        <ele>149.8</ele>
        <time>2026-02-02T11:45:22Z</time>
      </trkpt>
      <trkpt lat="48.4739" lon="2.25931">
        <ele>149.8</ele>
        <time>2026-02-02T11:45:23Z</time>
      </trkpt>
      <trkpt lat="48.4739" lon="2.2594">
        <ele>150</ele>
        <time>2026-02-02T11:45:24Z</time>
      </trkpt>
      <trkpt lat="48.47391" lon="2.25949">
        <ele>150</ele>
        <time>2026-02-02T11:45:25Z</time>
      </trkpt>
      <trkpt lat="48.47392" lon="2.25958">
        <ele>150</ele>
        <time>2026-02-02T11:45:26Z</time>
      </trkpt>
      <trkpt lat="48.47393" lon="2.25967">
        <ele>150</ele>
        <time>2026-02-02T11:45:27Z</time>
      </trkpt>
      <trkpt lat="48.47394" lon="2.25976">
        <ele>150</ele>
        <time>2026-02-02T11:45:28Z</time>
      </trkpt>
      <trkpt lat="48.47396" lon="2.25986">
        <ele>150.2</ele>
        <time>2026-02-02T11:45:29Z</time>
      </trkpt>
      <trkpt lat="48.47397" lon="2.25995">
        <ele>150.2</ele>
        <time>2026-02-02T11:45:30Z</time>
      </trkpt>
      <trkpt lat="48.47399" lon="2.26003">
        <ele>150.2</ele>
        <time>2026-02-02T11:45:31Z</time>
      </trkpt>
      <trkpt lat="48.47401" lon="2.26012">
        <ele>150</ele>
        <time>2026-02-02T11:45:32Z</time>
      </trkpt>
      <trkpt lat="48.47404" lon="2.2602">
        <ele>150</ele>
        <time>2026-02-02T11:45:33Z</time>
      </trkpt>
      <trkpt lat="48.47408" lon="2.26027">
        <ele>150</ele>
        <time>2026-02-02T11:45:34Z</time>
      </trkpt>
      <trkpt lat="48.47412" lon="2.26034">
        <ele>150</ele>
        <time>2026-02-02T11:45:35Z</time>
      </trkpt>
      <trkpt lat="48.47416" lon="2.26041">
        <ele>150</ele>
        <time>2026-02-02T11:45:36Z</time>
      </trkpt>
      <trkpt lat="48.4742" lon="2.26048">
        <ele>149.2</ele>
        <time>2026-02-02T11:45:37Z</time>
      </trkpt>
      <trkpt lat="48.47425" lon="2.26054">
        <ele>149.2</ele>
        <time>2026-02-02T11:45:38Z</time>
      </trkpt>
      <trkpt lat="48.4743" lon="2.26061">
        <ele>149.2</ele>
        <time>2026-02-02T11:45:39Z</time>
      </trkpt>
      <trkpt lat="48.47435" lon="2.26067">
        <ele>149.2</ele>
        <time>2026-02-02T11:45:40Z</time>
      </trkpt>
      <trkpt lat="48.47439" lon="2.26075">
        <ele>149.6</ele>
        <time>2026-02-02T11:45:41Z</time>
      </trkpt>
      <trkpt lat="48.47442" lon="2.26082">
        <ele>149.6</ele>
        <time>2026-02-02T11:45:42Z</time>
      </trkpt>
      <trkpt lat="48.47446" lon="2.26089">
        <ele>149.6</ele>
        <time>2026-02-02T11:45:43Z</time>
      </trkpt>
      <trkpt lat="48.47448" lon="2.26097">
        <ele>150</ele>
        <time>2026-02-02T11:45:44Z</time>
      </trkpt>
      <trkpt lat="48.4745" lon="2.26104">
        <ele>150.2</ele>
        <time>2026-02-02T11:45:45Z</time>
      </trkpt>
      <trkpt lat="48.47452" lon="2.26111">
        <ele>150.2</ele>
        <time>2026-02-02T11:45:46Z</time>
      </trkpt>
      <trkpt lat="48.47453" lon="2.26118">
        <ele>150.2</ele>
        <time>2026-02-02T11:45:47Z</time>
      </trkpt>
      <trkpt lat="48.47454" lon="2.26124">
        <ele>151.2</ele>
        <time>2026-02-02T11:45:48Z</time>
      </trkpt>
      <trkpt lat="48.47454" lon="2.2613">
        <ele>152</ele>
        <time>2026-02-02T11:45:49Z</time>
      </trkpt>
      <trkpt lat="48.47455" lon="2.26136">
        <ele>152</ele>
        <time>2026-02-02T11:45:50Z</time>
      </trkpt>
      <trkpt lat="48.47455" lon="2.26142">
        <ele>152</ele>
        <time>2026-02-02T11:45:51Z</time>
      </trkpt>
      <trkpt lat="48.47456" lon="2.26147">
        <ele>152.4</ele>
        <time>2026-02-02T11:45:52Z</time>
      </trkpt>
      <trkpt lat="48.47455" lon="2.26152">
        <ele>152.4</ele>
        <time>2026-02-02T11:45:53Z</time>
      </trkpt>
      <trkpt lat="48.47455" lon="2.26157">
        <ele>152.4</ele>
        <time>2026-02-02T11:45:54Z</time>
      </trkpt>
      <trkpt lat="48.47455" lon="2.26162">
        <ele>152.4</ele>
        <time>2026-02-02T11:45:55Z</time>
      </trkpt>
      <trkpt lat="48.47454" lon="2.26167">
        <ele>153.2</ele>
        <time>2026-02-02T11:45:56Z</time>
      </trkpt>
      <trkpt lat="48.47454" lon="2.26172">
        <ele>153.4</ele>
        <time>2026-02-02T11:45:57Z</time>
      </trkpt>
      <trkpt lat="48.47454" lon="2.26176">
        <ele>153.4</ele>
        <time>2026-02-02T11:45:58Z</time>
      </trkpt>
      <trkpt lat="48.47453" lon="2.2618">
        <ele>153.4</ele>
        <time>2026-02-02T11:45:59Z</time>
      </trkpt>
      <trkpt lat="48.47453" lon="2.26184">
        <ele>153.8</ele>
        <time>2026-02-02T11:46:00Z</time>
      </trkpt>
      <trkpt lat="48.47453" lon="2.26188">
        <ele>154</ele>
        <time>2026-02-02T11:46:01Z</time>
      </trkpt>
      <trkpt lat="48.47453" lon="2.26192">
        <ele>154</ele>
        <time>2026-02-02T11:46:02Z</time>
      </trkpt>
      <trkpt lat="48.47452" lon="2.26197">
        <ele>154</ele>
        <time>2026-02-02T11:46:03Z</time>
      </trkpt>
      <trkpt lat="48.47452" lon="2.26201">
        <ele>154.4</ele>
        <time>2026-02-02T11:46:04Z</time>
      </trkpt>
      <trkpt lat="48.47452" lon="2.26205">
        <ele>154.6</ele>
        <time>2026-02-02T11:46:05Z</time>
      </trkpt>
      <trkpt lat="48.47451" lon="2.26209">
        <ele>154.6</ele>
        <time>2026-02-02T11:46:06Z</time>
      </trkpt>
      <trkpt lat="48.47451" lon="2.26213">
        <ele>154.6</ele>
        <time>2026-02-02T11:46:07Z</time>
      </trkpt>
      <trkpt lat="48.47451" lon="2.26218">
        <ele>155.2</ele>
        <time>2026-02-02T11:46:08Z</time>
      </trkpt>
      <trkpt lat="48.4745" lon="2.26222">
        <ele>155.8</ele>
        <time>2026-02-02T11:46:09Z</time>
      </trkpt>
      <trkpt lat="48.4745" lon="2.26226">
        <ele>155.8</ele>
        <time>2026-02-02T11:46:10Z</time>
      </trkpt>
      <trkpt lat="48.4745" lon="2.26231">
        <ele>155.8</ele>
        <time>2026-02-02T11:46:11Z</time>
      </trkpt>
      <trkpt lat="48.47449" lon="2.26235">
        <ele>155.8</ele>
        <time>2026-02-02T11:46:12Z</time>
      </trkpt>
      <trkpt lat="48.47449" lon="2.2624">
        <ele>156.4</ele>
        <time>2026-02-02T11:46:13Z</time>
      </trkpt>
      <trkpt lat="48.47449" lon="2.26244">
        <ele>156.4</ele>
        <time>2026-02-02T11:46:14Z</time>
      </trkpt>
      <trkpt lat="48.47448" lon="2.26248">
        <ele>156.4</ele>
        <time>2026-02-02T11:46:15Z</time>
      </trkpt>
      <trkpt lat="48.47447" lon="2.26253">
        <ele>156.6</ele>
        <time>2026-02-02T11:46:16Z</time>
      </trkpt>
      <trkpt lat="48.47446" lon="2.26257">
        <ele>157</ele>
        <time>2026-02-02T11:46:17Z</time>
      </trkpt>
      <trkpt lat="48.47446" lon="2.26262">
        <ele>157</ele>
        <time>2026-02-02T11:46:18Z</time>
      </trkpt>
      <trkpt lat="48.47445" lon="2.26266">
        <ele>157</ele>
        <time>2026-02-02T11:46:19Z</time>
      </trkpt>
      <trkpt lat="48.47445" lon="2.26271">
        <ele>157.4</ele>
        <time>2026-02-02T11:46:20Z</time>
      </trkpt>
      <trkpt lat="48.47445" lon="2.26274">
        <ele>158</ele>
        <time>2026-02-02T11:46:21Z</time>
      </trkpt>
      <trkpt lat="48.47445" lon="2.26279">
        <ele>158</ele>
        <time>2026-02-02T11:46:22Z</time>
      </trkpt>
      <trkpt lat="48.47444" lon="2.26284">
        <ele>158</ele>
        <time>2026-02-02T11:46:23Z</time>
      </trkpt>
      <trkpt lat="48.47444" lon="2.26289">
        <ele>158</ele>
        <time>2026-02-02T11:46:24Z</time>
      </trkpt>
      <trkpt lat="48.47443" lon="2.26293">
        <ele>158.2</ele>
        <time>2026-02-02T11:46:25Z</time>
      </trkpt>
      <trkpt lat="48.47443" lon="2.26298">
        <ele>158.2</ele>
        <time>2026-02-02T11:46:26Z</time>
      </trkpt>
      <trkpt lat="48.47443" lon="2.26303">
        <ele>158.2</ele>
        <time>2026-02-02T11:46:27Z</time>
      </trkpt>
      <trkpt lat="48.47443" lon="2.26307">
        <ele>158.6</ele>
        <time>2026-02-02T11:46:28Z</time>
      </trkpt>
      <trkpt lat="48.47443" lon="2.26313">
        <ele>159</ele>
        <time>2026-02-02T11:46:29Z</time>
      </trkpt>
      <trkpt lat="48.47443" lon="2.26318">
        <ele>159</ele>
        <time>2026-02-02T11:46:30Z</time>
      </trkpt>
      <trkpt lat="48.47442" lon="2.26323">
        <ele>159</ele>
        <time>2026-02-02T11:46:31Z</time>
      </trkpt>
      <trkpt lat="48.47442" lon="2.26329">
        <ele>159</ele>
        <time>2026-02-02T11:46:32Z</time>
      </trkpt>
      <trkpt lat="48.47442" lon="2.26334">
        <ele>159.4</ele>
        <time>2026-02-02T11:46:33Z</time>
      </trkpt>
      <trkpt lat="48.47441" lon="2.2634">
        <ele>159.4</ele>
        <time>2026-02-02T11:46:34Z</time>
      </trkpt>
      <trkpt lat="48.47441" lon="2.26345">
        <ele>159.4</ele>
        <time>2026-02-02T11:46:35Z</time>
      </trkpt>
      <trkpt lat="48.47441" lon="2.26351">
        <ele>160.2</ele>
        <time>2026-02-02T11:46:36Z</time>
      </trkpt>
      <trkpt lat="48.47441" lon="2.26357">
        <ele>160</ele>
        <time>2026-02-02T11:46:37Z</time>
      </trkpt>
      <trkpt lat="48.4744" lon="2.26362">
        <ele>160</ele>
        <time>2026-02-02T11:46:38Z</time>
      </trkpt>
      <trkpt lat="48.4744" lon="2.26367">
        <ele>160</ele>
        <time>2026-02-02T11:46:39Z</time>
      </trkpt>
      <trkpt lat="48.47439" lon="2.26373">
        <ele>160</ele>
        <time>2026-02-02T11:46:40Z</time>
      </trkpt>
      <trkpt lat="48.47439" lon="2.26379">
        <ele>160.4</ele>
        <time>2026-02-02T11:46:41Z</time>
      </trkpt>
      <trkpt lat="48.47438" lon="2.26384">
        <ele>160.4</ele>
        <time>2026-02-02T11:46:42Z</time>
      </trkpt>
      <trkpt lat="48.47438" lon="2.2639">
        <ele>160.4</ele>
        <time>2026-02-02T11:46:43Z</time>
      </trkpt>
      <trkpt lat="48.47437" lon="2.26395">
        <ele>161.2</ele>
        <time>2026-02-02T11:46:44Z</time>
      </trkpt>
      <trkpt lat="48.47437" lon="2.26401">
        <ele>161</ele>
        <time>2026-02-02T11:46:45Z</time>
      </trkpt>
      <trkpt lat="48.47436" lon="2.26407">
        <ele>161</ele>
        <time>2026-02-02T11:46:46Z</time>
      </trkpt>
      <trkpt lat="48.47436" lon="2.26413">
        <ele>161</ele>
        <time>2026-02-02T11:46:47Z</time>
      </trkpt>
      <trkpt lat="48.47436" lon="2.26419">
        <ele>161</ele>
        <time>2026-02-02T11:46:48Z</time>
      </trkpt>
      <trkpt lat="48.47435" lon="2.26425">
        <ele>161</ele>
        <time>2026-02-02T11:46:49Z</time>
      </trkpt>
      <trkpt lat="48.47434" lon="2.26431">
        <ele>161</ele>
        <time>2026-02-02T11:46:50Z</time>
      </trkpt>
      <trkpt lat="48.47434" lon="2.26437">
        <ele>161</ele>
        <time>2026-02-02T11:46:51Z</time>
      </trkpt>
      <trkpt lat="48.47433" lon="2.26443">
        <ele>161</ele>
        <time>2026-02-02T11:46:52Z</time>
      </trkpt>
      <trkpt lat="48.47433" lon="2.26449">
        <ele>161.4</ele>
        <time>2026-02-02T11:46:53Z</time>
      </trkpt>
      <trkpt lat="48.47432" lon="2.26456">
        <ele>161.4</ele>
        <time>2026-02-02T11:46:54Z</time>
      </trkpt>
      <trkpt lat="48.47431" lon="2.26462">
        <ele>161.4</ele>
        <time>2026-02-02T11:46:55Z</time>
      </trkpt>
      <trkpt lat="48.47431" lon="2.26469">
        <ele>161.8</ele>
        <time>2026-02-02T11:46:56Z</time>
      </trkpt>
      <trkpt lat="48.4743" lon="2.26475">
        <ele>161.6</ele>
        <time>2026-02-02T11:46:57Z</time>
      </trkpt>
      <trkpt lat="48.4743" lon="2.26482">
        <ele>161.6</ele>
        <time>2026-02-02T11:46:58Z</time>
      </trkpt>
      <trkpt lat="48.47429" lon="2.26488">
        <ele>161.6</ele>
        <time>2026-02-02T11:46:59Z</time>
      </trkpt>
      <trkpt lat="48.47429" lon="2.26496">
        <ele>161.6</ele>
        <time>2026-02-02T11:47:00Z</time>
      </trkpt>
      <trkpt lat="48.47428" lon="2.26503">
        <ele>161</ele>
        <time>2026-02-02T11:47:01Z</time>
      </trkpt>
      <trkpt lat="48.47427" lon="2.2651">
        <ele>161</ele>
        <time>2026-02-02T11:47:02Z</time>
      </trkpt>
      <trkpt lat="48.47427" lon="2.26518">
        <ele>161</ele>
        <time>2026-02-02T11:47:03Z</time>
      </trkpt>
      <trkpt lat="48.47426" lon="2.26525">
        <ele>161.2</ele>
        <time>2026-02-02T11:47:04Z</time>
      </trkpt>
      <trkpt lat="48.47425" lon="2.26532">
        <ele>161.8</ele>
        <time>2026-02-02T11:47:05Z</time>
      </trkpt>
      <trkpt lat="48.47425" lon="2.2654">
        <ele>161.8</ele>
        <time>2026-02-02T11:47:06Z</time>
      </trkpt>
      <trkpt lat="48.47424" lon="2.26548">
        <ele>161.8</ele>
        <time>2026-02-02T11:47:07Z</time>
      </trkpt>
      <trkpt lat="48.47424" lon="2.26555">
        <ele>161.8</ele>
        <time>2026-02-02T11:47:08Z</time>
      </trkpt>
      <trkpt lat="48.47423" lon="2.26563">
        <ele>160.8</ele>
        <time>2026-02-02T11:47:09Z</time>
      </trkpt>
      <trkpt lat="48.47422" lon="2.26572">
        <ele>160.8</ele>
        <time>2026-02-02T11:47:10Z</time>
      </trkpt>
      <trkpt lat="48.47421" lon="2.2658">
        <ele>160.8</ele>
        <time>2026-02-02T11:47:11Z</time>
      </trkpt>
      <trkpt lat="48.47421" lon="2.26589">
        <ele>160.8</ele>
        <time>2026-02-02T11:47:12Z</time>
      </trkpt>
      <trkpt lat="48.4742" lon="2.26598">
        <ele>160.4</ele>
        <time>2026-02-02T11:47:13Z</time>
      </trkpt>
      <trkpt lat="48.47419" lon="2.26607">
        <ele>160.4</ele>
        <time>2026-02-02T11:47:14Z</time>
      </trkpt>
      <trkpt lat="48.47418" lon="2.26616">
        <ele>160.4</ele>
        <time>2026-02-02T11:47:15Z</time>
      </trkpt>
      <trkpt lat="48.47417" lon="2.26625">
        <ele>160.4</ele>
        <time>2026-02-02T11:47:16Z</time>
      </trkpt>
      <trkpt lat="48.47415" lon="2.26634">
        <ele>160.6</ele>
        <time>2026-02-02T11:47:17Z</time>
      </trkpt>
      <trkpt lat="48.47414" lon="2.26643">
        <ele>160.6</ele>
        <time>2026-02-02T11:47:18Z</time>
      </trkpt>
      <trkpt lat="48.47412" lon="2.26652">
        <ele>160.6</ele>
        <time>2026-02-02T11:47:19Z</time>
      </trkpt>
      <trkpt lat="48.47411" lon="2.26662">
        <ele>160</ele>
        <time>2026-02-02T11:47:20Z</time>
      </trkpt>
      <trkpt lat="48.47409" lon="2.26671">
        <ele>160.4</ele>
        <time>2026-02-02T11:47:21Z</time>
      </trkpt>
      <trkpt lat="48.47406" lon="2.2668">
        <ele>160.4</ele>
        <time>2026-02-02T11:47:22Z</time>
      </trkpt>
      <trkpt lat="48.47404" lon="2.26688">
        <ele>160.4</ele>
        <time>2026-02-02T11:47:23Z</time>
      </trkpt>
      <trkpt lat="48.47401" lon="2.26697">
        <ele>160.4</ele>
        <time>2026-02-02T11:47:24Z</time>
      </trkpt>
      <trkpt lat="48.47398" lon="2.26706">
        <ele>159.6</ele>
        <time>2026-02-02T11:47:25Z</time>
      </trkpt>
      <trkpt lat="48.47395" lon="2.26714">
        <ele>159.6</ele>
        <time>2026-02-02T11:47:26Z</time>
      </trkpt>
      <trkpt lat="48.47392" lon="2.26723">
        <ele>159.6</ele>
        <time>2026-02-02T11:47:27Z</time>
      </trkpt>
      <trkpt lat="48.47389" lon="2.26731">
        <ele>159.6</ele>
        <time>2026-02-02T11:47:28Z</time>
      </trkpt>
      <trkpt lat="48.47386" lon="2.2674">
        <ele>159.4</ele>
        <time>2026-02-02T11:47:29Z</time>
      </trkpt>
      <trkpt lat="48.47382" lon="2.26748">
        <ele>159.4</ele>
        <time>2026-02-02T11:47:30Z</time>
      </trkpt>
      <trkpt lat="48.47379" lon="2.26757">
        <ele>159.4</ele>
        <time>2026-02-02T11:47:31Z</time>
      </trkpt>
      <trkpt lat="48.47376" lon="2.26766">
        <ele>159.4</ele>
        <time>2026-02-02T11:47:32Z</time>
      </trkpt>
      <trkpt lat="48.47372" lon="2.26775">
        <ele>158.8</ele>
        <time>2026-02-02T11:47:33Z</time>
      </trkpt>
      <trkpt lat="48.47369" lon="2.26784">
        <ele>158.8</ele>
        <time>2026-02-02T11:47:34Z</time>
      </trkpt>
      <trkpt lat="48.47366" lon="2.26792">
        <ele>158.8</ele>
        <time>2026-02-02T11:47:35Z</time>
      </trkpt>
      <trkpt lat="48.47362" lon="2.26801">
        <ele>158.8</ele>
        <time>2026-02-02T11:47:36Z</time>
      </trkpt>
      <trkpt lat="48.47359" lon="2.2681">
        <ele>158.2</ele>
        <time>2026-02-02T11:47:37Z</time>
      </trkpt>
      <trkpt lat="48.47356" lon="2.2682">
        <ele>158.2</ele>
        <time>2026-02-02T11:47:38Z</time>
      </trkpt>
      <trkpt lat="48.47352" lon="2.26829">
        <ele>158.2</ele>
        <time>2026-02-02T11:47:39Z</time>
      </trkpt>
      <trkpt lat="48.47348" lon="2.26839">
        <ele>158.2</ele>
        <time>2026-02-02T11:47:40Z</time>
      </trkpt>
      <trkpt lat="48.47345" lon="2.26848">
        <ele>158</ele>
        <time>2026-02-02T11:47:41Z</time>
      </trkpt>
      <trkpt lat="48.47341" lon="2.26857">
        <ele>158</ele>
        <time>2026-02-02T11:47:42Z</time>
      </trkpt>
      <trkpt lat="48.47337" lon="2.26866">
        <ele>158</ele>
        <time>2026-02-02T11:47:43Z</time>
      </trkpt>
      <trkpt lat="48.47333" lon="2.26876">
        <ele>157.4</ele>
        <time>2026-02-02T11:47:44Z</time>
      </trkpt>
      <trkpt lat="48.47328" lon="2.26885">
        <ele>157.2</ele>
        <time>2026-02-02T11:47:45Z</time>
      </trkpt>
      <trkpt lat="48.47323" lon="2.26894">
        <ele>157.2</ele>
        <time>2026-02-02T11:47:46Z</time>
      </trkpt>
      <trkpt lat="48.47317" lon="2.26902">
        <ele>157.2</ele>
        <time>2026-02-02T11:47:47Z</time>
      </trkpt>
      <trkpt lat="48.47312" lon="2.2691">
        <ele>156.2</ele>
        <time>2026-02-02T11:47:48Z</time>
      </trkpt>
      <trkpt lat="48.47307" lon="2.26916">
        <ele>156.4</ele>
        <time>2026-02-02T11:47:49Z</time>
      </trkpt>
      <trkpt lat="48.47302" lon="2.26922">
        <ele>156.4</ele>
        <time>2026-02-02T11:47:50Z</time>
      </trkpt>
      <trkpt lat="48.47296" lon="2.26929">
        <ele>156.4</ele>
        <time>2026-02-02T11:47:51Z</time>
      </trkpt>
      <trkpt lat="48.47289" lon="2.26935">
        <ele>155.8</ele>
        <time>2026-02-02T11:47:52Z</time>
      </trkpt>
      <trkpt lat="48.47283" lon="2.26941">
        <ele>155.4</ele>
        <time>2026-02-02T11:47:53Z</time>
      </trkpt>
      <trkpt lat="48.47276" lon="2.26947">
        <ele>155.4</ele>
        <time>2026-02-02T11:47:54Z</time>
      </trkpt>
      <trkpt lat="48.47269" lon="2.26953">
        <ele>155.4</ele>
        <time>2026-02-02T11:47:55Z</time>
      </trkpt>
      <trkpt lat="48.47262" lon="2.26959">
        <ele>154.4</ele>
        <time>2026-02-02T11:47:56Z</time>
      </trkpt>
      <trkpt lat="48.47255" lon="2.26964">
        <ele>153.6</ele>
        <time>2026-02-02T11:47:57Z</time>
      </trkpt>
      <trkpt lat="48.47248" lon="2.2697">
        <ele>153.6</ele>
        <time>2026-02-02T11:47:58Z</time>
      </trkpt>
      <trkpt lat="48.47241" lon="2.26975">
        <ele>153.6</ele>
        <time>2026-02-02T11:47:59Z</time>
      </trkpt>
      <trkpt lat="48.47234" lon="2.26981">
        <ele>152.6</ele>
        <time>2026-02-02T11:48:00Z</time>
      </trkpt>
      <trkpt lat="48.47226" lon="2.26989">
        <ele>152.2</ele>
        <time>2026-02-02T11:48:01Z</time>
      </trkpt>
      <trkpt lat="48.47218" lon="2.26996">
        <ele>152.2</ele>
        <time>2026-02-02T11:48:02Z</time>
      </trkpt>
      <trkpt lat="48.4721" lon="2.27002">
        <ele>152.2</ele>
        <time>2026-02-02T11:48:03Z</time>
      </trkpt>
      <trkpt lat="48.47202" lon="2.27009">
        <ele>151.2</ele>
        <time>2026-02-02T11:48:04Z</time>
      </trkpt>
      <trkpt lat="48.47193" lon="2.27017">
        <ele>150</ele>
        <time>2026-02-02T11:48:05Z</time>
      </trkpt>
      <trkpt lat="48.47185" lon="2.27024">
        <ele>150</ele>
        <time>2026-02-02T11:48:06Z</time>
      </trkpt>
      <trkpt lat="48.47177" lon="2.27034">
        <ele>150</ele>
        <time>2026-02-02T11:48:07Z</time>
      </trkpt>
      <trkpt lat="48.4717" lon="2.27043">
        <ele>150</ele>
        <time>2026-02-02T11:48:08Z</time>
      </trkpt>
      <trkpt lat="48.47163" lon="2.27054">
        <ele>148</ele>
        <time>2026-02-02T11:48:09Z</time>
      </trkpt>
      <trkpt lat="48.47157" lon="2.27067">
        <ele>148</ele>
        <time>2026-02-02T11:48:10Z</time>
      </trkpt>
      <trkpt lat="48.47153" lon="2.27081">
        <ele>148</ele>
        <time>2026-02-02T11:48:11Z</time>
      </trkpt>
      <trkpt lat="48.47151" lon="2.27096">
        <ele>147</ele>
        <time>2026-02-02T11:48:12Z</time>
      </trkpt>
      <trkpt lat="48.47151" lon="2.27112">
        <ele>144.6</ele>
        <time>2026-02-02T11:48:13Z</time>
      </trkpt>
      <trkpt lat="48.47152" lon="2.27127">
        <ele>144.6</ele>
        <time>2026-02-02T11:48:14Z</time>
      </trkpt>
      <trkpt lat="48.47154" lon="2.27143">
        <ele>144.6</ele>
        <time>2026-02-02T11:48:15Z</time>
      </trkpt>
      <trkpt lat="48.47157" lon="2.27158">
        <ele>143.6</ele>
        <time>2026-02-02T11:48:16Z</time>
      </trkpt>
      <trkpt lat="48.47161" lon="2.27172">
        <ele>142</ele>
        <time>2026-02-02T11:48:17Z</time>
      </trkpt>
      <trkpt lat="48.47166" lon="2.27186">
        <ele>142</ele>
        <time>2026-02-02T11:48:18Z</time>
      </trkpt>
      <trkpt lat="48.47172" lon="2.27199">
        <ele>142</ele>
        <time>2026-02-02T11:48:19Z</time>
      </trkpt>
      <trkpt lat="48.47178" lon="2.27213">
        <ele>141</ele>
        <time>2026-02-02T11:48:20Z</time>
      </trkpt>
      <trkpt lat="48.47184" lon="2.27227">
        <ele>138.6</ele>
        <time>2026-02-02T11:48:21Z</time>
      </trkpt>
      <trkpt lat="48.4719" lon="2.2724">
        <ele>138.6</ele>
        <time>2026-02-02T11:48:22Z</time>
      </trkpt>
      <trkpt lat="48.47196" lon="2.27252">
        <ele>138.6</ele>
        <time>2026-02-02T11:48:23Z</time>
      </trkpt>
      <trkpt lat="48.472" lon="2.27264">
        <ele>137.6</ele>
        <time>2026-02-02T11:48:24Z</time>
      </trkpt>
      <trkpt lat="48.47204" lon="2.27274">
        <ele>137.2</ele>
        <time>2026-02-02T11:48:25Z</time>
      </trkpt>
      <trkpt lat="48.47206" lon="2.27285">
        <ele>137.2</ele>
        <time>2026-02-02T11:48:26Z</time>
      </trkpt>
      <trkpt lat="48.47207" lon="2.27296">
        <ele>137.2</ele>
        <time>2026-02-02T11:48:27Z</time>
      </trkpt>
      <trkpt lat="48.47206" lon="2.27308">
        <ele>136.2</ele>
        <time>2026-02-02T11:48:28Z</time>
      </trkpt>
      <trkpt lat="48.47203" lon="2.27319">
        <ele>134.4</ele>
        <time>2026-02-02T11:48:29Z</time>
      </trkpt>
      <trkpt lat="48.472" lon="2.2733">
        <ele>134.4</ele>
        <time>2026-02-02T11:48:30Z</time>
      </trkpt>
      <trkpt lat="48.47197" lon="2.27342">
        <ele>134.4</ele>
        <time>2026-02-02T11:48:31Z</time>
      </trkpt>
      <trkpt lat="48.47195" lon="2.27356">
        <ele>133.4</ele>
        <time>2026-02-02T11:48:32Z</time>
      </trkpt>
      <trkpt lat="48.47194" lon="2.27369">
        <ele>132.2</ele>
        <time>2026-02-02T11:48:33Z</time>
      </trkpt>
      <trkpt lat="48.47195" lon="2.27383">
        <ele>132.2</ele>
        <time>2026-02-02T11:48:34Z</time>
      </trkpt>
      <trkpt lat="48.47197" lon="2.27397">
        <ele>132.2</ele>
        <time>2026-02-02T11:48:35Z</time>
      </trkpt>
      <trkpt lat="48.472" lon="2.2741">
        <ele>131.2</ele>
        <time>2026-02-02T11:48:36Z</time>
      </trkpt>
      <trkpt lat="48.47204" lon="2.27424">
        <ele>129.2</ele>
        <time>2026-02-02T11:48:37Z</time>
      </trkpt>
      <trkpt lat="48.4721" lon="2.27436">
        <ele>129.2</ele>
        <time>2026-02-02T11:48:38Z</time>
      </trkpt>
      <trkpt lat="48.47216" lon="2.27448">
        <ele>129.2</ele>
        <time>2026-02-02T11:48:39Z</time>
      </trkpt>
      <trkpt lat="48.47222" lon="2.27461">
        <ele>128.2</ele>
        <time>2026-02-02T11:48:40Z</time>
      </trkpt>
      <trkpt lat="48.47228" lon="2.27474">
        <ele>125.6</ele>
        <time>2026-02-02T11:48:41Z</time>
      </trkpt>
      <trkpt lat="48.47235" lon="2.27487">
        <ele>125.6</ele>
        <time>2026-02-02T11:48:42Z</time>
      </trkpt>
      <trkpt lat="48.47241" lon="2.275">
        <ele>125.6</ele>
        <time>2026-02-02T11:48:43Z</time>
      </trkpt>
      <trkpt lat="48.47247" lon="2.27513">
        <ele>124.6</ele>
        <time>2026-02-02T11:48:44Z</time>
      </trkpt>
      <trkpt lat="48.47254" lon="2.27526">
        <ele>122.2</ele>
        <time>2026-02-02T11:48:45Z</time>
      </trkpt>
      <trkpt lat="48.47261" lon="2.27538">
        <ele>122.2</ele>
        <time>2026-02-02T11:48:46Z</time>
      </trkpt>
      <trkpt lat="48.47267" lon="2.27551">
        <ele>122.2</ele>
        <time>2026-02-02T11:48:47Z</time>
      </trkpt>
      <trkpt lat="48.47273" lon="2.27564">
        <ele>121.2</ele>
        <time>2026-02-02T11:48:48Z</time>
      </trkpt>
      <trkpt lat="48.47279" lon="2.27577">
        <ele>119</ele>
        <time>2026-02-02T11:48:49Z</time>
      </trkpt>
      <trkpt lat="48.47286" lon="2.2759">
        <ele>119</ele>
        <time>2026-02-02T11:48:50Z</time>
      </trkpt>
      <trkpt lat="48.47294" lon="2.27603">
        <ele>119</ele>
        <time>2026-02-02T11:48:51Z</time>
      </trkpt>
      <trkpt lat="48.47301" lon="2.27616">
        <ele>118</ele>
        <time>2026-02-02T11:48:52Z</time>
      </trkpt>
      <trkpt lat="48.47308" lon="2.27629">
        <ele>115.8</ele>
        <time>2026-02-02T11:48:53Z</time>
      </trkpt>
      <trkpt lat="48.47314" lon="2.27641">
        <ele>115.8</ele>
        <time>2026-02-02T11:48:54Z</time>
      </trkpt>
      <trkpt lat="48.4732" lon="2.27653">
        <ele>115.8</ele>
        <time>2026-02-02T11:48:55Z</time>
      </trkpt>
      <trkpt lat="48.47325" lon="2.27664">
        <ele>114.8</ele>
        <time>2026-02-02T11:48:56Z</time>
      </trkpt>
      <trkpt lat="48.4733" lon="2.27675">
        <ele>114</ele>
        <time>2026-02-02T11:48:57Z</time>
      </trkpt>
      <trkpt lat="48.47334" lon="2.27686">
        <ele>114</ele>
        <time>2026-02-02T11:48:58Z</time>
      </trkpt>
      <trkpt lat="48.47337" lon="2.27698">
        <ele>114</ele>
        <time>2026-02-02T11:48:59Z</time>
      </trkpt>
      <trkpt lat="48.47339" lon="2.2771">
        <ele>113</ele>
        <time>2026-02-02T11:49:00Z</time>
      </trkpt>
      <trkpt lat="48.47339" lon="2.27722">
        <ele>111.6</ele>
        <time>2026-02-02T11:49:01Z</time>
      </trkpt>
      <trkpt lat="48.47338" lon="2.27734">
        <ele>111.6</ele>
        <time>2026-02-02T11:49:02Z</time>
      </trkpt>
      <trkpt lat="48.47336" lon="2.27746">
        <ele>111.6</ele>
        <time>2026-02-02T11:49:03Z</time>
      </trkpt>
      <trkpt lat="48.47333" lon="2.27758">
        <ele>110.6</ele>
        <time>2026-02-02T11:49:04Z</time>
      </trkpt>
      <trkpt lat="48.47328" lon="2.2777">
        <ele>108.2</ele>
        <time>2026-02-02T11:49:05Z</time>
      </trkpt>
      <trkpt lat="48.47323" lon="2.27782">
        <ele>108.2</ele>
        <time>2026-02-02T11:49:06Z</time>
      </trkpt>
      <trkpt lat="48.47317" lon="2.27794">
        <ele>108.2</ele>
        <time>2026-02-02T11:49:07Z</time>
      </trkpt>
      <trkpt lat="48.47312" lon="2.27806">
        <ele>107.2</ele>
        <time>2026-02-02T11:49:08Z</time>
      </trkpt>
      <trkpt lat="48.47306" lon="2.27818">
        <ele>105.4</ele>
        <time>2026-02-02T11:49:09Z</time>
      </trkpt>
      <trkpt lat="48.473" lon="2.2783">
        <ele>105.4</ele>
        <time>2026-02-02T11:49:10Z</time>
      </trkpt>
      <trkpt lat="48.47294" lon="2.27843">
        <ele>105.4</ele>
        <time>2026-02-02T11:49:11Z</time>
      </trkpt>
      <trkpt lat="48.47289" lon="2.27856">
        <ele>104.4</ele>
        <time>2026-02-02T11:49:12Z</time>
      </trkpt>
      <trkpt lat="48.47283" lon="2.27869">
        <ele>102</ele>
        <time>2026-02-02T11:49:13Z</time>
      </trkpt>
      <trkpt lat="48.47277" lon="2.27882">
        <ele>102</ele>
        <time>2026-02-02T11:49:14Z</time>
      </trkpt>
      <trkpt lat="48.47271" lon="2.27895">
        <ele>102</ele>
        <time>2026-02-02T11:49:15Z</time>
      </trkpt>
      <trkpt lat="48.47264" lon="2.27908">
        <ele>101</ele>
        <time>2026-02-02T11:49:16Z</time>
      </trkpt>
      <trkpt lat="48.47258" lon="2.27921">
        <ele>99.4</ele>
        <time>2026-02-02T11:49:17Z</time>
      </trkpt>
      <trkpt lat="48.47251" lon="2.27934">
        <ele>99.4</ele>
        <time>2026-02-02T11:49:18Z</time>
      </trkpt>
      <trkpt lat="48.47245" lon="2.27947">
        <ele>99.4</ele>
        <time>2026-02-02T11:49:19Z</time>
      </trkpt>
      <trkpt lat="48.47239" lon="2.2796">
        <ele>98.4</ele>
        <time>2026-02-02T11:49:20Z</time>
      </trkpt>
      <trkpt lat="48.47233" lon="2.27973">
        <ele>96.8</ele>
        <time>2026-02-02T11:49:21Z</time>
      </trkpt>
      <trkpt lat="48.47227" lon="2.27986">
        <ele>96.8</ele>
        <time>2026-02-02T11:49:22Z</time>
      </trkpt>
      <trkpt lat="48.47221" lon="2.27999">
        <ele>96.8</ele>
        <time>2026-02-02T11:49:23Z</time>
      </trkpt>
      <trkpt lat="48.47215" lon="2.28012">
        <ele>96.8</ele>
        <time>2026-02-02T11:49:24Z</time>
      </trkpt>
      <trkpt lat="48.47209" lon="2.28025">
        <ele>95</ele>
        <time>2026-02-02T11:49:25Z</time>
      </trkpt>
      <trkpt lat="48.47203" lon="2.28037">
        <ele>95</ele>
        <time>2026-02-02T11:49:26Z</time>
      </trkpt>
      <trkpt lat="48.47197" lon="2.2805">
        <ele>95</ele>
        <time>2026-02-02T11:49:27Z</time>
      </trkpt>
      <trkpt lat="48.47192" lon="2.28062">
        <ele>94.6</ele>
        <time>2026-02-02T11:49:28Z</time>
      </trkpt>
      <trkpt lat="48.47186" lon="2.28074">
        <ele>94.2</ele>
        <time>2026-02-02T11:49:29Z</time>
      </trkpt>
      <trkpt lat="48.4718" lon="2.28086">
        <ele>94.2</ele>
        <time>2026-02-02T11:49:30Z</time>
      </trkpt>
      <trkpt lat="48.47175" lon="2.28097">
        <ele>94.2</ele>
        <time>2026-02-02T11:49:31Z</time>
      </trkpt>
      <trkpt lat="48.4717" lon="2.28107">
        <ele>94</ele>
        <time>2026-02-02T11:49:32Z</time>
      </trkpt>
      <trkpt lat="48.47166" lon="2.28115">
        <ele>93.8</ele>
        <time>2026-02-02T11:49:33Z</time>
      </trkpt>
      <trkpt lat="48.47163" lon="2.28123">
        <ele>93.8</ele>
        <time>2026-02-02T11:49:34Z</time>
      </trkpt>
      <trkpt lat="48.4716" lon="2.2813">
        <ele>93.8</ele>
        <time>2026-02-02T11:49:35Z</time>
      </trkpt>
      <trkpt lat="48.47157" lon="2.28136">
        <ele>93.8</ele>
        <time>2026-02-02T11:49:36Z</time>
      </trkpt>
      <trkpt lat="48.47155" lon="2.2814">
        <ele>93.6</ele>
        <time>2026-02-02T11:49:37Z</time>
      </trkpt>
      <trkpt lat="48.47154" lon="2.28143">
        <ele>93.6</ele>
        <time>2026-02-02T11:49:38Z</time>
      </trkpt>
      <trkpt lat="48.47153" lon="2.28146">
        <ele>93.6</ele>
        <time>2026-02-02T11:49:39Z</time>
      </trkpt>
      <trkpt lat="48.47151" lon="2.28149">
        <ele>93.6</ele>
        <time>2026-02-02T11:49:40Z</time>
      </trkpt>
      <trkpt lat="48.4715" lon="2.28154">
        <ele>93.4</ele>
        <time>2026-02-02T11:49:41Z</time>
      </trkpt>
      <trkpt lat="48.47149" lon="2.28158">
        <ele>93.4</ele>
        <time>2026-02-02T11:49:42Z</time>
      </trkpt>
      <trkpt lat="48.47148" lon="2.28164">
        <ele>93.4</ele>
        <time>2026-02-02T11:49:43Z</time>
      </trkpt>
      <trkpt lat="48.47146" lon="2.2817">
        <ele>93.2</ele>
        <time>2026-02-02T11:49:44Z</time>
      </trkpt>
      <trkpt lat="48.47145" lon="2.28176">
        <ele>93.4</ele>
        <time>2026-02-02T11:49:45Z</time>
      </trkpt>
      <trkpt lat="48.47144" lon="2.28183">
        <ele>93.4</ele>
        <time>2026-02-02T11:49:46Z</time>
      </trkpt>
      <trkpt lat="48.47144" lon="2.2819">
        <ele>93.4</ele>
        <time>2026-02-02T11:49:47Z</time>
      </trkpt>
      <trkpt lat="48.47143" lon="2.28198">
        <ele>92.4</ele>
        <time>2026-02-02T11:49:48Z</time>
      </trkpt>
      <trkpt lat="48.47142" lon="2.28205">
        <ele>92</ele>
        <time>2026-02-02T11:49:49Z</time>
      </trkpt>
      <trkpt lat="48.4714" lon="2.28214">
        <ele>92</ele>
        <time>2026-02-02T11:49:50Z</time>
      </trkpt>
      <trkpt lat="48.47139" lon="2.28222">
        <ele>92</ele>
        <time>2026-02-02T11:49:51Z</time>
      </trkpt>
      <trkpt lat="48.47137" lon="2.28231">
        <ele>92</ele>
        <time>2026-02-02T11:49:52Z</time>
      </trkpt>
      <trkpt lat="48.47135" lon="2.2824">
        <ele>91.6</ele>
        <time>2026-02-02T11:49:53Z</time>
      </trkpt>
      <trkpt lat="48.47134" lon="2.28249">
        <ele>91.6</ele>
        <time>2026-02-02T11:49:54Z</time>
      </trkpt>
      <trkpt lat="48.47133" lon="2.28259">
        <ele>91.6</ele>
        <time>2026-02-02T11:49:55Z</time>
      </trkpt>
      <trkpt lat="48.47131" lon="2.28268">
        <ele>91</ele>
        <time>2026-02-02T11:49:56Z</time>
      </trkpt>
      <trkpt lat="48.4713" lon="2.28277">
        <ele>90.8</ele>
        <time>2026-02-02T11:49:57Z</time>
      </trkpt>
      <trkpt lat="48.47128" lon="2.28286">
        <ele>90.8</ele>
        <time>2026-02-02T11:49:58Z</time>
      </trkpt>
      <trkpt lat="48.47127" lon="2.28294">
        <ele>90.8</ele>
        <time>2026-02-02T11:49:59Z</time>
      </trkpt>
      <trkpt lat="48.47125" lon="2.28301">
        <ele>90.8</ele>
        <time>2026-02-02T11:50:00Z</time>
      </trkpt>
      <trkpt lat="48.47124" lon="2.28305">
        <ele>91</ele>
        <time>2026-02-02T11:50:01Z</time>
      </trkpt>
      <trkpt lat="48.47122" lon="2.28306">
        <ele>91</ele>
        <time>2026-02-02T11:50:02Z</time>
      </trkpt>
      <trkpt lat="48.4712" lon="2.28305">
        <ele>91</ele>
        <time>2026-02-02T11:50:03Z</time>
      </trkpt>
      <trkpt lat="48.47118" lon="2.28304">
        <ele>91</ele>
        <time>2026-02-02T11:50:04Z</time>
      </trkpt>
      <trkpt lat="48.47116" lon="2.28303">
        <ele>90.6</ele>
        <time>2026-02-02T11:50:05Z</time>
      </trkpt>
      <trkpt lat="48.47116" lon="2.28303">
        <ele>90.6</ele>
        <time>2026-02-02T11:50:06Z</time>
      </trkpt>
      <trkpt lat="48.47116" lon="2.28304">
        <ele>90.6</ele>
        <time>2026-02-02T11:50:07Z</time>
      </trkpt>
      <trkpt lat="48.47116" lon="2.28304">
        <ele>90.6</ele>
        <time>2026-02-02T11:50:08Z</time>
      </trkpt>
      <trkpt lat="48.47111" lon="2.28301">
        <ele>90.6</ele>
        <time>2026-02-02T11:50:15Z</time>
      </trkpt>
      <trkpt lat="48.47108" lon="2.283">
        <ele>90.6</ele>
        <time>2026-02-02T11:50:16Z</time>
      </trkpt>
      <trkpt lat="48.47105" lon="2.28299">
        <ele>90.6</ele>
        <time>2026-02-02T11:50:17Z</time>
      </trkpt>
      <trkpt lat="48.47101" lon="2.28298">
        <ele>90.6</ele>
        <time>2026-02-02T11:50:18Z</time>
      </trkpt>
      <trkpt lat="48.47098" lon="2.28297">
        <ele>90.6</ele>
        <time>2026-02-02T11:50:19Z</time>
      </trkpt>
      <trkpt lat="48.47094" lon="2.28296">
        <ele>90</ele>
        <time>2026-02-02T11:50:20Z</time>
      </trkpt>
      <trkpt lat="48.47092" lon="2.28294">
        <ele>90.2</ele>
        <time>2026-02-02T11:50:21Z</time>
      </trkpt>
      <trkpt lat="48.47091" lon="2.28295">
        <ele>90.2</ele>
        <time>2026-02-02T11:50:22Z</time>
      </trkpt>
      <trkpt lat="48.47091" lon="2.28295">
        <ele>90.2</ele>
        <time>2026-02-02T11:50:23Z</time>
      </trkpt>
      <trkpt lat="48.47091" lon="2.28295">
        <ele>90</ele>
        <time>2026-02-02T11:50:24Z</time>
      </trkpt>
      <trkpt lat="48.47091" lon="2.28295">
        <ele>90</ele>
        <time>2026-02-02T11:50:25Z</time>
      </trkpt>
      <trkpt lat="48.47085" lon="2.28294">
        <ele>90</ele>
        <time>2026-02-02T11:50:35Z</time>
      </trkpt>
      <trkpt lat="48.47082" lon="2.28294">
        <ele>90</ele>
        <time>2026-02-02T11:50:36Z</time>
      </trkpt>
      <trkpt lat="48.47078" lon="2.28293">
        <ele>90</ele>
        <time>2026-02-02T11:50:37Z</time>
      </trkpt>
      <trkpt lat="48.47074" lon="2.28292">
        <ele>90</ele>
        <time>2026-02-02T11:50:38Z</time>
      </trkpt>
      <trkpt lat="48.4707" lon="2.28292">
        <ele>90</ele>
        <time>2026-02-02T11:50:39Z</time>
      </trkpt>
      <trkpt lat="48.47065" lon="2.28291">
        <ele>89.4</ele>
        <time>2026-02-02T11:50:40Z</time>
      </trkpt>
      <trkpt lat="48.4706" lon="2.2829">
        <ele>89.6</ele>
        <time>2026-02-02T11:50:41Z</time>
      </trkpt>
      <trkpt lat="48.47056" lon="2.28289">
        <ele>89.6</ele>
        <time>2026-02-02T11:50:42Z</time>
      </trkpt>
      <trkpt lat="48.47051" lon="2.28288">
        <ele>89.6</ele>
        <time>2026-02-02T11:50:43Z</time>
      </trkpt>
      <trkpt lat="48.47046" lon="2.28286">
        <ele>89.4</ele>
        <time>2026-02-02T11:50:44Z</time>
      </trkpt>
      <trkpt lat="48.47041" lon="2.28285">
        <ele>89</ele>
        <time>2026-02-02T11:50:45Z</time>
      </trkpt>
      <trkpt lat="48.47036" lon="2.28283">
        <ele>89</ele>
        <time>2026-02-02T11:50:46Z</time>
      </trkpt>
      <trkpt lat="48.47031" lon="2.28281">
        <ele>89</ele>
        <time>2026-02-02T11:50:47Z</time>
      </trkpt>
      <trkpt lat="48.47025" lon="2.2828">
        <ele>89.2</ele>
        <time>2026-02-02T11:50:48Z</time>
      </trkpt>
      <trkpt lat="48.4702" lon="2.28277">
        <ele>88.8</ele>
        <time>2026-02-02T11:50:49Z</time>
      </trkpt>
      <trkpt lat="48.47014" lon="2.28274">
        <ele>88.8</ele>
        <time>2026-02-02T11:50:50Z</time>
      </trkpt>
      <trkpt lat="48.4701" lon="2.2827">
        <ele>88.8</ele>
        <time>2026-02-02T11:50:51Z</time>
      </trkpt>
      <trkpt lat="48.47005" lon="2.28266">
        <ele>88.8</ele>
        <time>2026-02-02T11:50:52Z</time>
      </trkpt>
      <trkpt lat="48.47" lon="2.28262">
        <ele>88.6</ele>
        <time>2026-02-02T11:50:53Z</time>
      </trkpt>
      <trkpt lat="48.46995" lon="2.28258">
        <ele>88.6</ele>
        <time>2026-02-02T11:50:54Z</time>
      </trkpt>
      <trkpt lat="48.4699" lon="2.28254">
        <ele>88.6</ele>
        <time>2026-02-02T11:50:55Z</time>
      </trkpt>
      <trkpt lat="48.46985" lon="2.2825">
        <ele>88.4</ele>
        <time>2026-02-02T11:50:56Z</time>
      </trkpt>
      <trkpt lat="48.46981" lon="2.2825">
        <ele>88.4</ele>
        <time>2026-02-02T11:50:57Z</time>
      </trkpt>
      <trkpt lat="48.46976" lon="2.28254">
        <ele>88.4</ele>
        <time>2026-02-02T11:50:58Z</time>
      </trkpt>
      <trkpt lat="48.46973" lon="2.28259">
        <ele>88.4</ele>
        <time>2026-02-02T11:50:59Z</time>
      </trkpt>
      <trkpt lat="48.46971" lon="2.28266">
        <ele>88.4</ele>
        <time>2026-02-02T11:51:00Z</time>
      </trkpt>
      <trkpt lat="48.46968" lon="2.28273">
        <ele>88</ele>
        <time>2026-02-02T11:51:01Z</time>
      </trkpt>
      <trkpt lat="48.46965" lon="2.2828">
        <ele>88</ele>
        <time>2026-02-02T11:51:02Z</time>
      </trkpt>
      <trkpt lat="48.46962" lon="2.28286">
        <ele>88</ele>
        <time>2026-02-02T11:51:03Z</time>
      </trkpt>
      <trkpt lat="48.46959" lon="2.28293">
        <ele>88</ele>
        <time>2026-02-02T11:51:04Z</time>
      </trkpt>
      <trkpt lat="48.46956" lon="2.28299">
        <ele>88</ele>
        <time>2026-02-02T11:51:05Z</time>
      </trkpt>
      <trkpt lat="48.46953" lon="2.28306">
        <ele>88</ele>
        <time>2026-02-02T11:51:06Z</time>
      </trkpt>
      <trkpt lat="48.4695" lon="2.28313">
        <ele>88</ele>
        <time>2026-02-02T11:51:07Z</time>
      </trkpt>
      <trkpt lat="48.46947" lon="2.2832">
        <ele>88</ele>
        <time>2026-02-02T11:51:08Z</time>
      </trkpt>
      <trkpt lat="48.46944" lon="2.28327">
        <ele>87.8</ele>
        <time>2026-02-02T11:51:09Z</time>
      </trkpt>
      <trkpt lat="48.46941" lon="2.28333">
        <ele>87.8</ele>
        <time>2026-02-02T11:51:10Z</time>
      </trkpt>
      <trkpt lat="48.46938" lon="2.2834">
        <ele>87.8</ele>
        <time>2026-02-02T11:51:11Z</time>
      </trkpt>
      <trkpt lat="48.46935" lon="2.28346">
        <ele>87.8</ele>
        <time>2026-02-02T11:51:12Z</time>
      </trkpt>
      <trkpt lat="48.46932" lon="2.28353">
        <ele>87.8</ele>
        <time>2026-02-02T11:51:13Z</time>
      </trkpt>
      <trkpt lat="48.46929" lon="2.2836">
        <ele>87.8</ele>
        <time>2026-02-02T11:51:14Z</time>
      </trkpt>
      <trkpt lat="48.46926" lon="2.28366">
        <ele>87.8</ele>
        <time>2026-02-02T11:51:15Z</time>
      </trkpt>
      <trkpt lat="48.46924" lon="2.28372">
        <ele>87.8</ele>
        <time>2026-02-02T11:51:16Z</time>
      </trkpt>
      <trkpt lat="48.46921" lon="2.28377">
        <ele>87.8</ele>
        <time>2026-02-02T11:51:17Z</time>
      </trkpt>
      <trkpt lat="48.46918" lon="2.28383">
        <ele>87.8</ele>
        <time>2026-02-02T11:51:18Z</time>
      </trkpt>
      <trkpt lat="48.46917" lon="2.28389">
        <ele>87.8</ele>
        <time>2026-02-02T11:51:19Z</time>
      </trkpt>
      <trkpt lat="48.46916" lon="2.28396">
        <ele>87.8</ele>
        <time>2026-02-02T11:51:20Z</time>
      </trkpt>
      <trkpt lat="48.46916" lon="2.28403">
        <ele>87.8</ele>
        <time>2026-02-02T11:51:21Z</time>
      </trkpt>
      <trkpt lat="48.46918" lon="2.28409">
        <ele>87.8</ele>
        <time>2026-02-02T11:51:22Z</time>
      </trkpt>
      <trkpt lat="48.46922" lon="2.28414">
        <ele>87.8</ele>
        <time>2026-02-02T11:51:23Z</time>
      </trkpt>
      <trkpt lat="48.46925" lon="2.2842">
        <ele>87.8</ele>
        <time>2026-02-02T11:51:24Z</time>
      </trkpt>
      <trkpt lat="48.46929" lon="2.28425">
        <ele>87.4</ele>
        <time>2026-02-02T11:51:25Z</time>
      </trkpt>
      <trkpt lat="48.46933" lon="2.2843">
        <ele>87.4</ele>
        <time>2026-02-02T11:51:26Z</time>
      </trkpt>
      <trkpt lat="48.46936" lon="2.28436">
        <ele>87.4</ele>
        <time>2026-02-02T11:51:27Z</time>
      </trkpt>
      <trkpt lat="48.4694" lon="2.28442">
        <ele>87.4</ele>
        <time>2026-02-02T11:51:28Z</time>
      </trkpt>
      <trkpt lat="48.46943" lon="2.28448">
        <ele>87.4</ele>
        <time>2026-02-02T11:51:29Z</time>
      </trkpt>
      <trkpt lat="48.46946" lon="2.28455">
        <ele>87.4</ele>
        <time>2026-02-02T11:51:30Z</time>
      </trkpt>
      <trkpt lat="48.46948" lon="2.28461">
        <ele>87.4</ele>
        <time>2026-02-02T11:51:31Z</time>
      </trkpt>
      <trkpt lat="48.46951" lon="2.28469">
        <ele>87.6</ele>
        <time>2026-02-02T11:51:32Z</time>
      </trkpt>
      <trkpt lat="48.46953" lon="2.28476">
        <ele>87.2</ele>
        <time>2026-02-02T11:51:33Z</time>
      </trkpt>
      <trkpt lat="48.46955" lon="2.28484">
        <ele>87.2</ele>
        <time>2026-02-02T11:51:34Z</time>
      </trkpt>
      <trkpt lat="48.46956" lon="2.28493">
        <ele>87.2</ele>
        <time>2026-02-02T11:51:35Z</time>
      </trkpt>
      <trkpt lat="48.46957" lon="2.28501">
        <ele>86.6</ele>
        <time>2026-02-02T11:51:36Z</time>
      </trkpt>
      <trkpt lat="48.46957" lon="2.28509">
        <ele>86.6</ele>
        <time>2026-02-02T11:51:37Z</time>
      </trkpt>
      <trkpt lat="48.46958" lon="2.28518">
        <ele>86.6</ele>
        <time>2026-02-02T11:51:38Z</time>
      </trkpt>
      <trkpt lat="48.46959" lon="2.28526">
        <ele>86.6</ele>
        <time>2026-02-02T11:51:39Z</time>
      </trkpt>
      <trkpt lat="48.46959" lon="2.28534">
        <ele>87</ele>
        <time>2026-02-02T11:51:40Z</time>
      </trkpt>
      <trkpt lat="48.4696" lon="2.28543">
        <ele>87.2</ele>
        <time>2026-02-02T11:51:41Z</time>
      </trkpt>
      <trkpt lat="48.46961" lon="2.28551">
        <ele>87.2</ele>
        <time>2026-02-02T11:51:42Z</time>
      </trkpt>
      <trkpt lat="48.46962" lon="2.2856">
        <ele>87.2</ele>
        <time>2026-02-02T11:51:43Z</time>
      </trkpt>
      <trkpt lat="48.46963" lon="2.28568">
        <ele>87</ele>
        <time>2026-02-02T11:51:44Z</time>
      </trkpt>
      <trkpt lat="48.46964" lon="2.28577">
        <ele>86.4</ele>
        <time>2026-02-02T11:51:45Z</time>
      </trkpt>
      <trkpt lat="48.46965" lon="2.28585">
        <ele>86.4</ele>
        <time>2026-02-02T11:51:46Z</time>
      </trkpt>
      <trkpt lat="48.46966" lon="2.28593">
        <ele>86.4</ele>
        <time>2026-02-02T11:51:47Z</time>
      </trkpt>
      <trkpt lat="48.46967" lon="2.28602">
        <ele>86.4</ele>
        <time>2026-02-02T11:51:48Z</time>
      </trkpt>
      <trkpt lat="48.46967" lon="2.2861">
        <ele>86.4</ele>
        <time>2026-02-02T11:51:49Z</time>
      </trkpt>
      <trkpt lat="48.46967" lon="2.28618">
        <ele>86.4</ele>
        <time>2026-02-02T11:51:50Z</time>
      </trkpt>
      <trkpt lat="48.46967" lon="2.28626">
        <ele>86.4</ele>
        <time>2026-02-02T11:51:51Z</time>
      </trkpt>
      <trkpt lat="48.46967" lon="2.28635">
        <ele>86.4</ele>
        <time>2026-02-02T11:51:52Z</time>
      </trkpt>
      <trkpt lat="48.46967" lon="2.28643">
        <ele>86.2</ele>
        <time>2026-02-02T11:51:53Z</time>
      </trkpt>
      <trkpt lat="48.46966" lon="2.28652">
        <ele>86.2</ele>
        <time>2026-02-02T11:51:54Z</time>
      </trkpt>
      <trkpt lat="48.46965" lon="2.2866">
        <ele>86.2</ele>
        <time>2026-02-02T11:51:55Z</time>
      </trkpt>
      <trkpt lat="48.46965" lon="2.28668">
        <ele>86.6</ele>
        <time>2026-02-02T11:51:56Z</time>
      </trkpt>
      <trkpt lat="48.46964" lon="2.28677">
        <ele>86.8</ele>
        <time>2026-02-02T11:51:57Z</time>
      </trkpt>
      <trkpt lat="48.46963" lon="2.28685">
        <ele>86.8</ele>
        <time>2026-02-02T11:51:58Z</time>
      </trkpt>
      <trkpt lat="48.46963" lon="2.28693">
        <ele>86.8</ele>
        <time>2026-02-02T11:51:59Z</time>
      </trkpt>
      <trkpt lat="48.46963" lon="2.28701">
        <ele>87.2</ele>
        <time>2026-02-02T11:52:00Z</time>
      </trkpt>
      <trkpt lat="48.46962" lon="2.28709">
        <ele>86.6</ele>
        <time>2026-02-02T11:52:01Z</time>
      </trkpt>
      <trkpt lat="48.46961" lon="2.28718">
        <ele>86.6</ele>
        <time>2026-02-02T11:52:02Z</time>
      </trkpt>
      <trkpt lat="48.46961" lon="2.28726">
        <ele>86.6</ele>
        <time>2026-02-02T11:52:03Z</time>
      </trkpt>
      <trkpt lat="48.4696" lon="2.28734">
        <ele>86.8</ele>
        <time>2026-02-02T11:52:04Z</time>
      </trkpt>
      <trkpt lat="48.46959" lon="2.28742">
        <ele>86.6</ele>
        <time>2026-02-02T11:52:05Z</time>
      </trkpt>
      <trkpt lat="48.46958" lon="2.2875">
        <ele>86.6</ele>
        <time>2026-02-02T11:52:06Z</time>
      </trkpt>
      <trkpt lat="48.46956" lon="2.28757">
        <ele>86.6</ele>
        <time>2026-02-02T11:52:07Z</time>
      </trkpt>
      <trkpt lat="48.46953" lon="2.28764">
        <ele>86.6</ele>
        <time>2026-02-02T11:52:08Z</time>
      </trkpt>
      <trkpt lat="48.46951" lon="2.28771">
        <ele>87</ele>
        <time>2026-02-02T11:52:09Z</time>
      </trkpt>
      <trkpt lat="48.46949" lon="2.28779">
        <ele>87</ele>
        <time>2026-02-02T11:52:10Z</time>
      </trkpt>
      <trkpt lat="48.46947" lon="2.28786">
        <ele>87</ele>
        <time>2026-02-02T11:52:11Z</time>
      </trkpt>
      <trkpt lat="48.46945" lon="2.28793">
        <ele>87</ele>
        <time>2026-02-02T11:52:12Z</time>
      </trkpt>
      <trkpt lat="48.46943" lon="2.288">
        <ele>86.8</ele>
        <time>2026-02-02T11:52:13Z</time>
      </trkpt>
      <trkpt lat="48.4694" lon="2.28806">
        <ele>86.8</ele>
        <time>2026-02-02T11:52:14Z</time>
      </trkpt>
      <trkpt lat="48.46937" lon="2.28811">
        <ele>86.8</ele>
        <time>2026-02-02T11:52:15Z</time>
      </trkpt>
      <trkpt lat="48.46933" lon="2.28817">
        <ele>86.8</ele>
        <time>2026-02-02T11:52:16Z</time>
      </trkpt>
      <trkpt lat="48.4693" lon="2.28822">
        <ele>87.2</ele>
        <time>2026-02-02T11:52:17Z</time>
      </trkpt>
      <trkpt lat="48.46928" lon="2.28828">
        <ele>87.2</ele>
        <time>2026-02-02T11:52:18Z</time>
      </trkpt>
      <trkpt lat="48.46925" lon="2.28834">
        <ele>87.2</ele>
        <time>2026-02-02T11:52:19Z</time>
      </trkpt>
      <trkpt lat="48.46922" lon="2.2884">
        <ele>87.6</ele>
        <time>2026-02-02T11:52:20Z</time>
      </trkpt>
      <trkpt lat="48.46919" lon="2.28846">
        <ele>87.6</ele>
        <time>2026-02-02T11:52:21Z</time>
      </trkpt>
      <trkpt lat="48.46918" lon="2.28854">
        <ele>87.8</ele>
        <time>2026-02-02T11:52:22Z</time>
      </trkpt>
      <trkpt lat="48.46916" lon="2.28861">
        <ele>87.8</ele>
        <time>2026-02-02T11:52:23Z</time>
      </trkpt>
      <trkpt lat="48.46914" lon="2.28869">
        <ele>87.8</ele>
        <time>2026-02-02T11:52:24Z</time>
      </trkpt>
      <trkpt lat="48.46913" lon="2.28878">
        <ele>88</ele>
        <time>2026-02-02T11:52:25Z</time>
      </trkpt>
      <trkpt lat="48.46912" lon="2.28887">
        <ele>88</ele>
        <time>2026-02-02T11:52:26Z</time>
      </trkpt>
      <trkpt lat="48.46911" lon="2.28896">
        <ele>88</ele>
        <time>2026-02-02T11:52:27Z</time>
      </trkpt>
      <trkpt lat="48.46911" lon="2.28904">
        <ele>88</ele>
        <time>2026-02-02T11:52:28Z</time>
      </trkpt>
      <trkpt lat="48.4691" lon="2.28913">
        <ele>87.6</ele>
        <time>2026-02-02T11:52:29Z</time>
      </trkpt>
      <trkpt lat="48.46909" lon="2.28923">
        <ele>87.6</ele>
        <time>2026-02-02T11:52:30Z</time>
      </trkpt>
      <trkpt lat="48.46909" lon="2.28931">
        <ele>87.6</ele>
        <time>2026-02-02T11:52:31Z</time>
      </trkpt>
      <trkpt lat="48.46908" lon="2.2894">
        <ele>87.6</ele>
        <time>2026-02-02T11:52:32Z</time>
      </trkpt>
      <trkpt lat="48.46907" lon="2.28949">
        <ele>87.6</ele>
        <time>2026-02-02T11:52:33Z</time>
      </trkpt>
      <trkpt lat="48.46907" lon="2.28958">
        <ele>87.6</ele>
        <time>2026-02-02T11:52:34Z</time>
      </trkpt>
      <trkpt lat="48.46906" lon="2.28967">
        <ele>87.6</ele>
        <time>2026-02-02T11:52:35Z</time>
      </trkpt>
      <trkpt lat="48.46905" lon="2.28976">
        <ele>88</ele>
        <time>2026-02-02T11:52:36Z</time>
      </trkpt>
      <trkpt lat="48.46904" lon="2.28984">
        <ele>88</ele>
        <time>2026-02-02T11:52:37Z</time>
      </trkpt>
      <trkpt lat="48.46902" lon="2.28993">
        <ele>88</ele>
        <time>2026-02-02T11:52:38Z</time>
      </trkpt>
      <trkpt lat="48.469" lon="2.29001">
        <ele>88</ele>
        <time>2026-02-02T11:52:39Z</time>
      </trkpt>
      <trkpt lat="48.46898" lon="2.29009">
        <ele>87.8</ele>
        <time>2026-02-02T11:52:40Z</time>
      </trkpt>
      <trkpt lat="48.46896" lon="2.29017">
        <ele>88</ele>
        <time>2026-02-02T11:52:41Z</time>
      </trkpt>
      <trkpt lat="48.46894" lon="2.29025">
        <ele>88</ele>
        <time>2026-02-02T11:52:42Z</time>
      </trkpt>
      <trkpt lat="48.46892" lon="2.29033">
        <ele>88</ele>
        <time>2026-02-02T11:52:43Z</time>
      </trkpt>
      <trkpt lat="48.46889" lon="2.2904">
        <ele>87.8</ele>
        <time>2026-02-02T11:52:44Z</time>
      </trkpt>
      <trkpt lat="48.46887" lon="2.29048">
        <ele>87.8</ele>
        <time>2026-02-02T11:52:45Z</time>
      </trkpt>
      <trkpt lat="48.46884" lon="2.29055">
        <ele>87.8</ele>
        <time>2026-02-02T11:52:46Z</time>
      </trkpt>
      <trkpt lat="48.46882" lon="2.29062">
        <ele>87.8</ele>
        <time>2026-02-02T11:52:47Z</time>
      </trkpt>
      <trkpt lat="48.46879" lon="2.29069">
        <ele>88.2</ele>
        <time>2026-02-02T11:52:48Z</time>
      </trkpt>
      <trkpt lat="48.46876" lon="2.29076">
        <ele>88.2</ele>
        <time>2026-02-02T11:52:49Z</time>
      </trkpt>
      <trkpt lat="48.46873" lon="2.29083">
        <ele>88.2</ele>
        <time>2026-02-02T11:52:50Z</time>
      </trkpt>
      <trkpt lat="48.46871" lon="2.2909">
        <ele>88.2</ele>
        <time>2026-02-02T11:52:51Z</time>
      </trkpt>
      <trkpt lat="48.46868" lon="2.29097">
        <ele>88.2</ele>
        <time>2026-02-02T11:52:52Z</time>
      </trkpt>
      <trkpt lat="48.46865" lon="2.29104">
        <ele>88.4</ele>
        <time>2026-02-02T11:52:53Z</time>
      </trkpt>
      <trkpt lat="48.46863" lon="2.29112">
        <ele>88.4</ele>
        <time>2026-02-02T11:52:54Z</time>
      </trkpt>
      <trkpt lat="48.46861" lon="2.29119">
        <ele>88.4</ele>
        <time>2026-02-02T11:52:55Z</time>
      </trkpt>
      <trkpt lat="48.46859" lon="2.29127">
        <ele>88.4</ele>
        <time>2026-02-02T11:52:56Z</time>
      </trkpt>
      <trkpt lat="48.46857" lon="2.29135">
        <ele>88.2</ele>
        <time>2026-02-02T11:52:57Z</time>
      </trkpt>
      <trkpt lat="48.46856" lon="2.29143">
        <ele>88.2</ele>
        <time>2026-02-02T11:52:58Z</time>
      </trkpt>
      <trkpt lat="48.46854" lon="2.29151">
        <ele>88.2</ele>
        <time>2026-02-02T11:52:59Z</time>
      </trkpt>
      <trkpt lat="48.46852" lon="2.29159">
        <ele>88.6</ele>
        <time>2026-02-02T11:53:00Z</time>
      </trkpt>
      <trkpt lat="48.46851" lon="2.29168">
        <ele>88.4</ele>
        <time>2026-02-02T11:53:01Z</time>
      </trkpt>
      <trkpt lat="48.46849" lon="2.29176">
        <ele>88.4</ele>
        <time>2026-02-02T11:53:02Z</time>
      </trkpt>
      <trkpt lat="48.46848" lon="2.29184">
        <ele>88.4</ele>
        <time>2026-02-02T11:53:03Z</time>
      </trkpt>
      <trkpt lat="48.46846" lon="2.29193">
        <ele>88.4</ele>
        <time>2026-02-02T11:53:04Z</time>
      </trkpt>
      <trkpt lat="48.46845" lon="2.29202">
        <ele>88</ele>
        <time>2026-02-02T11:53:05Z</time>
      </trkpt>
      <trkpt lat="48.46844" lon="2.2921">
        <ele>88</ele>
        <time>2026-02-02T11:53:06Z</time>
      </trkpt>
      <trkpt lat="48.46843" lon="2.29219">
        <ele>88</ele>
        <time>2026-02-02T11:53:07Z</time>
      </trkpt>
      <trkpt lat="48.46841" lon="2.29227">
        <ele>88</ele>
        <time>2026-02-02T11:53:08Z</time>
      </trkpt>
      <trkpt lat="48.4684" lon="2.29236">
        <ele>88.4</ele>
        <time>2026-02-02T11:53:09Z</time>
      </trkpt>
      <trkpt lat="48.46839" lon="2.29245">
        <ele>88.4</ele>
        <time>2026-02-02T11:53:10Z</time>
      </trkpt>
      <trkpt lat="48.46838" lon="2.29254">
        <ele>88.4</ele>
        <time>2026-02-02T11:53:11Z</time>
      </trkpt>
      <trkpt lat="48.46837" lon="2.29263">
        <ele>88.4</ele>
        <time>2026-02-02T11:53:12Z</time>
      </trkpt>
      <trkpt lat="48.46836" lon="2.29272">
        <ele>88.4</ele>
        <time>2026-02-02T11:53:13Z</time>
      </trkpt>
      <trkpt lat="48.46835" lon="2.2928">
        <ele>88.4</ele>
        <time>2026-02-02T11:53:14Z</time>
      </trkpt>
      <trkpt lat="48.46834" lon="2.29289">
        <ele>88.4</ele>
        <time>2026-02-02T11:53:15Z</time>
      </trkpt>
      <trkpt lat="48.46833" lon="2.29298">
        <ele>88.4</ele>
        <time>2026-02-02T11:53:16Z</time>
      </trkpt>
      <trkpt lat="48.46832" lon="2.29307">
        <ele>88</ele>
        <time>2026-02-02T11:53:17Z</time>
      </trkpt>
      <trkpt lat="48.46831" lon="2.29317">
        <ele>88</ele>
        <time>2026-02-02T11:53:18Z</time>
      </trkpt>
      <trkpt lat="48.46831" lon="2.29326">
        <ele>88</ele>
        <time>2026-02-02T11:53:19Z</time>
      </trkpt>
      <trkpt lat="48.46831" lon="2.29335">
        <ele>88.8</ele>
        <time>2026-02-02T11:53:20Z</time>
      </trkpt>
      <trkpt lat="48.4683" lon="2.29344">
        <ele>88.8</ele>
        <time>2026-02-02T11:53:21Z</time>
      </trkpt>
      <trkpt lat="48.4683" lon="2.29354">
        <ele>88.8</ele>
        <time>2026-02-02T11:53:22Z</time>
      </trkpt>
      <trkpt lat="48.4683" lon="2.29363">
        <ele>88.8</ele>
        <time>2026-02-02T11:53:23Z</time>
      </trkpt>
      <trkpt lat="48.4683" lon="2.29372">
        <ele>88.2</ele>
        <time>2026-02-02T11:53:24Z</time>
      </trkpt>
      <trkpt lat="48.4683" lon="2.29382">
        <ele>88.4</ele>
        <time>2026-02-02T11:53:25Z</time>
      </trkpt>
      <trkpt lat="48.4683" lon="2.29391">
        <ele>88.4</ele>
        <time>2026-02-02T11:53:26Z</time>
      </trkpt>
      <trkpt lat="48.46831" lon="2.294">
        <ele>88.4</ele>
        <time>2026-02-02T11:53:27Z</time>
      </trkpt>
      <trkpt lat="48.46831" lon="2.29409">
        <ele>88.4</ele>
        <time>2026-02-02T11:53:28Z</time>
      </trkpt>
      <trkpt lat="48.46831" lon="2.29419">
        <ele>88.4</ele>
        <time>2026-02-02T11:53:29Z</time>
      </trkpt>
      <trkpt lat="48.46831" lon="2.29428">
        <ele>88.4</ele>
        <time>2026-02-02T11:53:30Z</time>
      </trkpt>
      <trkpt lat="48.46831" lon="2.29437">
        <ele>88.4</ele>
        <time>2026-02-02T11:53:31Z</time>
      </trkpt>
      <trkpt lat="48.46831" lon="2.29446">
        <ele>88.4</ele>
        <time>2026-02-02T11:53:32Z</time>
      </trkpt>
      <trkpt lat="48.46831" lon="2.29455">
        <ele>88.2</ele>
        <time>2026-02-02T11:53:33Z</time>
      </trkpt>
      <trkpt lat="48.46831" lon="2.29464">
        <ele>88.2</ele>
        <time>2026-02-02T11:53:34Z</time>
      </trkpt>
      <trkpt lat="48.46831" lon="2.29473">
        <ele>88.2</ele>
        <time>2026-02-02T11:53:35Z</time>
      </trkpt>
      <trkpt lat="48.46831" lon="2.29482">
        <ele>88.2</ele>
        <time>2026-02-02T11:53:36Z</time>
      </trkpt>
      <trkpt lat="48.46831" lon="2.29491">
        <ele>88.4</ele>
        <time>2026-02-02T11:53:37Z</time>
      </trkpt>
      <trkpt lat="48.46831" lon="2.295">
        <ele>88.4</ele>
        <time>2026-02-02T11:53:38Z</time>
      </trkpt>
      <trkpt lat="48.46832" lon="2.29509">
        <ele>88.4</ele>
        <time>2026-02-02T11:53:39Z</time>
      </trkpt>
      <trkpt lat="48.46832" lon="2.29518">
        <ele>88.4</ele>
        <time>2026-02-02T11:53:40Z</time>
      </trkpt>
      <trkpt lat="48.46832" lon="2.29527">
        <ele>88.6</ele>
        <time>2026-02-02T11:53:41Z</time>
      </trkpt>
      <trkpt lat="48.46832" lon="2.29536">
        <ele>88.6</ele>
        <time>2026-02-02T11:53:42Z</time>
      </trkpt>
      <trkpt lat="48.46833" lon="2.29544">
        <ele>88.6</ele>
        <time>2026-02-02T11:53:43Z</time>
      </trkpt>
      <trkpt lat="48.46833" lon="2.29553">
        <ele>89</ele>
        <time>2026-02-02T11:53:44Z</time>
      </trkpt>
      <trkpt lat="48.46834" lon="2.29562">
        <ele>88.8</ele>
        <time>2026-02-02T11:53:45Z</time>
      </trkpt>
      <trkpt lat="48.46834" lon="2.2957">
        <ele>88.8</ele>
        <time>2026-02-02T11:53:46Z</time>
      </trkpt>
      <trkpt lat="48.46835" lon="2.29579">
        <ele>88.8</ele>
        <time>2026-02-02T11:53:47Z</time>
      </trkpt>
      <trkpt lat="48.46835" lon="2.29587">
        <ele>88.8</ele>
        <time>2026-02-02T11:53:48Z</time>
      </trkpt>
      <trkpt lat="48.46836" lon="2.29596">
        <ele>89.2</ele>
        <time>2026-02-02T11:53:49Z</time>
      </trkpt>
      <trkpt lat="48.46836" lon="2.29604">
        <ele>89.2</ele>
        <time>2026-02-02T11:53:50Z</time>
      </trkpt>
      <trkpt lat="48.46837" lon="2.29613">
        <ele>89.2</ele>
        <time>2026-02-02T11:53:51Z</time>
      </trkpt>
      <trkpt lat="48.46837" lon="2.29621">
        <ele>89.2</ele>
        <time>2026-02-02T11:53:52Z</time>
      </trkpt>
      <trkpt lat="48.46837" lon="2.29629">
        <ele>90.2</ele>
        <time>2026-02-02T11:53:53Z</time>
      </trkpt>
      <trkpt lat="48.46838" lon="2.29638">
        <ele>90.2</ele>
        <time>2026-02-02T11:53:54Z</time>
      </trkpt>
      <trkpt lat="48.46838" lon="2.29646">
        <ele>90.2</ele>
        <time>2026-02-02T11:53:55Z</time>
      </trkpt>
      <trkpt lat="48.46838" lon="2.29654">
        <ele>90</ele>
        <time>2026-02-02T11:53:56Z</time>
      </trkpt>
      <trkpt lat="48.46838" lon="2.29662">
        <ele>90</ele>
        <time>2026-02-02T11:53:57Z</time>
      </trkpt>
      <trkpt lat="48.46838" lon="2.2967">
        <ele>90</ele>
        <time>2026-02-02T11:53:58Z</time>
      </trkpt>
      <trkpt lat="48.46838" lon="2.29678">
        <ele>90</ele>
        <time>2026-02-02T11:53:59Z</time>
      </trkpt>
      <trkpt lat="48.46838" lon="2.29685">
        <ele>90.6</ele>
        <time>2026-02-02T11:54:00Z</time>
      </trkpt>
      <trkpt lat="48.46838" lon="2.29693">
        <ele>90.8</ele>
        <time>2026-02-02T11:54:01Z</time>
      </trkpt>
      <trkpt lat="48.46837" lon="2.29701">
        <ele>90.8</ele>
        <time>2026-02-02T11:54:02Z</time>
      </trkpt>
      <trkpt lat="48.46836" lon="2.29708">
        <ele>90.8</ele>
        <time>2026-02-02T11:54:03Z</time>
      </trkpt>
      <trkpt lat="48.46836" lon="2.29715">
        <ele>90.8</ele>
        <time>2026-02-02T11:54:04Z</time>
      </trkpt>
      <trkpt lat="48.46834" lon="2.29723">
        <ele>91.2</ele>
        <time>2026-02-02T11:54:05Z</time>
      </trkpt>
      <trkpt lat="48.46833" lon="2.2973">
        <ele>91.2</ele>
        <time>2026-02-02T11:54:06Z</time>
      </trkpt>
      <trkpt lat="48.46832" lon="2.29737">
        <ele>91.2</ele>
        <time>2026-02-02T11:54:07Z</time>
      </trkpt>
      <trkpt lat="48.46831" lon="2.29744">
        <ele>91.8</ele>
        <time>2026-02-02T11:54:08Z</time>
      </trkpt>
      <trkpt lat="48.46829" lon="2.29751">
        <ele>91.8</ele>
        <time>2026-02-02T11:54:09Z</time>
      </trkpt>
      <trkpt lat="48.46826" lon="2.29758">
        <ele>91.8</ele>
        <time>2026-02-02T11:54:10Z</time>
      </trkpt>
      <trkpt lat="48.46826" lon="2.29765">
        <ele>91.8</ele>
        <time>2026-02-02T11:54:11Z</time>
      </trkpt>
      <trkpt lat="48.46824" lon="2.29772">
        <ele>91.8</ele>
        <time>2026-02-02T11:54:12Z</time>
      </trkpt>
      <trkpt lat="48.46822" lon="2.29778">
        <ele>92.6</ele>
        <time>2026-02-02T11:54:13Z</time>
      </trkpt>
      <trkpt lat="48.46821" lon="2.29785">
        <ele>92.6</ele>
        <time>2026-02-02T11:54:14Z</time>
      </trkpt>
      <trkpt lat="48.4682" lon="2.29792">
        <ele>92.6</ele>
        <time>2026-02-02T11:54:15Z</time>
      </trkpt>
      <trkpt lat="48.46818" lon="2.29797">
        <ele>92.6</ele>
        <time>2026-02-02T11:54:16Z</time>
      </trkpt>
      <trkpt lat="48.46815" lon="2.29803">
        <ele>93.2</ele>
        <time>2026-02-02T11:54:17Z</time>
      </trkpt>
      <trkpt lat="48.46814" lon="2.2981">
        <ele>93.2</ele>
        <time>2026-02-02T11:54:18Z</time>
      </trkpt>
      <trkpt lat="48.46814" lon="2.29816">
        <ele>93.2</ele>
        <time>2026-02-02T11:54:19Z</time>
      </trkpt>
      <trkpt lat="48.46813" lon="2.29823">
        <ele>93.2</ele>
        <time>2026-02-02T11:54:20Z</time>
      </trkpt>
      <trkpt lat="48.46811" lon="2.2983">
        <ele>94</ele>
        <time>2026-02-02T11:54:21Z</time>
      </trkpt>
      <trkpt lat="48.46811" lon="2.29836">
        <ele>94</ele>
        <time>2026-02-02T11:54:22Z</time>
      </trkpt>
      <trkpt lat="48.4681" lon="2.29843">
        <ele>94</ele>
        <time>2026-02-02T11:54:23Z</time>
      </trkpt>
      <trkpt lat="48.46809" lon="2.2985">
        <ele>94.4</ele>
        <time>2026-02-02T11:54:24Z</time>
      </trkpt>
      <trkpt lat="48.46808" lon="2.29857">
        <ele>94.4</ele>
        <time>2026-02-02T11:54:25Z</time>
      </trkpt>
      <trkpt lat="48.46807" lon="2.29864">
        <ele>94.4</ele>
        <time>2026-02-02T11:54:26Z</time>
      </trkpt>
      <trkpt lat="48.46806" lon="2.29871">
        <ele>94.4</ele>
        <time>2026-02-02T11:54:27Z</time>
      </trkpt>
      <trkpt lat="48.46805" lon="2.29878">
        <ele>95.2</ele>
        <time>2026-02-02T11:54:28Z</time>
      </trkpt>
      <trkpt lat="48.46803" lon="2.29885">
        <ele>95.2</ele>
        <time>2026-02-02T11:54:29Z</time>
      </trkpt>
      <trkpt lat="48.46802" lon="2.29893">
        <ele>95.2</ele>
        <time>2026-02-02T11:54:30Z</time>
      </trkpt>
      <trkpt lat="48.46801" lon="2.299">
        <ele>95.2</ele>
        <time>2026-02-02T11:54:31Z</time>
      </trkpt>
      <trkpt lat="48.46799" lon="2.29907">
        <ele>95.6</ele>
        <time>2026-02-02T11:54:32Z</time>
      </trkpt>
      <trkpt lat="48.46799" lon="2.29914">
        <ele>96</ele>
        <time>2026-02-02T11:54:33Z</time>
      </trkpt>
      <trkpt lat="48.46798" lon="2.29921">
        <ele>96</ele>
        <time>2026-02-02T11:54:34Z</time>
      </trkpt>
      <trkpt lat="48.46797" lon="2.29929">
        <ele>96</ele>
        <time>2026-02-02T11:54:35Z</time>
      </trkpt>
      <trkpt lat="48.46796" lon="2.29936">
        <ele>96</ele>
        <time>2026-02-02T11:54:36Z</time>
      </trkpt>
      <trkpt lat="48.46795" lon="2.29943">
        <ele>96.4</ele>
        <time>2026-02-02T11:54:37Z</time>
      </trkpt>
      <trkpt lat="48.46793" lon="2.29949">
        <ele>96.4</ele>
        <time>2026-02-02T11:54:38Z</time>
      </trkpt>
      <trkpt lat="48.46792" lon="2.29956">
        <ele>96.4</ele>
        <time>2026-02-02T11:54:39Z</time>
      </trkpt>
      <trkpt lat="48.4679" lon="2.29964">
        <ele>96.2</ele>
        <time>2026-02-02T11:54:40Z</time>
      </trkpt>
      <trkpt lat="48.46789" lon="2.29971">
        <ele>96.2</ele>
        <time>2026-02-02T11:54:41Z</time>
      </trkpt>
      <trkpt lat="48.46788" lon="2.29978">
        <ele>96.2</ele>
        <time>2026-02-02T11:54:42Z</time>
      </trkpt>
      <trkpt lat="48.46786" lon="2.29986">
        <ele>96.2</ele>
        <time>2026-02-02T11:54:43Z</time>
      </trkpt>
      <trkpt lat="48.46785" lon="2.29995">
        <ele>96.2</ele>
        <time>2026-02-02T11:54:44Z</time>
      </trkpt>
      <trkpt lat="48.46784" lon="2.30004">
        <ele>95.4</ele>
        <time>2026-02-02T11:54:45Z</time>
      </trkpt>
      <trkpt lat="48.46782" lon="2.30013">
        <ele>95.4</ele>
        <time>2026-02-02T11:54:46Z</time>
      </trkpt>
      <trkpt lat="48.46781" lon="2.30022">
        <ele>95.4</ele>
        <time>2026-02-02T11:54:47Z</time>
      </trkpt>
      <trkpt lat="48.4678" lon="2.3003">
        <ele>95.4</ele>
        <time>2026-02-02T11:54:48Z</time>
      </trkpt>
      <trkpt lat="48.46777" lon="2.3004">
        <ele>95.2</ele>
        <time>2026-02-02T11:54:49Z</time>
      </trkpt>
      <trkpt lat="48.46776" lon="2.3005">
        <ele>95.2</ele>
        <time>2026-02-02T11:54:50Z</time>
      </trkpt>
      <trkpt lat="48.46775" lon="2.30059">
        <ele>95.2</ele>
        <time>2026-02-02T11:54:51Z</time>
      </trkpt>
      <trkpt lat="48.46773" lon="2.30068">
        <ele>95.2</ele>
        <time>2026-02-02T11:54:52Z</time>
      </trkpt>
      <trkpt lat="48.46772" lon="2.30079">
        <ele>95</ele>
        <time>2026-02-02T11:54:53Z</time>
      </trkpt>
      <trkpt lat="48.46769" lon="2.30088">
        <ele>95</ele>
        <time>2026-02-02T11:54:54Z</time>
      </trkpt>
      <trkpt lat="48.46767" lon="2.30098">
        <ele>95</ele>
        <time>2026-02-02T11:54:55Z</time>
      </trkpt>
      <trkpt lat="48.46766" lon="2.30109">
        <ele>94.8</ele>
        <time>2026-02-02T11:54:56Z</time>
      </trkpt>
      <trkpt lat="48.46764" lon="2.3012">
        <ele>94.6</ele>
        <time>2026-02-02T11:54:57Z</time>
      </trkpt>
      <trkpt lat="48.46763" lon="2.3013">
        <ele>94.6</ele>
        <time>2026-02-02T11:54:58Z</time>
      </trkpt>
      <trkpt lat="48.4676" lon="2.30139">
        <ele>94.6</ele>
        <time>2026-02-02T11:54:59Z</time>
      </trkpt>
      <trkpt lat="48.46758" lon="2.3015">
        <ele>94</ele>
        <time>2026-02-02T11:55:00Z</time>
      </trkpt>
      <trkpt lat="48.46756" lon="2.3016">
        <ele>94</ele>
        <time>2026-02-02T11:55:01Z</time>
      </trkpt>
      <trkpt lat="48.46755" lon="2.30173">
        <ele>94</ele>
        <time>2026-02-02T11:55:02Z</time>
      </trkpt>
      <trkpt lat="48.46752" lon="2.30184">
        <ele>94</ele>
        <time>2026-02-02T11:55:03Z</time>
      </trkpt>
      <trkpt lat="48.4675" lon="2.30196">
        <ele>94</ele>
        <time>2026-02-02T11:55:04Z</time>
      </trkpt>
      <trkpt lat="48.46747" lon="2.30206">
        <ele>93.4</ele>
        <time>2026-02-02T11:55:05Z</time>
      </trkpt>
      <trkpt lat="48.46745" lon="2.30219">
        <ele>93.4</ele>
        <time>2026-02-02T11:55:06Z</time>
      </trkpt>
      <trkpt lat="48.46743" lon="2.30231">
        <ele>93.4</ele>
        <time>2026-02-02T11:55:07Z</time>
      </trkpt>
      <trkpt lat="48.46741" lon="2.30244">
        <ele>93.2</ele>
        <time>2026-02-02T11:55:08Z</time>
      </trkpt>
      <trkpt lat="48.46739" lon="2.30255">
        <ele>92.8</ele>
        <time>2026-02-02T11:55:09Z</time>
      </trkpt>
      <trkpt lat="48.46736" lon="2.30267">
        <ele>92.8</ele>
        <time>2026-02-02T11:55:10Z</time>
      </trkpt>
      <trkpt lat="48.46734" lon="2.30277">
        <ele>92.8</ele>
        <time>2026-02-02T11:55:11Z</time>
      </trkpt>
      <trkpt lat="48.46733" lon="2.30289">
        <ele>92.8</ele>
        <time>2026-02-02T11:55:12Z</time>
      </trkpt>
      <trkpt lat="48.46731" lon="2.30302">
        <ele>92.8</ele>
        <time>2026-02-02T11:55:13Z</time>
      </trkpt>
      <trkpt lat="48.46729" lon="2.30317">
        <ele>92.8</ele>
        <time>2026-02-02T11:55:14Z</time>
      </trkpt>
      <trkpt lat="48.46727" lon="2.30328">
        <ele>92.8</ele>
        <time>2026-02-02T11:55:15Z</time>
      </trkpt>
      <trkpt lat="48.46725" lon="2.3034">
        <ele>92.8</ele>
        <time>2026-02-02T11:55:16Z</time>
      </trkpt>
      <trkpt lat="48.46723" lon="2.30352">
        <ele>92.6</ele>
        <time>2026-02-02T11:55:17Z</time>
      </trkpt>
      <trkpt lat="48.46721" lon="2.30364">
        <ele>92.6</ele>
        <time>2026-02-02T11:55:18Z</time>
      </trkpt>
      <trkpt lat="48.46719" lon="2.30376">
        <ele>92.6</ele>
        <time>2026-02-02T11:55:19Z</time>
      </trkpt>
      <trkpt lat="48.46717" lon="2.30388">
        <ele>92.6</ele>
        <time>2026-02-02T11:55:20Z</time>
      </trkpt>
      <trkpt lat="48.46715" lon="2.304">
        <ele>92.8</ele>
        <time>2026-02-02T11:55:21Z</time>
      </trkpt>
      <trkpt lat="48.46712" lon="2.30412">
        <ele>92.8</ele>
        <time>2026-02-02T11:55:22Z</time>
      </trkpt>
      <trkpt lat="48.46711" lon="2.30424">
        <ele>92.8</ele>
        <time>2026-02-02T11:55:23Z</time>
      </trkpt>
      <trkpt lat="48.46709" lon="2.30435">
        <ele>92.2</ele>
        <time>2026-02-02T11:55:24Z</time>
      </trkpt>
      <trkpt lat="48.46706" lon="2.30448">
        <ele>92</ele>
        <time>2026-02-02T11:55:25Z</time>
      </trkpt>
      <trkpt lat="48.46704" lon="2.30459">
        <ele>92</ele>
        <time>2026-02-02T11:55:26Z</time>
      </trkpt>
      <trkpt lat="48.46702" lon="2.30471">
        <ele>92</ele>
        <time>2026-02-02T11:55:27Z</time>
      </trkpt>
      <trkpt lat="48.467" lon="2.30483">
        <ele>91.8</ele>
        <time>2026-02-02T11:55:28Z</time>
      </trkpt>
      <trkpt lat="48.46698" lon="2.30495">
        <ele>91.8</ele>
        <time>2026-02-02T11:55:29Z</time>
      </trkpt>
      <trkpt lat="48.46696" lon="2.30506">
        <ele>91.8</ele>
        <time>2026-02-02T11:55:30Z</time>
      </trkpt>
      <trkpt lat="48.46694" lon="2.30518">
        <ele>91.8</ele>
        <time>2026-02-02T11:55:31Z</time>
      </trkpt>
      <trkpt lat="48.46692" lon="2.30529">
        <ele>91.8</ele>
        <time>2026-02-02T11:55:32Z</time>
      </trkpt>
      <trkpt lat="48.4669" lon="2.30541">
        <ele>91</ele>
        <time>2026-02-02T11:55:33Z</time>
      </trkpt>
      <trkpt lat="48.46688" lon="2.30552">
        <ele>91</ele>
        <time>2026-02-02T11:55:34Z</time>
      </trkpt>
      <trkpt lat="48.46685" lon="2.30564">
        <ele>91</ele>
        <time>2026-02-02T11:55:35Z</time>
      </trkpt>
      <trkpt lat="48.46683" lon="2.30575">
        <ele>91</ele>
        <time>2026-02-02T11:55:36Z</time>
      </trkpt>
      <trkpt lat="48.4668" lon="2.30585">
        <ele>90</ele>
        <time>2026-02-02T11:55:37Z</time>
      </trkpt>
      <trkpt lat="48.46679" lon="2.30598">
        <ele>90</ele>
        <time>2026-02-02T11:55:38Z</time>
      </trkpt>
      <trkpt lat="48.46677" lon="2.30608">
        <ele>90</ele>
        <time>2026-02-02T11:55:39Z</time>
      </trkpt>
      <trkpt lat="48.46675" lon="2.30617">
        <ele>89</ele>
        <time>2026-02-02T11:55:40Z</time>
      </trkpt>
      <trkpt lat="48.46672" lon="2.30628">
        <ele>89.4</ele>
        <time>2026-02-02T11:55:41Z</time>
      </trkpt>
      <trkpt lat="48.46669" lon="2.30639">
        <ele>89.4</ele>
        <time>2026-02-02T11:55:42Z</time>
      </trkpt>
      <trkpt lat="48.46666" lon="2.30649">
        <ele>89.4</ele>
        <time>2026-02-02T11:55:43Z</time>
      </trkpt>
      <trkpt lat="48.46664" lon="2.30661">
        <ele>89.4</ele>
        <time>2026-02-02T11:55:44Z</time>
      </trkpt>
      <trkpt lat="48.46662" lon="2.30674">
        <ele>88.4</ele>
        <time>2026-02-02T11:55:45Z</time>
      </trkpt>
      <trkpt lat="48.46659" lon="2.30686">
        <ele>88.4</ele>
        <time>2026-02-02T11:55:46Z</time>
      </trkpt>
      <trkpt lat="48.46656" lon="2.30697">
        <ele>88.4</ele>
        <time>2026-02-02T11:55:47Z</time>
      </trkpt>
      <trkpt lat="48.46654" lon="2.3071">
        <ele>88.4</ele>
        <time>2026-02-02T11:55:48Z</time>
      </trkpt>
      <trkpt lat="48.46652" lon="2.30722">
        <ele>88</ele>
        <time>2026-02-02T11:55:49Z</time>
      </trkpt>
      <trkpt lat="48.4665" lon="2.30734">
        <ele>88</ele>
        <time>2026-02-02T11:55:50Z</time>
      </trkpt>
      <trkpt lat="48.46647" lon="2.30746">
        <ele>88</ele>
        <time>2026-02-02T11:55:51Z</time>
      </trkpt>
      <trkpt lat="48.46645" lon="2.30759">
        <ele>88</ele>
        <time>2026-02-02T11:55:52Z</time>
      </trkpt>
      <trkpt lat="48.46642" lon="2.30769">
        <ele>87.6</ele>
        <time>2026-02-02T11:55:53Z</time>
      </trkpt>
      <trkpt lat="48.46638" lon="2.30779">
        <ele>87.6</ele>
        <time>2026-02-02T11:55:54Z</time>
      </trkpt>
      <trkpt lat="48.46636" lon="2.30791">
        <ele>87.6</ele>
        <time>2026-02-02T11:55:55Z</time>
      </trkpt>
      <trkpt lat="48.46633" lon="2.30803">
        <ele>87.6</ele>
        <time>2026-02-02T11:55:56Z</time>
      </trkpt>
      <trkpt lat="48.46629" lon="2.30813">
        <ele>87.8</ele>
        <time>2026-02-02T11:55:57Z</time>
      </trkpt>
      <trkpt lat="48.46626" lon="2.30825">
        <ele>87.8</ele>
        <time>2026-02-02T11:55:58Z</time>
      </trkpt>
      <trkpt lat="48.46622" lon="2.30836">
        <ele>87.8</ele>
        <time>2026-02-02T11:55:59Z</time>
      </trkpt>
      <trkpt lat="48.46619" lon="2.30847">
        <ele>87.8</ele>
        <time>2026-02-02T11:56:00Z</time>
      </trkpt>
      <trkpt lat="48.46615" lon="2.30856">
        <ele>87.6</ele>
        <time>2026-02-02T11:56:01Z</time>
      </trkpt>
      <trkpt lat="48.46611" lon="2.30868">
        <ele>87.6</ele>
        <time>2026-02-02T11:56:02Z</time>
      </trkpt>
      <trkpt lat="48.46607" lon="2.30877">
        <ele>87.6</ele>
        <time>2026-02-02T11:56:03Z</time>
      </trkpt>
      <trkpt lat="48.46603" lon="2.30887">
        <ele>87.6</ele>
        <time>2026-02-02T11:56:04Z</time>
      </trkpt>
      <trkpt lat="48.466" lon="2.30895">
        <ele>87.2</ele>
        <time>2026-02-02T11:56:05Z</time>
      </trkpt>
      <trkpt lat="48.46596" lon="2.30903">
        <ele>87.2</ele>
        <time>2026-02-02T11:56:06Z</time>
      </trkpt>
      <trkpt lat="48.46592" lon="2.30911">
        <ele>87.2</ele>
        <time>2026-02-02T11:56:07Z</time>
      </trkpt>
      <trkpt lat="48.46587" lon="2.3092">
        <ele>87.8</ele>
        <time>2026-02-02T11:56:08Z</time>
      </trkpt>
      <trkpt lat="48.46583" lon="2.3093">
        <ele>87.6</ele>
        <time>2026-02-02T11:56:09Z</time>
      </trkpt>
      <trkpt lat="48.46578" lon="2.30939">
        <ele>87.6</ele>
        <time>2026-02-02T11:56:10Z</time>
      </trkpt>
      <trkpt lat="48.46574" lon="2.30948">
        <ele>87.6</ele>
        <time>2026-02-02T11:56:11Z</time>
      </trkpt>
      <trkpt lat="48.46569" lon="2.30958">
        <ele>87.2</ele>
        <time>2026-02-02T11:56:12Z</time>
      </trkpt>
      <trkpt lat="48.46564" lon="2.30967">
        <ele>87.2</ele>
        <time>2026-02-02T11:56:13Z</time>
      </trkpt>
      <trkpt lat="48.4656" lon="2.30975">
        <ele>87.2</ele>
        <time>2026-02-02T11:56:14Z</time>
      </trkpt>
      <trkpt lat="48.46556" lon="2.30985">
        <ele>87.2</ele>
        <time>2026-02-02T11:56:15Z</time>
      </trkpt>
      <trkpt lat="48.46552" lon="2.30991">
        <ele>87.2</ele>
        <time>2026-02-02T11:56:16Z</time>
      </trkpt>
      <trkpt lat="48.46548" lon="2.30999">
        <ele>86.6</ele>
        <time>2026-02-02T11:56:17Z</time>
      </trkpt>
      <trkpt lat="48.46544" lon="2.31008">
        <ele>86.6</ele>
        <time>2026-02-02T11:56:18Z</time>
      </trkpt>
      <trkpt lat="48.46539" lon="2.31017">
        <ele>86.6</ele>
        <time>2026-02-02T11:56:19Z</time>
      </trkpt>
      <trkpt lat="48.46535" lon="2.31026">
        <ele>86.6</ele>
        <time>2026-02-02T11:56:20Z</time>
      </trkpt>
      <trkpt lat="48.46531" lon="2.31035">
        <ele>86.2</ele>
        <time>2026-02-02T11:56:21Z</time>
      </trkpt>
      <trkpt lat="48.46526" lon="2.31045">
        <ele>86.2</ele>
        <time>2026-02-02T11:56:22Z</time>
      </trkpt>
      <trkpt lat="48.46521" lon="2.31055">
        <ele>86.2</ele>
        <time>2026-02-02T11:56:23Z</time>
      </trkpt>
      <trkpt lat="48.46516" lon="2.31064">
        <ele>86.4</ele>
        <time>2026-02-02T11:56:24Z</time>
      </trkpt>
      <trkpt lat="48.46512" lon="2.31072">
        <ele>85.6</ele>
        <time>2026-02-02T11:56:25Z</time>
      </trkpt>
      <trkpt lat="48.46507" lon="2.31081">
        <ele>85.6</ele>
        <time>2026-02-02T11:56:26Z</time>
      </trkpt>
      <trkpt lat="48.46503" lon="2.3109">
        <ele>85.6</ele>
        <time>2026-02-02T11:56:27Z</time>
      </trkpt>
      <trkpt lat="48.46498" lon="2.31099">
        <ele>86.4</ele>
        <time>2026-02-02T11:56:28Z</time>
      </trkpt>
      <trkpt lat="48.46494" lon="2.31109">
        <ele>86</ele>
        <time>2026-02-02T11:56:29Z</time>
      </trkpt>
      <trkpt lat="48.4649" lon="2.31118">
        <ele>86</ele>
        <time>2026-02-02T11:56:30Z</time>
      </trkpt>
      <trkpt lat="48.46485" lon="2.31127">
        <ele>86</ele>
        <time>2026-02-02T11:56:31Z</time>
      </trkpt>
      <trkpt lat="48.4648" lon="2.31136">
        <ele>86</ele>
        <time>2026-02-02T11:56:32Z</time>
      </trkpt>
      <trkpt lat="48.46476" lon="2.31145">
        <ele>85.6</ele>
        <time>2026-02-02T11:56:33Z</time>
      </trkpt>
      <trkpt lat="48.46472" lon="2.31154">
        <ele>85.6</ele>
        <time>2026-02-02T11:56:34Z</time>
      </trkpt>
      <trkpt lat="48.46467" lon="2.31163">
        <ele>85.6</ele>
        <time>2026-02-02T11:56:35Z</time>
      </trkpt>
      <trkpt lat="48.46463" lon="2.31172">
        <ele>85.6</ele>
        <time>2026-02-02T11:56:36Z</time>
      </trkpt>
      <trkpt lat="48.46458" lon="2.31181">
        <ele>85.2</ele>
        <time>2026-02-02T11:56:37Z</time>
      </trkpt>
      <trkpt lat="48.46454" lon="2.3119">
        <ele>85.2</ele>
        <time>2026-02-02T11:56:38Z</time>
      </trkpt>
      <trkpt lat="48.4645" lon="2.312">
        <ele>85.2</ele>
        <time>2026-02-02T11:56:39Z</time>
      </trkpt>
      <trkpt lat="48.46446" lon="2.31209">
        <ele>85.2</ele>
        <time>2026-02-02T11:56:40Z</time>
      </trkpt>
      <trkpt lat="48.46442" lon="2.31218">
        <ele>84.8</ele>
        <time>2026-02-02T11:56:41Z</time>
      </trkpt>
      <trkpt lat="48.46438" lon="2.31228">
        <ele>84.8</ele>
        <time>2026-02-02T11:56:42Z</time>
      </trkpt>
      <trkpt lat="48.46434" lon="2.31238">
        <ele>84.8</ele>
        <time>2026-02-02T11:56:43Z</time>
      </trkpt>
      <trkpt lat="48.4643" lon="2.31247">
        <ele>84.8</ele>
        <time>2026-02-02T11:56:44Z</time>
      </trkpt>
      <trkpt lat="48.46426" lon="2.31257">
        <ele>85.4</ele>
        <time>2026-02-02T11:56:45Z</time>
      </trkpt>
      <trkpt lat="48.46422" lon="2.31268">
        <ele>85.4</ele>
        <time>2026-02-02T11:56:46Z</time>
      </trkpt>
      <trkpt lat="48.46418" lon="2.31278">
        <ele>85.4</ele>
        <time>2026-02-02T11:56:47Z</time>
      </trkpt>
      <trkpt lat="48.46414" lon="2.31288">
        <ele>84.8</ele>
        <time>2026-02-02T11:56:48Z</time>
      </trkpt>
      <trkpt lat="48.4641" lon="2.31298">
        <ele>84.8</ele>
        <time>2026-02-02T11:56:49Z</time>
      </trkpt>
      <trkpt lat="48.46406" lon="2.31309">
        <ele>84.8</ele>
        <time>2026-02-02T11:56:50Z</time>
      </trkpt>
      <trkpt lat="48.46402" lon="2.31319">
        <ele>84.8</ele>
        <time>2026-02-02T11:56:51Z</time>
      </trkpt>
      <trkpt lat="48.46398" lon="2.31329">
        <ele>84.4</ele>
        <time>2026-02-02T11:56:52Z</time>
      </trkpt>
      <trkpt lat="48.46395" lon="2.31339">
        <ele>83.6</ele>
        <time>2026-02-02T11:56:53Z</time>
      </trkpt>
      <trkpt lat="48.46391" lon="2.31349">
        <ele>83.6</ele>
        <time>2026-02-02T11:56:54Z</time>
      </trkpt>
      <trkpt lat="48.46387" lon="2.31359">
        <ele>83.6</ele>
        <time>2026-02-02T11:56:55Z</time>
      </trkpt>
      <trkpt lat="48.46384" lon="2.31368">
        <ele>84</ele>
        <time>2026-02-02T11:56:56Z</time>
      </trkpt>
      <trkpt lat="48.4638" lon="2.31378">
        <ele>83.6</ele>
        <time>2026-02-02T11:56:57Z</time>
      </trkpt>
      <trkpt lat="48.46377" lon="2.31388">
        <ele>83.6</ele>
        <time>2026-02-02T11:56:58Z</time>
      </trkpt>
      <trkpt lat="48.46373" lon="2.31399">
        <ele>83.6</ele>
        <time>2026-02-02T11:56:59Z</time>
      </trkpt>
      <trkpt lat="48.4637" lon="2.31409">
        <ele>83.6</ele>
        <time>2026-02-02T11:57:00Z</time>
      </trkpt>
      <trkpt lat="48.46366" lon="2.31418">
        <ele>83.8</ele>
        <time>2026-02-02T11:57:01Z</time>
      </trkpt>
      <trkpt lat="48.46362" lon="2.31427">
        <ele>83.8</ele>
        <time>2026-02-02T11:57:02Z</time>
      </trkpt>
      <trkpt lat="48.46358" lon="2.31436">
        <ele>83.8</ele>
        <time>2026-02-02T11:57:03Z</time>
      </trkpt>
      <trkpt lat="48.46355" lon="2.31445">
        <ele>82.8</ele>
        <time>2026-02-02T11:57:04Z</time>
      </trkpt>
      <trkpt lat="48.46352" lon="2.31454">
        <ele>82.6</ele>
        <time>2026-02-02T11:57:05Z</time>
      </trkpt>
      <trkpt lat="48.46349" lon="2.31463">
        <ele>82.6</ele>
        <time>2026-02-02T11:57:06Z</time>
      </trkpt>
      <trkpt lat="48.46346" lon="2.31473">
        <ele>82.6</ele>
        <time>2026-02-02T11:57:07Z</time>
      </trkpt>
      <trkpt lat="48.46342" lon="2.31483">
        <ele>81.6</ele>
        <time>2026-02-02T11:57:08Z</time>
      </trkpt>
      <trkpt lat="48.46339" lon="2.31493">
        <ele>81</ele>
        <time>2026-02-02T11:57:09Z</time>
      </trkpt>
      <trkpt lat="48.46336" lon="2.31504">
        <ele>81</ele>
        <time>2026-02-02T11:57:10Z</time>
      </trkpt>
      <trkpt lat="48.46332" lon="2.31514">
        <ele>81</ele>
        <time>2026-02-02T11:57:11Z</time>
      </trkpt>
      <trkpt lat="48.46329" lon="2.31526">
        <ele>82</ele>
        <time>2026-02-02T11:57:12Z</time>
      </trkpt>
      <trkpt lat="48.46326" lon="2.31537">
        <ele>81.2</ele>
        <time>2026-02-02T11:57:13Z</time>
      </trkpt>
      <trkpt lat="48.46323" lon="2.31548">
        <ele>81.2</ele>
        <time>2026-02-02T11:57:14Z</time>
      </trkpt>
      <trkpt lat="48.4632" lon="2.31559">
        <ele>81.2</ele>
        <time>2026-02-02T11:57:15Z</time>
      </trkpt>
      <trkpt lat="48.46317" lon="2.31569">
        <ele>82</ele>
        <time>2026-02-02T11:57:16Z</time>
      </trkpt>
      <trkpt lat="48.46314" lon="2.31579">
        <ele>81.6</ele>
        <time>2026-02-02T11:57:17Z</time>
      </trkpt>
      <trkpt lat="48.46312" lon="2.3159">
        <ele>81.6</ele>
        <time>2026-02-02T11:57:18Z</time>
      </trkpt>
      <trkpt lat="48.46309" lon="2.31601">
        <ele>81.6</ele>
        <time>2026-02-02T11:57:19Z</time>
      </trkpt>
      <trkpt lat="48.46307" lon="2.31612">
        <ele>81.6</ele>
        <time>2026-02-02T11:57:20Z</time>
      </trkpt>
      <trkpt lat="48.46304" lon="2.31624">
        <ele>81</ele>
        <time>2026-02-02T11:57:21Z</time>
      </trkpt>
      <trkpt lat="48.46302" lon="2.31636">
        <ele>81</ele>
        <time>2026-02-02T11:57:22Z</time>
      </trkpt>
      <trkpt lat="48.46299" lon="2.31647">
        <ele>81</ele>
        <time>2026-02-02T11:57:23Z</time>
      </trkpt>
      <trkpt lat="48.46297" lon="2.31659">
        <ele>80</ele>
        <time>2026-02-02T11:57:24Z</time>
      </trkpt>
      <trkpt lat="48.46294" lon="2.3167">
        <ele>80.4</ele>
        <time>2026-02-02T11:57:25Z</time>
      </trkpt>
      <trkpt lat="48.46292" lon="2.31681">
        <ele>80.4</ele>
        <time>2026-02-02T11:57:26Z</time>
      </trkpt>
      <trkpt lat="48.4629" lon="2.31693">
        <ele>80.4</ele>
        <time>2026-02-02T11:57:27Z</time>
      </trkpt>
      <trkpt lat="48.46288" lon="2.31704">
        <ele>79.8</ele>
        <time>2026-02-02T11:57:28Z</time>
      </trkpt>
      <trkpt lat="48.46286" lon="2.31715">
        <ele>79.8</ele>
        <time>2026-02-02T11:57:29Z</time>
      </trkpt>
      <trkpt lat="48.46284" lon="2.31726">
        <ele>79.8</ele>
        <time>2026-02-02T11:57:30Z</time>
      </trkpt>
      <trkpt lat="48.46282" lon="2.31737">
        <ele>79.8</ele>
        <time>2026-02-02T11:57:31Z</time>
      </trkpt>
      <trkpt lat="48.4628" lon="2.31748">
        <ele>79</ele>
        <time>2026-02-02T11:57:32Z</time>
      </trkpt>
      <trkpt lat="48.46279" lon="2.31759">
        <ele>79.6</ele>
        <time>2026-02-02T11:57:33Z</time>
      </trkpt>
      <trkpt lat="48.46278" lon="2.31769">
        <ele>79.6</ele>
        <time>2026-02-02T11:57:34Z</time>
      </trkpt>
      <trkpt lat="48.46276" lon="2.31779">
        <ele>79.6</ele>
        <time>2026-02-02T11:57:35Z</time>
      </trkpt>
      <trkpt lat="48.46275" lon="2.31789">
        <ele>79.2</ele>
        <time>2026-02-02T11:57:36Z</time>
      </trkpt>
      <trkpt lat="48.46274" lon="2.31799">
        <ele>79.2</ele>
        <time>2026-02-02T11:57:37Z</time>
      </trkpt>
      <trkpt lat="48.46273" lon="2.31809">
        <ele>79.2</ele>
        <time>2026-02-02T11:57:38Z</time>
      </trkpt>
      <trkpt lat="48.46273" lon="2.31819">
        <ele>79.2</ele>
        <time>2026-02-02T11:57:39Z</time>
      </trkpt>
      <trkpt lat="48.46271" lon="2.31831">
        <ele>78.8</ele>
        <time>2026-02-02T11:57:40Z</time>
      </trkpt>
      <trkpt lat="48.46271" lon="2.31842">
        <ele>78.4</ele>
        <time>2026-02-02T11:57:41Z</time>
      </trkpt>
      <trkpt lat="48.4627" lon="2.31854">
        <ele>78.4</ele>
        <time>2026-02-02T11:57:42Z</time>
      </trkpt>
      <trkpt lat="48.46268" lon="2.31865">
        <ele>78.4</ele>
        <time>2026-02-02T11:57:43Z</time>
      </trkpt>
      <trkpt lat="48.46267" lon="2.31877">
        <ele>78.4</ele>
        <time>2026-02-02T11:57:44Z</time>
      </trkpt>
      <trkpt lat="48.46265" lon="2.31888">
        <ele>78.6</ele>
        <time>2026-02-02T11:57:45Z</time>
      </trkpt>
      <trkpt lat="48.46263" lon="2.31899">
        <ele>78.6</ele>
        <time>2026-02-02T11:57:46Z</time>
      </trkpt>
      <trkpt lat="48.46261" lon="2.31911">
        <ele>78.6</ele>
        <time>2026-02-02T11:57:47Z</time>
      </trkpt>
      <trkpt lat="48.46259" lon="2.31921">
        <ele>78</ele>
        <time>2026-02-02T11:57:48Z</time>
      </trkpt>
      <trkpt lat="48.46256" lon="2.31932">
        <ele>77.8</ele>
        <time>2026-02-02T11:57:49Z</time>
      </trkpt>
      <trkpt lat="48.46253" lon="2.31943">
        <ele>77.8</ele>
        <time>2026-02-02T11:57:50Z</time>
      </trkpt>
      <trkpt lat="48.4625" lon="2.31953">
        <ele>77.8</ele>
        <time>2026-02-02T11:57:51Z</time>
      </trkpt>
      <trkpt lat="48.46247" lon="2.31963">
        <ele>77.2</ele>
        <time>2026-02-02T11:57:52Z</time>
      </trkpt>
      <trkpt lat="48.46244" lon="2.31973">
        <ele>76.8</ele>
        <time>2026-02-02T11:57:53Z</time>
      </trkpt>
      <trkpt lat="48.4624" lon="2.31983">
        <ele>76.8</ele>
        <time>2026-02-02T11:57:54Z</time>
      </trkpt>
      <trkpt lat="48.46237" lon="2.31993">
        <ele>76.8</ele>
        <time>2026-02-02T11:57:55Z</time>
      </trkpt>
      <trkpt lat="48.46234" lon="2.32003">
        <ele>76</ele>
        <time>2026-02-02T11:57:56Z</time>
      </trkpt>
      <trkpt lat="48.46231" lon="2.32013">
        <ele>75.4</ele>
        <time>2026-02-02T11:57:57Z</time>
      </trkpt>
      <trkpt lat="48.46229" lon="2.32024">
        <ele>75.4</ele>
        <time>2026-02-02T11:57:58Z</time>
      </trkpt>
      <trkpt lat="48.46227" lon="2.32035">
        <ele>75.4</ele>
        <time>2026-02-02T11:57:59Z</time>
      </trkpt>
      <trkpt lat="48.46225" lon="2.32047">
        <ele>74.4</ele>
        <time>2026-02-02T11:58:00Z</time>
      </trkpt>
      <trkpt lat="48.46224" lon="2.32058">
        <ele>74</ele>
        <time>2026-02-02T11:58:01Z</time>
      </trkpt>
      <trkpt lat="48.46222" lon="2.32069">
        <ele>74</ele>
        <time>2026-02-02T11:58:02Z</time>
      </trkpt>
      <trkpt lat="48.4622" lon="2.32079">
        <ele>74</ele>
        <time>2026-02-02T11:58:03Z</time>
      </trkpt>
      <trkpt lat="48.46219" lon="2.32088">
        <ele>74</ele>
        <time>2026-02-02T11:58:04Z</time>
      </trkpt>
      <trkpt lat="48.46217" lon="2.32095">
        <ele>72.8</ele>
        <time>2026-02-02T11:58:05Z</time>
      </trkpt>
      <trkpt lat="48.46217" lon="2.32101">
        <ele>72.8</ele>
        <time>2026-02-02T11:58:06Z</time>
      </trkpt>
      <trkpt lat="48.46217" lon="2.32106">
        <ele>72.8</ele>
        <time>2026-02-02T11:58:07Z</time>
      </trkpt>
      <trkpt lat="48.46217" lon="2.32111">
        <ele>72.2</ele>
        <time>2026-02-02T11:58:08Z</time>
      </trkpt>
      <trkpt lat="48.46218" lon="2.32116">
        <ele>72.2</ele>
        <time>2026-02-02T11:58:09Z</time>
      </trkpt>
      <trkpt lat="48.46219" lon="2.32122">
        <ele>72.2</ele>
        <time>2026-02-02T11:58:10Z</time>
      </trkpt>
      <trkpt lat="48.46219" lon="2.32128">
        <ele>72.2</ele>
        <time>2026-02-02T11:58:11Z</time>
      </trkpt>
      <trkpt lat="48.46219" lon="2.32135">
        <ele>71.4</ele>
        <time>2026-02-02T11:58:12Z</time>
      </trkpt>
      <trkpt lat="48.46216" lon="2.32141">
        <ele>71.2</ele>
        <time>2026-02-02T11:58:13Z</time>
      </trkpt>
      <trkpt lat="48.46212" lon="2.32145">
        <ele>71.2</ele>
        <time>2026-02-02T11:58:14Z</time>
      </trkpt>
      <trkpt lat="48.46208" lon="2.32149">
        <ele>71.2</ele>
        <time>2026-02-02T11:58:15Z</time>
      </trkpt>
      <trkpt lat="48.46203" lon="2.32153">
        <ele>71.2</ele>
        <time>2026-02-02T11:58:16Z</time>
      </trkpt>
      <trkpt lat="48.46198" lon="2.32157">
        <ele>71.4</ele>
        <time>2026-02-02T11:58:17Z</time>
      </trkpt>
      <trkpt lat="48.46194" lon="2.3216">
        <ele>71.4</ele>
        <time>2026-02-02T11:58:18Z</time>
      </trkpt>
      <trkpt lat="48.4619" lon="2.32163">
        <ele>71.4</ele>
        <time>2026-02-02T11:58:19Z</time>
      </trkpt>
      <trkpt lat="48.46185" lon="2.32165">
        <ele>71.4</ele>
        <time>2026-02-02T11:58:20Z</time>
      </trkpt>
      <trkpt lat="48.4618" lon="2.32168">
        <ele>71.2</ele>
        <time>2026-02-02T11:58:21Z</time>
      </trkpt>
      <trkpt lat="48.46175" lon="2.3217">
        <ele>71.2</ele>
        <time>2026-02-02T11:58:22Z</time>
      </trkpt>
      <trkpt lat="48.4617" lon="2.32171">
        <ele>71.2</ele>
        <time>2026-02-02T11:58:23Z</time>
      </trkpt>
      <trkpt lat="48.46166" lon="2.32173">
        <ele>70.8</ele>
        <time>2026-02-02T11:58:24Z</time>
      </trkpt>
      <trkpt lat="48.4616" lon="2.32177">
        <ele>71</ele>
        <time>2026-02-02T11:58:25Z</time>
      </trkpt>
      <trkpt lat="48.46156" lon="2.3218">
        <ele>71</ele>
        <time>2026-02-02T11:58:26Z</time>
      </trkpt>
      <trkpt lat="48.46151" lon="2.32184">
        <ele>71</ele>
        <time>2026-02-02T11:58:27Z</time>
      </trkpt>
      <trkpt lat="48.46146" lon="2.32188">
        <ele>71</ele>
        <time>2026-02-02T11:58:28Z</time>
      </trkpt>
      <trkpt lat="48.46141" lon="2.32193">
        <ele>71.2</ele>
        <time>2026-02-02T11:58:29Z</time>
      </trkpt>
      <trkpt lat="48.46136" lon="2.32197">
        <ele>71.2</ele>
        <time>2026-02-02T11:58:30Z</time>
      </trkpt>
      <trkpt lat="48.46131" lon="2.32202">
        <ele>71.2</ele>
        <time>2026-02-02T11:58:31Z</time>
      </trkpt>
      <trkpt lat="48.46127" lon="2.32207">
        <ele>71.2</ele>
        <time>2026-02-02T11:58:32Z</time>
      </trkpt>
      <trkpt lat="48.46122" lon="2.32213">
        <ele>71.4</ele>
        <time>2026-02-02T11:58:33Z</time>
      </trkpt>
      <trkpt lat="48.46118" lon="2.32218">
        <ele>71.4</ele>
        <time>2026-02-02T11:58:34Z</time>
      </trkpt>
      <trkpt lat="48.46113" lon="2.32224">
        <ele>71.4</ele>
        <time>2026-02-02T11:58:35Z</time>
      </trkpt>
      <trkpt lat="48.4611" lon="2.3223">
        <ele>71.4</ele>
        <time>2026-02-02T11:58:36Z</time>
      </trkpt>
      <trkpt lat="48.46106" lon="2.32236">
        <ele>72</ele>
        <time>2026-02-02T11:58:37Z</time>
      </trkpt>
      <trkpt lat="48.46103" lon="2.32242">
        <ele>72</ele>
        <time>2026-02-02T11:58:38Z</time>
      </trkpt>
      <trkpt lat="48.461" lon="2.32248">
        <ele>72</ele>
        <time>2026-02-02T11:58:39Z</time>
      </trkpt>
      <trkpt lat="48.46097" lon="2.32254">
        <ele>72</ele>
        <time>2026-02-02T11:58:40Z</time>
      </trkpt>
      <trkpt lat="48.46094" lon="2.3226">
        <ele>72.2</ele>
        <time>2026-02-02T11:58:41Z</time>
      </trkpt>
      <trkpt lat="48.46091" lon="2.32265">
        <ele>72.2</ele>
        <time>2026-02-02T11:58:42Z</time>
      </trkpt>
      <trkpt lat="48.46089" lon="2.3227">
        <ele>72.2</ele>
        <time>2026-02-02T11:58:43Z</time>
      </trkpt>
      <trkpt lat="48.46087" lon="2.32275">
        <ele>73</ele>
        <time>2026-02-02T11:58:44Z</time>
      </trkpt>
      <trkpt lat="48.46085" lon="2.32279">
        <ele>73</ele>
        <time>2026-02-02T11:58:45Z</time>
      </trkpt>
      <trkpt lat="48.46083" lon="2.32284">
        <ele>73</ele>
        <time>2026-02-02T11:58:46Z</time>
      </trkpt>
      <trkpt lat="48.46081" lon="2.32289">
        <ele>73</ele>
        <time>2026-02-02T11:58:47Z</time>
      </trkpt>
      <trkpt lat="48.46079" lon="2.32294">
        <ele>74</ele>
        <time>2026-02-02T11:58:48Z</time>
      </trkpt>
      <trkpt lat="48.46078" lon="2.32298">
        <ele>74.4</ele>
        <time>2026-02-02T11:58:49Z</time>
      </trkpt>
      <trkpt lat="48.46076" lon="2.32303">
        <ele>74.4</ele>
        <time>2026-02-02T11:58:50Z</time>
      </trkpt>
      <trkpt lat="48.46074" lon="2.32307">
        <ele>74.4</ele>
        <time>2026-02-02T11:58:51Z</time>
      </trkpt>
      <trkpt lat="48.46072" lon="2.32312">
        <ele>74.4</ele>
        <time>2026-02-02T11:58:52Z</time>
      </trkpt>
      <trkpt lat="48.46071" lon="2.32317">
        <ele>75.2</ele>
        <time>2026-02-02T11:58:53Z</time>
      </trkpt>
      <trkpt lat="48.46069" lon="2.32322">
        <ele>75.2</ele>
        <time>2026-02-02T11:58:54Z</time>
      </trkpt>
      <trkpt lat="48.46067" lon="2.32327">
        <ele>75.2</ele>
        <time>2026-02-02T11:58:55Z</time>
      </trkpt>
      <trkpt lat="48.46065" lon="2.32332">
        <ele>75.2</ele>
        <time>2026-02-02T11:58:56Z</time>
      </trkpt>
      <trkpt lat="48.46064" lon="2.32338">
        <ele>75.6</ele>
        <time>2026-02-02T11:58:57Z</time>
      </trkpt>
      <trkpt lat="48.46063" lon="2.32344">
        <ele>75.6</ele>
        <time>2026-02-02T11:58:58Z</time>
      </trkpt>
      <trkpt lat="48.46062" lon="2.32349">
        <ele>75.6</ele>
        <time>2026-02-02T11:58:59Z</time>
      </trkpt>
      <trkpt lat="48.46061" lon="2.32355">
        <ele>76.4</ele>
        <time>2026-02-02T11:59:00Z</time>
      </trkpt>
      <trkpt lat="48.4606" lon="2.32361">
        <ele>76.8</ele>
        <time>2026-02-02T11:59:01Z</time>
      </trkpt>
      <trkpt lat="48.46059" lon="2.32366">
        <ele>76.8</ele>
        <time>2026-02-02T11:59:02Z</time>
      </trkpt>
      <trkpt lat="48.46058" lon="2.32372">
        <ele>76.8</ele>
        <time>2026-02-02T11:59:03Z</time>
      </trkpt>
      <trkpt lat="48.46057" lon="2.32377">
        <ele>76.8</ele>
        <time>2026-02-02T11:59:04Z</time>
      </trkpt>
      <trkpt lat="48.46056" lon="2.32383">
        <ele>78</ele>
        <time>2026-02-02T11:59:05Z</time>
      </trkpt>
      <trkpt lat="48.46055" lon="2.32388">
        <ele>78</ele>
        <time>2026-02-02T11:59:06Z</time>
      </trkpt>
      <trkpt lat="48.46054" lon="2.32394">
        <ele>78</ele>
        <time>2026-02-02T11:59:07Z</time>
      </trkpt>
      <trkpt lat="48.46053" lon="2.324">
        <ele>78</ele>
        <time>2026-02-02T11:59:08Z</time>
      </trkpt>
      <trkpt lat="48.46052" lon="2.32405">
        <ele>78.8</ele>
        <time>2026-02-02T11:59:09Z</time>
      </trkpt>
      <trkpt lat="48.46051" lon="2.32411">
        <ele>78.8</ele>
        <time>2026-02-02T11:59:10Z</time>
      </trkpt>
      <trkpt lat="48.4605" lon="2.32417">
        <ele>78.8</ele>
        <time>2026-02-02T11:59:11Z</time>
      </trkpt>
      <trkpt lat="48.46049" lon="2.32424">
        <ele>79.6</ele>
        <time>2026-02-02T11:59:12Z</time>
      </trkpt>
      <trkpt lat="48.46048" lon="2.3243">
        <ele>79.6</ele>
        <time>2026-02-02T11:59:13Z</time>
      </trkpt>
      <trkpt lat="48.46047" lon="2.32435">
        <ele>79.6</ele>
        <time>2026-02-02T11:59:14Z</time>
      </trkpt>
      <trkpt lat="48.46046" lon="2.3244">
        <ele>79.6</ele>
        <time>2026-02-02T11:59:15Z</time>
      </trkpt>
      <trkpt lat="48.46046" lon="2.32445">
        <ele>79.6</ele>
        <time>2026-02-02T11:59:16Z</time>
      </trkpt>
      <trkpt lat="48.46045" lon="2.3245">
        <ele>80.6</ele>
        <time>2026-02-02T11:59:17Z</time>
      </trkpt>
      <trkpt lat="48.46044" lon="2.32455">
        <ele>80.6</ele>
        <time>2026-02-02T11:59:18Z</time>
      </trkpt>
      <trkpt lat="48.46044" lon="2.32459">
        <ele>80.6</ele>
        <time>2026-02-02T11:59:19Z</time>
      </trkpt>
      <trkpt lat="48.46043" lon="2.32464">
        <ele>80.6</ele>
        <time>2026-02-02T11:59:20Z</time>
      </trkpt>
      <trkpt lat="48.46042" lon="2.32468">
        <ele>81.6</ele>
        <time>2026-02-02T11:59:21Z</time>
      </trkpt>
      <trkpt lat="48.46041" lon="2.32472">
        <ele>81.6</ele>
        <time>2026-02-02T11:59:22Z</time>
      </trkpt>
      <trkpt lat="48.4604" lon="2.32476">
        <ele>81.6</ele>
        <time>2026-02-02T11:59:23Z</time>
      </trkpt>
      <trkpt lat="48.4604" lon="2.32479">
        <ele>81.6</ele>
        <time>2026-02-02T11:59:24Z</time>
      </trkpt>
      <trkpt lat="48.46039" lon="2.32482">
        <ele>82.2</ele>
        <time>2026-02-02T11:59:25Z</time>
      </trkpt>
      <trkpt lat="48.46038" lon="2.32484">
        <ele>82.2</ele>
        <time>2026-02-02T11:59:26Z</time>
      </trkpt>
      <trkpt lat="48.46037" lon="2.32486">
        <ele>82.2</ele>
        <time>2026-02-02T11:59:27Z</time>
      </trkpt>
      <trkpt lat="48.46037" lon="2.32489">
        <ele>82.2</ele>
        <time>2026-02-02T11:59:28Z</time>
      </trkpt>
      <trkpt lat="48.46038" lon="2.32493">
        <ele>82.2</ele>
        <time>2026-02-02T11:59:29Z</time>
      </trkpt>
      <trkpt lat="48.46039" lon="2.32498">
        <ele>82.2</ele>
        <time>2026-02-02T11:59:30Z</time>
      </trkpt>
      <trkpt lat="48.4604" lon="2.32503">
        <ele>82.2</ele>
        <time>2026-02-02T11:59:31Z</time>
      </trkpt>
      <trkpt lat="48.4604" lon="2.32508">
        <ele>82.2</ele>
        <time>2026-02-02T11:59:32Z</time>
      </trkpt>
      <trkpt lat="48.46039" lon="2.32513">
        <ele>82.2</ele>
        <time>2026-02-02T11:59:33Z</time>
      </trkpt>
      <trkpt lat="48.46039" lon="2.32519">
        <ele>82.2</ele>
        <time>2026-02-02T11:59:34Z</time>
      </trkpt>
      <trkpt lat="48.46038" lon="2.32524">
        <ele>82.2</ele>
        <time>2026-02-02T11:59:35Z</time>
      </trkpt>
      <trkpt lat="48.46037" lon="2.32529">
        <ele>82.2</ele>
        <time>2026-02-02T11:59:36Z</time>
      </trkpt>
      <trkpt lat="48.46036" lon="2.32534">
        <ele>82.4</ele>
        <time>2026-02-02T11:59:37Z</time>
      </trkpt>
      <trkpt lat="48.46035" lon="2.32539">
        <ele>82.4</ele>
        <time>2026-02-02T11:59:38Z</time>
      </trkpt>
      <trkpt lat="48.46034" lon="2.32543">
        <ele>82.4</ele>
        <time>2026-02-02T11:59:39Z</time>
      </trkpt>
      <trkpt lat="48.46032" lon="2.32547">
        <ele>83.2</ele>
        <time>2026-02-02T11:59:40Z</time>
      </trkpt>
      <trkpt lat="48.46031" lon="2.32551">
        <ele>83.6</ele>
        <time>2026-02-02T11:59:41Z</time>
      </trkpt>
      <trkpt lat="48.4603" lon="2.32555">
        <ele>83.6</ele>
        <time>2026-02-02T11:59:42Z</time>
      </trkpt>
      <trkpt lat="48.46028" lon="2.32558">
        <ele>83.6</ele>
        <time>2026-02-02T11:59:43Z</time>
      </trkpt>
      <trkpt lat="48.46027" lon="2.32561">
        <ele>84</ele>
        <time>2026-02-02T11:59:44Z</time>
      </trkpt>
      <trkpt lat="48.46025" lon="2.32565">
        <ele>84</ele>
        <time>2026-02-02T11:59:45Z</time>
      </trkpt>
      <trkpt lat="48.46024" lon="2.32569">
        <ele>84</ele>
        <time>2026-02-02T11:59:46Z</time>
      </trkpt>
      <trkpt lat="48.46023" lon="2.32573">
        <ele>84</ele>
        <time>2026-02-02T11:59:47Z</time>
      </trkpt>
      <trkpt lat="48.46022" lon="2.32577">
        <ele>85</ele>
        <time>2026-02-02T11:59:48Z</time>
      </trkpt>
      <trkpt lat="48.4602" lon="2.32581">
        <ele>85</ele>
        <time>2026-02-02T11:59:49Z</time>
      </trkpt>
      <trkpt lat="48.46019" lon="2.32586">
        <ele>85</ele>
        <time>2026-02-02T11:59:50Z</time>
      </trkpt>
      <trkpt lat="48.46017" lon="2.3259">
        <ele>85</ele>
        <time>2026-02-02T11:59:51Z</time>
      </trkpt>
      <trkpt lat="48.46016" lon="2.32595">
        <ele>84.6</ele>
        <time>2026-02-02T11:59:52Z</time>
      </trkpt>
      <trkpt lat="48.46014" lon="2.32599">
        <ele>84.8</ele>
        <time>2026-02-02T11:59:53Z</time>
      </trkpt>
      <trkpt lat="48.46012" lon="2.32603">
        <ele>84.8</ele>
        <time>2026-02-02T11:59:54Z</time>
      </trkpt>
      <trkpt lat="48.4601" lon="2.32608">
        <ele>84.8</ele>
        <time>2026-02-02T11:59:55Z</time>
      </trkpt>
      <trkpt lat="48.46008" lon="2.32612">
        <ele>85.2</ele>
        <time>2026-02-02T11:59:56Z</time>
      </trkpt>
      <trkpt lat="48.46007" lon="2.32616">
        <ele>85.2</ele>
        <time>2026-02-02T11:59:57Z</time>
      </trkpt>
      <trkpt lat="48.46005" lon="2.3262">
        <ele>85.2</ele>
        <time>2026-02-02T11:59:58Z</time>
      </trkpt>
      <trkpt lat="48.46004" lon="2.32623">
        <ele>85.2</ele>
        <time>2026-02-02T11:59:59Z</time>
      </trkpt>
      <trkpt lat="48.46002" lon="2.32625">
        <ele>85.4</ele>
        <time>2026-02-02T12:00:00Z</time>
      </trkpt>
      <trkpt lat="48.46003" lon="2.32628">
        <ele>86</ele>
        <time>2026-02-02T12:00:01Z</time>
      </trkpt>
      <trkpt lat="48.46004" lon="2.32627">
        <ele>86</ele>
        <time>2026-02-02T12:00:02Z</time>
      </trkpt>
      <trkpt lat="48.46005" lon="2.32625">
        <ele>86</ele>
        <time>2026-02-02T12:00:03Z</time>
      </trkpt>
      <trkpt lat="48.46006" lon="2.32622">
        <ele>85.4</ele>
        <time>2026-02-02T12:00:04Z</time>
      </trkpt>
      <trkpt lat="48.46007" lon="2.32618">
        <ele>85.2</ele>
        <time>2026-02-02T12:00:05Z</time>
      </trkpt>
      <trkpt lat="48.46008" lon="2.32613">
        <ele>85.2</ele>
        <time>2026-02-02T12:00:06Z</time>
      </trkpt>
      <trkpt lat="48.4601" lon="2.32608">
        <ele>85.2</ele>
        <time>2026-02-02T12:00:07Z</time>
      </trkpt>
      <trkpt lat="48.46012" lon="2.32603">
        <ele>85.2</ele>
        <time>2026-02-02T12:00:08Z</time>
      </trkpt>
      <trkpt lat="48.46015" lon="2.32597">
        <ele>85.4</ele>
        <time>2026-02-02T12:00:09Z</time>
      </trkpt>
      <trkpt lat="48.46017" lon="2.32592">
        <ele>85.4</ele>
        <time>2026-02-02T12:00:10Z</time>
      </trkpt>
      <trkpt lat="48.4602" lon="2.32586">
        <ele>85.4</ele>
        <time>2026-02-02T12:00:11Z</time>
      </trkpt>
      <trkpt lat="48.46022" lon="2.3258">
        <ele>85</ele>
        <time>2026-02-02T12:00:12Z</time>
      </trkpt>
      <trkpt lat="48.46024" lon="2.32573">
        <ele>84.6</ele>
        <time>2026-02-02T12:00:13Z</time>
      </trkpt>
      <trkpt lat="48.46027" lon="2.32566">
        <ele>84.6</ele>
        <time>2026-02-02T12:00:14Z</time>
      </trkpt>
      <trkpt lat="48.46029" lon="2.32559">
        <ele>84.6</ele>
        <time>2026-02-02T12:00:15Z</time>
      </trkpt>
      <trkpt lat="48.46032" lon="2.32552">
        <ele>83.6</ele>
        <time>2026-02-02T12:00:16Z</time>
      </trkpt>
      <trkpt lat="48.46035" lon="2.32545">
        <ele>83.2</ele>
        <time>2026-02-02T12:00:17Z</time>
      </trkpt>
      <trkpt lat="48.46037" lon="2.32538">
        <ele>83.2</ele>
        <time>2026-02-02T12:00:18Z</time>
      </trkpt>
      <trkpt lat="48.4604" lon="2.32532">
        <ele>83.2</ele>
        <time>2026-02-02T12:00:19Z</time>
      </trkpt>
      <trkpt lat="48.46043" lon="2.32529">
        <ele>82.2</ele>
        <time>2026-02-02T12:00:20Z</time>
      </trkpt>
      <trkpt lat="48.46048" lon="2.32529">
        <ele>82</ele>
        <time>2026-02-02T12:00:21Z</time>
      </trkpt>
      <trkpt lat="48.46053" lon="2.32531">
        <ele>82</ele>
        <time>2026-02-02T12:00:22Z</time>
      </trkpt>
      <trkpt lat="48.46058" lon="2.32535">
        <ele>82</ele>
        <time>2026-02-02T12:00:23Z</time>
      </trkpt>
      <trkpt lat="48.46063" lon="2.3254">
        <ele>81.4</ele>
        <time>2026-02-02T12:00:24Z</time>
      </trkpt>
      <trkpt lat="48.46068" lon="2.32545">
        <ele>81</ele>
        <time>2026-02-02T12:00:25Z</time>
      </trkpt>
      <trkpt lat="48.46074" lon="2.32549">
        <ele>81</ele>
        <time>2026-02-02T12:00:26Z</time>
      </trkpt>
      <trkpt lat="48.46081" lon="2.32553">
        <ele>81</ele>
        <time>2026-02-02T12:00:27Z</time>
      </trkpt>
      <trkpt lat="48.46087" lon="2.32557">
        <ele>80.8</ele>
        <time>2026-02-02T12:00:28Z</time>
      </trkpt>
      <trkpt lat="48.46093" lon="2.32561">
        <ele>81.8</ele>
        <time>2026-02-02T12:00:29Z</time>
      </trkpt>
      <trkpt lat="48.461" lon="2.32565">
        <ele>81.8</ele>
        <time>2026-02-02T12:00:30Z</time>
      </trkpt>
      <trkpt lat="48.46106" lon="2.32568">
        <ele>81.8</ele>
        <time>2026-02-02T12:00:31Z</time>
      </trkpt>
      <trkpt lat="48.46113" lon="2.32572">
        <ele>80.8</ele>
        <time>2026-02-02T12:00:32Z</time>
      </trkpt>
      <trkpt lat="48.4612" lon="2.32576">
        <ele>80.6</ele>
        <time>2026-02-02T12:00:33Z</time>
      </trkpt>
      <trkpt lat="48.46127" lon="2.3258">
        <ele>80.6</ele>
        <time>2026-02-02T12:00:34Z</time>
      </trkpt>
      <trkpt lat="48.46133" lon="2.32584">
        <ele>80.6</ele>
        <time>2026-02-02T12:00:35Z</time>
      </trkpt>
      <trkpt lat="48.4614" lon="2.32588">
        <ele>80.6</ele>
        <time>2026-02-02T12:00:36Z</time>
      </trkpt>
      <trkpt lat="48.46147" lon="2.32592">
        <ele>80.6</ele>
        <time>2026-02-02T12:00:37Z</time>
      </trkpt>
      <trkpt lat="48.46154" lon="2.32596">
        <ele>80.6</ele>
        <time>2026-02-02T12:00:38Z</time>
      </trkpt>
      <trkpt lat="48.46161" lon="2.326">
        <ele>80.6</ele>
        <time>2026-02-02T12:00:39Z</time>
      </trkpt>
      <trkpt lat="48.46168" lon="2.32604">
        <ele>79.6</ele>
        <time>2026-02-02T12:00:40Z</time>
      </trkpt>
      <trkpt lat="48.46174" lon="2.32608">
        <ele>79.8</ele>
        <time>2026-02-02T12:00:41Z</time>
      </trkpt>
      <trkpt lat="48.46181" lon="2.32612">
        <ele>79.8</ele>
        <time>2026-02-02T12:00:42Z</time>
      </trkpt>
      <trkpt lat="48.46188" lon="2.32616">
        <ele>79.8</ele>
        <time>2026-02-02T12:00:43Z</time>
      </trkpt>
      <trkpt lat="48.46195" lon="2.3262">
        <ele>79.8</ele>
        <time>2026-02-02T12:00:44Z</time>
      </trkpt>
      <trkpt lat="48.46201" lon="2.32624">
        <ele>79.8</ele>
        <time>2026-02-02T12:00:45Z</time>
      </trkpt>
      <trkpt lat="48.46208" lon="2.32627">
        <ele>79.8</ele>
        <time>2026-02-02T12:00:46Z</time>
      </trkpt>
      <trkpt lat="48.46215" lon="2.3263">
        <ele>79.8</ele>
        <time>2026-02-02T12:00:47Z</time>
      </trkpt>
      <trkpt lat="48.46222" lon="2.32633">
        <ele>79</ele>
        <time>2026-02-02T12:00:48Z</time>
      </trkpt>
      <trkpt lat="48.46228" lon="2.32636">
        <ele>79</ele>
        <time>2026-02-02T12:00:49Z</time>
      </trkpt>
      <trkpt lat="48.46235" lon="2.32639">
        <ele>79</ele>
        <time>2026-02-02T12:00:50Z</time>
      </trkpt>
      <trkpt lat="48.46242" lon="2.32642">
        <ele>79</ele>
        <time>2026-02-02T12:00:51Z</time>
      </trkpt>
      <trkpt lat="48.46248" lon="2.32645">
        <ele>79</ele>
        <time>2026-02-02T12:00:52Z</time>
      </trkpt>
      <trkpt lat="48.46255" lon="2.32647">
        <ele>80</ele>
        <time>2026-02-02T12:00:53Z</time>
      </trkpt>
      <trkpt lat="48.46262" lon="2.3265">
        <ele>80</ele>
        <time>2026-02-02T12:00:54Z</time>
      </trkpt>
      <trkpt lat="48.46269" lon="2.32652">
        <ele>80</ele>
        <time>2026-02-02T12:00:55Z</time>
      </trkpt>
      <trkpt lat="48.46276" lon="2.32655">
        <ele>79.8</ele>
        <time>2026-02-02T12:00:56Z</time>
      </trkpt>
      <trkpt lat="48.46283" lon="2.32658">
        <ele>80.2</ele>
        <time>2026-02-02T12:00:57Z</time>
      </trkpt>
      <trkpt lat="48.46289" lon="2.3266">
        <ele>80.2</ele>
        <time>2026-02-02T12:00:58Z</time>
      </trkpt>
      <trkpt lat="48.46296" lon="2.32663">
        <ele>80.2</ele>
        <time>2026-02-02T12:00:59Z</time>
      </trkpt>
      <trkpt lat="48.46303" lon="2.32665">
        <ele>80.2</ele>
        <time>2026-02-02T12:01:00Z</time>
      </trkpt>
      <trkpt lat="48.4631" lon="2.32668">
        <ele>80</ele>
        <time>2026-02-02T12:01:01Z</time>
      </trkpt>
      <trkpt lat="48.46317" lon="2.3267">
        <ele>80</ele>
        <time>2026-02-02T12:01:02Z</time>
      </trkpt>
      <trkpt lat="48.46324" lon="2.32674">
        <ele>80</ele>
        <time>2026-02-02T12:01:03Z</time>
      </trkpt>
      <trkpt lat="48.4633" lon="2.32677">
        <ele>80</ele>
        <time>2026-02-02T12:01:04Z</time>
      </trkpt>
      <trkpt lat="48.46337" lon="2.32681">
        <ele>80.4</ele>
        <time>2026-02-02T12:01:05Z</time>
      </trkpt>
      <trkpt lat="48.46343" lon="2.32686">
        <ele>80.4</ele>
        <time>2026-02-02T12:01:06Z</time>
      </trkpt>
      <trkpt lat="48.46349" lon="2.3269">
        <ele>80.4</ele>
        <time>2026-02-02T12:01:07Z</time>
      </trkpt>
      <trkpt lat="48.46355" lon="2.32695">
        <ele>79.8</ele>
        <time>2026-02-02T12:01:08Z</time>
      </trkpt>
      <trkpt lat="48.46362" lon="2.32699">
        <ele>80</ele>
        <time>2026-02-02T12:01:09Z</time>
      </trkpt>
      <trkpt lat="48.46368" lon="2.32703">
        <ele>80</ele>
        <time>2026-02-02T12:01:10Z</time>
      </trkpt>
      <trkpt lat="48.46374" lon="2.32707">
        <ele>80</ele>
        <time>2026-02-02T12:01:11Z</time>
      </trkpt>
      <trkpt lat="48.4638" lon="2.32712">
        <ele>80</ele>
        <time>2026-02-02T12:01:12Z</time>
      </trkpt>
      <trkpt lat="48.46386" lon="2.32716">
        <ele>79.6</ele>
        <time>2026-02-02T12:01:13Z</time>
      </trkpt>
      <trkpt lat="48.46392" lon="2.3272">
        <ele>79.6</ele>
        <time>2026-02-02T12:01:14Z</time>
      </trkpt>
      <trkpt lat="48.46399" lon="2.32725">
        <ele>79.6</ele>
        <time>2026-02-02T12:01:15Z</time>
      </trkpt>
      <trkpt lat="48.46405" lon="2.32729">
        <ele>80</ele>
        <time>2026-02-02T12:01:16Z</time>
      </trkpt>
      <trkpt lat="48.46411" lon="2.32733">
        <ele>80.4</ele>
        <time>2026-02-02T12:01:17Z</time>
      </trkpt>
      <trkpt lat="48.46417" lon="2.32737">
        <ele>80.4</ele>
        <time>2026-02-02T12:01:18Z</time>
      </trkpt>
      <trkpt lat="48.46423" lon="2.32742">
        <ele>80.4</ele>
        <time>2026-02-02T12:01:19Z</time>
      </trkpt>
      <trkpt lat="48.4643" lon="2.32746">
        <ele>79.6</ele>
        <time>2026-02-02T12:01:20Z</time>
      </trkpt>
      <trkpt lat="48.46436" lon="2.3275">
        <ele>80</ele>
        <time>2026-02-02T12:01:21Z</time>
      </trkpt>
      <trkpt lat="48.46443" lon="2.32755">
        <ele>80</ele>
        <time>2026-02-02T12:01:22Z</time>
      </trkpt>
      <trkpt lat="48.46449" lon="2.32759">
        <ele>80</ele>
        <time>2026-02-02T12:01:23Z</time>
      </trkpt>
      <trkpt lat="48.46455" lon="2.32764">
        <ele>80</ele>
        <time>2026-02-02T12:01:24Z</time>
      </trkpt>
      <trkpt lat="48.46462" lon="2.32768">
        <ele>80.6</ele>
        <time>2026-02-02T12:01:25Z</time>
      </trkpt>
      <trkpt lat="48.46468" lon="2.32773">
        <ele>80.6</ele>
        <time>2026-02-02T12:01:26Z</time>
      </trkpt>
      <trkpt lat="48.46474" lon="2.32778">
        <ele>80.6</ele>
        <time>2026-02-02T12:01:27Z</time>
      </trkpt>
      <trkpt lat="48.46481" lon="2.32782">
        <ele>80.6</ele>
        <time>2026-02-02T12:01:28Z</time>
      </trkpt>
      <trkpt lat="48.46487" lon="2.32787">
        <ele>80.8</ele>
        <time>2026-02-02T12:01:29Z</time>
      </trkpt>
      <trkpt lat="48.46493" lon="2.32791">
        <ele>80.8</ele>
        <time>2026-02-02T12:01:30Z</time>
      </trkpt>
      <trkpt lat="48.465" lon="2.32796">
        <ele>80.8</ele>
        <time>2026-02-02T12:01:31Z</time>
      </trkpt>
      <trkpt lat="48.46506" lon="2.328">
        <ele>80.4</ele>
        <time>2026-02-02T12:01:32Z</time>
      </trkpt>
      <trkpt lat="48.46512" lon="2.32805">
        <ele>80</ele>
        <time>2026-02-02T12:01:33Z</time>
      </trkpt>
      <trkpt lat="48.46518" lon="2.3281">
        <ele>80</ele>
        <time>2026-02-02T12:01:34Z</time>
      </trkpt>
      <trkpt lat="48.46525" lon="2.32814">
        <ele>80</ele>
        <time>2026-02-02T12:01:35Z</time>
      </trkpt>
      <trkpt lat="48.46531" lon="2.32819">
        <ele>80</ele>
        <time>2026-02-02T12:01:36Z</time>
      </trkpt>
      <trkpt lat="48.46538" lon="2.32823">
        <ele>80</ele>
        <time>2026-02-02T12:01:37Z</time>
      </trkpt>
      <trkpt lat="48.46544" lon="2.32827">
        <ele>80</ele>
        <time>2026-02-02T12:01:38Z</time>
      </trkpt>
      <trkpt lat="48.4655" lon="2.32832">
        <ele>80</ele>
        <time>2026-02-02T12:01:39Z</time>
      </trkpt>
      <trkpt lat="48.46557" lon="2.32836">
        <ele>80.4</ele>
        <time>2026-02-02T12:01:40Z</time>
      </trkpt>
      <trkpt lat="48.46563" lon="2.32841">
        <ele>80.6</ele>
        <time>2026-02-02T12:01:41Z</time>
      </trkpt>
      <trkpt lat="48.46569" lon="2.32845">
        <ele>80.6</ele>
        <time>2026-02-02T12:01:42Z</time>
      </trkpt>
      <trkpt lat="48.46576" lon="2.3285">
        <ele>80.6</ele>
        <time>2026-02-02T12:01:43Z</time>
      </trkpt>
      <trkpt lat="48.46582" lon="2.32854">
        <ele>80.6</ele>
        <time>2026-02-02T12:01:44Z</time>
      </trkpt>
      <trkpt lat="48.46588" lon="2.32859">
        <ele>80.6</ele>
        <time>2026-02-02T12:01:45Z</time>
      </trkpt>
      <trkpt lat="48.46594" lon="2.32864">
        <ele>80.6</ele>
        <time>2026-02-02T12:01:46Z</time>
      </trkpt>
      <trkpt lat="48.466" lon="2.32869">
        <ele>80.6</ele>
        <time>2026-02-02T12:01:47Z</time>
      </trkpt>
      <trkpt lat="48.46607" lon="2.32874">
        <ele>80.6</ele>
        <time>2026-02-02T12:01:48Z</time>
      </trkpt>
      <trkpt lat="48.46613" lon="2.32878">
        <ele>81</ele>
        <time>2026-02-02T12:01:49Z</time>
      </trkpt>
      <trkpt lat="48.46619" lon="2.32883">
        <ele>81</ele>
        <time>2026-02-02T12:01:50Z</time>
      </trkpt>
      <trkpt lat="48.46625" lon="2.32888">
        <ele>81</ele>
        <time>2026-02-02T12:01:51Z</time>
      </trkpt>
      <trkpt lat="48.46631" lon="2.32893">
        <ele>81</ele>
        <time>2026-02-02T12:01:52Z</time>
      </trkpt>
      <trkpt lat="48.46637" lon="2.32898">
        <ele>80.6</ele>
        <time>2026-02-02T12:01:53Z</time>
      </trkpt>
      <trkpt lat="48.46643" lon="2.32903">
        <ele>80.6</ele>
        <time>2026-02-02T12:01:54Z</time>
      </trkpt>
      <trkpt lat="48.46649" lon="2.32908">
        <ele>80.6</ele>
        <time>2026-02-02T12:01:55Z</time>
      </trkpt>
      <trkpt lat="48.46655" lon="2.32912">
        <ele>80.6</ele>
        <time>2026-02-02T12:01:56Z</time>
      </trkpt>
      <trkpt lat="48.46661" lon="2.32917">
        <ele>81</ele>
        <time>2026-02-02T12:01:57Z</time>
      </trkpt>
      <trkpt lat="48.46668" lon="2.32922">
        <ele>81</ele>
        <time>2026-02-02T12:01:58Z</time>
      </trkpt>
      <trkpt lat="48.46674" lon="2.32927">
        <ele>81</ele>
        <time>2026-02-02T12:01:59Z</time>
      </trkpt>
      <trkpt lat="48.4668" lon="2.32933">
        <ele>81</ele>
        <time>2026-02-02T12:02:00Z</time>
      </trkpt>
      <trkpt lat="48.46686" lon="2.32938">
        <ele>81.2</ele>
        <time>2026-02-02T12:02:01Z</time>
      </trkpt>
      <trkpt lat="48.46692" lon="2.32943">
        <ele>81.2</ele>
        <time>2026-02-02T12:02:02Z</time>
      </trkpt>
      <trkpt lat="48.46698" lon="2.32947">
        <ele>81.2</ele>
        <time>2026-02-02T12:02:03Z</time>
      </trkpt>
      <trkpt lat="48.46704" lon="2.32952">
        <ele>81.2</ele>
        <time>2026-02-02T12:02:04Z</time>
      </trkpt>
      <trkpt lat="48.4671" lon="2.32957">
        <ele>81</ele>
        <time>2026-02-02T12:02:05Z</time>
      </trkpt>
      <trkpt lat="48.46717" lon="2.32961">
        <ele>81</ele>
        <time>2026-02-02T12:02:06Z</time>
      </trkpt>
      <trkpt lat="48.46723" lon="2.32966">
        <ele>81</ele>
        <time>2026-02-02T12:02:07Z</time>
      </trkpt>
      <trkpt lat="48.46729" lon="2.3297">
        <ele>81</ele>
        <time>2026-02-02T12:02:08Z</time>
      </trkpt>
      <trkpt lat="48.46736" lon="2.32974">
        <ele>81.8</ele>
        <time>2026-02-02T12:02:09Z</time>
      </trkpt>
      <trkpt lat="48.46742" lon="2.32979">
        <ele>81.8</ele>
        <time>2026-02-02T12:02:10Z</time>
      </trkpt>
      <trkpt lat="48.46748" lon="2.32983">
        <ele>81.8</ele>
        <time>2026-02-02T12:02:11Z</time>
      </trkpt>
      <trkpt lat="48.46755" lon="2.32987">
        <ele>80.8</ele>
        <time>2026-02-02T12:02:12Z</time>
      </trkpt>
      <trkpt lat="48.46761" lon="2.32991">
        <ele>81</ele>
        <time>2026-02-02T12:02:13Z</time>
      </trkpt>
      <trkpt lat="48.46768" lon="2.32995">
        <ele>81</ele>
        <time>2026-02-02T12:02:14Z</time>
      </trkpt>
      <trkpt lat="48.46774" lon="2.32999">
        <ele>81</ele>
        <time>2026-02-02T12:02:15Z</time>
      </trkpt>
      <trkpt lat="48.46781" lon="2.33004">
        <ele>81</ele>
        <time>2026-02-02T12:02:16Z</time>
      </trkpt>
      <trkpt lat="48.46787" lon="2.33008">
        <ele>80.6</ele>
        <time>2026-02-02T12:02:17Z</time>
      </trkpt>
      <trkpt lat="48.46794" lon="2.33012">
        <ele>80.6</ele>
        <time>2026-02-02T12:02:18Z</time>
      </trkpt>
      <trkpt lat="48.46801" lon="2.33015">
        <ele>80.6</ele>
        <time>2026-02-02T12:02:19Z</time>
      </trkpt>
      <trkpt lat="48.46807" lon="2.33019">
        <ele>80.8</ele>
        <time>2026-02-02T12:02:20Z</time>
      </trkpt>
      <trkpt lat="48.46814" lon="2.33023">
        <ele>81</ele>
        <time>2026-02-02T12:02:21Z</time>
      </trkpt>
      <trkpt lat="48.4682" lon="2.33028">
        <ele>81</ele>
        <time>2026-02-02T12:02:22Z</time>
      </trkpt>
      <trkpt lat="48.46827" lon="2.33032">
        <ele>81</ele>
        <time>2026-02-02T12:02:23Z</time>
      </trkpt>
      <trkpt lat="48.46833" lon="2.33035">
        <ele>81.2</ele>
        <time>2026-02-02T12:02:24Z</time>
      </trkpt>
      <trkpt lat="48.4684" lon="2.33039">
        <ele>81.2</ele>
        <time>2026-02-02T12:02:25Z</time>
      </trkpt>
      <trkpt lat="48.46846" lon="2.33043">
        <ele>81.2</ele>
        <time>2026-02-02T12:02:26Z</time>
      </trkpt>
      <trkpt lat="48.46853" lon="2.33047">
        <ele>81.2</ele>
        <time>2026-02-02T12:02:27Z</time>
      </trkpt>
      <trkpt lat="48.46859" lon="2.33051">
        <ele>81.2</ele>
        <time>2026-02-02T12:02:28Z</time>
      </trkpt>
      <trkpt lat="48.46866" lon="2.33055">
        <ele>81.2</ele>
        <time>2026-02-02T12:02:29Z</time>
      </trkpt>
      <trkpt lat="48.46872" lon="2.33059">
        <ele>81.2</ele>
        <time>2026-02-02T12:02:30Z</time>
      </trkpt>
      <trkpt lat="48.46879" lon="2.33062">
        <ele>81.2</ele>
        <time>2026-02-02T12:02:31Z</time>
      </trkpt>
      <trkpt lat="48.46886" lon="2.33067">
        <ele>81.2</ele>
        <time>2026-02-02T12:02:32Z</time>
      </trkpt>
      <trkpt lat="48.46892" lon="2.33072">
        <ele>81.4</ele>
        <time>2026-02-02T12:02:33Z</time>
      </trkpt>
      <trkpt lat="48.46898" lon="2.33077">
        <ele>81.4</ele>
        <time>2026-02-02T12:02:34Z</time>
      </trkpt>
      <trkpt lat="48.46904" lon="2.33082">
        <ele>81.4</ele>
        <time>2026-02-02T12:02:35Z</time>
      </trkpt>
      <trkpt lat="48.46911" lon="2.33087">
        <ele>81.4</ele>
        <time>2026-02-02T12:02:36Z</time>
      </trkpt>
      <trkpt lat="48.46917" lon="2.33093">
        <ele>81.4</ele>
        <time>2026-02-02T12:02:37Z</time>
      </trkpt>
      <trkpt lat="48.46923" lon="2.33098">
        <ele>81.4</ele>
        <time>2026-02-02T12:02:38Z</time>
      </trkpt>
      <trkpt lat="48.46929" lon="2.33104">
        <ele>81.4</ele>
        <time>2026-02-02T12:02:39Z</time>
      </trkpt>
      <trkpt lat="48.46935" lon="2.33109">
        <ele>81.6</ele>
        <time>2026-02-02T12:02:40Z</time>
      </trkpt>
      <trkpt lat="48.4694" lon="2.33115">
        <ele>82.2</ele>
        <time>2026-02-02T12:02:41Z</time>
      </trkpt>
      <trkpt lat="48.46946" lon="2.33121">
        <ele>82.2</ele>
        <time>2026-02-02T12:02:42Z</time>
      </trkpt>
      <trkpt lat="48.46951" lon="2.33128">
        <ele>82.2</ele>
        <time>2026-02-02T12:02:43Z</time>
      </trkpt>
      <trkpt lat="48.46956" lon="2.33134">
        <ele>82.2</ele>
        <time>2026-02-02T12:02:44Z</time>
      </trkpt>
      <trkpt lat="48.4696" lon="2.3314">
        <ele>82.6</ele>
        <time>2026-02-02T12:02:45Z</time>
      </trkpt>
      <trkpt lat="48.46965" lon="2.33147">
        <ele>82.6</ele>
        <time>2026-02-02T12:02:46Z</time>
      </trkpt>
      <trkpt lat="48.4697" lon="2.33153">
        <ele>82.6</ele>
        <time>2026-02-02T12:02:47Z</time>
      </trkpt>
      <trkpt lat="48.46974" lon="2.33159">
        <ele>82.6</ele>
        <time>2026-02-02T12:02:48Z</time>
      </trkpt>
      <trkpt lat="48.46978" lon="2.33165">
        <ele>82.8</ele>
        <time>2026-02-02T12:02:49Z</time>
      </trkpt>
      <trkpt lat="48.46983" lon="2.33172">
        <ele>82.8</ele>
        <time>2026-02-02T12:02:50Z</time>
      </trkpt>
      <trkpt lat="48.46987" lon="2.33178">
        <ele>82.8</ele>
        <time>2026-02-02T12:02:51Z</time>
      </trkpt>
      <trkpt lat="48.46991" lon="2.33184">
        <ele>83.2</ele>
        <time>2026-02-02T12:02:52Z</time>
      </trkpt>
      <trkpt lat="48.46996" lon="2.3319">
        <ele>83.4</ele>
        <time>2026-02-02T12:02:53Z</time>
      </trkpt>
      <trkpt lat="48.47" lon="2.33196">
        <ele>83.4</ele>
        <time>2026-02-02T12:02:54Z</time>
      </trkpt>
      <trkpt lat="48.47005" lon="2.33202">
        <ele>83.4</ele>
        <time>2026-02-02T12:02:55Z</time>
      </trkpt>
      <trkpt lat="48.47009" lon="2.33209">
        <ele>83.6</ele>
        <time>2026-02-02T12:02:56Z</time>
      </trkpt>
      <trkpt lat="48.47014" lon="2.33215">
        <ele>84.4</ele>
        <time>2026-02-02T12:02:57Z</time>
      </trkpt>
      <trkpt lat="48.47018" lon="2.33221">
        <ele>84.4</ele>
        <time>2026-02-02T12:02:58Z</time>
      </trkpt>
      <trkpt lat="48.47023" lon="2.33227">
        <ele>84.4</ele>
        <time>2026-02-02T12:02:59Z</time>
      </trkpt>
      <trkpt lat="48.47027" lon="2.33233">
        <ele>84.4</ele>
        <time>2026-02-02T12:03:00Z</time>
      </trkpt>
      <trkpt lat="48.47032" lon="2.33239">
        <ele>84.4</ele>
        <time>2026-02-02T12:03:01Z</time>
      </trkpt>
      <trkpt lat="48.47037" lon="2.33246">
        <ele>84.4</ele>
        <time>2026-02-02T12:03:02Z</time>
      </trkpt>
      <trkpt lat="48.47041" lon="2.33252">
        <ele>84.4</ele>
        <time>2026-02-02T12:03:03Z</time>
      </trkpt>
      <trkpt lat="48.47046" lon="2.33258">
        <ele>84.4</ele>
        <time>2026-02-02T12:03:04Z</time>
      </trkpt>
      <trkpt lat="48.47051" lon="2.33263">
        <ele>85.4</ele>
        <time>2026-02-02T12:03:05Z</time>
      </trkpt>
      <trkpt lat="48.47056" lon="2.33269">
        <ele>85.4</ele>
        <time>2026-02-02T12:03:06Z</time>
      </trkpt>
      <trkpt lat="48.47061" lon="2.33275">
        <ele>85.4</ele>
        <time>2026-02-02T12:03:07Z</time>
      </trkpt>
      <trkpt lat="48.47066" lon="2.3328">
        <ele>85.4</ele>
        <time>2026-02-02T12:03:08Z</time>
      </trkpt>
      <trkpt lat="48.47071" lon="2.33286">
        <ele>85.2</ele>
        <time>2026-02-02T12:03:09Z</time>
      </trkpt>
      <trkpt lat="48.47075" lon="2.33292">
        <ele>85.2</ele>
        <time>2026-02-02T12:03:10Z</time>
      </trkpt>
      <trkpt lat="48.4708" lon="2.33298">
        <ele>85.2</ele>
        <time>2026-02-02T12:03:11Z</time>
      </trkpt>
      <trkpt lat="48.47085" lon="2.33303">
        <ele>85.4</ele>
        <time>2026-02-02T12:03:12Z</time>
      </trkpt>
      <trkpt lat="48.4709" lon="2.33309">
        <ele>85.8</ele>
        <time>2026-02-02T12:03:13Z</time>
      </trkpt>
      <trkpt lat="48.47095" lon="2.33314">
        <ele>85.8</ele>
        <time>2026-02-02T12:03:14Z</time>
      </trkpt>
      <trkpt lat="48.471" lon="2.3332">
        <ele>85.8</ele>
        <time>2026-02-02T12:03:15Z</time>
      </trkpt>
      <trkpt lat="48.47105" lon="2.33325">
        <ele>86</ele>
        <time>2026-02-02T12:03:16Z</time>
      </trkpt>
      <trkpt lat="48.4711" lon="2.3333">
        <ele>85.8</ele>
        <time>2026-02-02T12:03:17Z</time>
      </trkpt>
      <trkpt lat="48.47114" lon="2.33336">
        <ele>85.8</ele>
        <time>2026-02-02T12:03:18Z</time>
      </trkpt>
      <trkpt lat="48.47119" lon="2.33341">
        <ele>85.8</ele>
        <time>2026-02-02T12:03:19Z</time>
      </trkpt>
      <trkpt lat="48.47124" lon="2.33347">
        <ele>85.8</ele>
        <time>2026-02-02T12:03:20Z</time>
      </trkpt>
      <trkpt lat="48.47129" lon="2.33352">
        <ele>85.8</ele>
        <time>2026-02-02T12:03:21Z</time>
      </trkpt>
      <trkpt lat="48.47134" lon="2.33358">
        <ele>85.8</ele>
        <time>2026-02-02T12:03:22Z</time>
      </trkpt>
      <trkpt lat="48.47139" lon="2.33364">
        <ele>85.8</ele>
        <time>2026-02-02T12:03:23Z</time>
      </trkpt>
      <trkpt lat="48.47144" lon="2.33369">
        <ele>86.2</ele>
        <time>2026-02-02T12:03:24Z</time>
      </trkpt>
      <trkpt lat="48.47149" lon="2.33375">
        <ele>86</ele>
        <time>2026-02-02T12:03:25Z</time>
      </trkpt>
      <trkpt lat="48.47154" lon="2.33381">
        <ele>86</ele>
        <time>2026-02-02T12:03:26Z</time>
      </trkpt>
      <trkpt lat="48.47159" lon="2.33387">
        <ele>86</ele>
        <time>2026-02-02T12:03:27Z</time>
      </trkpt>
      <trkpt lat="48.47164" lon="2.33392">
        <ele>86</ele>
        <time>2026-02-02T12:03:28Z</time>
      </trkpt>
      <trkpt lat="48.47169" lon="2.33398">
        <ele>86.6</ele>
        <time>2026-02-02T12:03:29Z</time>
      </trkpt>
      <trkpt lat="48.47175" lon="2.33404">
        <ele>86.6</ele>
        <time>2026-02-02T12:03:30Z</time>
      </trkpt>
      <trkpt lat="48.4718" lon="2.3341">
        <ele>86.6</ele>
        <time>2026-02-02T12:03:31Z</time>
      </trkpt>
      <trkpt lat="48.47185" lon="2.33416">
        <ele>86</ele>
        <time>2026-02-02T12:03:32Z</time>
      </trkpt>
      <trkpt lat="48.4719" lon="2.33422">
        <ele>85.6</ele>
        <time>2026-02-02T12:03:33Z</time>
      </trkpt>
      <trkpt lat="48.47195" lon="2.33428">
        <ele>85.6</ele>
        <time>2026-02-02T12:03:34Z</time>
      </trkpt>
      <trkpt lat="48.472" lon="2.33434">
        <ele>85.6</ele>
        <time>2026-02-02T12:03:35Z</time>
      </trkpt>
      <trkpt lat="48.47205" lon="2.3344">
        <ele>86</ele>
        <time>2026-02-02T12:03:36Z</time>
      </trkpt>
      <trkpt lat="48.4721" lon="2.33446">
        <ele>86</ele>
        <time>2026-02-02T12:03:37Z</time>
      </trkpt>
      <trkpt lat="48.47215" lon="2.33452">
        <ele>86</ele>
        <time>2026-02-02T12:03:38Z</time>
      </trkpt>
      <trkpt lat="48.4722" lon="2.33458">
        <ele>86</ele>
        <time>2026-02-02T12:03:39Z</time>
      </trkpt>
      <trkpt lat="48.47225" lon="2.33464">
        <ele>86</ele>
        <time>2026-02-02T12:03:40Z</time>
      </trkpt>
      <trkpt lat="48.4723" lon="2.3347">
        <ele>84.8</ele>
        <time>2026-02-02T12:03:41Z</time>
      </trkpt>
      <trkpt lat="48.47236" lon="2.33477">
        <ele>84.8</ele>
        <time>2026-02-02T12:03:42Z</time>
      </trkpt>
      <trkpt lat="48.47241" lon="2.33483">
        <ele>84.8</ele>
        <time>2026-02-02T12:03:43Z</time>
      </trkpt>
      <trkpt lat="48.47246" lon="2.33489">
        <ele>85.6</ele>
        <time>2026-02-02T12:03:44Z</time>
      </trkpt>
      <trkpt lat="48.47251" lon="2.33496">
        <ele>85.4</ele>
        <time>2026-02-02T12:03:45Z</time>
      </trkpt>
      <trkpt lat="48.47257" lon="2.33502">
        <ele>85.4</ele>
        <time>2026-02-02T12:03:46Z</time>
      </trkpt>
      <trkpt lat="48.47262" lon="2.33508">
        <ele>85.4</ele>
        <time>2026-02-02T12:03:47Z</time>
      </trkpt>
      <trkpt lat="48.47268" lon="2.33515">
        <ele>84.8</ele>
        <time>2026-02-02T12:03:48Z</time>
      </trkpt>
      <trkpt lat="48.47273" lon="2.33522">
        <ele>85.6</ele>
        <time>2026-02-02T12:03:49Z</time>
      </trkpt>
      <trkpt lat="48.47279" lon="2.33528">
        <ele>85.6</ele>
        <time>2026-02-02T12:03:50Z</time>
      </trkpt>
      <trkpt lat="48.47284" lon="2.33535">
        <ele>85.6</ele>
        <time>2026-02-02T12:03:51Z</time>
      </trkpt>
      <trkpt lat="48.47289" lon="2.33542">
        <ele>85</ele>
        <time>2026-02-02T12:03:52Z</time>
      </trkpt>
      <trkpt lat="48.47295" lon="2.33549">
        <ele>84.6</ele>
        <time>2026-02-02T12:03:53Z</time>
      </trkpt>
      <trkpt lat="48.473" lon="2.33556">
        <ele>84.6</ele>
        <time>2026-02-02T12:03:54Z</time>
      </trkpt>
      <trkpt lat="48.47306" lon="2.33563">
        <ele>84.6</ele>
        <time>2026-02-02T12:03:55Z</time>
      </trkpt>
      <trkpt lat="48.47312" lon="2.3357">
        <ele>84.6</ele>
        <time>2026-02-02T12:03:56Z</time>
      </trkpt>
      <trkpt lat="48.47317" lon="2.33577">
        <ele>84.8</ele>
        <time>2026-02-02T12:03:57Z</time>
      </trkpt>
      <trkpt lat="48.47323" lon="2.33583">
        <ele>84.8</ele>
        <time>2026-02-02T12:03:58Z</time>
      </trkpt>
      <trkpt lat="48.47329" lon="2.3359">
        <ele>84.8</ele>
        <time>2026-02-02T12:03:59Z</time>
      </trkpt>
      <trkpt lat="48.47335" lon="2.33597">
        <ele>83.8</ele>
        <time>2026-02-02T12:04:00Z</time>
      </trkpt>
      <trkpt lat="48.4734" lon="2.33604">
        <ele>84</ele>
        <time>2026-02-02T12:04:01Z</time>
      </trkpt>
      <trkpt lat="48.47346" lon="2.33611">
        <ele>84</ele>
        <time>2026-02-02T12:04:02Z</time>
      </trkpt>
      <trkpt lat="48.47352" lon="2.33618">
        <ele>84</ele>
        <time>2026-02-02T12:04:03Z</time>
      </trkpt>
      <trkpt lat="48.47358" lon="2.33625">
        <ele>84</ele>
        <time>2026-02-02T12:04:04Z</time>
      </trkpt>
      <trkpt lat="48.47365" lon="2.33632">
        <ele>83</ele>
        <time>2026-02-02T12:04:05Z</time>
      </trkpt>
      <trkpt lat="48.47371" lon="2.33639">
        <ele>83</ele>
        <time>2026-02-02T12:04:06Z</time>
      </trkpt>
      <trkpt lat="48.47377" lon="2.33646">
        <ele>83</ele>
        <time>2026-02-02T12:04:07Z</time>
      </trkpt>
      <trkpt lat="48.47383" lon="2.33653">
        <ele>83</ele>
        <time>2026-02-02T12:04:08Z</time>
      </trkpt>
      <trkpt lat="48.4739" lon="2.3366">
        <ele>82.6</ele>
        <time>2026-02-02T12:04:09Z</time>
      </trkpt>
      <trkpt lat="48.47396" lon="2.33667">
        <ele>82.6</ele>
        <time>2026-02-02T12:04:10Z</time>
      </trkpt>
      <trkpt lat="48.47403" lon="2.33675">
        <ele>82.6</ele>
        <time>2026-02-02T12:04:11Z</time>
      </trkpt>
      <trkpt lat="48.4741" lon="2.33682">
        <ele>81.8</ele>
        <time>2026-02-02T12:04:12Z</time>
      </trkpt>
      <trkpt lat="48.47417" lon="2.3369">
        <ele>81.4</ele>
        <time>2026-02-02T12:04:13Z</time>
      </trkpt>
      <trkpt lat="48.47424" lon="2.33697">
        <ele>81.4</ele>
        <time>2026-02-02T12:04:14Z</time>
      </trkpt>
      <trkpt lat="48.47431" lon="2.33704">
        <ele>81.4</ele>
        <time>2026-02-02T12:04:15Z</time>
      </trkpt>
      <trkpt lat="48.47438" lon="2.33712">
        <ele>81</ele>
        <time>2026-02-02T12:04:16Z</time>
      </trkpt>
      <trkpt lat="48.47445" lon="2.3372">
        <ele>80.8</ele>
        <time>2026-02-02T12:04:17Z</time>
      </trkpt>
      <trkpt lat="48.47453" lon="2.33728">
        <ele>80.8</ele>
        <time>2026-02-02T12:04:18Z</time>
      </trkpt>
      <trkpt lat="48.4746" lon="2.33737">
        <ele>80.8</ele>
        <time>2026-02-02T12:04:19Z</time>
      </trkpt>
      <trkpt lat="48.47467" lon="2.33745">
        <ele>79.8</ele>
        <time>2026-02-02T12:04:20Z</time>
      </trkpt>
      <trkpt lat="48.47475" lon="2.33754">
        <ele>79.6</ele>
        <time>2026-02-02T12:04:21Z</time>
      </trkpt>
      <trkpt lat="48.47482" lon="2.33763">
        <ele>79.6</ele>
        <time>2026-02-02T12:04:22Z</time>
      </trkpt>
      <trkpt lat="48.47489" lon="2.33773">
        <ele>79.6</ele>
        <time>2026-02-02T12:04:23Z</time>
      </trkpt>
      <trkpt lat="48.47496" lon="2.33783">
        <ele>78.6</ele>
        <time>2026-02-02T12:04:24Z</time>
      </trkpt>
      <trkpt lat="48.47502" lon="2.33794">
        <ele>77.6</ele>
        <time>2026-02-02T12:04:25Z</time>
      </trkpt>
      <trkpt lat="48.47508" lon="2.33805">
        <ele>77.6</ele>
        <time>2026-02-02T12:04:26Z</time>
      </trkpt>
      <trkpt lat="48.47514" lon="2.33817">
        <ele>77.6</ele>
        <time>2026-02-02T12:04:27Z</time>
      </trkpt>
      <trkpt lat="48.47519" lon="2.33829">
        <ele>77.6</ele>
        <time>2026-02-02T12:04:28Z</time>
      </trkpt>
      <trkpt lat="48.47523" lon="2.33841">
        <ele>76.8</ele>
        <time>2026-02-02T12:04:29Z</time>
      </trkpt>
      <trkpt lat="48.47527" lon="2.33853">
        <ele>76.8</ele>
        <time>2026-02-02T12:04:30Z</time>
      </trkpt>
      <trkpt lat="48.47531" lon="2.33866">
        <ele>76.8</ele>
        <time>2026-02-02T12:04:31Z</time>
      </trkpt>
      <trkpt lat="48.47534" lon="2.33878">
        <ele>76.4</ele>
        <time>2026-02-02T12:04:32Z</time>
      </trkpt>
      <trkpt lat="48.47537" lon="2.33891">
        <ele>76.2</ele>
        <time>2026-02-02T12:04:33Z</time>
      </trkpt>
      <trkpt lat="48.47539" lon="2.33904">
        <ele>76.2</ele>
        <time>2026-02-02T12:04:34Z</time>
      </trkpt>
      <trkpt lat="48.47542" lon="2.33916">
        <ele>76.2</ele>
        <time>2026-02-02T12:04:35Z</time>
      </trkpt>
      <trkpt lat="48.47544" lon="2.33929">
        <ele>76.2</ele>
        <time>2026-02-02T12:04:36Z</time>
      </trkpt>
      <trkpt lat="48.47547" lon="2.33941">
        <ele>75.6</ele>
        <time>2026-02-02T12:04:37Z</time>
      </trkpt>
      <trkpt lat="48.4755" lon="2.33953">
        <ele>75.6</ele>
        <time>2026-02-02T12:04:38Z</time>
      </trkpt>
      <trkpt lat="48.47552" lon="2.33965">
        <ele>75.6</ele>
        <time>2026-02-02T12:04:39Z</time>
      </trkpt>
      <trkpt lat="48.47554" lon="2.33976">
        <ele>75.6</ele>
        <time>2026-02-02T12:04:40Z</time>
      </trkpt>
      <trkpt lat="48.47557" lon="2.33988">
        <ele>75.6</ele>
        <time>2026-02-02T12:04:41Z</time>
      </trkpt>
      <trkpt lat="48.47559" lon="2.33999">
        <ele>75.6</ele>
        <time>2026-02-02T12:04:42Z</time>
      </trkpt>
      <trkpt lat="48.47561" lon="2.34011">
        <ele>75.6</ele>
        <time>2026-02-02T12:04:43Z</time>
      </trkpt>
      <trkpt lat="48.47564" lon="2.34022">
        <ele>75.2</ele>
        <time>2026-02-02T12:04:44Z</time>
      </trkpt>
      <trkpt lat="48.47566" lon="2.34032">
        <ele>75.6</ele>
        <time>2026-02-02T12:04:45Z</time>
      </trkpt>
      <trkpt lat="48.47567" lon="2.34042">
        <ele>75.6</ele>
        <time>2026-02-02T12:04:46Z</time>
      </trkpt>
      <trkpt lat="48.47569" lon="2.34051">
        <ele>75.6</ele>
        <time>2026-02-02T12:04:47Z</time>
      </trkpt>
      <trkpt lat="48.47572" lon="2.3406">
        <ele>75.6</ele>
        <time>2026-02-02T12:04:48Z</time>
      </trkpt>
      <trkpt lat="48.47572" lon="2.34068">
        <ele>76.8</ele>
        <time>2026-02-02T12:04:49Z</time>
      </trkpt>
      <trkpt lat="48.47573" lon="2.34073">
        <ele>76.8</ele>
        <time>2026-02-02T12:04:50Z</time>
      </trkpt>
      <trkpt lat="48.47575" lon="2.34075">
        <ele>76.8</ele>
        <time>2026-02-02T12:04:51Z</time>
      </trkpt>
      <trkpt lat="48.47576" lon="2.34074">
        <ele>76.8</ele>
        <time>2026-02-02T12:04:52Z</time>
      </trkpt>
      <trkpt lat="48.47577" lon="2.34073">
        <ele>77</ele>
        <time>2026-02-02T12:04:53Z</time>
      </trkpt>
      <trkpt lat="48.47576" lon="2.34072">
        <ele>77</ele>
        <time>2026-02-02T12:04:54Z</time>
      </trkpt>
      <trkpt lat="48.47576" lon="2.34071">
        <ele>77</ele>
        <time>2026-02-02T12:04:55Z</time>
      </trkpt>
      <trkpt lat="48.47575" lon="2.34069">
        <ele>77.4</ele>
        <time>2026-02-02T12:04:56Z</time>
      </trkpt>
      <trkpt lat="48.47574" lon="2.34066">
        <ele>77.6</ele>
        <time>2026-02-02T12:04:57Z</time>
      </trkpt>
      <trkpt lat="48.47573" lon="2.34063">
        <ele>77.6</ele>
        <time>2026-02-02T12:04:58Z</time>
      </trkpt>
      <trkpt lat="48.47573" lon="2.3406">
        <ele>77.6</ele>
        <time>2026-02-02T12:04:59Z</time>
      </trkpt>
      <trkpt lat="48.47571" lon="2.34056">
        <ele>77.2</ele>
        <time>2026-02-02T12:05:00Z</time>
      </trkpt>
      <trkpt lat="48.4757" lon="2.34051">
        <ele>76.6</ele>
        <time>2026-02-02T12:05:01Z</time>
      </trkpt>
      <trkpt lat="48.47569" lon="2.34046">
        <ele>76.6</ele>
        <time>2026-02-02T12:05:02Z</time>
      </trkpt>
      <trkpt lat="48.47568" lon="2.3404">
        <ele>76.6</ele>
        <time>2026-02-02T12:05:03Z</time>
      </trkpt>
      <trkpt lat="48.47567" lon="2.34035">
        <ele>76.6</ele>
        <time>2026-02-02T12:05:04Z</time>
      </trkpt>
      <trkpt lat="48.47566" lon="2.34029">
        <ele>76.2</ele>
        <time>2026-02-02T12:05:05Z</time>
      </trkpt>
      <trkpt lat="48.47564" lon="2.34024">
        <ele>76.2</ele>
        <time>2026-02-02T12:05:06Z</time>
      </trkpt>
      <trkpt lat="48.47563" lon="2.34017">
        <ele>76.2</ele>
        <time>2026-02-02T12:05:07Z</time>
      </trkpt>
      <trkpt lat="48.4756" lon="2.34012">
        <ele>76.6</ele>
        <time>2026-02-02T12:05:08Z</time>
      </trkpt>
      <trkpt lat="48.47561" lon="2.34008">
        <ele>77</ele>
        <time>2026-02-02T12:05:09Z</time>
      </trkpt>
      <trkpt lat="48.47561" lon="2.34006">
        <ele>77</ele>
        <time>2026-02-02T12:05:10Z</time>
      </trkpt>
      <trkpt lat="48.47561" lon="2.34004">
        <ele>77</ele>
        <time>2026-02-02T12:05:11Z</time>
      </trkpt>
      <trkpt lat="48.47561" lon="2.34002">
        <ele>77</ele>
        <time>2026-02-02T12:05:12Z</time>
      </trkpt>
      <trkpt lat="48.47561" lon="2.34002">
        <ele>76.6</ele>
        <time>2026-02-02T12:05:13Z</time>
      </trkpt>
      <trkpt lat="48.47562" lon="2.34001">
        <ele>76.6</ele>
        <time>2026-02-02T12:05:14Z</time>
      </trkpt>
      <trkpt lat="48.47564" lon="2.33998">
        <ele>76.6</ele>
        <time>2026-02-02T12:05:15Z</time>
      </trkpt>
      <trkpt lat="48.47566" lon="2.33995">
        <ele>76.6</ele>
        <time>2026-02-02T12:05:16Z</time>
      </trkpt>
      <trkpt lat="48.47568" lon="2.33992">
        <ele>76.4</ele>
        <time>2026-02-02T12:05:17Z</time>
      </trkpt>
      <trkpt lat="48.47571" lon="2.33989">
        <ele>76.4</ele>
        <time>2026-02-02T12:05:18Z</time>
      </trkpt>
      <trkpt lat="48.47575" lon="2.33985">
        <ele>76.4</ele>
        <time>2026-02-02T12:05:19Z</time>
      </trkpt>
      <trkpt lat="48.47579" lon="2.3398">
        <ele>75.4</ele>
        <time>2026-02-02T12:05:20Z</time>
      </trkpt>
      <trkpt lat="48.47584" lon="2.33974">
        <ele>73.2</ele>
        <time>2026-02-02T12:05:21Z</time>
      </trkpt>
      <trkpt lat="48.47589" lon="2.33966">
        <ele>73.2</ele>
        <time>2026-02-02T12:05:22Z</time>
      </trkpt>
      <trkpt lat="48.47595" lon="2.33958">
        <ele>73.2</ele>
        <time>2026-02-02T12:05:23Z</time>
      </trkpt>
      <trkpt lat="48.47601" lon="2.33949">
        <ele>72.2</ele>
        <time>2026-02-02T12:05:24Z</time>
      </trkpt>
      <trkpt lat="48.47608" lon="2.33939">
        <ele>70.6</ele>
        <time>2026-02-02T12:05:25Z</time>
      </trkpt>
      <trkpt lat="48.47614" lon="2.33929">
        <ele>70.6</ele>
        <time>2026-02-02T12:05:26Z</time>
      </trkpt>
      <trkpt lat="48.47622" lon="2.33919">
        <ele>70.6</ele>
        <time>2026-02-02T12:05:27Z</time>
      </trkpt>
      <trkpt lat="48.47629" lon="2.33909">
        <ele>69.6</ele>
        <time>2026-02-02T12:05:28Z</time>
      </trkpt>
      <trkpt lat="48.47636" lon="2.339">
        <ele>69.4</ele>
        <time>2026-02-02T12:05:29Z</time>
      </trkpt>
      <trkpt lat="48.47643" lon="2.3389">
        <ele>69.4</ele>
        <time>2026-02-02T12:05:30Z</time>
      </trkpt>
      <trkpt lat="48.4765" lon="2.3388">
        <ele>69.4</ele>
        <time>2026-02-02T12:05:31Z</time>
      </trkpt>
      <trkpt lat="48.47658" lon="2.33871">
        <ele>69.4</ele>
        <time>2026-02-02T12:05:32Z</time>
      </trkpt>
      <trkpt lat="48.47665" lon="2.33862">
        <ele>68.4</ele>
        <time>2026-02-02T12:05:33Z</time>
      </trkpt>
      <trkpt lat="48.47672" lon="2.33854">
        <ele>68.4</ele>
        <time>2026-02-02T12:05:34Z</time>
      </trkpt>
      <trkpt lat="48.4768" lon="2.33846">
        <ele>68.4</ele>
        <time>2026-02-02T12:05:35Z</time>
      </trkpt>
      <trkpt lat="48.47687" lon="2.33838">
        <ele>67.6</ele>
        <time>2026-02-02T12:05:36Z</time>
      </trkpt>
      <trkpt lat="48.47693" lon="2.33831">
        <ele>67.8</ele>
        <time>2026-02-02T12:05:37Z</time>
      </trkpt>
      <trkpt lat="48.47699" lon="2.33821">
        <ele>67.8</ele>
        <time>2026-02-02T12:05:38Z</time>
      </trkpt>
      <trkpt lat="48.47705" lon="2.3381">
        <ele>67.8</ele>
        <time>2026-02-02T12:05:39Z</time>
      </trkpt>
      <trkpt lat="48.47711" lon="2.33798">
        <ele>67</ele>
        <time>2026-02-02T12:05:40Z</time>
      </trkpt>
      <trkpt lat="48.47716" lon="2.33786">
        <ele>66.8</ele>
        <time>2026-02-02T12:05:41Z</time>
      </trkpt>
      <trkpt lat="48.47722" lon="2.33774">
        <ele>66.8</ele>
        <time>2026-02-02T12:05:42Z</time>
      </trkpt>
      <trkpt lat="48.47727" lon="2.33762">
        <ele>66.8</ele>
        <time>2026-02-02T12:05:43Z</time>
      </trkpt>
      <trkpt lat="48.47732" lon="2.33751">
        <ele>66.8</ele>
        <time>2026-02-02T12:05:44Z</time>
      </trkpt>
      <trkpt lat="48.47737" lon="2.33739">
        <ele>65.4</ele>
        <time>2026-02-02T12:05:45Z</time>
      </trkpt>
      <trkpt lat="48.47741" lon="2.33727">
        <ele>65.4</ele>
        <time>2026-02-02T12:05:46Z</time>
      </trkpt>
      <trkpt lat="48.47746" lon="2.33715">
        <ele>65.4</ele>
        <time>2026-02-02T12:05:47Z</time>
      </trkpt>
      <trkpt lat="48.4775" lon="2.33704">
        <ele>66.4</ele>
        <time>2026-02-02T12:05:48Z</time>
      </trkpt>
      <trkpt lat="48.47754" lon="2.33692">
        <ele>66.6</ele>
        <time>2026-02-02T12:05:49Z</time>
      </trkpt>
      <trkpt lat="48.47757" lon="2.33681">
        <ele>66.6</ele>
        <time>2026-02-02T12:05:50Z</time>
      </trkpt>
      <trkpt lat="48.47761" lon="2.3367">
        <ele>66.6</ele>
        <time>2026-02-02T12:05:51Z</time>
      </trkpt>
      <trkpt lat="48.47765" lon="2.33659">
        <ele>67.2</ele>
        <time>2026-02-02T12:05:52Z</time>
      </trkpt>
      <trkpt lat="48.47769" lon="2.33648">
        <ele>67</ele>
        <time>2026-02-02T12:05:53Z</time>
      </trkpt>
      <trkpt lat="48.47773" lon="2.33638">
        <ele>67</ele>
        <time>2026-02-02T12:05:54Z</time>
      </trkpt>
      <trkpt lat="48.47777" lon="2.33629">
        <ele>67</ele>
        <time>2026-02-02T12:05:55Z</time>
      </trkpt>
      <trkpt lat="48.47782" lon="2.3362">
        <ele>67.8</ele>
        <time>2026-02-02T12:05:56Z</time>
      </trkpt>
      <trkpt lat="48.47788" lon="2.33614">
        <ele>68.4</ele>
        <time>2026-02-02T12:05:57Z</time>
      </trkpt>
      <trkpt lat="48.47793" lon="2.33608">
        <ele>68.4</ele>
        <time>2026-02-02T12:05:58Z</time>
      </trkpt>
      <trkpt lat="48.47799" lon="2.33604">
        <ele>68.4</ele>
        <time>2026-02-02T12:05:59Z</time>
      </trkpt>
      <trkpt lat="48.47803" lon="2.336">
        <ele>69.2</ele>
        <time>2026-02-02T12:06:00Z</time>
      </trkpt>
      <trkpt lat="48.47808" lon="2.33597">
        <ele>69.8</ele>
        <time>2026-02-02T12:06:01Z</time>
      </trkpt>
      <trkpt lat="48.47812" lon="2.33594">
        <ele>69.8</ele>
        <time>2026-02-02T12:06:02Z</time>
      </trkpt>
      <trkpt lat="48.47817" lon="2.33591">
        <ele>69.8</ele>
        <time>2026-02-02T12:06:03Z</time>
      </trkpt>
      <trkpt lat="48.47821" lon="2.33589">
        <ele>70.4</ele>
        <time>2026-02-02T12:06:04Z</time>
      </trkpt>
      <trkpt lat="48.47826" lon="2.33586">
        <ele>70.4</ele>
        <time>2026-02-02T12:06:05Z</time>
      </trkpt>
      <trkpt lat="48.4783" lon="2.33584">
        <ele>70.4</ele>
        <time>2026-02-02T12:06:06Z</time>
      </trkpt>
      <trkpt lat="48.47835" lon="2.33583">
        <ele>70.4</ele>
        <time>2026-02-02T12:06:07Z</time>
      </trkpt>
      <trkpt lat="48.4784" lon="2.33582">
        <ele>71.2</ele>
        <time>2026-02-02T12:06:08Z</time>
      </trkpt>
      <trkpt lat="48.47845" lon="2.33582">
        <ele>70.8</ele>
        <time>2026-02-02T12:06:09Z</time>
      </trkpt>
      <trkpt lat="48.4785" lon="2.33583">
        <ele>70.8</ele>
        <time>2026-02-02T12:06:10Z</time>
      </trkpt>
      <trkpt lat="48.47853" lon="2.33586">
        <ele>70.8</ele>
        <time>2026-02-02T12:06:11Z</time>
      </trkpt>
      <trkpt lat="48.47857" lon="2.33589">
        <ele>71.2</ele>
        <time>2026-02-02T12:06:12Z</time>
      </trkpt>
      <trkpt lat="48.4786" lon="2.33592">
        <ele>71.4</ele>
        <time>2026-02-02T12:06:13Z</time>
      </trkpt>
      <trkpt lat="48.47864" lon="2.33595">
        <ele>71.4</ele>
        <time>2026-02-02T12:06:14Z</time>
      </trkpt>
      <trkpt lat="48.47867" lon="2.33598">
        <ele>71.4</ele>
        <time>2026-02-02T12:06:15Z</time>
      </trkpt>
      <trkpt lat="48.47871" lon="2.33601">
        <ele>71.4</ele>
        <time>2026-02-02T12:06:16Z</time>
      </trkpt>
      <trkpt lat="48.47874" lon="2.33602">
        <ele>72</ele>
        <time>2026-02-02T12:06:17Z</time>
      </trkpt>
      <trkpt lat="48.47878" lon="2.33601">
        <ele>72</ele>
        <time>2026-02-02T12:06:18Z</time>
      </trkpt>
      <trkpt lat="48.47882" lon="2.33599">
        <ele>72</ele>
        <time>2026-02-02T12:06:19Z</time>
      </trkpt>
      <trkpt lat="48.47884" lon="2.33595">
        <ele>72</ele>
        <time>2026-02-02T12:06:20Z</time>
      </trkpt>
      <trkpt lat="48.47887" lon="2.3359">
        <ele>73</ele>
        <time>2026-02-02T12:06:21Z</time>
      </trkpt>
      <trkpt lat="48.47889" lon="2.33585">
        <ele>73</ele>
        <time>2026-02-02T12:06:22Z</time>
      </trkpt>
      <trkpt lat="48.47891" lon="2.3358">
        <ele>73</ele>
        <time>2026-02-02T12:06:23Z</time>
      </trkpt>
      <trkpt lat="48.47893" lon="2.33576">
        <ele>74</ele>
        <time>2026-02-02T12:06:24Z</time>
      </trkpt>
      <trkpt lat="48.47895" lon="2.33571">
        <ele>74.2</ele>
        <time>2026-02-02T12:06:25Z</time>
      </trkpt>
      <trkpt lat="48.47898" lon="2.33567">
        <ele>74.2</ele>
        <time>2026-02-02T12:06:26Z</time>
      </trkpt>
      <trkpt lat="48.479" lon="2.33563">
        <ele>74.2</ele>
        <time>2026-02-02T12:06:27Z</time>
      </trkpt>
      <trkpt lat="48.47902" lon="2.33559">
        <ele>75</ele>
        <time>2026-02-02T12:06:28Z</time>
      </trkpt>
      <trkpt lat="48.47904" lon="2.33556">
        <ele>75</ele>
        <time>2026-02-02T12:06:29Z</time>
      </trkpt>
      <trkpt lat="48.47906" lon="2.33552">
        <ele>75</ele>
        <time>2026-02-02T12:06:30Z</time>
      </trkpt>
      <trkpt lat="48.47908" lon="2.33549">
        <ele>75</ele>
        <time>2026-02-02T12:06:31Z</time>
      </trkpt>
      <trkpt lat="48.4791" lon="2.33546">
        <ele>75</ele>
        <time>2026-02-02T12:06:32Z</time>
      </trkpt>
      <trkpt lat="48.47912" lon="2.33542">
        <ele>75.6</ele>
        <time>2026-02-02T12:06:33Z</time>
      </trkpt>
      <trkpt lat="48.47914" lon="2.33538">
        <ele>75.6</ele>
        <time>2026-02-02T12:06:34Z</time>
      </trkpt>
      <trkpt lat="48.47916" lon="2.33535">
        <ele>75.6</ele>
        <time>2026-02-02T12:06:35Z</time>
      </trkpt>
      <trkpt lat="48.47918" lon="2.33531">
        <ele>76.4</ele>
        <time>2026-02-02T12:06:36Z</time>
      </trkpt>
      <trkpt lat="48.4792" lon="2.33527">
        <ele>76.6</ele>
        <time>2026-02-02T12:06:37Z</time>
      </trkpt>
      <trkpt lat="48.47921" lon="2.33524">
        <ele>76.6</ele>
        <time>2026-02-02T12:06:38Z</time>
      </trkpt>
      <trkpt lat="48.47923" lon="2.3352">
        <ele>76.6</ele>
        <time>2026-02-02T12:06:39Z</time>
      </trkpt>
      <trkpt lat="48.47925" lon="2.33516">
        <ele>77.6</ele>
        <time>2026-02-02T12:06:40Z</time>
      </trkpt>
      <trkpt lat="48.47927" lon="2.33513">
        <ele>77.4</ele>
        <time>2026-02-02T12:06:41Z</time>
      </trkpt>
      <trkpt lat="48.47929" lon="2.33509">
        <ele>77.4</ele>
        <time>2026-02-02T12:06:42Z</time>
      </trkpt>
      <trkpt lat="48.47931" lon="2.33505">
        <ele>77.4</ele>
        <time>2026-02-02T12:06:43Z</time>
      </trkpt>
      <trkpt lat="48.47933" lon="2.33502">
        <ele>78.4</ele>
        <time>2026-02-02T12:06:44Z</time>
      </trkpt>
      <trkpt lat="48.47935" lon="2.33498">
        <ele>78.2</ele>
        <time>2026-02-02T12:06:45Z</time>
      </trkpt>
      <trkpt lat="48.47937" lon="2.33494">
        <ele>78.2</ele>
        <time>2026-02-02T12:06:46Z</time>
      </trkpt>
      <trkpt lat="48.47939" lon="2.33491">
        <ele>78.2</ele>
        <time>2026-02-02T12:06:47Z</time>
      </trkpt>
      <trkpt lat="48.47941" lon="2.33487">
        <ele>79.2</ele>
        <time>2026-02-02T12:06:48Z</time>
      </trkpt>
      <trkpt lat="48.47943" lon="2.33483">
        <ele>79.8</ele>
        <time>2026-02-02T12:06:49Z</time>
      </trkpt>
      <trkpt lat="48.47945" lon="2.33479">
        <ele>79.8</ele>
        <time>2026-02-02T12:06:50Z</time>
      </trkpt>
      <trkpt lat="48.47946" lon="2.33475">
        <ele>79.8</ele>
        <time>2026-02-02T12:06:51Z</time>
      </trkpt>
      <trkpt lat="48.47948" lon="2.33472">
        <ele>79.8</ele>
        <time>2026-02-02T12:06:52Z</time>
      </trkpt>
      <trkpt lat="48.4795" lon="2.33468">
        <ele>80.8</ele>
        <time>2026-02-02T12:06:53Z</time>
      </trkpt>
      <trkpt lat="48.47952" lon="2.33464">
        <ele>80.8</ele>
        <time>2026-02-02T12:06:54Z</time>
      </trkpt>
      <trkpt lat="48.47953" lon="2.3346">
        <ele>80.8</ele>
        <time>2026-02-02T12:06:55Z</time>
      </trkpt>
      <trkpt lat="48.47955" lon="2.33457">
        <ele>80.8</ele>
        <time>2026-02-02T12:06:56Z</time>
      </trkpt>
      <trkpt lat="48.47957" lon="2.33453">
        <ele>81</ele>
        <time>2026-02-02T12:06:57Z</time>
      </trkpt>
      <trkpt lat="48.47959" lon="2.3345">
        <ele>81</ele>
        <time>2026-02-02T12:06:58Z</time>
      </trkpt>
      <trkpt lat="48.47961" lon="2.33446">
        <ele>81</ele>
        <time>2026-02-02T12:06:59Z</time>
      </trkpt>
      <trkpt lat="48.47963" lon="2.33443">
        <ele>81.6</ele>
        <time>2026-02-02T12:07:00Z</time>
      </trkpt>
      <trkpt lat="48.47965" lon="2.33441">
        <ele>82</ele>
        <time>2026-02-02T12:07:01Z</time>
      </trkpt>
      <trkpt lat="48.47966" lon="2.33439">
        <ele>82</ele>
        <time>2026-02-02T12:07:02Z</time>
      </trkpt>
      <trkpt lat="48.47967" lon="2.33437">
        <ele>82</ele>
        <time>2026-02-02T12:07:03Z</time>
      </trkpt>
      <trkpt lat="48.47968" lon="2.33435">
        <ele>82</ele>
        <time>2026-02-02T12:07:04Z</time>
      </trkpt>
      <trkpt lat="48.47969" lon="2.33432">
        <ele>82</ele>
        <time>2026-02-02T12:07:05Z</time>
      </trkpt>
      <trkpt lat="48.47969" lon="2.33429">
        <ele>82</ele>
        <time>2026-02-02T12:07:06Z</time>
      </trkpt>
      <trkpt lat="48.47969" lon="2.33424">
        <ele>82</ele>
        <time>2026-02-02T12:07:07Z</time>
      </trkpt>
      <trkpt lat="48.47968" lon="2.33421">
        <ele>82</ele>
        <time>2026-02-02T12:07:08Z</time>
      </trkpt>
      <trkpt lat="48.47967" lon="2.33419">
        <ele>82</ele>
        <time>2026-02-02T12:07:09Z</time>
      </trkpt>
      <trkpt lat="48.47965" lon="2.33416">
        <ele>82</ele>
        <time>2026-02-02T12:07:10Z</time>
      </trkpt>
      <trkpt lat="48.47964" lon="2.33414">
        <ele>82</ele>
        <time>2026-02-02T12:07:11Z</time>
      </trkpt>
      <trkpt lat="48.47963" lon="2.33411">
        <ele>82.2</ele>
        <time>2026-02-02T12:07:28Z</time>
      </trkpt>
      <trkpt lat="48.47962" lon="2.33409">
        <ele>82.4</ele>
        <time>2026-02-02T12:07:29Z</time>
      </trkpt>
      <trkpt lat="48.4796" lon="2.33404">
        <ele>82.4</ele>
        <time>2026-02-02T12:07:30Z</time>
      </trkpt>
      <trkpt lat="48.47957" lon="2.33398">
        <ele>82.4</ele>
        <time>2026-02-02T12:07:31Z</time>
      </trkpt>
      <trkpt lat="48.47955" lon="2.33392">
        <ele>82.4</ele>
        <time>2026-02-02T12:07:32Z</time>
      </trkpt>
      <trkpt lat="48.47952" lon="2.33384">
        <ele>82</ele>
        <time>2026-02-02T12:07:33Z</time>
      </trkpt>
      <trkpt lat="48.47949" lon="2.33377">
        <ele>82</ele>
        <time>2026-02-02T12:07:34Z</time>
      </trkpt>
      <trkpt lat="48.47946" lon="2.3337">
        <ele>82</ele>
        <time>2026-02-02T12:07:35Z</time>
      </trkpt>
      <trkpt lat="48.47943" lon="2.33362">
        <ele>82</ele>
        <time>2026-02-02T12:07:36Z</time>
      </trkpt>
      <trkpt lat="48.4794" lon="2.33355">
        <ele>82.2</ele>
        <time>2026-02-02T12:07:37Z</time>
      </trkpt>
      <trkpt lat="48.47937" lon="2.33347">
        <ele>82.2</ele>
        <time>2026-02-02T12:07:38Z</time>
      </trkpt>
      <trkpt lat="48.47934" lon="2.33339">
        <ele>82.2</ele>
        <time>2026-02-02T12:07:39Z</time>
      </trkpt>
      <trkpt lat="48.47931" lon="2.33331">
        <ele>82</ele>
        <time>2026-02-02T12:07:40Z</time>
      </trkpt>
      <trkpt lat="48.47927" lon="2.33323">
        <ele>82</ele>
        <time>2026-02-02T12:07:41Z</time>
      </trkpt>
      <trkpt lat="48.47924" lon="2.33315">
        <ele>82</ele>
        <time>2026-02-02T12:07:42Z</time>
      </trkpt>
      <trkpt lat="48.4792" lon="2.33307">
        <ele>82</ele>
        <time>2026-02-02T12:07:43Z</time>
      </trkpt>
      <trkpt lat="48.47916" lon="2.33299">
        <ele>82</ele>
        <time>2026-02-02T12:07:44Z</time>
      </trkpt>
      <trkpt lat="48.47913" lon="2.33291">
        <ele>81.6</ele>
        <time>2026-02-02T12:07:45Z</time>
      </trkpt>
      <trkpt lat="48.47909" lon="2.33283">
        <ele>81.6</ele>
        <time>2026-02-02T12:07:46Z</time>
      </trkpt>
      <trkpt lat="48.47906" lon="2.33274">
        <ele>81.6</ele>
        <time>2026-02-02T12:07:47Z</time>
      </trkpt>
      <trkpt lat="48.47902" lon="2.33265">
        <ele>81.6</ele>
        <time>2026-02-02T12:07:48Z</time>
      </trkpt>
      <trkpt lat="48.47899" lon="2.33257">
        <ele>81</ele>
        <time>2026-02-02T12:07:49Z</time>
      </trkpt>
      <trkpt lat="48.47895" lon="2.33248">
        <ele>81</ele>
        <time>2026-02-02T12:07:50Z</time>
      </trkpt>
      <trkpt lat="48.47891" lon="2.33239">
        <ele>81</ele>
        <time>2026-02-02T12:07:51Z</time>
      </trkpt>
      <trkpt lat="48.47886" lon="2.33231">
        <ele>81</ele>
        <time>2026-02-02T12:07:52Z</time>
      </trkpt>
      <trkpt lat="48.47881" lon="2.33223">
        <ele>80.4</ele>
        <time>2026-02-02T12:07:53Z</time>
      </trkpt>
      <trkpt lat="48.47875" lon="2.33216">
        <ele>80.4</ele>
        <time>2026-02-02T12:07:54Z</time>
      </trkpt>
      <trkpt lat="48.47869" lon="2.3321">
        <ele>80.4</ele>
        <time>2026-02-02T12:07:55Z</time>
      </trkpt>
      <trkpt lat="48.47862" lon="2.33204">
        <ele>79.8</ele>
        <time>2026-02-02T12:07:56Z</time>
      </trkpt>
      <trkpt lat="48.47856" lon="2.33197">
        <ele>79.2</ele>
        <time>2026-02-02T12:07:57Z</time>
      </trkpt>
      <trkpt lat="48.47848" lon="2.33192">
        <ele>79.2</ele>
        <time>2026-02-02T12:07:58Z</time>
      </trkpt>
      <trkpt lat="48.47841" lon="2.33187">
        <ele>79.2</ele>
        <time>2026-02-02T12:07:59Z</time>
      </trkpt>
      <trkpt lat="48.47833" lon="2.33182">
        <ele>78.2</ele>
        <time>2026-02-02T12:08:00Z</time>
      </trkpt>
      <trkpt lat="48.47825" lon="2.33177">
        <ele>77.2</ele>
        <time>2026-02-02T12:08:01Z</time>
      </trkpt>
      <trkpt lat="48.47818" lon="2.33174">
        <ele>77.2</ele>
        <time>2026-02-02T12:08:02Z</time>
      </trkpt>
      <trkpt lat="48.4781" lon="2.33171">
        <ele>77.2</ele>
        <time>2026-02-02T12:08:03Z</time>
      </trkpt>
      <trkpt lat="48.47802" lon="2.33168">
        <ele>76.4</ele>
        <time>2026-02-02T12:08:04Z</time>
      </trkpt>
      <trkpt lat="48.47795" lon="2.33165">
        <ele>76.4</ele>
        <time>2026-02-02T12:08:05Z</time>
      </trkpt>
      <trkpt lat="48.47789" lon="2.33162">
        <ele>76.4</ele>
        <time>2026-02-02T12:08:06Z</time>
      </trkpt>
      <trkpt lat="48.47784" lon="2.33158">
        <ele>76.4</ele>
        <time>2026-02-02T12:08:07Z</time>
      </trkpt>
      <trkpt lat="48.47779" lon="2.33154">
        <ele>76.4</ele>
        <time>2026-02-02T12:08:08Z</time>
      </trkpt>
      <trkpt lat="48.47775" lon="2.3315">
        <ele>76</ele>
        <time>2026-02-02T12:08:09Z</time>
      </trkpt>
      <trkpt lat="48.4777" lon="2.33145">
        <ele>76</ele>
        <time>2026-02-02T12:08:10Z</time>
      </trkpt>
      <trkpt lat="48.47765" lon="2.3314">
        <ele>76</ele>
        <time>2026-02-02T12:08:11Z</time>
      </trkpt>
      <trkpt lat="48.4776" lon="2.33134">
        <ele>76</ele>
        <time>2026-02-02T12:08:12Z</time>
      </trkpt>
      <trkpt lat="48.47754" lon="2.33128">
        <ele>75.6</ele>
        <time>2026-02-02T12:08:13Z</time>
      </trkpt>
      <trkpt lat="48.47749" lon="2.33123">
        <ele>75.6</ele>
        <time>2026-02-02T12:08:14Z</time>
      </trkpt>
      <trkpt lat="48.47743" lon="2.33117">
        <ele>75.6</ele>
        <time>2026-02-02T12:08:15Z</time>
      </trkpt>
      <trkpt lat="48.47738" lon="2.3311">
        <ele>74.6</ele>
        <time>2026-02-02T12:08:16Z</time>
      </trkpt>
      <trkpt lat="48.47733" lon="2.33104">
        <ele>74.8</ele>
        <time>2026-02-02T12:08:17Z</time>
      </trkpt>
      <trkpt lat="48.47727" lon="2.33097">
        <ele>74.8</ele>
        <time>2026-02-02T12:08:18Z</time>
      </trkpt>
      <trkpt lat="48.47722" lon="2.3309">
        <ele>74.8</ele>
        <time>2026-02-02T12:08:19Z</time>
      </trkpt>
      <trkpt lat="48.47717" lon="2.33083">
        <ele>74.8</ele>
        <time>2026-02-02T12:08:20Z</time>
      </trkpt>
      <trkpt lat="48.47712" lon="2.33076">
        <ele>74.8</ele>
        <time>2026-02-02T12:08:21Z</time>
      </trkpt>
      <trkpt lat="48.47708" lon="2.3307">
        <ele>74.8</ele>
        <time>2026-02-02T12:08:22Z</time>
      </trkpt>
      <trkpt lat="48.47703" lon="2.33063">
        <ele>74.8</ele>
        <time>2026-02-02T12:08:23Z</time>
      </trkpt>
      <trkpt lat="48.47699" lon="2.33056">
        <ele>75</ele>
        <time>2026-02-02T12:08:24Z</time>
      </trkpt>
      <trkpt lat="48.47695" lon="2.33049">
        <ele>75.4</ele>
        <time>2026-02-02T12:08:25Z</time>
      </trkpt>
      <trkpt lat="48.47693" lon="2.33042">
        <ele>75.4</ele>
        <time>2026-02-02T12:08:26Z</time>
      </trkpt>
      <trkpt lat="48.47689" lon="2.33035">
        <ele>75.4</ele>
        <time>2026-02-02T12:08:27Z</time>
      </trkpt>
      <trkpt lat="48.47686" lon="2.33027">
        <ele>76</ele>
        <time>2026-02-02T12:08:28Z</time>
      </trkpt>
      <trkpt lat="48.47683" lon="2.3302">
        <ele>75.8</ele>
        <time>2026-02-02T12:08:29Z</time>
      </trkpt>
      <trkpt lat="48.47679" lon="2.33013">
        <ele>75.8</ele>
        <time>2026-02-02T12:08:30Z</time>
      </trkpt>
      <trkpt lat="48.47674" lon="2.33007">
        <ele>75.8</ele>
        <time>2026-02-02T12:08:31Z</time>
      </trkpt>
      <trkpt lat="48.4767" lon="2.33">
        <ele>75.8</ele>
        <time>2026-02-02T12:08:32Z</time>
      </trkpt>
      <trkpt lat="48.47666" lon="2.32994">
        <ele>76</ele>
        <time>2026-02-02T12:08:33Z</time>
      </trkpt>
      <trkpt lat="48.47661" lon="2.32988">
        <ele>76</ele>
        <time>2026-02-02T12:08:34Z</time>
      </trkpt>
      <trkpt lat="48.47657" lon="2.32981">
        <ele>76</ele>
        <time>2026-02-02T12:08:35Z</time>
      </trkpt>
      <trkpt lat="48.47652" lon="2.32975">
        <ele>76</ele>
        <time>2026-02-02T12:08:36Z</time>
      </trkpt>
      <trkpt lat="48.47647" lon="2.32969">
        <ele>76.2</ele>
        <time>2026-02-02T12:08:37Z</time>
      </trkpt>
      <trkpt lat="48.47642" lon="2.32963">
        <ele>76.2</ele>
        <time>2026-02-02T12:08:38Z</time>
      </trkpt>
      <trkpt lat="48.47637" lon="2.32957">
        <ele>76.2</ele>
        <time>2026-02-02T12:08:39Z</time>
      </trkpt>
      <trkpt lat="48.47633" lon="2.32951">
        <ele>76.2</ele>
        <time>2026-02-02T12:08:40Z</time>
      </trkpt>
      <trkpt lat="48.47627" lon="2.32945">
        <ele>76</ele>
        <time>2026-02-02T12:08:41Z</time>
      </trkpt>
      <trkpt lat="48.47622" lon="2.32939">
        <ele>76</ele>
        <time>2026-02-02T12:08:42Z</time>
      </trkpt>
      <trkpt lat="48.47617" lon="2.32934">
        <ele>76</ele>
        <time>2026-02-02T12:08:43Z</time>
      </trkpt>
      <trkpt lat="48.47612" lon="2.32928">
        <ele>76</ele>
        <time>2026-02-02T12:08:44Z</time>
      </trkpt>
      <trkpt lat="48.47607" lon="2.32922">
        <ele>75.8</ele>
        <time>2026-02-02T12:08:45Z</time>
      </trkpt>
      <trkpt lat="48.47602" lon="2.32917">
        <ele>75.8</ele>
        <time>2026-02-02T12:08:46Z</time>
      </trkpt>
      <trkpt lat="48.47597" lon="2.32912">
        <ele>75.8</ele>
        <time>2026-02-02T12:08:47Z</time>
      </trkpt>
      <trkpt lat="48.47591" lon="2.32907">
        <ele>75.6</ele>
        <time>2026-02-02T12:08:48Z</time>
      </trkpt>
      <trkpt lat="48.47585" lon="2.32903">
        <ele>75.8</ele>
        <time>2026-02-02T12:08:49Z</time>
      </trkpt>
      <trkpt lat="48.47579" lon="2.32899">
        <ele>75.8</ele>
        <time>2026-02-02T12:08:50Z</time>
      </trkpt>
      <trkpt lat="48.47573" lon="2.32896">
        <ele>75.8</ele>
        <time>2026-02-02T12:08:51Z</time>
      </trkpt>
      <trkpt lat="48.47567" lon="2.32893">
        <ele>74.8</ele>
        <time>2026-02-02T12:08:52Z</time>
      </trkpt>
      <trkpt lat="48.47562" lon="2.32889">
        <ele>75.2</ele>
        <time>2026-02-02T12:08:53Z</time>
      </trkpt>
      <trkpt lat="48.47556" lon="2.32886">
        <ele>75.2</ele>
        <time>2026-02-02T12:08:54Z</time>
      </trkpt>
      <trkpt lat="48.47551" lon="2.32883">
        <ele>75.2</ele>
        <time>2026-02-02T12:08:55Z</time>
      </trkpt>
      <trkpt lat="48.47546" lon="2.32879">
        <ele>74.8</ele>
        <time>2026-02-02T12:08:56Z</time>
      </trkpt>
      <trkpt lat="48.47542" lon="2.32877">
        <ele>74.8</ele>
        <time>2026-02-02T12:08:57Z</time>
      </trkpt>
      <trkpt lat="48.47537" lon="2.32874">
        <ele>74.8</ele>
        <time>2026-02-02T12:08:58Z</time>
      </trkpt>
      <trkpt lat="48.47533" lon="2.32871">
        <ele>74.8</ele>
        <time>2026-02-02T12:08:59Z</time>
      </trkpt>
      <trkpt lat="48.47528" lon="2.32869">
        <ele>75</ele>
        <time>2026-02-02T12:09:00Z</time>
      </trkpt>
      <trkpt lat="48.47525" lon="2.32866">
        <ele>75.6</ele>
        <time>2026-02-02T12:09:01Z</time>
      </trkpt>
      <trkpt lat="48.47521" lon="2.32863">
        <ele>75.6</ele>
        <time>2026-02-02T12:09:02Z</time>
      </trkpt>
      <trkpt lat="48.47519" lon="2.32859">
        <ele>75.6</ele>
        <time>2026-02-02T12:09:03Z</time>
      </trkpt>
      <trkpt lat="48.47517" lon="2.32855">
        <ele>75.6</ele>
        <time>2026-02-02T12:09:04Z</time>
      </trkpt>
      <trkpt lat="48.47516" lon="2.3285">
        <ele>75.6</ele>
        <time>2026-02-02T12:09:05Z</time>
      </trkpt>
      <trkpt lat="48.47515" lon="2.32846">
        <ele>75.6</ele>
        <time>2026-02-02T12:09:06Z</time>
      </trkpt>
      <trkpt lat="48.47514" lon="2.32843">
        <ele>75.6</ele>
        <time>2026-02-02T12:09:07Z</time>
      </trkpt>
      <trkpt lat="48.47514" lon="2.32839">
        <ele>75.8</ele>
        <time>2026-02-02T12:09:08Z</time>
      </trkpt>
      <trkpt lat="48.47512" lon="2.32835">
        <ele>75.8</ele>
        <time>2026-02-02T12:09:09Z</time>
      </trkpt>
      <trkpt lat="48.47511" lon="2.32831">
        <ele>75.8</ele>
        <time>2026-02-02T12:09:10Z</time>
      </trkpt>
      <trkpt lat="48.4751" lon="2.32827">
        <ele>75.8</ele>
        <time>2026-02-02T12:09:11Z</time>
      </trkpt>
      <trkpt lat="48.47509" lon="2.32824">
        <ele>76.8</ele>
        <time>2026-02-02T12:09:12Z</time>
      </trkpt>
      <trkpt lat="48.47507" lon="2.32821">
        <ele>77</ele>
        <time>2026-02-02T12:09:13Z</time>
      </trkpt>
      <trkpt lat="48.47504" lon="2.3282">
        <ele>77</ele>
        <time>2026-02-02T12:09:14Z</time>
      </trkpt>
      <trkpt lat="48.47502" lon="2.32819">
        <ele>77</ele>
        <time>2026-02-02T12:09:15Z</time>
      </trkpt>
      <trkpt lat="48.475" lon="2.32818">
        <ele>77</ele>
        <time>2026-02-02T12:09:16Z</time>
      </trkpt>
      <trkpt lat="48.47498" lon="2.32817">
        <ele>77.2</ele>
        <time>2026-02-02T12:09:17Z</time>
      </trkpt>
      <trkpt lat="48.47495" lon="2.32816">
        <ele>77.2</ele>
        <time>2026-02-02T12:09:18Z</time>
      </trkpt>
      <trkpt lat="48.47493" lon="2.32815">
        <ele>77.2</ele>
        <time>2026-02-02T12:09:19Z</time>
      </trkpt>
      <trkpt lat="48.47491" lon="2.32813">
        <ele>77.8</ele>
        <time>2026-02-02T12:09:20Z</time>
      </trkpt>
      <trkpt lat="48.4749" lon="2.32811">
        <ele>77.6</ele>
        <time>2026-02-02T12:09:21Z</time>
      </trkpt>
      <trkpt lat="48.47488" lon="2.3281">
        <ele>77.6</ele>
        <time>2026-02-02T12:09:22Z</time>
      </trkpt>
      <trkpt lat="48.47486" lon="2.32807">
        <ele>77.6</ele>
        <time>2026-02-02T12:09:23Z</time>
      </trkpt>
      <trkpt lat="48.47485" lon="2.32804">
        <ele>77.6</ele>
        <time>2026-02-02T12:09:24Z</time>
      </trkpt>
      <trkpt lat="48.47484" lon="2.32801">
        <ele>77.8</ele>
        <time>2026-02-02T12:09:25Z</time>
      </trkpt>
      <trkpt lat="48.47485" lon="2.32797">
        <ele>77.8</ele>
        <time>2026-02-02T12:09:26Z</time>
      </trkpt>
      <trkpt lat="48.47486" lon="2.32794">
        <ele>77.8</ele>
        <time>2026-02-02T12:09:27Z</time>
      </trkpt>
      <trkpt lat="48.47487" lon="2.32791">
        <ele>78.2</ele>
        <time>2026-02-02T12:09:28Z</time>
      </trkpt>
      <trkpt lat="48.47488" lon="2.32788">
        <ele>78.2</ele>
        <time>2026-02-02T12:09:29Z</time>
      </trkpt>
      <trkpt lat="48.47488" lon="2.32785">
        <ele>78.2</ele>
        <time>2026-02-02T12:09:30Z</time>
      </trkpt>
      <trkpt lat="48.47488" lon="2.32782">
        <ele>78.2</ele>
        <time>2026-02-02T12:09:31Z</time>
      </trkpt>
      <trkpt lat="48.47488" lon="2.32779">
        <ele>78.8</ele>
        <time>2026-02-02T12:09:32Z</time>
      </trkpt>
      <trkpt lat="48.47487" lon="2.32775">
        <ele>78.6</ele>
        <time>2026-02-02T12:09:33Z</time>
      </trkpt>
      <trkpt lat="48.47487" lon="2.32771">
        <ele>78.6</ele>
        <time>2026-02-02T12:09:34Z</time>
      </trkpt>
      <trkpt lat="48.47486" lon="2.32767">
        <ele>78.6</ele>
        <time>2026-02-02T12:09:35Z</time>
      </trkpt>
      <trkpt lat="48.47486" lon="2.32763">
        <ele>79.2</ele>
        <time>2026-02-02T12:09:36Z</time>
      </trkpt>
      <trkpt lat="48.47486" lon="2.32759">
        <ele>79.2</ele>
        <time>2026-02-02T12:09:37Z</time>
      </trkpt>
      <trkpt lat="48.47485" lon="2.32756">
        <ele>79.2</ele>
        <time>2026-02-02T12:09:38Z</time>
      </trkpt>
      <trkpt lat="48.47485" lon="2.32752">
        <ele>79.2</ele>
        <time>2026-02-02T12:09:39Z</time>
      </trkpt>
      <trkpt lat="48.47484" lon="2.3275">
        <ele>79.2</ele>
        <time>2026-02-02T12:09:40Z</time>
      </trkpt>
      <trkpt lat="48.47483" lon="2.32748">
        <ele>79.6</ele>
        <time>2026-02-02T12:09:41Z</time>
      </trkpt>
      <trkpt lat="48.47482" lon="2.32748">
        <ele>79.6</ele>
        <time>2026-02-02T12:09:42Z</time>
      </trkpt>
      <trkpt lat="48.47481" lon="2.3275">
        <ele>79.6</ele>
        <time>2026-02-02T12:09:43Z</time>
      </trkpt>
      <trkpt lat="48.47481" lon="2.32751">
        <ele>79.6</ele>
        <time>2026-02-02T12:09:44Z</time>
      </trkpt>
      <trkpt lat="48.47482" lon="2.32754">
        <ele>78.6</ele>
        <time>2026-02-02T12:09:45Z</time>
      </trkpt>
      <trkpt lat="48.47483" lon="2.32756">
        <ele>78.6</ele>
        <time>2026-02-02T12:09:46Z</time>
      </trkpt>
      <trkpt lat="48.47484" lon="2.32758">
        <ele>78.6</ele>
        <time>2026-02-02T12:09:47Z</time>
      </trkpt>
      <trkpt lat="48.47484" lon="2.32762">
        <ele>79.2</ele>
        <time>2026-02-02T12:09:48Z</time>
      </trkpt>
      <trkpt lat="48.47485" lon="2.32765">
        <ele>78.8</ele>
        <time>2026-02-02T12:09:49Z</time>
      </trkpt>
      <trkpt lat="48.47485" lon="2.32769">
        <ele>78.8</ele>
        <time>2026-02-02T12:09:50Z</time>
      </trkpt>
      <trkpt lat="48.47486" lon="2.32773">
        <ele>78.8</ele>
        <time>2026-02-02T12:09:51Z</time>
      </trkpt>
      <trkpt lat="48.47487" lon="2.32776">
        <ele>78.6</ele>
        <time>2026-02-02T12:09:52Z</time>
      </trkpt>
      <trkpt lat="48.47487" lon="2.32778">
        <ele>78.2</ele>
        <time>2026-02-02T12:09:53Z</time>
      </trkpt>
      <trkpt lat="48.47487" lon="2.32779">
        <ele>78.2</ele>
        <time>2026-02-02T12:09:54Z</time>
      </trkpt>
      <trkpt lat="48.47486" lon="2.32781">
        <ele>78.2</ele>
        <time>2026-02-02T12:09:55Z</time>
      </trkpt>
      <trkpt lat="48.47486" lon="2.32783">
        <ele>78.2</ele>
        <time>2026-02-02T12:09:56Z</time>
      </trkpt>
      <trkpt lat="48.47485" lon="2.32786">
        <ele>78.2</ele>
        <time>2026-02-02T12:09:57Z</time>
      </trkpt>
      <trkpt lat="48.47485" lon="2.3279">
        <ele>78.2</ele>
        <time>2026-02-02T12:09:58Z</time>
      </trkpt>
      <trkpt lat="48.47485" lon="2.32793">
        <ele>78.2</ele>
        <time>2026-02-02T12:09:59Z</time>
      </trkpt>
      <trkpt lat="48.47485" lon="2.32797">
        <ele>77.8</ele>
        <time>2026-02-02T12:10:00Z</time>
      </trkpt>
      <trkpt lat="48.47486" lon="2.32799">
        <ele>77.6</ele>
        <time>2026-02-02T12:10:01Z</time>
      </trkpt>
      <trkpt lat="48.47486" lon="2.32802">
        <ele>77.6</ele>
        <time>2026-02-02T12:10:02Z</time>
      </trkpt>
      <trkpt lat="48.47487" lon="2.32803">
        <ele>77.6</ele>
        <time>2026-02-02T12:10:03Z</time>
      </trkpt>
      <trkpt lat="48.47487" lon="2.32803">
        <ele>77.6</ele>
        <time>2026-02-02T12:10:04Z</time>
      </trkpt>
      <trkpt lat="48.47487" lon="2.32803">
        <ele>77.6</ele>
        <time>2026-02-02T12:10:05Z</time>
      </trkpt>
      <trkpt lat="48.47498" lon="2.32819">
        <ele>83.2</ele>
        <time>2026-02-02T12:30:03Z</time>
      </trkpt>
      <trkpt lat="48.47501" lon="2.3282">
        <ele>83</ele>
        <time>2026-02-02T12:30:04Z</time>
      </trkpt>
      <trkpt lat="48.47503" lon="2.32821">
        <ele>82.4</ele>
        <time>2026-02-02T12:30:05Z</time>
      </trkpt>
      <trkpt lat="48.47506" lon="2.32824">
        <ele>82.4</ele>
        <time>2026-02-02T12:30:06Z</time>
      </trkpt>
      <trkpt lat="48.47508" lon="2.32829">
        <ele>82.4</ele>
        <time>2026-02-02T12:30:07Z</time>
      </trkpt>
      <trkpt lat="48.4751" lon="2.32834">
        <ele>81.4</ele>
        <time>2026-02-02T12:30:08Z</time>
      </trkpt>
      <trkpt lat="48.47511" lon="2.32841">
        <ele>81.4</ele>
        <time>2026-02-02T12:30:09Z</time>
      </trkpt>
      <trkpt lat="48.47513" lon="2.32848">
        <ele>81.4</ele>
        <time>2026-02-02T12:30:10Z</time>
      </trkpt>
      <trkpt lat="48.47515" lon="2.32856">
        <ele>81.4</ele>
        <time>2026-02-02T12:30:11Z</time>
      </trkpt>
      <trkpt lat="48.47517" lon="2.32862">
        <ele>81.2</ele>
        <time>2026-02-02T12:30:12Z</time>
      </trkpt>
      <trkpt lat="48.47522" lon="2.32868">
        <ele>81</ele>
        <time>2026-02-02T12:30:13Z</time>
      </trkpt>
      <trkpt lat="48.47527" lon="2.32872">
        <ele>81</ele>
        <time>2026-02-02T12:30:14Z</time>
      </trkpt>
      <trkpt lat="48.47532" lon="2.32876">
        <ele>81</ele>
        <time>2026-02-02T12:30:15Z</time>
      </trkpt>
      <trkpt lat="48.47537" lon="2.32879">
        <ele>80.8</ele>
        <time>2026-02-02T12:30:16Z</time>
      </trkpt>
      <trkpt lat="48.47543" lon="2.32882">
        <ele>80.4</ele>
        <time>2026-02-02T12:30:17Z</time>
      </trkpt>
      <trkpt lat="48.47548" lon="2.32885">
        <ele>80.4</ele>
        <time>2026-02-02T12:30:18Z</time>
      </trkpt>
      <trkpt lat="48.47553" lon="2.32888">
        <ele>80.4</ele>
        <time>2026-02-02T12:30:19Z</time>
      </trkpt>
      <trkpt lat="48.47558" lon="2.3289">
        <ele>81.4</ele>
        <time>2026-02-02T12:30:20Z</time>
      </trkpt>
      <trkpt lat="48.47562" lon="2.32893">
        <ele>81.2</ele>
        <time>2026-02-02T12:30:21Z</time>
      </trkpt>
      <trkpt lat="48.47567" lon="2.32897">
        <ele>81.2</ele>
        <time>2026-02-02T12:30:22Z</time>
      </trkpt>
      <trkpt lat="48.47572" lon="2.329">
        <ele>81.2</ele>
        <time>2026-02-02T12:30:23Z</time>
      </trkpt>
      <trkpt lat="48.47576" lon="2.32903">
        <ele>81.2</ele>
        <time>2026-02-02T12:30:24Z</time>
      </trkpt>
      <trkpt lat="48.47581" lon="2.32906">
        <ele>81.2</ele>
        <time>2026-02-02T12:30:25Z</time>
      </trkpt>
      <trkpt lat="48.47586" lon="2.32909">
        <ele>81.2</ele>
        <time>2026-02-02T12:30:26Z</time>
      </trkpt>
      <trkpt lat="48.47591" lon="2.32913">
        <ele>81.2</ele>
        <time>2026-02-02T12:30:27Z</time>
      </trkpt>
      <trkpt lat="48.47596" lon="2.32917">
        <ele>81.6</ele>
        <time>2026-02-02T12:30:28Z</time>
      </trkpt>
      <trkpt lat="48.476" lon="2.32922">
        <ele>82.2</ele>
        <time>2026-02-02T12:30:29Z</time>
      </trkpt>
      <trkpt lat="48.47604" lon="2.32925">
        <ele>82.2</ele>
        <time>2026-02-02T12:30:30Z</time>
      </trkpt>
      <trkpt lat="48.47608" lon="2.3293">
        <ele>82.2</ele>
        <time>2026-02-02T12:30:31Z</time>
      </trkpt>
      <trkpt lat="48.47613" lon="2.32934">
        <ele>81.6</ele>
        <time>2026-02-02T12:30:32Z</time>
      </trkpt>
      <trkpt lat="48.47617" lon="2.32939">
        <ele>82.4</ele>
        <time>2026-02-02T12:30:33Z</time>
      </trkpt>
      <trkpt lat="48.47621" lon="2.32944">
        <ele>82.4</ele>
        <time>2026-02-02T12:30:34Z</time>
      </trkpt>
      <trkpt lat="48.47626" lon="2.32949">
        <ele>82.4</ele>
        <time>2026-02-02T12:30:35Z</time>
      </trkpt>
      <trkpt lat="48.4763" lon="2.32954">
        <ele>82.4</ele>
        <time>2026-02-02T12:30:36Z</time>
      </trkpt>
      <trkpt lat="48.47634" lon="2.32959">
        <ele>83</ele>
        <time>2026-02-02T12:30:37Z</time>
      </trkpt>
      <trkpt lat="48.47638" lon="2.32964">
        <ele>83</ele>
        <time>2026-02-02T12:30:38Z</time>
      </trkpt>
      <trkpt lat="48.47643" lon="2.32969">
        <ele>83</ele>
        <time>2026-02-02T12:30:39Z</time>
      </trkpt>
      <trkpt lat="48.47647" lon="2.32974">
        <ele>83</ele>
        <time>2026-02-02T12:30:40Z</time>
      </trkpt>
      <trkpt lat="48.47651" lon="2.3298">
        <ele>82.8</ele>
        <time>2026-02-02T12:30:41Z</time>
      </trkpt>
      <trkpt lat="48.47655" lon="2.32986">
        <ele>82.8</ele>
        <time>2026-02-02T12:30:42Z</time>
      </trkpt>
      <trkpt lat="48.4766" lon="2.32992">
        <ele>82.8</ele>
        <time>2026-02-02T12:30:43Z</time>
      </trkpt>
      <trkpt lat="48.47664" lon="2.32998">
        <ele>81.8</ele>
        <time>2026-02-02T12:30:44Z</time>
      </trkpt>
      <trkpt lat="48.47668" lon="2.33004">
        <ele>81.2</ele>
        <time>2026-02-02T12:30:45Z</time>
      </trkpt>
      <trkpt lat="48.47672" lon="2.33011">
        <ele>81.2</ele>
        <time>2026-02-02T12:30:46Z</time>
      </trkpt>
      <trkpt lat="48.47676" lon="2.33019">
        <ele>81.2</ele>
        <time>2026-02-02T12:30:47Z</time>
      </trkpt>
      <trkpt lat="48.47679" lon="2.33027">
        <ele>81.2</ele>
        <time>2026-02-02T12:30:48Z</time>
      </trkpt>
      <trkpt lat="48.47682" lon="2.33035">
        <ele>80.6</ele>
        <time>2026-02-02T12:30:49Z</time>
      </trkpt>
      <trkpt lat="48.47686" lon="2.33042">
        <ele>80.6</ele>
        <time>2026-02-02T12:30:50Z</time>
      </trkpt>
      <trkpt lat="48.4769" lon="2.3305">
        <ele>80.6</ele>
        <time>2026-02-02T12:30:51Z</time>
      </trkpt>
      <trkpt lat="48.47693" lon="2.33058">
        <ele>81</ele>
        <time>2026-02-02T12:30:52Z</time>
      </trkpt>
      <trkpt lat="48.47697" lon="2.33065">
        <ele>81</ele>
        <time>2026-02-02T12:30:53Z</time>
      </trkpt>
      <trkpt lat="48.47702" lon="2.33072">
        <ele>81</ele>
        <time>2026-02-02T12:30:54Z</time>
      </trkpt>
      <trkpt lat="48.47707" lon="2.33079">
        <ele>81</ele>
        <time>2026-02-02T12:30:55Z</time>
      </trkpt>
      <trkpt lat="48.47712" lon="2.33085">
        <ele>80.6</ele>
        <time>2026-02-02T12:30:56Z</time>
      </trkpt>
      <trkpt lat="48.47717" lon="2.33091">
        <ele>80.4</ele>
        <time>2026-02-02T12:30:57Z</time>
      </trkpt>
      <trkpt lat="48.47722" lon="2.33097">
        <ele>80.4</ele>
        <time>2026-02-02T12:30:58Z</time>
      </trkpt>
      <trkpt lat="48.47728" lon="2.33103">
        <ele>80.4</ele>
        <time>2026-02-02T12:30:59Z</time>
      </trkpt>
      <trkpt lat="48.47733" lon="2.33109">
        <ele>80.4</ele>
        <time>2026-02-02T12:31:00Z</time>
      </trkpt>
      <trkpt lat="48.47738" lon="2.33115">
        <ele>81</ele>
        <time>2026-02-02T12:31:01Z</time>
      </trkpt>
      <trkpt lat="48.47743" lon="2.33121">
        <ele>81</ele>
        <time>2026-02-02T12:31:02Z</time>
      </trkpt>
      <trkpt lat="48.47747" lon="2.33126">
        <ele>81</ele>
        <time>2026-02-02T12:31:03Z</time>
      </trkpt>
      <trkpt lat="48.47752" lon="2.33132">
        <ele>81</ele>
        <time>2026-02-02T12:31:04Z</time>
      </trkpt>
      <trkpt lat="48.47757" lon="2.33137">
        <ele>82.2</ele>
        <time>2026-02-02T12:31:05Z</time>
      </trkpt>
      <trkpt lat="48.47761" lon="2.33141">
        <ele>82.2</ele>
        <time>2026-02-02T12:31:06Z</time>
      </trkpt>
      <trkpt lat="48.47765" lon="2.33146">
        <ele>82.2</ele>
        <time>2026-02-02T12:31:07Z</time>
      </trkpt>
      <trkpt lat="48.47769" lon="2.3315">
        <ele>82.2</ele>
        <time>2026-02-02T12:31:08Z</time>
      </trkpt>
      <trkpt lat="48.47774" lon="2.33155">
        <ele>82.4</ele>
        <time>2026-02-02T12:31:09Z</time>
      </trkpt>
      <trkpt lat="48.47778" lon="2.33158">
        <ele>82.4</ele>
        <time>2026-02-02T12:31:10Z</time>
      </trkpt>
      <trkpt lat="48.47783" lon="2.33161">
        <ele>82.4</ele>
        <time>2026-02-02T12:31:11Z</time>
      </trkpt>
      <trkpt lat="48.47787" lon="2.33164">
        <ele>82.4</ele>
        <time>2026-02-02T12:31:12Z</time>
      </trkpt>
      <trkpt lat="48.47792" lon="2.33166">
        <ele>82.8</ele>
        <time>2026-02-02T12:31:13Z</time>
      </trkpt>
      <trkpt lat="48.47797" lon="2.33168">
        <ele>82.8</ele>
        <time>2026-02-02T12:31:14Z</time>
      </trkpt>
      <trkpt lat="48.47801" lon="2.33169">
        <ele>82.8</ele>
        <time>2026-02-02T12:31:15Z</time>
      </trkpt>
      <trkpt lat="48.47805" lon="2.33171">
        <ele>83.2</ele>
        <time>2026-02-02T12:31:16Z</time>
      </trkpt>
      <trkpt lat="48.47809" lon="2.33172">
        <ele>83</ele>
        <time>2026-02-02T12:31:17Z</time>
      </trkpt>
      <trkpt lat="48.47813" lon="2.33174">
        <ele>83</ele>
        <time>2026-02-02T12:31:18Z</time>
      </trkpt>
      <trkpt lat="48.47817" lon="2.33176">
        <ele>83</ele>
        <time>2026-02-02T12:31:19Z</time>
      </trkpt>
      <trkpt lat="48.47821" lon="2.33178">
        <ele>84</ele>
        <time>2026-02-02T12:31:20Z</time>
      </trkpt>
      <trkpt lat="48.47825" lon="2.3318">
        <ele>84.6</ele>
        <time>2026-02-02T12:31:21Z</time>
      </trkpt>
      <trkpt lat="48.47829" lon="2.33183">
        <ele>84.6</ele>
        <time>2026-02-02T12:31:22Z</time>
      </trkpt>
      <trkpt lat="48.47833" lon="2.33185">
        <ele>84.6</ele>
        <time>2026-02-02T12:31:23Z</time>
      </trkpt>
      <trkpt lat="48.47836" lon="2.33188">
        <ele>84.6</ele>
        <time>2026-02-02T12:31:24Z</time>
      </trkpt>
      <trkpt lat="48.4784" lon="2.33191">
        <ele>85.4</ele>
        <time>2026-02-02T12:31:25Z</time>
      </trkpt>
      <trkpt lat="48.47843" lon="2.33194">
        <ele>85.4</ele>
        <time>2026-02-02T12:31:26Z</time>
      </trkpt>
      <trkpt lat="48.47847" lon="2.33196">
        <ele>85.4</ele>
        <time>2026-02-02T12:31:27Z</time>
      </trkpt>
      <trkpt lat="48.4785" lon="2.33199">
        <ele>85.4</ele>
        <time>2026-02-02T12:31:28Z</time>
      </trkpt>
      <trkpt lat="48.47854" lon="2.33202">
        <ele>86</ele>
        <time>2026-02-02T12:31:29Z</time>
      </trkpt>
      <trkpt lat="48.47857" lon="2.33205">
        <ele>86</ele>
        <time>2026-02-02T12:31:30Z</time>
      </trkpt>
      <trkpt lat="48.47861" lon="2.33208">
        <ele>86</ele>
        <time>2026-02-02T12:31:31Z</time>
      </trkpt>
      <trkpt lat="48.47864" lon="2.33212">
        <ele>86</ele>
        <time>2026-02-02T12:31:32Z</time>
      </trkpt>
      <trkpt lat="48.47868" lon="2.33215">
        <ele>86.6</ele>
        <time>2026-02-02T12:31:33Z</time>
      </trkpt>
      <trkpt lat="48.47872" lon="2.33219">
        <ele>86.6</ele>
        <time>2026-02-02T12:31:34Z</time>
      </trkpt>
      <trkpt lat="48.47875" lon="2.33222">
        <ele>86.6</ele>
        <time>2026-02-02T12:31:35Z</time>
      </trkpt>
      <trkpt lat="48.47878" lon="2.33226">
        <ele>86.6</ele>
        <time>2026-02-02T12:31:36Z</time>
      </trkpt>
      <trkpt lat="48.47882" lon="2.3323">
        <ele>86.8</ele>
        <time>2026-02-02T12:31:37Z</time>
      </trkpt>
      <trkpt lat="48.47884" lon="2.33235">
        <ele>86.8</ele>
        <time>2026-02-02T12:31:38Z</time>
      </trkpt>
      <trkpt lat="48.47887" lon="2.3324">
        <ele>86.8</ele>
        <time>2026-02-02T12:31:39Z</time>
      </trkpt>
      <trkpt lat="48.47889" lon="2.33245">
        <ele>87.2</ele>
        <time>2026-02-02T12:31:40Z</time>
      </trkpt>
      <trkpt lat="48.47892" lon="2.3325">
        <ele>87.2</ele>
        <time>2026-02-02T12:31:41Z</time>
      </trkpt>
      <trkpt lat="48.47894" lon="2.33256">
        <ele>87.2</ele>
        <time>2026-02-02T12:31:42Z</time>
      </trkpt>
      <trkpt lat="48.47897" lon="2.33261">
        <ele>87.2</ele>
        <time>2026-02-02T12:31:43Z</time>
      </trkpt>
      <trkpt lat="48.47899" lon="2.33267">
        <ele>87.6</ele>
        <time>2026-02-02T12:31:44Z</time>
      </trkpt>
      <trkpt lat="48.47902" lon="2.33272">
        <ele>87.4</ele>
        <time>2026-02-02T12:31:45Z</time>
      </trkpt>
      <trkpt lat="48.47904" lon="2.33277">
        <ele>87.4</ele>
        <time>2026-02-02T12:31:46Z</time>
      </trkpt>
      <trkpt lat="48.47906" lon="2.33283">
        <ele>87.4</ele>
        <time>2026-02-02T12:31:47Z</time>
      </trkpt>
      <trkpt lat="48.47909" lon="2.33289">
        <ele>87.8</ele>
        <time>2026-02-02T12:31:48Z</time>
      </trkpt>
      <trkpt lat="48.47911" lon="2.33295">
        <ele>87.6</ele>
        <time>2026-02-02T12:31:49Z</time>
      </trkpt>
      <trkpt lat="48.47914" lon="2.33301">
        <ele>87.6</ele>
        <time>2026-02-02T12:31:50Z</time>
      </trkpt>
      <trkpt lat="48.47916" lon="2.33307">
        <ele>87.6</ele>
        <time>2026-02-02T12:31:51Z</time>
      </trkpt>
      <trkpt lat="48.47919" lon="2.33313">
        <ele>87.8</ele>
        <time>2026-02-02T12:31:52Z</time>
      </trkpt>
      <trkpt lat="48.47921" lon="2.33319">
        <ele>88.6</ele>
        <time>2026-02-02T12:31:53Z</time>
      </trkpt>
      <trkpt lat="48.47924" lon="2.33324">
        <ele>88.6</ele>
        <time>2026-02-02T12:31:54Z</time>
      </trkpt>
      <trkpt lat="48.47927" lon="2.3333">
        <ele>88.6</ele>
        <time>2026-02-02T12:31:55Z</time>
      </trkpt>
      <trkpt lat="48.47929" lon="2.33336">
        <ele>88.6</ele>
        <time>2026-02-02T12:31:56Z</time>
      </trkpt>
      <trkpt lat="48.47932" lon="2.33341">
        <ele>88.4</ele>
        <time>2026-02-02T12:31:57Z</time>
      </trkpt>
      <trkpt lat="48.47935" lon="2.33347">
        <ele>88.4</ele>
        <time>2026-02-02T12:31:58Z</time>
      </trkpt>
      <trkpt lat="48.47938" lon="2.33353">
        <ele>88.4</ele>
        <time>2026-02-02T12:31:59Z</time>
      </trkpt>
      <trkpt lat="48.4794" lon="2.33359">
        <ele>88.4</ele>
        <time>2026-02-02T12:32:00Z</time>
      </trkpt>
      <trkpt lat="48.47943" lon="2.33365">
        <ele>88.6</ele>
        <time>2026-02-02T12:32:01Z</time>
      </trkpt>
      <trkpt lat="48.47946" lon="2.33371">
        <ele>88.6</ele>
        <time>2026-02-02T12:32:02Z</time>
      </trkpt>
      <trkpt lat="48.47948" lon="2.33377">
        <ele>88.6</ele>
        <time>2026-02-02T12:32:03Z</time>
      </trkpt>
      <trkpt lat="48.47951" lon="2.33384">
        <ele>88.4</ele>
        <time>2026-02-02T12:32:04Z</time>
      </trkpt>
      <trkpt lat="48.47953" lon="2.3339">
        <ele>88.2</ele>
        <time>2026-02-02T12:32:05Z</time>
      </trkpt>
      <trkpt lat="48.47955" lon="2.33397">
        <ele>88.2</ele>
        <time>2026-02-02T12:32:06Z</time>
      </trkpt>
      <trkpt lat="48.47958" lon="2.33403">
        <ele>88.2</ele>
        <time>2026-02-02T12:32:07Z</time>
      </trkpt>
      <trkpt lat="48.47961" lon="2.33409">
        <ele>88.8</ele>
        <time>2026-02-02T12:32:08Z</time>
      </trkpt>
      <trkpt lat="48.47963" lon="2.33416">
        <ele>88.4</ele>
        <time>2026-02-02T12:32:09Z</time>
      </trkpt>
      <trkpt lat="48.47966" lon="2.33423">
        <ele>88.4</ele>
        <time>2026-02-02T12:32:10Z</time>
      </trkpt>
      <trkpt lat="48.47968" lon="2.3343">
        <ele>88.4</ele>
        <time>2026-02-02T12:32:11Z</time>
      </trkpt>
      <trkpt lat="48.4797" lon="2.33437">
        <ele>88.6</ele>
        <time>2026-02-02T12:32:12Z</time>
      </trkpt>
      <trkpt lat="48.47972" lon="2.33445">
        <ele>88.4</ele>
        <time>2026-02-02T12:32:13Z</time>
      </trkpt>
      <trkpt lat="48.47974" lon="2.33452">
        <ele>88.4</ele>
        <time>2026-02-02T12:32:14Z</time>
      </trkpt>
      <trkpt lat="48.47976" lon="2.3346">
        <ele>88.4</ele>
        <time>2026-02-02T12:32:15Z</time>
      </trkpt>
      <trkpt lat="48.47977" lon="2.33468">
        <ele>88</ele>
        <time>2026-02-02T12:32:16Z</time>
      </trkpt>
      <trkpt lat="48.47979" lon="2.33477">
        <ele>87.6</ele>
        <time>2026-02-02T12:32:17Z</time>
      </trkpt>
      <trkpt lat="48.4798" lon="2.33486">
        <ele>87.6</ele>
        <time>2026-02-02T12:32:18Z</time>
      </trkpt>
      <trkpt lat="48.47982" lon="2.33494">
        <ele>87.6</ele>
        <time>2026-02-02T12:32:19Z</time>
      </trkpt>
      <trkpt lat="48.47984" lon="2.33503">
        <ele>87.6</ele>
        <time>2026-02-02T12:32:20Z</time>
      </trkpt>
      <trkpt lat="48.47986" lon="2.33512">
        <ele>86.6</ele>
        <time>2026-02-02T12:32:21Z</time>
      </trkpt>
      <trkpt lat="48.47987" lon="2.33521">
        <ele>86.6</ele>
        <time>2026-02-02T12:32:22Z</time>
      </trkpt>
      <trkpt lat="48.4799" lon="2.3353">
        <ele>86.6</ele>
        <time>2026-02-02T12:32:23Z</time>
      </trkpt>
      <trkpt lat="48.47993" lon="2.33539">
        <ele>85.6</ele>
        <time>2026-02-02T12:32:24Z</time>
      </trkpt>
      <trkpt lat="48.47997" lon="2.33547">
        <ele>84.8</ele>
        <time>2026-02-02T12:32:25Z</time>
      </trkpt>
      <trkpt lat="48.48002" lon="2.33555">
        <ele>84.8</ele>
        <time>2026-02-02T12:32:26Z</time>
      </trkpt>
      <trkpt lat="48.48007" lon="2.33562">
        <ele>84.8</ele>
        <time>2026-02-02T12:32:27Z</time>
      </trkpt>
      <trkpt lat="48.48013" lon="2.3357">
        <ele>83.8</ele>
        <time>2026-02-02T12:32:28Z</time>
      </trkpt>
      <trkpt lat="48.48019" lon="2.33578">
        <ele>83.6</ele>
        <time>2026-02-02T12:32:29Z</time>
      </trkpt>
      <trkpt lat="48.48025" lon="2.33586">
        <ele>83.6</ele>
        <time>2026-02-02T12:32:30Z</time>
      </trkpt>
      <trkpt lat="48.48031" lon="2.33594">
        <ele>83.6</ele>
        <time>2026-02-02T12:32:31Z</time>
      </trkpt>
      <trkpt lat="48.48037" lon="2.33602">
        <ele>82.6</ele>
        <time>2026-02-02T12:32:32Z</time>
      </trkpt>
      <trkpt lat="48.48043" lon="2.33611">
        <ele>81.2</ele>
        <time>2026-02-02T12:32:33Z</time>
      </trkpt>
      <trkpt lat="48.48049" lon="2.3362">
        <ele>81.2</ele>
        <time>2026-02-02T12:32:34Z</time>
      </trkpt>
      <trkpt lat="48.48055" lon="2.33629">
        <ele>81.2</ele>
        <time>2026-02-02T12:32:35Z</time>
      </trkpt>
      <trkpt lat="48.48061" lon="2.33638">
        <ele>80.2</ele>
        <time>2026-02-02T12:32:36Z</time>
      </trkpt>
      <trkpt lat="48.48067" lon="2.33648">
        <ele>79.2</ele>
        <time>2026-02-02T12:32:37Z</time>
      </trkpt>
      <trkpt lat="48.48073" lon="2.33659">
        <ele>79.2</ele>
        <time>2026-02-02T12:32:38Z</time>
      </trkpt>
      <trkpt lat="48.48078" lon="2.3367">
        <ele>79.2</ele>
        <time>2026-02-02T12:32:39Z</time>
      </trkpt>
      <trkpt lat="48.48083" lon="2.33682">
        <ele>78.2</ele>
        <time>2026-02-02T12:32:40Z</time>
      </trkpt>
      <trkpt lat="48.48087" lon="2.33695">
        <ele>76.6</ele>
        <time>2026-02-02T12:32:41Z</time>
      </trkpt>
      <trkpt lat="48.48091" lon="2.33707">
        <ele>76.6</ele>
        <time>2026-02-02T12:32:42Z</time>
      </trkpt>
      <trkpt lat="48.48095" lon="2.3372">
        <ele>76.6</ele>
        <time>2026-02-02T12:32:43Z</time>
      </trkpt>
      <trkpt lat="48.48099" lon="2.33731">
        <ele>76.6</ele>
        <time>2026-02-02T12:32:44Z</time>
      </trkpt>
      <trkpt lat="48.48103" lon="2.33743">
        <ele>75</ele>
        <time>2026-02-02T12:32:45Z</time>
      </trkpt>
      <trkpt lat="48.48109" lon="2.33751">
        <ele>75</ele>
        <time>2026-02-02T12:32:46Z</time>
      </trkpt>
      <trkpt lat="48.48116" lon="2.33757">
        <ele>75</ele>
        <time>2026-02-02T12:32:47Z</time>
      </trkpt>
      <trkpt lat="48.48125" lon="2.3376">
        <ele>74.8</ele>
        <time>2026-02-02T12:32:48Z</time>
      </trkpt>
      <trkpt lat="48.48132" lon="2.33762">
        <ele>75</ele>
        <time>2026-02-02T12:32:49Z</time>
      </trkpt>
      <trkpt lat="48.4814" lon="2.33764">
        <ele>75</ele>
        <time>2026-02-02T12:32:50Z</time>
      </trkpt>
      <trkpt lat="48.48149" lon="2.33765">
        <ele>75</ele>
        <time>2026-02-02T12:32:51Z</time>
      </trkpt>
      <trkpt lat="48.48157" lon="2.33766">
        <ele>75</ele>
        <time>2026-02-02T12:32:52Z</time>
      </trkpt>
      <trkpt lat="48.48165" lon="2.33767">
        <ele>75.2</ele>
        <time>2026-02-02T12:32:53Z</time>
      </trkpt>
      <trkpt lat="48.48172" lon="2.33769">
        <ele>75.2</ele>
        <time>2026-02-02T12:32:54Z</time>
      </trkpt>
      <trkpt lat="48.48178" lon="2.33772">
        <ele>75.2</ele>
        <time>2026-02-02T12:32:55Z</time>
      </trkpt>
      <trkpt lat="48.48185" lon="2.33773">
        <ele>74.8</ele>
        <time>2026-02-02T12:32:56Z</time>
      </trkpt>
      <trkpt lat="48.48191" lon="2.33774">
        <ele>75.2</ele>
        <time>2026-02-02T12:32:57Z</time>
      </trkpt>
      <trkpt lat="48.48197" lon="2.33776">
        <ele>75.2</ele>
        <time>2026-02-02T12:32:58Z</time>
      </trkpt>
      <trkpt lat="48.48204" lon="2.3378">
        <ele>75.2</ele>
        <time>2026-02-02T12:32:59Z</time>
      </trkpt>
      <trkpt lat="48.4821" lon="2.33786">
        <ele>75.2</ele>
        <time>2026-02-02T12:33:00Z</time>
      </trkpt>
      <trkpt lat="48.48215" lon="2.33794">
        <ele>75</ele>
        <time>2026-02-02T12:33:01Z</time>
      </trkpt>
      <trkpt lat="48.48219" lon="2.33802">
        <ele>75</ele>
        <time>2026-02-02T12:33:02Z</time>
      </trkpt>
      <trkpt lat="48.48223" lon="2.33811">
        <ele>75</ele>
        <time>2026-02-02T12:33:03Z</time>
      </trkpt>
      <trkpt lat="48.48227" lon="2.33819">
        <ele>75</ele>
        <time>2026-02-02T12:33:04Z</time>
      </trkpt>
      <trkpt lat="48.48231" lon="2.33829">
        <ele>75</ele>
        <time>2026-02-02T12:33:05Z</time>
      </trkpt>
      <trkpt lat="48.48234" lon="2.33838">
        <ele>75</ele>
        <time>2026-02-02T12:33:06Z</time>
      </trkpt>
      <trkpt lat="48.48238" lon="2.33847">
        <ele>75</ele>
        <time>2026-02-02T12:33:07Z</time>
      </trkpt>
      <trkpt lat="48.48242" lon="2.33856">
        <ele>75</ele>
        <time>2026-02-02T12:33:08Z</time>
      </trkpt>
      <trkpt lat="48.48246" lon="2.33865">
        <ele>74.8</ele>
        <time>2026-02-02T12:33:09Z</time>
      </trkpt>
      <trkpt lat="48.48249" lon="2.33874">
        <ele>74.8</ele>
        <time>2026-02-02T12:33:10Z</time>
      </trkpt>
      <trkpt lat="48.48253" lon="2.33884">
        <ele>74.8</ele>
        <time>2026-02-02T12:33:11Z</time>
      </trkpt>
      <trkpt lat="48.48257" lon="2.33893">
        <ele>74.4</ele>
        <time>2026-02-02T12:33:12Z</time>
      </trkpt>
      <trkpt lat="48.4826" lon="2.33902">
        <ele>74.6</ele>
        <time>2026-02-02T12:33:13Z</time>
      </trkpt>
      <trkpt lat="48.48263" lon="2.33911">
        <ele>74.6</ele>
        <time>2026-02-02T12:33:14Z</time>
      </trkpt>
      <trkpt lat="48.48267" lon="2.3392">
        <ele>74.6</ele>
        <time>2026-02-02T12:33:15Z</time>
      </trkpt>
      <trkpt lat="48.48271" lon="2.33929">
        <ele>74.6</ele>
        <time>2026-02-02T12:33:16Z</time>
      </trkpt>
      <trkpt lat="48.48274" lon="2.33938">
        <ele>74.4</ele>
        <time>2026-02-02T12:33:17Z</time>
      </trkpt>
      <trkpt lat="48.48278" lon="2.33947">
        <ele>74.4</ele>
        <time>2026-02-02T12:33:18Z</time>
      </trkpt>
      <trkpt lat="48.48281" lon="2.33956">
        <ele>74.4</ele>
        <time>2026-02-02T12:33:19Z</time>
      </trkpt>
      <trkpt lat="48.48285" lon="2.33964">
        <ele>74.4</ele>
        <time>2026-02-02T12:33:20Z</time>
      </trkpt>
      <trkpt lat="48.48288" lon="2.33973">
        <ele>74.2</ele>
        <time>2026-02-02T12:33:21Z</time>
      </trkpt>
      <trkpt lat="48.48291" lon="2.33982">
        <ele>74.2</ele>
        <time>2026-02-02T12:33:22Z</time>
      </trkpt>
      <trkpt lat="48.48295" lon="2.3399">
        <ele>74.2</ele>
        <time>2026-02-02T12:33:23Z</time>
      </trkpt>
      <trkpt lat="48.48297" lon="2.33999">
        <ele>74.4</ele>
        <time>2026-02-02T12:33:24Z</time>
      </trkpt>
      <trkpt lat="48.48301" lon="2.34008">
        <ele>74.6</ele>
        <time>2026-02-02T12:33:25Z</time>
      </trkpt>
      <trkpt lat="48.48304" lon="2.34016">
        <ele>74.6</ele>
        <time>2026-02-02T12:33:26Z</time>
      </trkpt>
      <trkpt lat="48.48307" lon="2.34025">
        <ele>74.6</ele>
        <time>2026-02-02T12:33:27Z</time>
      </trkpt>
      <trkpt lat="48.4831" lon="2.34033">
        <ele>74.6</ele>
        <time>2026-02-02T12:33:28Z</time>
      </trkpt>
      <trkpt lat="48.48313" lon="2.34041">
        <ele>74.2</ele>
        <time>2026-02-02T12:33:29Z</time>
      </trkpt>
      <trkpt lat="48.48317" lon="2.34049">
        <ele>74.2</ele>
        <time>2026-02-02T12:33:30Z</time>
      </trkpt>
      <trkpt lat="48.4832" lon="2.34058">
        <ele>74.2</ele>
        <time>2026-02-02T12:33:31Z</time>
      </trkpt>
      <trkpt lat="48.48322" lon="2.34066">
        <ele>73.8</ele>
        <time>2026-02-02T12:33:32Z</time>
      </trkpt>
      <trkpt lat="48.48325" lon="2.34074">
        <ele>74.2</ele>
        <time>2026-02-02T12:33:33Z</time>
      </trkpt>
      <trkpt lat="48.48328" lon="2.34082">
        <ele>74.2</ele>
        <time>2026-02-02T12:33:34Z</time>
      </trkpt>
      <trkpt lat="48.48331" lon="2.34091">
        <ele>74.2</ele>
        <time>2026-02-02T12:33:35Z</time>
      </trkpt>
      <trkpt lat="48.48335" lon="2.34099">
        <ele>74.4</ele>
        <time>2026-02-02T12:33:36Z</time>
      </trkpt>
      <trkpt lat="48.48338" lon="2.34106">
        <ele>74.6</ele>
        <time>2026-02-02T12:33:37Z</time>
      </trkpt>
      <trkpt lat="48.48342" lon="2.34114">
        <ele>74.6</ele>
        <time>2026-02-02T12:33:38Z</time>
      </trkpt>
      <trkpt lat="48.48346" lon="2.3412">
        <ele>74.6</ele>
        <time>2026-02-02T12:33:39Z</time>
      </trkpt>
      <trkpt lat="48.48351" lon="2.34127">
        <ele>74.6</ele>
        <time>2026-02-02T12:33:40Z</time>
      </trkpt>
      <trkpt lat="48.48356" lon="2.34132">
        <ele>74.4</ele>
        <time>2026-02-02T12:33:41Z</time>
      </trkpt>
      <trkpt lat="48.48362" lon="2.34137">
        <ele>74.4</ele>
        <time>2026-02-02T12:33:42Z</time>
      </trkpt>
      <trkpt lat="48.48367" lon="2.34142">
        <ele>74.4</ele>
        <time>2026-02-02T12:33:43Z</time>
      </trkpt>
      <trkpt lat="48.48373" lon="2.34147">
        <ele>74.4</ele>
        <time>2026-02-02T12:33:44Z</time>
      </trkpt>
      <trkpt lat="48.48378" lon="2.34151">
        <ele>74</ele>
        <time>2026-02-02T12:33:45Z</time>
      </trkpt>
      <trkpt lat="48.48384" lon="2.34153">
        <ele>74</ele>
        <time>2026-02-02T12:33:46Z</time>
      </trkpt>
      <trkpt lat="48.4839" lon="2.34156">
        <ele>74</ele>
        <time>2026-02-02T12:33:47Z</time>
      </trkpt>
      <trkpt lat="48.48396" lon="2.34158">
        <ele>74.2</ele>
        <time>2026-02-02T12:33:48Z</time>
      </trkpt>
      <trkpt lat="48.48402" lon="2.3416">
        <ele>74</ele>
        <time>2026-02-02T12:33:49Z</time>
      </trkpt>
      <trkpt lat="48.48408" lon="2.34162">
        <ele>74</ele>
        <time>2026-02-02T12:33:50Z</time>
      </trkpt>
      <trkpt lat="48.48414" lon="2.34164">
        <ele>74</ele>
        <time>2026-02-02T12:33:51Z</time>
      </trkpt>
      <trkpt lat="48.48419" lon="2.34166">
        <ele>74</ele>
        <time>2026-02-02T12:33:52Z</time>
      </trkpt>
      <trkpt lat="48.48425" lon="2.34169">
        <ele>73.8</ele>
        <time>2026-02-02T12:33:53Z</time>
      </trkpt>
      <trkpt lat="48.4843" lon="2.3417">
        <ele>73.8</ele>
        <time>2026-02-02T12:33:54Z</time>
      </trkpt>
      <trkpt lat="48.48436" lon="2.34172">
        <ele>73.8</ele>
        <time>2026-02-02T12:33:55Z</time>
      </trkpt>
      <trkpt lat="48.48441" lon="2.34174">
        <ele>73.8</ele>
        <time>2026-02-02T12:33:56Z</time>
      </trkpt>
      <trkpt lat="48.48447" lon="2.34177">
        <ele>74.4</ele>
        <time>2026-02-02T12:33:57Z</time>
      </trkpt>
      <trkpt lat="48.48452" lon="2.34179">
        <ele>74.4</ele>
        <time>2026-02-02T12:33:58Z</time>
      </trkpt>
      <trkpt lat="48.48458" lon="2.34181">
        <ele>74.4</ele>
        <time>2026-02-02T12:33:59Z</time>
      </trkpt>
      <trkpt lat="48.48464" lon="2.34183">
        <ele>74.2</ele>
        <time>2026-02-02T12:34:00Z</time>
      </trkpt>
      <trkpt lat="48.4847" lon="2.34185">
        <ele>74.2</ele>
        <time>2026-02-02T12:34:01Z</time>
      </trkpt>
      <trkpt lat="48.48476" lon="2.34187">
        <ele>74.2</ele>
        <time>2026-02-02T12:34:02Z</time>
      </trkpt>
      <trkpt lat="48.48481" lon="2.34189">
        <ele>74.2</ele>
        <time>2026-02-02T12:34:03Z</time>
      </trkpt>
      <trkpt lat="48.48486" lon="2.34191">
        <ele>74.4</ele>
        <time>2026-02-02T12:34:04Z</time>
      </trkpt>
      <trkpt lat="48.48492" lon="2.34193">
        <ele>74.4</ele>
        <time>2026-02-02T12:34:05Z</time>
      </trkpt>
      <trkpt lat="48.48498" lon="2.34196">
        <ele>74.4</ele>
        <time>2026-02-02T12:34:06Z</time>
      </trkpt>
      <trkpt lat="48.48503" lon="2.34198">
        <ele>74.4</ele>
        <time>2026-02-02T12:34:07Z</time>
      </trkpt>
      <trkpt lat="48.48509" lon="2.342">
        <ele>74.4</ele>
        <time>2026-02-02T12:34:08Z</time>
      </trkpt>
      <trkpt lat="48.48515" lon="2.34202">
        <ele>74.2</ele>
        <time>2026-02-02T12:34:09Z</time>
      </trkpt>
      <trkpt lat="48.4852" lon="2.34204">
        <ele>74.2</ele>
        <time>2026-02-02T12:34:10Z</time>
      </trkpt>
      <trkpt lat="48.48525" lon="2.34206">
        <ele>74.2</ele>
        <time>2026-02-02T12:34:11Z</time>
      </trkpt>
      <trkpt lat="48.48531" lon="2.34209">
        <ele>74.2</ele>
        <time>2026-02-02T12:34:12Z</time>
      </trkpt>
      <trkpt lat="48.48536" lon="2.34211">
        <ele>74.2</ele>
        <time>2026-02-02T12:34:13Z</time>
      </trkpt>
      <trkpt lat="48.48541" lon="2.34214">
        <ele>74.2</ele>
        <time>2026-02-02T12:34:14Z</time>
      </trkpt>
      <trkpt lat="48.48546" lon="2.34217">
        <ele>74.2</ele>
        <time>2026-02-02T12:34:15Z</time>
      </trkpt>
      <trkpt lat="48.4855" lon="2.34222">
        <ele>74.6</ele>
        <time>2026-02-02T12:34:16Z</time>
      </trkpt>
      <trkpt lat="48.48555" lon="2.34226">
        <ele>74.6</ele>
        <time>2026-02-02T12:34:17Z</time>
      </trkpt>
      <trkpt lat="48.4856" lon="2.34232">
        <ele>74.6</ele>
        <time>2026-02-02T12:34:18Z</time>
      </trkpt>
      <trkpt lat="48.48564" lon="2.34237">
        <ele>74.6</ele>
        <time>2026-02-02T12:34:19Z</time>
      </trkpt>
      <trkpt lat="48.48568" lon="2.34242">
        <ele>74.6</ele>
        <time>2026-02-02T12:34:20Z</time>
      </trkpt>
      <trkpt lat="48.48572" lon="2.34247">
        <ele>74</ele>
        <time>2026-02-02T12:34:21Z</time>
      </trkpt>
      <trkpt lat="48.48576" lon="2.34252">
        <ele>74</ele>
        <time>2026-02-02T12:34:22Z</time>
      </trkpt>
      <trkpt lat="48.48581" lon="2.34258">
        <ele>74</ele>
        <time>2026-02-02T12:34:23Z</time>
      </trkpt>
      <trkpt lat="48.48585" lon="2.34263">
        <ele>73.8</ele>
        <time>2026-02-02T12:34:24Z</time>
      </trkpt>
      <trkpt lat="48.4859" lon="2.34268">
        <ele>73.6</ele>
        <time>2026-02-02T12:34:25Z</time>
      </trkpt>
      <trkpt lat="48.48594" lon="2.34273">
        <ele>73.6</ele>
        <time>2026-02-02T12:34:26Z</time>
      </trkpt>
      <trkpt lat="48.48599" lon="2.34278">
        <ele>73.6</ele>
        <time>2026-02-02T12:34:27Z</time>
      </trkpt>
      <trkpt lat="48.48603" lon="2.34283">
        <ele>74.6</ele>
        <time>2026-02-02T12:34:28Z</time>
      </trkpt>
      <trkpt lat="48.48608" lon="2.34288">
        <ele>74.4</ele>
        <time>2026-02-02T12:34:29Z</time>
      </trkpt>
      <trkpt lat="48.48612" lon="2.34293">
        <ele>74.4</ele>
        <time>2026-02-02T12:34:30Z</time>
      </trkpt>
      <trkpt lat="48.48617" lon="2.34298">
        <ele>74.4</ele>
        <time>2026-02-02T12:34:31Z</time>
      </trkpt>
      <trkpt lat="48.48621" lon="2.34303">
        <ele>74.4</ele>
        <time>2026-02-02T12:34:32Z</time>
      </trkpt>
      <trkpt lat="48.48625" lon="2.34309">
        <ele>74.6</ele>
        <time>2026-02-02T12:34:33Z</time>
      </trkpt>
      <trkpt lat="48.48629" lon="2.34314">
        <ele>74.6</ele>
        <time>2026-02-02T12:34:34Z</time>
      </trkpt>
      <trkpt lat="48.48633" lon="2.3432">
        <ele>74.6</ele>
        <time>2026-02-02T12:34:35Z</time>
      </trkpt>
      <trkpt lat="48.48636" lon="2.34326">
        <ele>74.6</ele>
        <time>2026-02-02T12:34:36Z</time>
      </trkpt>
      <trkpt lat="48.4864" lon="2.34333">
        <ele>74.4</ele>
        <time>2026-02-02T12:34:37Z</time>
      </trkpt>
      <trkpt lat="48.48643" lon="2.34339">
        <ele>74.4</ele>
        <time>2026-02-02T12:34:38Z</time>
      </trkpt>
      <trkpt lat="48.48646" lon="2.34346">
        <ele>74.4</ele>
        <time>2026-02-02T12:34:39Z</time>
      </trkpt>
      <trkpt lat="48.48649" lon="2.34352">
        <ele>74.4</ele>
        <time>2026-02-02T12:34:40Z</time>
      </trkpt>
      <trkpt lat="48.48652" lon="2.34359">
        <ele>74.2</ele>
        <time>2026-02-02T12:34:41Z</time>
      </trkpt>
      <trkpt lat="48.48656" lon="2.34365">
        <ele>74.2</ele>
        <time>2026-02-02T12:34:42Z</time>
      </trkpt>
      <trkpt lat="48.48659" lon="2.34371">
        <ele>74.2</ele>
        <time>2026-02-02T12:34:43Z</time>
      </trkpt>
      <trkpt lat="48.48661" lon="2.34378">
        <ele>74.2</ele>
        <time>2026-02-02T12:34:44Z</time>
      </trkpt>
      <trkpt lat="48.48663" lon="2.34385">
        <ele>74.2</ele>
        <time>2026-02-02T12:34:45Z</time>
      </trkpt>
      <trkpt lat="48.48665" lon="2.34391">
        <ele>74.2</ele>
        <time>2026-02-02T12:34:46Z</time>
      </trkpt>
      <trkpt lat="48.48667" lon="2.34396">
        <ele>74.2</ele>
        <time>2026-02-02T12:34:47Z</time>
      </trkpt>
      <trkpt lat="48.48669" lon="2.34398">
        <ele>74.8</ele>
        <time>2026-02-02T12:34:48Z</time>
      </trkpt>
      <trkpt lat="48.4867" lon="2.34399">
        <ele>74.8</ele>
        <time>2026-02-02T12:34:49Z</time>
      </trkpt>
      <trkpt lat="48.4867" lon="2.34399">
        <ele>74.8</ele>
        <time>2026-02-02T12:34:50Z</time>
      </trkpt>
      <trkpt lat="48.4867" lon="2.34399">
        <ele>74.8</ele>
        <time>2026-02-02T12:34:51Z</time>
      </trkpt>
      <trkpt lat="48.4867" lon="2.34399">
        <ele>74.8</ele>
        <time>2026-02-02T12:34:52Z</time>
      </trkpt>
      <trkpt lat="48.48676" lon="2.34402">
        <ele>74.8</ele>
        <time>2026-02-02T12:34:59Z</time>
      </trkpt>
      <trkpt lat="48.48678" lon="2.34401">
        <ele>74.8</ele>
        <time>2026-02-02T12:35:00Z</time>
      </trkpt>
      <trkpt lat="48.4868" lon="2.344">
        <ele>74.8</ele>
        <time>2026-02-02T12:35:01Z</time>
      </trkpt>
      <trkpt lat="48.48683" lon="2.34399">
        <ele>74.8</ele>
        <time>2026-02-02T12:35:02Z</time>
      </trkpt>
      <trkpt lat="48.48685" lon="2.34397">
        <ele>74.8</ele>
        <time>2026-02-02T12:35:03Z</time>
      </trkpt>
      <trkpt lat="48.48687" lon="2.34396">
        <ele>74.8</ele>
        <time>2026-02-02T12:35:04Z</time>
      </trkpt>
      <trkpt lat="48.4869" lon="2.34394">
        <ele>75.4</ele>
        <time>2026-02-02T12:35:05Z</time>
      </trkpt>
      <trkpt lat="48.48692" lon="2.34393">
        <ele>75.4</ele>
        <time>2026-02-02T12:35:06Z</time>
      </trkpt>
      <trkpt lat="48.48695" lon="2.34391">
        <ele>75.4</ele>
        <time>2026-02-02T12:35:07Z</time>
      </trkpt>
      <trkpt lat="48.48697" lon="2.3439">
        <ele>75.4</ele>
        <time>2026-02-02T12:35:08Z</time>
      </trkpt>
      <trkpt lat="48.487" lon="2.34388">
        <ele>75.6</ele>
        <time>2026-02-02T12:35:09Z</time>
      </trkpt>
      <trkpt lat="48.48703" lon="2.34386">
        <ele>75.6</ele>
        <time>2026-02-02T12:35:10Z</time>
      </trkpt>
      <trkpt lat="48.48705" lon="2.34384">
        <ele>75.6</ele>
        <time>2026-02-02T12:35:11Z</time>
      </trkpt>
      <trkpt lat="48.48708" lon="2.34382">
        <ele>76.6</ele>
        <time>2026-02-02T12:35:12Z</time>
      </trkpt>
      <trkpt lat="48.48711" lon="2.34379">
        <ele>76.4</ele>
        <time>2026-02-02T12:35:13Z</time>
      </trkpt>
      <trkpt lat="48.48714" lon="2.34376">
        <ele>76.4</ele>
        <time>2026-02-02T12:35:14Z</time>
      </trkpt>
      <trkpt lat="48.48716" lon="2.34374">
        <ele>76.4</ele>
        <time>2026-02-02T12:35:15Z</time>
      </trkpt>
      <trkpt lat="48.48719" lon="2.34371">
        <ele>76.4</ele>
        <time>2026-02-02T12:35:16Z</time>
      </trkpt>
      <trkpt lat="48.48722" lon="2.34368">
        <ele>77.4</ele>
        <time>2026-02-02T12:35:17Z</time>
      </trkpt>
      <trkpt lat="48.48724" lon="2.34365">
        <ele>77.4</ele>
        <time>2026-02-02T12:35:18Z</time>
      </trkpt>
      <trkpt lat="48.48727" lon="2.34362">
        <ele>77.4</ele>
        <time>2026-02-02T12:35:19Z</time>
      </trkpt>
      <trkpt lat="48.4873" lon="2.34359">
        <ele>77.8</ele>
        <time>2026-02-02T12:35:20Z</time>
      </trkpt>
      <trkpt lat="48.48733" lon="2.34357">
        <ele>78.6</ele>
        <time>2026-02-02T12:35:21Z</time>
      </trkpt>
      <trkpt lat="48.48735" lon="2.34354">
        <ele>78.6</ele>
        <time>2026-02-02T12:35:22Z</time>
      </trkpt>
      <trkpt lat="48.48739" lon="2.34351">
        <ele>78.6</ele>
        <time>2026-02-02T12:35:23Z</time>
      </trkpt>
      <trkpt lat="48.48741" lon="2.34348">
        <ele>78.6</ele>
        <time>2026-02-02T12:35:24Z</time>
      </trkpt>
      <trkpt lat="48.48744" lon="2.34345">
        <ele>79.2</ele>
        <time>2026-02-02T12:35:25Z</time>
      </trkpt>
      <trkpt lat="48.48746" lon="2.34342">
        <ele>79.2</ele>
        <time>2026-02-02T12:35:26Z</time>
      </trkpt>
      <trkpt lat="48.48749" lon="2.34339">
        <ele>79.2</ele>
        <time>2026-02-02T12:35:27Z</time>
      </trkpt>
      <trkpt lat="48.48751" lon="2.34336">
        <ele>79.8</ele>
        <time>2026-02-02T12:35:28Z</time>
      </trkpt>
      <trkpt lat="48.48753" lon="2.34333">
        <ele>80</ele>
        <time>2026-02-02T12:35:29Z</time>
      </trkpt>
      <trkpt lat="48.48756" lon="2.34331">
        <ele>80</ele>
        <time>2026-02-02T12:35:30Z</time>
      </trkpt>
      <trkpt lat="48.48759" lon="2.34329">
        <ele>80</ele>
        <time>2026-02-02T12:35:31Z</time>
      </trkpt>
      <trkpt lat="48.48761" lon="2.3433">
        <ele>80.6</ele>
        <time>2026-02-02T12:35:32Z</time>
      </trkpt>
      <trkpt lat="48.48763" lon="2.34331">
        <ele>80.4</ele>
        <time>2026-02-02T12:35:33Z</time>
      </trkpt>
      <trkpt lat="48.48765" lon="2.34333">
        <ele>80.4</ele>
        <time>2026-02-02T12:35:34Z</time>
      </trkpt>
      <trkpt lat="48.48766" lon="2.34336">
        <ele>80.4</ele>
        <time>2026-02-02T12:35:35Z</time>
      </trkpt>
      <trkpt lat="48.48768" lon="2.3434">
        <ele>81.2</ele>
        <time>2026-02-02T12:35:36Z</time>
      </trkpt>
      <trkpt lat="48.4877" lon="2.34344">
        <ele>81.4</ele>
        <time>2026-02-02T12:35:37Z</time>
      </trkpt>
      <trkpt lat="48.48771" lon="2.34349">
        <ele>81.4</ele>
        <time>2026-02-02T12:35:38Z</time>
      </trkpt>
      <trkpt lat="48.48773" lon="2.34354">
        <ele>81.4</ele>
        <time>2026-02-02T12:35:39Z</time>
      </trkpt>
      <trkpt lat="48.48775" lon="2.34359">
        <ele>81.4</ele>
        <time>2026-02-02T12:35:40Z</time>
      </trkpt>
      <trkpt lat="48.48777" lon="2.34364">
        <ele>81</ele>
        <time>2026-02-02T12:35:41Z</time>
      </trkpt>
      <trkpt lat="48.48778" lon="2.3437">
        <ele>81</ele>
        <time>2026-02-02T12:35:42Z</time>
      </trkpt>
      <trkpt lat="48.4878" lon="2.34375">
        <ele>81</ele>
        <time>2026-02-02T12:35:43Z</time>
      </trkpt>
      <trkpt lat="48.48782" lon="2.3438">
        <ele>81</ele>
        <time>2026-02-02T12:35:44Z</time>
      </trkpt>
      <trkpt lat="48.48784" lon="2.34385">
        <ele>81.4</ele>
        <time>2026-02-02T12:35:45Z</time>
      </trkpt>
      <trkpt lat="48.48786" lon="2.34391">
        <ele>81.4</ele>
        <time>2026-02-02T12:35:46Z</time>
      </trkpt>
      <trkpt lat="48.48788" lon="2.34396">
        <ele>81.4</ele>
        <time>2026-02-02T12:35:47Z</time>
      </trkpt>
      <trkpt lat="48.4879" lon="2.34402">
        <ele>82</ele>
        <time>2026-02-02T12:35:48Z</time>
      </trkpt>
      <trkpt lat="48.48792" lon="2.34408">
        <ele>82.2</ele>
        <time>2026-02-02T12:35:49Z</time>
      </trkpt>
      <trkpt lat="48.48794" lon="2.34414">
        <ele>82.2</ele>
        <time>2026-02-02T12:35:50Z</time>
      </trkpt>
      <trkpt lat="48.48796" lon="2.3442">
        <ele>82.2</ele>
        <time>2026-02-02T12:35:51Z</time>
      </trkpt>
      <trkpt lat="48.48798" lon="2.34426">
        <ele>82.2</ele>
        <time>2026-02-02T12:35:52Z</time>
      </trkpt>
      <trkpt lat="48.488" lon="2.34433">
        <ele>81.6</ele>
        <time>2026-02-02T12:35:53Z</time>
      </trkpt>
      <trkpt lat="48.48802" lon="2.34439">
        <ele>81.6</ele>
        <time>2026-02-02T12:35:54Z</time>
      </trkpt>
      <trkpt lat="48.48805" lon="2.34446">
        <ele>81.6</ele>
        <time>2026-02-02T12:35:55Z</time>
      </trkpt>
      <trkpt lat="48.48807" lon="2.34453">
        <ele>82.2</ele>
        <time>2026-02-02T12:35:56Z</time>
      </trkpt>
      <trkpt lat="48.48809" lon="2.34459">
        <ele>82.2</ele>
        <time>2026-02-02T12:35:57Z</time>
      </trkpt>
      <trkpt lat="48.48812" lon="2.34466">
        <ele>82.2</ele>
        <time>2026-02-02T12:35:58Z</time>
      </trkpt>
      <trkpt lat="48.48814" lon="2.34473">
        <ele>82.2</ele>
        <time>2026-02-02T12:35:59Z</time>
      </trkpt>
      <trkpt lat="48.48816" lon="2.34481">
        <ele>82.2</ele>
        <time>2026-02-02T12:36:00Z</time>
      </trkpt>
      <trkpt lat="48.48819" lon="2.34488">
        <ele>81.8</ele>
        <time>2026-02-02T12:36:01Z</time>
      </trkpt>
      <trkpt lat="48.48822" lon="2.34496">
        <ele>81.8</ele>
        <time>2026-02-02T12:36:02Z</time>
      </trkpt>
      <trkpt lat="48.48824" lon="2.34503">
        <ele>81.8</ele>
        <time>2026-02-02T12:36:03Z</time>
      </trkpt>
      <trkpt lat="48.48827" lon="2.34511">
        <ele>81.8</ele>
        <time>2026-02-02T12:36:04Z</time>
      </trkpt>
      <trkpt lat="48.48829" lon="2.34519">
        <ele>81.8</ele>
        <time>2026-02-02T12:36:05Z</time>
      </trkpt>
      <trkpt lat="48.48832" lon="2.34527">
        <ele>81.8</ele>
        <time>2026-02-02T12:36:06Z</time>
      </trkpt>
      <trkpt lat="48.48834" lon="2.34535">
        <ele>81.8</ele>
        <time>2026-02-02T12:36:07Z</time>
      </trkpt>
      <trkpt lat="48.48836" lon="2.34543">
        <ele>81.8</ele>
        <time>2026-02-02T12:36:08Z</time>
      </trkpt>
      <trkpt lat="48.48839" lon="2.34551">
        <ele>81.8</ele>
        <time>2026-02-02T12:36:09Z</time>
      </trkpt>
      <trkpt lat="48.48842" lon="2.34559">
        <ele>81.8</ele>
        <time>2026-02-02T12:36:10Z</time>
      </trkpt>
      <trkpt lat="48.48845" lon="2.34567">
        <ele>81.8</ele>
        <time>2026-02-02T12:36:11Z</time>
      </trkpt>
      <trkpt lat="48.48847" lon="2.34575">
        <ele>81.2</ele>
        <time>2026-02-02T12:36:12Z</time>
      </trkpt>
      <trkpt lat="48.4885" lon="2.34583">
        <ele>81.4</ele>
        <time>2026-02-02T12:36:13Z</time>
      </trkpt>
      <trkpt lat="48.48853" lon="2.34591">
        <ele>81.4</ele>
        <time>2026-02-02T12:36:14Z</time>
      </trkpt>
      <trkpt lat="48.48856" lon="2.34599">
        <ele>81.4</ele>
        <time>2026-02-02T12:36:15Z</time>
      </trkpt>
      <trkpt lat="48.48859" lon="2.34607">
        <ele>81.4</ele>
        <time>2026-02-02T12:36:16Z</time>
      </trkpt>
      <trkpt lat="48.48861" lon="2.34616">
        <ele>82</ele>
        <time>2026-02-02T12:36:17Z</time>
      </trkpt>
      <trkpt lat="48.48864" lon="2.34624">
        <ele>82</ele>
        <time>2026-02-02T12:36:18Z</time>
      </trkpt>
      <trkpt lat="48.48867" lon="2.34632">
        <ele>82</ele>
        <time>2026-02-02T12:36:19Z</time>
      </trkpt>
      <trkpt lat="48.4887" lon="2.34641">
        <ele>81</ele>
        <time>2026-02-02T12:36:20Z</time>
      </trkpt>
      <trkpt lat="48.48873" lon="2.3465">
        <ele>81.6</ele>
        <time>2026-02-02T12:36:21Z</time>
      </trkpt>
      <trkpt lat="48.48876" lon="2.34658">
        <ele>81.6</ele>
        <time>2026-02-02T12:36:22Z</time>
      </trkpt>
      <trkpt lat="48.48879" lon="2.34667">
        <ele>81.6</ele>
        <time>2026-02-02T12:36:23Z</time>
      </trkpt>
      <trkpt lat="48.48882" lon="2.34675">
        <ele>81</ele>
        <time>2026-02-02T12:36:24Z</time>
      </trkpt>
      <trkpt lat="48.48885" lon="2.34684">
        <ele>80.4</ele>
        <time>2026-02-02T12:36:25Z</time>
      </trkpt>
      <trkpt lat="48.48888" lon="2.34693">
        <ele>80.4</ele>
        <time>2026-02-02T12:36:26Z</time>
      </trkpt>
      <trkpt lat="48.48892" lon="2.34702">
        <ele>80.4</ele>
        <time>2026-02-02T12:36:27Z</time>
      </trkpt>
      <trkpt lat="48.48894" lon="2.3471">
        <ele>80.4</ele>
        <time>2026-02-02T12:36:28Z</time>
      </trkpt>
      <trkpt lat="48.48898" lon="2.34719">
        <ele>80.4</ele>
        <time>2026-02-02T12:36:29Z</time>
      </trkpt>
      <trkpt lat="48.48901" lon="2.34728">
        <ele>80.4</ele>
        <time>2026-02-02T12:36:30Z</time>
      </trkpt>
      <trkpt lat="48.48904" lon="2.34737">
        <ele>80.4</ele>
        <time>2026-02-02T12:36:31Z</time>
      </trkpt>
      <trkpt lat="48.48907" lon="2.34746">
        <ele>80.4</ele>
        <time>2026-02-02T12:36:32Z</time>
      </trkpt>
      <trkpt lat="48.4891" lon="2.34755">
        <ele>79.6</ele>
        <time>2026-02-02T12:36:33Z</time>
      </trkpt>
      <trkpt lat="48.48914" lon="2.34764">
        <ele>79.6</ele>
        <time>2026-02-02T12:36:34Z</time>
      </trkpt>
      <trkpt lat="48.48917" lon="2.34773">
        <ele>79.6</ele>
        <time>2026-02-02T12:36:35Z</time>
      </trkpt>
      <trkpt lat="48.4892" lon="2.34782">
        <ele>79.6</ele>
        <time>2026-02-02T12:36:36Z</time>
      </trkpt>
      <trkpt lat="48.48923" lon="2.34792">
        <ele>78.8</ele>
        <time>2026-02-02T12:36:37Z</time>
      </trkpt>
      <trkpt lat="48.48927" lon="2.34801">
        <ele>78.8</ele>
        <time>2026-02-02T12:36:38Z</time>
      </trkpt>
      <trkpt lat="48.4893" lon="2.3481">
        <ele>78.8</ele>
        <time>2026-02-02T12:36:39Z</time>
      </trkpt>
      <trkpt lat="48.48933" lon="2.34819">
        <ele>78.6</ele>
        <time>2026-02-02T12:36:40Z</time>
      </trkpt>
      <trkpt lat="48.48936" lon="2.34828">
        <ele>78.6</ele>
        <time>2026-02-02T12:36:41Z</time>
      </trkpt>
      <trkpt lat="48.48939" lon="2.34837">
        <ele>78.6</ele>
        <time>2026-02-02T12:36:42Z</time>
      </trkpt>
      <trkpt lat="48.48942" lon="2.34847">
        <ele>78.6</ele>
        <time>2026-02-02T12:36:43Z</time>
      </trkpt>
      <trkpt lat="48.48945" lon="2.34856">
        <ele>78.6</ele>
        <time>2026-02-02T12:36:44Z</time>
      </trkpt>
      <trkpt lat="48.48948" lon="2.34865">
        <ele>78</ele>
        <time>2026-02-02T12:36:45Z</time>
      </trkpt>
      <trkpt lat="48.48951" lon="2.34874">
        <ele>78</ele>
        <time>2026-02-02T12:36:46Z</time>
      </trkpt>
      <trkpt lat="48.48954" lon="2.34883">
        <ele>78</ele>
        <time>2026-02-02T12:36:47Z</time>
      </trkpt>
      <trkpt lat="48.48958" lon="2.34892">
        <ele>77.6</ele>
        <time>2026-02-02T12:36:48Z</time>
      </trkpt>
      <trkpt lat="48.48961" lon="2.34901">
        <ele>77.4</ele>
        <time>2026-02-02T12:36:49Z</time>
      </trkpt>
      <trkpt lat="48.48964" lon="2.34911">
        <ele>77.4</ele>
        <time>2026-02-02T12:36:50Z</time>
      </trkpt>
      <trkpt lat="48.48967" lon="2.3492">
        <ele>77.4</ele>
        <time>2026-02-02T12:36:51Z</time>
      </trkpt>
      <trkpt lat="48.4897" lon="2.34929">
        <ele>77.4</ele>
        <time>2026-02-02T12:36:52Z</time>
      </trkpt>
      <trkpt lat="48.48973" lon="2.34937">
        <ele>77.2</ele>
        <time>2026-02-02T12:36:53Z</time>
      </trkpt>
      <trkpt lat="48.48977" lon="2.34947">
        <ele>77.2</ele>
        <time>2026-02-02T12:36:54Z</time>
      </trkpt>
      <trkpt lat="48.4898" lon="2.34956">
        <ele>77.2</ele>
        <time>2026-02-02T12:36:55Z</time>
      </trkpt>
      <trkpt lat="48.48983" lon="2.34965">
        <ele>76.4</ele>
        <time>2026-02-02T12:36:56Z</time>
      </trkpt>
      <trkpt lat="48.48986" lon="2.34974">
        <ele>76.4</ele>
        <time>2026-02-02T12:36:57Z</time>
      </trkpt>
      <trkpt lat="48.48989" lon="2.34983">
        <ele>76.4</ele>
        <time>2026-02-02T12:36:58Z</time>
      </trkpt>
      <trkpt lat="48.48993" lon="2.34992">
        <ele>76.4</ele>
        <time>2026-02-02T12:36:59Z</time>
      </trkpt>
      <trkpt lat="48.48996" lon="2.35001">
        <ele>76.4</ele>
        <time>2026-02-02T12:37:00Z</time>
      </trkpt>
      <trkpt lat="48.49" lon="2.3501">
        <ele>76</ele>
        <time>2026-02-02T12:37:01Z</time>
      </trkpt>
      <trkpt lat="48.49003" lon="2.35019">
        <ele>76</ele>
        <time>2026-02-02T12:37:02Z</time>
      </trkpt>
      <trkpt lat="48.49006" lon="2.35028">
        <ele>76</ele>
        <time>2026-02-02T12:37:03Z</time>
      </trkpt>
      <trkpt lat="48.49009" lon="2.35037">
        <ele>76.2</ele>
        <time>2026-02-02T12:37:04Z</time>
      </trkpt>
      <trkpt lat="48.49011" lon="2.35046">
        <ele>76</ele>
        <time>2026-02-02T12:37:05Z</time>
      </trkpt>
      <trkpt lat="48.49013" lon="2.35056">
        <ele>76</ele>
        <time>2026-02-02T12:37:06Z</time>
      </trkpt>
      <trkpt lat="48.49014" lon="2.35066">
        <ele>76</ele>
        <time>2026-02-02T12:37:07Z</time>
      </trkpt>
      <trkpt lat="48.49015" lon="2.35076">
        <ele>76.4</ele>
        <time>2026-02-02T12:37:08Z</time>
      </trkpt>
      <trkpt lat="48.49016" lon="2.35085">
        <ele>76.4</ele>
        <time>2026-02-02T12:37:09Z</time>
      </trkpt>
      <trkpt lat="48.49019" lon="2.35094">
        <ele>76.4</ele>
        <time>2026-02-02T12:37:10Z</time>
      </trkpt>
      <trkpt lat="48.49024" lon="2.351">
        <ele>76.4</ele>
        <time>2026-02-02T12:37:11Z</time>
      </trkpt>
      <trkpt lat="48.4903" lon="2.35102">
        <ele>76.4</ele>
        <time>2026-02-02T12:37:12Z</time>
      </trkpt>
      <trkpt lat="48.49036" lon="2.35105">
        <ele>76.8</ele>
        <time>2026-02-02T12:37:13Z</time>
      </trkpt>
      <trkpt lat="48.49042" lon="2.35109">
        <ele>76.8</ele>
        <time>2026-02-02T12:37:14Z</time>
      </trkpt>
      <trkpt lat="48.49047" lon="2.35114">
        <ele>76.8</ele>
        <time>2026-02-02T12:37:15Z</time>
      </trkpt>
      <trkpt lat="48.49053" lon="2.35118">
        <ele>76.2</ele>
        <time>2026-02-02T12:37:16Z</time>
      </trkpt>
      <trkpt lat="48.49058" lon="2.35122">
        <ele>76.4</ele>
        <time>2026-02-02T12:37:17Z</time>
      </trkpt>
      <trkpt lat="48.49064" lon="2.35127">
        <ele>76.4</ele>
        <time>2026-02-02T12:37:18Z</time>
      </trkpt>
      <trkpt lat="48.4907" lon="2.35131">
        <ele>76.4</ele>
        <time>2026-02-02T12:37:19Z</time>
      </trkpt>
      <trkpt lat="48.49075" lon="2.35135">
        <ele>76.6</ele>
        <time>2026-02-02T12:37:20Z</time>
      </trkpt>
      <trkpt lat="48.49081" lon="2.35138">
        <ele>76.8</ele>
        <time>2026-02-02T12:37:21Z</time>
      </trkpt>
      <trkpt lat="48.49087" lon="2.35141">
        <ele>76.8</ele>
        <time>2026-02-02T12:37:22Z</time>
      </trkpt>
      <trkpt lat="48.49093" lon="2.35144">
        <ele>76.8</ele>
        <time>2026-02-02T12:37:23Z</time>
      </trkpt>
      <trkpt lat="48.49099" lon="2.35147">
        <ele>76.8</ele>
        <time>2026-02-02T12:37:24Z</time>
      </trkpt>
      <trkpt lat="48.49104" lon="2.3515">
        <ele>77</ele>
        <time>2026-02-02T12:37:25Z</time>
      </trkpt>
      <trkpt lat="48.4911" lon="2.35152">
        <ele>77</ele>
        <time>2026-02-02T12:37:26Z</time>
      </trkpt>
      <trkpt lat="48.49115" lon="2.35155">
        <ele>77</ele>
        <time>2026-02-02T12:37:27Z</time>
      </trkpt>
      <trkpt lat="48.4912" lon="2.35156">
        <ele>77.4</ele>
        <time>2026-02-02T12:37:28Z</time>
      </trkpt>
      <trkpt lat="48.49126" lon="2.35158">
        <ele>77.6</ele>
        <time>2026-02-02T12:37:29Z</time>
      </trkpt>
      <trkpt lat="48.49131" lon="2.35159">
        <ele>77.6</ele>
        <time>2026-02-02T12:37:30Z</time>
      </trkpt>
      <trkpt lat="48.49137" lon="2.35161">
        <ele>77.6</ele>
        <time>2026-02-02T12:37:31Z</time>
      </trkpt>
      <trkpt lat="48.49142" lon="2.35162">
        <ele>78.4</ele>
        <time>2026-02-02T12:37:32Z</time>
      </trkpt>
      <trkpt lat="48.49147" lon="2.35162">
        <ele>78.6</ele>
        <time>2026-02-02T12:37:33Z</time>
      </trkpt>
      <trkpt lat="48.49153" lon="2.35164">
        <ele>78.6</ele>
        <time>2026-02-02T12:37:34Z</time>
      </trkpt>
      <trkpt lat="48.49158" lon="2.35165">
        <ele>78.6</ele>
        <time>2026-02-02T12:37:35Z</time>
      </trkpt>
      <trkpt lat="48.49163" lon="2.35166">
        <ele>78.6</ele>
        <time>2026-02-02T12:37:36Z</time>
      </trkpt>
      <trkpt lat="48.49169" lon="2.35166">
        <ele>78.6</ele>
        <time>2026-02-02T12:37:37Z</time>
      </trkpt>
      <trkpt lat="48.49174" lon="2.35165">
        <ele>78.6</ele>
        <time>2026-02-02T12:37:38Z</time>
      </trkpt>
      <trkpt lat="48.49179" lon="2.35165">
        <ele>78.6</ele>
        <time>2026-02-02T12:37:39Z</time>
      </trkpt>
      <trkpt lat="48.49184" lon="2.35164">
        <ele>79.2</ele>
        <time>2026-02-02T12:37:40Z</time>
      </trkpt>
      <trkpt lat="48.49189" lon="2.35163">
        <ele>79.4</ele>
        <time>2026-02-02T12:37:41Z</time>
      </trkpt>
      <trkpt lat="48.49194" lon="2.35163">
        <ele>79.4</ele>
        <time>2026-02-02T12:37:42Z</time>
      </trkpt>
      <trkpt lat="48.49199" lon="2.35163">
        <ele>79.4</ele>
        <time>2026-02-02T12:37:43Z</time>
      </trkpt>
      <trkpt lat="48.49204" lon="2.35162">
        <ele>79.4</ele>
        <time>2026-02-02T12:37:44Z</time>
      </trkpt>
      <trkpt lat="48.49209" lon="2.35162">
        <ele>79.6</ele>
        <time>2026-02-02T12:37:45Z</time>
      </trkpt>
      <trkpt lat="48.49214" lon="2.35161">
        <ele>79.6</ele>
        <time>2026-02-02T12:37:46Z</time>
      </trkpt>
      <trkpt lat="48.49219" lon="2.35161">
        <ele>79.6</ele>
        <time>2026-02-02T12:37:47Z</time>
      </trkpt>
      <trkpt lat="48.49223" lon="2.3516">
        <ele>79.6</ele>
        <time>2026-02-02T12:37:48Z</time>
      </trkpt>
      <trkpt lat="48.49228" lon="2.3516">
        <ele>80.2</ele>
        <time>2026-02-02T12:37:49Z</time>
      </trkpt>
      <trkpt lat="48.49233" lon="2.35159">
        <ele>80.2</ele>
        <time>2026-02-02T12:37:50Z</time>
      </trkpt>
      <trkpt lat="48.49238" lon="2.35159">
        <ele>80.2</ele>
        <time>2026-02-02T12:37:51Z</time>
      </trkpt>
      <trkpt lat="48.49243" lon="2.35158">
        <ele>80.6</ele>
        <time>2026-02-02T12:37:52Z</time>
      </trkpt>
      <trkpt lat="48.49247" lon="2.35157">
        <ele>80.8</ele>
        <time>2026-02-02T12:37:53Z</time>
      </trkpt>
      <trkpt lat="48.49252" lon="2.35157">
        <ele>80.8</ele>
        <time>2026-02-02T12:37:54Z</time>
      </trkpt>
      <trkpt lat="48.49257" lon="2.35157">
        <ele>80.8</ele>
        <time>2026-02-02T12:37:55Z</time>
      </trkpt>
      <trkpt lat="48.49262" lon="2.35156">
        <ele>80.8</ele>
        <time>2026-02-02T12:37:56Z</time>
      </trkpt>
      <trkpt lat="48.49267" lon="2.35155">
        <ele>81.2</ele>
        <time>2026-02-02T12:37:57Z</time>
      </trkpt>
      <trkpt lat="48.49272" lon="2.35154">
        <ele>81.2</ele>
        <time>2026-02-02T12:37:58Z</time>
      </trkpt>
      <trkpt lat="48.49276" lon="2.35154">
        <ele>81.2</ele>
        <time>2026-02-02T12:37:59Z</time>
      </trkpt>
      <trkpt lat="48.49281" lon="2.35153">
        <ele>82</ele>
        <time>2026-02-02T12:38:00Z</time>
      </trkpt>
      <trkpt lat="48.49286" lon="2.35153">
        <ele>81.2</ele>
        <time>2026-02-02T12:38:01Z</time>
      </trkpt>
      <trkpt lat="48.49291" lon="2.35152">
        <ele>81.2</ele>
        <time>2026-02-02T12:38:02Z</time>
      </trkpt>
      <trkpt lat="48.49296" lon="2.35152">
        <ele>81.2</ele>
        <time>2026-02-02T12:38:03Z</time>
      </trkpt>
      <trkpt lat="48.49301" lon="2.35151">
        <ele>81.8</ele>
        <time>2026-02-02T12:38:04Z</time>
      </trkpt>
      <trkpt lat="48.49306" lon="2.3515">
        <ele>82.2</ele>
        <time>2026-02-02T12:38:05Z</time>
      </trkpt>
      <trkpt lat="48.49311" lon="2.3515">
        <ele>82.2</ele>
        <time>2026-02-02T12:38:06Z</time>
      </trkpt>
      <trkpt lat="48.49316" lon="2.35149">
        <ele>82.2</ele>
        <time>2026-02-02T12:38:07Z</time>
      </trkpt>
      <trkpt lat="48.4932" lon="2.35149">
        <ele>82.4</ele>
        <time>2026-02-02T12:38:08Z</time>
      </trkpt>
      <trkpt lat="48.49325" lon="2.35149">
        <ele>82.8</ele>
        <time>2026-02-02T12:38:09Z</time>
      </trkpt>
      <trkpt lat="48.4933" lon="2.35148">
        <ele>82.8</ele>
        <time>2026-02-02T12:38:10Z</time>
      </trkpt>
      <trkpt lat="48.49334" lon="2.35148">
        <ele>82.8</ele>
        <time>2026-02-02T12:38:11Z</time>
      </trkpt>
      <trkpt lat="48.49339" lon="2.35148">
        <ele>82.8</ele>
        <time>2026-02-02T12:38:12Z</time>
      </trkpt>
      <trkpt lat="48.49343" lon="2.35148">
        <ele>83.2</ele>
        <time>2026-02-02T12:38:13Z</time>
      </trkpt>
      <trkpt lat="48.49348" lon="2.35147">
        <ele>83.2</ele>
        <time>2026-02-02T12:38:14Z</time>
      </trkpt>
      <trkpt lat="48.49352" lon="2.35146">
        <ele>83.2</ele>
        <time>2026-02-02T12:38:15Z</time>
      </trkpt>
      <trkpt lat="48.49357" lon="2.35146">
        <ele>83.2</ele>
        <time>2026-02-02T12:38:16Z</time>
      </trkpt>
      <trkpt lat="48.49361" lon="2.35146">
        <ele>83.4</ele>
        <time>2026-02-02T12:38:17Z</time>
      </trkpt>
      <trkpt lat="48.49366" lon="2.35145">
        <ele>83.4</ele>
        <time>2026-02-02T12:38:18Z</time>
      </trkpt>
      <trkpt lat="48.49371" lon="2.35145">
        <ele>83.4</ele>
        <time>2026-02-02T12:38:19Z</time>
      </trkpt>
      <trkpt lat="48.49376" lon="2.35145">
        <ele>84.2</ele>
        <time>2026-02-02T12:38:20Z</time>
      </trkpt>
      <trkpt lat="48.4938" lon="2.35145">
        <ele>83.6</ele>
        <time>2026-02-02T12:38:21Z</time>
      </trkpt>
      <trkpt lat="48.49385" lon="2.35144">
        <ele>83.6</ele>
        <time>2026-02-02T12:38:22Z</time>
      </trkpt>
      <trkpt lat="48.4939" lon="2.35143">
        <ele>83.6</ele>
        <time>2026-02-02T12:38:23Z</time>
      </trkpt>
      <trkpt lat="48.49395" lon="2.35142">
        <ele>83.8</ele>
        <time>2026-02-02T12:38:24Z</time>
      </trkpt>
      <trkpt lat="48.494" lon="2.35142">
        <ele>84.8</ele>
        <time>2026-02-02T12:38:25Z</time>
      </trkpt>
      <trkpt lat="48.49404" lon="2.35141">
        <ele>84.8</ele>
        <time>2026-02-02T12:38:26Z</time>
      </trkpt>
      <trkpt lat="48.49409" lon="2.3514">
        <ele>84.8</ele>
        <time>2026-02-02T12:38:27Z</time>
      </trkpt>
      <trkpt lat="48.49414" lon="2.3514">
        <ele>84.4</ele>
        <time>2026-02-02T12:38:28Z</time>
      </trkpt>
      <trkpt lat="48.49418" lon="2.35139">
        <ele>84.8</ele>
        <time>2026-02-02T12:38:29Z</time>
      </trkpt>
      <trkpt lat="48.49423" lon="2.35139">
        <ele>84.8</ele>
        <time>2026-02-02T12:38:30Z</time>
      </trkpt>
      <trkpt lat="48.49427" lon="2.35138">
        <ele>84.8</ele>
        <time>2026-02-02T12:38:31Z</time>
      </trkpt>
      <trkpt lat="48.49431" lon="2.35138">
        <ele>85.2</ele>
        <time>2026-02-02T12:38:32Z</time>
      </trkpt>
      <trkpt lat="48.49436" lon="2.35137">
        <ele>85.2</ele>
        <time>2026-02-02T12:38:33Z</time>
      </trkpt>
      <trkpt lat="48.4944" lon="2.35136">
        <ele>85.2</ele>
        <time>2026-02-02T12:38:34Z</time>
      </trkpt>
      <trkpt lat="48.49444" lon="2.35136">
        <ele>85.2</ele>
        <time>2026-02-02T12:38:35Z</time>
      </trkpt>
      <trkpt lat="48.49449" lon="2.35136">
        <ele>85.6</ele>
        <time>2026-02-02T12:38:36Z</time>
      </trkpt>
      <trkpt lat="48.49453" lon="2.35135">
        <ele>86</ele>
        <time>2026-02-02T12:38:37Z</time>
      </trkpt>
      <trkpt lat="48.49458" lon="2.35134">
        <ele>86</ele>
        <time>2026-02-02T12:38:38Z</time>
      </trkpt>
      <trkpt lat="48.49462" lon="2.35134">
        <ele>86</ele>
        <time>2026-02-02T12:38:39Z</time>
      </trkpt>
      <trkpt lat="48.49467" lon="2.35133">
        <ele>86</ele>
        <time>2026-02-02T12:38:40Z</time>
      </trkpt>
      <trkpt lat="48.49471" lon="2.35132">
        <ele>86.6</ele>
        <time>2026-02-02T12:38:41Z</time>
      </trkpt>
      <trkpt lat="48.49476" lon="2.35132">
        <ele>86.6</ele>
        <time>2026-02-02T12:38:42Z</time>
      </trkpt>
      <trkpt lat="48.4948" lon="2.35131">
        <ele>86.6</ele>
        <time>2026-02-02T12:38:43Z</time>
      </trkpt>
      <trkpt lat="48.49485" lon="2.35131">
        <ele>86.8</ele>
        <time>2026-02-02T12:38:44Z</time>
      </trkpt>
      <trkpt lat="48.4949" lon="2.35131">
        <ele>87.2</ele>
        <time>2026-02-02T12:38:45Z</time>
      </trkpt>
      <trkpt lat="48.49494" lon="2.35131">
        <ele>87.2</ele>
        <time>2026-02-02T12:38:46Z</time>
      </trkpt>
      <trkpt lat="48.49499" lon="2.3513">
        <ele>87.2</ele>
        <time>2026-02-02T12:38:47Z</time>
      </trkpt>
      <trkpt lat="48.49503" lon="2.3513">
        <ele>87.2</ele>
        <time>2026-02-02T12:38:48Z</time>
      </trkpt>
      <trkpt lat="48.49507" lon="2.35131">
        <ele>87.4</ele>
        <time>2026-02-02T12:38:49Z</time>
      </trkpt>
      <trkpt lat="48.49512" lon="2.35133">
        <ele>87.4</ele>
        <time>2026-02-02T12:38:50Z</time>
      </trkpt>
      <trkpt lat="48.49516" lon="2.35135">
        <ele>87.4</ele>
        <time>2026-02-02T12:38:51Z</time>
      </trkpt>
      <trkpt lat="48.4952" lon="2.35137">
        <ele>87.4</ele>
        <time>2026-02-02T12:38:52Z</time>
      </trkpt>
      <trkpt lat="48.49526" lon="2.35138">
        <ele>87.2</ele>
        <time>2026-02-02T12:38:53Z</time>
      </trkpt>
      <trkpt lat="48.49531" lon="2.35136">
        <ele>87.2</ele>
        <time>2026-02-02T12:38:54Z</time>
      </trkpt>
      <trkpt lat="48.49536" lon="2.35134">
        <ele>87.2</ele>
        <time>2026-02-02T12:38:55Z</time>
      </trkpt>
      <trkpt lat="48.49541" lon="2.35133">
        <ele>88</ele>
        <time>2026-02-02T12:38:56Z</time>
      </trkpt>
      <trkpt lat="48.49545" lon="2.35133">
        <ele>87.8</ele>
        <time>2026-02-02T12:38:57Z</time>
      </trkpt>
      <trkpt lat="48.4955" lon="2.35132">
        <ele>87.8</ele>
        <time>2026-02-02T12:38:58Z</time>
      </trkpt>
      <trkpt lat="48.49555" lon="2.35132">
        <ele>87.8</ele>
        <time>2026-02-02T12:38:59Z</time>
      </trkpt>
      <trkpt lat="48.4956" lon="2.35131">
        <ele>88.8</ele>
        <time>2026-02-02T12:39:00Z</time>
      </trkpt>
      <trkpt lat="48.49565" lon="2.35131">
        <ele>88.8</ele>
        <time>2026-02-02T12:39:01Z</time>
      </trkpt>
      <trkpt lat="48.49569" lon="2.35131">
        <ele>88.8</ele>
        <time>2026-02-02T12:39:02Z</time>
      </trkpt>
      <trkpt lat="48.49574" lon="2.35131">
        <ele>88.8</ele>
        <time>2026-02-02T12:39:03Z</time>
      </trkpt>
      <trkpt lat="48.49579" lon="2.3513">
        <ele>89.6</ele>
        <time>2026-02-02T12:39:04Z</time>
      </trkpt>
      <trkpt lat="48.49583" lon="2.35129">
        <ele>90</ele>
        <time>2026-02-02T12:39:05Z</time>
      </trkpt>
      <trkpt lat="48.49588" lon="2.35129">
        <ele>90</ele>
        <time>2026-02-02T12:39:06Z</time>
      </trkpt>
      <trkpt lat="48.49593" lon="2.35128">
        <ele>90</ele>
        <time>2026-02-02T12:39:07Z</time>
      </trkpt>
      <trkpt lat="48.49597" lon="2.35127">
        <ele>90.2</ele>
        <time>2026-02-02T12:39:08Z</time>
      </trkpt>
      <trkpt lat="48.49602" lon="2.35126">
        <ele>90.8</ele>
        <time>2026-02-02T12:39:09Z</time>
      </trkpt>
      <trkpt lat="48.49606" lon="2.35126">
        <ele>90.8</ele>
        <time>2026-02-02T12:39:10Z</time>
      </trkpt>
      <trkpt lat="48.49611" lon="2.35125">
        <ele>90.8</ele>
        <time>2026-02-02T12:39:11Z</time>
      </trkpt>
      <trkpt lat="48.49615" lon="2.35125">
        <ele>90.8</ele>
        <time>2026-02-02T12:39:12Z</time>
      </trkpt>
      <trkpt lat="48.4962" lon="2.35124">
        <ele>90.8</ele>
        <time>2026-02-02T12:39:13Z</time>
      </trkpt>
      <trkpt lat="48.49625" lon="2.35124">
        <ele>90.8</ele>
        <time>2026-02-02T12:39:14Z</time>
      </trkpt>
      <trkpt lat="48.4963" lon="2.35125">
        <ele>90.8</ele>
        <time>2026-02-02T12:39:15Z</time>
      </trkpt>
      <trkpt lat="48.49635" lon="2.35126">
        <ele>90.8</ele>
        <time>2026-02-02T12:39:16Z</time>
      </trkpt>
      <trkpt lat="48.4964" lon="2.35127">
        <ele>91.2</ele>
        <time>2026-02-02T12:39:17Z</time>
      </trkpt>
      <trkpt lat="48.49645" lon="2.35128">
        <ele>91.2</ele>
        <time>2026-02-02T12:39:18Z</time>
      </trkpt>
      <trkpt lat="48.49651" lon="2.35129">
        <ele>91.2</ele>
        <time>2026-02-02T12:39:19Z</time>
      </trkpt>
      <trkpt lat="48.49656" lon="2.3513">
        <ele>91.2</ele>
        <time>2026-02-02T12:39:20Z</time>
      </trkpt>
      <trkpt lat="48.49661" lon="2.35131">
        <ele>90.8</ele>
        <time>2026-02-02T12:39:21Z</time>
      </trkpt>
      <trkpt lat="48.49667" lon="2.35132">
        <ele>90.8</ele>
        <time>2026-02-02T12:39:22Z</time>
      </trkpt>
      <trkpt lat="48.49672" lon="2.35133">
        <ele>90.8</ele>
        <time>2026-02-02T12:39:23Z</time>
      </trkpt>
      <trkpt lat="48.49677" lon="2.35134">
        <ele>91.6</ele>
        <time>2026-02-02T12:39:24Z</time>
      </trkpt>
      <trkpt lat="48.49683" lon="2.35135">
        <ele>92</ele>
        <time>2026-02-02T12:39:25Z</time>
      </trkpt>
      <trkpt lat="48.49688" lon="2.35137">
        <ele>92</ele>
        <time>2026-02-02T12:39:26Z</time>
      </trkpt>
      <trkpt lat="48.49693" lon="2.35138">
        <ele>92</ele>
        <time>2026-02-02T12:39:27Z</time>
      </trkpt>
      <trkpt lat="48.49699" lon="2.35139">
        <ele>92.2</ele>
        <time>2026-02-02T12:39:28Z</time>
      </trkpt>
      <trkpt lat="48.49704" lon="2.35139">
        <ele>92</ele>
        <time>2026-02-02T12:39:29Z</time>
      </trkpt>
      <trkpt lat="48.49709" lon="2.3514">
        <ele>92</ele>
        <time>2026-02-02T12:39:30Z</time>
      </trkpt>
      <trkpt lat="48.49714" lon="2.35142">
        <ele>92</ele>
        <time>2026-02-02T12:39:31Z</time>
      </trkpt>
      <trkpt lat="48.49719" lon="2.35143">
        <ele>92.6</ele>
        <time>2026-02-02T12:39:32Z</time>
      </trkpt>
      <trkpt lat="48.49724" lon="2.35144">
        <ele>93</ele>
        <time>2026-02-02T12:39:33Z</time>
      </trkpt>
      <trkpt lat="48.49729" lon="2.35146">
        <ele>93</ele>
        <time>2026-02-02T12:39:34Z</time>
      </trkpt>
      <trkpt lat="48.49734" lon="2.35147">
        <ele>93</ele>
        <time>2026-02-02T12:39:35Z</time>
      </trkpt>
      <trkpt lat="48.49739" lon="2.35148">
        <ele>93</ele>
        <time>2026-02-02T12:39:36Z</time>
      </trkpt>
      <trkpt lat="48.49744" lon="2.35149">
        <ele>93</ele>
        <time>2026-02-02T12:39:37Z</time>
      </trkpt>
      <trkpt lat="48.49749" lon="2.3515">
        <ele>93</ele>
        <time>2026-02-02T12:39:38Z</time>
      </trkpt>
      <trkpt lat="48.49753" lon="2.35152">
        <ele>93</ele>
        <time>2026-02-02T12:39:39Z</time>
      </trkpt>
      <trkpt lat="48.49757" lon="2.35154">
        <ele>93</ele>
        <time>2026-02-02T12:39:40Z</time>
      </trkpt>
      <trkpt lat="48.49761" lon="2.35155">
        <ele>93.2</ele>
        <time>2026-02-02T12:39:41Z</time>
      </trkpt>
      <trkpt lat="48.49764" lon="2.35152">
        <ele>93.2</ele>
        <time>2026-02-02T12:39:42Z</time>
      </trkpt>
      <trkpt lat="48.49765" lon="2.35148">
        <ele>93.2</ele>
        <time>2026-02-02T12:39:43Z</time>
      </trkpt>
      <trkpt lat="48.49765" lon="2.35144">
        <ele>93.2</ele>
        <time>2026-02-02T12:39:44Z</time>
      </trkpt>
      <trkpt lat="48.49766" lon="2.35141">
        <ele>93</ele>
        <time>2026-02-02T12:39:45Z</time>
      </trkpt>
      <trkpt lat="48.49766" lon="2.35138">
        <ele>93</ele>
        <time>2026-02-02T12:39:46Z</time>
      </trkpt>
      <trkpt lat="48.49765" lon="2.35135">
        <ele>93</ele>
        <time>2026-02-02T12:39:47Z</time>
      </trkpt>
      <trkpt lat="48.49763" lon="2.35133">
        <ele>93.2</ele>
        <time>2026-02-02T12:39:48Z</time>
      </trkpt>
      <trkpt lat="48.4976" lon="2.35131">
        <ele>93.6</ele>
        <time>2026-02-02T12:39:49Z</time>
      </trkpt>
      <trkpt lat="48.49756" lon="2.3513">
        <ele>93.6</ele>
        <time>2026-02-02T12:39:50Z</time>
      </trkpt>
      <trkpt lat="48.49751" lon="2.35129">
        <ele>93.6</ele>
        <time>2026-02-02T12:39:51Z</time>
      </trkpt>
      <trkpt lat="48.49746" lon="2.35127">
        <ele>93.4</ele>
        <time>2026-02-02T12:39:52Z</time>
      </trkpt>
      <trkpt lat="48.49741" lon="2.35125">
        <ele>92.8</ele>
        <time>2026-02-02T12:39:53Z</time>
      </trkpt>
      <trkpt lat="48.49736" lon="2.35124">
        <ele>92.8</ele>
        <time>2026-02-02T12:39:54Z</time>
      </trkpt>
      <trkpt lat="48.49731" lon="2.35122">
        <ele>92.8</ele>
        <time>2026-02-02T12:39:55Z</time>
      </trkpt>
      <trkpt lat="48.49726" lon="2.3512">
        <ele>92.8</ele>
        <time>2026-02-02T12:39:56Z</time>
      </trkpt>
      <trkpt lat="48.49721" lon="2.35118">
        <ele>93.2</ele>
        <time>2026-02-02T12:39:57Z</time>
      </trkpt>
      <trkpt lat="48.49716" lon="2.35116">
        <ele>93.2</ele>
        <time>2026-02-02T12:39:58Z</time>
      </trkpt>
      <trkpt lat="48.49711" lon="2.35113">
        <ele>93.2</ele>
        <time>2026-02-02T12:39:59Z</time>
      </trkpt>
      <trkpt lat="48.49706" lon="2.3511">
        <ele>93.2</ele>
        <time>2026-02-02T12:40:00Z</time>
      </trkpt>
      <trkpt lat="48.49703" lon="2.35106">
        <ele>93.6</ele>
        <time>2026-02-02T12:40:01Z</time>
      </trkpt>
      <trkpt lat="48.49699" lon="2.35104">
        <ele>93.6</ele>
        <time>2026-02-02T12:40:02Z</time>
      </trkpt>
      <trkpt lat="48.49694" lon="2.35103">
        <ele>93.6</ele>
        <time>2026-02-02T12:40:03Z</time>
      </trkpt>
      <trkpt lat="48.49689" lon="2.35103">
        <ele>93.6</ele>
        <time>2026-02-02T12:40:04Z</time>
      </trkpt>
      <trkpt lat="48.49684" lon="2.35101">
        <ele>93.4</ele>
        <time>2026-02-02T12:40:05Z</time>
      </trkpt>
      <trkpt lat="48.4968" lon="2.35097">
        <ele>93.4</ele>
        <time>2026-02-02T12:40:06Z</time>
      </trkpt>
      <trkpt lat="48.49679" lon="2.3509">
        <ele>93.4</ele>
        <time>2026-02-02T12:40:07Z</time>
      </trkpt>
      <trkpt lat="48.4968" lon="2.35084">
        <ele>93.6</ele>
        <time>2026-02-02T12:40:08Z</time>
      </trkpt>
      <trkpt lat="48.49682" lon="2.35079">
        <ele>94</ele>
        <time>2026-02-02T12:40:09Z</time>
      </trkpt>
      <trkpt lat="48.49685" lon="2.35075">
        <ele>94</ele>
        <time>2026-02-02T12:40:10Z</time>
      </trkpt>
      <trkpt lat="48.49687" lon="2.35072">
        <ele>94</ele>
        <time>2026-02-02T12:40:11Z</time>
      </trkpt>
      <trkpt lat="48.4969" lon="2.35069">
        <ele>94</ele>
        <time>2026-02-02T12:40:12Z</time>
      </trkpt>
      <trkpt lat="48.49693" lon="2.35066">
        <ele>95.2</ele>
        <time>2026-02-02T12:40:13Z</time>
      </trkpt>
      <trkpt lat="48.49697" lon="2.35064">
        <ele>95.2</ele>
        <time>2026-02-02T12:40:14Z</time>
      </trkpt>
      <trkpt lat="48.497" lon="2.35062">
        <ele>95.2</ele>
        <time>2026-02-02T12:40:15Z</time>
      </trkpt>
      <trkpt lat="48.49704" lon="2.3506">
        <ele>95.2</ele>
        <time>2026-02-02T12:40:16Z</time>
      </trkpt>
      <trkpt lat="48.49707" lon="2.35057">
        <ele>95.2</ele>
        <time>2026-02-02T12:40:17Z</time>
      </trkpt>
      <trkpt lat="48.49711" lon="2.35055">
        <ele>95.2</ele>
        <time>2026-02-02T12:40:18Z</time>
      </trkpt>
      <trkpt lat="48.49715" lon="2.35052">
        <ele>95.2</ele>
        <time>2026-02-02T12:40:19Z</time>
      </trkpt>
      <trkpt lat="48.49719" lon="2.3505">
        <ele>96</ele>
        <time>2026-02-02T12:40:20Z</time>
      </trkpt>
      <trkpt lat="48.49723" lon="2.35047">
        <ele>96.2</ele>
        <time>2026-02-02T12:40:21Z</time>
      </trkpt>
      <trkpt lat="48.49727" lon="2.35045">
        <ele>96.2</ele>
        <time>2026-02-02T12:40:22Z</time>
      </trkpt>
      <trkpt lat="48.49731" lon="2.35043">
        <ele>96.2</ele>
        <time>2026-02-02T12:40:23Z</time>
      </trkpt>
      <trkpt lat="48.49735" lon="2.3504">
        <ele>96.6</ele>
        <time>2026-02-02T12:40:24Z</time>
      </trkpt>
      <trkpt lat="48.49738" lon="2.35037">
        <ele>97</ele>
        <time>2026-02-02T12:40:25Z</time>
      </trkpt>
      <trkpt lat="48.49742" lon="2.35034">
        <ele>97</ele>
        <time>2026-02-02T12:40:26Z</time>
      </trkpt>
      <trkpt lat="48.49746" lon="2.35031">
        <ele>97</ele>
        <time>2026-02-02T12:40:27Z</time>
      </trkpt>
      <trkpt lat="48.49749" lon="2.35029">
        <ele>97.6</ele>
        <time>2026-02-02T12:40:28Z</time>
      </trkpt>
      <trkpt lat="48.49753" lon="2.35026">
        <ele>97.4</ele>
        <time>2026-02-02T12:40:29Z</time>
      </trkpt>
      <trkpt lat="48.49756" lon="2.35023">
        <ele>97.4</ele>
        <time>2026-02-02T12:40:30Z</time>
      </trkpt>
      <trkpt lat="48.4976" lon="2.3502">
        <ele>97.4</ele>
        <time>2026-02-02T12:40:31Z</time>
      </trkpt>
      <trkpt lat="48.49764" lon="2.35017">
        <ele>98</ele>
        <time>2026-02-02T12:40:32Z</time>
      </trkpt>
      <trkpt lat="48.49767" lon="2.35014">
        <ele>98</ele>
        <time>2026-02-02T12:40:33Z</time>
      </trkpt>
      <trkpt lat="48.49771" lon="2.35011">
        <ele>98</ele>
        <time>2026-02-02T12:40:34Z</time>
      </trkpt>
      <trkpt lat="48.49775" lon="2.35008">
        <ele>98</ele>
        <time>2026-02-02T12:40:35Z</time>
      </trkpt>
      <trkpt lat="48.49779" lon="2.35005">
        <ele>98</ele>
        <time>2026-02-02T12:40:36Z</time>
      </trkpt>
      <trkpt lat="48.49783" lon="2.35002">
        <ele>98.4</ele>
        <time>2026-02-02T12:40:37Z</time>
      </trkpt>
      <trkpt lat="48.49787" lon="2.34999">
        <ele>98.4</ele>
        <time>2026-02-02T12:40:38Z</time>
      </trkpt>
      <trkpt lat="48.49791" lon="2.34996">
        <ele>98.4</ele>
        <time>2026-02-02T12:40:39Z</time>
      </trkpt>
      <trkpt lat="48.49795" lon="2.34993">
        <ele>99.2</ele>
        <time>2026-02-02T12:40:40Z</time>
      </trkpt>
      <trkpt lat="48.49799" lon="2.3499">
        <ele>99</ele>
        <time>2026-02-02T12:40:41Z</time>
      </trkpt>
      <trkpt lat="48.49804" lon="2.34986">
        <ele>99</ele>
        <time>2026-02-02T12:40:42Z</time>
      </trkpt>
      <trkpt lat="48.49808" lon="2.34982">
        <ele>99</ele>
        <time>2026-02-02T12:40:43Z</time>
      </trkpt>
      <trkpt lat="48.49813" lon="2.34979">
        <ele>99.2</ele>
        <time>2026-02-02T12:40:44Z</time>
      </trkpt>
      <trkpt lat="48.49818" lon="2.34975">
        <ele>98.8</ele>
        <time>2026-02-02T12:40:45Z</time>
      </trkpt>
      <trkpt lat="48.49822" lon="2.34971">
        <ele>98.8</ele>
        <time>2026-02-02T12:40:46Z</time>
      </trkpt>
      <trkpt lat="48.49827" lon="2.34967">
        <ele>98.8</ele>
        <time>2026-02-02T12:40:47Z</time>
      </trkpt>
      <trkpt lat="48.49832" lon="2.34963">
        <ele>98.8</ele>
        <time>2026-02-02T12:40:48Z</time>
      </trkpt>
      <trkpt lat="48.49837" lon="2.3496">
        <ele>99.2</ele>
        <time>2026-02-02T12:40:49Z</time>
      </trkpt>
      <trkpt lat="48.49842" lon="2.34955">
        <ele>99.2</ele>
        <time>2026-02-02T12:40:50Z</time>
      </trkpt>
      <trkpt lat="48.49847" lon="2.34951">
        <ele>99.2</ele>
        <time>2026-02-02T12:40:51Z</time>
      </trkpt>
      <trkpt lat="48.49852" lon="2.34947">
        <ele>99.2</ele>
        <time>2026-02-02T12:40:52Z</time>
      </trkpt>
      <trkpt lat="48.49858" lon="2.34944">
        <ele>99.2</ele>
        <time>2026-02-02T12:40:53Z</time>
      </trkpt>
      <trkpt lat="48.49863" lon="2.3494">
        <ele>99.2</ele>
        <time>2026-02-02T12:40:54Z</time>
      </trkpt>
      <trkpt lat="48.49868" lon="2.34936">
        <ele>99.2</ele>
        <time>2026-02-02T12:40:55Z</time>
      </trkpt>
      <trkpt lat="48.49873" lon="2.34932">
        <ele>99.2</ele>
        <time>2026-02-02T12:40:56Z</time>
      </trkpt>
      <trkpt lat="48.49879" lon="2.34927">
        <ele>99.2</ele>
        <time>2026-02-02T12:40:57Z</time>
      </trkpt>
      <trkpt lat="48.49884" lon="2.34923">
        <ele>99.2</ele>
        <time>2026-02-02T12:40:58Z</time>
      </trkpt>
      <trkpt lat="48.49889" lon="2.34919">
        <ele>99.2</ele>
        <time>2026-02-02T12:40:59Z</time>
      </trkpt>
      <trkpt lat="48.49895" lon="2.34915">
        <ele>99.2</ele>
        <time>2026-02-02T12:41:00Z</time>
      </trkpt>
      <trkpt lat="48.499" lon="2.34911">
        <ele>99.6</ele>
        <time>2026-02-02T12:41:01Z</time>
      </trkpt>
      <trkpt lat="48.49905" lon="2.34907">
        <ele>99.6</ele>
        <time>2026-02-02T12:41:02Z</time>
      </trkpt>
      <trkpt lat="48.49911" lon="2.34903">
        <ele>99.6</ele>
        <time>2026-02-02T12:41:03Z</time>
      </trkpt>
      <trkpt lat="48.49916" lon="2.34898">
        <ele>99.6</ele>
        <time>2026-02-02T12:41:04Z</time>
      </trkpt>
      <trkpt lat="48.49921" lon="2.34894">
        <ele>99.6</ele>
        <time>2026-02-02T12:41:05Z</time>
      </trkpt>
      <trkpt lat="48.49927" lon="2.3489">
        <ele>99.6</ele>
        <time>2026-02-02T12:41:06Z</time>
      </trkpt>
      <trkpt lat="48.49932" lon="2.34886">
        <ele>99.6</ele>
        <time>2026-02-02T12:41:07Z</time>
      </trkpt>
      <trkpt lat="48.49938" lon="2.34881">
        <ele>99.6</ele>
        <time>2026-02-02T12:41:08Z</time>
      </trkpt>
      <trkpt lat="48.49943" lon="2.34877">
        <ele>99.4</ele>
        <time>2026-02-02T12:41:09Z</time>
      </trkpt>
      <trkpt lat="48.49948" lon="2.34874">
        <ele>99.4</ele>
        <time>2026-02-02T12:41:10Z</time>
      </trkpt>
      <trkpt lat="48.49954" lon="2.3487">
        <ele>99.4</ele>
        <time>2026-02-02T12:41:11Z</time>
      </trkpt>
      <trkpt lat="48.4996" lon="2.34867">
        <ele>100</ele>
        <time>2026-02-02T12:41:12Z</time>
      </trkpt>
      <trkpt lat="48.49966" lon="2.34864">
        <ele>99.6</ele>
        <time>2026-02-02T12:41:13Z</time>
      </trkpt>
      <trkpt lat="48.49971" lon="2.34861">
        <ele>99.6</ele>
        <time>2026-02-02T12:41:14Z</time>
      </trkpt>
      <trkpt lat="48.49977" lon="2.34858">
        <ele>99.6</ele>
        <time>2026-02-02T12:41:15Z</time>
      </trkpt>
      <trkpt lat="48.49983" lon="2.34855">
        <ele>99.8</ele>
        <time>2026-02-02T12:41:16Z</time>
      </trkpt>
      <trkpt lat="48.49989" lon="2.34852">
        <ele>99.8</ele>
        <time>2026-02-02T12:41:17Z</time>
      </trkpt>
      <trkpt lat="48.49994" lon="2.34849">
        <ele>99.8</ele>
        <time>2026-02-02T12:41:18Z</time>
      </trkpt>
      <trkpt lat="48.5" lon="2.34847">
        <ele>99.8</ele>
        <time>2026-02-02T12:41:19Z</time>
      </trkpt>
      <trkpt lat="48.50006" lon="2.34845">
        <ele>100.4</ele>
        <time>2026-02-02T12:41:20Z</time>
      </trkpt>
      <trkpt lat="48.50012" lon="2.34843">
        <ele>100.4</ele>
        <time>2026-02-02T12:41:21Z</time>
      </trkpt>
      <trkpt lat="48.50018" lon="2.34841">
        <ele>100.4</ele>
        <time>2026-02-02T12:41:22Z</time>
      </trkpt>
      <trkpt lat="48.50024" lon="2.34839">
        <ele>100.4</ele>
        <time>2026-02-02T12:41:23Z</time>
      </trkpt>
      <trkpt lat="48.5003" lon="2.34838">
        <ele>101</ele>
        <time>2026-02-02T12:41:24Z</time>
      </trkpt>
      <trkpt lat="48.50035" lon="2.34836">
        <ele>101.2</ele>
        <time>2026-02-02T12:41:25Z</time>
      </trkpt>
      <trkpt lat="48.50041" lon="2.34834">
        <ele>101.2</ele>
        <time>2026-02-02T12:41:26Z</time>
      </trkpt>
      <trkpt lat="48.50047" lon="2.34832">
        <ele>101.2</ele>
        <time>2026-02-02T12:41:27Z</time>
      </trkpt>
      <trkpt lat="48.50053" lon="2.34831">
        <ele>101.6</ele>
        <time>2026-02-02T12:41:28Z</time>
      </trkpt>
      <trkpt lat="48.50058" lon="2.34829">
        <ele>102</ele>
        <time>2026-02-02T12:41:29Z</time>
      </trkpt>
      <trkpt lat="48.50064" lon="2.34828">
        <ele>102</ele>
        <time>2026-02-02T12:41:30Z</time>
      </trkpt>
      <trkpt lat="48.5007" lon="2.34826">
        <ele>102</ele>
        <time>2026-02-02T12:41:31Z</time>
      </trkpt>
      <trkpt lat="48.50075" lon="2.34825">
        <ele>102.6</ele>
        <time>2026-02-02T12:41:32Z</time>
      </trkpt>
      <trkpt lat="48.50081" lon="2.34823">
        <ele>102.6</ele>
        <time>2026-02-02T12:41:33Z</time>
      </trkpt>
      <trkpt lat="48.50087" lon="2.34821">
        <ele>102.6</ele>
        <time>2026-02-02T12:41:34Z</time>
      </trkpt>
      <trkpt lat="48.50092" lon="2.3482">
        <ele>102.6</ele>
        <time>2026-02-02T12:41:35Z</time>
      </trkpt>
      <trkpt lat="48.50098" lon="2.34818">
        <ele>102.6</ele>
        <time>2026-02-02T12:41:36Z</time>
      </trkpt>
      <trkpt lat="48.50103" lon="2.34816">
        <ele>103</ele>
        <time>2026-02-02T12:41:37Z</time>
      </trkpt>
      <trkpt lat="48.50109" lon="2.34815">
        <ele>103</ele>
        <time>2026-02-02T12:41:38Z</time>
      </trkpt>
      <trkpt lat="48.50115" lon="2.34813">
        <ele>103</ele>
        <time>2026-02-02T12:41:39Z</time>
      </trkpt>
      <trkpt lat="48.5012" lon="2.34812">
        <ele>102.8</ele>
        <time>2026-02-02T12:41:40Z</time>
      </trkpt>
      <trkpt lat="48.50126" lon="2.3481">
        <ele>103.6</ele>
        <time>2026-02-02T12:41:41Z</time>
      </trkpt>
      <trkpt lat="48.50132" lon="2.34808">
        <ele>103.6</ele>
        <time>2026-02-02T12:41:42Z</time>
      </trkpt>
      <trkpt lat="48.50138" lon="2.34806">
        <ele>103.6</ele>
        <time>2026-02-02T12:41:43Z</time>
      </trkpt>
      <trkpt lat="48.50144" lon="2.34804">
        <ele>103.6</ele>
        <time>2026-02-02T12:41:44Z</time>
      </trkpt>
      <trkpt lat="48.50149" lon="2.34803">
        <ele>103.8</ele>
        <time>2026-02-02T12:41:45Z</time>
      </trkpt>
      <trkpt lat="48.50155" lon="2.34801">
        <ele>103.8</ele>
        <time>2026-02-02T12:41:46Z</time>
      </trkpt>
      <trkpt lat="48.50161" lon="2.348">
        <ele>103.8</ele>
        <time>2026-02-02T12:41:47Z</time>
      </trkpt>
      <trkpt lat="48.50167" lon="2.34798">
        <ele>103.8</ele>
        <time>2026-02-02T12:41:48Z</time>
      </trkpt>
      <trkpt lat="48.50173" lon="2.34796">
        <ele>104.4</ele>
        <time>2026-02-02T12:41:49Z</time>
      </trkpt>
      <trkpt lat="48.50179" lon="2.34795">
        <ele>104.4</ele>
        <time>2026-02-02T12:41:50Z</time>
      </trkpt>
      <trkpt lat="48.50185" lon="2.34793">
        <ele>104.4</ele>
        <time>2026-02-02T12:41:51Z</time>
      </trkpt>
      <trkpt lat="48.50191" lon="2.34791">
        <ele>104.4</ele>
        <time>2026-02-02T12:41:52Z</time>
      </trkpt>
      <trkpt lat="48.50198" lon="2.34789">
        <ele>104.2</ele>
        <time>2026-02-02T12:41:53Z</time>
      </trkpt>
      <trkpt lat="48.50204" lon="2.34787">
        <ele>104.2</ele>
        <time>2026-02-02T12:41:54Z</time>
      </trkpt>
      <trkpt lat="48.5021" lon="2.34786">
        <ele>104.2</ele>
        <time>2026-02-02T12:41:55Z</time>
      </trkpt>
      <trkpt lat="48.50217" lon="2.34784">
        <ele>104.8</ele>
        <time>2026-02-02T12:41:56Z</time>
      </trkpt>
      <trkpt lat="48.50224" lon="2.34782">
        <ele>104.6</ele>
        <time>2026-02-02T12:41:57Z</time>
      </trkpt>
      <trkpt lat="48.5023" lon="2.3478">
        <ele>104.6</ele>
        <time>2026-02-02T12:41:58Z</time>
      </trkpt>
      <trkpt lat="48.50237" lon="2.34778">
        <ele>104.6</ele>
        <time>2026-02-02T12:41:59Z</time>
      </trkpt>
      <trkpt lat="48.50244" lon="2.34776">
        <ele>104.4</ele>
        <time>2026-02-02T12:42:00Z</time>
      </trkpt>
      <trkpt lat="48.50251" lon="2.34774">
        <ele>104.8</ele>
        <time>2026-02-02T12:42:01Z</time>
      </trkpt>
      <trkpt lat="48.50258" lon="2.34772">
        <ele>104.8</ele>
        <time>2026-02-02T12:42:02Z</time>
      </trkpt>
      <trkpt lat="48.50265" lon="2.3477">
        <ele>104.8</ele>
        <time>2026-02-02T12:42:03Z</time>
      </trkpt>
      <trkpt lat="48.50271" lon="2.34769">
        <ele>104.8</ele>
        <time>2026-02-02T12:42:04Z</time>
      </trkpt>
      <trkpt lat="48.50278" lon="2.34767">
        <ele>104.8</ele>
        <time>2026-02-02T12:42:05Z</time>
      </trkpt>
      <trkpt lat="48.50285" lon="2.34765">
        <ele>104.8</ele>
        <time>2026-02-02T12:42:06Z</time>
      </trkpt>
      <trkpt lat="48.50292" lon="2.34763">
        <ele>104.8</ele>
        <time>2026-02-02T12:42:07Z</time>
      </trkpt>
      <trkpt lat="48.50299" lon="2.3476">
        <ele>103.8</ele>
        <time>2026-02-02T12:42:08Z</time>
      </trkpt>
      <trkpt lat="48.50306" lon="2.34758">
        <ele>104.2</ele>
        <time>2026-02-02T12:42:09Z</time>
      </trkpt>
      <trkpt lat="48.50313" lon="2.34756">
        <ele>104.2</ele>
        <time>2026-02-02T12:42:10Z</time>
      </trkpt>
      <trkpt lat="48.5032" lon="2.34754">
        <ele>104.2</ele>
        <time>2026-02-02T12:42:11Z</time>
      </trkpt>
      <trkpt lat="48.50328" lon="2.34753">
        <ele>104.2</ele>
        <time>2026-02-02T12:42:12Z</time>
      </trkpt>
      <trkpt lat="48.50335" lon="2.3475">
        <ele>103.4</ele>
        <time>2026-02-02T12:42:13Z</time>
      </trkpt>
      <trkpt lat="48.50343" lon="2.34748">
        <ele>103.4</ele>
        <time>2026-02-02T12:42:14Z</time>
      </trkpt>
      <trkpt lat="48.5035" lon="2.34746">
        <ele>103.4</ele>
        <time>2026-02-02T12:42:15Z</time>
      </trkpt>
      <trkpt lat="48.50358" lon="2.34744">
        <ele>103.4</ele>
        <time>2026-02-02T12:42:16Z</time>
      </trkpt>
      <trkpt lat="48.50366" lon="2.34742">
        <ele>103.4</ele>
        <time>2026-02-02T12:42:17Z</time>
      </trkpt>
      <trkpt lat="48.50374" lon="2.34739">
        <ele>103.4</ele>
        <time>2026-02-02T12:42:18Z</time>
      </trkpt>
      <trkpt lat="48.50382" lon="2.34737">
        <ele>103.4</ele>
        <time>2026-02-02T12:42:19Z</time>
      </trkpt>
      <trkpt lat="48.5039" lon="2.34735">
        <ele>102.4</ele>
        <time>2026-02-02T12:42:20Z</time>
      </trkpt>
      <trkpt lat="48.50399" lon="2.34732">
        <ele>102</ele>
        <time>2026-02-02T12:42:21Z</time>
      </trkpt>
      <trkpt lat="48.50407" lon="2.3473">
        <ele>102</ele>
        <time>2026-02-02T12:42:22Z</time>
      </trkpt>
      <trkpt lat="48.50415" lon="2.34728">
        <ele>102</ele>
        <time>2026-02-02T12:42:23Z</time>
      </trkpt>
      <trkpt lat="48.50423" lon="2.34725">
        <ele>101.4</ele>
        <time>2026-02-02T12:42:24Z</time>
      </trkpt>
      <trkpt lat="48.50432" lon="2.34723">
        <ele>101.4</ele>
        <time>2026-02-02T12:42:25Z</time>
      </trkpt>
      <trkpt lat="48.5044" lon="2.34721">
        <ele>101.4</ele>
        <time>2026-02-02T12:42:26Z</time>
      </trkpt>
      <trkpt lat="48.50448" lon="2.34718">
        <ele>101.4</ele>
        <time>2026-02-02T12:42:27Z</time>
      </trkpt>
      <trkpt lat="48.50457" lon="2.34716">
        <ele>100.8</ele>
        <time>2026-02-02T12:42:28Z</time>
      </trkpt>
      <trkpt lat="48.50465" lon="2.34713">
        <ele>100.2</ele>
        <time>2026-02-02T12:42:29Z</time>
      </trkpt>
      <trkpt lat="48.50474" lon="2.34711">
        <ele>100.2</ele>
        <time>2026-02-02T12:42:30Z</time>
      </trkpt>
      <trkpt lat="48.50482" lon="2.34709">
        <ele>100.2</ele>
        <time>2026-02-02T12:42:31Z</time>
      </trkpt>
      <trkpt lat="48.50491" lon="2.34706">
        <ele>100.2</ele>
        <time>2026-02-02T12:42:32Z</time>
      </trkpt>
      <trkpt lat="48.50499" lon="2.34703">
        <ele>99.6</ele>
        <time>2026-02-02T12:42:33Z</time>
      </trkpt>
      <trkpt lat="48.50508" lon="2.34701">
        <ele>99.6</ele>
        <time>2026-02-02T12:42:34Z</time>
      </trkpt>
      <trkpt lat="48.50516" lon="2.34699">
        <ele>99.6</ele>
        <time>2026-02-02T12:42:35Z</time>
      </trkpt>
      <trkpt lat="48.50525" lon="2.34697">
        <ele>99.4</ele>
        <time>2026-02-02T12:42:36Z</time>
      </trkpt>
      <trkpt lat="48.50534" lon="2.34694">
        <ele>99.2</ele>
        <time>2026-02-02T12:42:37Z</time>
      </trkpt>
      <trkpt lat="48.50542" lon="2.34692">
        <ele>99.2</ele>
        <time>2026-02-02T12:42:38Z</time>
      </trkpt>
      <trkpt lat="48.5055" lon="2.34689">
        <ele>99.2</ele>
        <time>2026-02-02T12:42:39Z</time>
      </trkpt>
      <trkpt lat="48.50559" lon="2.34687">
        <ele>98.8</ele>
        <time>2026-02-02T12:42:40Z</time>
      </trkpt>
      <trkpt lat="48.50567" lon="2.34685">
        <ele>98.4</ele>
        <time>2026-02-02T12:42:41Z</time>
      </trkpt>
      <trkpt lat="48.50575" lon="2.34683">
        <ele>98.4</ele>
        <time>2026-02-02T12:42:42Z</time>
      </trkpt>
      <trkpt lat="48.50584" lon="2.34681">
        <ele>98.4</ele>
        <time>2026-02-02T12:42:43Z</time>
      </trkpt>
      <trkpt lat="48.50592" lon="2.3468">
        <ele>98.6</ele>
        <time>2026-02-02T12:42:44Z</time>
      </trkpt>
      <trkpt lat="48.506" lon="2.34678">
        <ele>98.6</ele>
        <time>2026-02-02T12:42:45Z</time>
      </trkpt>
      <trkpt lat="48.50608" lon="2.34676">
        <ele>98.6</ele>
        <time>2026-02-02T12:42:46Z</time>
      </trkpt>
      <trkpt lat="48.50616" lon="2.34674">
        <ele>98.6</ele>
        <time>2026-02-02T12:42:47Z</time>
      </trkpt>
      <trkpt lat="48.50624" lon="2.34671">
        <ele>98.4</ele>
        <time>2026-02-02T12:42:48Z</time>
      </trkpt>
      <trkpt lat="48.50632" lon="2.34669">
        <ele>97.8</ele>
        <time>2026-02-02T12:42:49Z</time>
      </trkpt>
      <trkpt lat="48.5064" lon="2.34666">
        <ele>97.8</ele>
        <time>2026-02-02T12:42:50Z</time>
      </trkpt>
      <trkpt lat="48.50648" lon="2.34663">
        <ele>97.8</ele>
        <time>2026-02-02T12:42:51Z</time>
      </trkpt>
      <trkpt lat="48.50656" lon="2.3466">
        <ele>98.4</ele>
        <time>2026-02-02T12:42:52Z</time>
      </trkpt>
      <trkpt lat="48.50664" lon="2.34658">
        <ele>97.6</ele>
        <time>2026-02-02T12:42:53Z</time>
      </trkpt>
      <trkpt lat="48.50671" lon="2.34656">
        <ele>97.6</ele>
        <time>2026-02-02T12:42:54Z</time>
      </trkpt>
      <trkpt lat="48.50679" lon="2.34654">
        <ele>97.6</ele>
        <time>2026-02-02T12:42:55Z</time>
      </trkpt>
      <trkpt lat="48.50687" lon="2.34653">
        <ele>98.2</ele>
        <time>2026-02-02T12:42:56Z</time>
      </trkpt>
      <trkpt lat="48.50694" lon="2.3465">
        <ele>98.2</ele>
        <time>2026-02-02T12:42:57Z</time>
      </trkpt>
      <trkpt lat="48.50702" lon="2.34648">
        <ele>98.2</ele>
        <time>2026-02-02T12:42:58Z</time>
      </trkpt>
      <trkpt lat="48.50709" lon="2.34646">
        <ele>98.2</ele>
        <time>2026-02-02T12:42:59Z</time>
      </trkpt>
      <trkpt lat="48.50717" lon="2.34643">
        <ele>98.2</ele>
        <time>2026-02-02T12:43:00Z</time>
      </trkpt>
      <trkpt lat="48.50724" lon="2.34641">
        <ele>97.4</ele>
        <time>2026-02-02T12:43:01Z</time>
      </trkpt>
      <trkpt lat="48.50732" lon="2.34639">
        <ele>97.4</ele>
        <time>2026-02-02T12:43:02Z</time>
      </trkpt>
      <trkpt lat="48.50739" lon="2.34637">
        <ele>97.4</ele>
        <time>2026-02-02T12:43:03Z</time>
      </trkpt>
      <trkpt lat="48.50747" lon="2.34635">
        <ele>97.4</ele>
        <time>2026-02-02T12:43:04Z</time>
      </trkpt>
      <trkpt lat="48.50754" lon="2.34633">
        <ele>97.4</ele>
        <time>2026-02-02T12:43:05Z</time>
      </trkpt>
      <trkpt lat="48.50762" lon="2.34631">
        <ele>97.4</ele>
        <time>2026-02-02T12:43:06Z</time>
      </trkpt>
      <trkpt lat="48.50769" lon="2.34629">
        <ele>97.4</ele>
        <time>2026-02-02T12:43:07Z</time>
      </trkpt>
      <trkpt lat="48.50776" lon="2.34627">
        <ele>98</ele>
        <time>2026-02-02T12:43:08Z</time>
      </trkpt>
      <trkpt lat="48.50783" lon="2.34625">
        <ele>98</ele>
        <time>2026-02-02T12:43:09Z</time>
      </trkpt>
      <trkpt lat="48.50791" lon="2.34623">
        <ele>98</ele>
        <time>2026-02-02T12:43:10Z</time>
      </trkpt>
      <trkpt lat="48.50798" lon="2.34621">
        <ele>98</ele>
        <time>2026-02-02T12:43:11Z</time>
      </trkpt>
      <trkpt lat="48.50805" lon="2.34618">
        <ele>98</ele>
        <time>2026-02-02T12:43:12Z</time>
      </trkpt>
      <trkpt lat="48.50812" lon="2.34616">
        <ele>98</ele>
        <time>2026-02-02T12:43:13Z</time>
      </trkpt>
      <trkpt lat="48.50819" lon="2.34613">
        <ele>98</ele>
        <time>2026-02-02T12:43:14Z</time>
      </trkpt>
      <trkpt lat="48.50827" lon="2.3461">
        <ele>98</ele>
        <time>2026-02-02T12:43:15Z</time>
      </trkpt>
      <trkpt lat="48.50834" lon="2.34607">
        <ele>98</ele>
        <time>2026-02-02T12:43:16Z</time>
      </trkpt>
      <trkpt lat="48.50841" lon="2.34603">
        <ele>97.4</ele>
        <time>2026-02-02T12:43:17Z</time>
      </trkpt>
      <trkpt lat="48.50847" lon="2.34599">
        <ele>97.4</ele>
        <time>2026-02-02T12:43:18Z</time>
      </trkpt>
      <trkpt lat="48.50854" lon="2.34594">
        <ele>97.4</ele>
        <time>2026-02-02T12:43:19Z</time>
      </trkpt>
      <trkpt lat="48.50861" lon="2.34588">
        <ele>98</ele>
        <time>2026-02-02T12:43:20Z</time>
      </trkpt>
      <trkpt lat="48.50867" lon="2.34583">
        <ele>97.4</ele>
        <time>2026-02-02T12:43:21Z</time>
      </trkpt>
      <trkpt lat="48.50874" lon="2.34578">
        <ele>97.4</ele>
        <time>2026-02-02T12:43:22Z</time>
      </trkpt>
      <trkpt lat="48.50881" lon="2.34573">
        <ele>97.4</ele>
        <time>2026-02-02T12:43:23Z</time>
      </trkpt>
      <trkpt lat="48.50887" lon="2.34567">
        <ele>97.6</ele>
        <time>2026-02-02T12:43:24Z</time>
      </trkpt>
      <trkpt lat="48.50894" lon="2.34561">
        <ele>97.6</ele>
        <time>2026-02-02T12:43:25Z</time>
      </trkpt>
      <trkpt lat="48.50901" lon="2.34556">
        <ele>97.6</ele>
        <time>2026-02-02T12:43:26Z</time>
      </trkpt>
      <trkpt lat="48.50907" lon="2.3455">
        <ele>97.6</ele>
        <time>2026-02-02T12:43:27Z</time>
      </trkpt>
      <trkpt lat="48.50914" lon="2.34545">
        <ele>97.6</ele>
        <time>2026-02-02T12:43:28Z</time>
      </trkpt>
      <trkpt lat="48.50921" lon="2.3454">
        <ele>97.6</ele>
        <time>2026-02-02T12:43:29Z</time>
      </trkpt>
      <trkpt lat="48.50927" lon="2.34535">
        <ele>97.6</ele>
        <time>2026-02-02T12:43:30Z</time>
      </trkpt>
      <trkpt lat="48.50934" lon="2.34529">
        <ele>97.6</ele>
        <time>2026-02-02T12:43:31Z</time>
      </trkpt>
      <trkpt lat="48.50941" lon="2.34524">
        <ele>97.6</ele>
        <time>2026-02-02T12:43:32Z</time>
      </trkpt>
      <trkpt lat="48.50947" lon="2.34519">
        <ele>97.6</ele>
        <time>2026-02-02T12:43:33Z</time>
      </trkpt>
      <trkpt lat="48.50954" lon="2.34513">
        <ele>97.6</ele>
        <time>2026-02-02T12:43:34Z</time>
      </trkpt>
      <trkpt lat="48.5096" lon="2.34508">
        <ele>97.6</ele>
        <time>2026-02-02T12:43:35Z</time>
      </trkpt>
      <trkpt lat="48.50967" lon="2.34502">
        <ele>97.6</ele>
        <time>2026-02-02T12:43:36Z</time>
      </trkpt>
      <trkpt lat="48.50974" lon="2.34497">
        <ele>97.2</ele>
        <time>2026-02-02T12:43:37Z</time>
      </trkpt>
      <trkpt lat="48.5098" lon="2.34491">
        <ele>97.2</ele>
        <time>2026-02-02T12:43:38Z</time>
      </trkpt>
      <trkpt lat="48.50986" lon="2.34485">
        <ele>97.2</ele>
        <time>2026-02-02T12:43:39Z</time>
      </trkpt>
      <trkpt lat="48.50993" lon="2.34479">
        <ele>97.2</ele>
        <time>2026-02-02T12:43:40Z</time>
      </trkpt>
      <trkpt lat="48.50999" lon="2.34473">
        <ele>97.2</ele>
        <time>2026-02-02T12:43:41Z</time>
      </trkpt>
      <trkpt lat="48.51006" lon="2.34468">
        <ele>97.2</ele>
        <time>2026-02-02T12:43:42Z</time>
      </trkpt>
      <trkpt lat="48.51013" lon="2.34463">
        <ele>97.2</ele>
        <time>2026-02-02T12:43:43Z</time>
      </trkpt>
      <trkpt lat="48.5102" lon="2.34457">
        <ele>97</ele>
        <time>2026-02-02T12:43:44Z</time>
      </trkpt>
      <trkpt lat="48.51026" lon="2.34452">
        <ele>97</ele>
        <time>2026-02-02T12:43:45Z</time>
      </trkpt>
      <trkpt lat="48.51033" lon="2.34447">
        <ele>97</ele>
        <time>2026-02-02T12:43:46Z</time>
      </trkpt>
      <trkpt lat="48.5104" lon="2.34443">
        <ele>97</ele>
        <time>2026-02-02T12:43:47Z</time>
      </trkpt>
      <trkpt lat="48.51047" lon="2.34438">
        <ele>97</ele>
        <time>2026-02-02T12:43:48Z</time>
      </trkpt>
      <trkpt lat="48.51054" lon="2.34434">
        <ele>97</ele>
        <time>2026-02-02T12:43:49Z</time>
      </trkpt>
      <trkpt lat="48.5106" lon="2.34428">
        <ele>97</ele>
        <time>2026-02-02T12:43:50Z</time>
      </trkpt>
      <trkpt lat="48.51066" lon="2.34422">
        <ele>97</ele>
        <time>2026-02-02T12:43:51Z</time>
      </trkpt>
      <trkpt lat="48.51072" lon="2.34413">
        <ele>97</ele>
        <time>2026-02-02T12:43:52Z</time>
      </trkpt>
      <trkpt lat="48.51076" lon="2.34404">
        <ele>96.8</ele>
        <time>2026-02-02T12:43:53Z</time>
      </trkpt>
      <trkpt lat="48.5108" lon="2.34394">
        <ele>96.8</ele>
        <time>2026-02-02T12:43:54Z</time>
      </trkpt>
      <trkpt lat="48.51083" lon="2.34383">
        <ele>96.8</ele>
        <time>2026-02-02T12:43:55Z</time>
      </trkpt>
      <trkpt lat="48.51085" lon="2.34372">
        <ele>96.8</ele>
        <time>2026-02-02T12:43:56Z</time>
      </trkpt>
      <trkpt lat="48.51087" lon="2.34361">
        <ele>96.2</ele>
        <time>2026-02-02T12:43:57Z</time>
      </trkpt>
      <trkpt lat="48.51089" lon="2.34349">
        <ele>96.2</ele>
        <time>2026-02-02T12:43:58Z</time>
      </trkpt>
      <trkpt lat="48.51091" lon="2.34337">
        <ele>96.2</ele>
        <time>2026-02-02T12:43:59Z</time>
      </trkpt>
      <trkpt lat="48.51093" lon="2.34325">
        <ele>96.4</ele>
        <time>2026-02-02T12:44:00Z</time>
      </trkpt>
      <trkpt lat="48.51095" lon="2.34314">
        <ele>96.6</ele>
        <time>2026-02-02T12:44:01Z</time>
      </trkpt>
      <trkpt lat="48.51097" lon="2.34302">
        <ele>96.6</ele>
        <time>2026-02-02T12:44:02Z</time>
      </trkpt>
      <trkpt lat="48.51099" lon="2.3429">
        <ele>96.6</ele>
        <time>2026-02-02T12:44:03Z</time>
      </trkpt>
      <trkpt lat="48.51101" lon="2.34277">
        <ele>96</ele>
        <time>2026-02-02T12:44:04Z</time>
      </trkpt>
      <trkpt lat="48.51103" lon="2.34265">
        <ele>95.8</ele>
        <time>2026-02-02T12:44:05Z</time>
      </trkpt>
      <trkpt lat="48.51105" lon="2.34253">
        <ele>95.8</ele>
        <time>2026-02-02T12:44:06Z</time>
      </trkpt>
      <trkpt lat="48.51106" lon="2.34241">
        <ele>95.8</ele>
        <time>2026-02-02T12:44:07Z</time>
      </trkpt>
      <trkpt lat="48.51108" lon="2.34228">
        <ele>95.8</ele>
        <time>2026-02-02T12:44:08Z</time>
      </trkpt>
      <trkpt lat="48.5111" lon="2.34216">
        <ele>95.8</ele>
        <time>2026-02-02T12:44:09Z</time>
      </trkpt>
      <trkpt lat="48.51112" lon="2.34204">
        <ele>95.8</ele>
        <time>2026-02-02T12:44:10Z</time>
      </trkpt>
      <trkpt lat="48.51114" lon="2.34191">
        <ele>95.8</ele>
        <time>2026-02-02T12:44:11Z</time>
      </trkpt>
      <trkpt lat="48.51116" lon="2.34179">
        <ele>95.8</ele>
        <time>2026-02-02T12:44:12Z</time>
      </trkpt>
      <trkpt lat="48.51118" lon="2.34166">
        <ele>95.2</ele>
        <time>2026-02-02T12:44:13Z</time>
      </trkpt>
      <trkpt lat="48.51119" lon="2.34154">
        <ele>95.2</ele>
        <time>2026-02-02T12:44:14Z</time>
      </trkpt>
      <trkpt lat="48.51121" lon="2.34141">
        <ele>95.2</ele>
        <time>2026-02-02T12:44:15Z</time>
      </trkpt>
      <trkpt lat="48.51123" lon="2.34129">
        <ele>95.2</ele>
        <time>2026-02-02T12:44:16Z</time>
      </trkpt>
      <trkpt lat="48.51125" lon="2.34116">
        <ele>95.4</ele>
        <time>2026-02-02T12:44:17Z</time>
      </trkpt>
      <trkpt lat="48.51127" lon="2.34103">
        <ele>95.4</ele>
        <time>2026-02-02T12:44:18Z</time>
      </trkpt>
      <trkpt lat="48.51129" lon="2.3409">
        <ele>95.4</ele>
        <time>2026-02-02T12:44:19Z</time>
      </trkpt>
      <trkpt lat="48.5113" lon="2.34077">
        <ele>95.4</ele>
        <time>2026-02-02T12:44:20Z</time>
      </trkpt>
      <trkpt lat="48.51132" lon="2.34064">
        <ele>95.8</ele>
        <time>2026-02-02T12:44:21Z</time>
      </trkpt>
      <trkpt lat="48.51134" lon="2.34051">
        <ele>95.8</ele>
        <time>2026-02-02T12:44:22Z</time>
      </trkpt>
      <trkpt lat="48.51136" lon="2.34038">
        <ele>95.8</ele>
        <time>2026-02-02T12:44:23Z</time>
      </trkpt>
      <trkpt lat="48.51138" lon="2.34025">
        <ele>94.8</ele>
        <time>2026-02-02T12:44:24Z</time>
      </trkpt>
      <trkpt lat="48.5114" lon="2.34011">
        <ele>95.2</ele>
        <time>2026-02-02T12:44:25Z</time>
      </trkpt>
      <trkpt lat="48.51142" lon="2.33998">
        <ele>95.2</ele>
        <time>2026-02-02T12:44:26Z</time>
      </trkpt>
      <trkpt lat="48.51143" lon="2.33985">
        <ele>95.2</ele>
        <time>2026-02-02T12:44:27Z</time>
      </trkpt>
      <trkpt lat="48.51145" lon="2.33971">
        <ele>94.6</ele>
        <time>2026-02-02T12:44:28Z</time>
      </trkpt>
      <trkpt lat="48.51147" lon="2.33958">
        <ele>95.2</ele>
        <time>2026-02-02T12:44:29Z</time>
      </trkpt>
      <trkpt lat="48.51149" lon="2.33945">
        <ele>95.2</ele>
        <time>2026-02-02T12:44:30Z</time>
      </trkpt>
      <trkpt lat="48.51151" lon="2.33932">
        <ele>95.2</ele>
        <time>2026-02-02T12:44:31Z</time>
      </trkpt>
      <trkpt lat="48.51153" lon="2.33919">
        <ele>94.2</ele>
        <time>2026-02-02T12:44:32Z</time>
      </trkpt>
      <trkpt lat="48.51155" lon="2.33905">
        <ele>94.6</ele>
        <time>2026-02-02T12:44:33Z</time>
      </trkpt>
      <trkpt lat="48.51157" lon="2.33892">
        <ele>94.6</ele>
        <time>2026-02-02T12:44:34Z</time>
      </trkpt>
      <trkpt lat="48.51159" lon="2.33879">
        <ele>94.6</ele>
        <time>2026-02-02T12:44:35Z</time>
      </trkpt>
      <trkpt lat="48.51161" lon="2.33867">
        <ele>94.6</ele>
        <time>2026-02-02T12:44:36Z</time>
      </trkpt>
      <trkpt lat="48.51162" lon="2.33853">
        <ele>94</ele>
        <time>2026-02-02T12:44:37Z</time>
      </trkpt>
      <trkpt lat="48.51164" lon="2.3384">
        <ele>94</ele>
        <time>2026-02-02T12:44:38Z</time>
      </trkpt>
      <trkpt lat="48.51166" lon="2.33827">
        <ele>94</ele>
        <time>2026-02-02T12:44:39Z</time>
      </trkpt>
      <trkpt lat="48.51168" lon="2.33814">
        <ele>94</ele>
        <time>2026-02-02T12:44:40Z</time>
      </trkpt>
      <trkpt lat="48.5117" lon="2.33801">
        <ele>93.8</ele>
        <time>2026-02-02T12:44:41Z</time>
      </trkpt>
      <trkpt lat="48.51172" lon="2.33788">
        <ele>93.8</ele>
        <time>2026-02-02T12:44:42Z</time>
      </trkpt>
      <trkpt lat="48.51173" lon="2.33775">
        <ele>93.8</ele>
        <time>2026-02-02T12:44:43Z</time>
      </trkpt>
      <trkpt lat="48.51175" lon="2.33761">
        <ele>93.8</ele>
        <time>2026-02-02T12:44:44Z</time>
      </trkpt>
      <trkpt lat="48.51177" lon="2.33748">
        <ele>93.2</ele>
        <time>2026-02-02T12:44:45Z</time>
      </trkpt>
      <trkpt lat="48.51179" lon="2.33735">
        <ele>93.2</ele>
        <time>2026-02-02T12:44:46Z</time>
      </trkpt>
      <trkpt lat="48.5118" lon="2.33722">
        <ele>93.2</ele>
        <time>2026-02-02T12:44:47Z</time>
      </trkpt>
      <trkpt lat="48.51182" lon="2.33709">
        <ele>93.2</ele>
        <time>2026-02-02T12:44:48Z</time>
      </trkpt>
      <trkpt lat="48.51184" lon="2.33696">
        <ele>93.2</ele>
        <time>2026-02-02T12:44:49Z</time>
      </trkpt>
      <trkpt lat="48.51186" lon="2.33683">
        <ele>93.2</ele>
        <time>2026-02-02T12:44:50Z</time>
      </trkpt>
      <trkpt lat="48.51188" lon="2.3367">
        <ele>93.2</ele>
        <time>2026-02-02T12:44:51Z</time>
      </trkpt>
      <trkpt lat="48.5119" lon="2.33657">
        <ele>93.2</ele>
        <time>2026-02-02T12:44:52Z</time>
      </trkpt>
      <trkpt lat="48.51192" lon="2.33644">
        <ele>92.4</ele>
        <time>2026-02-02T12:44:53Z</time>
      </trkpt>
      <trkpt lat="48.51193" lon="2.33631">
        <ele>92.4</ele>
        <time>2026-02-02T12:44:54Z</time>
      </trkpt>
      <trkpt lat="48.51195" lon="2.33618">
        <ele>92.4</ele>
        <time>2026-02-02T12:44:55Z</time>
      </trkpt>
      <trkpt lat="48.51197" lon="2.33605">
        <ele>92</ele>
        <time>2026-02-02T12:44:56Z</time>
      </trkpt>
      <trkpt lat="48.51198" lon="2.33592">
        <ele>92.2</ele>
        <time>2026-02-02T12:44:57Z</time>
      </trkpt>
      <trkpt lat="48.512" lon="2.33579">
        <ele>92.2</ele>
        <time>2026-02-02T12:44:58Z</time>
      </trkpt>
      <trkpt lat="48.51201" lon="2.33565">
        <ele>92.2</ele>
        <time>2026-02-02T12:44:59Z</time>
      </trkpt>
      <trkpt lat="48.51204" lon="2.33552">
        <ele>92</ele>
        <time>2026-02-02T12:45:00Z</time>
      </trkpt>
      <trkpt lat="48.51206" lon="2.33539">
        <ele>91.8</ele>
        <time>2026-02-02T12:45:01Z</time>
      </trkpt>
      <trkpt lat="48.51208" lon="2.33525">
        <ele>91.8</ele>
        <time>2026-02-02T12:45:02Z</time>
      </trkpt>
      <trkpt lat="48.5121" lon="2.33512">
        <ele>91.8</ele>
        <time>2026-02-02T12:45:03Z</time>
      </trkpt>
      <trkpt lat="48.51213" lon="2.33498">
        <ele>91.2</ele>
        <time>2026-02-02T12:45:04Z</time>
      </trkpt>
      <trkpt lat="48.51215" lon="2.33485">
        <ele>91</ele>
        <time>2026-02-02T12:45:05Z</time>
      </trkpt>
      <trkpt lat="48.51217" lon="2.33471">
        <ele>91</ele>
        <time>2026-02-02T12:45:06Z</time>
      </trkpt>
      <trkpt lat="48.51219" lon="2.33457">
        <ele>91</ele>
        <time>2026-02-02T12:45:07Z</time>
      </trkpt>
      <trkpt lat="48.51221" lon="2.33443">
        <ele>90.4</ele>
        <time>2026-02-02T12:45:08Z</time>
      </trkpt>
      <trkpt lat="48.51223" lon="2.33429">
        <ele>90.4</ele>
        <time>2026-02-02T12:45:09Z</time>
      </trkpt>
      <trkpt lat="48.51225" lon="2.33415">
        <ele>90.4</ele>
        <time>2026-02-02T12:45:10Z</time>
      </trkpt>
      <trkpt lat="48.51227" lon="2.33401">
        <ele>90.4</ele>
        <time>2026-02-02T12:45:11Z</time>
      </trkpt>
      <trkpt lat="48.51228" lon="2.33387">
        <ele>89.6</ele>
        <time>2026-02-02T12:45:12Z</time>
      </trkpt>
      <trkpt lat="48.5123" lon="2.33373">
        <ele>89.6</ele>
        <time>2026-02-02T12:45:13Z</time>
      </trkpt>
      <trkpt lat="48.51232" lon="2.33359">
        <ele>89.6</ele>
        <time>2026-02-02T12:45:14Z</time>
      </trkpt>
      <trkpt lat="48.51234" lon="2.33345">
        <ele>89.6</ele>
        <time>2026-02-02T12:45:15Z</time>
      </trkpt>
      <trkpt lat="48.51235" lon="2.3333">
        <ele>88.6</ele>
        <time>2026-02-02T12:45:16Z</time>
      </trkpt>
      <trkpt lat="48.51237" lon="2.33316">
        <ele>88.8</ele>
        <time>2026-02-02T12:45:17Z</time>
      </trkpt>
      <trkpt lat="48.51239" lon="2.33302">
        <ele>88.8</ele>
        <time>2026-02-02T12:45:18Z</time>
      </trkpt>
      <trkpt lat="48.51241" lon="2.33288">
        <ele>88.8</ele>
        <time>2026-02-02T12:45:19Z</time>
      </trkpt>
      <trkpt lat="48.51243" lon="2.33274">
        <ele>88.8</ele>
        <time>2026-02-02T12:45:20Z</time>
      </trkpt>
      <trkpt lat="48.51245" lon="2.33261">
        <ele>89.4</ele>
        <time>2026-02-02T12:45:21Z</time>
      </trkpt>
      <trkpt lat="48.51246" lon="2.33247">
        <ele>89.4</ele>
        <time>2026-02-02T12:45:22Z</time>
      </trkpt>
      <trkpt lat="48.51249" lon="2.33233">
        <ele>89.4</ele>
        <time>2026-02-02T12:45:23Z</time>
      </trkpt>
      <trkpt lat="48.5125" lon="2.33219">
        <ele>88.4</ele>
        <time>2026-02-02T12:45:24Z</time>
      </trkpt>
      <trkpt lat="48.51252" lon="2.33205">
        <ele>88.2</ele>
        <time>2026-02-02T12:45:25Z</time>
      </trkpt>
      <trkpt lat="48.51254" lon="2.33192">
        <ele>88.2</ele>
        <time>2026-02-02T12:45:26Z</time>
      </trkpt>
      <trkpt lat="48.51256" lon="2.33178">
        <ele>88.2</ele>
        <time>2026-02-02T12:45:27Z</time>
      </trkpt>
      <trkpt lat="48.51258" lon="2.33165">
        <ele>88.2</ele>
        <time>2026-02-02T12:45:28Z</time>
      </trkpt>
      <trkpt lat="48.5126" lon="2.33151">
        <ele>88</ele>
        <time>2026-02-02T12:45:29Z</time>
      </trkpt>
      <trkpt lat="48.51262" lon="2.33137">
        <ele>88</ele>
        <time>2026-02-02T12:45:30Z</time>
      </trkpt>
      <trkpt lat="48.51264" lon="2.33124">
        <ele>88</ele>
        <time>2026-02-02T12:45:31Z</time>
      </trkpt>
      <trkpt lat="48.51266" lon="2.33111">
        <ele>88</ele>
        <time>2026-02-02T12:45:32Z</time>
      </trkpt>
      <trkpt lat="48.51267" lon="2.33098">
        <ele>88.8</ele>
        <time>2026-02-02T12:45:33Z</time>
      </trkpt>
      <trkpt lat="48.51269" lon="2.33085">
        <ele>88.8</ele>
        <time>2026-02-02T12:45:34Z</time>
      </trkpt>
      <trkpt lat="48.51271" lon="2.33072">
        <ele>88.8</ele>
        <time>2026-02-02T12:45:35Z</time>
      </trkpt>
      <trkpt lat="48.51273" lon="2.33059">
        <ele>87.8</ele>
        <time>2026-02-02T12:45:36Z</time>
      </trkpt>
      <trkpt lat="48.51275" lon="2.33046">
        <ele>87.8</ele>
        <time>2026-02-02T12:45:37Z</time>
      </trkpt>
      <trkpt lat="48.51277" lon="2.33033">
        <ele>87.8</ele>
        <time>2026-02-02T12:45:38Z</time>
      </trkpt>
      <trkpt lat="48.51278" lon="2.3302">
        <ele>87.8</ele>
        <time>2026-02-02T12:45:39Z</time>
      </trkpt>
      <trkpt lat="48.5128" lon="2.33007">
        <ele>87.8</ele>
        <time>2026-02-02T12:45:40Z</time>
      </trkpt>
      <trkpt lat="48.51281" lon="2.32995">
        <ele>87.8</ele>
        <time>2026-02-02T12:45:41Z</time>
      </trkpt>
      <trkpt lat="48.51283" lon="2.32982">
        <ele>87.8</ele>
        <time>2026-02-02T12:45:42Z</time>
      </trkpt>
      <trkpt lat="48.51285" lon="2.32969">
        <ele>87.8</ele>
        <time>2026-02-02T12:45:43Z</time>
      </trkpt>
      <trkpt lat="48.51287" lon="2.32956">
        <ele>87.8</ele>
        <time>2026-02-02T12:45:44Z</time>
      </trkpt>
      <trkpt lat="48.51288" lon="2.32943">
        <ele>87.2</ele>
        <time>2026-02-02T12:45:45Z</time>
      </trkpt>
      <trkpt lat="48.5129" lon="2.32931">
        <ele>87.2</ele>
        <time>2026-02-02T12:45:46Z</time>
      </trkpt>
      <trkpt lat="48.51292" lon="2.32918">
        <ele>87.2</ele>
        <time>2026-02-02T12:45:47Z</time>
      </trkpt>
      <trkpt lat="48.51294" lon="2.32906">
        <ele>87.2</ele>
        <time>2026-02-02T12:45:48Z</time>
      </trkpt>
      <trkpt lat="48.51295" lon="2.32893">
        <ele>87.8</ele>
        <time>2026-02-02T12:45:49Z</time>
      </trkpt>
      <trkpt lat="48.51297" lon="2.32881">
        <ele>87.8</ele>
        <time>2026-02-02T12:45:50Z</time>
      </trkpt>
      <trkpt lat="48.51299" lon="2.32869">
        <ele>87.8</ele>
        <time>2026-02-02T12:45:51Z</time>
      </trkpt>
      <trkpt lat="48.513" lon="2.32857">
        <ele>87.8</ele>
        <time>2026-02-02T12:45:52Z</time>
      </trkpt>
      <trkpt lat="48.51302" lon="2.32845">
        <ele>87.6</ele>
        <time>2026-02-02T12:45:53Z</time>
      </trkpt>
      <trkpt lat="48.51304" lon="2.32833">
        <ele>87.6</ele>
        <time>2026-02-02T12:45:54Z</time>
      </trkpt>
      <trkpt lat="48.51305" lon="2.32821">
        <ele>87.6</ele>
        <time>2026-02-02T12:45:55Z</time>
      </trkpt>
      <trkpt lat="48.51307" lon="2.32809">
        <ele>87.6</ele>
        <time>2026-02-02T12:45:56Z</time>
      </trkpt>
      <trkpt lat="48.51309" lon="2.32797">
        <ele>87.8</ele>
        <time>2026-02-02T12:45:57Z</time>
      </trkpt>
      <trkpt lat="48.5131" lon="2.32785">
        <ele>87.8</ele>
        <time>2026-02-02T12:45:58Z</time>
      </trkpt>
      <trkpt lat="48.51312" lon="2.32773">
        <ele>87.8</ele>
        <time>2026-02-02T12:45:59Z</time>
      </trkpt>
      <trkpt lat="48.51314" lon="2.32762">
        <ele>87.8</ele>
        <time>2026-02-02T12:46:00Z</time>
      </trkpt>
      <trkpt lat="48.51315" lon="2.3275">
        <ele>87.8</ele>
        <time>2026-02-02T12:46:01Z</time>
      </trkpt>
      <trkpt lat="48.51317" lon="2.32739">
        <ele>87.8</ele>
        <time>2026-02-02T12:46:02Z</time>
      </trkpt>
      <trkpt lat="48.51318" lon="2.32728">
        <ele>87.8</ele>
        <time>2026-02-02T12:46:03Z</time>
      </trkpt>
      <trkpt lat="48.5132" lon="2.32716">
        <ele>87.8</ele>
        <time>2026-02-02T12:46:04Z</time>
      </trkpt>
      <trkpt lat="48.51322" lon="2.32705">
        <ele>88</ele>
        <time>2026-02-02T12:46:05Z</time>
      </trkpt>
      <trkpt lat="48.51323" lon="2.32694">
        <ele>88</ele>
        <time>2026-02-02T12:46:06Z</time>
      </trkpt>
      <trkpt lat="48.51325" lon="2.32682">
        <ele>88</ele>
        <time>2026-02-02T12:46:07Z</time>
      </trkpt>
      <trkpt lat="48.51326" lon="2.32671">
        <ele>88</ele>
        <time>2026-02-02T12:46:08Z</time>
      </trkpt>
      <trkpt lat="48.51328" lon="2.3266">
        <ele>87.4</ele>
        <time>2026-02-02T12:46:09Z</time>
      </trkpt>
      <trkpt lat="48.51329" lon="2.32649">
        <ele>87.4</ele>
        <time>2026-02-02T12:46:10Z</time>
      </trkpt>
      <trkpt lat="48.51331" lon="2.32638">
        <ele>87.4</ele>
        <time>2026-02-02T12:46:11Z</time>
      </trkpt>
      <trkpt lat="48.51333" lon="2.32626">
        <ele>87.8</ele>
        <time>2026-02-02T12:46:12Z</time>
      </trkpt>
      <trkpt lat="48.51334" lon="2.32615">
        <ele>87.4</ele>
        <time>2026-02-02T12:46:13Z</time>
      </trkpt>
      <trkpt lat="48.51336" lon="2.32604">
        <ele>87.4</ele>
        <time>2026-02-02T12:46:14Z</time>
      </trkpt>
      <trkpt lat="48.51338" lon="2.32593">
        <ele>87.4</ele>
        <time>2026-02-02T12:46:15Z</time>
      </trkpt>
      <trkpt lat="48.5134" lon="2.32581">
        <ele>87.8</ele>
        <time>2026-02-02T12:46:16Z</time>
      </trkpt>
      <trkpt lat="48.51341" lon="2.3257">
        <ele>88.4</ele>
        <time>2026-02-02T12:46:17Z</time>
      </trkpt>
      <trkpt lat="48.51343" lon="2.32559">
        <ele>88.4</ele>
        <time>2026-02-02T12:46:18Z</time>
      </trkpt>
      <trkpt lat="48.51345" lon="2.32548">
        <ele>88.4</ele>
        <time>2026-02-02T12:46:19Z</time>
      </trkpt>
      <trkpt lat="48.51346" lon="2.32536">
        <ele>88</ele>
        <time>2026-02-02T12:46:20Z</time>
      </trkpt>
      <trkpt lat="48.51348" lon="2.32525">
        <ele>89.6</ele>
        <time>2026-02-02T12:46:21Z</time>
      </trkpt>
      <trkpt lat="48.5135" lon="2.32514">
        <ele>89.6</ele>
        <time>2026-02-02T12:46:22Z</time>
      </trkpt>
      <trkpt lat="48.51351" lon="2.32502">
        <ele>89.6</ele>
        <time>2026-02-02T12:46:23Z</time>
      </trkpt>
      <trkpt lat="48.51353" lon="2.32491">
        <ele>88.6</ele>
        <time>2026-02-02T12:46:24Z</time>
      </trkpt>
      <trkpt lat="48.51354" lon="2.3248">
        <ele>87.8</ele>
        <time>2026-02-02T12:46:25Z</time>
      </trkpt>
      <trkpt lat="48.51356" lon="2.32469">
        <ele>87.8</ele>
        <time>2026-02-02T12:46:26Z</time>
      </trkpt>
      <trkpt lat="48.51358" lon="2.32457">
        <ele>87.8</ele>
        <time>2026-02-02T12:46:27Z</time>
      </trkpt>
      <trkpt lat="48.51359" lon="2.32446">
        <ele>88.8</ele>
        <time>2026-02-02T12:46:28Z</time>
      </trkpt>
      <trkpt lat="48.51361" lon="2.32435">
        <ele>88.8</ele>
        <time>2026-02-02T12:46:29Z</time>
      </trkpt>
      <trkpt lat="48.51362" lon="2.32424">
        <ele>88.8</ele>
        <time>2026-02-02T12:46:30Z</time>
      </trkpt>
      <trkpt lat="48.51364" lon="2.32412">
        <ele>88.8</ele>
        <time>2026-02-02T12:46:31Z</time>
      </trkpt>
      <trkpt lat="48.51365" lon="2.32401">
        <ele>88.8</ele>
        <time>2026-02-02T12:46:32Z</time>
      </trkpt>
      <trkpt lat="48.51367" lon="2.3239">
        <ele>89</ele>
        <time>2026-02-02T12:46:33Z</time>
      </trkpt>
      <trkpt lat="48.51368" lon="2.32378">
        <ele>89</ele>
        <time>2026-02-02T12:46:34Z</time>
      </trkpt>
      <trkpt lat="48.5137" lon="2.32367">
        <ele>89</ele>
        <time>2026-02-02T12:46:35Z</time>
      </trkpt>
      <trkpt lat="48.51372" lon="2.32356">
        <ele>88.6</ele>
        <time>2026-02-02T12:46:36Z</time>
      </trkpt>
      <trkpt lat="48.51373" lon="2.32345">
        <ele>89.4</ele>
        <time>2026-02-02T12:46:37Z</time>
      </trkpt>
      <trkpt lat="48.51375" lon="2.32333">
        <ele>89.4</ele>
        <time>2026-02-02T12:46:38Z</time>
      </trkpt>
      <trkpt lat="48.51377" lon="2.32322">
        <ele>89.4</ele>
        <time>2026-02-02T12:46:39Z</time>
      </trkpt>
      <trkpt lat="48.51378" lon="2.32311">
        <ele>89.4</ele>
        <time>2026-02-02T12:46:40Z</time>
      </trkpt>
      <trkpt lat="48.5138" lon="2.323">
        <ele>89</ele>
        <time>2026-02-02T12:46:41Z</time>
      </trkpt>
      <trkpt lat="48.51381" lon="2.32289">
        <ele>89</ele>
        <time>2026-02-02T12:46:42Z</time>
      </trkpt>
      <trkpt lat="48.51383" lon="2.32278">
        <ele>89</ele>
        <time>2026-02-02T12:46:43Z</time>
      </trkpt>
      <trkpt lat="48.51384" lon="2.32267">
        <ele>89.4</ele>
        <time>2026-02-02T12:46:44Z</time>
      </trkpt>
      <trkpt lat="48.51386" lon="2.32256">
        <ele>89.4</ele>
        <time>2026-02-02T12:46:45Z</time>
      </trkpt>
      <trkpt lat="48.51387" lon="2.32245">
        <ele>89.4</ele>
        <time>2026-02-02T12:46:46Z</time>
      </trkpt>
      <trkpt lat="48.51389" lon="2.32235">
        <ele>89.4</ele>
        <time>2026-02-02T12:46:47Z</time>
      </trkpt>
      <trkpt lat="48.5139" lon="2.32224">
        <ele>90</ele>
        <time>2026-02-02T12:46:48Z</time>
      </trkpt>
      <trkpt lat="48.51392" lon="2.32214">
        <ele>90</ele>
        <time>2026-02-02T12:46:49Z</time>
      </trkpt>
      <trkpt lat="48.51393" lon="2.32203">
        <ele>90</ele>
        <time>2026-02-02T12:46:50Z</time>
      </trkpt>
      <trkpt lat="48.51395" lon="2.32192">
        <ele>90</ele>
        <time>2026-02-02T12:46:51Z</time>
      </trkpt>
      <trkpt lat="48.51396" lon="2.32182">
        <ele>90</ele>
        <time>2026-02-02T12:46:52Z</time>
      </trkpt>
      <trkpt lat="48.51398" lon="2.32171">
        <ele>90.6</ele>
        <time>2026-02-02T12:46:53Z</time>
      </trkpt>
      <trkpt lat="48.51399" lon="2.3216">
        <ele>90.6</ele>
        <time>2026-02-02T12:46:54Z</time>
      </trkpt>
      <trkpt lat="48.51401" lon="2.32149">
        <ele>90.6</ele>
        <time>2026-02-02T12:46:55Z</time>
      </trkpt>
      <trkpt lat="48.51403" lon="2.32139">
        <ele>90.6</ele>
        <time>2026-02-02T12:46:56Z</time>
      </trkpt>
      <trkpt lat="48.51404" lon="2.32128">
        <ele>91.2</ele>
        <time>2026-02-02T12:46:57Z</time>
      </trkpt>
      <trkpt lat="48.51406" lon="2.32117">
        <ele>91.2</ele>
        <time>2026-02-02T12:46:58Z</time>
      </trkpt>
      <trkpt lat="48.51407" lon="2.32107">
        <ele>91.2</ele>
        <time>2026-02-02T12:46:59Z</time>
      </trkpt>
      <trkpt lat="48.51409" lon="2.32096">
        <ele>91.2</ele>
        <time>2026-02-02T12:47:00Z</time>
      </trkpt>
      <trkpt lat="48.5141" lon="2.32085">
        <ele>91.8</ele>
        <time>2026-02-02T12:47:01Z</time>
      </trkpt>
      <trkpt lat="48.51412" lon="2.32074">
        <ele>91.8</ele>
        <time>2026-02-02T12:47:02Z</time>
      </trkpt>
      <trkpt lat="48.51413" lon="2.32063">
        <ele>91.8</ele>
        <time>2026-02-02T12:47:03Z</time>
      </trkpt>
      <trkpt lat="48.51415" lon="2.32053">
        <ele>91.8</ele>
        <time>2026-02-02T12:47:04Z</time>
      </trkpt>
      <trkpt lat="48.51416" lon="2.32042">
        <ele>91.4</ele>
        <time>2026-02-02T12:47:05Z</time>
      </trkpt>
      <trkpt lat="48.51418" lon="2.32031">
        <ele>91.4</ele>
        <time>2026-02-02T12:47:06Z</time>
      </trkpt>
      <trkpt lat="48.51419" lon="2.3202">
        <ele>91.4</ele>
        <time>2026-02-02T12:47:07Z</time>
      </trkpt>
      <trkpt lat="48.51421" lon="2.32009">
        <ele>91.4</ele>
        <time>2026-02-02T12:47:08Z</time>
      </trkpt>
      <trkpt lat="48.51422" lon="2.31998">
        <ele>91.8</ele>
        <time>2026-02-02T12:47:09Z</time>
      </trkpt>
      <trkpt lat="48.51424" lon="2.31988">
        <ele>91.8</ele>
        <time>2026-02-02T12:47:10Z</time>
      </trkpt>
      <trkpt lat="48.51425" lon="2.31977">
        <ele>91.8</ele>
        <time>2026-02-02T12:47:11Z</time>
      </trkpt>
      <trkpt lat="48.51427" lon="2.31966">
        <ele>92.2</ele>
        <time>2026-02-02T12:47:12Z</time>
      </trkpt>
      <trkpt lat="48.51428" lon="2.31955">
        <ele>92.2</ele>
        <time>2026-02-02T12:47:13Z</time>
      </trkpt>
      <trkpt lat="48.5143" lon="2.31944">
        <ele>92.2</ele>
        <time>2026-02-02T12:47:14Z</time>
      </trkpt>
      <trkpt lat="48.51432" lon="2.31933">
        <ele>92.2</ele>
        <time>2026-02-02T12:47:15Z</time>
      </trkpt>
      <trkpt lat="48.51433" lon="2.31922">
        <ele>92</ele>
        <time>2026-02-02T12:47:16Z</time>
      </trkpt>
      <trkpt lat="48.51435" lon="2.3191">
        <ele>91.8</ele>
        <time>2026-02-02T12:47:17Z</time>
      </trkpt>
      <trkpt lat="48.51436" lon="2.31899">
        <ele>91.8</ele>
        <time>2026-02-02T12:47:18Z</time>
      </trkpt>
      <trkpt lat="48.51438" lon="2.31888">
        <ele>91.8</ele>
        <time>2026-02-02T12:47:19Z</time>
      </trkpt>
      <trkpt lat="48.5144" lon="2.31876">
        <ele>92</ele>
        <time>2026-02-02T12:47:20Z</time>
      </trkpt>
      <trkpt lat="48.51441" lon="2.31865">
        <ele>92.2</ele>
        <time>2026-02-02T12:47:21Z</time>
      </trkpt>
      <trkpt lat="48.51443" lon="2.31853">
        <ele>92.2</ele>
        <time>2026-02-02T12:47:22Z</time>
      </trkpt>
      <trkpt lat="48.51445" lon="2.31842">
        <ele>92.2</ele>
        <time>2026-02-02T12:47:23Z</time>
      </trkpt>
      <trkpt lat="48.51446" lon="2.3183">
        <ele>92</ele>
        <time>2026-02-02T12:47:24Z</time>
      </trkpt>
      <trkpt lat="48.51448" lon="2.31819">
        <ele>91.6</ele>
        <time>2026-02-02T12:47:25Z</time>
      </trkpt>
      <trkpt lat="48.5145" lon="2.31807">
        <ele>91.6</ele>
        <time>2026-02-02T12:47:26Z</time>
      </trkpt>
      <trkpt lat="48.51451" lon="2.31795">
        <ele>91.6</ele>
        <time>2026-02-02T12:47:27Z</time>
      </trkpt>
      <trkpt lat="48.51453" lon="2.31784">
        <ele>92.6</ele>
        <time>2026-02-02T12:47:28Z</time>
      </trkpt>
      <trkpt lat="48.51454" lon="2.31772">
        <ele>92</ele>
        <time>2026-02-02T12:47:29Z</time>
      </trkpt>
      <trkpt lat="48.51456" lon="2.3176">
        <ele>92</ele>
        <time>2026-02-02T12:47:30Z</time>
      </trkpt>
      <trkpt lat="48.51458" lon="2.31749">
        <ele>92</ele>
        <time>2026-02-02T12:47:31Z</time>
      </trkpt>
      <trkpt lat="48.51459" lon="2.31737">
        <ele>92</ele>
        <time>2026-02-02T12:47:32Z</time>
      </trkpt>
      <trkpt lat="48.51461" lon="2.31726">
        <ele>91.2</ele>
        <time>2026-02-02T12:47:33Z</time>
      </trkpt>
      <trkpt lat="48.51463" lon="2.31714">
        <ele>91.2</ele>
        <time>2026-02-02T12:47:34Z</time>
      </trkpt>
      <trkpt lat="48.51464" lon="2.31703">
        <ele>91.2</ele>
        <time>2026-02-02T12:47:35Z</time>
      </trkpt>
      <trkpt lat="48.51466" lon="2.31692">
        <ele>91.8</ele>
        <time>2026-02-02T12:47:36Z</time>
      </trkpt>
      <trkpt lat="48.51467" lon="2.3168">
        <ele>92</ele>
        <time>2026-02-02T12:47:37Z</time>
      </trkpt>
      <trkpt lat="48.51469" lon="2.31669">
        <ele>92</ele>
        <time>2026-02-02T12:47:38Z</time>
      </trkpt>
      <trkpt lat="48.51471" lon="2.31658">
        <ele>92</ele>
        <time>2026-02-02T12:47:39Z</time>
      </trkpt>
      <trkpt lat="48.51472" lon="2.31647">
        <ele>92</ele>
        <time>2026-02-02T12:47:40Z</time>
      </trkpt>
      <trkpt lat="48.51474" lon="2.31636">
        <ele>92.2</ele>
        <time>2026-02-02T12:47:41Z</time>
      </trkpt>
      <trkpt lat="48.51475" lon="2.31626">
        <ele>92.2</ele>
        <time>2026-02-02T12:47:42Z</time>
      </trkpt>
      <trkpt lat="48.51477" lon="2.31615">
        <ele>92.2</ele>
        <time>2026-02-02T12:47:43Z</time>
      </trkpt>
      <trkpt lat="48.51478" lon="2.31604">
        <ele>92.2</ele>
        <time>2026-02-02T12:47:44Z</time>
      </trkpt>
      <trkpt lat="48.5148" lon="2.31594">
        <ele>91.8</ele>
        <time>2026-02-02T12:47:45Z</time>
      </trkpt>
      <trkpt lat="48.51481" lon="2.31584">
        <ele>91.8</ele>
        <time>2026-02-02T12:47:46Z</time>
      </trkpt>
      <trkpt lat="48.51483" lon="2.31573">
        <ele>91.8</ele>
        <time>2026-02-02T12:47:47Z</time>
      </trkpt>
      <trkpt lat="48.51484" lon="2.31563">
        <ele>91.2</ele>
        <time>2026-02-02T12:47:48Z</time>
      </trkpt>
      <trkpt lat="48.51486" lon="2.31552">
        <ele>91</ele>
        <time>2026-02-02T12:47:49Z</time>
      </trkpt>
      <trkpt lat="48.51487" lon="2.31542">
        <ele>91</ele>
        <time>2026-02-02T12:47:50Z</time>
      </trkpt>
      <trkpt lat="48.51488" lon="2.31531">
        <ele>91</ele>
        <time>2026-02-02T12:47:51Z</time>
      </trkpt>
      <trkpt lat="48.5149" lon="2.31521">
        <ele>91</ele>
        <time>2026-02-02T12:47:52Z</time>
      </trkpt>
      <trkpt lat="48.51492" lon="2.31511">
        <ele>90.8</ele>
        <time>2026-02-02T12:47:53Z</time>
      </trkpt>
      <trkpt lat="48.51493" lon="2.315">
        <ele>90.8</ele>
        <time>2026-02-02T12:47:54Z</time>
      </trkpt>
      <trkpt lat="48.51495" lon="2.31489">
        <ele>90.8</ele>
        <time>2026-02-02T12:47:55Z</time>
      </trkpt>
      <trkpt lat="48.51496" lon="2.31479">
        <ele>91.2</ele>
        <time>2026-02-02T12:47:56Z</time>
      </trkpt>
      <trkpt lat="48.51498" lon="2.31468">
        <ele>90.8</ele>
        <time>2026-02-02T12:47:57Z</time>
      </trkpt>
      <trkpt lat="48.515" lon="2.31457">
        <ele>90.8</ele>
        <time>2026-02-02T12:47:58Z</time>
      </trkpt>
      <trkpt lat="48.51501" lon="2.31446">
        <ele>90.8</ele>
        <time>2026-02-02T12:47:59Z</time>
      </trkpt>
      <trkpt lat="48.51503" lon="2.31435">
        <ele>91.2</ele>
        <time>2026-02-02T12:48:00Z</time>
      </trkpt>
      <trkpt lat="48.51504" lon="2.31423">
        <ele>90.8</ele>
        <time>2026-02-02T12:48:01Z</time>
      </trkpt>
      <trkpt lat="48.51506" lon="2.31412">
        <ele>90.8</ele>
        <time>2026-02-02T12:48:02Z</time>
      </trkpt>
      <trkpt lat="48.51507" lon="2.31401">
        <ele>90.8</ele>
        <time>2026-02-02T12:48:03Z</time>
      </trkpt>
      <trkpt lat="48.51509" lon="2.3139">
        <ele>90.8</ele>
        <time>2026-02-02T12:48:04Z</time>
      </trkpt>
      <trkpt lat="48.51511" lon="2.31378">
        <ele>90.6</ele>
        <time>2026-02-02T12:48:05Z</time>
      </trkpt>
      <trkpt lat="48.51512" lon="2.31367">
        <ele>90.6</ele>
        <time>2026-02-02T12:48:06Z</time>
      </trkpt>
      <trkpt lat="48.51514" lon="2.31356">
        <ele>90.6</ele>
        <time>2026-02-02T12:48:07Z</time>
      </trkpt>
      <trkpt lat="48.51515" lon="2.31344">
        <ele>90.6</ele>
        <time>2026-02-02T12:48:08Z</time>
      </trkpt>
      <trkpt lat="48.51517" lon="2.31333">
        <ele>90.2</ele>
        <time>2026-02-02T12:48:09Z</time>
      </trkpt>
      <trkpt lat="48.51518" lon="2.31321">
        <ele>90.2</ele>
        <time>2026-02-02T12:48:10Z</time>
      </trkpt>
      <trkpt lat="48.5152" lon="2.3131">
        <ele>90.2</ele>
        <time>2026-02-02T12:48:11Z</time>
      </trkpt>
      <trkpt lat="48.51522" lon="2.31299">
        <ele>90.2</ele>
        <time>2026-02-02T12:48:12Z</time>
      </trkpt>
      <trkpt lat="48.51523" lon="2.31287">
        <ele>90.2</ele>
        <time>2026-02-02T12:48:13Z</time>
      </trkpt>
      <trkpt lat="48.51525" lon="2.31276">
        <ele>90.2</ele>
        <time>2026-02-02T12:48:14Z</time>
      </trkpt>
      <trkpt lat="48.51526" lon="2.31264">
        <ele>90.2</ele>
        <time>2026-02-02T12:48:15Z</time>
      </trkpt>
      <trkpt lat="48.51528" lon="2.31253">
        <ele>90.2</ele>
        <time>2026-02-02T12:48:16Z</time>
      </trkpt>
      <trkpt lat="48.5153" lon="2.31241">
        <ele>89.8</ele>
        <time>2026-02-02T12:48:17Z</time>
      </trkpt>
      <trkpt lat="48.51531" lon="2.3123">
        <ele>89.8</ele>
        <time>2026-02-02T12:48:18Z</time>
      </trkpt>
      <trkpt lat="48.51533" lon="2.31219">
        <ele>89.8</ele>
        <time>2026-02-02T12:48:19Z</time>
      </trkpt>
      <trkpt lat="48.51534" lon="2.31208">
        <ele>89.8</ele>
        <time>2026-02-02T12:48:20Z</time>
      </trkpt>
      <trkpt lat="48.51536" lon="2.31197">
        <ele>89.8</ele>
        <time>2026-02-02T12:48:21Z</time>
      </trkpt>
      <trkpt lat="48.51537" lon="2.31185">
        <ele>89.8</ele>
        <time>2026-02-02T12:48:22Z</time>
      </trkpt>
      <trkpt lat="48.51539" lon="2.31174">
        <ele>89.8</ele>
        <time>2026-02-02T12:48:23Z</time>
      </trkpt>
      <trkpt lat="48.5154" lon="2.31164">
        <ele>89.8</ele>
        <time>2026-02-02T12:48:24Z</time>
      </trkpt>
      <trkpt lat="48.51542" lon="2.31153">
        <ele>90.2</ele>
        <time>2026-02-02T12:48:25Z</time>
      </trkpt>
      <trkpt lat="48.51543" lon="2.31142">
        <ele>90.2</ele>
        <time>2026-02-02T12:48:26Z</time>
      </trkpt>
      <trkpt lat="48.51545" lon="2.31132">
        <ele>90.2</ele>
        <time>2026-02-02T12:48:27Z</time>
      </trkpt>
      <trkpt lat="48.51546" lon="2.31121">
        <ele>91.2</ele>
        <time>2026-02-02T12:48:28Z</time>
      </trkpt>
      <trkpt lat="48.51548" lon="2.31111">
        <ele>90.6</ele>
        <time>2026-02-02T12:48:29Z</time>
      </trkpt>
      <trkpt lat="48.51549" lon="2.31101">
        <ele>90.6</ele>
        <time>2026-02-02T12:48:30Z</time>
      </trkpt>
      <trkpt lat="48.51551" lon="2.31091">
        <ele>90.6</ele>
        <time>2026-02-02T12:48:31Z</time>
      </trkpt>
      <trkpt lat="48.51552" lon="2.3108">
        <ele>91.2</ele>
        <time>2026-02-02T12:48:32Z</time>
      </trkpt>
      <trkpt lat="48.51554" lon="2.3107">
        <ele>91</ele>
        <time>2026-02-02T12:48:33Z</time>
      </trkpt>
      <trkpt lat="48.51555" lon="2.3106">
        <ele>91</ele>
        <time>2026-02-02T12:48:34Z</time>
      </trkpt>
      <trkpt lat="48.51556" lon="2.3105">
        <ele>91</ele>
        <time>2026-02-02T12:48:35Z</time>
      </trkpt>
      <trkpt lat="48.51558" lon="2.3104">
        <ele>91.2</ele>
        <time>2026-02-02T12:48:36Z</time>
      </trkpt>
      <trkpt lat="48.51559" lon="2.3103">
        <ele>91.2</ele>
        <time>2026-02-02T12:48:37Z</time>
      </trkpt>
      <trkpt lat="48.51561" lon="2.3102">
        <ele>91.2</ele>
        <time>2026-02-02T12:48:38Z</time>
      </trkpt>
      <trkpt lat="48.51562" lon="2.31009">
        <ele>91.2</ele>
        <time>2026-02-02T12:48:39Z</time>
      </trkpt>
      <trkpt lat="48.51563" lon="2.30999">
        <ele>91.2</ele>
        <time>2026-02-02T12:48:40Z</time>
      </trkpt>
      <trkpt lat="48.51565" lon="2.30989">
        <ele>91.6</ele>
        <time>2026-02-02T12:48:41Z</time>
      </trkpt>
      <trkpt lat="48.51566" lon="2.30979">
        <ele>91.6</ele>
        <time>2026-02-02T12:48:42Z</time>
      </trkpt>
      <trkpt lat="48.51568" lon="2.30969">
        <ele>91.6</ele>
        <time>2026-02-02T12:48:43Z</time>
      </trkpt>
      <trkpt lat="48.51569" lon="2.30959">
        <ele>91.6</ele>
        <time>2026-02-02T12:48:44Z</time>
      </trkpt>
      <trkpt lat="48.51571" lon="2.30949">
        <ele>91.8</ele>
        <time>2026-02-02T12:48:45Z</time>
      </trkpt>
      <trkpt lat="48.51572" lon="2.30939">
        <ele>91.8</ele>
        <time>2026-02-02T12:48:46Z</time>
      </trkpt>
      <trkpt lat="48.51574" lon="2.30929">
        <ele>91.8</ele>
        <time>2026-02-02T12:48:47Z</time>
      </trkpt>
      <trkpt lat="48.51575" lon="2.30919">
        <ele>91.8</ele>
        <time>2026-02-02T12:48:48Z</time>
      </trkpt>
      <trkpt lat="48.51576" lon="2.30908">
        <ele>92</ele>
        <time>2026-02-02T12:48:49Z</time>
      </trkpt>
      <trkpt lat="48.51578" lon="2.30898">
        <ele>92</ele>
        <time>2026-02-02T12:48:50Z</time>
      </trkpt>
      <trkpt lat="48.51579" lon="2.30888">
        <ele>92</ele>
        <time>2026-02-02T12:48:51Z</time>
      </trkpt>
      <trkpt lat="48.51581" lon="2.30877">
        <ele>92.2</ele>
        <time>2026-02-02T12:48:52Z</time>
      </trkpt>
      <trkpt lat="48.51582" lon="2.30867">
        <ele>92.2</ele>
        <time>2026-02-02T12:48:53Z</time>
      </trkpt>
      <trkpt lat="48.51584" lon="2.30856">
        <ele>92.2</ele>
        <time>2026-02-02T12:48:54Z</time>
      </trkpt>
      <trkpt lat="48.51585" lon="2.30845">
        <ele>92.2</ele>
        <time>2026-02-02T12:48:55Z</time>
      </trkpt>
      <trkpt lat="48.51586" lon="2.30834">
        <ele>92.2</ele>
        <time>2026-02-02T12:48:56Z</time>
      </trkpt>
      <trkpt lat="48.51588" lon="2.30824">
        <ele>92</ele>
        <time>2026-02-02T12:48:57Z</time>
      </trkpt>
      <trkpt lat="48.5159" lon="2.30813">
        <ele>92</ele>
        <time>2026-02-02T12:48:58Z</time>
      </trkpt>
      <trkpt lat="48.51591" lon="2.30802">
        <ele>92</ele>
        <time>2026-02-02T12:48:59Z</time>
      </trkpt>
      <trkpt lat="48.51593" lon="2.30791">
        <ele>92.8</ele>
        <time>2026-02-02T12:49:00Z</time>
      </trkpt>
      <trkpt lat="48.51594" lon="2.30779">
        <ele>92</ele>
        <time>2026-02-02T12:49:01Z</time>
      </trkpt>
      <trkpt lat="48.51596" lon="2.30768">
        <ele>92</ele>
        <time>2026-02-02T12:49:02Z</time>
      </trkpt>
      <trkpt lat="48.51597" lon="2.30757">
        <ele>92</ele>
        <time>2026-02-02T12:49:03Z</time>
      </trkpt>
      <trkpt lat="48.51599" lon="2.30746">
        <ele>92</ele>
        <time>2026-02-02T12:49:04Z</time>
      </trkpt>
      <trkpt lat="48.51601" lon="2.30734">
        <ele>92</ele>
        <time>2026-02-02T12:49:05Z</time>
      </trkpt>
      <trkpt lat="48.51602" lon="2.30723">
        <ele>92</ele>
        <time>2026-02-02T12:49:06Z</time>
      </trkpt>
      <trkpt lat="48.51604" lon="2.30712">
        <ele>92</ele>
        <time>2026-02-02T12:49:07Z</time>
      </trkpt>
      <trkpt lat="48.51605" lon="2.307">
        <ele>91.2</ele>
        <time>2026-02-02T12:49:08Z</time>
      </trkpt>
      <trkpt lat="48.51607" lon="2.30688">
        <ele>92</ele>
        <time>2026-02-02T12:49:09Z</time>
      </trkpt>
      <trkpt lat="48.51608" lon="2.30677">
        <ele>92</ele>
        <time>2026-02-02T12:49:10Z</time>
      </trkpt>
      <trkpt lat="48.51609" lon="2.30665">
        <ele>92</ele>
        <time>2026-02-02T12:49:11Z</time>
      </trkpt>
      <trkpt lat="48.51611" lon="2.30654">
        <ele>92</ele>
        <time>2026-02-02T12:49:12Z</time>
      </trkpt>
      <trkpt lat="48.51611" lon="2.30643">
        <ele>92</ele>
        <time>2026-02-02T12:49:13Z</time>
      </trkpt>
      <trkpt lat="48.5161" lon="2.30632">
        <ele>92</ele>
        <time>2026-02-02T12:49:14Z</time>
      </trkpt>
      <trkpt lat="48.51609" lon="2.3062">
        <ele>92</ele>
        <time>2026-02-02T12:49:15Z</time>
      </trkpt>
      <trkpt lat="48.51607" lon="2.30609">
        <ele>92</ele>
        <time>2026-02-02T12:49:16Z</time>
      </trkpt>
      <trkpt lat="48.51605" lon="2.30597">
        <ele>91.6</ele>
        <time>2026-02-02T12:49:17Z</time>
      </trkpt>
      <trkpt lat="48.51604" lon="2.30585">
        <ele>91.6</ele>
        <time>2026-02-02T12:49:18Z</time>
      </trkpt>
      <trkpt lat="48.51603" lon="2.30574">
        <ele>91.6</ele>
        <time>2026-02-02T12:49:19Z</time>
      </trkpt>
      <trkpt lat="48.51601" lon="2.30562">
        <ele>92.2</ele>
        <time>2026-02-02T12:49:20Z</time>
      </trkpt>
      <trkpt lat="48.516" lon="2.30551">
        <ele>92.4</ele>
        <time>2026-02-02T12:49:21Z</time>
      </trkpt>
      <trkpt lat="48.51599" lon="2.30539">
        <ele>92.4</ele>
        <time>2026-02-02T12:49:22Z</time>
      </trkpt>
      <trkpt lat="48.51598" lon="2.30528">
        <ele>92.4</ele>
        <time>2026-02-02T12:49:23Z</time>
      </trkpt>
      <trkpt lat="48.51597" lon="2.30517">
        <ele>92.2</ele>
        <time>2026-02-02T12:49:24Z</time>
      </trkpt>
      <trkpt lat="48.51596" lon="2.30506">
        <ele>92.4</ele>
        <time>2026-02-02T12:49:25Z</time>
      </trkpt>
      <trkpt lat="48.51595" lon="2.30495">
        <ele>92.4</ele>
        <time>2026-02-02T12:49:26Z</time>
      </trkpt>
      <trkpt lat="48.51594" lon="2.30484">
        <ele>92.4</ele>
        <time>2026-02-02T12:49:27Z</time>
      </trkpt>
      <trkpt lat="48.51593" lon="2.30473">
        <ele>92.4</ele>
        <time>2026-02-02T12:49:28Z</time>
      </trkpt>
      <trkpt lat="48.51592" lon="2.30462">
        <ele>92.8</ele>
        <time>2026-02-02T12:49:29Z</time>
      </trkpt>
      <trkpt lat="48.51592" lon="2.30451">
        <ele>92.8</ele>
        <time>2026-02-02T12:49:30Z</time>
      </trkpt>
      <trkpt lat="48.51591" lon="2.3044">
        <ele>92.8</ele>
        <time>2026-02-02T12:49:31Z</time>
      </trkpt>
      <trkpt lat="48.5159" lon="2.30429">
        <ele>92.8</ele>
        <time>2026-02-02T12:49:32Z</time>
      </trkpt>
      <trkpt lat="48.5159" lon="2.30419">
        <ele>92.8</ele>
        <time>2026-02-02T12:49:33Z</time>
      </trkpt>
      <trkpt lat="48.5159" lon="2.30408">
        <ele>92.8</ele>
        <time>2026-02-02T12:49:34Z</time>
      </trkpt>
      <trkpt lat="48.5159" lon="2.30397">
        <ele>92.8</ele>
        <time>2026-02-02T12:49:35Z</time>
      </trkpt>
      <trkpt lat="48.5159" lon="2.30387">
        <ele>92.8</ele>
        <time>2026-02-02T12:49:36Z</time>
      </trkpt>
      <trkpt lat="48.51591" lon="2.30377">
        <ele>93</ele>
        <time>2026-02-02T12:49:37Z</time>
      </trkpt>
      <trkpt lat="48.51591" lon="2.30366">
        <ele>93</ele>
        <time>2026-02-02T12:49:38Z</time>
      </trkpt>
      <trkpt lat="48.51592" lon="2.30356">
        <ele>93</ele>
        <time>2026-02-02T12:49:39Z</time>
      </trkpt>
      <trkpt lat="48.51592" lon="2.30346">
        <ele>93</ele>
        <time>2026-02-02T12:49:40Z</time>
      </trkpt>
      <trkpt lat="48.51593" lon="2.30335">
        <ele>93.4</ele>
        <time>2026-02-02T12:49:41Z</time>
      </trkpt>
      <trkpt lat="48.51593" lon="2.30325">
        <ele>93.4</ele>
        <time>2026-02-02T12:49:42Z</time>
      </trkpt>
      <trkpt lat="48.51594" lon="2.30315">
        <ele>93.4</ele>
        <time>2026-02-02T12:49:43Z</time>
      </trkpt>
      <trkpt lat="48.51595" lon="2.30304">
        <ele>93.2</ele>
        <time>2026-02-02T12:49:44Z</time>
      </trkpt>
      <trkpt lat="48.51595" lon="2.30294">
        <ele>93.6</ele>
        <time>2026-02-02T12:49:45Z</time>
      </trkpt>
      <trkpt lat="48.51596" lon="2.30283">
        <ele>93.6</ele>
        <time>2026-02-02T12:49:46Z</time>
      </trkpt>
      <trkpt lat="48.51596" lon="2.30272">
        <ele>93.6</ele>
        <time>2026-02-02T12:49:47Z</time>
      </trkpt>
      <trkpt lat="48.51597" lon="2.30262">
        <ele>93.2</ele>
        <time>2026-02-02T12:49:48Z</time>
      </trkpt>
      <trkpt lat="48.51597" lon="2.30251">
        <ele>94</ele>
        <time>2026-02-02T12:49:49Z</time>
      </trkpt>
      <trkpt lat="48.51598" lon="2.3024">
        <ele>94</ele>
        <time>2026-02-02T12:49:50Z</time>
      </trkpt>
      <trkpt lat="48.51599" lon="2.30229">
        <ele>94</ele>
        <time>2026-02-02T12:49:51Z</time>
      </trkpt>
      <trkpt lat="48.51599" lon="2.30217">
        <ele>93.8</ele>
        <time>2026-02-02T12:49:52Z</time>
      </trkpt>
      <trkpt lat="48.516" lon="2.30206">
        <ele>94</ele>
        <time>2026-02-02T12:49:53Z</time>
      </trkpt>
      <trkpt lat="48.516" lon="2.30195">
        <ele>94</ele>
        <time>2026-02-02T12:49:54Z</time>
      </trkpt>
      <trkpt lat="48.51601" lon="2.30184">
        <ele>94</ele>
        <time>2026-02-02T12:49:55Z</time>
      </trkpt>
      <trkpt lat="48.51601" lon="2.30172">
        <ele>94</ele>
        <time>2026-02-02T12:49:56Z</time>
      </trkpt>
      <trkpt lat="48.51601" lon="2.30161">
        <ele>93.4</ele>
        <time>2026-02-02T12:49:57Z</time>
      </trkpt>
      <trkpt lat="48.51601" lon="2.3015">
        <ele>93.4</ele>
        <time>2026-02-02T12:49:58Z</time>
      </trkpt>
      <trkpt lat="48.51601" lon="2.30138">
        <ele>93.4</ele>
        <time>2026-02-02T12:49:59Z</time>
      </trkpt>
      <trkpt lat="48.51601" lon="2.30127">
        <ele>94.2</ele>
        <time>2026-02-02T12:50:00Z</time>
      </trkpt>
      <trkpt lat="48.516" lon="2.30116">
        <ele>94.8</ele>
        <time>2026-02-02T12:50:01Z</time>
      </trkpt>
      <trkpt lat="48.516" lon="2.30104">
        <ele>94.8</ele>
        <time>2026-02-02T12:50:02Z</time>
      </trkpt>
      <trkpt lat="48.51598" lon="2.30092">
        <ele>94.8</ele>
        <time>2026-02-02T12:50:03Z</time>
      </trkpt>
      <trkpt lat="48.51596" lon="2.30081">
        <ele>93.8</ele>
        <time>2026-02-02T12:50:04Z</time>
      </trkpt>
      <trkpt lat="48.51594" lon="2.30069">
        <ele>93.4</ele>
        <time>2026-02-02T12:50:05Z</time>
      </trkpt>
      <trkpt lat="48.51592" lon="2.30058">
        <ele>93.4</ele>
        <time>2026-02-02T12:50:06Z</time>
      </trkpt>
      <trkpt lat="48.5159" lon="2.30046">
        <ele>93.4</ele>
        <time>2026-02-02T12:50:07Z</time>
      </trkpt>
      <trkpt lat="48.51589" lon="2.30034">
        <ele>93.6</ele>
        <time>2026-02-02T12:50:08Z</time>
      </trkpt>
      <trkpt lat="48.51587" lon="2.30022">
        <ele>93.8</ele>
        <time>2026-02-02T12:50:09Z</time>
      </trkpt>
      <trkpt lat="48.51586" lon="2.3001">
        <ele>93.8</ele>
        <time>2026-02-02T12:50:10Z</time>
      </trkpt>
      <trkpt lat="48.51585" lon="2.29999">
        <ele>93.8</ele>
        <time>2026-02-02T12:50:11Z</time>
      </trkpt>
      <trkpt lat="48.51583" lon="2.29987">
        <ele>93.8</ele>
        <time>2026-02-02T12:50:12Z</time>
      </trkpt>
      <trkpt lat="48.51581" lon="2.29975">
        <ele>93.6</ele>
        <time>2026-02-02T12:50:13Z</time>
      </trkpt>
      <trkpt lat="48.51578" lon="2.29963">
        <ele>93.6</ele>
        <time>2026-02-02T12:50:14Z</time>
      </trkpt>
      <trkpt lat="48.51576" lon="2.29952">
        <ele>93.6</ele>
        <time>2026-02-02T12:50:15Z</time>
      </trkpt>
      <trkpt lat="48.51573" lon="2.2994">
        <ele>93.4</ele>
        <time>2026-02-02T12:50:16Z</time>
      </trkpt>
      <trkpt lat="48.5157" lon="2.29928">
        <ele>93.2</ele>
        <time>2026-02-02T12:50:17Z</time>
      </trkpt>
      <trkpt lat="48.51568" lon="2.29916">
        <ele>93.2</ele>
        <time>2026-02-02T12:50:18Z</time>
      </trkpt>
      <trkpt lat="48.51565" lon="2.29904">
        <ele>93.2</ele>
        <time>2026-02-02T12:50:19Z</time>
      </trkpt>
      <trkpt lat="48.51562" lon="2.29892">
        <ele>92.8</ele>
        <time>2026-02-02T12:50:20Z</time>
      </trkpt>
      <trkpt lat="48.51559" lon="2.2988">
        <ele>92.6</ele>
        <time>2026-02-02T12:50:21Z</time>
      </trkpt>
      <trkpt lat="48.51556" lon="2.29867">
        <ele>92.6</ele>
        <time>2026-02-02T12:50:22Z</time>
      </trkpt>
      <trkpt lat="48.51553" lon="2.29855">
        <ele>92.6</ele>
        <time>2026-02-02T12:50:23Z</time>
      </trkpt>
      <trkpt lat="48.5155" lon="2.29843">
        <ele>92.6</ele>
        <time>2026-02-02T12:50:24Z</time>
      </trkpt>
      <trkpt lat="48.51547" lon="2.29831">
        <ele>93</ele>
        <time>2026-02-02T12:50:25Z</time>
      </trkpt>
      <trkpt lat="48.51544" lon="2.29818">
        <ele>93</ele>
        <time>2026-02-02T12:50:26Z</time>
      </trkpt>
      <trkpt lat="48.51542" lon="2.29805">
        <ele>93</ele>
        <time>2026-02-02T12:50:27Z</time>
      </trkpt>
      <trkpt lat="48.5154" lon="2.29792">
        <ele>92</ele>
        <time>2026-02-02T12:50:28Z</time>
      </trkpt>
      <trkpt lat="48.51539" lon="2.29779">
        <ele>91.8</ele>
        <time>2026-02-02T12:50:29Z</time>
      </trkpt>
      <trkpt lat="48.51538" lon="2.29766">
        <ele>91.8</ele>
        <time>2026-02-02T12:50:30Z</time>
      </trkpt>
      <trkpt lat="48.51537" lon="2.29753">
        <ele>91.8</ele>
        <time>2026-02-02T12:50:31Z</time>
      </trkpt>
      <trkpt lat="48.51536" lon="2.29739">
        <ele>92</ele>
        <time>2026-02-02T12:50:32Z</time>
      </trkpt>
      <trkpt lat="48.51536" lon="2.29726">
        <ele>91.6</ele>
        <time>2026-02-02T12:50:33Z</time>
      </trkpt>
      <trkpt lat="48.51536" lon="2.29713">
        <ele>91.6</ele>
        <time>2026-02-02T12:50:34Z</time>
      </trkpt>
      <trkpt lat="48.51536" lon="2.29699">
        <ele>91.6</ele>
        <time>2026-02-02T12:50:35Z</time>
      </trkpt>
      <trkpt lat="48.51536" lon="2.29686">
        <ele>92.2</ele>
        <time>2026-02-02T12:50:36Z</time>
      </trkpt>
      <trkpt lat="48.51536" lon="2.29673">
        <ele>91.8</ele>
        <time>2026-02-02T12:50:37Z</time>
      </trkpt>
      <trkpt lat="48.51536" lon="2.29659">
        <ele>91.8</ele>
        <time>2026-02-02T12:50:38Z</time>
      </trkpt>
      <trkpt lat="48.51536" lon="2.29646">
        <ele>91.8</ele>
        <time>2026-02-02T12:50:39Z</time>
      </trkpt>
      <trkpt lat="48.51536" lon="2.29632">
        <ele>91.2</ele>
        <time>2026-02-02T12:50:40Z</time>
      </trkpt>
      <trkpt lat="48.51536" lon="2.29619">
        <ele>91.2</ele>
        <time>2026-02-02T12:50:41Z</time>
      </trkpt>
      <trkpt lat="48.51536" lon="2.29605">
        <ele>91.2</ele>
        <time>2026-02-02T12:50:42Z</time>
      </trkpt>
      <trkpt lat="48.51537" lon="2.29591">
        <ele>91.2</ele>
        <time>2026-02-02T12:50:43Z</time>
      </trkpt>
      <trkpt lat="48.51537" lon="2.29577">
        <ele>90.2</ele>
        <time>2026-02-02T12:50:44Z</time>
      </trkpt>
      <trkpt lat="48.51537" lon="2.29563">
        <ele>90.8</ele>
        <time>2026-02-02T12:50:45Z</time>
      </trkpt>
      <trkpt lat="48.51537" lon="2.29549">
        <ele>90.8</ele>
        <time>2026-02-02T12:50:46Z</time>
      </trkpt>
      <trkpt lat="48.51537" lon="2.29535">
        <ele>90.8</ele>
        <time>2026-02-02T12:50:47Z</time>
      </trkpt>
      <trkpt lat="48.51538" lon="2.29521">
        <ele>90.6</ele>
        <time>2026-02-02T12:50:48Z</time>
      </trkpt>
      <trkpt lat="48.51538" lon="2.29507">
        <ele>90.4</ele>
        <time>2026-02-02T12:50:49Z</time>
      </trkpt>
      <trkpt lat="48.51538" lon="2.29493">
        <ele>90.4</ele>
        <time>2026-02-02T12:50:50Z</time>
      </trkpt>
      <trkpt lat="48.51539" lon="2.29479">
        <ele>90.4</ele>
        <time>2026-02-02T12:50:51Z</time>
      </trkpt>
      <trkpt lat="48.5154" lon="2.29465">
        <ele>89.6</ele>
        <time>2026-02-02T12:50:52Z</time>
      </trkpt>
      <trkpt lat="48.51541" lon="2.2945">
        <ele>89.4</ele>
        <time>2026-02-02T12:50:53Z</time>
      </trkpt>
      <trkpt lat="48.51542" lon="2.29436">
        <ele>89.4</ele>
        <time>2026-02-02T12:50:54Z</time>
      </trkpt>
      <trkpt lat="48.51544" lon="2.29421">
        <ele>89.4</ele>
        <time>2026-02-02T12:50:55Z</time>
      </trkpt>
      <trkpt lat="48.51545" lon="2.29407">
        <ele>89.4</ele>
        <time>2026-02-02T12:50:56Z</time>
      </trkpt>
      <trkpt lat="48.51547" lon="2.29392">
        <ele>89</ele>
        <time>2026-02-02T12:50:57Z</time>
      </trkpt>
      <trkpt lat="48.5155" lon="2.29378">
        <ele>89</ele>
        <time>2026-02-02T12:50:58Z</time>
      </trkpt>
      <trkpt lat="48.51552" lon="2.29363">
        <ele>89</ele>
        <time>2026-02-02T12:50:59Z</time>
      </trkpt>
      <trkpt lat="48.51554" lon="2.29348">
        <ele>88.2</ele>
        <time>2026-02-02T12:51:00Z</time>
      </trkpt>
      <trkpt lat="48.51556" lon="2.29334">
        <ele>88.2</ele>
        <time>2026-02-02T12:51:01Z</time>
      </trkpt>
      <trkpt lat="48.51559" lon="2.29319">
        <ele>88.2</ele>
        <time>2026-02-02T12:51:02Z</time>
      </trkpt>
      <trkpt lat="48.51561" lon="2.29304">
        <ele>88.2</ele>
        <time>2026-02-02T12:51:03Z</time>
      </trkpt>
      <trkpt lat="48.51564" lon="2.2929">
        <ele>88.2</ele>
        <time>2026-02-02T12:51:04Z</time>
      </trkpt>
      <trkpt lat="48.51566" lon="2.29275">
        <ele>87.8</ele>
        <time>2026-02-02T12:51:05Z</time>
      </trkpt>
      <trkpt lat="48.51568" lon="2.29261">
        <ele>87.8</ele>
        <time>2026-02-02T12:51:06Z</time>
      </trkpt>
      <trkpt lat="48.51571" lon="2.29246">
        <ele>87.8</ele>
        <time>2026-02-02T12:51:07Z</time>
      </trkpt>
      <trkpt lat="48.51573" lon="2.29232">
        <ele>87.8</ele>
        <time>2026-02-02T12:51:08Z</time>
      </trkpt>
      <trkpt lat="48.51575" lon="2.29218">
        <ele>87.6</ele>
        <time>2026-02-02T12:51:09Z</time>
      </trkpt>
      <trkpt lat="48.51578" lon="2.29203">
        <ele>87.6</ele>
        <time>2026-02-02T12:51:10Z</time>
      </trkpt>
      <trkpt lat="48.5158" lon="2.29189">
        <ele>87.6</ele>
        <time>2026-02-02T12:51:11Z</time>
      </trkpt>
      <trkpt lat="48.51582" lon="2.29174">
        <ele>87.6</ele>
        <time>2026-02-02T12:51:12Z</time>
      </trkpt>
      <trkpt lat="48.51584" lon="2.2916">
        <ele>87.8</ele>
        <time>2026-02-02T12:51:13Z</time>
      </trkpt>
      <trkpt lat="48.51586" lon="2.29146">
        <ele>87.8</ele>
        <time>2026-02-02T12:51:14Z</time>
      </trkpt>
      <trkpt lat="48.51588" lon="2.29132">
        <ele>87.8</ele>
        <time>2026-02-02T12:51:15Z</time>
      </trkpt>
      <trkpt lat="48.5159" lon="2.29118">
        <ele>87.4</ele>
        <time>2026-02-02T12:51:16Z</time>
      </trkpt>
      <trkpt lat="48.51592" lon="2.29104">
        <ele>87.6</ele>
        <time>2026-02-02T12:51:17Z</time>
      </trkpt>
      <trkpt lat="48.51593" lon="2.2909">
        <ele>87.6</ele>
        <time>2026-02-02T12:51:18Z</time>
      </trkpt>
      <trkpt lat="48.51595" lon="2.29076">
        <ele>87.6</ele>
        <time>2026-02-02T12:51:19Z</time>
      </trkpt>
      <trkpt lat="48.51597" lon="2.29063">
        <ele>87.8</ele>
        <time>2026-02-02T12:51:20Z</time>
      </trkpt>
      <trkpt lat="48.51598" lon="2.29049">
        <ele>88</ele>
        <time>2026-02-02T12:51:21Z</time>
      </trkpt>
      <trkpt lat="48.51599" lon="2.29036">
        <ele>88</ele>
        <time>2026-02-02T12:51:22Z</time>
      </trkpt>
      <trkpt lat="48.51601" lon="2.29023">
        <ele>88</ele>
        <time>2026-02-02T12:51:23Z</time>
      </trkpt>
      <trkpt lat="48.51603" lon="2.2901">
        <ele>88</ele>
        <time>2026-02-02T12:51:24Z</time>
      </trkpt>
      <trkpt lat="48.51604" lon="2.28998">
        <ele>88.6</ele>
        <time>2026-02-02T12:51:25Z</time>
      </trkpt>
      <trkpt lat="48.51605" lon="2.28986">
        <ele>88.6</ele>
        <time>2026-02-02T12:51:26Z</time>
      </trkpt>
      <trkpt lat="48.51606" lon="2.28974">
        <ele>88.6</ele>
        <time>2026-02-02T12:51:27Z</time>
      </trkpt>
      <trkpt lat="48.51607" lon="2.28962">
        <ele>88.8</ele>
        <time>2026-02-02T12:51:28Z</time>
      </trkpt>
      <trkpt lat="48.51608" lon="2.2895">
        <ele>88.8</ele>
        <time>2026-02-02T12:51:29Z</time>
      </trkpt>
      <trkpt lat="48.51609" lon="2.28939">
        <ele>88.8</ele>
        <time>2026-02-02T12:51:30Z</time>
      </trkpt>
      <trkpt lat="48.51609" lon="2.28927">
        <ele>88.8</ele>
        <time>2026-02-02T12:51:31Z</time>
      </trkpt>
      <trkpt lat="48.51609" lon="2.28916">
        <ele>89.6</ele>
        <time>2026-02-02T12:51:32Z</time>
      </trkpt>
      <trkpt lat="48.51609" lon="2.28905">
        <ele>89.8</ele>
        <time>2026-02-02T12:51:33Z</time>
      </trkpt>
      <trkpt lat="48.5161" lon="2.28894">
        <ele>89.8</ele>
        <time>2026-02-02T12:51:34Z</time>
      </trkpt>
      <trkpt lat="48.5161" lon="2.28884">
        <ele>89.8</ele>
        <time>2026-02-02T12:51:35Z</time>
      </trkpt>
      <trkpt lat="48.51611" lon="2.28873">
        <ele>89.4</ele>
        <time>2026-02-02T12:51:36Z</time>
      </trkpt>
      <trkpt lat="48.51614" lon="2.28863">
        <ele>89.4</ele>
        <time>2026-02-02T12:51:37Z</time>
      </trkpt>
      <trkpt lat="48.5162" lon="2.28856">
        <ele>89.4</ele>
        <time>2026-02-02T12:51:38Z</time>
      </trkpt>
      <trkpt lat="48.51626" lon="2.28851">
        <ele>89.4</ele>
        <time>2026-02-02T12:51:39Z</time>
      </trkpt>
      <trkpt lat="48.51634" lon="2.28848">
        <ele>89.4</ele>
        <time>2026-02-02T12:51:40Z</time>
      </trkpt>
      <trkpt lat="48.51642" lon="2.28847">
        <ele>89.4</ele>
        <time>2026-02-02T12:51:41Z</time>
      </trkpt>
      <trkpt lat="48.5165" lon="2.28846">
        <ele>89.4</ele>
        <time>2026-02-02T12:51:42Z</time>
      </trkpt>
      <trkpt lat="48.51658" lon="2.28845">
        <ele>89.4</ele>
        <time>2026-02-02T12:51:43Z</time>
      </trkpt>
      <trkpt lat="48.51666" lon="2.28844">
        <ele>88.4</ele>
        <time>2026-02-02T12:51:44Z</time>
      </trkpt>
      <trkpt lat="48.51674" lon="2.28843">
        <ele>87.4</ele>
        <time>2026-02-02T12:51:45Z</time>
      </trkpt>
      <trkpt lat="48.51682" lon="2.28842">
        <ele>87.4</ele>
        <time>2026-02-02T12:51:46Z</time>
      </trkpt>
      <trkpt lat="48.5169" lon="2.28842">
        <ele>87.4</ele>
        <time>2026-02-02T12:51:47Z</time>
      </trkpt>
      <trkpt lat="48.51698" lon="2.28841">
        <ele>87.4</ele>
        <time>2026-02-02T12:51:48Z</time>
      </trkpt>
      <trkpt lat="48.51707" lon="2.2884">
        <ele>85.8</ele>
        <time>2026-02-02T12:51:49Z</time>
      </trkpt>
      <trkpt lat="48.51715" lon="2.28839">
        <ele>85.8</ele>
        <time>2026-02-02T12:51:50Z</time>
      </trkpt>
      <trkpt lat="48.51724" lon="2.28838">
        <ele>85.8</ele>
        <time>2026-02-02T12:51:51Z</time>
      </trkpt>
      <trkpt lat="48.51732" lon="2.28837">
        <ele>85.8</ele>
        <time>2026-02-02T12:51:52Z</time>
      </trkpt>
      <trkpt lat="48.51741" lon="2.28836">
        <ele>84.6</ele>
        <time>2026-02-02T12:51:53Z</time>
      </trkpt>
      <trkpt lat="48.5175" lon="2.28835">
        <ele>84.6</ele>
        <time>2026-02-02T12:51:54Z</time>
      </trkpt>
      <trkpt lat="48.51759" lon="2.28833">
        <ele>84.6</ele>
        <time>2026-02-02T12:51:55Z</time>
      </trkpt>
      <trkpt lat="48.51768" lon="2.28832">
        <ele>83.6</ele>
        <time>2026-02-02T12:51:56Z</time>
      </trkpt>
      <trkpt lat="48.51777" lon="2.28831">
        <ele>82</ele>
        <time>2026-02-02T12:51:57Z</time>
      </trkpt>
      <trkpt lat="48.51786" lon="2.2883">
        <ele>82</ele>
        <time>2026-02-02T12:51:58Z</time>
      </trkpt>
      <trkpt lat="48.51795" lon="2.2883">
        <ele>82</ele>
        <time>2026-02-02T12:51:59Z</time>
      </trkpt>
      <trkpt lat="48.51803" lon="2.28829">
        <ele>81</ele>
        <time>2026-02-02T12:52:00Z</time>
      </trkpt>
      <trkpt lat="48.5181" lon="2.28829">
        <ele>80.6</ele>
        <time>2026-02-02T12:52:01Z</time>
      </trkpt>
      <trkpt lat="48.51816" lon="2.28828">
        <ele>80.6</ele>
        <time>2026-02-02T12:52:02Z</time>
      </trkpt>
      <trkpt lat="48.51822" lon="2.28827">
        <ele>80.6</ele>
        <time>2026-02-02T12:52:03Z</time>
      </trkpt>
      <trkpt lat="48.51826" lon="2.28827">
        <ele>80.4</ele>
        <time>2026-02-02T12:52:04Z</time>
      </trkpt>
      <trkpt lat="48.51829" lon="2.28827">
        <ele>80.4</ele>
        <time>2026-02-02T12:52:05Z</time>
      </trkpt>
      <trkpt lat="48.5183" lon="2.28827">
        <ele>80.4</ele>
        <time>2026-02-02T12:52:06Z</time>
      </trkpt>
      <trkpt lat="48.51831" lon="2.28827">
        <ele>80.4</ele>
        <time>2026-02-02T12:52:07Z</time>
      </trkpt>
      <trkpt lat="48.51831" lon="2.28827">
        <ele>80.2</ele>
        <time>2026-02-02T12:52:08Z</time>
      </trkpt>
      <trkpt lat="48.51837" lon="2.28824">
        <ele>79.8</ele>
        <time>2026-02-02T12:52:28Z</time>
      </trkpt>
      <trkpt lat="48.5184" lon="2.28822">
        <ele>79.6</ele>
        <time>2026-02-02T12:52:29Z</time>
      </trkpt>
      <trkpt lat="48.51843" lon="2.28819">
        <ele>79.6</ele>
        <time>2026-02-02T12:52:30Z</time>
      </trkpt>
      <trkpt lat="48.51844" lon="2.28814">
        <ele>79.6</ele>
        <time>2026-02-02T12:52:31Z</time>
      </trkpt>
      <trkpt lat="48.51843" lon="2.28808">
        <ele>79.4</ele>
        <time>2026-02-02T12:52:32Z</time>
      </trkpt>
      <trkpt lat="48.51841" lon="2.28801">
        <ele>79.2</ele>
        <time>2026-02-02T12:52:33Z</time>
      </trkpt>
      <trkpt lat="48.51839" lon="2.28794">
        <ele>79.2</ele>
        <time>2026-02-02T12:52:34Z</time>
      </trkpt>
      <trkpt lat="48.51838" lon="2.28787">
        <ele>79.2</ele>
        <time>2026-02-02T12:52:35Z</time>
      </trkpt>
      <trkpt lat="48.51836" lon="2.28779">
        <ele>79.2</ele>
        <time>2026-02-02T12:52:36Z</time>
      </trkpt>
      <trkpt lat="48.51835" lon="2.28771">
        <ele>79.6</ele>
        <time>2026-02-02T12:52:37Z</time>
      </trkpt>
      <trkpt lat="48.51833" lon="2.28762">
        <ele>79.6</ele>
        <time>2026-02-02T12:52:38Z</time>
      </trkpt>
      <trkpt lat="48.51831" lon="2.28754">
        <ele>79.6</ele>
        <time>2026-02-02T12:52:39Z</time>
      </trkpt>
      <trkpt lat="48.51829" lon="2.28745">
        <ele>80.4</ele>
        <time>2026-02-02T12:52:40Z</time>
      </trkpt>
      <trkpt lat="48.51826" lon="2.28736">
        <ele>80</ele>
        <time>2026-02-02T12:52:41Z</time>
      </trkpt>
      <trkpt lat="48.51824" lon="2.28726">
        <ele>80</ele>
        <time>2026-02-02T12:52:42Z</time>
      </trkpt>
      <trkpt lat="48.51822" lon="2.28717">
        <ele>80</ele>
        <time>2026-02-02T12:52:43Z</time>
      </trkpt>
      <trkpt lat="48.5182" lon="2.28707">
        <ele>81</ele>
        <time>2026-02-02T12:52:44Z</time>
      </trkpt>
      <trkpt lat="48.51818" lon="2.28698">
        <ele>81</ele>
        <time>2026-02-02T12:52:45Z</time>
      </trkpt>
      <trkpt lat="48.51817" lon="2.28689">
        <ele>81</ele>
        <time>2026-02-02T12:52:46Z</time>
      </trkpt>
      <trkpt lat="48.51815" lon="2.28679">
        <ele>81</ele>
        <time>2026-02-02T12:52:47Z</time>
      </trkpt>
      <trkpt lat="48.51815" lon="2.2867">
        <ele>81</ele>
        <time>2026-02-02T12:52:48Z</time>
      </trkpt>
      <trkpt lat="48.51814" lon="2.28661">
        <ele>81.4</ele>
        <time>2026-02-02T12:52:49Z</time>
      </trkpt>
      <trkpt lat="48.51814" lon="2.28651">
        <ele>81.4</ele>
        <time>2026-02-02T12:52:50Z</time>
      </trkpt>
      <trkpt lat="48.51814" lon="2.28642">
        <ele>81.4</ele>
        <time>2026-02-02T12:52:51Z</time>
      </trkpt>
      <trkpt lat="48.51814" lon="2.28633">
        <ele>82.4</ele>
        <time>2026-02-02T12:52:52Z</time>
      </trkpt>
      <trkpt lat="48.51813" lon="2.28624">
        <ele>82.6</ele>
        <time>2026-02-02T12:52:53Z</time>
      </trkpt>
      <trkpt lat="48.51813" lon="2.28615">
        <ele>82.6</ele>
        <time>2026-02-02T12:52:54Z</time>
      </trkpt>
      <trkpt lat="48.51814" lon="2.28606">
        <ele>82.6</ele>
        <time>2026-02-02T12:52:55Z</time>
      </trkpt>
      <trkpt lat="48.51814" lon="2.28597">
        <ele>82.6</ele>
        <time>2026-02-02T12:52:56Z</time>
      </trkpt>
      <trkpt lat="48.51814" lon="2.28587">
        <ele>82.6</ele>
        <time>2026-02-02T12:52:57Z</time>
      </trkpt>
      <trkpt lat="48.51814" lon="2.28578">
        <ele>82.6</ele>
        <time>2026-02-02T12:52:58Z</time>
      </trkpt>
      <trkpt lat="48.51814" lon="2.28569">
        <ele>82.6</ele>
        <time>2026-02-02T12:52:59Z</time>
      </trkpt>
      <trkpt lat="48.51814" lon="2.28559">
        <ele>82.8</ele>
        <time>2026-02-02T12:53:00Z</time>
      </trkpt>
      <trkpt lat="48.51815" lon="2.2855">
        <ele>83.6</ele>
        <time>2026-02-02T12:53:01Z</time>
      </trkpt>
      <trkpt lat="48.51815" lon="2.2854">
        <ele>83.6</ele>
        <time>2026-02-02T12:53:02Z</time>
      </trkpt>
      <trkpt lat="48.51816" lon="2.28531">
        <ele>83.6</ele>
        <time>2026-02-02T12:53:03Z</time>
      </trkpt>
      <trkpt lat="48.51817" lon="2.28521">
        <ele>83.6</ele>
        <time>2026-02-02T12:53:04Z</time>
      </trkpt>
      <trkpt lat="48.51818" lon="2.28512">
        <ele>83.6</ele>
        <time>2026-02-02T12:53:05Z</time>
      </trkpt>
      <trkpt lat="48.51819" lon="2.28502">
        <ele>83.6</ele>
        <time>2026-02-02T12:53:06Z</time>
      </trkpt>
      <trkpt lat="48.51819" lon="2.28493">
        <ele>83.6</ele>
        <time>2026-02-02T12:53:07Z</time>
      </trkpt>
      <trkpt lat="48.5182" lon="2.28483">
        <ele>83.6</ele>
        <time>2026-02-02T12:53:08Z</time>
      </trkpt>
      <trkpt lat="48.51821" lon="2.28474">
        <ele>83.8</ele>
        <time>2026-02-02T12:53:09Z</time>
      </trkpt>
      <trkpt lat="48.51822" lon="2.28464">
        <ele>83.8</ele>
        <time>2026-02-02T12:53:10Z</time>
      </trkpt>
      <trkpt lat="48.51823" lon="2.28455">
        <ele>83.8</ele>
        <time>2026-02-02T12:53:11Z</time>
      </trkpt>
      <trkpt lat="48.51824" lon="2.28445">
        <ele>83.6</ele>
        <time>2026-02-02T12:53:12Z</time>
      </trkpt>
      <trkpt lat="48.51825" lon="2.28436">
        <ele>83.6</ele>
        <time>2026-02-02T12:53:13Z</time>
      </trkpt>
      <trkpt lat="48.51826" lon="2.28426">
        <ele>83.6</ele>
        <time>2026-02-02T12:53:14Z</time>
      </trkpt>
      <trkpt lat="48.51827" lon="2.28417">
        <ele>83.6</ele>
        <time>2026-02-02T12:53:15Z</time>
      </trkpt>
      <trkpt lat="48.51828" lon="2.28407">
        <ele>83.6</ele>
        <time>2026-02-02T12:53:16Z</time>
      </trkpt>
      <trkpt lat="48.51828" lon="2.28398">
        <ele>84</ele>
        <time>2026-02-02T12:53:17Z</time>
      </trkpt>
      <trkpt lat="48.51828" lon="2.28388">
        <ele>84</ele>
        <time>2026-02-02T12:53:18Z</time>
      </trkpt>
      <trkpt lat="48.51828" lon="2.28379">
        <ele>84</ele>
        <time>2026-02-02T12:53:19Z</time>
      </trkpt>
      <trkpt lat="48.51829" lon="2.28369">
        <ele>84.8</ele>
        <time>2026-02-02T12:53:20Z</time>
      </trkpt>
      <trkpt lat="48.51829" lon="2.2836">
        <ele>84.4</ele>
        <time>2026-02-02T12:53:21Z</time>
      </trkpt>
      <trkpt lat="48.5183" lon="2.2835">
        <ele>84.4</ele>
        <time>2026-02-02T12:53:22Z</time>
      </trkpt>
      <trkpt lat="48.5183" lon="2.28341">
        <ele>84.4</ele>
        <time>2026-02-02T12:53:23Z</time>
      </trkpt>
      <trkpt lat="48.51831" lon="2.28331">
        <ele>84.4</ele>
        <time>2026-02-02T12:53:24Z</time>
      </trkpt>
      <trkpt lat="48.51832" lon="2.28322">
        <ele>84.6</ele>
        <time>2026-02-02T12:53:25Z</time>
      </trkpt>
      <trkpt lat="48.51833" lon="2.28312">
        <ele>84.6</ele>
        <time>2026-02-02T12:53:26Z</time>
      </trkpt>
      <trkpt lat="48.51834" lon="2.28302">
        <ele>84.6</ele>
        <time>2026-02-02T12:53:27Z</time>
      </trkpt>
      <trkpt lat="48.51834" lon="2.28293">
        <ele>85.2</ele>
        <time>2026-02-02T12:53:28Z</time>
      </trkpt>
      <trkpt lat="48.51835" lon="2.28283">
        <ele>84.8</ele>
        <time>2026-02-02T12:53:29Z</time>
      </trkpt>
      <trkpt lat="48.51836" lon="2.28273">
        <ele>84.8</ele>
        <time>2026-02-02T12:53:30Z</time>
      </trkpt>
      <trkpt lat="48.51836" lon="2.28263">
        <ele>84.8</ele>
        <time>2026-02-02T12:53:31Z</time>
      </trkpt>
      <trkpt lat="48.51837" lon="2.28254">
        <ele>85</ele>
        <time>2026-02-02T12:53:32Z</time>
      </trkpt>
      <trkpt lat="48.51838" lon="2.28244">
        <ele>85</ele>
        <time>2026-02-02T12:53:33Z</time>
      </trkpt>
      <trkpt lat="48.51839" lon="2.28234">
        <ele>85</ele>
        <time>2026-02-02T12:53:34Z</time>
      </trkpt>
      <trkpt lat="48.5184" lon="2.28224">
        <ele>85</ele>
        <time>2026-02-02T12:53:35Z</time>
      </trkpt>
      <trkpt lat="48.51841" lon="2.28214">
        <ele>85.8</ele>
        <time>2026-02-02T12:53:36Z</time>
      </trkpt>
      <trkpt lat="48.51842" lon="2.28204">
        <ele>84.8</ele>
        <time>2026-02-02T12:53:37Z</time>
      </trkpt>
      <trkpt lat="48.51844" lon="2.28194">
        <ele>84.8</ele>
        <time>2026-02-02T12:53:38Z</time>
      </trkpt>
      <trkpt lat="48.51846" lon="2.28184">
        <ele>84.8</ele>
        <time>2026-02-02T12:53:39Z</time>
      </trkpt>
      <trkpt lat="48.51848" lon="2.28174">
        <ele>84.8</ele>
        <time>2026-02-02T12:53:40Z</time>
      </trkpt>
      <trkpt lat="48.51851" lon="2.28164">
        <ele>84.8</ele>
        <time>2026-02-02T12:53:41Z</time>
      </trkpt>
      <trkpt lat="48.51853" lon="2.28154">
        <ele>84.8</ele>
        <time>2026-02-02T12:53:42Z</time>
      </trkpt>
      <trkpt lat="48.51857" lon="2.28145">
        <ele>84.8</ele>
        <time>2026-02-02T12:53:43Z</time>
      </trkpt>
      <trkpt lat="48.51861" lon="2.28135">
        <ele>85</ele>
        <time>2026-02-02T12:53:44Z</time>
      </trkpt>
      <trkpt lat="48.51865" lon="2.28126">
        <ele>84.4</ele>
        <time>2026-02-02T12:53:45Z</time>
      </trkpt>
      <trkpt lat="48.51869" lon="2.28116">
        <ele>84.4</ele>
        <time>2026-02-02T12:53:46Z</time>
      </trkpt>
      <trkpt lat="48.51873" lon="2.28107">
        <ele>84.4</ele>
        <time>2026-02-02T12:53:47Z</time>
      </trkpt>
      <trkpt lat="48.51878" lon="2.28098">
        <ele>84.4</ele>
        <time>2026-02-02T12:53:48Z</time>
      </trkpt>
      <trkpt lat="48.51882" lon="2.28088">
        <ele>84</ele>
        <time>2026-02-02T12:53:49Z</time>
      </trkpt>
      <trkpt lat="48.51887" lon="2.28079">
        <ele>84</ele>
        <time>2026-02-02T12:53:50Z</time>
      </trkpt>
      <trkpt lat="48.51892" lon="2.28069">
        <ele>84</ele>
        <time>2026-02-02T12:53:51Z</time>
      </trkpt>
      <trkpt lat="48.51897" lon="2.2806">
        <ele>83.6</ele>
        <time>2026-02-02T12:53:52Z</time>
      </trkpt>
      <trkpt lat="48.51901" lon="2.2805">
        <ele>84.2</ele>
        <time>2026-02-02T12:53:53Z</time>
      </trkpt>
      <trkpt lat="48.51906" lon="2.2804">
        <ele>84.2</ele>
        <time>2026-02-02T12:53:54Z</time>
      </trkpt>
      <trkpt lat="48.51909" lon="2.28029">
        <ele>84.2</ele>
        <time>2026-02-02T12:53:55Z</time>
      </trkpt>
      <trkpt lat="48.51911" lon="2.28017">
        <ele>83.2</ele>
        <time>2026-02-02T12:53:56Z</time>
      </trkpt>
      <trkpt lat="48.51911" lon="2.28005">
        <ele>82.8</ele>
        <time>2026-02-02T12:53:57Z</time>
      </trkpt>
      <trkpt lat="48.51911" lon="2.27993">
        <ele>82.8</ele>
        <time>2026-02-02T12:53:58Z</time>
      </trkpt>
      <trkpt lat="48.51911" lon="2.27982">
        <ele>82.8</ele>
        <time>2026-02-02T12:53:59Z</time>
      </trkpt>
      <trkpt lat="48.51912" lon="2.2797">
        <ele>83.6</ele>
        <time>2026-02-02T12:54:00Z</time>
      </trkpt>
      <trkpt lat="48.51913" lon="2.27959">
        <ele>83.6</ele>
        <time>2026-02-02T12:54:01Z</time>
      </trkpt>
      <trkpt lat="48.51914" lon="2.27948">
        <ele>83.6</ele>
        <time>2026-02-02T12:54:02Z</time>
      </trkpt>
      <trkpt lat="48.51916" lon="2.27938">
        <ele>83.6</ele>
        <time>2026-02-02T12:54:03Z</time>
      </trkpt>
      <trkpt lat="48.51918" lon="2.27927">
        <ele>84.4</ele>
        <time>2026-02-02T12:54:04Z</time>
      </trkpt>
      <trkpt lat="48.5192" lon="2.27917">
        <ele>84.6</ele>
        <time>2026-02-02T12:54:05Z</time>
      </trkpt>
      <trkpt lat="48.51922" lon="2.27907">
        <ele>84.6</ele>
        <time>2026-02-02T12:54:06Z</time>
      </trkpt>
      <trkpt lat="48.51924" lon="2.27896">
        <ele>84.6</ele>
        <time>2026-02-02T12:54:07Z</time>
      </trkpt>
      <trkpt lat="48.51926" lon="2.27886">
        <ele>84.6</ele>
        <time>2026-02-02T12:54:08Z</time>
      </trkpt>
      <trkpt lat="48.51928" lon="2.27875">
        <ele>85</ele>
        <time>2026-02-02T12:54:09Z</time>
      </trkpt>
      <trkpt lat="48.5193" lon="2.27865">
        <ele>85</ele>
        <time>2026-02-02T12:54:10Z</time>
      </trkpt>
      <trkpt lat="48.51932" lon="2.27856">
        <ele>85</ele>
        <time>2026-02-02T12:54:11Z</time>
      </trkpt>
      <trkpt lat="48.51934" lon="2.27846">
        <ele>85</ele>
        <time>2026-02-02T12:54:12Z</time>
      </trkpt>
      <trkpt lat="48.51936" lon="2.27836">
        <ele>85.4</ele>
        <time>2026-02-02T12:54:13Z</time>
      </trkpt>
      <trkpt lat="48.51938" lon="2.27825">
        <ele>85.4</ele>
        <time>2026-02-02T12:54:14Z</time>
      </trkpt>
      <trkpt lat="48.5194" lon="2.27815">
        <ele>85.4</ele>
        <time>2026-02-02T12:54:15Z</time>
      </trkpt>
      <trkpt lat="48.51942" lon="2.27805">
        <ele>85.6</ele>
        <time>2026-02-02T12:54:16Z</time>
      </trkpt>
      <trkpt lat="48.51944" lon="2.27795">
        <ele>86</ele>
        <time>2026-02-02T12:54:17Z</time>
      </trkpt>
      <trkpt lat="48.51946" lon="2.27785">
        <ele>86</ele>
        <time>2026-02-02T12:54:18Z</time>
      </trkpt>
      <trkpt lat="48.51947" lon="2.27775">
        <ele>86</ele>
        <time>2026-02-02T12:54:19Z</time>
      </trkpt>
      <trkpt lat="48.51949" lon="2.27765">
        <ele>86</ele>
        <time>2026-02-02T12:54:20Z</time>
      </trkpt>
      <trkpt lat="48.51951" lon="2.27755">
        <ele>86</ele>
        <time>2026-02-02T12:54:21Z</time>
      </trkpt>
      <trkpt lat="48.51953" lon="2.27745">
        <ele>86</ele>
        <time>2026-02-02T12:54:22Z</time>
      </trkpt>
      <trkpt lat="48.51955" lon="2.27735">
        <ele>86</ele>
        <time>2026-02-02T12:54:23Z</time>
      </trkpt>
      <trkpt lat="48.51957" lon="2.27725">
        <ele>86</ele>
        <time>2026-02-02T12:54:24Z</time>
      </trkpt>
      <trkpt lat="48.51958" lon="2.27715">
        <ele>86</ele>
        <time>2026-02-02T12:54:25Z</time>
      </trkpt>
      <trkpt lat="48.5196" lon="2.27705">
        <ele>86</ele>
        <time>2026-02-02T12:54:26Z</time>
      </trkpt>
      <trkpt lat="48.51962" lon="2.27694">
        <ele>86</ele>
        <time>2026-02-02T12:54:27Z</time>
      </trkpt>
      <trkpt lat="48.51963" lon="2.27684">
        <ele>86.6</ele>
        <time>2026-02-02T12:54:28Z</time>
      </trkpt>
      <trkpt lat="48.51965" lon="2.27674">
        <ele>86.2</ele>
        <time>2026-02-02T12:54:29Z</time>
      </trkpt>
      <trkpt lat="48.51966" lon="2.27663">
        <ele>86.2</ele>
        <time>2026-02-02T12:54:30Z</time>
      </trkpt>
      <trkpt lat="48.51968" lon="2.27653">
        <ele>86.2</ele>
        <time>2026-02-02T12:54:31Z</time>
      </trkpt>
      <trkpt lat="48.51971" lon="2.27643">
        <ele>86.2</ele>
        <time>2026-02-02T12:54:32Z</time>
      </trkpt>
      <trkpt lat="48.51972" lon="2.27633">
        <ele>86.6</ele>
        <time>2026-02-02T12:54:33Z</time>
      </trkpt>
      <trkpt lat="48.51974" lon="2.27623">
        <ele>86.6</ele>
        <time>2026-02-02T12:54:34Z</time>
      </trkpt>
      <trkpt lat="48.51976" lon="2.27612">
        <ele>86.6</ele>
        <time>2026-02-02T12:54:35Z</time>
      </trkpt>
      <trkpt lat="48.51977" lon="2.27602">
        <ele>86.2</ele>
        <time>2026-02-02T12:54:36Z</time>
      </trkpt>
      <trkpt lat="48.51979" lon="2.27591">
        <ele>86.4</ele>
        <time>2026-02-02T12:54:37Z</time>
      </trkpt>
      <trkpt lat="48.51981" lon="2.2758">
        <ele>86.4</ele>
        <time>2026-02-02T12:54:38Z</time>
      </trkpt>
      <trkpt lat="48.51982" lon="2.27569">
        <ele>86.4</ele>
        <time>2026-02-02T12:54:39Z</time>
      </trkpt>
      <trkpt lat="48.51984" lon="2.27558">
        <ele>86.4</ele>
        <time>2026-02-02T12:54:40Z</time>
      </trkpt>
      <trkpt lat="48.51986" lon="2.27548">
        <ele>86.4</ele>
        <time>2026-02-02T12:54:41Z</time>
      </trkpt>
      <trkpt lat="48.51987" lon="2.27536">
        <ele>86.4</ele>
        <time>2026-02-02T12:54:42Z</time>
      </trkpt>
      <trkpt lat="48.51989" lon="2.27525">
        <ele>86.4</ele>
        <time>2026-02-02T12:54:43Z</time>
      </trkpt>
      <trkpt lat="48.5199" lon="2.27515">
        <ele>86.4</ele>
        <time>2026-02-02T12:54:44Z</time>
      </trkpt>
      <trkpt lat="48.51992" lon="2.27504">
        <ele>86.6</ele>
        <time>2026-02-02T12:54:45Z</time>
      </trkpt>
      <trkpt lat="48.51993" lon="2.27493">
        <ele>86.6</ele>
        <time>2026-02-02T12:54:46Z</time>
      </trkpt>
      <trkpt lat="48.51994" lon="2.27483">
        <ele>86.6</ele>
        <time>2026-02-02T12:54:47Z</time>
      </trkpt>
      <trkpt lat="48.51995" lon="2.27473">
        <ele>86.6</ele>
        <time>2026-02-02T12:54:48Z</time>
      </trkpt>
      <trkpt lat="48.51996" lon="2.27463">
        <ele>87.8</ele>
        <time>2026-02-02T12:54:49Z</time>
      </trkpt>
      <trkpt lat="48.51997" lon="2.27455">
        <ele>87.8</ele>
        <time>2026-02-02T12:54:50Z</time>
      </trkpt>
      <trkpt lat="48.51998" lon="2.27445">
        <ele>87.8</ele>
        <time>2026-02-02T12:54:51Z</time>
      </trkpt>
      <trkpt lat="48.51999" lon="2.27435">
        <ele>87.2</ele>
        <time>2026-02-02T12:54:52Z</time>
      </trkpt>
      <trkpt lat="48.51999" lon="2.27424">
        <ele>86.8</ele>
        <time>2026-02-02T12:54:53Z</time>
      </trkpt>
      <trkpt lat="48.51999" lon="2.27413">
        <ele>86.8</ele>
        <time>2026-02-02T12:54:54Z</time>
      </trkpt>
      <trkpt lat="48.52" lon="2.27402">
        <ele>86.8</ele>
        <time>2026-02-02T12:54:55Z</time>
      </trkpt>
      <trkpt lat="48.52" lon="2.27391">
        <ele>87.2</ele>
        <time>2026-02-02T12:54:56Z</time>
      </trkpt>
      <trkpt lat="48.52" lon="2.2738">
        <ele>87</ele>
        <time>2026-02-02T12:54:57Z</time>
      </trkpt>
      <trkpt lat="48.52001" lon="2.27368">
        <ele>87</ele>
        <time>2026-02-02T12:54:58Z</time>
      </trkpt>
      <trkpt lat="48.52002" lon="2.27357">
        <ele>87</ele>
        <time>2026-02-02T12:54:59Z</time>
      </trkpt>
      <trkpt lat="48.52002" lon="2.27345">
        <ele>86.6</ele>
        <time>2026-02-02T12:55:00Z</time>
      </trkpt>
      <trkpt lat="48.52003" lon="2.27333">
        <ele>86</ele>
        <time>2026-02-02T12:55:01Z</time>
      </trkpt>
      <trkpt lat="48.52003" lon="2.27321">
        <ele>86</ele>
        <time>2026-02-02T12:55:02Z</time>
      </trkpt>
      <trkpt lat="48.52004" lon="2.27309">
        <ele>86</ele>
        <time>2026-02-02T12:55:03Z</time>
      </trkpt>
      <trkpt lat="48.52005" lon="2.27297">
        <ele>86</ele>
        <time>2026-02-02T12:55:04Z</time>
      </trkpt>
      <trkpt lat="48.52005" lon="2.27284">
        <ele>85.4</ele>
        <time>2026-02-02T12:55:05Z</time>
      </trkpt>
      <trkpt lat="48.52005" lon="2.27272">
        <ele>85.4</ele>
        <time>2026-02-02T12:55:06Z</time>
      </trkpt>
      <trkpt lat="48.52006" lon="2.2726">
        <ele>85.4</ele>
        <time>2026-02-02T12:55:07Z</time>
      </trkpt>
      <trkpt lat="48.52007" lon="2.27248">
        <ele>84.8</ele>
        <time>2026-02-02T12:55:08Z</time>
      </trkpt>
      <trkpt lat="48.52007" lon="2.27236">
        <ele>84.2</ele>
        <time>2026-02-02T12:55:09Z</time>
      </trkpt>
      <trkpt lat="48.52008" lon="2.27223">
        <ele>84.2</ele>
        <time>2026-02-02T12:55:10Z</time>
      </trkpt>
      <trkpt lat="48.52008" lon="2.2721">
        <ele>84.2</ele>
        <time>2026-02-02T12:55:11Z</time>
      </trkpt>
      <trkpt lat="48.52008" lon="2.27197">
        <ele>83.6</ele>
        <time>2026-02-02T12:55:12Z</time>
      </trkpt>
      <trkpt lat="48.52008" lon="2.27183">
        <ele>83.2</ele>
        <time>2026-02-02T12:55:13Z</time>
      </trkpt>
      <trkpt lat="48.52008" lon="2.27169">
        <ele>83.2</ele>
        <time>2026-02-02T12:55:14Z</time>
      </trkpt>
      <trkpt lat="48.52007" lon="2.27155">
        <ele>83.2</ele>
        <time>2026-02-02T12:55:15Z</time>
      </trkpt>
      <trkpt lat="48.52006" lon="2.27141">
        <ele>82.8</ele>
        <time>2026-02-02T12:55:16Z</time>
      </trkpt>
      <trkpt lat="48.52004" lon="2.27127">
        <ele>82</ele>
        <time>2026-02-02T12:55:17Z</time>
      </trkpt>
      <trkpt lat="48.52001" lon="2.27113">
        <ele>82</ele>
        <time>2026-02-02T12:55:18Z</time>
      </trkpt>
      <trkpt lat="48.51998" lon="2.271">
        <ele>82</ele>
        <time>2026-02-02T12:55:19Z</time>
      </trkpt>
      <trkpt lat="48.51994" lon="2.27087">
        <ele>82</ele>
        <time>2026-02-02T12:55:20Z</time>
      </trkpt>
      <trkpt lat="48.51992" lon="2.27073">
        <ele>81.4</ele>
        <time>2026-02-02T12:55:21Z</time>
      </trkpt>
      <trkpt lat="48.51991" lon="2.27059">
        <ele>81.4</ele>
        <time>2026-02-02T12:55:22Z</time>
      </trkpt>
      <trkpt lat="48.51991" lon="2.27045">
        <ele>81.4</ele>
        <time>2026-02-02T12:55:23Z</time>
      </trkpt>
      <trkpt lat="48.51993" lon="2.27031">
        <ele>80.4</ele>
        <time>2026-02-02T12:55:24Z</time>
      </trkpt>
      <trkpt lat="48.51997" lon="2.27018">
        <ele>80.2</ele>
        <time>2026-02-02T12:55:25Z</time>
      </trkpt>
      <trkpt lat="48.52002" lon="2.27006">
        <ele>80.2</ele>
        <time>2026-02-02T12:55:26Z</time>
      </trkpt>
      <trkpt lat="48.52007" lon="2.26995">
        <ele>80.2</ele>
        <time>2026-02-02T12:55:27Z</time>
      </trkpt>
      <trkpt lat="48.52013" lon="2.26984">
        <ele>80</ele>
        <time>2026-02-02T12:55:28Z</time>
      </trkpt>
      <trkpt lat="48.52019" lon="2.26974">
        <ele>79.8</ele>
        <time>2026-02-02T12:55:29Z</time>
      </trkpt>
      <trkpt lat="48.52024" lon="2.26963">
        <ele>79.8</ele>
        <time>2026-02-02T12:55:30Z</time>
      </trkpt>
      <trkpt lat="48.5203" lon="2.26953">
        <ele>79.8</ele>
        <time>2026-02-02T12:55:31Z</time>
      </trkpt>
      <trkpt lat="48.52035" lon="2.26943">
        <ele>79.6</ele>
        <time>2026-02-02T12:55:32Z</time>
      </trkpt>
      <trkpt lat="48.5204" lon="2.26933">
        <ele>79.8</ele>
        <time>2026-02-02T12:55:33Z</time>
      </trkpt>
      <trkpt lat="48.52045" lon="2.26923">
        <ele>79.8</ele>
        <time>2026-02-02T12:55:34Z</time>
      </trkpt>
      <trkpt lat="48.5205" lon="2.26914">
        <ele>79.8</ele>
        <time>2026-02-02T12:55:35Z</time>
      </trkpt>
      <trkpt lat="48.52055" lon="2.26906">
        <ele>80</ele>
        <time>2026-02-02T12:55:36Z</time>
      </trkpt>
      <trkpt lat="48.52059" lon="2.26898">
        <ele>79.8</ele>
        <time>2026-02-02T12:55:37Z</time>
      </trkpt>
      <trkpt lat="48.52064" lon="2.2689">
        <ele>79.8</ele>
        <time>2026-02-02T12:55:38Z</time>
      </trkpt>
      <trkpt lat="48.52068" lon="2.26883">
        <ele>79.8</ele>
        <time>2026-02-02T12:55:39Z</time>
      </trkpt>
      <trkpt lat="48.52072" lon="2.26876">
        <ele>80.2</ele>
        <time>2026-02-02T12:55:40Z</time>
      </trkpt>
      <trkpt lat="48.52076" lon="2.26869">
        <ele>81</ele>
        <time>2026-02-02T12:55:41Z</time>
      </trkpt>
      <trkpt lat="48.52079" lon="2.26862">
        <ele>81</ele>
        <time>2026-02-02T12:55:42Z</time>
      </trkpt>
      <trkpt lat="48.52083" lon="2.26855">
        <ele>81</ele>
        <time>2026-02-02T12:55:43Z</time>
      </trkpt>
      <trkpt lat="48.52087" lon="2.26846">
        <ele>80</ele>
        <time>2026-02-02T12:55:44Z</time>
      </trkpt>
      <trkpt lat="48.52092" lon="2.26838">
        <ele>79.6</ele>
        <time>2026-02-02T12:55:45Z</time>
      </trkpt>
      <trkpt lat="48.52096" lon="2.26828">
        <ele>79.6</ele>
        <time>2026-02-02T12:55:46Z</time>
      </trkpt>
      <trkpt lat="48.52101" lon="2.26819">
        <ele>79.6</ele>
        <time>2026-02-02T12:55:47Z</time>
      </trkpt>
      <trkpt lat="48.52106" lon="2.2681">
        <ele>79.6</ele>
        <time>2026-02-02T12:55:48Z</time>
      </trkpt>
      <trkpt lat="48.52111" lon="2.26801">
        <ele>78.8</ele>
        <time>2026-02-02T12:55:49Z</time>
      </trkpt>
      <trkpt lat="48.52116" lon="2.26791">
        <ele>78.8</ele>
        <time>2026-02-02T12:55:50Z</time>
      </trkpt>
      <trkpt lat="48.52121" lon="2.26782">
        <ele>78.8</ele>
        <time>2026-02-02T12:55:51Z</time>
      </trkpt>
      <trkpt lat="48.52126" lon="2.26772">
        <ele>77.8</ele>
        <time>2026-02-02T12:55:52Z</time>
      </trkpt>
      <trkpt lat="48.52131" lon="2.26763">
        <ele>78</ele>
        <time>2026-02-02T12:55:53Z</time>
      </trkpt>
      <trkpt lat="48.52135" lon="2.26754">
        <ele>78</ele>
        <time>2026-02-02T12:55:54Z</time>
      </trkpt>
      <trkpt lat="48.52139" lon="2.26746">
        <ele>78</ele>
        <time>2026-02-02T12:55:55Z</time>
      </trkpt>
      <trkpt lat="48.52143" lon="2.26738">
        <ele>78.6</ele>
        <time>2026-02-02T12:55:56Z</time>
      </trkpt>
      <trkpt lat="48.52147" lon="2.2673">
        <ele>78.8</ele>
        <time>2026-02-02T12:55:57Z</time>
      </trkpt>
      <trkpt lat="48.52151" lon="2.26722">
        <ele>78.8</ele>
        <time>2026-02-02T12:55:58Z</time>
      </trkpt>
      <trkpt lat="48.52155" lon="2.26714">
        <ele>78.8</ele>
        <time>2026-02-02T12:55:59Z</time>
      </trkpt>
      <trkpt lat="48.52159" lon="2.26706">
        <ele>79.8</ele>
        <time>2026-02-02T12:56:00Z</time>
      </trkpt>
      <trkpt lat="48.52162" lon="2.26698">
        <ele>79.8</ele>
        <time>2026-02-02T12:56:01Z</time>
      </trkpt>
      <trkpt lat="48.52166" lon="2.2669">
        <ele>79.8</ele>
        <time>2026-02-02T12:56:02Z</time>
      </trkpt>
      <trkpt lat="48.52169" lon="2.26683">
        <ele>79.8</ele>
        <time>2026-02-02T12:56:03Z</time>
      </trkpt>
      <trkpt lat="48.52172" lon="2.26675">
        <ele>80.4</ele>
        <time>2026-02-02T12:56:04Z</time>
      </trkpt>
      <trkpt lat="48.52176" lon="2.26668">
        <ele>80.4</ele>
        <time>2026-02-02T12:56:05Z</time>
      </trkpt>
      <trkpt lat="48.52179" lon="2.26661">
        <ele>80.4</ele>
        <time>2026-02-02T12:56:06Z</time>
      </trkpt>
      <trkpt lat="48.52183" lon="2.26655">
        <ele>80.4</ele>
        <time>2026-02-02T12:56:07Z</time>
      </trkpt>
      <trkpt lat="48.52186" lon="2.26649">
        <ele>81.2</ele>
        <time>2026-02-02T12:56:08Z</time>
      </trkpt>
      <trkpt lat="48.5219" lon="2.26644">
        <ele>81</ele>
        <time>2026-02-02T12:56:09Z</time>
      </trkpt>
      <trkpt lat="48.52193" lon="2.26638">
        <ele>81</ele>
        <time>2026-02-02T12:56:10Z</time>
      </trkpt>
      <trkpt lat="48.52195" lon="2.26633">
        <ele>81</ele>
        <time>2026-02-02T12:56:11Z</time>
      </trkpt>
      <trkpt lat="48.52198" lon="2.26628">
        <ele>82</ele>
        <time>2026-02-02T12:56:12Z</time>
      </trkpt>
      <trkpt lat="48.522" lon="2.26624">
        <ele>82</ele>
        <time>2026-02-02T12:56:13Z</time>
      </trkpt>
      <trkpt lat="48.52202" lon="2.26621">
        <ele>82</ele>
        <time>2026-02-02T12:56:14Z</time>
      </trkpt>
      <trkpt lat="48.52203" lon="2.2662">
        <ele>82</ele>
        <time>2026-02-02T12:56:15Z</time>
      </trkpt>
      <trkpt lat="48.52205" lon="2.26619">
        <ele>82</ele>
        <time>2026-02-02T12:56:16Z</time>
      </trkpt>
      <trkpt lat="48.52207" lon="2.2662">
        <ele>82</ele>
        <time>2026-02-02T12:56:17Z</time>
      </trkpt>
      <trkpt lat="48.52209" lon="2.26622">
        <ele>82</ele>
        <time>2026-02-02T12:56:18Z</time>
      </trkpt>
      <trkpt lat="48.52211" lon="2.26625">
        <ele>82</ele>
        <time>2026-02-02T12:56:19Z</time>
      </trkpt>
      <trkpt lat="48.52212" lon="2.26629">
        <ele>82</ele>
        <time>2026-02-02T12:56:20Z</time>
      </trkpt>
      <trkpt lat="48.52214" lon="2.26634">
        <ele>82</ele>
        <time>2026-02-02T12:56:21Z</time>
      </trkpt>
      <trkpt lat="48.52216" lon="2.2664">
        <ele>82</ele>
        <time>2026-02-02T12:56:22Z</time>
      </trkpt>
      <trkpt lat="48.52218" lon="2.26645">
        <ele>82</ele>
        <time>2026-02-02T12:56:23Z</time>
      </trkpt>
      <trkpt lat="48.52219" lon="2.2665">
        <ele>82.6</ele>
        <time>2026-02-02T12:56:24Z</time>
      </trkpt>
      <trkpt lat="48.52222" lon="2.26656">
        <ele>82.6</ele>
        <time>2026-02-02T12:56:25Z</time>
      </trkpt>
      <trkpt lat="48.52224" lon="2.2666">
        <ele>82.6</ele>
        <time>2026-02-02T12:56:26Z</time>
      </trkpt>
      <trkpt lat="48.52227" lon="2.26663">
        <ele>82.6</ele>
        <time>2026-02-02T12:56:27Z</time>
      </trkpt>
      <trkpt lat="48.52231" lon="2.26663">
        <ele>82.6</ele>
        <time>2026-02-02T12:56:28Z</time>
      </trkpt>
      <trkpt lat="48.52235" lon="2.26661">
        <ele>82.4</ele>
        <time>2026-02-02T12:56:29Z</time>
      </trkpt>
      <trkpt lat="48.52239" lon="2.26659">
        <ele>82.4</ele>
        <time>2026-02-02T12:56:30Z</time>
      </trkpt>
      <trkpt lat="48.52242" lon="2.26655">
        <ele>82.4</ele>
        <time>2026-02-02T12:56:31Z</time>
      </trkpt>
      <trkpt lat="48.52246" lon="2.26651">
        <ele>82.8</ele>
        <time>2026-02-02T12:56:32Z</time>
      </trkpt>
      <trkpt lat="48.52249" lon="2.26647">
        <ele>83.2</ele>
        <time>2026-02-02T12:56:33Z</time>
      </trkpt>
      <trkpt lat="48.52252" lon="2.26644">
        <ele>83.2</ele>
        <time>2026-02-02T12:56:34Z</time>
      </trkpt>
      <trkpt lat="48.52256" lon="2.26641">
        <ele>83.2</ele>
        <time>2026-02-02T12:56:35Z</time>
      </trkpt>
      <trkpt lat="48.5226" lon="2.26638">
        <ele>83.2</ele>
        <time>2026-02-02T12:56:36Z</time>
      </trkpt>
      <trkpt lat="48.52264" lon="2.26634">
        <ele>83.6</ele>
        <time>2026-02-02T12:56:37Z</time>
      </trkpt>
      <trkpt lat="48.52268" lon="2.26631">
        <ele>83.6</ele>
        <time>2026-02-02T12:56:38Z</time>
      </trkpt>
      <trkpt lat="48.52272" lon="2.26628">
        <ele>83.6</ele>
        <time>2026-02-02T12:56:39Z</time>
      </trkpt>
      <trkpt lat="48.52275" lon="2.26625">
        <ele>83.6</ele>
        <time>2026-02-02T12:56:40Z</time>
      </trkpt>
      <trkpt lat="48.52279" lon="2.26622">
        <ele>84.2</ele>
        <time>2026-02-02T12:56:41Z</time>
      </trkpt>
      <trkpt lat="48.52282" lon="2.26619">
        <ele>84.2</ele>
        <time>2026-02-02T12:56:42Z</time>
      </trkpt>
      <trkpt lat="48.52284" lon="2.26615">
        <ele>84.2</ele>
        <time>2026-02-02T12:56:43Z</time>
      </trkpt>
      <trkpt lat="48.52288" lon="2.26612">
        <ele>84.6</ele>
        <time>2026-02-02T12:56:44Z</time>
      </trkpt>
      <trkpt lat="48.52291" lon="2.2661">
        <ele>84.4</ele>
        <time>2026-02-02T12:56:45Z</time>
      </trkpt>
      <trkpt lat="48.52294" lon="2.26607">
        <ele>84.4</ele>
        <time>2026-02-02T12:56:46Z</time>
      </trkpt>
      <trkpt lat="48.52298" lon="2.26604">
        <ele>84.4</ele>
        <time>2026-02-02T12:56:47Z</time>
      </trkpt>
      <trkpt lat="48.52301" lon="2.26603">
        <ele>84.6</ele>
        <time>2026-02-02T12:56:48Z</time>
      </trkpt>
      <trkpt lat="48.52304" lon="2.26601">
        <ele>84.8</ele>
        <time>2026-02-02T12:56:49Z</time>
      </trkpt>
      <trkpt lat="48.52307" lon="2.26599">
        <ele>84.8</ele>
        <time>2026-02-02T12:56:50Z</time>
      </trkpt>
      <trkpt lat="48.52311" lon="2.26597">
        <ele>84.8</ele>
        <time>2026-02-02T12:56:51Z</time>
      </trkpt>
      <trkpt lat="48.52314" lon="2.26596">
        <ele>85.4</ele>
        <time>2026-02-02T12:56:52Z</time>
      </trkpt>
      <trkpt lat="48.52318" lon="2.26596">
        <ele>85.4</ele>
        <time>2026-02-02T12:56:53Z</time>
      </trkpt>
      <trkpt lat="48.52322" lon="2.26595">
        <ele>85.4</ele>
        <time>2026-02-02T12:56:54Z</time>
      </trkpt>
      <trkpt lat="48.52326" lon="2.26594">
        <ele>85.4</ele>
        <time>2026-02-02T12:56:55Z</time>
      </trkpt>
      <trkpt lat="48.5233" lon="2.26593">
        <ele>85.4</ele>
        <time>2026-02-02T12:56:56Z</time>
      </trkpt>
      <trkpt lat="48.52334" lon="2.26592">
        <ele>85.8</ele>
        <time>2026-02-02T12:56:57Z</time>
      </trkpt>
      <trkpt lat="48.52338" lon="2.26591">
        <ele>85.8</ele>
        <time>2026-02-02T12:56:58Z</time>
      </trkpt>
      <trkpt lat="48.52341" lon="2.2659">
        <ele>85.8</ele>
        <time>2026-02-02T12:56:59Z</time>
      </trkpt>
      <trkpt lat="48.52345" lon="2.26589">
        <ele>86.4</ele>
        <time>2026-02-02T12:57:00Z</time>
      </trkpt>
      <trkpt lat="48.52349" lon="2.26589">
        <ele>87</ele>
        <time>2026-02-02T12:57:01Z</time>
      </trkpt>
      <trkpt lat="48.52353" lon="2.26587">
        <ele>87</ele>
        <time>2026-02-02T12:57:02Z</time>
      </trkpt>
      <trkpt lat="48.52357" lon="2.26586">
        <ele>87</ele>
        <time>2026-02-02T12:57:03Z</time>
      </trkpt>
      <trkpt lat="48.5236" lon="2.26584">
        <ele>87.2</ele>
        <time>2026-02-02T12:57:04Z</time>
      </trkpt>
      <trkpt lat="48.52363" lon="2.26582">
        <ele>87.2</ele>
        <time>2026-02-02T12:57:05Z</time>
      </trkpt>
      <trkpt lat="48.52367" lon="2.2658">
        <ele>87.2</ele>
        <time>2026-02-02T12:57:06Z</time>
      </trkpt>
      <trkpt lat="48.5237" lon="2.26578">
        <ele>87.2</ele>
        <time>2026-02-02T12:57:07Z</time>
      </trkpt>
      <trkpt lat="48.52374" lon="2.26576">
        <ele>87.2</ele>
        <time>2026-02-02T12:57:08Z</time>
      </trkpt>
      <trkpt lat="48.52377" lon="2.26573">
        <ele>88</ele>
        <time>2026-02-02T12:57:09Z</time>
      </trkpt>
      <trkpt lat="48.52381" lon="2.26571">
        <ele>88</ele>
        <time>2026-02-02T12:57:10Z</time>
      </trkpt>
      <trkpt lat="48.52384" lon="2.26568">
        <ele>88</ele>
        <time>2026-02-02T12:57:11Z</time>
      </trkpt>
      <trkpt lat="48.52388" lon="2.26566">
        <ele>88</ele>
        <time>2026-02-02T12:57:12Z</time>
      </trkpt>
      <trkpt lat="48.52391" lon="2.26564">
        <ele>88.4</ele>
        <time>2026-02-02T12:57:13Z</time>
      </trkpt>
      <trkpt lat="48.52395" lon="2.26563">
        <ele>88.4</ele>
        <time>2026-02-02T12:57:14Z</time>
      </trkpt>
      <trkpt lat="48.52399" lon="2.26561">
        <ele>88.4</ele>
        <time>2026-02-02T12:57:15Z</time>
      </trkpt>
      <trkpt lat="48.52402" lon="2.2656">
        <ele>88.4</ele>
        <time>2026-02-02T12:57:16Z</time>
      </trkpt>
      <trkpt lat="48.52406" lon="2.26559">
        <ele>88.6</ele>
        <time>2026-02-02T12:57:17Z</time>
      </trkpt>
      <trkpt lat="48.5241" lon="2.26559">
        <ele>88.6</ele>
        <time>2026-02-02T12:57:18Z</time>
      </trkpt>
      <trkpt lat="48.52413" lon="2.2656">
        <ele>88.6</ele>
        <time>2026-02-02T12:57:19Z</time>
      </trkpt>
      <trkpt lat="48.52417" lon="2.26561">
        <ele>88.8</ele>
        <time>2026-02-02T12:57:20Z</time>
      </trkpt>
      <trkpt lat="48.5242" lon="2.26563">
        <ele>89.4</ele>
        <time>2026-02-02T12:57:21Z</time>
      </trkpt>
      <trkpt lat="48.52424" lon="2.26565">
        <ele>89.4</ele>
        <time>2026-02-02T12:57:22Z</time>
      </trkpt>
      <trkpt lat="48.52427" lon="2.26567">
        <ele>89.4</ele>
        <time>2026-02-02T12:57:23Z</time>
      </trkpt>
      <trkpt lat="48.5243" lon="2.26569">
        <ele>89.8</ele>
        <time>2026-02-02T12:57:24Z</time>
      </trkpt>
      <trkpt lat="48.52433" lon="2.26572">
        <ele>89.8</ele>
        <time>2026-02-02T12:57:25Z</time>
      </trkpt>
      <trkpt lat="48.52436" lon="2.26574">
        <ele>89.8</ele>
        <time>2026-02-02T12:57:26Z</time>
      </trkpt>
      <trkpt lat="48.52439" lon="2.26577">
        <ele>89.8</ele>
        <time>2026-02-02T12:57:27Z</time>
      </trkpt>
      <trkpt lat="48.52442" lon="2.26579">
        <ele>90</ele>
        <time>2026-02-02T12:57:28Z</time>
      </trkpt>
      <trkpt lat="48.52445" lon="2.2658">
        <ele>90.2</ele>
        <time>2026-02-02T12:57:29Z</time>
      </trkpt>
      <trkpt lat="48.52448" lon="2.26581">
        <ele>90.2</ele>
        <time>2026-02-02T12:57:30Z</time>
      </trkpt>
      <trkpt lat="48.5245" lon="2.26581">
        <ele>90.2</ele>
        <time>2026-02-02T12:57:31Z</time>
      </trkpt>
      <trkpt lat="48.52452" lon="2.26581">
        <ele>90.8</ele>
        <time>2026-02-02T12:57:32Z</time>
      </trkpt>
      <trkpt lat="48.52454" lon="2.2658">
        <ele>90.6</ele>
        <time>2026-02-02T12:57:33Z</time>
      </trkpt>
      <trkpt lat="48.52455" lon="2.26577">
        <ele>90.6</ele>
        <time>2026-02-02T12:57:34Z</time>
      </trkpt>
      <trkpt lat="48.52455" lon="2.26573">
        <ele>90.6</ele>
        <time>2026-02-02T12:57:35Z</time>
      </trkpt>
      <trkpt lat="48.52455" lon="2.26568">
        <ele>90.8</ele>
        <time>2026-02-02T12:57:36Z</time>
      </trkpt>
      <trkpt lat="48.52454" lon="2.26563">
        <ele>91</ele>
        <time>2026-02-02T12:57:37Z</time>
      </trkpt>
      <trkpt lat="48.52452" lon="2.26557">
        <ele>91</ele>
        <time>2026-02-02T12:57:38Z</time>
      </trkpt>
      <trkpt lat="48.52451" lon="2.26551">
        <ele>91</ele>
        <time>2026-02-02T12:57:39Z</time>
      </trkpt>
      <trkpt lat="48.5245" lon="2.26545">
        <ele>91</ele>
        <time>2026-02-02T12:57:40Z</time>
      </trkpt>
      <trkpt lat="48.52449" lon="2.26539">
        <ele>91.2</ele>
        <time>2026-02-02T12:57:41Z</time>
      </trkpt>
      <trkpt lat="48.52447" lon="2.26533">
        <ele>91.2</ele>
        <time>2026-02-02T12:57:42Z</time>
      </trkpt>
      <trkpt lat="48.52446" lon="2.26527">
        <ele>91.2</ele>
        <time>2026-02-02T12:57:43Z</time>
      </trkpt>
      <trkpt lat="48.52445" lon="2.26521">
        <ele>91.8</ele>
        <time>2026-02-02T12:57:44Z</time>
      </trkpt>
      <trkpt lat="48.52443" lon="2.26515">
        <ele>91.8</ele>
        <time>2026-02-02T12:57:45Z</time>
      </trkpt>
      <trkpt lat="48.52442" lon="2.26509">
        <ele>91.8</ele>
        <time>2026-02-02T12:57:46Z</time>
      </trkpt>
      <trkpt lat="48.52441" lon="2.26503">
        <ele>91.8</ele>
        <time>2026-02-02T12:57:47Z</time>
      </trkpt>
      <trkpt lat="48.52439" lon="2.26497">
        <ele>91.8</ele>
        <time>2026-02-02T12:57:48Z</time>
      </trkpt>
      <trkpt lat="48.52437" lon="2.26492">
        <ele>92.2</ele>
        <time>2026-02-02T12:57:49Z</time>
      </trkpt>
      <trkpt lat="48.52435" lon="2.26486">
        <ele>92.2</ele>
        <time>2026-02-02T12:57:50Z</time>
      </trkpt>
      <trkpt lat="48.52433" lon="2.2648">
        <ele>92.2</ele>
        <time>2026-02-02T12:57:51Z</time>
      </trkpt>
      <trkpt lat="48.52431" lon="2.26475">
        <ele>92.8</ele>
        <time>2026-02-02T12:57:52Z</time>
      </trkpt>
      <trkpt lat="48.52429" lon="2.26469">
        <ele>92.8</ele>
        <time>2026-02-02T12:57:53Z</time>
      </trkpt>
      <trkpt lat="48.52427" lon="2.26463">
        <ele>92.8</ele>
        <time>2026-02-02T12:57:54Z</time>
      </trkpt>
      <trkpt lat="48.52425" lon="2.26457">
        <ele>92.8</ele>
        <time>2026-02-02T12:57:55Z</time>
      </trkpt>
      <trkpt lat="48.52424" lon="2.26452">
        <ele>92.8</ele>
        <time>2026-02-02T12:57:56Z</time>
      </trkpt>
      <trkpt lat="48.52422" lon="2.26446">
        <ele>93</ele>
        <time>2026-02-02T12:57:57Z</time>
      </trkpt>
      <trkpt lat="48.5242" lon="2.2644">
        <ele>93</ele>
        <time>2026-02-02T12:57:58Z</time>
      </trkpt>
      <trkpt lat="48.52418" lon="2.26434">
        <ele>93</ele>
        <time>2026-02-02T12:57:59Z</time>
      </trkpt>
      <trkpt lat="48.52416" lon="2.26428">
        <ele>93</ele>
        <time>2026-02-02T12:58:00Z</time>
      </trkpt>
      <trkpt lat="48.52414" lon="2.26422">
        <ele>93</ele>
        <time>2026-02-02T12:58:01Z</time>
      </trkpt>
      <trkpt lat="48.52412" lon="2.26416">
        <ele>93</ele>
        <time>2026-02-02T12:58:02Z</time>
      </trkpt>
      <trkpt lat="48.52409" lon="2.2641">
        <ele>93</ele>
        <time>2026-02-02T12:58:03Z</time>
      </trkpt>
      <trkpt lat="48.52407" lon="2.26404">
        <ele>93.4</ele>
        <time>2026-02-02T12:58:04Z</time>
      </trkpt>
      <trkpt lat="48.52405" lon="2.26398">
        <ele>93.6</ele>
        <time>2026-02-02T12:58:05Z</time>
      </trkpt>
      <trkpt lat="48.52403" lon="2.26393">
        <ele>93.6</ele>
        <time>2026-02-02T12:58:06Z</time>
      </trkpt>
      <trkpt lat="48.52401" lon="2.26387">
        <ele>93.6</ele>
        <time>2026-02-02T12:58:07Z</time>
      </trkpt>
      <trkpt lat="48.52399" lon="2.26381">
        <ele>93.6</ele>
        <time>2026-02-02T12:58:08Z</time>
      </trkpt>
      <trkpt lat="48.52397" lon="2.26376">
        <ele>94</ele>
        <time>2026-02-02T12:58:09Z</time>
      </trkpt>
      <trkpt lat="48.52394" lon="2.2637">
        <ele>94</ele>
        <time>2026-02-02T12:58:10Z</time>
      </trkpt>
      <trkpt lat="48.52392" lon="2.26364">
        <ele>94</ele>
        <time>2026-02-02T12:58:11Z</time>
      </trkpt>
      <trkpt lat="48.52389" lon="2.26359">
        <ele>94.2</ele>
        <time>2026-02-02T12:58:12Z</time>
      </trkpt>
      <trkpt lat="48.52387" lon="2.26353">
        <ele>94.4</ele>
        <time>2026-02-02T12:58:13Z</time>
      </trkpt>
      <trkpt lat="48.52384" lon="2.26348">
        <ele>94.4</ele>
        <time>2026-02-02T12:58:14Z</time>
      </trkpt>
      <trkpt lat="48.52381" lon="2.26342">
        <ele>94.4</ele>
        <time>2026-02-02T12:58:15Z</time>
      </trkpt>
      <trkpt lat="48.52379" lon="2.26336">
        <ele>94.2</ele>
        <time>2026-02-02T12:58:16Z</time>
      </trkpt>
      <trkpt lat="48.52376" lon="2.26329">
        <ele>94.2</ele>
        <time>2026-02-02T12:58:17Z</time>
      </trkpt>
      <trkpt lat="48.52373" lon="2.26323">
        <ele>94.2</ele>
        <time>2026-02-02T12:58:18Z</time>
      </trkpt>
      <trkpt lat="48.5237" lon="2.26317">
        <ele>94.2</ele>
        <time>2026-02-02T12:58:19Z</time>
      </trkpt>
      <trkpt lat="48.52367" lon="2.26311">
        <ele>94.4</ele>
        <time>2026-02-02T12:58:20Z</time>
      </trkpt>
      <trkpt lat="48.52365" lon="2.26305">
        <ele>94.4</ele>
        <time>2026-02-02T12:58:21Z</time>
      </trkpt>
      <trkpt lat="48.52362" lon="2.26299">
        <ele>94.4</ele>
        <time>2026-02-02T12:58:22Z</time>
      </trkpt>
      <trkpt lat="48.52359" lon="2.26293">
        <ele>94.4</ele>
        <time>2026-02-02T12:58:23Z</time>
      </trkpt>
      <trkpt lat="48.52356" lon="2.26287">
        <ele>94.4</ele>
        <time>2026-02-02T12:58:24Z</time>
      </trkpt>
      <trkpt lat="48.52353" lon="2.26281">
        <ele>94.8</ele>
        <time>2026-02-02T12:58:25Z</time>
      </trkpt>
      <trkpt lat="48.5235" lon="2.26275">
        <ele>94.8</ele>
        <time>2026-02-02T12:58:26Z</time>
      </trkpt>
      <trkpt lat="48.52347" lon="2.26269">
        <ele>94.8</ele>
        <time>2026-02-02T12:58:27Z</time>
      </trkpt>
      <trkpt lat="48.52344" lon="2.26263">
        <ele>94.6</ele>
        <time>2026-02-02T12:58:28Z</time>
      </trkpt>
      <trkpt lat="48.52341" lon="2.26257">
        <ele>94.8</ele>
        <time>2026-02-02T12:58:29Z</time>
      </trkpt>
      <trkpt lat="48.52338" lon="2.26251">
        <ele>94.8</ele>
        <time>2026-02-02T12:58:30Z</time>
      </trkpt>
      <trkpt lat="48.52335" lon="2.26246">
        <ele>94.8</ele>
        <time>2026-02-02T12:58:31Z</time>
      </trkpt>
      <trkpt lat="48.52332" lon="2.2624">
        <ele>94.8</ele>
        <time>2026-02-02T12:58:32Z</time>
      </trkpt>
      <trkpt lat="48.52329" lon="2.26235">
        <ele>95.4</ele>
        <time>2026-02-02T12:58:33Z</time>
      </trkpt>
      <trkpt lat="48.52326" lon="2.26229">
        <ele>95.4</ele>
        <time>2026-02-02T12:58:34Z</time>
      </trkpt>
      <trkpt lat="48.52323" lon="2.26223">
        <ele>95.4</ele>
        <time>2026-02-02T12:58:35Z</time>
      </trkpt>
      <trkpt lat="48.5232" lon="2.26218">
        <ele>95.4</ele>
        <time>2026-02-02T12:58:36Z</time>
      </trkpt>
      <trkpt lat="48.52317" lon="2.26212">
        <ele>95.4</ele>
        <time>2026-02-02T12:58:37Z</time>
      </trkpt>
      <trkpt lat="48.52314" lon="2.26206">
        <ele>95.4</ele>
        <time>2026-02-02T12:58:38Z</time>
      </trkpt>
      <trkpt lat="48.52311" lon="2.26201">
        <ele>95.4</ele>
        <time>2026-02-02T12:58:39Z</time>
      </trkpt>
      <trkpt lat="48.52308" lon="2.26195">
        <ele>95.4</ele>
        <time>2026-02-02T12:58:40Z</time>
      </trkpt>
      <trkpt lat="48.52305" lon="2.26189">
        <ele>95.6</ele>
        <time>2026-02-02T12:58:41Z</time>
      </trkpt>
      <trkpt lat="48.52301" lon="2.26183">
        <ele>95.6</ele>
        <time>2026-02-02T12:58:42Z</time>
      </trkpt>
      <trkpt lat="48.52298" lon="2.26178">
        <ele>95.6</ele>
        <time>2026-02-02T12:58:43Z</time>
      </trkpt>
      <trkpt lat="48.52295" lon="2.26172">
        <ele>95.8</ele>
        <time>2026-02-02T12:58:44Z</time>
      </trkpt>
      <trkpt lat="48.52292" lon="2.26167">
        <ele>95.8</ele>
        <time>2026-02-02T12:58:45Z</time>
      </trkpt>
      <trkpt lat="48.52288" lon="2.26161">
        <ele>95.8</ele>
        <time>2026-02-02T12:58:46Z</time>
      </trkpt>
      <trkpt lat="48.52285" lon="2.26155">
        <ele>95.8</ele>
        <time>2026-02-02T12:58:47Z</time>
      </trkpt>
      <trkpt lat="48.52282" lon="2.2615">
        <ele>95.8</ele>
        <time>2026-02-02T12:58:48Z</time>
      </trkpt>
      <trkpt lat="48.52279" lon="2.26144">
        <ele>96.6</ele>
        <time>2026-02-02T12:58:49Z</time>
      </trkpt>
      <trkpt lat="48.52275" lon="2.26139">
        <ele>96.6</ele>
        <time>2026-02-02T12:58:50Z</time>
      </trkpt>
      <trkpt lat="48.52272" lon="2.26133">
        <ele>96.6</ele>
        <time>2026-02-02T12:58:51Z</time>
      </trkpt>
      <trkpt lat="48.52269" lon="2.26128">
        <ele>96.6</ele>
        <time>2026-02-02T12:58:52Z</time>
      </trkpt>
      <trkpt lat="48.52266" lon="2.26122">
        <ele>96.8</ele>
        <time>2026-02-02T12:58:53Z</time>
      </trkpt>
      <trkpt lat="48.52262" lon="2.26117">
        <ele>96.8</ele>
        <time>2026-02-02T12:58:54Z</time>
      </trkpt>
      <trkpt lat="48.52258" lon="2.26112">
        <ele>96.8</ele>
        <time>2026-02-02T12:58:55Z</time>
      </trkpt>
      <trkpt lat="48.52255" lon="2.26106">
        <ele>96.6</ele>
        <time>2026-02-02T12:58:56Z</time>
      </trkpt>
      <trkpt lat="48.52251" lon="2.26101">
        <ele>96.8</ele>
        <time>2026-02-02T12:58:57Z</time>
      </trkpt>
      <trkpt lat="48.52248" lon="2.26096">
        <ele>96.8</ele>
        <time>2026-02-02T12:58:58Z</time>
      </trkpt>
      <trkpt lat="48.52244" lon="2.26091">
        <ele>96.8</ele>
        <time>2026-02-02T12:58:59Z</time>
      </trkpt>
      <trkpt lat="48.52241" lon="2.26086">
        <ele>96.8</ele>
        <time>2026-02-02T12:59:00Z</time>
      </trkpt>
      <trkpt lat="48.52237" lon="2.26081">
        <ele>96.8</ele>
        <time>2026-02-02T12:59:01Z</time>
      </trkpt>
      <trkpt lat="48.52233" lon="2.26076">
        <ele>96.8</ele>
        <time>2026-02-02T12:59:02Z</time>
      </trkpt>
      <trkpt lat="48.5223" lon="2.2607">
        <ele>96.8</ele>
        <time>2026-02-02T12:59:03Z</time>
      </trkpt>
      <trkpt lat="48.52226" lon="2.26065">
        <ele>97.4</ele>
        <time>2026-02-02T12:59:04Z</time>
      </trkpt>
      <trkpt lat="48.52222" lon="2.2606">
        <ele>98.2</ele>
        <time>2026-02-02T12:59:05Z</time>
      </trkpt>
      <trkpt lat="48.52219" lon="2.26055">
        <ele>98.2</ele>
        <time>2026-02-02T12:59:06Z</time>
      </trkpt>
      <trkpt lat="48.52215" lon="2.2605">
        <ele>98.2</ele>
        <time>2026-02-02T12:59:07Z</time>
      </trkpt>
      <trkpt lat="48.52211" lon="2.26045">
        <ele>98.2</ele>
        <time>2026-02-02T12:59:08Z</time>
      </trkpt>
      <trkpt lat="48.52208" lon="2.2604">
        <ele>98</ele>
        <time>2026-02-02T12:59:09Z</time>
      </trkpt>
      <trkpt lat="48.52204" lon="2.26034">
        <ele>98</ele>
        <time>2026-02-02T12:59:10Z</time>
      </trkpt>
      <trkpt lat="48.52201" lon="2.26028">
        <ele>98</ele>
        <time>2026-02-02T12:59:11Z</time>
      </trkpt>
      <trkpt lat="48.52198" lon="2.26023">
        <ele>98</ele>
        <time>2026-02-02T12:59:12Z</time>
      </trkpt>
      <trkpt lat="48.52194" lon="2.26017">
        <ele>98</ele>
        <time>2026-02-02T12:59:13Z</time>
      </trkpt>
      <trkpt lat="48.5219" lon="2.26011">
        <ele>98</ele>
        <time>2026-02-02T12:59:14Z</time>
      </trkpt>
      <trkpt lat="48.52187" lon="2.26005">
        <ele>98</ele>
        <time>2026-02-02T12:59:15Z</time>
      </trkpt>
      <trkpt lat="48.52185" lon="2.25999">
        <ele>98.4</ele>
        <time>2026-02-02T12:59:16Z</time>
      </trkpt>
      <trkpt lat="48.52182" lon="2.25992">
        <ele>98.4</ele>
        <time>2026-02-02T12:59:17Z</time>
      </trkpt>
      <trkpt lat="48.5218" lon="2.25985">
        <ele>98.4</ele>
        <time>2026-02-02T12:59:18Z</time>
      </trkpt>
      <trkpt lat="48.52177" lon="2.25979">
        <ele>98.4</ele>
        <time>2026-02-02T12:59:19Z</time>
      </trkpt>
      <trkpt lat="48.52175" lon="2.25972">
        <ele>98.4</ele>
        <time>2026-02-02T12:59:20Z</time>
      </trkpt>
      <trkpt lat="48.52172" lon="2.25965">
        <ele>98.6</ele>
        <time>2026-02-02T12:59:21Z</time>
      </trkpt>
      <trkpt lat="48.5217" lon="2.25958">
        <ele>98.6</ele>
        <time>2026-02-02T12:59:22Z</time>
      </trkpt>
      <trkpt lat="48.52167" lon="2.25952">
        <ele>98.6</ele>
        <time>2026-02-02T12:59:23Z</time>
      </trkpt>
      <trkpt lat="48.52164" lon="2.25945">
        <ele>99.4</ele>
        <time>2026-02-02T12:59:24Z</time>
      </trkpt>
      <trkpt lat="48.52162" lon="2.25938">
        <ele>99.2</ele>
        <time>2026-02-02T12:59:25Z</time>
      </trkpt>
      <trkpt lat="48.52159" lon="2.25931">
        <ele>99.2</ele>
        <time>2026-02-02T12:59:26Z</time>
      </trkpt>
      <trkpt lat="48.52157" lon="2.25924">
        <ele>99.2</ele>
        <time>2026-02-02T12:59:27Z</time>
      </trkpt>
      <trkpt lat="48.52154" lon="2.25917">
        <ele>98.8</ele>
        <time>2026-02-02T12:59:28Z</time>
      </trkpt>
      <trkpt lat="48.52151" lon="2.2591">
        <ele>98.6</ele>
        <time>2026-02-02T12:59:29Z</time>
      </trkpt>
      <trkpt lat="48.52149" lon="2.25903">
        <ele>98.6</ele>
        <time>2026-02-02T12:59:30Z</time>
      </trkpt>
      <trkpt lat="48.52146" lon="2.25896">
        <ele>98.6</ele>
        <time>2026-02-02T12:59:31Z</time>
      </trkpt>
      <trkpt lat="48.52143" lon="2.25889">
        <ele>99.4</ele>
        <time>2026-02-02T12:59:32Z</time>
      </trkpt>
      <trkpt lat="48.52141" lon="2.25882">
        <ele>99.4</ele>
        <time>2026-02-02T12:59:33Z</time>
      </trkpt>
      <trkpt lat="48.52138" lon="2.25876">
        <ele>99.4</ele>
        <time>2026-02-02T12:59:34Z</time>
      </trkpt>
      <trkpt lat="48.52135" lon="2.25869">
        <ele>99.4</ele>
        <time>2026-02-02T12:59:35Z</time>
      </trkpt>
      <trkpt lat="48.52132" lon="2.25862">
        <ele>99.4</ele>
        <time>2026-02-02T12:59:36Z</time>
      </trkpt>
      <trkpt lat="48.5213" lon="2.25855">
        <ele>99.6</ele>
        <time>2026-02-02T12:59:37Z</time>
      </trkpt>
      <trkpt lat="48.52127" lon="2.25848">
        <ele>99.6</ele>
        <time>2026-02-02T12:59:38Z</time>
      </trkpt>
      <trkpt lat="48.52125" lon="2.25841">
        <ele>99.6</ele>
        <time>2026-02-02T12:59:39Z</time>
      </trkpt>
      <trkpt lat="48.52122" lon="2.25834">
        <ele>99.8</ele>
        <time>2026-02-02T12:59:40Z</time>
      </trkpt>
      <trkpt lat="48.5212" lon="2.25827">
        <ele>100.2</ele>
        <time>2026-02-02T12:59:41Z</time>
      </trkpt>
      <trkpt lat="48.52118" lon="2.2582">
        <ele>100.2</ele>
        <time>2026-02-02T12:59:42Z</time>
      </trkpt>
      <trkpt lat="48.52115" lon="2.25813">
        <ele>100.2</ele>
        <time>2026-02-02T12:59:43Z</time>
      </trkpt>
      <trkpt lat="48.52113" lon="2.25806">
        <ele>100.2</ele>
        <time>2026-02-02T12:59:44Z</time>
      </trkpt>
      <trkpt lat="48.5211" lon="2.25799">
        <ele>100.2</ele>
        <time>2026-02-02T12:59:45Z</time>
      </trkpt>
      <trkpt lat="48.52108" lon="2.25792">
        <ele>100.2</ele>
        <time>2026-02-02T12:59:46Z</time>
      </trkpt>
      <trkpt lat="48.52106" lon="2.25785">
        <ele>100.2</ele>
        <time>2026-02-02T12:59:47Z</time>
      </trkpt>
      <trkpt lat="48.52104" lon="2.25778">
        <ele>100.6</ele>
        <time>2026-02-02T12:59:48Z</time>
      </trkpt>
      <trkpt lat="48.52101" lon="2.25772">
        <ele>100.6</ele>
        <time>2026-02-02T12:59:49Z</time>
      </trkpt>
      <trkpt lat="48.52099" lon="2.25765">
        <ele>100.6</ele>
        <time>2026-02-02T12:59:50Z</time>
      </trkpt>
      <trkpt lat="48.52097" lon="2.25757">
        <ele>100.6</ele>
        <time>2026-02-02T12:59:51Z</time>
      </trkpt>
      <trkpt lat="48.52096" lon="2.2575">
        <ele>100.8</ele>
        <time>2026-02-02T12:59:52Z</time>
      </trkpt>
      <trkpt lat="48.52094" lon="2.25742">
        <ele>101.4</ele>
        <time>2026-02-02T12:59:53Z</time>
      </trkpt>
      <trkpt lat="48.52093" lon="2.25734">
        <ele>101.4</ele>
        <time>2026-02-02T12:59:54Z</time>
      </trkpt>
      <trkpt lat="48.52091" lon="2.25727">
        <ele>101.4</ele>
        <time>2026-02-02T12:59:55Z</time>
      </trkpt>
      <trkpt lat="48.5209" lon="2.2572">
        <ele>102</ele>
        <time>2026-02-02T12:59:56Z</time>
      </trkpt>
      <trkpt lat="48.52089" lon="2.25712">
        <ele>101.8</ele>
        <time>2026-02-02T12:59:57Z</time>
      </trkpt>
      <trkpt lat="48.52088" lon="2.25704">
        <ele>101.8</ele>
        <time>2026-02-02T12:59:58Z</time>
      </trkpt>
      <trkpt lat="48.52086" lon="2.25696">
        <ele>101.8</ele>
        <time>2026-02-02T12:59:59Z</time>
      </trkpt>
      <trkpt lat="48.52085" lon="2.25689">
        <ele>102.4</ele>
        <time>2026-02-02T13:00:00Z</time>
      </trkpt>
      <trkpt lat="48.52084" lon="2.25681">
        <ele>102.4</ele>
        <time>2026-02-02T13:00:01Z</time>
      </trkpt>
      <trkpt lat="48.52083" lon="2.25673">
        <ele>102.4</ele>
        <time>2026-02-02T13:00:02Z</time>
      </trkpt>
      <trkpt lat="48.52081" lon="2.25665">
        <ele>102.4</ele>
        <time>2026-02-02T13:00:03Z</time>
      </trkpt>
      <trkpt lat="48.52078" lon="2.25657">
        <ele>103.2</ele>
        <time>2026-02-02T13:00:04Z</time>
      </trkpt>
      <trkpt lat="48.52075" lon="2.2565">
        <ele>103.6</ele>
        <time>2026-02-02T13:00:05Z</time>
      </trkpt>
      <trkpt lat="48.52072" lon="2.25643">
        <ele>103.6</ele>
        <time>2026-02-02T13:00:06Z</time>
      </trkpt>
      <trkpt lat="48.52069" lon="2.25636">
        <ele>103.6</ele>
        <time>2026-02-02T13:00:07Z</time>
      </trkpt>
      <trkpt lat="48.52065" lon="2.2563">
        <ele>103.6</ele>
        <time>2026-02-02T13:00:08Z</time>
      </trkpt>
      <trkpt lat="48.52062" lon="2.25623">
        <ele>103.6</ele>
        <time>2026-02-02T13:00:09Z</time>
      </trkpt>
      <trkpt lat="48.52058" lon="2.25616">
        <ele>103.6</ele>
        <time>2026-02-02T13:00:10Z</time>
      </trkpt>
      <trkpt lat="48.52055" lon="2.25609">
        <ele>103.6</ele>
        <time>2026-02-02T13:00:11Z</time>
      </trkpt>
      <trkpt lat="48.52051" lon="2.25602">
        <ele>103.6</ele>
        <time>2026-02-02T13:00:12Z</time>
      </trkpt>
      <trkpt lat="48.52048" lon="2.25596">
        <ele>103.2</ele>
        <time>2026-02-02T13:00:13Z</time>
      </trkpt>
      <trkpt lat="48.52045" lon="2.25588">
        <ele>103.2</ele>
        <time>2026-02-02T13:00:14Z</time>
      </trkpt>
      <trkpt lat="48.52041" lon="2.2558">
        <ele>103.2</ele>
        <time>2026-02-02T13:00:15Z</time>
      </trkpt>
      <trkpt lat="48.52038" lon="2.25573">
        <ele>103.2</ele>
        <time>2026-02-02T13:00:16Z</time>
      </trkpt>
      <trkpt lat="48.52035" lon="2.25566">
        <ele>103.2</ele>
        <time>2026-02-02T13:00:17Z</time>
      </trkpt>
      <trkpt lat="48.52032" lon="2.25558">
        <ele>103.2</ele>
        <time>2026-02-02T13:00:18Z</time>
      </trkpt>
      <trkpt lat="48.52028" lon="2.25551">
        <ele>103.2</ele>
        <time>2026-02-02T13:00:19Z</time>
      </trkpt>
      <trkpt lat="48.52024" lon="2.25543">
        <ele>102.4</ele>
        <time>2026-02-02T13:00:20Z</time>
      </trkpt>
      <trkpt lat="48.5202" lon="2.25535">
        <ele>102.4</ele>
        <time>2026-02-02T13:00:21Z</time>
      </trkpt>
      <trkpt lat="48.52017" lon="2.25527">
        <ele>102.4</ele>
        <time>2026-02-02T13:00:22Z</time>
      </trkpt>
      <trkpt lat="48.52013" lon="2.25518">
        <ele>102.4</ele>
        <time>2026-02-02T13:00:23Z</time>
      </trkpt>
      <trkpt lat="48.52009" lon="2.2551">
        <ele>102.4</ele>
        <time>2026-02-02T13:00:24Z</time>
      </trkpt>
      <trkpt lat="48.52006" lon="2.25501">
        <ele>102</ele>
        <time>2026-02-02T13:00:25Z</time>
      </trkpt>
      <trkpt lat="48.52002" lon="2.25492">
        <ele>102</ele>
        <time>2026-02-02T13:00:26Z</time>
      </trkpt>
      <trkpt lat="48.51999" lon="2.25483">
        <ele>102</ele>
        <time>2026-02-02T13:00:27Z</time>
      </trkpt>
      <trkpt lat="48.51996" lon="2.25474">
        <ele>102</ele>
        <time>2026-02-02T13:00:28Z</time>
      </trkpt>
      <trkpt lat="48.51993" lon="2.25464">
        <ele>101.8</ele>
        <time>2026-02-02T13:00:29Z</time>
      </trkpt>
      <trkpt lat="48.51991" lon="2.25455">
        <ele>101.8</ele>
        <time>2026-02-02T13:00:30Z</time>
      </trkpt>
      <trkpt lat="48.51988" lon="2.25445">
        <ele>101.8</ele>
        <time>2026-02-02T13:00:31Z</time>
      </trkpt>
      <trkpt lat="48.51985" lon="2.25436">
        <ele>100.8</ele>
        <time>2026-02-02T13:00:32Z</time>
      </trkpt>
      <trkpt lat="48.51983" lon="2.25426">
        <ele>101.8</ele>
        <time>2026-02-02T13:00:33Z</time>
      </trkpt>
      <trkpt lat="48.5198" lon="2.25417">
        <ele>101.8</ele>
        <time>2026-02-02T13:00:34Z</time>
      </trkpt>
      <trkpt lat="48.51977" lon="2.25407">
        <ele>101.8</ele>
        <time>2026-02-02T13:00:35Z</time>
      </trkpt>
      <trkpt lat="48.51974" lon="2.25398">
        <ele>101</ele>
        <time>2026-02-02T13:00:36Z</time>
      </trkpt>
      <trkpt lat="48.51972" lon="2.25388">
        <ele>101.6</ele>
        <time>2026-02-02T13:00:37Z</time>
      </trkpt>
      <trkpt lat="48.51969" lon="2.25379">
        <ele>101.6</ele>
        <time>2026-02-02T13:00:38Z</time>
      </trkpt>
      <trkpt lat="48.51966" lon="2.25369">
        <ele>101.6</ele>
        <time>2026-02-02T13:00:39Z</time>
      </trkpt>
      <trkpt lat="48.51963" lon="2.2536">
        <ele>101.4</ele>
        <time>2026-02-02T13:00:40Z</time>
      </trkpt>
      <trkpt lat="48.5196" lon="2.25351">
        <ele>101</ele>
        <time>2026-02-02T13:00:41Z</time>
      </trkpt>
      <trkpt lat="48.51958" lon="2.25341">
        <ele>101</ele>
        <time>2026-02-02T13:00:42Z</time>
      </trkpt>
      <trkpt lat="48.51955" lon="2.25331">
        <ele>101</ele>
        <time>2026-02-02T13:00:43Z</time>
      </trkpt>
      <trkpt lat="48.51952" lon="2.25321">
        <ele>101</ele>
        <time>2026-02-02T13:00:44Z</time>
      </trkpt>
      <trkpt lat="48.5195" lon="2.25312">
        <ele>101.4</ele>
        <time>2026-02-02T13:00:45Z</time>
      </trkpt>
      <trkpt lat="48.51947" lon="2.25302">
        <ele>101.4</ele>
        <time>2026-02-02T13:00:46Z</time>
      </trkpt>
      <trkpt lat="48.51944" lon="2.25292">
        <ele>101.4</ele>
        <time>2026-02-02T13:00:47Z</time>
      </trkpt>
      <trkpt lat="48.51942" lon="2.25282">
        <ele>100.8</ele>
        <time>2026-02-02T13:00:48Z</time>
      </trkpt>
      <trkpt lat="48.51939" lon="2.25273">
        <ele>100.4</ele>
        <time>2026-02-02T13:00:49Z</time>
      </trkpt>
      <trkpt lat="48.51936" lon="2.25263">
        <ele>100.4</ele>
        <time>2026-02-02T13:00:50Z</time>
      </trkpt>
      <trkpt lat="48.51933" lon="2.25254">
        <ele>100.4</ele>
        <time>2026-02-02T13:00:51Z</time>
      </trkpt>
      <trkpt lat="48.5193" lon="2.25245">
        <ele>100.8</ele>
        <time>2026-02-02T13:00:52Z</time>
      </trkpt>
      <trkpt lat="48.51927" lon="2.25236">
        <ele>100.6</ele>
        <time>2026-02-02T13:00:53Z</time>
      </trkpt>
      <trkpt lat="48.51923" lon="2.25227">
        <ele>100.6</ele>
        <time>2026-02-02T13:00:54Z</time>
      </trkpt>
      <trkpt lat="48.51919" lon="2.25219">
        <ele>100.6</ele>
        <time>2026-02-02T13:00:55Z</time>
      </trkpt>
      <trkpt lat="48.51915" lon="2.2521">
        <ele>100.6</ele>
        <time>2026-02-02T13:00:56Z</time>
      </trkpt>
      <trkpt lat="48.51911" lon="2.25201">
        <ele>101</ele>
        <time>2026-02-02T13:00:57Z</time>
      </trkpt>
      <trkpt lat="48.51908" lon="2.25193">
        <ele>101</ele>
        <time>2026-02-02T13:00:58Z</time>
      </trkpt>
      <trkpt lat="48.51904" lon="2.25184">
        <ele>101</ele>
        <time>2026-02-02T13:00:59Z</time>
      </trkpt>
      <trkpt lat="48.519" lon="2.25176">
        <ele>101</ele>
        <time>2026-02-02T13:01:00Z</time>
      </trkpt>
      <trkpt lat="48.51897" lon="2.25167">
        <ele>101.2</ele>
        <time>2026-02-02T13:01:01Z</time>
      </trkpt>
      <trkpt lat="48.51893" lon="2.25159">
        <ele>101.2</ele>
        <time>2026-02-02T13:01:02Z</time>
      </trkpt>
      <trkpt lat="48.5189" lon="2.25151">
        <ele>101.2</ele>
        <time>2026-02-02T13:01:03Z</time>
      </trkpt>
      <trkpt lat="48.51887" lon="2.25143">
        <ele>101.2</ele>
        <time>2026-02-02T13:01:04Z</time>
      </trkpt>
      <trkpt lat="48.51884" lon="2.25136">
        <ele>101.4</ele>
        <time>2026-02-02T13:01:05Z</time>
      </trkpt>
      <trkpt lat="48.5188" lon="2.25129">
        <ele>101.4</ele>
        <time>2026-02-02T13:01:06Z</time>
      </trkpt>
      <trkpt lat="48.51877" lon="2.25121">
        <ele>101.4</ele>
        <time>2026-02-02T13:01:07Z</time>
      </trkpt>
      <trkpt lat="48.51875" lon="2.25113">
        <ele>101.8</ele>
        <time>2026-02-02T13:01:08Z</time>
      </trkpt>
      <trkpt lat="48.51871" lon="2.25106">
        <ele>102.4</ele>
        <time>2026-02-02T13:01:09Z</time>
      </trkpt>
      <trkpt lat="48.51869" lon="2.25098">
        <ele>102.4</ele>
        <time>2026-02-02T13:01:10Z</time>
      </trkpt>
      <trkpt lat="48.51866" lon="2.2509">
        <ele>102.4</ele>
        <time>2026-02-02T13:01:11Z</time>
      </trkpt>
      <trkpt lat="48.51863" lon="2.25083">
        <ele>102.4</ele>
        <time>2026-02-02T13:01:12Z</time>
      </trkpt>
      <trkpt lat="48.5186" lon="2.25075">
        <ele>102.4</ele>
        <time>2026-02-02T13:01:13Z</time>
      </trkpt>
      <trkpt lat="48.51857" lon="2.25067">
        <ele>102.4</ele>
        <time>2026-02-02T13:01:14Z</time>
      </trkpt>
      <trkpt lat="48.51854" lon="2.25059">
        <ele>102.4</ele>
        <time>2026-02-02T13:01:15Z</time>
      </trkpt>
      <trkpt lat="48.51851" lon="2.25051">
        <ele>102.4</ele>
        <time>2026-02-02T13:01:16Z</time>
      </trkpt>
      <trkpt lat="48.51847" lon="2.25042">
        <ele>102</ele>
        <time>2026-02-02T13:01:17Z</time>
      </trkpt>
      <trkpt lat="48.51844" lon="2.25034">
        <ele>102</ele>
        <time>2026-02-02T13:01:18Z</time>
      </trkpt>
      <trkpt lat="48.51841" lon="2.25025">
        <ele>102</ele>
        <time>2026-02-02T13:01:19Z</time>
      </trkpt>
      <trkpt lat="48.51837" lon="2.25016">
        <ele>101.6</ele>
        <time>2026-02-02T13:01:20Z</time>
      </trkpt>
      <trkpt lat="48.51834" lon="2.25007">
        <ele>101.2</ele>
        <time>2026-02-02T13:01:21Z</time>
      </trkpt>
      <trkpt lat="48.51831" lon="2.24997">
        <ele>101.2</ele>
        <time>2026-02-02T13:01:22Z</time>
      </trkpt>
      <trkpt lat="48.51828" lon="2.24988">
        <ele>101.2</ele>
        <time>2026-02-02T13:01:23Z</time>
      </trkpt>
      <trkpt lat="48.51825" lon="2.24978">
        <ele>101</ele>
        <time>2026-02-02T13:01:24Z</time>
      </trkpt>
      <trkpt lat="48.51823" lon="2.24968">
        <ele>99.8</ele>
        <time>2026-02-02T13:01:25Z</time>
      </trkpt>
      <trkpt lat="48.5182" lon="2.24957">
        <ele>99.8</ele>
        <time>2026-02-02T13:01:26Z</time>
      </trkpt>
      <trkpt lat="48.51818" lon="2.24946">
        <ele>99.8</ele>
        <time>2026-02-02T13:01:27Z</time>
      </trkpt>
      <trkpt lat="48.51815" lon="2.24936">
        <ele>100.2</ele>
        <time>2026-02-02T13:01:28Z</time>
      </trkpt>
      <trkpt lat="48.51813" lon="2.24925">
        <ele>100.2</ele>
        <time>2026-02-02T13:01:29Z</time>
      </trkpt>
      <trkpt lat="48.5181" lon="2.24914">
        <ele>100.2</ele>
        <time>2026-02-02T13:01:30Z</time>
      </trkpt>
      <trkpt lat="48.51807" lon="2.24904">
        <ele>100.2</ele>
        <time>2026-02-02T13:01:31Z</time>
      </trkpt>
      <trkpt lat="48.51804" lon="2.24894">
        <ele>99.4</ele>
        <time>2026-02-02T13:01:32Z</time>
      </trkpt>
      <trkpt lat="48.51801" lon="2.24883">
        <ele>99</ele>
        <time>2026-02-02T13:01:33Z</time>
      </trkpt>
      <trkpt lat="48.51799" lon="2.24873">
        <ele>99</ele>
        <time>2026-02-02T13:01:34Z</time>
      </trkpt>
      <trkpt lat="48.51797" lon="2.24863">
        <ele>99</ele>
        <time>2026-02-02T13:01:35Z</time>
      </trkpt>
      <trkpt lat="48.51795" lon="2.24852">
        <ele>99</ele>
        <time>2026-02-02T13:01:36Z</time>
      </trkpt>
      <trkpt lat="48.51793" lon="2.24842">
        <ele>98.8</ele>
        <time>2026-02-02T13:01:37Z</time>
      </trkpt>
      <trkpt lat="48.51792" lon="2.24831">
        <ele>98.8</ele>
        <time>2026-02-02T13:01:38Z</time>
      </trkpt>
      <trkpt lat="48.51791" lon="2.24823">
        <ele>98.8</ele>
        <time>2026-02-02T13:01:39Z</time>
      </trkpt>
      <trkpt lat="48.51791" lon="2.24818">
        <ele>98.2</ele>
        <time>2026-02-02T13:01:40Z</time>
      </trkpt>
      <trkpt lat="48.51788" lon="2.24817">
        <ele>98.2</ele>
        <time>2026-02-02T13:01:41Z</time>
      </trkpt>
      <trkpt lat="48.51786" lon="2.24819">
        <ele>98.2</ele>
        <time>2026-02-02T13:01:42Z</time>
      </trkpt>
      <trkpt lat="48.51785" lon="2.24822">
        <ele>98.2</ele>
        <time>2026-02-02T13:01:43Z</time>
      </trkpt>
      <trkpt lat="48.51782" lon="2.24825">
        <ele>98.2</ele>
        <time>2026-02-02T13:01:44Z</time>
      </trkpt>
      <trkpt lat="48.51778" lon="2.24826">
        <ele>97.4</ele>
        <time>2026-02-02T13:01:45Z</time>
      </trkpt>
      <trkpt lat="48.51773" lon="2.24827">
        <ele>97.4</ele>
        <time>2026-02-02T13:01:46Z</time>
      </trkpt>
      <trkpt lat="48.51768" lon="2.24828">
        <ele>97.4</ele>
        <time>2026-02-02T13:01:47Z</time>
      </trkpt>
      <trkpt lat="48.51762" lon="2.24829">
        <ele>96.4</ele>
        <time>2026-02-02T13:01:48Z</time>
      </trkpt>
      <trkpt lat="48.51756" lon="2.2483">
        <ele>95.8</ele>
        <time>2026-02-02T13:01:49Z</time>
      </trkpt>
      <trkpt lat="48.51749" lon="2.24833">
        <ele>95.8</ele>
        <time>2026-02-02T13:01:50Z</time>
      </trkpt>
      <trkpt lat="48.51743" lon="2.24836">
        <ele>95.8</ele>
        <time>2026-02-02T13:01:51Z</time>
      </trkpt>
      <trkpt lat="48.51736" lon="2.24839">
        <ele>94.8</ele>
        <time>2026-02-02T13:01:52Z</time>
      </trkpt>
      <trkpt lat="48.51728" lon="2.24843">
        <ele>92.2</ele>
        <time>2026-02-02T13:01:53Z</time>
      </trkpt>
      <trkpt lat="48.51721" lon="2.24845">
        <ele>92.2</ele>
        <time>2026-02-02T13:01:54Z</time>
      </trkpt>
      <trkpt lat="48.51713" lon="2.24846">
        <ele>92.2</ele>
        <time>2026-02-02T13:01:55Z</time>
      </trkpt>
      <trkpt lat="48.51705" lon="2.24846">
        <ele>91.2</ele>
        <time>2026-02-02T13:01:56Z</time>
      </trkpt>
      <trkpt lat="48.51698" lon="2.24846">
        <ele>90.2</ele>
        <time>2026-02-02T13:01:57Z</time>
      </trkpt>
      <trkpt lat="48.51692" lon="2.24845">
        <ele>90.2</ele>
        <time>2026-02-02T13:01:58Z</time>
      </trkpt>
      <trkpt lat="48.51687" lon="2.24844">
        <ele>90.2</ele>
        <time>2026-02-02T13:01:59Z</time>
      </trkpt>
      <trkpt lat="48.51684" lon="2.24841">
        <ele>89.4</ele>
        <time>2026-02-02T13:02:00Z</time>
      </trkpt>
      <trkpt lat="48.51681" lon="2.24839">
        <ele>89</ele>
        <time>2026-02-02T13:02:01Z</time>
      </trkpt>
      <trkpt lat="48.5168" lon="2.24836">
        <ele>89</ele>
        <time>2026-02-02T13:02:02Z</time>
      </trkpt>
      <trkpt lat="48.5168" lon="2.24831">
        <ele>89</ele>
        <time>2026-02-02T13:02:03Z</time>
      </trkpt>
      <trkpt lat="48.51681" lon="2.24826">
        <ele>89</ele>
        <time>2026-02-02T13:02:04Z</time>
      </trkpt>
      <trkpt lat="48.51682" lon="2.24821">
        <ele>88.4</ele>
        <time>2026-02-02T13:02:05Z</time>
      </trkpt>
      <trkpt lat="48.51683" lon="2.24815">
        <ele>88.4</ele>
        <time>2026-02-02T13:02:06Z</time>
      </trkpt>
      <trkpt lat="48.51684" lon="2.24809">
        <ele>88.4</ele>
        <time>2026-02-02T13:02:07Z</time>
      </trkpt>
      <trkpt lat="48.51686" lon="2.24802">
        <ele>88.4</ele>
        <time>2026-02-02T13:02:08Z</time>
      </trkpt>
      <trkpt lat="48.51688" lon="2.24795">
        <ele>88.6</ele>
        <time>2026-02-02T13:02:09Z</time>
      </trkpt>
      <trkpt lat="48.51689" lon="2.24786">
        <ele>88.6</ele>
        <time>2026-02-02T13:02:10Z</time>
      </trkpt>
      <trkpt lat="48.5169" lon="2.24778">
        <ele>88.6</ele>
        <time>2026-02-02T13:02:11Z</time>
      </trkpt>
      <trkpt lat="48.51691" lon="2.24769">
        <ele>88.4</ele>
        <time>2026-02-02T13:02:12Z</time>
      </trkpt>
      <trkpt lat="48.51692" lon="2.2476">
        <ele>88.6</ele>
        <time>2026-02-02T13:02:13Z</time>
      </trkpt>
      <trkpt lat="48.51693" lon="2.2475">
        <ele>88.6</ele>
        <time>2026-02-02T13:02:14Z</time>
      </trkpt>
      <trkpt lat="48.51692" lon="2.2474">
        <ele>88.6</ele>
        <time>2026-02-02T13:02:15Z</time>
      </trkpt>
      <trkpt lat="48.51692" lon="2.2473">
        <ele>87.6</ele>
        <time>2026-02-02T13:02:16Z</time>
      </trkpt>
      <trkpt lat="48.51692" lon="2.24719">
        <ele>87.4</ele>
        <time>2026-02-02T13:02:17Z</time>
      </trkpt>
      <trkpt lat="48.51691" lon="2.24708">
        <ele>87.4</ele>
        <time>2026-02-02T13:02:18Z</time>
      </trkpt>
      <trkpt lat="48.5169" lon="2.24696">
        <ele>87.4</ele>
        <time>2026-02-02T13:02:19Z</time>
      </trkpt>
      <trkpt lat="48.51689" lon="2.24684">
        <ele>86.4</ele>
        <time>2026-02-02T13:02:20Z</time>
      </trkpt>
      <trkpt lat="48.51688" lon="2.24672">
        <ele>85.8</ele>
        <time>2026-02-02T13:02:21Z</time>
      </trkpt>
      <trkpt lat="48.51687" lon="2.2466">
        <ele>85.8</ele>
        <time>2026-02-02T13:02:22Z</time>
      </trkpt>
      <trkpt lat="48.51686" lon="2.24648">
        <ele>85.8</ele>
        <time>2026-02-02T13:02:23Z</time>
      </trkpt>
      <trkpt lat="48.51685" lon="2.24636">
        <ele>85.4</ele>
        <time>2026-02-02T13:02:24Z</time>
      </trkpt>
      <trkpt lat="48.51684" lon="2.24624">
        <ele>86</ele>
        <time>2026-02-02T13:02:25Z</time>
      </trkpt>
      <trkpt lat="48.51683" lon="2.24612">
        <ele>86</ele>
        <time>2026-02-02T13:02:26Z</time>
      </trkpt>
      <trkpt lat="48.51683" lon="2.24601">
        <ele>86</ele>
        <time>2026-02-02T13:02:27Z</time>
      </trkpt>
      <trkpt lat="48.51682" lon="2.24589">
        <ele>86</ele>
        <time>2026-02-02T13:02:28Z</time>
      </trkpt>
      <trkpt lat="48.51682" lon="2.24578">
        <ele>85.2</ele>
        <time>2026-02-02T13:02:29Z</time>
      </trkpt>
      <trkpt lat="48.51681" lon="2.24567">
        <ele>85.2</ele>
        <time>2026-02-02T13:02:30Z</time>
      </trkpt>
      <trkpt lat="48.51681" lon="2.24556">
        <ele>85.2</ele>
        <time>2026-02-02T13:02:31Z</time>
      </trkpt>
      <trkpt lat="48.5168" lon="2.24546">
        <ele>86</ele>
        <time>2026-02-02T13:02:32Z</time>
      </trkpt>
      <trkpt lat="48.51679" lon="2.24535">
        <ele>86</ele>
        <time>2026-02-02T13:02:33Z</time>
      </trkpt>
      <trkpt lat="48.51678" lon="2.24524">
        <ele>86</ele>
        <time>2026-02-02T13:02:34Z</time>
      </trkpt>
      <trkpt lat="48.51678" lon="2.24513">
        <ele>86</ele>
        <time>2026-02-02T13:02:35Z</time>
      </trkpt>
      <trkpt lat="48.51677" lon="2.24501">
        <ele>85.4</ele>
        <time>2026-02-02T13:02:36Z</time>
      </trkpt>
      <trkpt lat="48.51675" lon="2.24489">
        <ele>84.6</ele>
        <time>2026-02-02T13:02:37Z</time>
      </trkpt>
      <trkpt lat="48.51672" lon="2.24477">
        <ele>84.6</ele>
        <time>2026-02-02T13:02:38Z</time>
      </trkpt>
      <trkpt lat="48.5167" lon="2.24465">
        <ele>84.6</ele>
        <time>2026-02-02T13:02:39Z</time>
      </trkpt>
      <trkpt lat="48.51667" lon="2.24452">
        <ele>83.6</ele>
        <time>2026-02-02T13:02:40Z</time>
      </trkpt>
      <trkpt lat="48.51664" lon="2.2444">
        <ele>84</ele>
        <time>2026-02-02T13:02:41Z</time>
      </trkpt>
      <trkpt lat="48.51661" lon="2.24428">
        <ele>84</ele>
        <time>2026-02-02T13:02:42Z</time>
      </trkpt>
      <trkpt lat="48.51657" lon="2.24416">
        <ele>84</ele>
        <time>2026-02-02T13:02:43Z</time>
      </trkpt>
      <trkpt lat="48.51654" lon="2.24404">
        <ele>84</ele>
        <time>2026-02-02T13:02:44Z</time>
      </trkpt>
      <trkpt lat="48.51651" lon="2.24392">
        <ele>84</ele>
        <time>2026-02-02T13:02:45Z</time>
      </trkpt>
      <trkpt lat="48.51648" lon="2.2438">
        <ele>84</ele>
        <time>2026-02-02T13:02:46Z</time>
      </trkpt>
      <trkpt lat="48.51645" lon="2.2437">
        <ele>84</ele>
        <time>2026-02-02T13:02:47Z</time>
      </trkpt>
      <trkpt lat="48.51642" lon="2.24358">
        <ele>84</ele>
        <time>2026-02-02T13:02:48Z</time>
      </trkpt>
      <trkpt lat="48.5164" lon="2.24347">
        <ele>84.2</ele>
        <time>2026-02-02T13:02:49Z</time>
      </trkpt>
      <trkpt lat="48.51637" lon="2.24335">
        <ele>84.2</ele>
        <time>2026-02-02T13:02:50Z</time>
      </trkpt>
      <trkpt lat="48.51634" lon="2.24324">
        <ele>84.2</ele>
        <time>2026-02-02T13:02:51Z</time>
      </trkpt>
      <trkpt lat="48.51632" lon="2.24314">
        <ele>83.8</ele>
        <time>2026-02-02T13:02:52Z</time>
      </trkpt>
      <trkpt lat="48.51629" lon="2.24303">
        <ele>83.8</ele>
        <time>2026-02-02T13:02:53Z</time>
      </trkpt>
      <trkpt lat="48.51626" lon="2.24293">
        <ele>83.8</ele>
        <time>2026-02-02T13:02:54Z</time>
      </trkpt>
      <trkpt lat="48.51624" lon="2.24283">
        <ele>83.8</ele>
        <time>2026-02-02T13:02:55Z</time>
      </trkpt>
      <trkpt lat="48.51621" lon="2.24274">
        <ele>84.6</ele>
        <time>2026-02-02T13:02:56Z</time>
      </trkpt>
      <trkpt lat="48.51618" lon="2.24265">
        <ele>84.8</ele>
        <time>2026-02-02T13:02:57Z</time>
      </trkpt>
      <trkpt lat="48.51616" lon="2.24256">
        <ele>84.8</ele>
        <time>2026-02-02T13:02:58Z</time>
      </trkpt>
      <trkpt lat="48.51614" lon="2.24247">
        <ele>84.8</ele>
        <time>2026-02-02T13:02:59Z</time>
      </trkpt>
      <trkpt lat="48.51612" lon="2.24239">
        <ele>85.2</ele>
        <time>2026-02-02T13:03:00Z</time>
      </trkpt>
      <trkpt lat="48.5161" lon="2.24231">
        <ele>85.6</ele>
        <time>2026-02-02T13:03:01Z</time>
      </trkpt>
      <trkpt lat="48.51608" lon="2.24223">
        <ele>85.6</ele>
        <time>2026-02-02T13:03:02Z</time>
      </trkpt>
      <trkpt lat="48.51606" lon="2.24216">
        <ele>85.6</ele>
        <time>2026-02-02T13:03:03Z</time>
      </trkpt>
      <trkpt lat="48.51605" lon="2.24208">
        <ele>86</ele>
        <time>2026-02-02T13:03:04Z</time>
      </trkpt>
      <trkpt lat="48.51604" lon="2.24201">
        <ele>86.6</ele>
        <time>2026-02-02T13:03:05Z</time>
      </trkpt>
      <trkpt lat="48.51601" lon="2.24193">
        <ele>86.6</ele>
        <time>2026-02-02T13:03:06Z</time>
      </trkpt>
      <trkpt lat="48.516" lon="2.24186">
        <ele>86.6</ele>
        <time>2026-02-02T13:03:07Z</time>
      </trkpt>
      <trkpt lat="48.51598" lon="2.2418">
        <ele>86.6</ele>
        <time>2026-02-02T13:03:08Z</time>
      </trkpt>
      <trkpt lat="48.51596" lon="2.24173">
        <ele>86.6</ele>
        <time>2026-02-02T13:03:09Z</time>
      </trkpt>
      <trkpt lat="48.51594" lon="2.24166">
        <ele>86.6</ele>
        <time>2026-02-02T13:03:10Z</time>
      </trkpt>
      <trkpt lat="48.51592" lon="2.24159">
        <ele>86.6</ele>
        <time>2026-02-02T13:03:11Z</time>
      </trkpt>
      <trkpt lat="48.5159" lon="2.24152">
        <ele>87.2</ele>
        <time>2026-02-02T13:03:12Z</time>
      </trkpt>
      <trkpt lat="48.51588" lon="2.24144">
        <ele>87.2</ele>
        <time>2026-02-02T13:03:13Z</time>
      </trkpt>
      <trkpt lat="48.51586" lon="2.24137">
        <ele>87.2</ele>
        <time>2026-02-02T13:03:14Z</time>
      </trkpt>
      <trkpt lat="48.51584" lon="2.2413">
        <ele>87.2</ele>
        <time>2026-02-02T13:03:15Z</time>
      </trkpt>
      <trkpt lat="48.51581" lon="2.24122">
        <ele>87.2</ele>
        <time>2026-02-02T13:03:16Z</time>
      </trkpt>
      <trkpt lat="48.51579" lon="2.24115">
        <ele>87.4</ele>
        <time>2026-02-02T13:03:17Z</time>
      </trkpt>
      <trkpt lat="48.51577" lon="2.24108">
        <ele>87.4</ele>
        <time>2026-02-02T13:03:18Z</time>
      </trkpt>
      <trkpt lat="48.51574" lon="2.24101">
        <ele>87.4</ele>
        <time>2026-02-02T13:03:19Z</time>
      </trkpt>
      <trkpt lat="48.51572" lon="2.24093">
        <ele>87.8</ele>
        <time>2026-02-02T13:03:20Z</time>
      </trkpt>
      <trkpt lat="48.5157" lon="2.24086">
        <ele>87.8</ele>
        <time>2026-02-02T13:03:21Z</time>
      </trkpt>
      <trkpt lat="48.51568" lon="2.24078">
        <ele>87.8</ele>
        <time>2026-02-02T13:03:22Z</time>
      </trkpt>
      <trkpt lat="48.51566" lon="2.24071">
        <ele>87.8</ele>
        <time>2026-02-02T13:03:23Z</time>
      </trkpt>
      <trkpt lat="48.51564" lon="2.24063">
        <ele>87.2</ele>
        <time>2026-02-02T13:03:24Z</time>
      </trkpt>
      <trkpt lat="48.51563" lon="2.24055">
        <ele>87.6</ele>
        <time>2026-02-02T13:03:25Z</time>
      </trkpt>
      <trkpt lat="48.51561" lon="2.24047">
        <ele>87.6</ele>
        <time>2026-02-02T13:03:26Z</time>
      </trkpt>
      <trkpt lat="48.5156" lon="2.2404">
        <ele>87.6</ele>
        <time>2026-02-02T13:03:27Z</time>
      </trkpt>
      <trkpt lat="48.51559" lon="2.24032">
        <ele>87.6</ele>
        <time>2026-02-02T13:03:28Z</time>
      </trkpt>
      <trkpt lat="48.51558" lon="2.24025">
        <ele>88.2</ele>
        <time>2026-02-02T13:03:29Z</time>
      </trkpt>
      <trkpt lat="48.51557" lon="2.24017">
        <ele>88.2</ele>
        <time>2026-02-02T13:03:30Z</time>
      </trkpt>
      <trkpt lat="48.51557" lon="2.2401">
        <ele>88.2</ele>
        <time>2026-02-02T13:03:31Z</time>
      </trkpt>
      <trkpt lat="48.51556" lon="2.24004">
        <ele>88.2</ele>
        <time>2026-02-02T13:03:32Z</time>
      </trkpt>
      <trkpt lat="48.51556" lon="2.23998">
        <ele>88.8</ele>
        <time>2026-02-02T13:03:33Z</time>
      </trkpt>
      <trkpt lat="48.51556" lon="2.23992">
        <ele>88.8</ele>
        <time>2026-02-02T13:03:34Z</time>
      </trkpt>
      <trkpt lat="48.51556" lon="2.23987">
        <ele>88.8</ele>
        <time>2026-02-02T13:03:35Z</time>
      </trkpt>
      <trkpt lat="48.51556" lon="2.23981">
        <ele>89.8</ele>
        <time>2026-02-02T13:03:36Z</time>
      </trkpt>
      <trkpt lat="48.51556" lon="2.23975">
        <ele>90</ele>
        <time>2026-02-02T13:03:37Z</time>
      </trkpt>
      <trkpt lat="48.51555" lon="2.23969">
        <ele>90</ele>
        <time>2026-02-02T13:03:38Z</time>
      </trkpt>
      <trkpt lat="48.51555" lon="2.23963">
        <ele>90</ele>
        <time>2026-02-02T13:03:39Z</time>
      </trkpt>
      <trkpt lat="48.51554" lon="2.23956">
        <ele>90.8</ele>
        <time>2026-02-02T13:03:40Z</time>
      </trkpt>
      <trkpt lat="48.51553" lon="2.23948">
        <ele>91.2</ele>
        <time>2026-02-02T13:03:41Z</time>
      </trkpt>
      <trkpt lat="48.51552" lon="2.23941">
        <ele>91.2</ele>
        <time>2026-02-02T13:03:42Z</time>
      </trkpt>
      <trkpt lat="48.51551" lon="2.23934">
        <ele>91.2</ele>
        <time>2026-02-02T13:03:43Z</time>
      </trkpt>
      <trkpt lat="48.51549" lon="2.23926">
        <ele>91.2</ele>
        <time>2026-02-02T13:03:44Z</time>
      </trkpt>
      <trkpt lat="48.51547" lon="2.23919">
        <ele>91.2</ele>
        <time>2026-02-02T13:03:45Z</time>
      </trkpt>
      <trkpt lat="48.51545" lon="2.23911">
        <ele>91.2</ele>
        <time>2026-02-02T13:03:46Z</time>
      </trkpt>
      <trkpt lat="48.51543" lon="2.23904">
        <ele>91.2</ele>
        <time>2026-02-02T13:03:47Z</time>
      </trkpt>
      <trkpt lat="48.51541" lon="2.23896">
        <ele>91.2</ele>
        <time>2026-02-02T13:03:48Z</time>
      </trkpt>
      <trkpt lat="48.51539" lon="2.23888">
        <ele>91.4</ele>
        <time>2026-02-02T13:03:49Z</time>
      </trkpt>
      <trkpt lat="48.51537" lon="2.2388">
        <ele>91.4</ele>
        <time>2026-02-02T13:03:50Z</time>
      </trkpt>
      <trkpt lat="48.51534" lon="2.23872">
        <ele>91.4</ele>
        <time>2026-02-02T13:03:51Z</time>
      </trkpt>
      <trkpt lat="48.51532" lon="2.23864">
        <ele>91.4</ele>
        <time>2026-02-02T13:03:52Z</time>
      </trkpt>
      <trkpt lat="48.5153" lon="2.23856">
        <ele>91.6</ele>
        <time>2026-02-02T13:03:53Z</time>
      </trkpt>
      <trkpt lat="48.51527" lon="2.23848">
        <ele>91.6</ele>
        <time>2026-02-02T13:03:54Z</time>
      </trkpt>
      <trkpt lat="48.51525" lon="2.23841">
        <ele>91.6</ele>
        <time>2026-02-02T13:03:55Z</time>
      </trkpt>
      <trkpt lat="48.51523" lon="2.23833">
        <ele>91.8</ele>
        <time>2026-02-02T13:03:56Z</time>
      </trkpt>
      <trkpt lat="48.5152" lon="2.23825">
        <ele>91.8</ele>
        <time>2026-02-02T13:03:57Z</time>
      </trkpt>
      <trkpt lat="48.51518" lon="2.23817">
        <ele>91.8</ele>
        <time>2026-02-02T13:03:58Z</time>
      </trkpt>
      <trkpt lat="48.51516" lon="2.23809">
        <ele>91.8</ele>
        <time>2026-02-02T13:03:59Z</time>
      </trkpt>
      <trkpt lat="48.51513" lon="2.23801">
        <ele>91.8</ele>
        <time>2026-02-02T13:04:00Z</time>
      </trkpt>
      <trkpt lat="48.51511" lon="2.23793">
        <ele>91.8</ele>
        <time>2026-02-02T13:04:01Z</time>
      </trkpt>
      <trkpt lat="48.5151" lon="2.23785">
        <ele>91.8</ele>
        <time>2026-02-02T13:04:02Z</time>
      </trkpt>
      <trkpt lat="48.51508" lon="2.23777">
        <ele>91.8</ele>
        <time>2026-02-02T13:04:03Z</time>
      </trkpt>
      <trkpt lat="48.51506" lon="2.23769">
        <ele>91.8</ele>
        <time>2026-02-02T13:04:04Z</time>
      </trkpt>
      <trkpt lat="48.51505" lon="2.23761">
        <ele>92.2</ele>
        <time>2026-02-02T13:04:05Z</time>
      </trkpt>
      <trkpt lat="48.51504" lon="2.23753">
        <ele>92.2</ele>
        <time>2026-02-02T13:04:06Z</time>
      </trkpt>
      <trkpt lat="48.51502" lon="2.23744">
        <ele>92.2</ele>
        <time>2026-02-02T13:04:07Z</time>
      </trkpt>
      <trkpt lat="48.51501" lon="2.23736">
        <ele>92.4</ele>
        <time>2026-02-02T13:04:08Z</time>
      </trkpt>
      <trkpt lat="48.515" lon="2.23728">
        <ele>92.2</ele>
        <time>2026-02-02T13:04:09Z</time>
      </trkpt>
      <trkpt lat="48.51499" lon="2.23719">
        <ele>92.2</ele>
        <time>2026-02-02T13:04:10Z</time>
      </trkpt>
      <trkpt lat="48.51498" lon="2.23711">
        <ele>92.2</ele>
        <time>2026-02-02T13:04:11Z</time>
      </trkpt>
      <trkpt lat="48.51496" lon="2.23702">
        <ele>92.4</ele>
        <time>2026-02-02T13:04:12Z</time>
      </trkpt>
      <trkpt lat="48.51495" lon="2.23694">
        <ele>92.2</ele>
        <time>2026-02-02T13:04:13Z</time>
      </trkpt>
      <trkpt lat="48.51493" lon="2.23685">
        <ele>92.2</ele>
        <time>2026-02-02T13:04:14Z</time>
      </trkpt>
      <trkpt lat="48.51492" lon="2.23676">
        <ele>92.2</ele>
        <time>2026-02-02T13:04:15Z</time>
      </trkpt>
      <trkpt lat="48.5149" lon="2.23667">
        <ele>92</ele>
        <time>2026-02-02T13:04:16Z</time>
      </trkpt>
      <trkpt lat="48.51489" lon="2.23658">
        <ele>92.2</ele>
        <time>2026-02-02T13:04:17Z</time>
      </trkpt>
      <trkpt lat="48.51487" lon="2.23649">
        <ele>92.2</ele>
        <time>2026-02-02T13:04:18Z</time>
      </trkpt>
      <trkpt lat="48.51485" lon="2.2364">
        <ele>92.2</ele>
        <time>2026-02-02T13:04:19Z</time>
      </trkpt>
      <trkpt lat="48.51483" lon="2.23631">
        <ele>92.2</ele>
        <time>2026-02-02T13:04:20Z</time>
      </trkpt>
      <trkpt lat="48.51481" lon="2.23622">
        <ele>91.6</ele>
        <time>2026-02-02T13:04:21Z</time>
      </trkpt>
      <trkpt lat="48.51478" lon="2.23612">
        <ele>91.6</ele>
        <time>2026-02-02T13:04:22Z</time>
      </trkpt>
      <trkpt lat="48.51476" lon="2.23603">
        <ele>91.6</ele>
        <time>2026-02-02T13:04:23Z</time>
      </trkpt>
      <trkpt lat="48.51474" lon="2.23593">
        <ele>91.6</ele>
        <time>2026-02-02T13:04:24Z</time>
      </trkpt>
      <trkpt lat="48.51472" lon="2.23583">
        <ele>91.2</ele>
        <time>2026-02-02T13:04:25Z</time>
      </trkpt>
      <trkpt lat="48.51469" lon="2.23573">
        <ele>91.2</ele>
        <time>2026-02-02T13:04:26Z</time>
      </trkpt>
      <trkpt lat="48.51467" lon="2.23563">
        <ele>91.2</ele>
        <time>2026-02-02T13:04:27Z</time>
      </trkpt>
      <trkpt lat="48.51465" lon="2.23553">
        <ele>91.2</ele>
        <time>2026-02-02T13:04:28Z</time>
      </trkpt>
      <trkpt lat="48.51463" lon="2.23543">
        <ele>90.6</ele>
        <time>2026-02-02T13:04:29Z</time>
      </trkpt>
      <trkpt lat="48.51461" lon="2.23533">
        <ele>90.6</ele>
        <time>2026-02-02T13:04:30Z</time>
      </trkpt>
      <trkpt lat="48.51458" lon="2.23523">
        <ele>90.6</ele>
        <time>2026-02-02T13:04:31Z</time>
      </trkpt>
      <trkpt lat="48.51456" lon="2.23512">
        <ele>91</ele>
        <time>2026-02-02T13:04:32Z</time>
      </trkpt>
      <trkpt lat="48.51453" lon="2.23502">
        <ele>90.6</ele>
        <time>2026-02-02T13:04:33Z</time>
      </trkpt>
      <trkpt lat="48.5145" lon="2.23492">
        <ele>90.6</ele>
        <time>2026-02-02T13:04:34Z</time>
      </trkpt>
      <trkpt lat="48.51447" lon="2.23482">
        <ele>90.6</ele>
        <time>2026-02-02T13:04:35Z</time>
      </trkpt>
      <trkpt lat="48.51444" lon="2.23471">
        <ele>90.4</ele>
        <time>2026-02-02T13:04:36Z</time>
      </trkpt>
      <trkpt lat="48.51442" lon="2.23461">
        <ele>90</ele>
        <time>2026-02-02T13:04:37Z</time>
      </trkpt>
      <trkpt lat="48.51439" lon="2.2345">
        <ele>90</ele>
        <time>2026-02-02T13:04:38Z</time>
      </trkpt>
      <trkpt lat="48.51436" lon="2.2344">
        <ele>90</ele>
        <time>2026-02-02T13:04:39Z</time>
      </trkpt>
      <trkpt lat="48.51433" lon="2.2343">
        <ele>90</ele>
        <time>2026-02-02T13:04:40Z</time>
      </trkpt>
      <trkpt lat="48.5143" lon="2.2342">
        <ele>90</ele>
        <time>2026-02-02T13:04:41Z</time>
      </trkpt>
      <trkpt lat="48.51427" lon="2.2341">
        <ele>90</ele>
        <time>2026-02-02T13:04:42Z</time>
      </trkpt>
      <trkpt lat="48.51424" lon="2.234">
        <ele>90</ele>
        <time>2026-02-02T13:04:43Z</time>
      </trkpt>
      <trkpt lat="48.51422" lon="2.23389">
        <ele>90</ele>
        <time>2026-02-02T13:04:44Z</time>
      </trkpt>
      <trkpt lat="48.5142" lon="2.23379">
        <ele>90</ele>
        <time>2026-02-02T13:04:45Z</time>
      </trkpt>
      <trkpt lat="48.51418" lon="2.23368">
        <ele>90</ele>
        <time>2026-02-02T13:04:46Z</time>
      </trkpt>
      <trkpt lat="48.51416" lon="2.23358">
        <ele>90</ele>
        <time>2026-02-02T13:04:47Z</time>
      </trkpt>
      <trkpt lat="48.51416" lon="2.23347">
        <ele>90</ele>
        <time>2026-02-02T13:04:48Z</time>
      </trkpt>
      <trkpt lat="48.51418" lon="2.23337">
        <ele>89.6</ele>
        <time>2026-02-02T13:04:49Z</time>
      </trkpt>
      <trkpt lat="48.51417" lon="2.23327">
        <ele>89.6</ele>
        <time>2026-02-02T13:04:50Z</time>
      </trkpt>
      <trkpt lat="48.51418" lon="2.23317">
        <ele>89.6</ele>
        <time>2026-02-02T13:04:51Z</time>
      </trkpt>
      <trkpt lat="48.51418" lon="2.23307">
        <ele>89.6</ele>
        <time>2026-02-02T13:04:52Z</time>
      </trkpt>
      <trkpt lat="48.51419" lon="2.23298">
        <ele>89.8</ele>
        <time>2026-02-02T13:04:53Z</time>
      </trkpt>
      <trkpt lat="48.5142" lon="2.23288">
        <ele>89.8</ele>
        <time>2026-02-02T13:04:54Z</time>
      </trkpt>
      <trkpt lat="48.51421" lon="2.23279">
        <ele>89.8</ele>
        <time>2026-02-02T13:04:55Z</time>
      </trkpt>
      <trkpt lat="48.51422" lon="2.23269">
        <ele>89.8</ele>
        <time>2026-02-02T13:04:56Z</time>
      </trkpt>
      <trkpt lat="48.51422" lon="2.23262">
        <ele>90</ele>
        <time>2026-02-02T13:04:57Z</time>
      </trkpt>
      <trkpt lat="48.51423" lon="2.23252">
        <ele>90</ele>
        <time>2026-02-02T13:04:58Z</time>
      </trkpt>
      <trkpt lat="48.51426" lon="2.23243">
        <ele>90</ele>
        <time>2026-02-02T13:04:59Z</time>
      </trkpt>
      <trkpt lat="48.51428" lon="2.23235">
        <ele>90</ele>
        <time>2026-02-02T13:05:00Z</time>
      </trkpt>
      <trkpt lat="48.5143" lon="2.23228">
        <ele>90</ele>
        <time>2026-02-02T13:05:01Z</time>
      </trkpt>
      <trkpt lat="48.51431" lon="2.2322">
        <ele>90</ele>
        <time>2026-02-02T13:05:02Z</time>
      </trkpt>
      <trkpt lat="48.51433" lon="2.23212">
        <ele>90</ele>
        <time>2026-02-02T13:05:03Z</time>
      </trkpt>
      <trkpt lat="48.51434" lon="2.23203">
        <ele>90.6</ele>
        <time>2026-02-02T13:05:04Z</time>
      </trkpt>
      <trkpt lat="48.51435" lon="2.23194">
        <ele>90</ele>
        <time>2026-02-02T13:05:05Z</time>
      </trkpt>
      <trkpt lat="48.51437" lon="2.23187">
        <ele>90</ele>
        <time>2026-02-02T13:05:06Z</time>
      </trkpt>
      <trkpt lat="48.51439" lon="2.23179">
        <ele>90</ele>
        <time>2026-02-02T13:05:07Z</time>
      </trkpt>
      <trkpt lat="48.51441" lon="2.2317">
        <ele>90.4</ele>
        <time>2026-02-02T13:05:08Z</time>
      </trkpt>
      <trkpt lat="48.51443" lon="2.23162">
        <ele>90.6</ele>
        <time>2026-02-02T13:05:09Z</time>
      </trkpt>
      <trkpt lat="48.51445" lon="2.23152">
        <ele>90.6</ele>
        <time>2026-02-02T13:05:10Z</time>
      </trkpt>
      <trkpt lat="48.51447" lon="2.23142">
        <ele>90.6</ele>
        <time>2026-02-02T13:05:11Z</time>
      </trkpt>
      <trkpt lat="48.51449" lon="2.23132">
        <ele>90.6</ele>
        <time>2026-02-02T13:05:12Z</time>
      </trkpt>
      <trkpt lat="48.51451" lon="2.23123">
        <ele>90.4</ele>
        <time>2026-02-02T13:05:13Z</time>
      </trkpt>
      <trkpt lat="48.51453" lon="2.23113">
        <ele>90.4</ele>
        <time>2026-02-02T13:05:14Z</time>
      </trkpt>
      <trkpt lat="48.51455" lon="2.23103">
        <ele>90.4</ele>
        <time>2026-02-02T13:05:15Z</time>
      </trkpt>
      <trkpt lat="48.51457" lon="2.23092">
        <ele>90.4</ele>
        <time>2026-02-02T13:05:16Z</time>
      </trkpt>
      <trkpt lat="48.51459" lon="2.23081">
        <ele>90.2</ele>
        <time>2026-02-02T13:05:17Z</time>
      </trkpt>
      <trkpt lat="48.51461" lon="2.23071">
        <ele>90.2</ele>
        <time>2026-02-02T13:05:18Z</time>
      </trkpt>
      <trkpt lat="48.51463" lon="2.2306">
        <ele>90.2</ele>
        <time>2026-02-02T13:05:19Z</time>
      </trkpt>
      <trkpt lat="48.51465" lon="2.2305">
        <ele>90.2</ele>
        <time>2026-02-02T13:05:20Z</time>
      </trkpt>
      <trkpt lat="48.51468" lon="2.23041">
        <ele>90.4</ele>
        <time>2026-02-02T13:05:21Z</time>
      </trkpt>
      <trkpt lat="48.51471" lon="2.23032">
        <ele>90.4</ele>
        <time>2026-02-02T13:05:22Z</time>
      </trkpt>
      <trkpt lat="48.51474" lon="2.23023">
        <ele>90.4</ele>
        <time>2026-02-02T13:05:23Z</time>
      </trkpt>
      <trkpt lat="48.51477" lon="2.23014">
        <ele>90.4</ele>
        <time>2026-02-02T13:05:24Z</time>
      </trkpt>
      <trkpt lat="48.5148" lon="2.23005">
        <ele>90</ele>
        <time>2026-02-02T13:05:25Z</time>
      </trkpt>
      <trkpt lat="48.51483" lon="2.22997">
        <ele>90</ele>
        <time>2026-02-02T13:05:26Z</time>
      </trkpt>
      <trkpt lat="48.51487" lon="2.2299">
        <ele>90</ele>
        <time>2026-02-02T13:05:27Z</time>
      </trkpt>
      <trkpt lat="48.51491" lon="2.22983">
        <ele>91</ele>
        <time>2026-02-02T13:05:28Z</time>
      </trkpt>
      <trkpt lat="48.51495" lon="2.22976">
        <ele>91.2</ele>
        <time>2026-02-02T13:05:29Z</time>
      </trkpt>
      <trkpt lat="48.51499" lon="2.2297">
        <ele>91.2</ele>
        <time>2026-02-02T13:05:30Z</time>
      </trkpt>
      <trkpt lat="48.51502" lon="2.22964">
        <ele>91.2</ele>
        <time>2026-02-02T13:05:31Z</time>
      </trkpt>
      <trkpt lat="48.51506" lon="2.22958">
        <ele>91.2</ele>
        <time>2026-02-02T13:05:32Z</time>
      </trkpt>
      <trkpt lat="48.51509" lon="2.22952">
        <ele>92.2</ele>
        <time>2026-02-02T13:05:33Z</time>
      </trkpt>
      <trkpt lat="48.51512" lon="2.22947">
        <ele>92.2</ele>
        <time>2026-02-02T13:05:34Z</time>
      </trkpt>
      <trkpt lat="48.51515" lon="2.22942">
        <ele>92.2</ele>
        <time>2026-02-02T13:05:35Z</time>
      </trkpt>
      <trkpt lat="48.51518" lon="2.22937">
        <ele>93</ele>
        <time>2026-02-02T13:05:36Z</time>
      </trkpt>
      <trkpt lat="48.51521" lon="2.22933">
        <ele>93.2</ele>
        <time>2026-02-02T13:05:37Z</time>
      </trkpt>
      <trkpt lat="48.51524" lon="2.22929">
        <ele>93.2</ele>
        <time>2026-02-02T13:05:38Z</time>
      </trkpt>
      <trkpt lat="48.51527" lon="2.22924">
        <ele>93.2</ele>
        <time>2026-02-02T13:05:39Z</time>
      </trkpt>
      <trkpt lat="48.51529" lon="2.2292">
        <ele>94</ele>
        <time>2026-02-02T13:05:40Z</time>
      </trkpt>
      <trkpt lat="48.51532" lon="2.22914">
        <ele>94</ele>
        <time>2026-02-02T13:05:41Z</time>
      </trkpt>
      <trkpt lat="48.51534" lon="2.22907">
        <ele>94</ele>
        <time>2026-02-02T13:05:42Z</time>
      </trkpt>
      <trkpt lat="48.51536" lon="2.22901">
        <ele>94</ele>
        <time>2026-02-02T13:05:43Z</time>
      </trkpt>
      <trkpt lat="48.51538" lon="2.22895">
        <ele>94.6</ele>
        <time>2026-02-02T13:05:44Z</time>
      </trkpt>
      <trkpt lat="48.5154" lon="2.22888">
        <ele>95.2</ele>
        <time>2026-02-02T13:05:45Z</time>
      </trkpt>
      <trkpt lat="48.51542" lon="2.22882">
        <ele>95.2</ele>
        <time>2026-02-02T13:05:46Z</time>
      </trkpt>
      <trkpt lat="48.51543" lon="2.22875">
        <ele>95.2</ele>
        <time>2026-02-02T13:05:47Z</time>
      </trkpt>
      <trkpt lat="48.51544" lon="2.22868">
        <ele>95.2</ele>
        <time>2026-02-02T13:05:48Z</time>
      </trkpt>
      <trkpt lat="48.51545" lon="2.2286">
        <ele>95.8</ele>
        <time>2026-02-02T13:05:49Z</time>
      </trkpt>
      <trkpt lat="48.51546" lon="2.22854">
        <ele>95.8</ele>
        <time>2026-02-02T13:05:50Z</time>
      </trkpt>
      <trkpt lat="48.51548" lon="2.22847">
        <ele>95.8</ele>
        <time>2026-02-02T13:05:51Z</time>
      </trkpt>
      <trkpt lat="48.51548" lon="2.2284">
        <ele>95.8</ele>
        <time>2026-02-02T13:05:52Z</time>
      </trkpt>
      <trkpt lat="48.5155" lon="2.22834">
        <ele>95.8</ele>
        <time>2026-02-02T13:05:53Z</time>
      </trkpt>
      <trkpt lat="48.51552" lon="2.22827">
        <ele>95.8</ele>
        <time>2026-02-02T13:05:54Z</time>
      </trkpt>
      <trkpt lat="48.51554" lon="2.2282">
        <ele>95.8</ele>
        <time>2026-02-02T13:05:55Z</time>
      </trkpt>
      <trkpt lat="48.51555" lon="2.22813">
        <ele>95.8</ele>
        <time>2026-02-02T13:05:56Z</time>
      </trkpt>
      <trkpt lat="48.51557" lon="2.22806">
        <ele>95.8</ele>
        <time>2026-02-02T13:05:57Z</time>
      </trkpt>
      <trkpt lat="48.51559" lon="2.22799">
        <ele>95.8</ele>
        <time>2026-02-02T13:05:58Z</time>
      </trkpt>
      <trkpt lat="48.51561" lon="2.22792">
        <ele>95.8</ele>
        <time>2026-02-02T13:05:59Z</time>
      </trkpt>
      <trkpt lat="48.51563" lon="2.22785">
        <ele>96.2</ele>
        <time>2026-02-02T13:06:00Z</time>
      </trkpt>
      <trkpt lat="48.51565" lon="2.22778">
        <ele>96.6</ele>
        <time>2026-02-02T13:06:01Z</time>
      </trkpt>
      <trkpt lat="48.51568" lon="2.22772">
        <ele>96.6</ele>
        <time>2026-02-02T13:06:02Z</time>
      </trkpt>
      <trkpt lat="48.5157" lon="2.22766">
        <ele>96.6</ele>
        <time>2026-02-02T13:06:03Z</time>
      </trkpt>
      <trkpt lat="48.51572" lon="2.2276">
        <ele>96.6</ele>
        <time>2026-02-02T13:06:04Z</time>
      </trkpt>
      <trkpt lat="48.51574" lon="2.22754">
        <ele>96.8</ele>
        <time>2026-02-02T13:06:05Z</time>
      </trkpt>
      <trkpt lat="48.51576" lon="2.22748">
        <ele>96.8</ele>
        <time>2026-02-02T13:06:06Z</time>
      </trkpt>
      <trkpt lat="48.51578" lon="2.22742">
        <ele>96.8</ele>
        <time>2026-02-02T13:06:07Z</time>
      </trkpt>
      <trkpt lat="48.51581" lon="2.22736">
        <ele>97.2</ele>
        <time>2026-02-02T13:06:08Z</time>
      </trkpt>
      <trkpt lat="48.51583" lon="2.2273">
        <ele>97</ele>
        <time>2026-02-02T13:06:09Z</time>
      </trkpt>
      <trkpt lat="48.51585" lon="2.22724">
        <ele>97</ele>
        <time>2026-02-02T13:06:10Z</time>
      </trkpt>
      <trkpt lat="48.51586" lon="2.22718">
        <ele>97</ele>
        <time>2026-02-02T13:06:11Z</time>
      </trkpt>
      <trkpt lat="48.51588" lon="2.22712">
        <ele>97.2</ele>
        <time>2026-02-02T13:06:12Z</time>
      </trkpt>
      <trkpt lat="48.51591" lon="2.22706">
        <ele>97.4</ele>
        <time>2026-02-02T13:06:13Z</time>
      </trkpt>
      <trkpt lat="48.51593" lon="2.227">
        <ele>97.4</ele>
        <time>2026-02-02T13:06:14Z</time>
      </trkpt>
      <trkpt lat="48.51595" lon="2.22694">
        <ele>97.4</ele>
        <time>2026-02-02T13:06:15Z</time>
      </trkpt>
      <trkpt lat="48.51596" lon="2.22687">
        <ele>97.4</ele>
        <time>2026-02-02T13:06:16Z</time>
      </trkpt>
      <trkpt lat="48.51599" lon="2.22681">
        <ele>97.6</ele>
        <time>2026-02-02T13:06:17Z</time>
      </trkpt>
      <trkpt lat="48.51601" lon="2.22675">
        <ele>97.6</ele>
        <time>2026-02-02T13:06:18Z</time>
      </trkpt>
      <trkpt lat="48.51603" lon="2.2267">
        <ele>97.6</ele>
        <time>2026-02-02T13:06:19Z</time>
      </trkpt>
      <trkpt lat="48.51606" lon="2.22664">
        <ele>98.2</ele>
        <time>2026-02-02T13:06:20Z</time>
      </trkpt>
      <trkpt lat="48.51608" lon="2.22659">
        <ele>98.2</ele>
        <time>2026-02-02T13:06:21Z</time>
      </trkpt>
      <trkpt lat="48.51611" lon="2.22654">
        <ele>98.2</ele>
        <time>2026-02-02T13:06:22Z</time>
      </trkpt>
      <trkpt lat="48.51613" lon="2.22648">
        <ele>98.2</ele>
        <time>2026-02-02T13:06:23Z</time>
      </trkpt>
      <trkpt lat="48.51615" lon="2.22642">
        <ele>98.2</ele>
        <time>2026-02-02T13:06:24Z</time>
      </trkpt>
      <trkpt lat="48.51616" lon="2.22635">
        <ele>99.2</ele>
        <time>2026-02-02T13:06:25Z</time>
      </trkpt>
      <trkpt lat="48.51617" lon="2.22629">
        <ele>99.2</ele>
        <time>2026-02-02T13:06:26Z</time>
      </trkpt>
      <trkpt lat="48.51618" lon="2.22622">
        <ele>99.2</ele>
        <time>2026-02-02T13:06:27Z</time>
      </trkpt>
      <trkpt lat="48.51618" lon="2.22614">
        <ele>99.2</ele>
        <time>2026-02-02T13:06:28Z</time>
      </trkpt>
      <trkpt lat="48.51619" lon="2.22606">
        <ele>98.8</ele>
        <time>2026-02-02T13:06:29Z</time>
      </trkpt>
      <trkpt lat="48.51619" lon="2.22598">
        <ele>98.8</ele>
        <time>2026-02-02T13:06:30Z</time>
      </trkpt>
      <trkpt lat="48.5162" lon="2.2259">
        <ele>98.8</ele>
        <time>2026-02-02T13:06:31Z</time>
      </trkpt>
      <trkpt lat="48.5162" lon="2.22581">
        <ele>99</ele>
        <time>2026-02-02T13:06:32Z</time>
      </trkpt>
      <trkpt lat="48.51621" lon="2.22572">
        <ele>99.2</ele>
        <time>2026-02-02T13:06:33Z</time>
      </trkpt>
      <trkpt lat="48.51621" lon="2.22562">
        <ele>99.2</ele>
        <time>2026-02-02T13:06:34Z</time>
      </trkpt>
      <trkpt lat="48.51622" lon="2.22553">
        <ele>99.2</ele>
        <time>2026-02-02T13:06:35Z</time>
      </trkpt>
      <trkpt lat="48.51623" lon="2.22544">
        <ele>99.2</ele>
        <time>2026-02-02T13:06:36Z</time>
      </trkpt>
      <trkpt lat="48.51623" lon="2.22536">
        <ele>99</ele>
        <time>2026-02-02T13:06:37Z</time>
      </trkpt>
      <trkpt lat="48.51624" lon="2.22527">
        <ele>99</ele>
        <time>2026-02-02T13:06:38Z</time>
      </trkpt>
      <trkpt lat="48.51624" lon="2.22517">
        <ele>99</ele>
        <time>2026-02-02T13:06:39Z</time>
      </trkpt>
      <trkpt lat="48.51624" lon="2.22508">
        <ele>99</ele>
        <time>2026-02-02T13:06:40Z</time>
      </trkpt>
      <trkpt lat="48.51625" lon="2.22499">
        <ele>98.8</ele>
        <time>2026-02-02T13:06:41Z</time>
      </trkpt>
      <trkpt lat="48.51625" lon="2.22489">
        <ele>98.8</ele>
        <time>2026-02-02T13:06:42Z</time>
      </trkpt>
      <trkpt lat="48.51625" lon="2.22479">
        <ele>98.8</ele>
        <time>2026-02-02T13:06:43Z</time>
      </trkpt>
      <trkpt lat="48.51625" lon="2.22469">
        <ele>98.6</ele>
        <time>2026-02-02T13:06:44Z</time>
      </trkpt>
      <trkpt lat="48.51625" lon="2.22458">
        <ele>98.2</ele>
        <time>2026-02-02T13:06:45Z</time>
      </trkpt>
      <trkpt lat="48.51625" lon="2.22448">
        <ele>98.2</ele>
        <time>2026-02-02T13:06:46Z</time>
      </trkpt>
      <trkpt lat="48.51624" lon="2.22437">
        <ele>98.2</ele>
        <time>2026-02-02T13:06:47Z</time>
      </trkpt>
      <trkpt lat="48.51624" lon="2.22426">
        <ele>97.2</ele>
        <time>2026-02-02T13:06:48Z</time>
      </trkpt>
      <trkpt lat="48.51624" lon="2.22415">
        <ele>97</ele>
        <time>2026-02-02T13:06:49Z</time>
      </trkpt>
      <trkpt lat="48.51624" lon="2.22404">
        <ele>97</ele>
        <time>2026-02-02T13:06:50Z</time>
      </trkpt>
      <trkpt lat="48.51623" lon="2.22392">
        <ele>97</ele>
        <time>2026-02-02T13:06:51Z</time>
      </trkpt>
      <trkpt lat="48.51622" lon="2.2238">
        <ele>96</ele>
        <time>2026-02-02T13:06:52Z</time>
      </trkpt>
      <trkpt lat="48.51621" lon="2.22368">
        <ele>95.4</ele>
        <time>2026-02-02T13:06:53Z</time>
      </trkpt>
      <trkpt lat="48.5162" lon="2.22356">
        <ele>95.4</ele>
        <time>2026-02-02T13:06:54Z</time>
      </trkpt>
      <trkpt lat="48.51619" lon="2.22343">
        <ele>95.4</ele>
        <time>2026-02-02T13:06:55Z</time>
      </trkpt>
      <trkpt lat="48.51618" lon="2.2233">
        <ele>95.4</ele>
        <time>2026-02-02T13:06:56Z</time>
      </trkpt>
      <trkpt lat="48.51617" lon="2.22318">
        <ele>94.8</ele>
        <time>2026-02-02T13:06:57Z</time>
      </trkpt>
      <trkpt lat="48.51616" lon="2.22305">
        <ele>94.8</ele>
        <time>2026-02-02T13:06:58Z</time>
      </trkpt>
      <trkpt lat="48.51614" lon="2.22292">
        <ele>94.8</ele>
        <time>2026-02-02T13:06:59Z</time>
      </trkpt>
      <trkpt lat="48.51613" lon="2.22279">
        <ele>94.6</ele>
        <time>2026-02-02T13:07:00Z</time>
      </trkpt>
      <trkpt lat="48.51612" lon="2.22266">
        <ele>94.4</ele>
        <time>2026-02-02T13:07:01Z</time>
      </trkpt>
      <trkpt lat="48.51611" lon="2.22253">
        <ele>94.4</ele>
        <time>2026-02-02T13:07:02Z</time>
      </trkpt>
      <trkpt lat="48.51609" lon="2.2224">
        <ele>94.4</ele>
        <time>2026-02-02T13:07:03Z</time>
      </trkpt>
      <trkpt lat="48.51608" lon="2.22228">
        <ele>94.4</ele>
        <time>2026-02-02T13:07:04Z</time>
      </trkpt>
      <trkpt lat="48.51606" lon="2.22216">
        <ele>94.4</ele>
        <time>2026-02-02T13:07:05Z</time>
      </trkpt>
      <trkpt lat="48.51603" lon="2.22204">
        <ele>94.4</ele>
        <time>2026-02-02T13:07:06Z</time>
      </trkpt>
      <trkpt lat="48.516" lon="2.22193">
        <ele>94.4</ele>
        <time>2026-02-02T13:07:07Z</time>
      </trkpt>
      <trkpt lat="48.51595" lon="2.22183">
        <ele>94.4</ele>
        <time>2026-02-02T13:07:08Z</time>
      </trkpt>
      <trkpt lat="48.5159" lon="2.22174">
        <ele>94.2</ele>
        <time>2026-02-02T13:07:09Z</time>
      </trkpt>
      <trkpt lat="48.51584" lon="2.22166">
        <ele>94.2</ele>
        <time>2026-02-02T13:07:10Z</time>
      </trkpt>
      <trkpt lat="48.51579" lon="2.22158">
        <ele>94.2</ele>
        <time>2026-02-02T13:07:11Z</time>
      </trkpt>
      <trkpt lat="48.51574" lon="2.2215">
        <ele>94.2</ele>
        <time>2026-02-02T13:07:12Z</time>
      </trkpt>
      <trkpt lat="48.51569" lon="2.22142">
        <ele>94.6</ele>
        <time>2026-02-02T13:07:13Z</time>
      </trkpt>
      <trkpt lat="48.51564" lon="2.22134">
        <ele>94.6</ele>
        <time>2026-02-02T13:07:14Z</time>
      </trkpt>
      <trkpt lat="48.5156" lon="2.22127">
        <ele>94.6</ele>
        <time>2026-02-02T13:07:15Z</time>
      </trkpt>
      <trkpt lat="48.51556" lon="2.2212">
        <ele>94.6</ele>
        <time>2026-02-02T13:07:16Z</time>
      </trkpt>
      <trkpt lat="48.51552" lon="2.22113">
        <ele>94.6</ele>
        <time>2026-02-02T13:07:17Z</time>
      </trkpt>
      <trkpt lat="48.51548" lon="2.22106">
        <ele>94.6</ele>
        <time>2026-02-02T13:07:18Z</time>
      </trkpt>
      <trkpt lat="48.51544" lon="2.22099">
        <ele>94.6</ele>
        <time>2026-02-02T13:07:19Z</time>
      </trkpt>
      <trkpt lat="48.5154" lon="2.22092">
        <ele>94.6</ele>
        <time>2026-02-02T13:07:20Z</time>
      </trkpt>
      <trkpt lat="48.51536" lon="2.22086">
        <ele>94.6</ele>
        <time>2026-02-02T13:07:21Z</time>
      </trkpt>
      <trkpt lat="48.51532" lon="2.22079">
        <ele>94.6</ele>
        <time>2026-02-02T13:07:22Z</time>
      </trkpt>
      <trkpt lat="48.51527" lon="2.22073">
        <ele>94.6</ele>
        <time>2026-02-02T13:07:23Z</time>
      </trkpt>
      <trkpt lat="48.51523" lon="2.22067">
        <ele>94.6</ele>
        <time>2026-02-02T13:07:24Z</time>
      </trkpt>
      <trkpt lat="48.51518" lon="2.22061">
        <ele>95.2</ele>
        <time>2026-02-02T13:07:25Z</time>
      </trkpt>
      <trkpt lat="48.51514" lon="2.22056">
        <ele>95.2</ele>
        <time>2026-02-02T13:07:26Z</time>
      </trkpt>
      <trkpt lat="48.51509" lon="2.2205">
        <ele>95.2</ele>
        <time>2026-02-02T13:07:27Z</time>
      </trkpt>
      <trkpt lat="48.51504" lon="2.22045">
        <ele>95</ele>
        <time>2026-02-02T13:07:28Z</time>
      </trkpt>
      <trkpt lat="48.51499" lon="2.22039">
        <ele>95.2</ele>
        <time>2026-02-02T13:07:29Z</time>
      </trkpt>
      <trkpt lat="48.51495" lon="2.22033">
        <ele>95.2</ele>
        <time>2026-02-02T13:07:30Z</time>
      </trkpt>
      <trkpt lat="48.5149" lon="2.22028">
        <ele>95.2</ele>
        <time>2026-02-02T13:07:31Z</time>
      </trkpt>
      <trkpt lat="48.51486" lon="2.22022">
        <ele>95.2</ele>
        <time>2026-02-02T13:07:32Z</time>
      </trkpt>
      <trkpt lat="48.51481" lon="2.22017">
        <ele>95.2</ele>
        <time>2026-02-02T13:07:33Z</time>
      </trkpt>
      <trkpt lat="48.51477" lon="2.22012">
        <ele>95.2</ele>
        <time>2026-02-02T13:07:34Z</time>
      </trkpt>
      <trkpt lat="48.51473" lon="2.22006">
        <ele>95.2</ele>
        <time>2026-02-02T13:07:35Z</time>
      </trkpt>
      <trkpt lat="48.51468" lon="2.22001">
        <ele>95.6</ele>
        <time>2026-02-02T13:07:36Z</time>
      </trkpt>
      <trkpt lat="48.51464" lon="2.21995">
        <ele>95.8</ele>
        <time>2026-02-02T13:07:37Z</time>
      </trkpt>
      <trkpt lat="48.51461" lon="2.21989">
        <ele>95.8</ele>
        <time>2026-02-02T13:07:38Z</time>
      </trkpt>
      <trkpt lat="48.51457" lon="2.21983">
        <ele>95.8</ele>
        <time>2026-02-02T13:07:39Z</time>
      </trkpt>
      <trkpt lat="48.51452" lon="2.21977">
        <ele>95.8</ele>
        <time>2026-02-02T13:07:40Z</time>
      </trkpt>
      <trkpt lat="48.51448" lon="2.21972">
        <ele>95.8</ele>
        <time>2026-02-02T13:07:41Z</time>
      </trkpt>
      <trkpt lat="48.51444" lon="2.21966">
        <ele>95.8</ele>
        <time>2026-02-02T13:07:42Z</time>
      </trkpt>
      <trkpt lat="48.5144" lon="2.21961">
        <ele>95.8</ele>
        <time>2026-02-02T13:07:43Z</time>
      </trkpt>
      <trkpt lat="48.51436" lon="2.21955">
        <ele>95.8</ele>
        <time>2026-02-02T13:07:44Z</time>
      </trkpt>
      <trkpt lat="48.51432" lon="2.2195">
        <ele>95.8</ele>
        <time>2026-02-02T13:07:45Z</time>
      </trkpt>
      <trkpt lat="48.51428" lon="2.21944">
        <ele>95.8</ele>
        <time>2026-02-02T13:07:46Z</time>
      </trkpt>
      <trkpt lat="48.51424" lon="2.21939">
        <ele>95.8</ele>
        <time>2026-02-02T13:07:47Z</time>
      </trkpt>
      <trkpt lat="48.5142" lon="2.21933">
        <ele>96</ele>
        <time>2026-02-02T13:07:48Z</time>
      </trkpt>
      <trkpt lat="48.51415" lon="2.21928">
        <ele>95.8</ele>
        <time>2026-02-02T13:07:49Z</time>
      </trkpt>
      <trkpt lat="48.51411" lon="2.21923">
        <ele>95.8</ele>
        <time>2026-02-02T13:07:50Z</time>
      </trkpt>
      <trkpt lat="48.51407" lon="2.21917">
        <ele>95.8</ele>
        <time>2026-02-02T13:07:51Z</time>
      </trkpt>
      <trkpt lat="48.51404" lon="2.21911">
        <ele>95.8</ele>
        <time>2026-02-02T13:07:52Z</time>
      </trkpt>
      <trkpt lat="48.514" lon="2.21906">
        <ele>96</ele>
        <time>2026-02-02T13:07:53Z</time>
      </trkpt>
      <trkpt lat="48.51396" lon="2.219">
        <ele>96</ele>
        <time>2026-02-02T13:07:54Z</time>
      </trkpt>
      <trkpt lat="48.51392" lon="2.21894">
        <ele>96</ele>
        <time>2026-02-02T13:07:55Z</time>
      </trkpt>
      <trkpt lat="48.51389" lon="2.21889">
        <ele>96</ele>
        <time>2026-02-02T13:07:56Z</time>
      </trkpt>
      <trkpt lat="48.51385" lon="2.21883">
        <ele>96.6</ele>
        <time>2026-02-02T13:07:57Z</time>
      </trkpt>
      <trkpt lat="48.51382" lon="2.21877">
        <ele>96.6</ele>
        <time>2026-02-02T13:07:58Z</time>
      </trkpt>
      <trkpt lat="48.51378" lon="2.21871">
        <ele>96.6</ele>
        <time>2026-02-02T13:07:59Z</time>
      </trkpt>
      <trkpt lat="48.51376" lon="2.21864">
        <ele>96.6</ele>
        <time>2026-02-02T13:08:00Z</time>
      </trkpt>
      <trkpt lat="48.51374" lon="2.21856">
        <ele>96.6</ele>
        <time>2026-02-02T13:08:01Z</time>
      </trkpt>
      <trkpt lat="48.51374" lon="2.21848">
        <ele>96.6</ele>
        <time>2026-02-02T13:08:02Z</time>
      </trkpt>
      <trkpt lat="48.51375" lon="2.21841">
        <ele>96.6</ele>
        <time>2026-02-02T13:08:03Z</time>
      </trkpt>
      <trkpt lat="48.51375" lon="2.21834">
        <ele>96.8</ele>
        <time>2026-02-02T13:08:04Z</time>
      </trkpt>
      <trkpt lat="48.51377" lon="2.21828">
        <ele>97</ele>
        <time>2026-02-02T13:08:05Z</time>
      </trkpt>
      <trkpt lat="48.51378" lon="2.21822">
        <ele>97</ele>
        <time>2026-02-02T13:08:06Z</time>
      </trkpt>
      <trkpt lat="48.5138" lon="2.21816">
        <ele>97</ele>
        <time>2026-02-02T13:08:07Z</time>
      </trkpt>
      <trkpt lat="48.51382" lon="2.21812">
        <ele>98</ele>
        <time>2026-02-02T13:08:08Z</time>
      </trkpt>
      <trkpt lat="48.51384" lon="2.21808">
        <ele>98.2</ele>
        <time>2026-02-02T13:08:09Z</time>
      </trkpt>
      <trkpt lat="48.51386" lon="2.21804">
        <ele>98.2</ele>
        <time>2026-02-02T13:08:10Z</time>
      </trkpt>
      <trkpt lat="48.51388" lon="2.21799">
        <ele>98.2</ele>
        <time>2026-02-02T13:08:11Z</time>
      </trkpt>
      <trkpt lat="48.5139" lon="2.21795">
        <ele>99</ele>
        <time>2026-02-02T13:08:12Z</time>
      </trkpt>
      <trkpt lat="48.51392" lon="2.21791">
        <ele>99.2</ele>
        <time>2026-02-02T13:08:13Z</time>
      </trkpt>
      <trkpt lat="48.51394" lon="2.21787">
        <ele>99.2</ele>
        <time>2026-02-02T13:08:14Z</time>
      </trkpt>
      <trkpt lat="48.51396" lon="2.21782">
        <ele>99.2</ele>
        <time>2026-02-02T13:08:15Z</time>
      </trkpt>
      <trkpt lat="48.51397" lon="2.21777">
        <ele>99.4</ele>
        <time>2026-02-02T13:08:16Z</time>
      </trkpt>
      <trkpt lat="48.51397" lon="2.21772">
        <ele>99.4</ele>
        <time>2026-02-02T13:08:17Z</time>
      </trkpt>
      <trkpt lat="48.51398" lon="2.21767">
        <ele>99.4</ele>
        <time>2026-02-02T13:08:18Z</time>
      </trkpt>
      <trkpt lat="48.51399" lon="2.21762">
        <ele>99.4</ele>
        <time>2026-02-02T13:08:19Z</time>
      </trkpt>
      <trkpt lat="48.51399" lon="2.21757">
        <ele>100.2</ele>
        <time>2026-02-02T13:08:20Z</time>
      </trkpt>
      <trkpt lat="48.51399" lon="2.21752">
        <ele>100.2</ele>
        <time>2026-02-02T13:08:21Z</time>
      </trkpt>
      <trkpt lat="48.514" lon="2.21747">
        <ele>100.2</ele>
        <time>2026-02-02T13:08:22Z</time>
      </trkpt>
      <trkpt lat="48.51399" lon="2.21742">
        <ele>100.2</ele>
        <time>2026-02-02T13:08:23Z</time>
      </trkpt>
      <trkpt lat="48.51399" lon="2.21737">
        <ele>100.2</ele>
        <time>2026-02-02T13:08:24Z</time>
      </trkpt>
      <trkpt lat="48.51398" lon="2.21732">
        <ele>101</ele>
        <time>2026-02-02T13:08:25Z</time>
      </trkpt>
      <trkpt lat="48.51398" lon="2.21727">
        <ele>101</ele>
        <time>2026-02-02T13:08:26Z</time>
      </trkpt>
      <trkpt lat="48.51396" lon="2.21722">
        <ele>101</ele>
        <time>2026-02-02T13:08:27Z</time>
      </trkpt>
      <trkpt lat="48.51394" lon="2.21717">
        <ele>101</ele>
        <time>2026-02-02T13:08:28Z</time>
      </trkpt>
      <trkpt lat="48.51393" lon="2.21712">
        <ele>101.2</ele>
        <time>2026-02-02T13:08:29Z</time>
      </trkpt>
      <trkpt lat="48.51391" lon="2.21707">
        <ele>101.2</ele>
        <time>2026-02-02T13:08:30Z</time>
      </trkpt>
      <trkpt lat="48.5139" lon="2.21703">
        <ele>101.2</ele>
        <time>2026-02-02T13:08:31Z</time>
      </trkpt>
      <trkpt lat="48.51388" lon="2.21698">
        <ele>101.8</ele>
        <time>2026-02-02T13:08:32Z</time>
      </trkpt>
      <trkpt lat="48.51387" lon="2.21693">
        <ele>102</ele>
        <time>2026-02-02T13:08:33Z</time>
      </trkpt>
      <trkpt lat="48.51385" lon="2.21688">
        <ele>102</ele>
        <time>2026-02-02T13:08:34Z</time>
      </trkpt>
      <trkpt lat="48.51383" lon="2.21684">
        <ele>102</ele>
        <time>2026-02-02T13:08:35Z</time>
      </trkpt>
      <trkpt lat="48.51382" lon="2.2168">
        <ele>102.2</ele>
        <time>2026-02-02T13:08:36Z</time>
      </trkpt>
      <trkpt lat="48.5138" lon="2.21675">
        <ele>102.6</ele>
        <time>2026-02-02T13:08:37Z</time>
      </trkpt>
      <trkpt lat="48.51379" lon="2.2167">
        <ele>102.6</ele>
        <time>2026-02-02T13:08:38Z</time>
      </trkpt>
      <trkpt lat="48.51377" lon="2.21666">
        <ele>102.6</ele>
        <time>2026-02-02T13:08:39Z</time>
      </trkpt>
      <trkpt lat="48.51375" lon="2.21662">
        <ele>103.4</ele>
        <time>2026-02-02T13:08:40Z</time>
      </trkpt>
      <trkpt lat="48.51373" lon="2.21657">
        <ele>103.2</ele>
        <time>2026-02-02T13:08:41Z</time>
      </trkpt>
      <trkpt lat="48.51372" lon="2.21652">
        <ele>103.2</ele>
        <time>2026-02-02T13:08:42Z</time>
      </trkpt>
      <trkpt lat="48.5137" lon="2.21647">
        <ele>103.2</ele>
        <time>2026-02-02T13:08:43Z</time>
      </trkpt>
      <trkpt lat="48.51368" lon="2.21642">
        <ele>103.8</ele>
        <time>2026-02-02T13:08:44Z</time>
      </trkpt>
      <trkpt lat="48.51366" lon="2.21637">
        <ele>103.6</ele>
        <time>2026-02-02T13:08:45Z</time>
      </trkpt>
      <trkpt lat="48.51365" lon="2.21633">
        <ele>103.6</ele>
        <time>2026-02-02T13:08:46Z</time>
      </trkpt>
      <trkpt lat="48.51363" lon="2.21629">
        <ele>103.6</ele>
        <time>2026-02-02T13:08:47Z</time>
      </trkpt>
      <trkpt lat="48.51362" lon="2.21624">
        <ele>104.2</ele>
        <time>2026-02-02T13:08:48Z</time>
      </trkpt>
      <trkpt lat="48.5136" lon="2.21619">
        <ele>104.2</ele>
        <time>2026-02-02T13:08:49Z</time>
      </trkpt>
      <trkpt lat="48.51359" lon="2.21614">
        <ele>104.2</ele>
        <time>2026-02-02T13:08:50Z</time>
      </trkpt>
      <trkpt lat="48.51358" lon="2.21609">
        <ele>104.2</ele>
        <time>2026-02-02T13:08:51Z</time>
      </trkpt>
      <trkpt lat="48.51356" lon="2.21604">
        <ele>105</ele>
        <time>2026-02-02T13:08:52Z</time>
      </trkpt>
      <trkpt lat="48.51355" lon="2.21599">
        <ele>105</ele>
        <time>2026-02-02T13:08:53Z</time>
      </trkpt>
      <trkpt lat="48.51353" lon="2.21594">
        <ele>105</ele>
        <time>2026-02-02T13:08:54Z</time>
      </trkpt>
      <trkpt lat="48.51352" lon="2.21589">
        <ele>105</ele>
        <time>2026-02-02T13:08:55Z</time>
      </trkpt>
      <trkpt lat="48.5135" lon="2.21584">
        <ele>105.4</ele>
        <time>2026-02-02T13:08:56Z</time>
      </trkpt>
      <trkpt lat="48.51349" lon="2.21579">
        <ele>105.4</ele>
        <time>2026-02-02T13:08:57Z</time>
      </trkpt>
      <trkpt lat="48.51347" lon="2.21574">
        <ele>105.4</ele>
        <time>2026-02-02T13:08:58Z</time>
      </trkpt>
      <trkpt lat="48.51346" lon="2.21569">
        <ele>105.4</ele>
        <time>2026-02-02T13:08:59Z</time>
      </trkpt>
      <trkpt lat="48.51344" lon="2.21564">
        <ele>106.4</ele>
        <time>2026-02-02T13:09:00Z</time>
      </trkpt>
      <trkpt lat="48.51342" lon="2.21559">
        <ele>106.6</ele>
        <time>2026-02-02T13:09:01Z</time>
      </trkpt>
      <trkpt lat="48.51341" lon="2.21554">
        <ele>106.6</ele>
        <time>2026-02-02T13:09:02Z</time>
      </trkpt>
      <trkpt lat="48.51339" lon="2.21549">
        <ele>106.6</ele>
        <time>2026-02-02T13:09:03Z</time>
      </trkpt>
      <trkpt lat="48.51338" lon="2.21544">
        <ele>107.2</ele>
        <time>2026-02-02T13:09:04Z</time>
      </trkpt>
      <trkpt lat="48.51337" lon="2.21539">
        <ele>107.2</ele>
        <time>2026-02-02T13:09:05Z</time>
      </trkpt>
      <trkpt lat="48.51336" lon="2.21534">
        <ele>107.2</ele>
        <time>2026-02-02T13:09:06Z</time>
      </trkpt>
      <trkpt lat="48.51334" lon="2.2153">
        <ele>107.2</ele>
        <time>2026-02-02T13:09:07Z</time>
      </trkpt>
      <trkpt lat="48.51332" lon="2.21525">
        <ele>107.2</ele>
        <time>2026-02-02T13:09:08Z</time>
      </trkpt>
      <trkpt lat="48.5133" lon="2.2152">
        <ele>107.8</ele>
        <time>2026-02-02T13:09:09Z</time>
      </trkpt>
      <trkpt lat="48.51328" lon="2.21515">
        <ele>107.8</ele>
        <time>2026-02-02T13:09:10Z</time>
      </trkpt>
      <trkpt lat="48.51326" lon="2.21511">
        <ele>107.8</ele>
        <time>2026-02-02T13:09:11Z</time>
      </trkpt>
      <trkpt lat="48.51325" lon="2.21507">
        <ele>108.4</ele>
        <time>2026-02-02T13:09:12Z</time>
      </trkpt>
      <trkpt lat="48.51323" lon="2.21502">
        <ele>108.6</ele>
        <time>2026-02-02T13:09:13Z</time>
      </trkpt>
      <trkpt lat="48.51321" lon="2.21498">
        <ele>108.6</ele>
        <time>2026-02-02T13:09:14Z</time>
      </trkpt>
      <trkpt lat="48.51319" lon="2.21494">
        <ele>108.6</ele>
        <time>2026-02-02T13:09:15Z</time>
      </trkpt>
      <trkpt lat="48.51317" lon="2.21489">
        <ele>108.6</ele>
        <time>2026-02-02T13:09:16Z</time>
      </trkpt>
      <trkpt lat="48.51315" lon="2.21484">
        <ele>109</ele>
        <time>2026-02-02T13:09:17Z</time>
      </trkpt>
      <trkpt lat="48.51314" lon="2.2148">
        <ele>109</ele>
        <time>2026-02-02T13:09:18Z</time>
      </trkpt>
      <trkpt lat="48.51312" lon="2.21475">
        <ele>109</ele>
        <time>2026-02-02T13:09:19Z</time>
      </trkpt>
      <trkpt lat="48.5131" lon="2.21471">
        <ele>109.6</ele>
        <time>2026-02-02T13:09:20Z</time>
      </trkpt>
      <trkpt lat="48.51308" lon="2.21466">
        <ele>109.4</ele>
        <time>2026-02-02T13:09:21Z</time>
      </trkpt>
      <trkpt lat="48.51306" lon="2.21462">
        <ele>109.4</ele>
        <time>2026-02-02T13:09:22Z</time>
      </trkpt>
      <trkpt lat="48.51304" lon="2.21457">
        <ele>109.4</ele>
        <time>2026-02-02T13:09:23Z</time>
      </trkpt>
      <trkpt lat="48.51303" lon="2.21453">
        <ele>109.4</ele>
        <time>2026-02-02T13:09:24Z</time>
      </trkpt>
      <trkpt lat="48.51301" lon="2.21449">
        <ele>110</ele>
        <time>2026-02-02T13:09:25Z</time>
      </trkpt>
      <trkpt lat="48.51299" lon="2.21444">
        <ele>110</ele>
        <time>2026-02-02T13:09:26Z</time>
      </trkpt>
      <trkpt lat="48.51297" lon="2.2144">
        <ele>110</ele>
        <time>2026-02-02T13:09:27Z</time>
      </trkpt>
      <trkpt lat="48.51295" lon="2.21436">
        <ele>111</ele>
        <time>2026-02-02T13:09:28Z</time>
      </trkpt>
      <trkpt lat="48.51293" lon="2.21431">
        <ele>111</ele>
        <time>2026-02-02T13:09:29Z</time>
      </trkpt>
      <trkpt lat="48.51292" lon="2.21427">
        <ele>111</ele>
        <time>2026-02-02T13:09:30Z</time>
      </trkpt>
      <trkpt lat="48.5129" lon="2.21423">
        <ele>111</ele>
        <time>2026-02-02T13:09:31Z</time>
      </trkpt>
      <trkpt lat="48.51288" lon="2.21419">
        <ele>112</ele>
        <time>2026-02-02T13:09:32Z</time>
      </trkpt>
      <trkpt lat="48.51287" lon="2.21415">
        <ele>112.4</ele>
        <time>2026-02-02T13:09:33Z</time>
      </trkpt>
      <trkpt lat="48.51286" lon="2.21411">
        <ele>112.4</ele>
        <time>2026-02-02T13:09:34Z</time>
      </trkpt>
      <trkpt lat="48.51284" lon="2.21406">
        <ele>112.4</ele>
        <time>2026-02-02T13:09:35Z</time>
      </trkpt>
      <trkpt lat="48.51282" lon="2.21402">
        <ele>112.4</ele>
        <time>2026-02-02T13:09:36Z</time>
      </trkpt>
      <trkpt lat="48.51281" lon="2.21397">
        <ele>112.8</ele>
        <time>2026-02-02T13:09:37Z</time>
      </trkpt>
      <trkpt lat="48.51279" lon="2.21393">
        <ele>112.8</ele>
        <time>2026-02-02T13:09:38Z</time>
      </trkpt>
      <trkpt lat="48.51278" lon="2.21388">
        <ele>112.8</ele>
        <time>2026-02-02T13:09:39Z</time>
      </trkpt>
      <trkpt lat="48.51277" lon="2.21383">
        <ele>113.6</ele>
        <time>2026-02-02T13:09:40Z</time>
      </trkpt>
      <trkpt lat="48.51276" lon="2.21378">
        <ele>113.8</ele>
        <time>2026-02-02T13:09:41Z</time>
      </trkpt>
      <trkpt lat="48.51276" lon="2.21372">
        <ele>113.8</ele>
        <time>2026-02-02T13:09:42Z</time>
      </trkpt>
      <trkpt lat="48.51277" lon="2.21367">
        <ele>113.8</ele>
        <time>2026-02-02T13:09:43Z</time>
      </trkpt>
      <trkpt lat="48.51277" lon="2.21362">
        <ele>114.6</ele>
        <time>2026-02-02T13:09:44Z</time>
      </trkpt>
      <trkpt lat="48.51277" lon="2.21357">
        <ele>114.8</ele>
        <time>2026-02-02T13:09:45Z</time>
      </trkpt>
      <trkpt lat="48.51278" lon="2.21352">
        <ele>114.8</ele>
        <time>2026-02-02T13:09:46Z</time>
      </trkpt>
      <trkpt lat="48.51278" lon="2.21347">
        <ele>114.8</ele>
        <time>2026-02-02T13:09:47Z</time>
      </trkpt>
      <trkpt lat="48.51279" lon="2.21342">
        <ele>114.8</ele>
        <time>2026-02-02T13:09:48Z</time>
      </trkpt>
      <trkpt lat="48.51279" lon="2.21337">
        <ele>115</ele>
        <time>2026-02-02T13:09:49Z</time>
      </trkpt>
      <trkpt lat="48.51279" lon="2.21331">
        <ele>115</ele>
        <time>2026-02-02T13:09:50Z</time>
      </trkpt>
      <trkpt lat="48.51279" lon="2.21326">
        <ele>115</ele>
        <time>2026-02-02T13:09:51Z</time>
      </trkpt>
      <trkpt lat="48.51278" lon="2.21321">
        <ele>115.8</ele>
        <time>2026-02-02T13:09:52Z</time>
      </trkpt>
      <trkpt lat="48.51277" lon="2.21316">
        <ele>115.6</ele>
        <time>2026-02-02T13:09:53Z</time>
      </trkpt>
      <trkpt lat="48.51275" lon="2.21311">
        <ele>115.6</ele>
        <time>2026-02-02T13:09:54Z</time>
      </trkpt>
      <trkpt lat="48.51273" lon="2.21307">
        <ele>115.6</ele>
        <time>2026-02-02T13:09:55Z</time>
      </trkpt>
      <trkpt lat="48.5127" lon="2.21304">
        <ele>116</ele>
        <time>2026-02-02T13:09:56Z</time>
      </trkpt>
      <trkpt lat="48.51267" lon="2.213">
        <ele>116.6</ele>
        <time>2026-02-02T13:09:57Z</time>
      </trkpt>
      <trkpt lat="48.51264" lon="2.21297">
        <ele>116.6</ele>
        <time>2026-02-02T13:09:58Z</time>
      </trkpt>
      <trkpt lat="48.51262" lon="2.21293">
        <ele>116.6</ele>
        <time>2026-02-02T13:09:59Z</time>
      </trkpt>
      <trkpt lat="48.51259" lon="2.2129">
        <ele>116.6</ele>
        <time>2026-02-02T13:10:00Z</time>
      </trkpt>
      <trkpt lat="48.51255" lon="2.21286">
        <ele>117</ele>
        <time>2026-02-02T13:10:01Z</time>
      </trkpt>
      <trkpt lat="48.51252" lon="2.21283">
        <ele>117</ele>
        <time>2026-02-02T13:10:02Z</time>
      </trkpt>
      <trkpt lat="48.51249" lon="2.2128">
        <ele>117</ele>
        <time>2026-02-02T13:10:03Z</time>
      </trkpt>
      <trkpt lat="48.51247" lon="2.21278">
        <ele>117.6</ele>
        <time>2026-02-02T13:10:04Z</time>
      </trkpt>
      <trkpt lat="48.51245" lon="2.21275">
        <ele>117.6</ele>
        <time>2026-02-02T13:10:05Z</time>
      </trkpt>
      <trkpt lat="48.51241" lon="2.21272">
        <ele>117.6</ele>
        <time>2026-02-02T13:10:06Z</time>
      </trkpt>
      <trkpt lat="48.51238" lon="2.21269">
        <ele>117.6</ele>
        <time>2026-02-02T13:10:07Z</time>
      </trkpt>
      <trkpt lat="48.51235" lon="2.21266">
        <ele>118.4</ele>
        <time>2026-02-02T13:10:08Z</time>
      </trkpt>
      <trkpt lat="48.51232" lon="2.21263">
        <ele>119</ele>
        <time>2026-02-02T13:10:09Z</time>
      </trkpt>
      <trkpt lat="48.51228" lon="2.21261">
        <ele>119</ele>
        <time>2026-02-02T13:10:10Z</time>
      </trkpt>
      <trkpt lat="48.51225" lon="2.21258">
        <ele>119</ele>
        <time>2026-02-02T13:10:11Z</time>
      </trkpt>
      <trkpt lat="48.51222" lon="2.21254">
        <ele>119</ele>
        <time>2026-02-02T13:10:12Z</time>
      </trkpt>
      <trkpt lat="48.51219" lon="2.2125">
        <ele>119.2</ele>
        <time>2026-02-02T13:10:13Z</time>
      </trkpt>
      <trkpt lat="48.51216" lon="2.21246">
        <ele>119.2</ele>
        <time>2026-02-02T13:10:14Z</time>
      </trkpt>
      <trkpt lat="48.51213" lon="2.21243">
        <ele>119.2</ele>
        <time>2026-02-02T13:10:15Z</time>
      </trkpt>
      <trkpt lat="48.51209" lon="2.21239">
        <ele>118.6</ele>
        <time>2026-02-02T13:10:16Z</time>
      </trkpt>
      <trkpt lat="48.51206" lon="2.21234">
        <ele>118.8</ele>
        <time>2026-02-02T13:10:17Z</time>
      </trkpt>
      <trkpt lat="48.51202" lon="2.2123">
        <ele>118.8</ele>
        <time>2026-02-02T13:10:18Z</time>
      </trkpt>
      <trkpt lat="48.51197" lon="2.21226">
        <ele>118.8</ele>
        <time>2026-02-02T13:10:19Z</time>
      </trkpt>
      <trkpt lat="48.51193" lon="2.21223">
        <ele>118.2</ele>
        <time>2026-02-02T13:10:20Z</time>
      </trkpt>
      <trkpt lat="48.51188" lon="2.21219">
        <ele>118.4</ele>
        <time>2026-02-02T13:10:21Z</time>
      </trkpt>
      <trkpt lat="48.51183" lon="2.21215">
        <ele>118.4</ele>
        <time>2026-02-02T13:10:22Z</time>
      </trkpt>
      <trkpt lat="48.51179" lon="2.2121">
        <ele>118.4</ele>
        <time>2026-02-02T13:10:23Z</time>
      </trkpt>
      <trkpt lat="48.51174" lon="2.21205">
        <ele>118</ele>
        <time>2026-02-02T13:10:24Z</time>
      </trkpt>
      <trkpt lat="48.51169" lon="2.212">
        <ele>118.2</ele>
        <time>2026-02-02T13:10:25Z</time>
      </trkpt>
      <trkpt lat="48.51164" lon="2.21196">
        <ele>118.2</ele>
        <time>2026-02-02T13:10:26Z</time>
      </trkpt>
      <trkpt lat="48.51159" lon="2.21191">
        <ele>118.2</ele>
        <time>2026-02-02T13:10:27Z</time>
      </trkpt>
      <trkpt lat="48.51154" lon="2.21186">
        <ele>117.6</ele>
        <time>2026-02-02T13:10:28Z</time>
      </trkpt>
      <trkpt lat="48.51149" lon="2.21181">
        <ele>117.6</ele>
        <time>2026-02-02T13:10:29Z</time>
      </trkpt>
      <trkpt lat="48.51144" lon="2.21176">
        <ele>117.6</ele>
        <time>2026-02-02T13:10:30Z</time>
      </trkpt>
      <trkpt lat="48.51138" lon="2.21171">
        <ele>117.6</ele>
        <time>2026-02-02T13:10:31Z</time>
      </trkpt>
      <trkpt lat="48.51133" lon="2.21166">
        <ele>117.6</ele>
        <time>2026-02-02T13:10:32Z</time>
      </trkpt>
      <trkpt lat="48.51128" lon="2.21161">
        <ele>116.8</ele>
        <time>2026-02-02T13:10:33Z</time>
      </trkpt>
      <trkpt lat="48.51122" lon="2.21156">
        <ele>116.8</ele>
        <time>2026-02-02T13:10:34Z</time>
      </trkpt>
      <trkpt lat="48.51117" lon="2.2115">
        <ele>116.8</ele>
        <time>2026-02-02T13:10:35Z</time>
      </trkpt>
      <trkpt lat="48.51111" lon="2.21145">
        <ele>116.8</ele>
        <time>2026-02-02T13:10:36Z</time>
      </trkpt>
      <trkpt lat="48.51106" lon="2.21139">
        <ele>116.8</ele>
        <time>2026-02-02T13:10:37Z</time>
      </trkpt>
      <trkpt lat="48.51101" lon="2.21134">
        <ele>116.8</ele>
        <time>2026-02-02T13:10:38Z</time>
      </trkpt>
      <trkpt lat="48.51095" lon="2.21128">
        <ele>116.8</ele>
        <time>2026-02-02T13:10:39Z</time>
      </trkpt>
      <trkpt lat="48.51089" lon="2.21123">
        <ele>116.8</ele>
        <time>2026-02-02T13:10:40Z</time>
      </trkpt>
      <trkpt lat="48.51084" lon="2.21117">
        <ele>116.2</ele>
        <time>2026-02-02T13:10:41Z</time>
      </trkpt>
      <trkpt lat="48.51078" lon="2.21111">
        <ele>116.2</ele>
        <time>2026-02-02T13:10:42Z</time>
      </trkpt>
      <trkpt lat="48.51072" lon="2.21106">
        <ele>116.2</ele>
        <time>2026-02-02T13:10:43Z</time>
      </trkpt>
      <trkpt lat="48.51066" lon="2.211">
        <ele>116.2</ele>
        <time>2026-02-02T13:10:44Z</time>
      </trkpt>
      <trkpt lat="48.51061" lon="2.21094">
        <ele>116.2</ele>
        <time>2026-02-02T13:10:45Z</time>
      </trkpt>
      <trkpt lat="48.51055" lon="2.21087">
        <ele>116.2</ele>
        <time>2026-02-02T13:10:46Z</time>
      </trkpt>
      <trkpt lat="48.5105" lon="2.21081">
        <ele>116.2</ele>
        <time>2026-02-02T13:10:47Z</time>
      </trkpt>
      <trkpt lat="48.51044" lon="2.21074">
        <ele>115.4</ele>
        <time>2026-02-02T13:10:48Z</time>
      </trkpt>
      <trkpt lat="48.51039" lon="2.21068">
        <ele>115</ele>
        <time>2026-02-02T13:10:49Z</time>
      </trkpt>
      <trkpt lat="48.51033" lon="2.21061">
        <ele>115</ele>
        <time>2026-02-02T13:10:50Z</time>
      </trkpt>
      <trkpt lat="48.51028" lon="2.21055">
        <ele>115</ele>
        <time>2026-02-02T13:10:51Z</time>
      </trkpt>
      <trkpt lat="48.51022" lon="2.21048">
        <ele>115</ele>
        <time>2026-02-02T13:10:52Z</time>
      </trkpt>
      <trkpt lat="48.51017" lon="2.21041">
        <ele>114.8</ele>
        <time>2026-02-02T13:10:53Z</time>
      </trkpt>
      <trkpt lat="48.51012" lon="2.21034">
        <ele>114.8</ele>
        <time>2026-02-02T13:10:54Z</time>
      </trkpt>
      <trkpt lat="48.51006" lon="2.21027">
        <ele>114.8</ele>
        <time>2026-02-02T13:10:55Z</time>
      </trkpt>
      <trkpt lat="48.51001" lon="2.2102">
        <ele>114.8</ele>
        <time>2026-02-02T13:10:56Z</time>
      </trkpt>
      <trkpt lat="48.50995" lon="2.21012">
        <ele>114.6</ele>
        <time>2026-02-02T13:10:57Z</time>
      </trkpt>
      <trkpt lat="48.50989" lon="2.21005">
        <ele>114.6</ele>
        <time>2026-02-02T13:10:58Z</time>
      </trkpt>
      <trkpt lat="48.50983" lon="2.20998">
        <ele>114.6</ele>
        <time>2026-02-02T13:10:59Z</time>
      </trkpt>
      <trkpt lat="48.50977" lon="2.2099">
        <ele>114.6</ele>
        <time>2026-02-02T13:11:00Z</time>
      </trkpt>
      <trkpt lat="48.50971" lon="2.20983">
        <ele>114</ele>
        <time>2026-02-02T13:11:01Z</time>
      </trkpt>
      <trkpt lat="48.50965" lon="2.20975">
        <ele>114</ele>
        <time>2026-02-02T13:11:02Z</time>
      </trkpt>
      <trkpt lat="48.50959" lon="2.20968">
        <ele>114</ele>
        <time>2026-02-02T13:11:03Z</time>
      </trkpt>
      <trkpt lat="48.50953" lon="2.2096">
        <ele>113</ele>
        <time>2026-02-02T13:11:04Z</time>
      </trkpt>
      <trkpt lat="48.50946" lon="2.20952">
        <ele>112.4</ele>
        <time>2026-02-02T13:11:05Z</time>
      </trkpt>
      <trkpt lat="48.50939" lon="2.20944">
        <ele>112.4</ele>
        <time>2026-02-02T13:11:06Z</time>
      </trkpt>
      <trkpt lat="48.50933" lon="2.20936">
        <ele>112.4</ele>
        <time>2026-02-02T13:11:07Z</time>
      </trkpt>
      <trkpt lat="48.50926" lon="2.20927">
        <ele>111.4</ele>
        <time>2026-02-02T13:11:08Z</time>
      </trkpt>
      <trkpt lat="48.50919" lon="2.20919">
        <ele>111.2</ele>
        <time>2026-02-02T13:11:09Z</time>
      </trkpt>
      <trkpt lat="48.50913" lon="2.2091">
        <ele>111.2</ele>
        <time>2026-02-02T13:11:10Z</time>
      </trkpt>
      <trkpt lat="48.50906" lon="2.20902">
        <ele>111.2</ele>
        <time>2026-02-02T13:11:11Z</time>
      </trkpt>
      <trkpt lat="48.509" lon="2.20893">
        <ele>111.2</ele>
        <time>2026-02-02T13:11:12Z</time>
      </trkpt>
      <trkpt lat="48.50893" lon="2.20885">
        <ele>110.4</ele>
        <time>2026-02-02T13:11:13Z</time>
      </trkpt>
      <trkpt lat="48.50886" lon="2.20877">
        <ele>110.4</ele>
        <time>2026-02-02T13:11:14Z</time>
      </trkpt>
      <trkpt lat="48.50879" lon="2.2087">
        <ele>110.4</ele>
        <time>2026-02-02T13:11:15Z</time>
      </trkpt>
      <trkpt lat="48.50873" lon="2.20862">
        <ele>110.4</ele>
        <time>2026-02-02T13:11:16Z</time>
      </trkpt>
      <trkpt lat="48.50867" lon="2.20854">
        <ele>110.4</ele>
        <time>2026-02-02T13:11:17Z</time>
      </trkpt>
      <trkpt lat="48.50861" lon="2.20846">
        <ele>110.4</ele>
        <time>2026-02-02T13:11:18Z</time>
      </trkpt>
      <trkpt lat="48.50854" lon="2.2084">
        <ele>110.4</ele>
        <time>2026-02-02T13:11:19Z</time>
      </trkpt>
      <trkpt lat="48.50848" lon="2.20833">
        <ele>111</ele>
        <time>2026-02-02T13:11:20Z</time>
      </trkpt>
      <trkpt lat="48.50841" lon="2.20827">
        <ele>110.2</ele>
        <time>2026-02-02T13:11:21Z</time>
      </trkpt>
      <trkpt lat="48.50835" lon="2.2082">
        <ele>110.2</ele>
        <time>2026-02-02T13:11:22Z</time>
      </trkpt>
      <trkpt lat="48.50829" lon="2.20814">
        <ele>110.2</ele>
        <time>2026-02-02T13:11:23Z</time>
      </trkpt>
      <trkpt lat="48.50823" lon="2.20807">
        <ele>110.2</ele>
        <time>2026-02-02T13:11:24Z</time>
      </trkpt>
      <trkpt lat="48.50817" lon="2.20801">
        <ele>110.4</ele>
        <time>2026-02-02T13:11:25Z</time>
      </trkpt>
      <trkpt lat="48.50811" lon="2.20795">
        <ele>110.4</ele>
        <time>2026-02-02T13:11:26Z</time>
      </trkpt>
      <trkpt lat="48.50805" lon="2.20789">
        <ele>110.4</ele>
        <time>2026-02-02T13:11:27Z</time>
      </trkpt>
      <trkpt lat="48.50799" lon="2.20783">
        <ele>110.8</ele>
        <time>2026-02-02T13:11:28Z</time>
      </trkpt>
      <trkpt lat="48.50793" lon="2.20777">
        <ele>111</ele>
        <time>2026-02-02T13:11:29Z</time>
      </trkpt>
      <trkpt lat="48.50788" lon="2.20772">
        <ele>111</ele>
        <time>2026-02-02T13:11:30Z</time>
      </trkpt>
      <trkpt lat="48.50782" lon="2.20766">
        <ele>111</ele>
        <time>2026-02-02T13:11:31Z</time>
      </trkpt>
      <trkpt lat="48.50776" lon="2.2076">
        <ele>110.4</ele>
        <time>2026-02-02T13:11:32Z</time>
      </trkpt>
      <trkpt lat="48.5077" lon="2.20755">
        <ele>110.4</ele>
        <time>2026-02-02T13:11:33Z</time>
      </trkpt>
      <trkpt lat="48.50764" lon="2.2075">
        <ele>110.4</ele>
        <time>2026-02-02T13:11:34Z</time>
      </trkpt>
      <trkpt lat="48.50759" lon="2.20745">
        <ele>110.4</ele>
        <time>2026-02-02T13:11:35Z</time>
      </trkpt>
      <trkpt lat="48.50753" lon="2.20739">
        <ele>110</ele>
        <time>2026-02-02T13:11:36Z</time>
      </trkpt>
      <trkpt lat="48.50747" lon="2.20733">
        <ele>110.4</ele>
        <time>2026-02-02T13:11:37Z</time>
      </trkpt>
      <trkpt lat="48.50742" lon="2.20727">
        <ele>110.4</ele>
        <time>2026-02-02T13:11:38Z</time>
      </trkpt>
      <trkpt lat="48.50736" lon="2.20721">
        <ele>110.4</ele>
        <time>2026-02-02T13:11:39Z</time>
      </trkpt>
      <trkpt lat="48.50731" lon="2.20715">
        <ele>110</ele>
        <time>2026-02-02T13:11:40Z</time>
      </trkpt>
      <trkpt lat="48.50726" lon="2.20708">
        <ele>110.2</ele>
        <time>2026-02-02T13:11:41Z</time>
      </trkpt>
      <trkpt lat="48.5072" lon="2.20701">
        <ele>110.2</ele>
        <time>2026-02-02T13:11:42Z</time>
      </trkpt>
      <trkpt lat="48.50715" lon="2.20695">
        <ele>110.2</ele>
        <time>2026-02-02T13:11:43Z</time>
      </trkpt>
      <trkpt lat="48.50709" lon="2.20689">
        <ele>110</ele>
        <time>2026-02-02T13:11:44Z</time>
      </trkpt>
      <trkpt lat="48.50703" lon="2.20683">
        <ele>110</ele>
        <time>2026-02-02T13:11:45Z</time>
      </trkpt>
      <trkpt lat="48.50698" lon="2.20677">
        <ele>110</ele>
        <time>2026-02-02T13:11:46Z</time>
      </trkpt>
      <trkpt lat="48.50692" lon="2.2067">
        <ele>110</ele>
        <time>2026-02-02T13:11:47Z</time>
      </trkpt>
      <trkpt lat="48.50687" lon="2.20664">
        <ele>110.8</ele>
        <time>2026-02-02T13:11:48Z</time>
      </trkpt>
      <trkpt lat="48.50681" lon="2.20657">
        <ele>110</ele>
        <time>2026-02-02T13:11:49Z</time>
      </trkpt>
      <trkpt lat="48.50675" lon="2.20651">
        <ele>110</ele>
        <time>2026-02-02T13:11:50Z</time>
      </trkpt>
      <trkpt lat="48.5067" lon="2.20644">
        <ele>110</ele>
        <time>2026-02-02T13:11:51Z</time>
      </trkpt>
      <trkpt lat="48.50664" lon="2.20637">
        <ele>110</ele>
        <time>2026-02-02T13:11:52Z</time>
      </trkpt>
      <trkpt lat="48.50659" lon="2.2063">
        <ele>109.4</ele>
        <time>2026-02-02T13:11:53Z</time>
      </trkpt>
      <trkpt lat="48.50653" lon="2.20624">
        <ele>109.4</ele>
        <time>2026-02-02T13:11:54Z</time>
      </trkpt>
      <trkpt lat="48.50648" lon="2.20617">
        <ele>109.4</ele>
        <time>2026-02-02T13:11:55Z</time>
      </trkpt>
      <trkpt lat="48.50642" lon="2.20611">
        <ele>110</ele>
        <time>2026-02-02T13:11:56Z</time>
      </trkpt>
      <trkpt lat="48.50637" lon="2.20604">
        <ele>110.2</ele>
        <time>2026-02-02T13:11:57Z</time>
      </trkpt>
      <trkpt lat="48.50631" lon="2.20597">
        <ele>110.2</ele>
        <time>2026-02-02T13:11:58Z</time>
      </trkpt>
      <trkpt lat="48.50626" lon="2.20591">
        <ele>110.2</ele>
        <time>2026-02-02T13:11:59Z</time>
      </trkpt>
      <trkpt lat="48.50621" lon="2.20584">
        <ele>110.2</ele>
        <time>2026-02-02T13:12:00Z</time>
      </trkpt>
      <trkpt lat="48.50615" lon="2.20578">
        <ele>110.2</ele>
        <time>2026-02-02T13:12:01Z</time>
      </trkpt>
      <trkpt lat="48.5061" lon="2.20571">
        <ele>110.2</ele>
        <time>2026-02-02T13:12:02Z</time>
      </trkpt>
      <trkpt lat="48.50605" lon="2.20565">
        <ele>110.2</ele>
        <time>2026-02-02T13:12:03Z</time>
      </trkpt>
      <trkpt lat="48.50599" lon="2.20558">
        <ele>110.2</ele>
        <time>2026-02-02T13:12:04Z</time>
      </trkpt>
      <trkpt lat="48.50594" lon="2.20552">
        <ele>109.6</ele>
        <time>2026-02-02T13:12:05Z</time>
      </trkpt>
      <trkpt lat="48.50589" lon="2.20544">
        <ele>109.6</ele>
        <time>2026-02-02T13:12:06Z</time>
      </trkpt>
      <trkpt lat="48.50583" lon="2.20537">
        <ele>109.6</ele>
        <time>2026-02-02T13:12:07Z</time>
      </trkpt>
      <trkpt lat="48.50578" lon="2.2053">
        <ele>109.6</ele>
        <time>2026-02-02T13:12:08Z</time>
      </trkpt>
      <trkpt lat="48.50573" lon="2.20523">
        <ele>109.6</ele>
        <time>2026-02-02T13:12:09Z</time>
      </trkpt>
      <trkpt lat="48.50567" lon="2.20516">
        <ele>109.6</ele>
        <time>2026-02-02T13:12:10Z</time>
      </trkpt>
      <trkpt lat="48.50562" lon="2.20509">
        <ele>109.6</ele>
        <time>2026-02-02T13:12:11Z</time>
      </trkpt>
      <trkpt lat="48.50557" lon="2.20502">
        <ele>108.8</ele>
        <time>2026-02-02T13:12:12Z</time>
      </trkpt>
      <trkpt lat="48.50551" lon="2.20495">
        <ele>109</ele>
        <time>2026-02-02T13:12:13Z</time>
      </trkpt>
      <trkpt lat="48.50546" lon="2.20488">
        <ele>109</ele>
        <time>2026-02-02T13:12:14Z</time>
      </trkpt>
      <trkpt lat="48.50541" lon="2.20481">
        <ele>109</ele>
        <time>2026-02-02T13:12:15Z</time>
      </trkpt>
      <trkpt lat="48.50536" lon="2.20474">
        <ele>109</ele>
        <time>2026-02-02T13:12:16Z</time>
      </trkpt>
      <trkpt lat="48.50531" lon="2.20467">
        <ele>108.6</ele>
        <time>2026-02-02T13:12:17Z</time>
      </trkpt>
      <trkpt lat="48.50525" lon="2.2046">
        <ele>108.6</ele>
        <time>2026-02-02T13:12:18Z</time>
      </trkpt>
      <trkpt lat="48.5052" lon="2.20454">
        <ele>108.6</ele>
        <time>2026-02-02T13:12:19Z</time>
      </trkpt>
      <trkpt lat="48.50515" lon="2.20447">
        <ele>108.4</ele>
        <time>2026-02-02T13:12:20Z</time>
      </trkpt>
      <trkpt lat="48.5051" lon="2.2044">
        <ele>108.4</ele>
        <time>2026-02-02T13:12:21Z</time>
      </trkpt>
      <trkpt lat="48.50505" lon="2.20433">
        <ele>108.4</ele>
        <time>2026-02-02T13:12:22Z</time>
      </trkpt>
      <trkpt lat="48.50499" lon="2.20426">
        <ele>108.4</ele>
        <time>2026-02-02T13:12:23Z</time>
      </trkpt>
      <trkpt lat="48.50494" lon="2.20419">
        <ele>108.4</ele>
        <time>2026-02-02T13:12:24Z</time>
      </trkpt>
      <trkpt lat="48.50489" lon="2.20412">
        <ele>108.4</ele>
        <time>2026-02-02T13:12:25Z</time>
      </trkpt>
      <trkpt lat="48.50484" lon="2.20405">
        <ele>108.4</ele>
        <time>2026-02-02T13:12:26Z</time>
      </trkpt>
      <trkpt lat="48.50479" lon="2.20398">
        <ele>108.4</ele>
        <time>2026-02-02T13:12:27Z</time>
      </trkpt>
      <trkpt lat="48.50474" lon="2.2039">
        <ele>108.4</ele>
        <time>2026-02-02T13:12:28Z</time>
      </trkpt>
      <trkpt lat="48.5047" lon="2.20383">
        <ele>108</ele>
        <time>2026-02-02T13:12:29Z</time>
      </trkpt>
      <trkpt lat="48.50465" lon="2.20376">
        <ele>108</ele>
        <time>2026-02-02T13:12:30Z</time>
      </trkpt>
      <trkpt lat="48.5046" lon="2.20368">
        <ele>108</ele>
        <time>2026-02-02T13:12:31Z</time>
      </trkpt>
      <trkpt lat="48.50455" lon="2.20361">
        <ele>108</ele>
        <time>2026-02-02T13:12:32Z</time>
      </trkpt>
      <trkpt lat="48.5045" lon="2.20354">
        <ele>108.4</ele>
        <time>2026-02-02T13:12:33Z</time>
      </trkpt>
      <trkpt lat="48.50445" lon="2.20347">
        <ele>108.4</ele>
        <time>2026-02-02T13:12:34Z</time>
      </trkpt>
      <trkpt lat="48.5044" lon="2.2034">
        <ele>108.4</ele>
        <time>2026-02-02T13:12:35Z</time>
      </trkpt>
      <trkpt lat="48.50435" lon="2.20332">
        <ele>108.4</ele>
        <time>2026-02-02T13:12:36Z</time>
      </trkpt>
      <trkpt lat="48.5043" lon="2.20325">
        <ele>108</ele>
        <time>2026-02-02T13:12:37Z</time>
      </trkpt>
      <trkpt lat="48.50425" lon="2.20318">
        <ele>108</ele>
        <time>2026-02-02T13:12:38Z</time>
      </trkpt>
      <trkpt lat="48.5042" lon="2.20311">
        <ele>108</ele>
        <time>2026-02-02T13:12:39Z</time>
      </trkpt>
      <trkpt lat="48.50415" lon="2.20303">
        <ele>108</ele>
        <time>2026-02-02T13:12:40Z</time>
      </trkpt>
      <trkpt lat="48.5041" lon="2.20296">
        <ele>108.2</ele>
        <time>2026-02-02T13:12:41Z</time>
      </trkpt>
      <trkpt lat="48.50405" lon="2.20289">
        <ele>108.2</ele>
        <time>2026-02-02T13:12:42Z</time>
      </trkpt>
      <trkpt lat="48.50399" lon="2.20282">
        <ele>108.2</ele>
        <time>2026-02-02T13:12:43Z</time>
      </trkpt>
      <trkpt lat="48.50394" lon="2.20275">
        <ele>108.4</ele>
        <time>2026-02-02T13:12:44Z</time>
      </trkpt>
      <trkpt lat="48.50389" lon="2.20268">
        <ele>108</ele>
        <time>2026-02-02T13:12:45Z</time>
      </trkpt>
      <trkpt lat="48.50384" lon="2.2026">
        <ele>108</ele>
        <time>2026-02-02T13:12:46Z</time>
      </trkpt>
      <trkpt lat="48.50379" lon="2.20253">
        <ele>108</ele>
        <time>2026-02-02T13:12:47Z</time>
      </trkpt>
      <trkpt lat="48.50375" lon="2.20246">
        <ele>108</ele>
        <time>2026-02-02T13:12:48Z</time>
      </trkpt>
      <trkpt lat="48.5037" lon="2.20239">
        <ele>109</ele>
        <time>2026-02-02T13:12:49Z</time>
      </trkpt>
      <trkpt lat="48.50365" lon="2.20232">
        <ele>109</ele>
        <time>2026-02-02T13:12:50Z</time>
      </trkpt>
      <trkpt lat="48.5036" lon="2.20225">
        <ele>109</ele>
        <time>2026-02-02T13:12:51Z</time>
      </trkpt>
      <trkpt lat="48.50355" lon="2.20218">
        <ele>108</ele>
        <time>2026-02-02T13:12:52Z</time>
      </trkpt>
      <trkpt lat="48.50349" lon="2.20211">
        <ele>108</ele>
        <time>2026-02-02T13:12:53Z</time>
      </trkpt>
      <trkpt lat="48.50344" lon="2.20204">
        <ele>108</ele>
        <time>2026-02-02T13:12:54Z</time>
      </trkpt>
      <trkpt lat="48.5034" lon="2.20196">
        <ele>108</ele>
        <time>2026-02-02T13:12:55Z</time>
      </trkpt>
      <trkpt lat="48.50335" lon="2.2019">
        <ele>107.2</ele>
        <time>2026-02-02T13:12:56Z</time>
      </trkpt>
      <trkpt lat="48.5033" lon="2.20183">
        <ele>107.2</ele>
        <time>2026-02-02T13:12:57Z</time>
      </trkpt>
      <trkpt lat="48.50325" lon="2.20175">
        <ele>107.2</ele>
        <time>2026-02-02T13:12:58Z</time>
      </trkpt>
      <trkpt lat="48.50321" lon="2.20168">
        <ele>107.2</ele>
        <time>2026-02-02T13:12:59Z</time>
      </trkpt>
      <trkpt lat="48.50317" lon="2.2016">
        <ele>107.2</ele>
        <time>2026-02-02T13:13:00Z</time>
      </trkpt>
      <trkpt lat="48.50313" lon="2.20153">
        <ele>107.4</ele>
        <time>2026-02-02T13:13:01Z</time>
      </trkpt>
      <trkpt lat="48.50309" lon="2.20145">
        <ele>107.4</ele>
        <time>2026-02-02T13:13:02Z</time>
      </trkpt>
      <trkpt lat="48.50305" lon="2.20138">
        <ele>107.4</ele>
        <time>2026-02-02T13:13:03Z</time>
      </trkpt>
      <trkpt lat="48.503" lon="2.20132">
        <ele>107.4</ele>
        <time>2026-02-02T13:13:04Z</time>
      </trkpt>
      <trkpt lat="48.50295" lon="2.20127">
        <ele>107</ele>
        <time>2026-02-02T13:13:05Z</time>
      </trkpt>
      <trkpt lat="48.5029" lon="2.20121">
        <ele>107</ele>
        <time>2026-02-02T13:13:06Z</time>
      </trkpt>
      <trkpt lat="48.50286" lon="2.20117">
        <ele>107</ele>
        <time>2026-02-02T13:13:07Z</time>
      </trkpt>
      <trkpt lat="48.50283" lon="2.20112">
        <ele>107</ele>
        <time>2026-02-02T13:13:08Z</time>
      </trkpt>
      <trkpt lat="48.5028" lon="2.20108">
        <ele>106.6</ele>
        <time>2026-02-02T13:13:09Z</time>
      </trkpt>
      <trkpt lat="48.50279" lon="2.20106">
        <ele>106.6</ele>
        <time>2026-02-02T13:13:10Z</time>
      </trkpt>
      <trkpt lat="48.50278" lon="2.20104">
        <ele>106.6</ele>
        <time>2026-02-02T13:13:11Z</time>
      </trkpt>
      <trkpt lat="48.50277" lon="2.20104">
        <ele>106.6</ele>
        <time>2026-02-02T13:13:12Z</time>
      </trkpt>
      <trkpt lat="48.50277" lon="2.20104">
        <ele>106.8</ele>
        <time>2026-02-02T13:13:13Z</time>
      </trkpt>
      <trkpt lat="48.50277" lon="2.20104">
        <ele>106.8</ele>
        <time>2026-02-02T13:13:14Z</time>
      </trkpt>
      <trkpt lat="48.50272" lon="2.20096">
        <ele>106.2</ele>
        <time>2026-02-02T13:13:28Z</time>
      </trkpt>
      <trkpt lat="48.50269" lon="2.20092">
        <ele>106</ele>
        <time>2026-02-02T13:13:29Z</time>
      </trkpt>
      <trkpt lat="48.50267" lon="2.20089">
        <ele>106</ele>
        <time>2026-02-02T13:13:30Z</time>
      </trkpt>
      <trkpt lat="48.50265" lon="2.20085">
        <ele>106</ele>
        <time>2026-02-02T13:13:31Z</time>
      </trkpt>
      <trkpt lat="48.50261" lon="2.2008">
        <ele>106</ele>
        <time>2026-02-02T13:13:32Z</time>
      </trkpt>
      <trkpt lat="48.50259" lon="2.20076">
        <ele>105.6</ele>
        <time>2026-02-02T13:13:33Z</time>
      </trkpt>
      <trkpt lat="48.50257" lon="2.20073">
        <ele>105.6</ele>
        <time>2026-02-02T13:13:34Z</time>
      </trkpt>
      <trkpt lat="48.50253" lon="2.20068">
        <ele>105.6</ele>
        <time>2026-02-02T13:13:35Z</time>
      </trkpt>
      <trkpt lat="48.50249" lon="2.20062">
        <ele>105.6</ele>
        <time>2026-02-02T13:13:36Z</time>
      </trkpt>
      <trkpt lat="48.50245" lon="2.20056">
        <ele>106.4</ele>
        <time>2026-02-02T13:13:37Z</time>
      </trkpt>
      <trkpt lat="48.50241" lon="2.20051">
        <ele>106.4</ele>
        <time>2026-02-02T13:13:38Z</time>
      </trkpt>
      <trkpt lat="48.50237" lon="2.20045">
        <ele>106.4</ele>
        <time>2026-02-02T13:13:39Z</time>
      </trkpt>
      <trkpt lat="48.50233" lon="2.20039">
        <ele>106.4</ele>
        <time>2026-02-02T13:13:40Z</time>
      </trkpt>
      <trkpt lat="48.5023" lon="2.20034">
        <ele>106.6</ele>
        <time>2026-02-02T13:13:41Z</time>
      </trkpt>
      <trkpt lat="48.50225" lon="2.20028">
        <ele>106.6</ele>
        <time>2026-02-02T13:13:42Z</time>
      </trkpt>
      <trkpt lat="48.50221" lon="2.20022">
        <ele>106.6</ele>
        <time>2026-02-02T13:13:43Z</time>
      </trkpt>
      <trkpt lat="48.50216" lon="2.20016">
        <ele>107</ele>
        <time>2026-02-02T13:13:44Z</time>
      </trkpt>
      <trkpt lat="48.50212" lon="2.20009">
        <ele>107.4</ele>
        <time>2026-02-02T13:13:45Z</time>
      </trkpt>
      <trkpt lat="48.50208" lon="2.20002">
        <ele>107.4</ele>
        <time>2026-02-02T13:13:46Z</time>
      </trkpt>
      <trkpt lat="48.50204" lon="2.19996">
        <ele>107.4</ele>
        <time>2026-02-02T13:13:47Z</time>
      </trkpt>
      <trkpt lat="48.50201" lon="2.19989">
        <ele>107.4</ele>
        <time>2026-02-02T13:13:48Z</time>
      </trkpt>
      <trkpt lat="48.50197" lon="2.19981">
        <ele>107.6</ele>
        <time>2026-02-02T13:13:49Z</time>
      </trkpt>
      <trkpt lat="48.50194" lon="2.19974">
        <ele>107.6</ele>
        <time>2026-02-02T13:13:50Z</time>
      </trkpt>
      <trkpt lat="48.50191" lon="2.19967">
        <ele>107.6</ele>
        <time>2026-02-02T13:13:51Z</time>
      </trkpt>
      <trkpt lat="48.50188" lon="2.1996">
        <ele>107.6</ele>
        <time>2026-02-02T13:13:52Z</time>
      </trkpt>
      <trkpt lat="48.50185" lon="2.19953">
        <ele>107.8</ele>
        <time>2026-02-02T13:13:53Z</time>
      </trkpt>
      <trkpt lat="48.50183" lon="2.19946">
        <ele>107.8</ele>
        <time>2026-02-02T13:13:54Z</time>
      </trkpt>
      <trkpt lat="48.5018" lon="2.19939">
        <ele>107.8</ele>
        <time>2026-02-02T13:13:55Z</time>
      </trkpt>
      <trkpt lat="48.50177" lon="2.19932">
        <ele>107.8</ele>
        <time>2026-02-02T13:13:56Z</time>
      </trkpt>
      <trkpt lat="48.50174" lon="2.19925">
        <ele>108.4</ele>
        <time>2026-02-02T13:13:57Z</time>
      </trkpt>
      <trkpt lat="48.50171" lon="2.19918">
        <ele>108.4</ele>
        <time>2026-02-02T13:13:58Z</time>
      </trkpt>
      <trkpt lat="48.50169" lon="2.19911">
        <ele>108.4</ele>
        <time>2026-02-02T13:13:59Z</time>
      </trkpt>
      <trkpt lat="48.50166" lon="2.19904">
        <ele>108.4</ele>
        <time>2026-02-02T13:14:00Z</time>
      </trkpt>
      <trkpt lat="48.50163" lon="2.19897">
        <ele>108.2</ele>
        <time>2026-02-02T13:14:01Z</time>
      </trkpt>
      <trkpt lat="48.50161" lon="2.19891">
        <ele>108.2</ele>
        <time>2026-02-02T13:14:02Z</time>
      </trkpt>
      <trkpt lat="48.50158" lon="2.19884">
        <ele>108.2</ele>
        <time>2026-02-02T13:14:03Z</time>
      </trkpt>
      <trkpt lat="48.50156" lon="2.19879">
        <ele>109</ele>
        <time>2026-02-02T13:14:04Z</time>
      </trkpt>
      <trkpt lat="48.50153" lon="2.19873">
        <ele>109.6</ele>
        <time>2026-02-02T13:14:05Z</time>
      </trkpt>
      <trkpt lat="48.5015" lon="2.19867">
        <ele>109.6</ele>
        <time>2026-02-02T13:14:06Z</time>
      </trkpt>
      <trkpt lat="48.50147" lon="2.19862">
        <ele>109.6</ele>
        <time>2026-02-02T13:14:07Z</time>
      </trkpt>
      <trkpt lat="48.50144" lon="2.19857">
        <ele>109.6</ele>
        <time>2026-02-02T13:14:08Z</time>
      </trkpt>
      <trkpt lat="48.5014" lon="2.19852">
        <ele>109.4</ele>
        <time>2026-02-02T13:14:09Z</time>
      </trkpt>
      <trkpt lat="48.50136" lon="2.19847">
        <ele>109.4</ele>
        <time>2026-02-02T13:14:10Z</time>
      </trkpt>
      <trkpt lat="48.50131" lon="2.19843">
        <ele>109.4</ele>
        <time>2026-02-02T13:14:11Z</time>
      </trkpt>
      <trkpt lat="48.50127" lon="2.19838">
        <ele>109.4</ele>
        <time>2026-02-02T13:14:12Z</time>
      </trkpt>
      <trkpt lat="48.50122" lon="2.19834">
        <ele>109.6</ele>
        <time>2026-02-02T13:14:13Z</time>
      </trkpt>
      <trkpt lat="48.50117" lon="2.1983">
        <ele>109.6</ele>
        <time>2026-02-02T13:14:14Z</time>
      </trkpt>
      <trkpt lat="48.50112" lon="2.19826">
        <ele>109.6</ele>
        <time>2026-02-02T13:14:15Z</time>
      </trkpt>
      <trkpt lat="48.50107" lon="2.19822">
        <ele>108.8</ele>
        <time>2026-02-02T13:14:16Z</time>
      </trkpt>
      <trkpt lat="48.50102" lon="2.19818">
        <ele>109</ele>
        <time>2026-02-02T13:14:17Z</time>
      </trkpt>
      <trkpt lat="48.50097" lon="2.19813">
        <ele>109</ele>
        <time>2026-02-02T13:14:18Z</time>
      </trkpt>
      <trkpt lat="48.50092" lon="2.19809">
        <ele>109</ele>
        <time>2026-02-02T13:14:19Z</time>
      </trkpt>
      <trkpt lat="48.50087" lon="2.19804">
        <ele>108.8</ele>
        <time>2026-02-02T13:14:20Z</time>
      </trkpt>
      <trkpt lat="48.50081" lon="2.198">
        <ele>108.4</ele>
        <time>2026-02-02T13:14:21Z</time>
      </trkpt>
      <trkpt lat="48.50076" lon="2.19796">
        <ele>108.4</ele>
        <time>2026-02-02T13:14:22Z</time>
      </trkpt>
      <trkpt lat="48.50071" lon="2.19791">
        <ele>108.4</ele>
        <time>2026-02-02T13:14:23Z</time>
      </trkpt>
      <trkpt lat="48.50066" lon="2.19787">
        <ele>109</ele>
        <time>2026-02-02T13:14:24Z</time>
      </trkpt>
      <trkpt lat="48.5006" lon="2.19783">
        <ele>109.4</ele>
        <time>2026-02-02T13:14:25Z</time>
      </trkpt>
      <trkpt lat="48.50055" lon="2.19779">
        <ele>109.4</ele>
        <time>2026-02-02T13:14:26Z</time>
      </trkpt>
      <trkpt lat="48.5005" lon="2.19775">
        <ele>109.4</ele>
        <time>2026-02-02T13:14:27Z</time>
      </trkpt>
      <trkpt lat="48.50045" lon="2.19771">
        <ele>109.4</ele>
        <time>2026-02-02T13:14:28Z</time>
      </trkpt>
      <trkpt lat="48.5004" lon="2.19767">
        <ele>109.8</ele>
        <time>2026-02-02T13:14:29Z</time>
      </trkpt>
      <trkpt lat="48.50035" lon="2.19762">
        <ele>109.8</ele>
        <time>2026-02-02T13:14:30Z</time>
      </trkpt>
      <trkpt lat="48.5003" lon="2.19758">
        <ele>109.8</ele>
        <time>2026-02-02T13:14:31Z</time>
      </trkpt>
      <trkpt lat="48.50025" lon="2.19754">
        <ele>109.8</ele>
        <time>2026-02-02T13:14:32Z</time>
      </trkpt>
      <trkpt lat="48.5002" lon="2.1975">
        <ele>110</ele>
        <time>2026-02-02T13:14:33Z</time>
      </trkpt>
      <trkpt lat="48.50015" lon="2.19746">
        <ele>110</ele>
        <time>2026-02-02T13:14:34Z</time>
      </trkpt>
      <trkpt lat="48.5001" lon="2.19742">
        <ele>110</ele>
        <time>2026-02-02T13:14:35Z</time>
      </trkpt>
      <trkpt lat="48.50006" lon="2.19739">
        <ele>110</ele>
        <time>2026-02-02T13:14:36Z</time>
      </trkpt>
      <trkpt lat="48.50001" lon="2.19735">
        <ele>110.2</ele>
        <time>2026-02-02T13:14:37Z</time>
      </trkpt>
      <trkpt lat="48.49996" lon="2.19731">
        <ele>110.2</ele>
        <time>2026-02-02T13:14:38Z</time>
      </trkpt>
      <trkpt lat="48.49991" lon="2.19727">
        <ele>110.2</ele>
        <time>2026-02-02T13:14:39Z</time>
      </trkpt>
      <trkpt lat="48.49987" lon="2.19724">
        <ele>110.2</ele>
        <time>2026-02-02T13:14:40Z</time>
      </trkpt>
      <trkpt lat="48.49982" lon="2.1972">
        <ele>110.2</ele>
        <time>2026-02-02T13:14:41Z</time>
      </trkpt>
      <trkpt lat="48.49978" lon="2.19716">
        <ele>110.2</ele>
        <time>2026-02-02T13:14:42Z</time>
      </trkpt>
      <trkpt lat="48.49973" lon="2.19713">
        <ele>110.2</ele>
        <time>2026-02-02T13:14:43Z</time>
      </trkpt>
      <trkpt lat="48.49968" lon="2.19709">
        <ele>111</ele>
        <time>2026-02-02T13:14:44Z</time>
      </trkpt>
      <trkpt lat="48.49964" lon="2.19706">
        <ele>111.2</ele>
        <time>2026-02-02T13:14:45Z</time>
      </trkpt>
      <trkpt lat="48.49959" lon="2.19702">
        <ele>111.2</ele>
        <time>2026-02-02T13:14:46Z</time>
      </trkpt>
      <trkpt lat="48.49955" lon="2.19699">
        <ele>111.2</ele>
        <time>2026-02-02T13:14:47Z</time>
      </trkpt>
      <trkpt lat="48.4995" lon="2.19696">
        <ele>111.2</ele>
        <time>2026-02-02T13:14:48Z</time>
      </trkpt>
      <trkpt lat="48.49946" lon="2.19692">
        <ele>111</ele>
        <time>2026-02-02T13:14:49Z</time>
      </trkpt>
      <trkpt lat="48.49941" lon="2.19688">
        <ele>111</ele>
        <time>2026-02-02T13:14:50Z</time>
      </trkpt>
      <trkpt lat="48.49937" lon="2.19685">
        <ele>111</ele>
        <time>2026-02-02T13:14:51Z</time>
      </trkpt>
      <trkpt lat="48.49933" lon="2.19681">
        <ele>111.4</ele>
        <time>2026-02-02T13:14:52Z</time>
      </trkpt>
      <trkpt lat="48.49928" lon="2.19678">
        <ele>111.8</ele>
        <time>2026-02-02T13:14:53Z</time>
      </trkpt>
      <trkpt lat="48.49924" lon="2.19674">
        <ele>111.8</ele>
        <time>2026-02-02T13:14:54Z</time>
      </trkpt>
      <trkpt lat="48.49919" lon="2.19671">
        <ele>111.8</ele>
        <time>2026-02-02T13:14:55Z</time>
      </trkpt>
      <trkpt lat="48.49915" lon="2.19667">
        <ele>111.8</ele>
        <time>2026-02-02T13:14:56Z</time>
      </trkpt>
      <trkpt lat="48.49911" lon="2.19664">
        <ele>112.4</ele>
        <time>2026-02-02T13:14:57Z</time>
      </trkpt>
      <trkpt lat="48.49906" lon="2.1966">
        <ele>112.4</ele>
        <time>2026-02-02T13:14:58Z</time>
      </trkpt>
      <trkpt lat="48.49902" lon="2.19657">
        <ele>112.4</ele>
        <time>2026-02-02T13:14:59Z</time>
      </trkpt>
      <trkpt lat="48.49897" lon="2.19653">
        <ele>112.4</ele>
        <time>2026-02-02T13:15:00Z</time>
      </trkpt>
      <trkpt lat="48.49893" lon="2.1965">
        <ele>112.6</ele>
        <time>2026-02-02T13:15:01Z</time>
      </trkpt>
      <trkpt lat="48.49889" lon="2.19646">
        <ele>112.6</ele>
        <time>2026-02-02T13:15:02Z</time>
      </trkpt>
      <trkpt lat="48.49884" lon="2.19643">
        <ele>112.6</ele>
        <time>2026-02-02T13:15:03Z</time>
      </trkpt>
      <trkpt lat="48.4988" lon="2.19639">
        <ele>113</ele>
        <time>2026-02-02T13:15:04Z</time>
      </trkpt>
      <trkpt lat="48.49875" lon="2.19635">
        <ele>113.2</ele>
        <time>2026-02-02T13:15:05Z</time>
      </trkpt>
      <trkpt lat="48.49871" lon="2.19632">
        <ele>113.2</ele>
        <time>2026-02-02T13:15:06Z</time>
      </trkpt>
      <trkpt lat="48.49867" lon="2.19628">
        <ele>113.2</ele>
        <time>2026-02-02T13:15:07Z</time>
      </trkpt>
      <trkpt lat="48.49862" lon="2.19624">
        <ele>113.8</ele>
        <time>2026-02-02T13:15:08Z</time>
      </trkpt>
      <trkpt lat="48.49858" lon="2.1962">
        <ele>113.4</ele>
        <time>2026-02-02T13:15:09Z</time>
      </trkpt>
      <trkpt lat="48.49854" lon="2.19617">
        <ele>113.4</ele>
        <time>2026-02-02T13:15:10Z</time>
      </trkpt>
      <trkpt lat="48.49849" lon="2.19613">
        <ele>113.4</ele>
        <time>2026-02-02T13:15:11Z</time>
      </trkpt>
      <trkpt lat="48.49845" lon="2.19609">
        <ele>114</ele>
        <time>2026-02-02T13:15:12Z</time>
      </trkpt>
      <trkpt lat="48.49841" lon="2.19606">
        <ele>114.2</ele>
        <time>2026-02-02T13:15:13Z</time>
      </trkpt>
      <trkpt lat="48.49836" lon="2.19602">
        <ele>114.2</ele>
        <time>2026-02-02T13:15:14Z</time>
      </trkpt>
      <trkpt lat="48.49832" lon="2.19597">
        <ele>114.2</ele>
        <time>2026-02-02T13:15:15Z</time>
      </trkpt>
      <trkpt lat="48.49828" lon="2.19593">
        <ele>114.2</ele>
        <time>2026-02-02T13:15:16Z</time>
      </trkpt>
      <trkpt lat="48.49823" lon="2.19589">
        <ele>114</ele>
        <time>2026-02-02T13:15:17Z</time>
      </trkpt>
      <trkpt lat="48.49819" lon="2.19584">
        <ele>114</ele>
        <time>2026-02-02T13:15:18Z</time>
      </trkpt>
      <trkpt lat="48.49815" lon="2.1958">
        <ele>114</ele>
        <time>2026-02-02T13:15:19Z</time>
      </trkpt>
      <trkpt lat="48.49811" lon="2.19574">
        <ele>114</ele>
        <time>2026-02-02T13:15:20Z</time>
      </trkpt>
      <trkpt lat="48.49807" lon="2.19569">
        <ele>114</ele>
        <time>2026-02-02T13:15:21Z</time>
      </trkpt>
      <trkpt lat="48.49802" lon="2.19563">
        <ele>114</ele>
        <time>2026-02-02T13:15:22Z</time>
      </trkpt>
      <trkpt lat="48.49798" lon="2.19559">
        <ele>114</ele>
        <time>2026-02-02T13:15:23Z</time>
      </trkpt>
      <trkpt lat="48.49793" lon="2.19554">
        <ele>114</ele>
        <time>2026-02-02T13:15:24Z</time>
      </trkpt>
      <trkpt lat="48.49788" lon="2.19549">
        <ele>113.6</ele>
        <time>2026-02-02T13:15:25Z</time>
      </trkpt>
      <trkpt lat="48.49783" lon="2.19544">
        <ele>113.6</ele>
        <time>2026-02-02T13:15:26Z</time>
      </trkpt>
      <trkpt lat="48.49778" lon="2.1954">
        <ele>113.6</ele>
        <time>2026-02-02T13:15:27Z</time>
      </trkpt>
      <trkpt lat="48.49772" lon="2.19536">
        <ele>112.8</ele>
        <time>2026-02-02T13:15:28Z</time>
      </trkpt>
      <trkpt lat="48.49766" lon="2.19532">
        <ele>112.8</ele>
        <time>2026-02-02T13:15:29Z</time>
      </trkpt>
      <trkpt lat="48.4976" lon="2.19528">
        <ele>112.8</ele>
        <time>2026-02-02T13:15:30Z</time>
      </trkpt>
      <trkpt lat="48.49755" lon="2.19523">
        <ele>112.8</ele>
        <time>2026-02-02T13:15:31Z</time>
      </trkpt>
      <trkpt lat="48.49749" lon="2.19517">
        <ele>112</ele>
        <time>2026-02-02T13:15:32Z</time>
      </trkpt>
      <trkpt lat="48.49743" lon="2.19511">
        <ele>112.6</ele>
        <time>2026-02-02T13:15:33Z</time>
      </trkpt>
      <trkpt lat="48.49738" lon="2.19504">
        <ele>112.6</ele>
        <time>2026-02-02T13:15:34Z</time>
      </trkpt>
      <trkpt lat="48.49733" lon="2.19496">
        <ele>112.6</ele>
        <time>2026-02-02T13:15:35Z</time>
      </trkpt>
      <trkpt lat="48.4973" lon="2.19487">
        <ele>112.4</ele>
        <time>2026-02-02T13:15:36Z</time>
      </trkpt>
      <trkpt lat="48.49727" lon="2.19479">
        <ele>113.2</ele>
        <time>2026-02-02T13:15:37Z</time>
      </trkpt>
      <trkpt lat="48.49724" lon="2.19471">
        <ele>113.2</ele>
        <time>2026-02-02T13:15:38Z</time>
      </trkpt>
      <trkpt lat="48.49722" lon="2.19463">
        <ele>113.2</ele>
        <time>2026-02-02T13:15:39Z</time>
      </trkpt>
      <trkpt lat="48.4972" lon="2.19456">
        <ele>114.2</ele>
        <time>2026-02-02T13:15:40Z</time>
      </trkpt>
      <trkpt lat="48.49718" lon="2.1945">
        <ele>114.4</ele>
        <time>2026-02-02T13:15:41Z</time>
      </trkpt>
      <trkpt lat="48.49717" lon="2.19444">
        <ele>114.4</ele>
        <time>2026-02-02T13:15:42Z</time>
      </trkpt>
      <trkpt lat="48.49715" lon="2.19437">
        <ele>114.4</ele>
        <time>2026-02-02T13:15:43Z</time>
      </trkpt>
      <trkpt lat="48.49714" lon="2.19431">
        <ele>115.2</ele>
        <time>2026-02-02T13:15:44Z</time>
      </trkpt>
      <trkpt lat="48.49712" lon="2.19425">
        <ele>115.2</ele>
        <time>2026-02-02T13:15:45Z</time>
      </trkpt>
      <trkpt lat="48.4971" lon="2.19418">
        <ele>115.2</ele>
        <time>2026-02-02T13:15:46Z</time>
      </trkpt>
      <trkpt lat="48.49708" lon="2.19412">
        <ele>115.2</ele>
        <time>2026-02-02T13:15:47Z</time>
      </trkpt>
      <trkpt lat="48.49706" lon="2.19406">
        <ele>116.2</ele>
        <time>2026-02-02T13:15:48Z</time>
      </trkpt>
      <trkpt lat="48.49704" lon="2.19399">
        <ele>116</ele>
        <time>2026-02-02T13:15:49Z</time>
      </trkpt>
      <trkpt lat="48.49702" lon="2.19393">
        <ele>116</ele>
        <time>2026-02-02T13:15:50Z</time>
      </trkpt>
      <trkpt lat="48.49699" lon="2.19387">
        <ele>116</ele>
        <time>2026-02-02T13:15:51Z</time>
      </trkpt>
      <trkpt lat="48.49696" lon="2.1938">
        <ele>116.2</ele>
        <time>2026-02-02T13:15:52Z</time>
      </trkpt>
      <trkpt lat="48.49693" lon="2.19374">
        <ele>116.4</ele>
        <time>2026-02-02T13:15:53Z</time>
      </trkpt>
      <trkpt lat="48.4969" lon="2.19368">
        <ele>116.4</ele>
        <time>2026-02-02T13:15:54Z</time>
      </trkpt>
      <trkpt lat="48.49686" lon="2.19362">
        <ele>116.4</ele>
        <time>2026-02-02T13:15:55Z</time>
      </trkpt>
      <trkpt lat="48.49683" lon="2.19355">
        <ele>115.6</ele>
        <time>2026-02-02T13:15:56Z</time>
      </trkpt>
      <trkpt lat="48.49679" lon="2.19348">
        <ele>115.4</ele>
        <time>2026-02-02T13:15:57Z</time>
      </trkpt>
      <trkpt lat="48.49676" lon="2.19341">
        <ele>115.4</ele>
        <time>2026-02-02T13:15:58Z</time>
      </trkpt>
      <trkpt lat="48.49672" lon="2.19334">
        <ele>115.4</ele>
        <time>2026-02-02T13:15:59Z</time>
      </trkpt>
      <trkpt lat="48.49669" lon="2.19326">
        <ele>115</ele>
        <time>2026-02-02T13:16:00Z</time>
      </trkpt>
      <trkpt lat="48.49665" lon="2.19319">
        <ele>115</ele>
        <time>2026-02-02T13:16:01Z</time>
      </trkpt>
      <trkpt lat="48.49662" lon="2.19312">
        <ele>115</ele>
        <time>2026-02-02T13:16:02Z</time>
      </trkpt>
      <trkpt lat="48.49658" lon="2.19304">
        <ele>115</ele>
        <time>2026-02-02T13:16:03Z</time>
      </trkpt>
      <trkpt lat="48.49655" lon="2.19296">
        <ele>115</ele>
        <time>2026-02-02T13:16:04Z</time>
      </trkpt>
      <trkpt lat="48.49652" lon="2.19289">
        <ele>114.8</ele>
        <time>2026-02-02T13:16:05Z</time>
      </trkpt>
      <trkpt lat="48.49649" lon="2.1928">
        <ele>114.8</ele>
        <time>2026-02-02T13:16:06Z</time>
      </trkpt>
      <trkpt lat="48.49645" lon="2.19272">
        <ele>114.8</ele>
        <time>2026-02-02T13:16:07Z</time>
      </trkpt>
      <trkpt lat="48.49642" lon="2.19264">
        <ele>114.4</ele>
        <time>2026-02-02T13:16:08Z</time>
      </trkpt>
      <trkpt lat="48.4964" lon="2.19256">
        <ele>114.8</ele>
        <time>2026-02-02T13:16:09Z</time>
      </trkpt>
      <trkpt lat="48.49637" lon="2.19249">
        <ele>114.8</ele>
        <time>2026-02-02T13:16:10Z</time>
      </trkpt>
      <trkpt lat="48.49634" lon="2.19241">
        <ele>114.8</ele>
        <time>2026-02-02T13:16:11Z</time>
      </trkpt>
      <trkpt lat="48.49632" lon="2.19233">
        <ele>114.2</ele>
        <time>2026-02-02T13:16:12Z</time>
      </trkpt>
      <trkpt lat="48.49629" lon="2.19225">
        <ele>114</ele>
        <time>2026-02-02T13:16:13Z</time>
      </trkpt>
      <trkpt lat="48.49626" lon="2.19217">
        <ele>114</ele>
        <time>2026-02-02T13:16:14Z</time>
      </trkpt>
      <trkpt lat="48.49623" lon="2.19209">
        <ele>114</ele>
        <time>2026-02-02T13:16:15Z</time>
      </trkpt>
      <trkpt lat="48.4962" lon="2.19201">
        <ele>114</ele>
        <time>2026-02-02T13:16:16Z</time>
      </trkpt>
      <trkpt lat="48.49617" lon="2.19193">
        <ele>113.6</ele>
        <time>2026-02-02T13:16:17Z</time>
      </trkpt>
      <trkpt lat="48.49614" lon="2.19185">
        <ele>113.6</ele>
        <time>2026-02-02T13:16:18Z</time>
      </trkpt>
      <trkpt lat="48.49611" lon="2.19177">
        <ele>113.6</ele>
        <time>2026-02-02T13:16:19Z</time>
      </trkpt>
      <trkpt lat="48.49607" lon="2.19169">
        <ele>113.6</ele>
        <time>2026-02-02T13:16:20Z</time>
      </trkpt>
      <trkpt lat="48.49603" lon="2.19162">
        <ele>113.4</ele>
        <time>2026-02-02T13:16:21Z</time>
      </trkpt>
      <trkpt lat="48.49599" lon="2.19154">
        <ele>113.4</ele>
        <time>2026-02-02T13:16:22Z</time>
      </trkpt>
      <trkpt lat="48.49595" lon="2.19146">
        <ele>113.4</ele>
        <time>2026-02-02T13:16:23Z</time>
      </trkpt>
      <trkpt lat="48.49591" lon="2.19138">
        <ele>113</ele>
        <time>2026-02-02T13:16:24Z</time>
      </trkpt>
      <trkpt lat="48.49587" lon="2.19131">
        <ele>112.8</ele>
        <time>2026-02-02T13:16:25Z</time>
      </trkpt>
      <trkpt lat="48.49583" lon="2.19123">
        <ele>112.8</ele>
        <time>2026-02-02T13:16:26Z</time>
      </trkpt>
      <trkpt lat="48.49579" lon="2.19115">
        <ele>112.8</ele>
        <time>2026-02-02T13:16:27Z</time>
      </trkpt>
      <trkpt lat="48.49575" lon="2.19107">
        <ele>112.8</ele>
        <time>2026-02-02T13:16:28Z</time>
      </trkpt>
      <trkpt lat="48.49571" lon="2.19099">
        <ele>112.8</ele>
        <time>2026-02-02T13:16:29Z</time>
      </trkpt>
      <trkpt lat="48.49566" lon="2.19092">
        <ele>112.8</ele>
        <time>2026-02-02T13:16:30Z</time>
      </trkpt>
      <trkpt lat="48.49562" lon="2.19084">
        <ele>112.8</ele>
        <time>2026-02-02T13:16:31Z</time>
      </trkpt>
      <trkpt lat="48.49558" lon="2.19076">
        <ele>112.8</ele>
        <time>2026-02-02T13:16:32Z</time>
      </trkpt>
      <trkpt lat="48.49553" lon="2.19068">
        <ele>112.2</ele>
        <time>2026-02-02T13:16:33Z</time>
      </trkpt>
      <trkpt lat="48.49549" lon="2.1906">
        <ele>112.2</ele>
        <time>2026-02-02T13:16:34Z</time>
      </trkpt>
      <trkpt lat="48.49545" lon="2.19052">
        <ele>112.2</ele>
        <time>2026-02-02T13:16:35Z</time>
      </trkpt>
      <trkpt lat="48.49541" lon="2.19045">
        <ele>112.2</ele>
        <time>2026-02-02T13:16:36Z</time>
      </trkpt>
      <trkpt lat="48.49536" lon="2.19037">
        <ele>112</ele>
        <time>2026-02-02T13:16:37Z</time>
      </trkpt>
      <trkpt lat="48.49532" lon="2.19028">
        <ele>112</ele>
        <time>2026-02-02T13:16:38Z</time>
      </trkpt>
      <trkpt lat="48.49528" lon="2.19019">
        <ele>112</ele>
        <time>2026-02-02T13:16:39Z</time>
      </trkpt>
      <trkpt lat="48.49524" lon="2.1901">
        <ele>112</ele>
        <time>2026-02-02T13:16:40Z</time>
      </trkpt>
      <trkpt lat="48.4952" lon="2.19001">
        <ele>111.6</ele>
        <time>2026-02-02T13:16:41Z</time>
      </trkpt>
      <trkpt lat="48.49517" lon="2.18992">
        <ele>111.6</ele>
        <time>2026-02-02T13:16:42Z</time>
      </trkpt>
      <trkpt lat="48.49514" lon="2.18983">
        <ele>111.6</ele>
        <time>2026-02-02T13:16:43Z</time>
      </trkpt>
      <trkpt lat="48.49512" lon="2.18973">
        <ele>112.4</ele>
        <time>2026-02-02T13:16:44Z</time>
      </trkpt>
      <trkpt lat="48.4951" lon="2.18965">
        <ele>112.8</ele>
        <time>2026-02-02T13:16:45Z</time>
      </trkpt>
      <trkpt lat="48.49507" lon="2.18957">
        <ele>112.8</ele>
        <time>2026-02-02T13:16:46Z</time>
      </trkpt>
      <trkpt lat="48.49505" lon="2.18949">
        <ele>112.8</ele>
        <time>2026-02-02T13:16:47Z</time>
      </trkpt>
      <trkpt lat="48.49503" lon="2.18941">
        <ele>113.8</ele>
        <time>2026-02-02T13:16:48Z</time>
      </trkpt>
      <trkpt lat="48.49502" lon="2.18934">
        <ele>114.2</ele>
        <time>2026-02-02T13:16:49Z</time>
      </trkpt>
      <trkpt lat="48.495" lon="2.18926">
        <ele>114.2</ele>
        <time>2026-02-02T13:16:50Z</time>
      </trkpt>
      <trkpt lat="48.49499" lon="2.18919">
        <ele>114.2</ele>
        <time>2026-02-02T13:16:51Z</time>
      </trkpt>
      <trkpt lat="48.49498" lon="2.18911">
        <ele>114.6</ele>
        <time>2026-02-02T13:16:52Z</time>
      </trkpt>
      <trkpt lat="48.49497" lon="2.18904">
        <ele>115.2</ele>
        <time>2026-02-02T13:16:53Z</time>
      </trkpt>
      <trkpt lat="48.49497" lon="2.18897">
        <ele>115.2</ele>
        <time>2026-02-02T13:16:54Z</time>
      </trkpt>
      <trkpt lat="48.49496" lon="2.1889">
        <ele>115.2</ele>
        <time>2026-02-02T13:16:55Z</time>
      </trkpt>
      <trkpt lat="48.49496" lon="2.18882">
        <ele>115.2</ele>
        <time>2026-02-02T13:16:56Z</time>
      </trkpt>
      <trkpt lat="48.49495" lon="2.18874">
        <ele>115.2</ele>
        <time>2026-02-02T13:16:57Z</time>
      </trkpt>
      <trkpt lat="48.49494" lon="2.18866">
        <ele>115.2</ele>
        <time>2026-02-02T13:16:58Z</time>
      </trkpt>
      <trkpt lat="48.49494" lon="2.18858">
        <ele>115.2</ele>
        <time>2026-02-02T13:16:59Z</time>
      </trkpt>
      <trkpt lat="48.49493" lon="2.18849">
        <ele>114.4</ele>
        <time>2026-02-02T13:17:00Z</time>
      </trkpt>
      <trkpt lat="48.49492" lon="2.1884">
        <ele>114.2</ele>
        <time>2026-02-02T13:17:01Z</time>
      </trkpt>
      <trkpt lat="48.49492" lon="2.1883">
        <ele>114.2</ele>
        <time>2026-02-02T13:17:02Z</time>
      </trkpt>
      <trkpt lat="48.49491" lon="2.18821">
        <ele>114.2</ele>
        <time>2026-02-02T13:17:03Z</time>
      </trkpt>
      <trkpt lat="48.4949" lon="2.18812">
        <ele>114.2</ele>
        <time>2026-02-02T13:17:04Z</time>
      </trkpt>
      <trkpt lat="48.49489" lon="2.18802">
        <ele>114.6</ele>
        <time>2026-02-02T13:17:05Z</time>
      </trkpt>
      <trkpt lat="48.49489" lon="2.18793">
        <ele>114.6</ele>
        <time>2026-02-02T13:17:06Z</time>
      </trkpt>
      <trkpt lat="48.49488" lon="2.18784">
        <ele>114.6</ele>
        <time>2026-02-02T13:17:07Z</time>
      </trkpt>
      <trkpt lat="48.49488" lon="2.18776">
        <ele>115.2</ele>
        <time>2026-02-02T13:17:08Z</time>
      </trkpt>
      <trkpt lat="48.49487" lon="2.18767">
        <ele>115.6</ele>
        <time>2026-02-02T13:17:09Z</time>
      </trkpt>
      <trkpt lat="48.49487" lon="2.18759">
        <ele>115.6</ele>
        <time>2026-02-02T13:17:10Z</time>
      </trkpt>
      <trkpt lat="48.49486" lon="2.18751">
        <ele>115.6</ele>
        <time>2026-02-02T13:17:11Z</time>
      </trkpt>
      <trkpt lat="48.49486" lon="2.18743">
        <ele>116.4</ele>
        <time>2026-02-02T13:17:12Z</time>
      </trkpt>
      <trkpt lat="48.49485" lon="2.18736">
        <ele>115.8</ele>
        <time>2026-02-02T13:17:13Z</time>
      </trkpt>
      <trkpt lat="48.49485" lon="2.18728">
        <ele>115.8</ele>
        <time>2026-02-02T13:17:14Z</time>
      </trkpt>
      <trkpt lat="48.49484" lon="2.1872">
        <ele>115.8</ele>
        <time>2026-02-02T13:17:15Z</time>
      </trkpt>
      <trkpt lat="48.49483" lon="2.18712">
        <ele>115.8</ele>
        <time>2026-02-02T13:17:16Z</time>
      </trkpt>
      <trkpt lat="48.4948" lon="2.18704">
        <ele>115.8</ele>
        <time>2026-02-02T13:17:17Z</time>
      </trkpt>
      <trkpt lat="48.49477" lon="2.18697">
        <ele>115.8</ele>
        <time>2026-02-02T13:17:18Z</time>
      </trkpt>
      <trkpt lat="48.49473" lon="2.1869">
        <ele>115.8</ele>
        <time>2026-02-02T13:17:19Z</time>
      </trkpt>
      <trkpt lat="48.49468" lon="2.18684">
        <ele>114.8</ele>
        <time>2026-02-02T13:17:20Z</time>
      </trkpt>
      <trkpt lat="48.49462" lon="2.18679">
        <ele>114.4</ele>
        <time>2026-02-02T13:17:21Z</time>
      </trkpt>
      <trkpt lat="48.49457" lon="2.18673">
        <ele>114.4</ele>
        <time>2026-02-02T13:17:22Z</time>
      </trkpt>
      <trkpt lat="48.49451" lon="2.18666">
        <ele>114.4</ele>
        <time>2026-02-02T13:17:23Z</time>
      </trkpt>
      <trkpt lat="48.49445" lon="2.1866">
        <ele>113.4</ele>
        <time>2026-02-02T13:17:24Z</time>
      </trkpt>
      <trkpt lat="48.49439" lon="2.18653">
        <ele>112</ele>
        <time>2026-02-02T13:17:25Z</time>
      </trkpt>
      <trkpt lat="48.49433" lon="2.18645">
        <ele>112</ele>
        <time>2026-02-02T13:17:26Z</time>
      </trkpt>
      <trkpt lat="48.49426" lon="2.18638">
        <ele>112</ele>
        <time>2026-02-02T13:17:27Z</time>
      </trkpt>
      <trkpt lat="48.49419" lon="2.1863">
        <ele>112</ele>
        <time>2026-02-02T13:17:28Z</time>
      </trkpt>
      <trkpt lat="48.49412" lon="2.18623">
        <ele>110.6</ele>
        <time>2026-02-02T13:17:29Z</time>
      </trkpt>
      <trkpt lat="48.49405" lon="2.18615">
        <ele>110.6</ele>
        <time>2026-02-02T13:17:30Z</time>
      </trkpt>
      <trkpt lat="48.49398" lon="2.18607">
        <ele>110.6</ele>
        <time>2026-02-02T13:17:31Z</time>
      </trkpt>
      <trkpt lat="48.4939" lon="2.18599">
        <ele>109.6</ele>
        <time>2026-02-02T13:17:32Z</time>
      </trkpt>
      <trkpt lat="48.49383" lon="2.18591">
        <ele>108.4</ele>
        <time>2026-02-02T13:17:33Z</time>
      </trkpt>
      <trkpt lat="48.49377" lon="2.18585">
        <ele>108.4</ele>
        <time>2026-02-02T13:17:34Z</time>
      </trkpt>
      <trkpt lat="48.49372" lon="2.18579">
        <ele>108.4</ele>
        <time>2026-02-02T13:17:35Z</time>
      </trkpt>
      <trkpt lat="48.49367" lon="2.18574">
        <ele>107.4</ele>
        <time>2026-02-02T13:17:36Z</time>
      </trkpt>
      <trkpt lat="48.49364" lon="2.1857">
        <ele>107</ele>
        <time>2026-02-02T13:17:37Z</time>
      </trkpt>
      <trkpt lat="48.49361" lon="2.18568">
        <ele>107</ele>
        <time>2026-02-02T13:17:38Z</time>
      </trkpt>
      <trkpt lat="48.49359" lon="2.18564">
        <ele>107</ele>
        <time>2026-02-02T13:17:39Z</time>
      </trkpt>
      <trkpt lat="48.49358" lon="2.18561">
        <ele>107</ele>
        <time>2026-02-02T13:17:40Z</time>
      </trkpt>
      <trkpt lat="48.49356" lon="2.1856">
        <ele>106.6</ele>
        <time>2026-02-02T13:17:41Z</time>
      </trkpt>
      <trkpt lat="48.49353" lon="2.18559">
        <ele>106.6</ele>
        <time>2026-02-02T13:17:42Z</time>
      </trkpt>
      <trkpt lat="48.49351" lon="2.18556">
        <ele>106.6</ele>
        <time>2026-02-02T13:17:43Z</time>
      </trkpt>
      <trkpt lat="48.49349" lon="2.18552">
        <ele>106.6</ele>
        <time>2026-02-02T13:17:44Z</time>
      </trkpt>
      <trkpt lat="48.49347" lon="2.18547">
        <ele>106.4</ele>
        <time>2026-02-02T13:17:45Z</time>
      </trkpt>
      <trkpt lat="48.49346" lon="2.18541">
        <ele>106.4</ele>
        <time>2026-02-02T13:17:46Z</time>
      </trkpt>
      <trkpt lat="48.49344" lon="2.18534">
        <ele>106.4</ele>
        <time>2026-02-02T13:17:47Z</time>
      </trkpt>
      <trkpt lat="48.49342" lon="2.18528">
        <ele>106.4</ele>
        <time>2026-02-02T13:17:48Z</time>
      </trkpt>
      <trkpt lat="48.49341" lon="2.18521">
        <ele>106.6</ele>
        <time>2026-02-02T13:17:49Z</time>
      </trkpt>
      <trkpt lat="48.49339" lon="2.18514">
        <ele>106.6</ele>
        <time>2026-02-02T13:17:50Z</time>
      </trkpt>
      <trkpt lat="48.49338" lon="2.18506">
        <ele>106.6</ele>
        <time>2026-02-02T13:17:51Z</time>
      </trkpt>
      <trkpt lat="48.49336" lon="2.18498">
        <ele>105.8</ele>
        <time>2026-02-02T13:17:52Z</time>
      </trkpt>
      <trkpt lat="48.49335" lon="2.1849">
        <ele>106.4</ele>
        <time>2026-02-02T13:17:53Z</time>
      </trkpt>
      <trkpt lat="48.49333" lon="2.18481">
        <ele>106.4</ele>
        <time>2026-02-02T13:17:54Z</time>
      </trkpt>
      <trkpt lat="48.49332" lon="2.18472">
        <ele>106.4</ele>
        <time>2026-02-02T13:17:55Z</time>
      </trkpt>
      <trkpt lat="48.49331" lon="2.18463">
        <ele>106</ele>
        <time>2026-02-02T13:17:56Z</time>
      </trkpt>
      <trkpt lat="48.49329" lon="2.18454">
        <ele>106.2</ele>
        <time>2026-02-02T13:17:57Z</time>
      </trkpt>
      <trkpt lat="48.49328" lon="2.18445">
        <ele>106.2</ele>
        <time>2026-02-02T13:17:58Z</time>
      </trkpt>
      <trkpt lat="48.49327" lon="2.18436">
        <ele>106.2</ele>
        <time>2026-02-02T13:17:59Z</time>
      </trkpt>
      <trkpt lat="48.49326" lon="2.18426">
        <ele>105.8</ele>
        <time>2026-02-02T13:18:00Z</time>
      </trkpt>
      <trkpt lat="48.49325" lon="2.18417">
        <ele>105.8</ele>
        <time>2026-02-02T13:18:01Z</time>
      </trkpt>
      <trkpt lat="48.49324" lon="2.18407">
        <ele>105.8</ele>
        <time>2026-02-02T13:18:02Z</time>
      </trkpt>
      <trkpt lat="48.49322" lon="2.18397">
        <ele>105.8</ele>
        <time>2026-02-02T13:18:03Z</time>
      </trkpt>
      <trkpt lat="48.49321" lon="2.18387">
        <ele>105.4</ele>
        <time>2026-02-02T13:18:04Z</time>
      </trkpt>
      <trkpt lat="48.4932" lon="2.18377">
        <ele>105.2</ele>
        <time>2026-02-02T13:18:05Z</time>
      </trkpt>
      <trkpt lat="48.49319" lon="2.18366">
        <ele>105.2</ele>
        <time>2026-02-02T13:18:06Z</time>
      </trkpt>
      <trkpt lat="48.49317" lon="2.18356">
        <ele>105.2</ele>
        <time>2026-02-02T13:18:07Z</time>
      </trkpt>
      <trkpt lat="48.49316" lon="2.18346">
        <ele>105.4</ele>
        <time>2026-02-02T13:18:08Z</time>
      </trkpt>
      <trkpt lat="48.49315" lon="2.18335">
        <ele>105.8</ele>
        <time>2026-02-02T13:18:09Z</time>
      </trkpt>
      <trkpt lat="48.49313" lon="2.18325">
        <ele>105.8</ele>
        <time>2026-02-02T13:18:10Z</time>
      </trkpt>
      <trkpt lat="48.49312" lon="2.18314">
        <ele>105.8</ele>
        <time>2026-02-02T13:18:11Z</time>
      </trkpt>
      <trkpt lat="48.49311" lon="2.18303">
        <ele>105.6</ele>
        <time>2026-02-02T13:18:12Z</time>
      </trkpt>
      <trkpt lat="48.49309" lon="2.18293">
        <ele>105.4</ele>
        <time>2026-02-02T13:18:13Z</time>
      </trkpt>
      <trkpt lat="48.49307" lon="2.18282">
        <ele>105.4</ele>
        <time>2026-02-02T13:18:14Z</time>
      </trkpt>
      <trkpt lat="48.49306" lon="2.18272">
        <ele>105.4</ele>
        <time>2026-02-02T13:18:15Z</time>
      </trkpt>
      <trkpt lat="48.49304" lon="2.18262">
        <ele>105.4</ele>
        <time>2026-02-02T13:18:16Z</time>
      </trkpt>
      <trkpt lat="48.49302" lon="2.18251">
        <ele>104.8</ele>
        <time>2026-02-02T13:18:17Z</time>
      </trkpt>
      <trkpt lat="48.493" lon="2.18241">
        <ele>104.8</ele>
        <time>2026-02-02T13:18:18Z</time>
      </trkpt>
      <trkpt lat="48.49299" lon="2.18231">
        <ele>104.8</ele>
        <time>2026-02-02T13:18:19Z</time>
      </trkpt>
      <trkpt lat="48.49297" lon="2.18221">
        <ele>105.4</ele>
        <time>2026-02-02T13:18:20Z</time>
      </trkpt>
      <trkpt lat="48.49295" lon="2.18211">
        <ele>105</ele>
        <time>2026-02-02T13:18:21Z</time>
      </trkpt>
      <trkpt lat="48.49294" lon="2.18201">
        <ele>105</ele>
        <time>2026-02-02T13:18:22Z</time>
      </trkpt>
      <trkpt lat="48.49292" lon="2.18191">
        <ele>105</ele>
        <time>2026-02-02T13:18:23Z</time>
      </trkpt>
      <trkpt lat="48.4929" lon="2.18181">
        <ele>105.2</ele>
        <time>2026-02-02T13:18:24Z</time>
      </trkpt>
      <trkpt lat="48.49289" lon="2.18172">
        <ele>105.8</ele>
        <time>2026-02-02T13:18:25Z</time>
      </trkpt>
      <trkpt lat="48.49287" lon="2.18162">
        <ele>105.8</ele>
        <time>2026-02-02T13:18:26Z</time>
      </trkpt>
      <trkpt lat="48.49285" lon="2.18153">
        <ele>105.8</ele>
        <time>2026-02-02T13:18:27Z</time>
      </trkpt>
      <trkpt lat="48.49284" lon="2.18144">
        <ele>105.8</ele>
        <time>2026-02-02T13:18:28Z</time>
      </trkpt>
      <trkpt lat="48.49282" lon="2.18135">
        <ele>106</ele>
        <time>2026-02-02T13:18:29Z</time>
      </trkpt>
      <trkpt lat="48.49281" lon="2.18127">
        <ele>106</ele>
        <time>2026-02-02T13:18:30Z</time>
      </trkpt>
      <trkpt lat="48.49279" lon="2.18118">
        <ele>106</ele>
        <time>2026-02-02T13:18:31Z</time>
      </trkpt>
      <trkpt lat="48.49278" lon="2.1811">
        <ele>106.4</ele>
        <time>2026-02-02T13:18:32Z</time>
      </trkpt>
      <trkpt lat="48.49277" lon="2.18102">
        <ele>106.4</ele>
        <time>2026-02-02T13:18:33Z</time>
      </trkpt>
      <trkpt lat="48.49275" lon="2.18095">
        <ele>106.4</ele>
        <time>2026-02-02T13:18:34Z</time>
      </trkpt>
      <trkpt lat="48.49274" lon="2.18087">
        <ele>106.4</ele>
        <time>2026-02-02T13:18:35Z</time>
      </trkpt>
      <trkpt lat="48.49273" lon="2.18079">
        <ele>107</ele>
        <time>2026-02-02T13:18:36Z</time>
      </trkpt>
      <trkpt lat="48.49273" lon="2.18072">
        <ele>106.8</ele>
        <time>2026-02-02T13:18:37Z</time>
      </trkpt>
      <trkpt lat="48.49272" lon="2.18064">
        <ele>106.8</ele>
        <time>2026-02-02T13:18:38Z</time>
      </trkpt>
      <trkpt lat="48.49272" lon="2.18057">
        <ele>106.8</ele>
        <time>2026-02-02T13:18:39Z</time>
      </trkpt>
      <trkpt lat="48.49272" lon="2.18049">
        <ele>106.8</ele>
        <time>2026-02-02T13:18:40Z</time>
      </trkpt>
      <trkpt lat="48.49272" lon="2.18042">
        <ele>107.4</ele>
        <time>2026-02-02T13:18:41Z</time>
      </trkpt>
      <trkpt lat="48.49272" lon="2.18035">
        <ele>107.4</ele>
        <time>2026-02-02T13:18:42Z</time>
      </trkpt>
      <trkpt lat="48.49272" lon="2.18028">
        <ele>107.4</ele>
        <time>2026-02-02T13:18:43Z</time>
      </trkpt>
      <trkpt lat="48.49272" lon="2.1802">
        <ele>107.4</ele>
        <time>2026-02-02T13:18:44Z</time>
      </trkpt>
      <trkpt lat="48.49272" lon="2.18014">
        <ele>108.4</ele>
        <time>2026-02-02T13:18:45Z</time>
      </trkpt>
      <trkpt lat="48.49272" lon="2.18007">
        <ele>108.4</ele>
        <time>2026-02-02T13:18:46Z</time>
      </trkpt>
      <trkpt lat="48.49273" lon="2.18">
        <ele>108.4</ele>
        <time>2026-02-02T13:18:47Z</time>
      </trkpt>
      <trkpt lat="48.49274" lon="2.17994">
        <ele>108.4</ele>
        <time>2026-02-02T13:18:48Z</time>
      </trkpt>
      <trkpt lat="48.49275" lon="2.17988">
        <ele>108.6</ele>
        <time>2026-02-02T13:18:49Z</time>
      </trkpt>
      <trkpt lat="48.49276" lon="2.17982">
        <ele>108.6</ele>
        <time>2026-02-02T13:18:50Z</time>
      </trkpt>
      <trkpt lat="48.49278" lon="2.17976">
        <ele>108.6</ele>
        <time>2026-02-02T13:18:51Z</time>
      </trkpt>
      <trkpt lat="48.49278" lon="2.17969">
        <ele>109</ele>
        <time>2026-02-02T13:18:52Z</time>
      </trkpt>
      <trkpt lat="48.49278" lon="2.17963">
        <ele>109.8</ele>
        <time>2026-02-02T13:18:53Z</time>
      </trkpt>
      <trkpt lat="48.49279" lon="2.17956">
        <ele>109.8</ele>
        <time>2026-02-02T13:18:54Z</time>
      </trkpt>
      <trkpt lat="48.49279" lon="2.1795">
        <ele>109.8</ele>
        <time>2026-02-02T13:18:55Z</time>
      </trkpt>
      <trkpt lat="48.4928" lon="2.17944">
        <ele>109.8</ele>
        <time>2026-02-02T13:18:56Z</time>
      </trkpt>
      <trkpt lat="48.4928" lon="2.17937">
        <ele>109.8</ele>
        <time>2026-02-02T13:18:57Z</time>
      </trkpt>
      <trkpt lat="48.49281" lon="2.17931">
        <ele>109.8</ele>
        <time>2026-02-02T13:18:58Z</time>
      </trkpt>
      <trkpt lat="48.49282" lon="2.17925">
        <ele>109.8</ele>
        <time>2026-02-02T13:18:59Z</time>
      </trkpt>
      <trkpt lat="48.49282" lon="2.17919">
        <ele>110.4</ele>
        <time>2026-02-02T13:19:00Z</time>
      </trkpt>
      <trkpt lat="48.49283" lon="2.17913">
        <ele>110.4</ele>
        <time>2026-02-02T13:19:01Z</time>
      </trkpt>
      <trkpt lat="48.49283" lon="2.17907">
        <ele>110.4</ele>
        <time>2026-02-02T13:19:02Z</time>
      </trkpt>
      <trkpt lat="48.49284" lon="2.17901">
        <ele>110.4</ele>
        <time>2026-02-02T13:19:03Z</time>
      </trkpt>
      <trkpt lat="48.49285" lon="2.17895">
        <ele>110.6</ele>
        <time>2026-02-02T13:19:04Z</time>
      </trkpt>
      <trkpt lat="48.49285" lon="2.1789">
        <ele>111.2</ele>
        <time>2026-02-02T13:19:05Z</time>
      </trkpt>
      <trkpt lat="48.49286" lon="2.17884">
        <ele>111.2</ele>
        <time>2026-02-02T13:19:06Z</time>
      </trkpt>
      <trkpt lat="48.49286" lon="2.17878">
        <ele>111.2</ele>
        <time>2026-02-02T13:19:07Z</time>
      </trkpt>
      <trkpt lat="48.49287" lon="2.17872">
        <ele>111.4</ele>
        <time>2026-02-02T13:19:08Z</time>
      </trkpt>
      <trkpt lat="48.49287" lon="2.17867">
        <ele>111.8</ele>
        <time>2026-02-02T13:19:09Z</time>
      </trkpt>
      <trkpt lat="48.49288" lon="2.17861">
        <ele>111.8</ele>
        <time>2026-02-02T13:19:10Z</time>
      </trkpt>
      <trkpt lat="48.49289" lon="2.17857">
        <ele>111.8</ele>
        <time>2026-02-02T13:19:11Z</time>
      </trkpt>
      <trkpt lat="48.49289" lon="2.17852">
        <ele>111.8</ele>
        <time>2026-02-02T13:19:12Z</time>
      </trkpt>
      <trkpt lat="48.4929" lon="2.17848">
        <ele>112.4</ele>
        <time>2026-02-02T13:19:13Z</time>
      </trkpt>
      <trkpt lat="48.49291" lon="2.17844">
        <ele>112.4</ele>
        <time>2026-02-02T13:19:14Z</time>
      </trkpt>
      <trkpt lat="48.49291" lon="2.17843">
        <ele>112.4</ele>
        <time>2026-02-02T13:19:15Z</time>
      </trkpt>
      <trkpt lat="48.49291" lon="2.17843">
        <ele>112.4</ele>
        <time>2026-02-02T13:19:16Z</time>
      </trkpt>
      <trkpt lat="48.49291" lon="2.17843">
        <ele>112.4</ele>
        <time>2026-02-02T13:19:17Z</time>
      </trkpt>
      <trkpt lat="48.4929" lon="2.17835">
        <ele>112.2</ele>
        <time>2026-02-02T13:19:47Z</time>
      </trkpt>
      <trkpt lat="48.49291" lon="2.17831">
        <ele>112.2</ele>
        <time>2026-02-02T13:19:48Z</time>
      </trkpt>
      <trkpt lat="48.49291" lon="2.17826">
        <ele>112.6</ele>
        <time>2026-02-02T13:19:49Z</time>
      </trkpt>
      <trkpt lat="48.49292" lon="2.17822">
        <ele>112.6</ele>
        <time>2026-02-02T13:19:50Z</time>
      </trkpt>
      <trkpt lat="48.49293" lon="2.17817">
        <ele>112.6</ele>
        <time>2026-02-02T13:19:51Z</time>
      </trkpt>
      <trkpt lat="48.49293" lon="2.17812">
        <ele>113</ele>
        <time>2026-02-02T13:19:52Z</time>
      </trkpt>
      <trkpt lat="48.49294" lon="2.17807">
        <ele>112.8</ele>
        <time>2026-02-02T13:19:53Z</time>
      </trkpt>
      <trkpt lat="48.49294" lon="2.17802">
        <ele>112.8</ele>
        <time>2026-02-02T13:19:54Z</time>
      </trkpt>
      <trkpt lat="48.49295" lon="2.17797">
        <ele>112.8</ele>
        <time>2026-02-02T13:19:55Z</time>
      </trkpt>
      <trkpt lat="48.49295" lon="2.17791">
        <ele>113.2</ele>
        <time>2026-02-02T13:19:56Z</time>
      </trkpt>
      <trkpt lat="48.49296" lon="2.17786">
        <ele>113.6</ele>
        <time>2026-02-02T13:19:57Z</time>
      </trkpt>
      <trkpt lat="48.49296" lon="2.17782">
        <ele>113.6</ele>
        <time>2026-02-02T13:19:58Z</time>
      </trkpt>
      <trkpt lat="48.49297" lon="2.17777">
        <ele>113.6</ele>
        <time>2026-02-02T13:19:59Z</time>
      </trkpt>
      <trkpt lat="48.49298" lon="2.17772">
        <ele>113.6</ele>
        <time>2026-02-02T13:20:00Z</time>
      </trkpt>
      <trkpt lat="48.49298" lon="2.17768">
        <ele>114.4</ele>
        <time>2026-02-02T13:20:01Z</time>
      </trkpt>
      <trkpt lat="48.49298" lon="2.17763">
        <ele>114.4</ele>
        <time>2026-02-02T13:20:02Z</time>
      </trkpt>
      <trkpt lat="48.49299" lon="2.17759">
        <ele>114.4</ele>
        <time>2026-02-02T13:20:03Z</time>
      </trkpt>
      <trkpt lat="48.49299" lon="2.17754">
        <ele>114.4</ele>
        <time>2026-02-02T13:20:04Z</time>
      </trkpt>
      <trkpt lat="48.493" lon="2.1775">
        <ele>115.2</ele>
        <time>2026-02-02T13:20:05Z</time>
      </trkpt>
      <trkpt lat="48.493" lon="2.17745">
        <ele>115.2</ele>
        <time>2026-02-02T13:20:06Z</time>
      </trkpt>
      <trkpt lat="48.49301" lon="2.1774">
        <ele>115.2</ele>
        <time>2026-02-02T13:20:07Z</time>
      </trkpt>
      <trkpt lat="48.49302" lon="2.17736">
        <ele>115.2</ele>
        <time>2026-02-02T13:20:08Z</time>
      </trkpt>
      <trkpt lat="48.49303" lon="2.17731">
        <ele>115.8</ele>
        <time>2026-02-02T13:20:09Z</time>
      </trkpt>
      <trkpt lat="48.49303" lon="2.17726">
        <ele>115.8</ele>
        <time>2026-02-02T13:20:10Z</time>
      </trkpt>
      <trkpt lat="48.49303" lon="2.17722">
        <ele>115.8</ele>
        <time>2026-02-02T13:20:11Z</time>
      </trkpt>
      <trkpt lat="48.49303" lon="2.17717">
        <ele>115.8</ele>
        <time>2026-02-02T13:20:12Z</time>
      </trkpt>
      <trkpt lat="48.49304" lon="2.17712">
        <ele>116.4</ele>
        <time>2026-02-02T13:20:13Z</time>
      </trkpt>
      <trkpt lat="48.49304" lon="2.17708">
        <ele>116.4</ele>
        <time>2026-02-02T13:20:14Z</time>
      </trkpt>
      <trkpt lat="48.49305" lon="2.17703">
        <ele>116.4</ele>
        <time>2026-02-02T13:20:15Z</time>
      </trkpt>
      <trkpt lat="48.49305" lon="2.17699">
        <ele>117.2</ele>
        <time>2026-02-02T13:20:16Z</time>
      </trkpt>
      <trkpt lat="48.49305" lon="2.17694">
        <ele>117</ele>
        <time>2026-02-02T13:20:17Z</time>
      </trkpt>
      <trkpt lat="48.49306" lon="2.1769">
        <ele>117</ele>
        <time>2026-02-02T13:20:18Z</time>
      </trkpt>
      <trkpt lat="48.49306" lon="2.17685">
        <ele>117</ele>
        <time>2026-02-02T13:20:19Z</time>
      </trkpt>
      <trkpt lat="48.49306" lon="2.17681">
        <ele>117.8</ele>
        <time>2026-02-02T13:20:20Z</time>
      </trkpt>
      <trkpt lat="48.49306" lon="2.17676">
        <ele>117.8</ele>
        <time>2026-02-02T13:20:21Z</time>
      </trkpt>
      <trkpt lat="48.49307" lon="2.17672">
        <ele>117.8</ele>
        <time>2026-02-02T13:20:22Z</time>
      </trkpt>
      <trkpt lat="48.49307" lon="2.17667">
        <ele>117.8</ele>
        <time>2026-02-02T13:20:23Z</time>
      </trkpt>
      <trkpt lat="48.49307" lon="2.17663">
        <ele>117.8</ele>
        <time>2026-02-02T13:20:24Z</time>
      </trkpt>
      <trkpt lat="48.49307" lon="2.17659">
        <ele>118.4</ele>
        <time>2026-02-02T13:20:25Z</time>
      </trkpt>
      <trkpt lat="48.49308" lon="2.17654">
        <ele>118.4</ele>
        <time>2026-02-02T13:20:26Z</time>
      </trkpt>
      <trkpt lat="48.49308" lon="2.1765">
        <ele>118.4</ele>
        <time>2026-02-02T13:20:27Z</time>
      </trkpt>
      <trkpt lat="48.49308" lon="2.17646">
        <ele>118.4</ele>
        <time>2026-02-02T13:20:28Z</time>
      </trkpt>
      <trkpt lat="48.49309" lon="2.17642">
        <ele>118.8</ele>
        <time>2026-02-02T13:20:29Z</time>
      </trkpt>
      <trkpt lat="48.49309" lon="2.17637">
        <ele>118.8</ele>
        <time>2026-02-02T13:20:30Z</time>
      </trkpt>
      <trkpt lat="48.49309" lon="2.17633">
        <ele>118.8</ele>
        <time>2026-02-02T13:20:31Z</time>
      </trkpt>
      <trkpt lat="48.49309" lon="2.17629">
        <ele>119.4</ele>
        <time>2026-02-02T13:20:32Z</time>
      </trkpt>
      <trkpt lat="48.49309" lon="2.17624">
        <ele>119.4</ele>
        <time>2026-02-02T13:20:33Z</time>
      </trkpt>
      <trkpt lat="48.49309" lon="2.1762">
        <ele>119.4</ele>
        <time>2026-02-02T13:20:34Z</time>
      </trkpt>
      <trkpt lat="48.49309" lon="2.17616">
        <ele>119.4</ele>
        <time>2026-02-02T13:20:35Z</time>
      </trkpt>
      <trkpt lat="48.49309" lon="2.17612">
        <ele>120.4</ele>
        <time>2026-02-02T13:20:36Z</time>
      </trkpt>
      <trkpt lat="48.4931" lon="2.17607">
        <ele>120</ele>
        <time>2026-02-02T13:20:37Z</time>
      </trkpt>
      <trkpt lat="48.4931" lon="2.17603">
        <ele>120</ele>
        <time>2026-02-02T13:20:38Z</time>
      </trkpt>
      <trkpt lat="48.49311" lon="2.17599">
        <ele>120</ele>
        <time>2026-02-02T13:20:39Z</time>
      </trkpt>
      <trkpt lat="48.49311" lon="2.17595">
        <ele>120.8</ele>
        <time>2026-02-02T13:20:40Z</time>
      </trkpt>
      <trkpt lat="48.49311" lon="2.17591">
        <ele>121.2</ele>
        <time>2026-02-02T13:20:41Z</time>
      </trkpt>
      <trkpt lat="48.49311" lon="2.17587">
        <ele>121.2</ele>
        <time>2026-02-02T13:20:42Z</time>
      </trkpt>
      <trkpt lat="48.49311" lon="2.17582">
        <ele>121.2</ele>
        <time>2026-02-02T13:20:43Z</time>
      </trkpt>
      <trkpt lat="48.49312" lon="2.17578">
        <ele>121.2</ele>
        <time>2026-02-02T13:20:44Z</time>
      </trkpt>
      <trkpt lat="48.49312" lon="2.17574">
        <ele>121.6</ele>
        <time>2026-02-02T13:20:45Z</time>
      </trkpt>
      <trkpt lat="48.49313" lon="2.1757">
        <ele>121.6</ele>
        <time>2026-02-02T13:20:46Z</time>
      </trkpt>
      <trkpt lat="48.49313" lon="2.17565">
        <ele>121.6</ele>
        <time>2026-02-02T13:20:47Z</time>
      </trkpt>
      <trkpt lat="48.49313" lon="2.17561">
        <ele>122.2</ele>
        <time>2026-02-02T13:20:48Z</time>
      </trkpt>
      <trkpt lat="48.49314" lon="2.17557">
        <ele>122.2</ele>
        <time>2026-02-02T13:20:49Z</time>
      </trkpt>
      <trkpt lat="48.49314" lon="2.17553">
        <ele>122.2</ele>
        <time>2026-02-02T13:20:50Z</time>
      </trkpt>
      <trkpt lat="48.49314" lon="2.17548">
        <ele>122.2</ele>
        <time>2026-02-02T13:20:51Z</time>
      </trkpt>
      <trkpt lat="48.49314" lon="2.17544">
        <ele>122.8</ele>
        <time>2026-02-02T13:20:52Z</time>
      </trkpt>
      <trkpt lat="48.49314" lon="2.1754">
        <ele>123.2</ele>
        <time>2026-02-02T13:20:53Z</time>
      </trkpt>
      <trkpt lat="48.49315" lon="2.17536">
        <ele>123.2</ele>
        <time>2026-02-02T13:20:54Z</time>
      </trkpt>
      <trkpt lat="48.49315" lon="2.17532">
        <ele>123.2</ele>
        <time>2026-02-02T13:20:55Z</time>
      </trkpt>
      <trkpt lat="48.49315" lon="2.17528">
        <ele>123.6</ele>
        <time>2026-02-02T13:20:56Z</time>
      </trkpt>
      <trkpt lat="48.49316" lon="2.17524">
        <ele>124</ele>
        <time>2026-02-02T13:20:57Z</time>
      </trkpt>
      <trkpt lat="48.49316" lon="2.1752">
        <ele>124</ele>
        <time>2026-02-02T13:20:58Z</time>
      </trkpt>
      <trkpt lat="48.49316" lon="2.17516">
        <ele>124</ele>
        <time>2026-02-02T13:20:59Z</time>
      </trkpt>
      <trkpt lat="48.49316" lon="2.17512">
        <ele>124.6</ele>
        <time>2026-02-02T13:21:00Z</time>
      </trkpt>
      <trkpt lat="48.49316" lon="2.17508">
        <ele>124.8</ele>
        <time>2026-02-02T13:21:01Z</time>
      </trkpt>
      <trkpt lat="48.49316" lon="2.17503">
        <ele>124.8</ele>
        <time>2026-02-02T13:21:02Z</time>
      </trkpt>
      <trkpt lat="48.49317" lon="2.17499">
        <ele>124.8</ele>
        <time>2026-02-02T13:21:03Z</time>
      </trkpt>
      <trkpt lat="48.49317" lon="2.17495">
        <ele>125.4</ele>
        <time>2026-02-02T13:21:04Z</time>
      </trkpt>
      <trkpt lat="48.49317" lon="2.17491">
        <ele>125.4</ele>
        <time>2026-02-02T13:21:05Z</time>
      </trkpt>
      <trkpt lat="48.49317" lon="2.17487">
        <ele>125.4</ele>
        <time>2026-02-02T13:21:06Z</time>
      </trkpt>
      <trkpt lat="48.49318" lon="2.17483">
        <ele>125.4</ele>
        <time>2026-02-02T13:21:07Z</time>
      </trkpt>
      <trkpt lat="48.49318" lon="2.17479">
        <ele>125.8</ele>
        <time>2026-02-02T13:21:08Z</time>
      </trkpt>
      <trkpt lat="48.49318" lon="2.17475">
        <ele>126</ele>
        <time>2026-02-02T13:21:09Z</time>
      </trkpt>
      <trkpt lat="48.49319" lon="2.17471">
        <ele>126</ele>
        <time>2026-02-02T13:21:10Z</time>
      </trkpt>
      <trkpt lat="48.49319" lon="2.17468">
        <ele>126</ele>
        <time>2026-02-02T13:21:11Z</time>
      </trkpt>
      <trkpt lat="48.49319" lon="2.17464">
        <ele>126.8</ele>
        <time>2026-02-02T13:21:12Z</time>
      </trkpt>
      <trkpt lat="48.49319" lon="2.1746">
        <ele>126.8</ele>
        <time>2026-02-02T13:21:13Z</time>
      </trkpt>
      <trkpt lat="48.4932" lon="2.17456">
        <ele>126.8</ele>
        <time>2026-02-02T13:21:14Z</time>
      </trkpt>
      <trkpt lat="48.4932" lon="2.17453">
        <ele>126.8</ele>
        <time>2026-02-02T13:21:15Z</time>
      </trkpt>
      <trkpt lat="48.4932" lon="2.17449">
        <ele>127.4</ele>
        <time>2026-02-02T13:21:16Z</time>
      </trkpt>
      <trkpt lat="48.4932" lon="2.17445">
        <ele>127.4</ele>
        <time>2026-02-02T13:21:17Z</time>
      </trkpt>
      <trkpt lat="48.4932" lon="2.17442">
        <ele>127.4</ele>
        <time>2026-02-02T13:21:18Z</time>
      </trkpt>
      <trkpt lat="48.49321" lon="2.17438">
        <ele>127.4</ele>
        <time>2026-02-02T13:21:19Z</time>
      </trkpt>
      <trkpt lat="48.49321" lon="2.17434">
        <ele>128</ele>
        <time>2026-02-02T13:21:20Z</time>
      </trkpt>
      <trkpt lat="48.49321" lon="2.17431">
        <ele>128</ele>
        <time>2026-02-02T13:21:21Z</time>
      </trkpt>
      <trkpt lat="48.49321" lon="2.17427">
        <ele>128</ele>
        <time>2026-02-02T13:21:22Z</time>
      </trkpt>
      <trkpt lat="48.49321" lon="2.17424">
        <ele>128</ele>
        <time>2026-02-02T13:21:23Z</time>
      </trkpt>
      <trkpt lat="48.49321" lon="2.1742">
        <ele>128.8</ele>
        <time>2026-02-02T13:21:24Z</time>
      </trkpt>
      <trkpt lat="48.49321" lon="2.17416">
        <ele>128.8</ele>
        <time>2026-02-02T13:21:25Z</time>
      </trkpt>
      <trkpt lat="48.49321" lon="2.17413">
        <ele>128.8</ele>
        <time>2026-02-02T13:21:26Z</time>
      </trkpt>
      <trkpt lat="48.49321" lon="2.17409">
        <ele>128.8</ele>
        <time>2026-02-02T13:21:27Z</time>
      </trkpt>
      <trkpt lat="48.49322" lon="2.17405">
        <ele>129.4</ele>
        <time>2026-02-02T13:21:28Z</time>
      </trkpt>
      <trkpt lat="48.49322" lon="2.17402">
        <ele>129.6</ele>
        <time>2026-02-02T13:21:29Z</time>
      </trkpt>
      <trkpt lat="48.49322" lon="2.17399">
        <ele>129.6</ele>
        <time>2026-02-02T13:21:30Z</time>
      </trkpt>
      <trkpt lat="48.49322" lon="2.17395">
        <ele>129.6</ele>
        <time>2026-02-02T13:21:31Z</time>
      </trkpt>
      <trkpt lat="48.49322" lon="2.17391">
        <ele>130.4</ele>
        <time>2026-02-02T13:21:32Z</time>
      </trkpt>
      <trkpt lat="48.49323" lon="2.17388">
        <ele>130.6</ele>
        <time>2026-02-02T13:21:33Z</time>
      </trkpt>
      <trkpt lat="48.49323" lon="2.17384">
        <ele>130.6</ele>
        <time>2026-02-02T13:21:34Z</time>
      </trkpt>
      <trkpt lat="48.49323" lon="2.17381">
        <ele>130.6</ele>
        <time>2026-02-02T13:21:35Z</time>
      </trkpt>
      <trkpt lat="48.49323" lon="2.17378">
        <ele>131.2</ele>
        <time>2026-02-02T13:21:36Z</time>
      </trkpt>
      <trkpt lat="48.49323" lon="2.17374">
        <ele>131.6</ele>
        <time>2026-02-02T13:21:37Z</time>
      </trkpt>
      <trkpt lat="48.49324" lon="2.17371">
        <ele>131.6</ele>
        <time>2026-02-02T13:21:38Z</time>
      </trkpt>
      <trkpt lat="48.49324" lon="2.17367">
        <ele>131.6</ele>
        <time>2026-02-02T13:21:39Z</time>
      </trkpt>
      <trkpt lat="48.49324" lon="2.17363">
        <ele>131.6</ele>
        <time>2026-02-02T13:21:40Z</time>
      </trkpt>
      <trkpt lat="48.49324" lon="2.17359">
        <ele>132.4</ele>
        <time>2026-02-02T13:21:41Z</time>
      </trkpt>
      <trkpt lat="48.49324" lon="2.17355">
        <ele>132.4</ele>
        <time>2026-02-02T13:21:42Z</time>
      </trkpt>
      <trkpt lat="48.49324" lon="2.17352">
        <ele>132.4</ele>
        <time>2026-02-02T13:21:43Z</time>
      </trkpt>
      <trkpt lat="48.49323" lon="2.17348">
        <ele>132.4</ele>
        <time>2026-02-02T13:21:44Z</time>
      </trkpt>
      <trkpt lat="48.49323" lon="2.17344">
        <ele>132.8</ele>
        <time>2026-02-02T13:21:45Z</time>
      </trkpt>
      <trkpt lat="48.49323" lon="2.17341">
        <ele>132.8</ele>
        <time>2026-02-02T13:21:46Z</time>
      </trkpt>
      <trkpt lat="48.49323" lon="2.17337">
        <ele>132.8</ele>
        <time>2026-02-02T13:21:47Z</time>
      </trkpt>
      <trkpt lat="48.49324" lon="2.17333">
        <ele>133.2</ele>
        <time>2026-02-02T13:21:48Z</time>
      </trkpt>
      <trkpt lat="48.49324" lon="2.1733">
        <ele>134</ele>
        <time>2026-02-02T13:21:49Z</time>
      </trkpt>
      <trkpt lat="48.49323" lon="2.17326">
        <ele>134</ele>
        <time>2026-02-02T13:21:50Z</time>
      </trkpt>
      <trkpt lat="48.49323" lon="2.17323">
        <ele>134</ele>
        <time>2026-02-02T13:21:51Z</time>
      </trkpt>
      <trkpt lat="48.49323" lon="2.17319">
        <ele>134</ele>
        <time>2026-02-02T13:21:52Z</time>
      </trkpt>
      <trkpt lat="48.49323" lon="2.17315">
        <ele>134.4</ele>
        <time>2026-02-02T13:21:53Z</time>
      </trkpt>
      <trkpt lat="48.49323" lon="2.17311">
        <ele>134.4</ele>
        <time>2026-02-02T13:21:54Z</time>
      </trkpt>
      <trkpt lat="48.49322" lon="2.17308">
        <ele>134.4</ele>
        <time>2026-02-02T13:21:55Z</time>
      </trkpt>
      <trkpt lat="48.49322" lon="2.17304">
        <ele>135</ele>
        <time>2026-02-02T13:21:56Z</time>
      </trkpt>
      <trkpt lat="48.49322" lon="2.173">
        <ele>135.2</ele>
        <time>2026-02-02T13:21:57Z</time>
      </trkpt>
      <trkpt lat="48.49322" lon="2.17297">
        <ele>135.2</ele>
        <time>2026-02-02T13:21:58Z</time>
      </trkpt>
      <trkpt lat="48.49322" lon="2.17293">
        <ele>135.2</ele>
        <time>2026-02-02T13:21:59Z</time>
      </trkpt>
      <trkpt lat="48.49321" lon="2.1729">
        <ele>135.8</ele>
        <time>2026-02-02T13:22:00Z</time>
      </trkpt>
      <trkpt lat="48.49321" lon="2.17286">
        <ele>136</ele>
        <time>2026-02-02T13:22:01Z</time>
      </trkpt>
      <trkpt lat="48.4932" lon="2.17283">
        <ele>136</ele>
        <time>2026-02-02T13:22:02Z</time>
      </trkpt>
      <trkpt lat="48.4932" lon="2.17279">
        <ele>136</ele>
        <time>2026-02-02T13:22:03Z</time>
      </trkpt>
      <trkpt lat="48.49319" lon="2.17276">
        <ele>136.2</ele>
        <time>2026-02-02T13:22:04Z</time>
      </trkpt>
      <trkpt lat="48.49319" lon="2.17272">
        <ele>137</ele>
        <time>2026-02-02T13:22:05Z</time>
      </trkpt>
      <trkpt lat="48.49318" lon="2.17268">
        <ele>137</ele>
        <time>2026-02-02T13:22:06Z</time>
      </trkpt>
      <trkpt lat="48.49318" lon="2.17264">
        <ele>137</ele>
        <time>2026-02-02T13:22:07Z</time>
      </trkpt>
      <trkpt lat="48.49317" lon="2.17261">
        <ele>137</ele>
        <time>2026-02-02T13:22:08Z</time>
      </trkpt>
      <trkpt lat="48.49317" lon="2.17257">
        <ele>137.8</ele>
        <time>2026-02-02T13:22:09Z</time>
      </trkpt>
      <trkpt lat="48.49316" lon="2.17254">
        <ele>137.8</ele>
        <time>2026-02-02T13:22:10Z</time>
      </trkpt>
      <trkpt lat="48.49315" lon="2.1725">
        <ele>137.8</ele>
        <time>2026-02-02T13:22:11Z</time>
      </trkpt>
      <trkpt lat="48.49315" lon="2.17247">
        <ele>138.4</ele>
        <time>2026-02-02T13:22:12Z</time>
      </trkpt>
      <trkpt lat="48.49314" lon="2.17243">
        <ele>138.4</ele>
        <time>2026-02-02T13:22:13Z</time>
      </trkpt>
      <trkpt lat="48.49314" lon="2.17239">
        <ele>138.4</ele>
        <time>2026-02-02T13:22:14Z</time>
      </trkpt>
      <trkpt lat="48.49314" lon="2.17236">
        <ele>138.4</ele>
        <time>2026-02-02T13:22:15Z</time>
      </trkpt>
      <trkpt lat="48.49313" lon="2.17232">
        <ele>139.2</ele>
        <time>2026-02-02T13:22:16Z</time>
      </trkpt>
      <trkpt lat="48.49313" lon="2.17229">
        <ele>139.4</ele>
        <time>2026-02-02T13:22:17Z</time>
      </trkpt>
      <trkpt lat="48.49312" lon="2.17225">
        <ele>139.4</ele>
        <time>2026-02-02T13:22:18Z</time>
      </trkpt>
      <trkpt lat="48.49312" lon="2.17222">
        <ele>139.4</ele>
        <time>2026-02-02T13:22:19Z</time>
      </trkpt>
      <trkpt lat="48.49312" lon="2.17218">
        <ele>139.8</ele>
        <time>2026-02-02T13:22:20Z</time>
      </trkpt>
      <trkpt lat="48.49311" lon="2.17214">
        <ele>140.2</ele>
        <time>2026-02-02T13:22:21Z</time>
      </trkpt>
      <trkpt lat="48.49311" lon="2.17211">
        <ele>140.2</ele>
        <time>2026-02-02T13:22:22Z</time>
      </trkpt>
      <trkpt lat="48.49311" lon="2.17207">
        <ele>140.2</ele>
        <time>2026-02-02T13:22:23Z</time>
      </trkpt>
      <trkpt lat="48.4931" lon="2.17204">
        <ele>141</ele>
        <time>2026-02-02T13:22:24Z</time>
      </trkpt>
      <trkpt lat="48.4931" lon="2.172">
        <ele>141.2</ele>
        <time>2026-02-02T13:22:25Z</time>
      </trkpt>
      <trkpt lat="48.4931" lon="2.17196">
        <ele>141.2</ele>
        <time>2026-02-02T13:22:26Z</time>
      </trkpt>
      <trkpt lat="48.49309" lon="2.17193">
        <ele>141.2</ele>
        <time>2026-02-02T13:22:27Z</time>
      </trkpt>
      <trkpt lat="48.49309" lon="2.17189">
        <ele>141.2</ele>
        <time>2026-02-02T13:22:28Z</time>
      </trkpt>
      <trkpt lat="48.49308" lon="2.17186">
        <ele>141.8</ele>
        <time>2026-02-02T13:22:29Z</time>
      </trkpt>
      <trkpt lat="48.49308" lon="2.17182">
        <ele>141.8</ele>
        <time>2026-02-02T13:22:30Z</time>
      </trkpt>
      <trkpt lat="48.49307" lon="2.17179">
        <ele>141.8</ele>
        <time>2026-02-02T13:22:31Z</time>
      </trkpt>
      <trkpt lat="48.49307" lon="2.17175">
        <ele>142.6</ele>
        <time>2026-02-02T13:22:32Z</time>
      </trkpt>
      <trkpt lat="48.49306" lon="2.17172">
        <ele>142.8</ele>
        <time>2026-02-02T13:22:33Z</time>
      </trkpt>
      <trkpt lat="48.49305" lon="2.17168">
        <ele>142.8</ele>
        <time>2026-02-02T13:22:34Z</time>
      </trkpt>
      <trkpt lat="48.49305" lon="2.17164">
        <ele>142.8</ele>
        <time>2026-02-02T13:22:35Z</time>
      </trkpt>
      <trkpt lat="48.49304" lon="2.17161">
        <ele>143.2</ele>
        <time>2026-02-02T13:22:36Z</time>
      </trkpt>
      <trkpt lat="48.49304" lon="2.17157">
        <ele>143.2</ele>
        <time>2026-02-02T13:22:37Z</time>
      </trkpt>
      <trkpt lat="48.49303" lon="2.17154">
        <ele>143.2</ele>
        <time>2026-02-02T13:22:38Z</time>
      </trkpt>
      <trkpt lat="48.49303" lon="2.1715">
        <ele>143.2</ele>
        <time>2026-02-02T13:22:39Z</time>
      </trkpt>
      <trkpt lat="48.49302" lon="2.17147">
        <ele>144</ele>
        <time>2026-02-02T13:22:40Z</time>
      </trkpt>
      <trkpt lat="48.49301" lon="2.17143">
        <ele>144</ele>
        <time>2026-02-02T13:22:41Z</time>
      </trkpt>
      <trkpt lat="48.49301" lon="2.17139">
        <ele>144</ele>
        <time>2026-02-02T13:22:42Z</time>
      </trkpt>
      <trkpt lat="48.49301" lon="2.17136">
        <ele>144</ele>
        <time>2026-02-02T13:22:43Z</time>
      </trkpt>
      <trkpt lat="48.49301" lon="2.17133">
        <ele>144.6</ele>
        <time>2026-02-02T13:22:44Z</time>
      </trkpt>
      <trkpt lat="48.49301" lon="2.17129">
        <ele>145</ele>
        <time>2026-02-02T13:22:45Z</time>
      </trkpt>
      <trkpt lat="48.493" lon="2.17126">
        <ele>145</ele>
        <time>2026-02-02T13:22:46Z</time>
      </trkpt>
      <trkpt lat="48.49299" lon="2.17122">
        <ele>145</ele>
        <time>2026-02-02T13:22:47Z</time>
      </trkpt>
      <trkpt lat="48.49299" lon="2.17119">
        <ele>145.6</ele>
        <time>2026-02-02T13:22:48Z</time>
      </trkpt>
      <trkpt lat="48.49298" lon="2.17115">
        <ele>145.8</ele>
        <time>2026-02-02T13:22:49Z</time>
      </trkpt>
      <trkpt lat="48.49298" lon="2.17112">
        <ele>145.8</ele>
        <time>2026-02-02T13:22:50Z</time>
      </trkpt>
      <trkpt lat="48.49297" lon="2.17108">
        <ele>145.8</ele>
        <time>2026-02-02T13:22:51Z</time>
      </trkpt>
      <trkpt lat="48.49297" lon="2.17105">
        <ele>146.4</ele>
        <time>2026-02-02T13:22:52Z</time>
      </trkpt>
      <trkpt lat="48.49296" lon="2.17101">
        <ele>146.8</ele>
        <time>2026-02-02T13:22:53Z</time>
      </trkpt>
      <trkpt lat="48.49296" lon="2.17098">
        <ele>146.8</ele>
        <time>2026-02-02T13:22:54Z</time>
      </trkpt>
      <trkpt lat="48.49296" lon="2.17094">
        <ele>146.8</ele>
        <time>2026-02-02T13:22:55Z</time>
      </trkpt>
      <trkpt lat="48.49295" lon="2.17091">
        <ele>146.8</ele>
        <time>2026-02-02T13:22:56Z</time>
      </trkpt>
      <trkpt lat="48.49295" lon="2.17087">
        <ele>147.4</ele>
        <time>2026-02-02T13:22:57Z</time>
      </trkpt>
      <trkpt lat="48.49294" lon="2.17084">
        <ele>147.4</ele>
        <time>2026-02-02T13:22:58Z</time>
      </trkpt>
      <trkpt lat="48.49294" lon="2.1708">
        <ele>147.4</ele>
        <time>2026-02-02T13:22:59Z</time>
      </trkpt>
      <trkpt lat="48.49294" lon="2.17077">
        <ele>148</ele>
        <time>2026-02-02T13:23:00Z</time>
      </trkpt>
      <trkpt lat="48.49293" lon="2.17073">
        <ele>148.4</ele>
        <time>2026-02-02T13:23:01Z</time>
      </trkpt>
      <trkpt lat="48.49293" lon="2.1707">
        <ele>148.4</ele>
        <time>2026-02-02T13:23:02Z</time>
      </trkpt>
      <trkpt lat="48.49292" lon="2.17066">
        <ele>148.4</ele>
        <time>2026-02-02T13:23:03Z</time>
      </trkpt>
      <trkpt lat="48.49292" lon="2.17063">
        <ele>149</ele>
        <time>2026-02-02T13:23:04Z</time>
      </trkpt>
      <trkpt lat="48.49291" lon="2.1706">
        <ele>149.4</ele>
        <time>2026-02-02T13:23:05Z</time>
      </trkpt>
      <trkpt lat="48.49291" lon="2.17056">
        <ele>149.4</ele>
        <time>2026-02-02T13:23:06Z</time>
      </trkpt>
      <trkpt lat="48.4929" lon="2.17053">
        <ele>149.4</ele>
        <time>2026-02-02T13:23:07Z</time>
      </trkpt>
      <trkpt lat="48.4929" lon="2.17049">
        <ele>149.6</ele>
        <time>2026-02-02T13:23:08Z</time>
      </trkpt>
      <trkpt lat="48.4929" lon="2.17046">
        <ele>149.8</ele>
        <time>2026-02-02T13:23:09Z</time>
      </trkpt>
      <trkpt lat="48.49289" lon="2.17042">
        <ele>149.8</ele>
        <time>2026-02-02T13:23:10Z</time>
      </trkpt>
      <trkpt lat="48.49289" lon="2.17039">
        <ele>149.8</ele>
        <time>2026-02-02T13:23:11Z</time>
      </trkpt>
      <trkpt lat="48.49289" lon="2.17035">
        <ele>150.4</ele>
        <time>2026-02-02T13:23:12Z</time>
      </trkpt>
      <trkpt lat="48.49288" lon="2.17031">
        <ele>150.4</ele>
        <time>2026-02-02T13:23:13Z</time>
      </trkpt>
      <trkpt lat="48.49288" lon="2.17028">
        <ele>150.4</ele>
        <time>2026-02-02T13:23:14Z</time>
      </trkpt>
      <trkpt lat="48.49288" lon="2.17024">
        <ele>150.4</ele>
        <time>2026-02-02T13:23:15Z</time>
      </trkpt>
      <trkpt lat="48.49287" lon="2.17021">
        <ele>150.4</ele>
        <time>2026-02-02T13:23:16Z</time>
      </trkpt>
      <trkpt lat="48.49287" lon="2.17017">
        <ele>150.6</ele>
        <time>2026-02-02T13:23:17Z</time>
      </trkpt>
      <trkpt lat="48.49286" lon="2.17013">
        <ele>150.6</ele>
        <time>2026-02-02T13:23:18Z</time>
      </trkpt>
      <trkpt lat="48.49286" lon="2.1701">
        <ele>150.6</ele>
        <time>2026-02-02T13:23:19Z</time>
      </trkpt>
      <trkpt lat="48.49286" lon="2.17006">
        <ele>151.2</ele>
        <time>2026-02-02T13:23:20Z</time>
      </trkpt>
      <trkpt lat="48.49285" lon="2.17002">
        <ele>151.6</ele>
        <time>2026-02-02T13:23:21Z</time>
      </trkpt>
      <trkpt lat="48.49284" lon="2.16999">
        <ele>151.6</ele>
        <time>2026-02-02T13:23:22Z</time>
      </trkpt>
      <trkpt lat="48.49284" lon="2.16995">
        <ele>151.6</ele>
        <time>2026-02-02T13:23:23Z</time>
      </trkpt>
      <trkpt lat="48.49283" lon="2.16992">
        <ele>151.6</ele>
        <time>2026-02-02T13:23:24Z</time>
      </trkpt>
      <trkpt lat="48.49283" lon="2.16988">
        <ele>152.2</ele>
        <time>2026-02-02T13:23:25Z</time>
      </trkpt>
      <trkpt lat="48.49282" lon="2.16985">
        <ele>152.2</ele>
        <time>2026-02-02T13:23:26Z</time>
      </trkpt>
      <trkpt lat="48.49282" lon="2.16981">
        <ele>152.2</ele>
        <time>2026-02-02T13:23:27Z</time>
      </trkpt>
      <trkpt lat="48.49282" lon="2.16977">
        <ele>152.2</ele>
        <time>2026-02-02T13:23:28Z</time>
      </trkpt>
      <trkpt lat="48.49281" lon="2.16974">
        <ele>152.8</ele>
        <time>2026-02-02T13:23:29Z</time>
      </trkpt>
      <trkpt lat="48.49281" lon="2.1697">
        <ele>152.8</ele>
        <time>2026-02-02T13:23:30Z</time>
      </trkpt>
      <trkpt lat="48.49281" lon="2.16966">
        <ele>152.8</ele>
        <time>2026-02-02T13:23:31Z</time>
      </trkpt>
      <trkpt lat="48.4928" lon="2.16963">
        <ele>152.8</ele>
        <time>2026-02-02T13:23:32Z</time>
      </trkpt>
      <trkpt lat="48.4928" lon="2.16959">
        <ele>153.2</ele>
        <time>2026-02-02T13:23:33Z</time>
      </trkpt>
      <trkpt lat="48.49279" lon="2.16956">
        <ele>153.2</ele>
        <time>2026-02-02T13:23:34Z</time>
      </trkpt>
      <trkpt lat="48.49278" lon="2.16952">
        <ele>153.2</ele>
        <time>2026-02-02T13:23:35Z</time>
      </trkpt>
      <trkpt lat="48.49278" lon="2.16949">
        <ele>153.2</ele>
        <time>2026-02-02T13:23:36Z</time>
      </trkpt>
      <trkpt lat="48.49278" lon="2.16945">
        <ele>154</ele>
        <time>2026-02-02T13:23:37Z</time>
      </trkpt>
      <trkpt lat="48.49277" lon="2.16941">
        <ele>154</ele>
        <time>2026-02-02T13:23:38Z</time>
      </trkpt>
      <trkpt lat="48.49277" lon="2.16938">
        <ele>154</ele>
        <time>2026-02-02T13:23:39Z</time>
      </trkpt>
      <trkpt lat="48.49276" lon="2.16934">
        <ele>154</ele>
        <time>2026-02-02T13:23:40Z</time>
      </trkpt>
      <trkpt lat="48.49275" lon="2.16931">
        <ele>154.6</ele>
        <time>2026-02-02T13:23:41Z</time>
      </trkpt>
      <trkpt lat="48.49275" lon="2.16927">
        <ele>154.6</ele>
        <time>2026-02-02T13:23:42Z</time>
      </trkpt>
      <trkpt lat="48.49274" lon="2.16924">
        <ele>154.6</ele>
        <time>2026-02-02T13:23:43Z</time>
      </trkpt>
      <trkpt lat="48.49273" lon="2.16921">
        <ele>155.2</ele>
        <time>2026-02-02T13:23:44Z</time>
      </trkpt>
      <trkpt lat="48.49273" lon="2.16917">
        <ele>155.2</ele>
        <time>2026-02-02T13:23:45Z</time>
      </trkpt>
      <trkpt lat="48.49272" lon="2.16914">
        <ele>155.2</ele>
        <time>2026-02-02T13:23:46Z</time>
      </trkpt>
      <trkpt lat="48.49272" lon="2.16911">
        <ele>155.2</ele>
        <time>2026-02-02T13:23:47Z</time>
      </trkpt>
      <trkpt lat="48.49271" lon="2.16907">
        <ele>155.2</ele>
        <time>2026-02-02T13:23:48Z</time>
      </trkpt>
      <trkpt lat="48.4927" lon="2.16904">
        <ele>156</ele>
        <time>2026-02-02T13:23:49Z</time>
      </trkpt>
      <trkpt lat="48.49269" lon="2.16901">
        <ele>156</ele>
        <time>2026-02-02T13:23:50Z</time>
      </trkpt>
      <trkpt lat="48.49268" lon="2.16897">
        <ele>156</ele>
        <time>2026-02-02T13:23:51Z</time>
      </trkpt>
      <trkpt lat="48.49268" lon="2.16894">
        <ele>156</ele>
        <time>2026-02-02T13:23:52Z</time>
      </trkpt>
      <trkpt lat="48.49267" lon="2.1689">
        <ele>156.6</ele>
        <time>2026-02-02T13:23:53Z</time>
      </trkpt>
      <trkpt lat="48.49267" lon="2.16886">
        <ele>156.6</ele>
        <time>2026-02-02T13:23:54Z</time>
      </trkpt>
      <trkpt lat="48.49266" lon="2.16883">
        <ele>156.6</ele>
        <time>2026-02-02T13:23:55Z</time>
      </trkpt>
      <trkpt lat="48.49266" lon="2.16879">
        <ele>157.6</ele>
        <time>2026-02-02T13:23:56Z</time>
      </trkpt>
      <trkpt lat="48.49265" lon="2.16875">
        <ele>157.6</ele>
        <time>2026-02-02T13:23:57Z</time>
      </trkpt>
      <trkpt lat="48.49265" lon="2.16871">
        <ele>157.6</ele>
        <time>2026-02-02T13:23:58Z</time>
      </trkpt>
      <trkpt lat="48.49265" lon="2.16867">
        <ele>157.6</ele>
        <time>2026-02-02T13:23:59Z</time>
      </trkpt>
      <trkpt lat="48.49265" lon="2.16863">
        <ele>157.6</ele>
        <time>2026-02-02T13:24:00Z</time>
      </trkpt>
      <trkpt lat="48.49265" lon="2.16859">
        <ele>158.4</ele>
        <time>2026-02-02T13:24:01Z</time>
      </trkpt>
      <trkpt lat="48.49265" lon="2.16855">
        <ele>158.4</ele>
        <time>2026-02-02T13:24:02Z</time>
      </trkpt>
      <trkpt lat="48.49265" lon="2.16852">
        <ele>158.4</ele>
        <time>2026-02-02T13:24:03Z</time>
      </trkpt>
      <trkpt lat="48.49265" lon="2.16848">
        <ele>159</ele>
        <time>2026-02-02T13:24:04Z</time>
      </trkpt>
      <trkpt lat="48.49266" lon="2.16844">
        <ele>159.4</ele>
        <time>2026-02-02T13:24:05Z</time>
      </trkpt>
      <trkpt lat="48.49266" lon="2.1684">
        <ele>159.4</ele>
        <time>2026-02-02T13:24:06Z</time>
      </trkpt>
      <trkpt lat="48.49267" lon="2.16836">
        <ele>159.4</ele>
        <time>2026-02-02T13:24:07Z</time>
      </trkpt>
      <trkpt lat="48.49267" lon="2.16832">
        <ele>159.8</ele>
        <time>2026-02-02T13:24:08Z</time>
      </trkpt>
      <trkpt lat="48.49268" lon="2.16828">
        <ele>160</ele>
        <time>2026-02-02T13:24:09Z</time>
      </trkpt>
      <trkpt lat="48.49268" lon="2.16824">
        <ele>160</ele>
        <time>2026-02-02T13:24:10Z</time>
      </trkpt>
      <trkpt lat="48.49269" lon="2.1682">
        <ele>160</ele>
        <time>2026-02-02T13:24:11Z</time>
      </trkpt>
      <trkpt lat="48.49269" lon="2.16816">
        <ele>160</ele>
        <time>2026-02-02T13:24:12Z</time>
      </trkpt>
      <trkpt lat="48.49269" lon="2.16812">
        <ele>160</ele>
        <time>2026-02-02T13:24:13Z</time>
      </trkpt>
      <trkpt lat="48.4927" lon="2.16807">
        <ele>160</ele>
        <time>2026-02-02T13:24:14Z</time>
      </trkpt>
      <trkpt lat="48.4927" lon="2.16803">
        <ele>160</ele>
        <time>2026-02-02T13:24:15Z</time>
      </trkpt>
      <trkpt lat="48.4927" lon="2.16799">
        <ele>160.8</ele>
        <time>2026-02-02T13:24:16Z</time>
      </trkpt>
      <trkpt lat="48.4927" lon="2.16794">
        <ele>161.2</ele>
        <time>2026-02-02T13:24:17Z</time>
      </trkpt>
      <trkpt lat="48.4927" lon="2.1679">
        <ele>161.2</ele>
        <time>2026-02-02T13:24:18Z</time>
      </trkpt>
      <trkpt lat="48.4927" lon="2.16785">
        <ele>161.2</ele>
        <time>2026-02-02T13:24:19Z</time>
      </trkpt>
      <trkpt lat="48.4927" lon="2.16781">
        <ele>161.2</ele>
        <time>2026-02-02T13:24:20Z</time>
      </trkpt>
      <trkpt lat="48.4927" lon="2.16776">
        <ele>161.2</ele>
        <time>2026-02-02T13:24:21Z</time>
      </trkpt>
      <trkpt lat="48.49269" lon="2.16771">
        <ele>161.2</ele>
        <time>2026-02-02T13:24:22Z</time>
      </trkpt>
      <trkpt lat="48.49269" lon="2.16766">
        <ele>161.2</ele>
        <time>2026-02-02T13:24:23Z</time>
      </trkpt>
      <trkpt lat="48.49268" lon="2.16762">
        <ele>161.2</ele>
        <time>2026-02-02T13:24:24Z</time>
      </trkpt>
      <trkpt lat="48.49267" lon="2.16757">
        <ele>161.8</ele>
        <time>2026-02-02T13:24:25Z</time>
      </trkpt>
      <trkpt lat="48.49266" lon="2.16753">
        <ele>161.8</ele>
        <time>2026-02-02T13:24:26Z</time>
      </trkpt>
      <trkpt lat="48.49265" lon="2.16748">
        <ele>161.8</ele>
        <time>2026-02-02T13:24:27Z</time>
      </trkpt>
      <trkpt lat="48.49263" lon="2.16744">
        <ele>161.8</ele>
        <time>2026-02-02T13:24:28Z</time>
      </trkpt>
      <trkpt lat="48.49262" lon="2.1674">
        <ele>162</ele>
        <time>2026-02-02T13:24:29Z</time>
      </trkpt>
      <trkpt lat="48.4926" lon="2.16735">
        <ele>162</ele>
        <time>2026-02-02T13:24:30Z</time>
      </trkpt>
      <trkpt lat="48.49258" lon="2.16731">
        <ele>162</ele>
        <time>2026-02-02T13:24:31Z</time>
      </trkpt>
      <trkpt lat="48.49256" lon="2.16727">
        <ele>162</ele>
        <time>2026-02-02T13:24:32Z</time>
      </trkpt>
      <trkpt lat="48.49255" lon="2.16722">
        <ele>162.6</ele>
        <time>2026-02-02T13:24:33Z</time>
      </trkpt>
      <trkpt lat="48.49253" lon="2.16718">
        <ele>162.6</ele>
        <time>2026-02-02T13:24:34Z</time>
      </trkpt>
      <trkpt lat="48.49252" lon="2.16713">
        <ele>162.6</ele>
        <time>2026-02-02T13:24:35Z</time>
      </trkpt>
      <trkpt lat="48.4925" lon="2.16709">
        <ele>162.6</ele>
        <time>2026-02-02T13:24:36Z</time>
      </trkpt>
      <trkpt lat="48.49249" lon="2.16704">
        <ele>163</ele>
        <time>2026-02-02T13:24:37Z</time>
      </trkpt>
      <trkpt lat="48.49247" lon="2.16699">
        <ele>163</ele>
        <time>2026-02-02T13:24:38Z</time>
      </trkpt>
      <trkpt lat="48.49246" lon="2.16695">
        <ele>163</ele>
        <time>2026-02-02T13:24:39Z</time>
      </trkpt>
      <trkpt lat="48.49245" lon="2.1669">
        <ele>163.4</ele>
        <time>2026-02-02T13:24:40Z</time>
      </trkpt>
      <trkpt lat="48.49244" lon="2.16685">
        <ele>163.4</ele>
        <time>2026-02-02T13:24:41Z</time>
      </trkpt>
      <trkpt lat="48.49243" lon="2.1668">
        <ele>163.4</ele>
        <time>2026-02-02T13:24:42Z</time>
      </trkpt>
      <trkpt lat="48.49242" lon="2.16675">
        <ele>163.4</ele>
        <time>2026-02-02T13:24:43Z</time>
      </trkpt>
      <trkpt lat="48.49241" lon="2.1667">
        <ele>164.2</ele>
        <time>2026-02-02T13:24:44Z</time>
      </trkpt>
      <trkpt lat="48.4924" lon="2.16665">
        <ele>163.8</ele>
        <time>2026-02-02T13:24:45Z</time>
      </trkpt>
      <trkpt lat="48.4924" lon="2.16659">
        <ele>163.8</ele>
        <time>2026-02-02T13:24:46Z</time>
      </trkpt>
      <trkpt lat="48.49239" lon="2.16654">
        <ele>163.8</ele>
        <time>2026-02-02T13:24:47Z</time>
      </trkpt>
      <trkpt lat="48.49239" lon="2.16649">
        <ele>164.2</ele>
        <time>2026-02-02T13:24:48Z</time>
      </trkpt>
      <trkpt lat="48.49238" lon="2.16644">
        <ele>164.4</ele>
        <time>2026-02-02T13:24:49Z</time>
      </trkpt>
      <trkpt lat="48.49237" lon="2.16638">
        <ele>164.4</ele>
        <time>2026-02-02T13:24:50Z</time>
      </trkpt>
      <trkpt lat="48.49237" lon="2.16633">
        <ele>164.4</ele>
        <time>2026-02-02T13:24:51Z</time>
      </trkpt>
      <trkpt lat="48.49236" lon="2.16627">
        <ele>164.4</ele>
        <time>2026-02-02T13:24:52Z</time>
      </trkpt>
      <trkpt lat="48.49235" lon="2.16621">
        <ele>164.6</ele>
        <time>2026-02-02T13:24:53Z</time>
      </trkpt>
      <trkpt lat="48.49235" lon="2.16616">
        <ele>164.6</ele>
        <time>2026-02-02T13:24:54Z</time>
      </trkpt>
      <trkpt lat="48.49234" lon="2.1661">
        <ele>164.6</ele>
        <time>2026-02-02T13:24:55Z</time>
      </trkpt>
      <trkpt lat="48.49233" lon="2.16604">
        <ele>164.8</ele>
        <time>2026-02-02T13:24:56Z</time>
      </trkpt>
      <trkpt lat="48.49233" lon="2.16598">
        <ele>165</ele>
        <time>2026-02-02T13:24:57Z</time>
      </trkpt>
      <trkpt lat="48.49232" lon="2.16592">
        <ele>165</ele>
        <time>2026-02-02T13:24:58Z</time>
      </trkpt>
      <trkpt lat="48.49232" lon="2.16586">
        <ele>165</ele>
        <time>2026-02-02T13:24:59Z</time>
      </trkpt>
      <trkpt lat="48.49231" lon="2.1658">
        <ele>165.2</ele>
        <time>2026-02-02T13:25:00Z</time>
      </trkpt>
      <trkpt lat="48.4923" lon="2.16575">
        <ele>165.6</ele>
        <time>2026-02-02T13:25:01Z</time>
      </trkpt>
      <trkpt lat="48.4923" lon="2.16569">
        <ele>165.6</ele>
        <time>2026-02-02T13:25:02Z</time>
      </trkpt>
      <trkpt lat="48.49229" lon="2.16564">
        <ele>165.6</ele>
        <time>2026-02-02T13:25:03Z</time>
      </trkpt>
      <trkpt lat="48.49228" lon="2.16558">
        <ele>165.6</ele>
        <time>2026-02-02T13:25:04Z</time>
      </trkpt>
      <trkpt lat="48.49228" lon="2.16553">
        <ele>166.2</ele>
        <time>2026-02-02T13:25:05Z</time>
      </trkpt>
      <trkpt lat="48.49227" lon="2.16547">
        <ele>166.2</ele>
        <time>2026-02-02T13:25:06Z</time>
      </trkpt>
      <trkpt lat="48.49226" lon="2.16542">
        <ele>166.2</ele>
        <time>2026-02-02T13:25:07Z</time>
      </trkpt>
      <trkpt lat="48.49226" lon="2.16536">
        <ele>166.4</ele>
        <time>2026-02-02T13:25:08Z</time>
      </trkpt>
      <trkpt lat="48.49225" lon="2.1653">
        <ele>166.6</ele>
        <time>2026-02-02T13:25:09Z</time>
      </trkpt>
      <trkpt lat="48.49225" lon="2.16525">
        <ele>166.6</ele>
        <time>2026-02-02T13:25:10Z</time>
      </trkpt>
      <trkpt lat="48.49224" lon="2.16519">
        <ele>166.6</ele>
        <time>2026-02-02T13:25:11Z</time>
      </trkpt>
      <trkpt lat="48.49223" lon="2.16513">
        <ele>166.6</ele>
        <time>2026-02-02T13:25:12Z</time>
      </trkpt>
      <trkpt lat="48.49223" lon="2.16508">
        <ele>167.4</ele>
        <time>2026-02-02T13:25:13Z</time>
      </trkpt>
      <trkpt lat="48.49222" lon="2.16503">
        <ele>167.4</ele>
        <time>2026-02-02T13:25:14Z</time>
      </trkpt>
      <trkpt lat="48.49222" lon="2.16497">
        <ele>167.4</ele>
        <time>2026-02-02T13:25:15Z</time>
      </trkpt>
      <trkpt lat="48.49221" lon="2.16491">
        <ele>167.4</ele>
        <time>2026-02-02T13:25:16Z</time>
      </trkpt>
      <trkpt lat="48.49221" lon="2.16486">
        <ele>167.6</ele>
        <time>2026-02-02T13:25:17Z</time>
      </trkpt>
      <trkpt lat="48.4922" lon="2.1648">
        <ele>167.6</ele>
        <time>2026-02-02T13:25:18Z</time>
      </trkpt>
      <trkpt lat="48.4922" lon="2.16474">
        <ele>167.6</ele>
        <time>2026-02-02T13:25:19Z</time>
      </trkpt>
      <trkpt lat="48.49219" lon="2.16469">
        <ele>168.2</ele>
        <time>2026-02-02T13:25:20Z</time>
      </trkpt>
      <trkpt lat="48.49219" lon="2.16463">
        <ele>168.6</ele>
        <time>2026-02-02T13:25:21Z</time>
      </trkpt>
      <trkpt lat="48.49218" lon="2.16457">
        <ele>168.6</ele>
        <time>2026-02-02T13:25:22Z</time>
      </trkpt>
      <trkpt lat="48.49217" lon="2.16452">
        <ele>168.6</ele>
        <time>2026-02-02T13:25:23Z</time>
      </trkpt>
      <trkpt lat="48.49216" lon="2.16446">
        <ele>168.6</ele>
        <time>2026-02-02T13:25:24Z</time>
      </trkpt>
      <trkpt lat="48.49216" lon="2.1644">
        <ele>168.8</ele>
        <time>2026-02-02T13:25:25Z</time>
      </trkpt>
      <trkpt lat="48.49215" lon="2.16435">
        <ele>168.8</ele>
        <time>2026-02-02T13:25:26Z</time>
      </trkpt>
      <trkpt lat="48.49215" lon="2.16429">
        <ele>168.8</ele>
        <time>2026-02-02T13:25:27Z</time>
      </trkpt>
      <trkpt lat="48.49214" lon="2.16423">
        <ele>169.4</ele>
        <time>2026-02-02T13:25:28Z</time>
      </trkpt>
      <trkpt lat="48.49213" lon="2.16418">
        <ele>169.4</ele>
        <time>2026-02-02T13:25:29Z</time>
      </trkpt>
      <trkpt lat="48.49213" lon="2.16412">
        <ele>169.4</ele>
        <time>2026-02-02T13:25:30Z</time>
      </trkpt>
      <trkpt lat="48.49212" lon="2.16406">
        <ele>169.4</ele>
        <time>2026-02-02T13:25:31Z</time>
      </trkpt>
      <trkpt lat="48.49212" lon="2.16401">
        <ele>170</ele>
        <time>2026-02-02T13:25:32Z</time>
      </trkpt>
      <trkpt lat="48.49211" lon="2.16395">
        <ele>170.4</ele>
        <time>2026-02-02T13:25:33Z</time>
      </trkpt>
      <trkpt lat="48.49211" lon="2.1639">
        <ele>170.4</ele>
        <time>2026-02-02T13:25:34Z</time>
      </trkpt>
      <trkpt lat="48.4921" lon="2.16384">
        <ele>170.4</ele>
        <time>2026-02-02T13:25:35Z</time>
      </trkpt>
      <trkpt lat="48.4921" lon="2.16378">
        <ele>170.4</ele>
        <time>2026-02-02T13:25:36Z</time>
      </trkpt>
      <trkpt lat="48.49209" lon="2.16373">
        <ele>170.6</ele>
        <time>2026-02-02T13:25:37Z</time>
      </trkpt>
      <trkpt lat="48.49209" lon="2.16367">
        <ele>170.6</ele>
        <time>2026-02-02T13:25:38Z</time>
      </trkpt>
      <trkpt lat="48.49208" lon="2.16361">
        <ele>170.6</ele>
        <time>2026-02-02T13:25:39Z</time>
      </trkpt>
      <trkpt lat="48.49208" lon="2.16355">
        <ele>171.6</ele>
        <time>2026-02-02T13:25:40Z</time>
      </trkpt>
      <trkpt lat="48.49208" lon="2.1635">
        <ele>171</ele>
        <time>2026-02-02T13:25:41Z</time>
      </trkpt>
      <trkpt lat="48.49207" lon="2.16344">
        <ele>171</ele>
        <time>2026-02-02T13:25:42Z</time>
      </trkpt>
      <trkpt lat="48.49207" lon="2.16338">
        <ele>171</ele>
        <time>2026-02-02T13:25:43Z</time>
      </trkpt>
      <trkpt lat="48.49207" lon="2.16332">
        <ele>171</ele>
        <time>2026-02-02T13:25:44Z</time>
      </trkpt>
      <trkpt lat="48.49206" lon="2.16326">
        <ele>171.4</ele>
        <time>2026-02-02T13:25:45Z</time>
      </trkpt>
      <trkpt lat="48.49206" lon="2.16319">
        <ele>171.4</ele>
        <time>2026-02-02T13:25:46Z</time>
      </trkpt>
      <trkpt lat="48.49206" lon="2.16313">
        <ele>171.4</ele>
        <time>2026-02-02T13:25:47Z</time>
      </trkpt>
      <trkpt lat="48.49206" lon="2.16306">
        <ele>171.4</ele>
        <time>2026-02-02T13:25:48Z</time>
      </trkpt>
      <trkpt lat="48.49208" lon="2.16299">
        <ele>171</ele>
        <time>2026-02-02T13:25:49Z</time>
      </trkpt>
      <trkpt lat="48.49209" lon="2.16292">
        <ele>171</ele>
        <time>2026-02-02T13:25:50Z</time>
      </trkpt>
      <trkpt lat="48.4921" lon="2.16285">
        <ele>171</ele>
        <time>2026-02-02T13:25:51Z</time>
      </trkpt>
      <trkpt lat="48.49212" lon="2.16278">
        <ele>171</ele>
        <time>2026-02-02T13:25:52Z</time>
      </trkpt>
      <trkpt lat="48.49213" lon="2.1627">
        <ele>171.2</ele>
        <time>2026-02-02T13:25:53Z</time>
      </trkpt>
      <trkpt lat="48.49214" lon="2.16263">
        <ele>171.2</ele>
        <time>2026-02-02T13:25:54Z</time>
      </trkpt>
      <trkpt lat="48.49215" lon="2.16255">
        <ele>171.2</ele>
        <time>2026-02-02T13:25:55Z</time>
      </trkpt>
      <trkpt lat="48.49217" lon="2.16248">
        <ele>171</ele>
        <time>2026-02-02T13:25:56Z</time>
      </trkpt>
      <trkpt lat="48.49218" lon="2.16241">
        <ele>170.6</ele>
        <time>2026-02-02T13:25:57Z</time>
      </trkpt>
      <trkpt lat="48.4922" lon="2.16234">
        <ele>170.6</ele>
        <time>2026-02-02T13:25:58Z</time>
      </trkpt>
      <trkpt lat="48.49221" lon="2.16227">
        <ele>170.6</ele>
        <time>2026-02-02T13:25:59Z</time>
      </trkpt>
      <trkpt lat="48.49223" lon="2.1622">
        <ele>169.8</ele>
        <time>2026-02-02T13:26:00Z</time>
      </trkpt>
      <trkpt lat="48.49224" lon="2.16212">
        <ele>169.6</ele>
        <time>2026-02-02T13:26:01Z</time>
      </trkpt>
      <trkpt lat="48.49225" lon="2.16203">
        <ele>169.6</ele>
        <time>2026-02-02T13:26:02Z</time>
      </trkpt>
      <trkpt lat="48.49227" lon="2.16194">
        <ele>169.6</ele>
        <time>2026-02-02T13:26:03Z</time>
      </trkpt>
      <trkpt lat="48.49228" lon="2.16185">
        <ele>168.8</ele>
        <time>2026-02-02T13:26:04Z</time>
      </trkpt>
      <trkpt lat="48.4923" lon="2.16176">
        <ele>169</ele>
        <time>2026-02-02T13:26:05Z</time>
      </trkpt>
      <trkpt lat="48.49232" lon="2.16166">
        <ele>169</ele>
        <time>2026-02-02T13:26:06Z</time>
      </trkpt>
      <trkpt lat="48.49235" lon="2.16157">
        <ele>169</ele>
        <time>2026-02-02T13:26:07Z</time>
      </trkpt>
      <trkpt lat="48.49238" lon="2.16148">
        <ele>168</ele>
        <time>2026-02-02T13:26:08Z</time>
      </trkpt>
      <trkpt lat="48.49242" lon="2.1614">
        <ele>168</ele>
        <time>2026-02-02T13:26:09Z</time>
      </trkpt>
      <trkpt lat="48.49246" lon="2.16132">
        <ele>168</ele>
        <time>2026-02-02T13:26:10Z</time>
      </trkpt>
      <trkpt lat="48.49251" lon="2.16124">
        <ele>168</ele>
        <time>2026-02-02T13:26:11Z</time>
      </trkpt>
      <trkpt lat="48.49255" lon="2.16118">
        <ele>168</ele>
        <time>2026-02-02T13:26:12Z</time>
      </trkpt>
      <trkpt lat="48.49259" lon="2.16111">
        <ele>168.2</ele>
        <time>2026-02-02T13:26:13Z</time>
      </trkpt>
      <trkpt lat="48.49264" lon="2.16105">
        <ele>168.2</ele>
        <time>2026-02-02T13:26:14Z</time>
      </trkpt>
      <trkpt lat="48.49268" lon="2.16098">
        <ele>168.2</ele>
        <time>2026-02-02T13:26:15Z</time>
      </trkpt>
      <trkpt lat="48.49272" lon="2.16092">
        <ele>168.4</ele>
        <time>2026-02-02T13:26:16Z</time>
      </trkpt>
      <trkpt lat="48.49276" lon="2.16087">
        <ele>169.2</ele>
        <time>2026-02-02T13:26:17Z</time>
      </trkpt>
      <trkpt lat="48.4928" lon="2.16081">
        <ele>169.2</ele>
        <time>2026-02-02T13:26:18Z</time>
      </trkpt>
      <trkpt lat="48.49283" lon="2.16076">
        <ele>169.2</ele>
        <time>2026-02-02T13:26:19Z</time>
      </trkpt>
      <trkpt lat="48.49286" lon="2.16071">
        <ele>170</ele>
        <time>2026-02-02T13:26:20Z</time>
      </trkpt>
      <trkpt lat="48.49289" lon="2.16065">
        <ele>170.2</ele>
        <time>2026-02-02T13:26:21Z</time>
      </trkpt>
      <trkpt lat="48.49292" lon="2.16059">
        <ele>170.2</ele>
        <time>2026-02-02T13:26:22Z</time>
      </trkpt>
      <trkpt lat="48.49295" lon="2.16054">
        <ele>170.2</ele>
        <time>2026-02-02T13:26:23Z</time>
      </trkpt>
      <trkpt lat="48.49297" lon="2.16048">
        <ele>171.2</ele>
        <time>2026-02-02T13:26:24Z</time>
      </trkpt>
      <trkpt lat="48.49299" lon="2.16043">
        <ele>171.6</ele>
        <time>2026-02-02T13:26:25Z</time>
      </trkpt>
      <trkpt lat="48.49302" lon="2.16037">
        <ele>171.6</ele>
        <time>2026-02-02T13:26:26Z</time>
      </trkpt>
      <trkpt lat="48.49304" lon="2.16031">
        <ele>171.6</ele>
        <time>2026-02-02T13:26:27Z</time>
      </trkpt>
      <trkpt lat="48.49306" lon="2.16025">
        <ele>171.6</ele>
        <time>2026-02-02T13:26:28Z</time>
      </trkpt>
      <trkpt lat="48.49308" lon="2.1602">
        <ele>172.4</ele>
        <time>2026-02-02T13:26:29Z</time>
      </trkpt>
      <trkpt lat="48.49311" lon="2.16014">
        <ele>172.4</ele>
        <time>2026-02-02T13:26:30Z</time>
      </trkpt>
      <trkpt lat="48.49313" lon="2.16008">
        <ele>172.4</ele>
        <time>2026-02-02T13:26:31Z</time>
      </trkpt>
      <trkpt lat="48.49315" lon="2.16003">
        <ele>172.4</ele>
        <time>2026-02-02T13:26:32Z</time>
      </trkpt>
      <trkpt lat="48.49317" lon="2.15997">
        <ele>172.4</ele>
        <time>2026-02-02T13:26:33Z</time>
      </trkpt>
      <trkpt lat="48.4932" lon="2.15991">
        <ele>172.4</ele>
        <time>2026-02-02T13:26:34Z</time>
      </trkpt>
      <trkpt lat="48.49322" lon="2.15985">
        <ele>172.4</ele>
        <time>2026-02-02T13:26:35Z</time>
      </trkpt>
      <trkpt lat="48.49324" lon="2.15979">
        <ele>172.4</ele>
        <time>2026-02-02T13:26:36Z</time>
      </trkpt>
      <trkpt lat="48.49327" lon="2.15972">
        <ele>172.8</ele>
        <time>2026-02-02T13:26:37Z</time>
      </trkpt>
      <trkpt lat="48.49329" lon="2.15966">
        <ele>172.8</ele>
        <time>2026-02-02T13:26:38Z</time>
      </trkpt>
      <trkpt lat="48.49332" lon="2.1596">
        <ele>172.8</ele>
        <time>2026-02-02T13:26:39Z</time>
      </trkpt>
      <trkpt lat="48.49334" lon="2.15954">
        <ele>172.8</ele>
        <time>2026-02-02T13:26:40Z</time>
      </trkpt>
      <trkpt lat="48.49337" lon="2.15947">
        <ele>173.2</ele>
        <time>2026-02-02T13:26:41Z</time>
      </trkpt>
      <trkpt lat="48.49339" lon="2.15941">
        <ele>173.2</ele>
        <time>2026-02-02T13:26:42Z</time>
      </trkpt>
      <trkpt lat="48.49341" lon="2.15934">
        <ele>173.2</ele>
        <time>2026-02-02T13:26:43Z</time>
      </trkpt>
      <trkpt lat="48.49344" lon="2.15928">
        <ele>173.2</ele>
        <time>2026-02-02T13:26:44Z</time>
      </trkpt>
      <trkpt lat="48.49346" lon="2.15921">
        <ele>173.6</ele>
        <time>2026-02-02T13:26:45Z</time>
      </trkpt>
      <trkpt lat="48.49349" lon="2.15915">
        <ele>173.6</ele>
        <time>2026-02-02T13:26:46Z</time>
      </trkpt>
      <trkpt lat="48.49351" lon="2.15908">
        <ele>173.6</ele>
        <time>2026-02-02T13:26:47Z</time>
      </trkpt>
      <trkpt lat="48.49354" lon="2.15902">
        <ele>173.6</ele>
        <time>2026-02-02T13:26:48Z</time>
      </trkpt>
      <trkpt lat="48.49357" lon="2.15895">
        <ele>174.2</ele>
        <time>2026-02-02T13:26:49Z</time>
      </trkpt>
      <trkpt lat="48.49359" lon="2.15889">
        <ele>174.2</ele>
        <time>2026-02-02T13:26:50Z</time>
      </trkpt>
      <trkpt lat="48.49362" lon="2.15882">
        <ele>174.2</ele>
        <time>2026-02-02T13:26:51Z</time>
      </trkpt>
      <trkpt lat="48.49364" lon="2.15875">
        <ele>174.2</ele>
        <time>2026-02-02T13:26:52Z</time>
      </trkpt>
      <trkpt lat="48.49367" lon="2.15868">
        <ele>174.2</ele>
        <time>2026-02-02T13:26:53Z</time>
      </trkpt>
      <trkpt lat="48.4937" lon="2.15861">
        <ele>174.2</ele>
        <time>2026-02-02T13:26:54Z</time>
      </trkpt>
      <trkpt lat="48.49372" lon="2.15854">
        <ele>174.2</ele>
        <time>2026-02-02T13:26:55Z</time>
      </trkpt>
      <trkpt lat="48.49375" lon="2.15847">
        <ele>175</ele>
        <time>2026-02-02T13:26:56Z</time>
      </trkpt>
      <trkpt lat="48.49378" lon="2.1584">
        <ele>174.6</ele>
        <time>2026-02-02T13:26:57Z</time>
      </trkpt>
      <trkpt lat="48.49381" lon="2.15833">
        <ele>174.6</ele>
        <time>2026-02-02T13:26:58Z</time>
      </trkpt>
      <trkpt lat="48.49383" lon="2.15826">
        <ele>174.6</ele>
        <time>2026-02-02T13:26:59Z</time>
      </trkpt>
      <trkpt lat="48.49386" lon="2.15819">
        <ele>174.8</ele>
        <time>2026-02-02T13:27:00Z</time>
      </trkpt>
      <trkpt lat="48.49389" lon="2.15811">
        <ele>175</ele>
        <time>2026-02-02T13:27:01Z</time>
      </trkpt>
      <trkpt lat="48.49392" lon="2.15804">
        <ele>175</ele>
        <time>2026-02-02T13:27:02Z</time>
      </trkpt>
      <trkpt lat="48.49395" lon="2.15797">
        <ele>175</ele>
        <time>2026-02-02T13:27:03Z</time>
      </trkpt>
      <trkpt lat="48.49398" lon="2.15789">
        <ele>175</ele>
        <time>2026-02-02T13:27:04Z</time>
      </trkpt>
      <trkpt lat="48.49401" lon="2.15781">
        <ele>175.6</ele>
        <time>2026-02-02T13:27:05Z</time>
      </trkpt>
      <trkpt lat="48.49404" lon="2.15774">
        <ele>175.6</ele>
        <time>2026-02-02T13:27:06Z</time>
      </trkpt>
      <trkpt lat="48.49407" lon="2.15766">
        <ele>175.6</ele>
        <time>2026-02-02T13:27:07Z</time>
      </trkpt>
      <trkpt lat="48.49409" lon="2.15758">
        <ele>175.6</ele>
        <time>2026-02-02T13:27:08Z</time>
      </trkpt>
      <trkpt lat="48.49412" lon="2.15751">
        <ele>175.8</ele>
        <time>2026-02-02T13:27:09Z</time>
      </trkpt>
      <trkpt lat="48.49415" lon="2.15743">
        <ele>175.8</ele>
        <time>2026-02-02T13:27:10Z</time>
      </trkpt>
      <trkpt lat="48.49418" lon="2.15736">
        <ele>175.8</ele>
        <time>2026-02-02T13:27:11Z</time>
      </trkpt>
      <trkpt lat="48.49421" lon="2.15728">
        <ele>176.2</ele>
        <time>2026-02-02T13:27:12Z</time>
      </trkpt>
      <trkpt lat="48.49424" lon="2.1572">
        <ele>176</ele>
        <time>2026-02-02T13:27:13Z</time>
      </trkpt>
      <trkpt lat="48.49427" lon="2.15713">
        <ele>176</ele>
        <time>2026-02-02T13:27:14Z</time>
      </trkpt>
      <trkpt lat="48.4943" lon="2.15705">
        <ele>176</ele>
        <time>2026-02-02T13:27:15Z</time>
      </trkpt>
      <trkpt lat="48.49434" lon="2.15697">
        <ele>176.4</ele>
        <time>2026-02-02T13:27:16Z</time>
      </trkpt>
      <trkpt lat="48.49437" lon="2.15689">
        <ele>176.4</ele>
        <time>2026-02-02T13:27:17Z</time>
      </trkpt>
      <trkpt lat="48.4944" lon="2.15682">
        <ele>176.4</ele>
        <time>2026-02-02T13:27:18Z</time>
      </trkpt>
      <trkpt lat="48.49444" lon="2.15674">
        <ele>176.4</ele>
        <time>2026-02-02T13:27:19Z</time>
      </trkpt>
      <trkpt lat="48.49447" lon="2.15667">
        <ele>176.4</ele>
        <time>2026-02-02T13:27:20Z</time>
      </trkpt>
      <trkpt lat="48.49451" lon="2.15659">
        <ele>176.6</ele>
        <time>2026-02-02T13:27:21Z</time>
      </trkpt>
      <trkpt lat="48.49454" lon="2.15652">
        <ele>176.6</ele>
        <time>2026-02-02T13:27:22Z</time>
      </trkpt>
      <trkpt lat="48.49458" lon="2.15645">
        <ele>176.6</ele>
        <time>2026-02-02T13:27:23Z</time>
      </trkpt>
      <trkpt lat="48.49463" lon="2.15639">
        <ele>177.4</ele>
        <time>2026-02-02T13:27:24Z</time>
      </trkpt>
      <trkpt lat="48.49467" lon="2.15633">
        <ele>177.6</ele>
        <time>2026-02-02T13:27:25Z</time>
      </trkpt>
      <trkpt lat="48.49472" lon="2.15626">
        <ele>177.6</ele>
        <time>2026-02-02T13:27:26Z</time>
      </trkpt>
      <trkpt lat="48.49476" lon="2.1562">
        <ele>177.6</ele>
        <time>2026-02-02T13:27:27Z</time>
      </trkpt>
      <trkpt lat="48.49481" lon="2.15614">
        <ele>177.6</ele>
        <time>2026-02-02T13:27:28Z</time>
      </trkpt>
      <trkpt lat="48.49486" lon="2.15609">
        <ele>177.4</ele>
        <time>2026-02-02T13:27:29Z</time>
      </trkpt>
      <trkpt lat="48.49491" lon="2.15603">
        <ele>177.4</ele>
        <time>2026-02-02T13:27:30Z</time>
      </trkpt>
      <trkpt lat="48.49496" lon="2.15597">
        <ele>177.4</ele>
        <time>2026-02-02T13:27:31Z</time>
      </trkpt>
      <trkpt lat="48.495" lon="2.15592">
        <ele>178</ele>
        <time>2026-02-02T13:27:32Z</time>
      </trkpt>
      <trkpt lat="48.49505" lon="2.15586">
        <ele>178</ele>
        <time>2026-02-02T13:27:33Z</time>
      </trkpt>
      <trkpt lat="48.4951" lon="2.15581">
        <ele>178</ele>
        <time>2026-02-02T13:27:34Z</time>
      </trkpt>
      <trkpt lat="48.49515" lon="2.15575">
        <ele>178</ele>
        <time>2026-02-02T13:27:35Z</time>
      </trkpt>
      <trkpt lat="48.4952" lon="2.1557">
        <ele>178</ele>
        <time>2026-02-02T13:27:36Z</time>
      </trkpt>
      <trkpt lat="48.49525" lon="2.15565">
        <ele>178.2</ele>
        <time>2026-02-02T13:27:37Z</time>
      </trkpt>
      <trkpt lat="48.4953" lon="2.15559">
        <ele>178.2</ele>
        <time>2026-02-02T13:27:38Z</time>
      </trkpt>
      <trkpt lat="48.49535" lon="2.15554">
        <ele>178.2</ele>
        <time>2026-02-02T13:27:39Z</time>
      </trkpt>
      <trkpt lat="48.4954" lon="2.15548">
        <ele>178.4</ele>
        <time>2026-02-02T13:27:40Z</time>
      </trkpt>
      <trkpt lat="48.49545" lon="2.15543">
        <ele>177.4</ele>
        <time>2026-02-02T13:27:41Z</time>
      </trkpt>
      <trkpt lat="48.4955" lon="2.15538">
        <ele>177.4</ele>
        <time>2026-02-02T13:27:42Z</time>
      </trkpt>
      <trkpt lat="48.49555" lon="2.15532">
        <ele>177.4</ele>
        <time>2026-02-02T13:27:43Z</time>
      </trkpt>
      <trkpt lat="48.4956" lon="2.15527">
        <ele>178.4</ele>
        <time>2026-02-02T13:27:44Z</time>
      </trkpt>
      <trkpt lat="48.49565" lon="2.15521">
        <ele>179</ele>
        <time>2026-02-02T13:27:45Z</time>
      </trkpt>
      <trkpt lat="48.4957" lon="2.15516">
        <ele>179</ele>
        <time>2026-02-02T13:27:46Z</time>
      </trkpt>
      <trkpt lat="48.49575" lon="2.1551">
        <ele>179</ele>
        <time>2026-02-02T13:27:47Z</time>
      </trkpt>
      <trkpt lat="48.4958" lon="2.15505">
        <ele>179.2</ele>
        <time>2026-02-02T13:27:48Z</time>
      </trkpt>
      <trkpt lat="48.49585" lon="2.15499">
        <ele>179.4</ele>
        <time>2026-02-02T13:27:49Z</time>
      </trkpt>
      <trkpt lat="48.4959" lon="2.15494">
        <ele>179.4</ele>
        <time>2026-02-02T13:27:50Z</time>
      </trkpt>
      <trkpt lat="48.49595" lon="2.15488">
        <ele>179.4</ele>
        <time>2026-02-02T13:27:51Z</time>
      </trkpt>
      <trkpt lat="48.496" lon="2.15483">
        <ele>179.4</ele>
        <time>2026-02-02T13:27:52Z</time>
      </trkpt>
      <trkpt lat="48.49605" lon="2.15478">
        <ele>179.8</ele>
        <time>2026-02-02T13:27:53Z</time>
      </trkpt>
      <trkpt lat="48.4961" lon="2.15472">
        <ele>179.8</ele>
        <time>2026-02-02T13:27:54Z</time>
      </trkpt>
      <trkpt lat="48.49615" lon="2.15467">
        <ele>179.8</ele>
        <time>2026-02-02T13:27:55Z</time>
      </trkpt>
      <trkpt lat="48.4962" lon="2.15461">
        <ele>179.8</ele>
        <time>2026-02-02T13:27:56Z</time>
      </trkpt>
      <trkpt lat="48.49625" lon="2.15456">
        <ele>180</ele>
        <time>2026-02-02T13:27:57Z</time>
      </trkpt>
      <trkpt lat="48.4963" lon="2.15451">
        <ele>180</ele>
        <time>2026-02-02T13:27:58Z</time>
      </trkpt>
      <trkpt lat="48.49635" lon="2.15445">
        <ele>180</ele>
        <time>2026-02-02T13:27:59Z</time>
      </trkpt>
      <trkpt lat="48.49639" lon="2.1544">
        <ele>180</ele>
        <time>2026-02-02T13:28:00Z</time>
      </trkpt>
      <trkpt lat="48.49644" lon="2.15434">
        <ele>180.2</ele>
        <time>2026-02-02T13:28:01Z</time>
      </trkpt>
      <trkpt lat="48.49649" lon="2.15429">
        <ele>180.2</ele>
        <time>2026-02-02T13:28:02Z</time>
      </trkpt>
      <trkpt lat="48.49654" lon="2.15423">
        <ele>180.2</ele>
        <time>2026-02-02T13:28:03Z</time>
      </trkpt>
      <trkpt lat="48.49659" lon="2.15418">
        <ele>181</ele>
        <time>2026-02-02T13:28:04Z</time>
      </trkpt>
      <trkpt lat="48.49664" lon="2.15413">
        <ele>181</ele>
        <time>2026-02-02T13:28:05Z</time>
      </trkpt>
      <trkpt lat="48.49669" lon="2.15407">
        <ele>181</ele>
        <time>2026-02-02T13:28:06Z</time>
      </trkpt>
      <trkpt lat="48.49674" lon="2.15402">
        <ele>181</ele>
        <time>2026-02-02T13:28:07Z</time>
      </trkpt>
      <trkpt lat="48.49679" lon="2.15396">
        <ele>181</ele>
        <time>2026-02-02T13:28:08Z</time>
      </trkpt>
      <trkpt lat="48.49684" lon="2.15391">
        <ele>181</ele>
        <time>2026-02-02T13:28:09Z</time>
      </trkpt>
      <trkpt lat="48.49689" lon="2.15386">
        <ele>181</ele>
        <time>2026-02-02T13:28:10Z</time>
      </trkpt>
      <trkpt lat="48.49693" lon="2.1538">
        <ele>181</ele>
        <time>2026-02-02T13:28:11Z</time>
      </trkpt>
      <trkpt lat="48.49698" lon="2.15375">
        <ele>181</ele>
        <time>2026-02-02T13:28:12Z</time>
      </trkpt>
      <trkpt lat="48.49703" lon="2.15369">
        <ele>181.6</ele>
        <time>2026-02-02T13:28:13Z</time>
      </trkpt>
      <trkpt lat="48.49708" lon="2.15363">
        <ele>181.6</ele>
        <time>2026-02-02T13:28:14Z</time>
      </trkpt>
      <trkpt lat="48.49712" lon="2.15357">
        <ele>181.6</ele>
        <time>2026-02-02T13:28:15Z</time>
      </trkpt>
      <trkpt lat="48.49717" lon="2.15351">
        <ele>181.6</ele>
        <time>2026-02-02T13:28:16Z</time>
      </trkpt>
      <trkpt lat="48.49721" lon="2.15344">
        <ele>181.6</ele>
        <time>2026-02-02T13:28:17Z</time>
      </trkpt>
      <trkpt lat="48.49725" lon="2.15337">
        <ele>181.6</ele>
        <time>2026-02-02T13:28:18Z</time>
      </trkpt>
      <trkpt lat="48.49729" lon="2.15329">
        <ele>181.6</ele>
        <time>2026-02-02T13:28:19Z</time>
      </trkpt>
      <trkpt lat="48.49732" lon="2.15321">
        <ele>181.8</ele>
        <time>2026-02-02T13:28:20Z</time>
      </trkpt>
      <trkpt lat="48.49735" lon="2.15313">
        <ele>182</ele>
        <time>2026-02-02T13:28:21Z</time>
      </trkpt>
      <trkpt lat="48.49737" lon="2.15304">
        <ele>182</ele>
        <time>2026-02-02T13:28:22Z</time>
      </trkpt>
      <trkpt lat="48.49739" lon="2.15295">
        <ele>182</ele>
        <time>2026-02-02T13:28:23Z</time>
      </trkpt>
      <trkpt lat="48.49741" lon="2.15286">
        <ele>181.8</ele>
        <time>2026-02-02T13:28:24Z</time>
      </trkpt>
      <trkpt lat="48.49743" lon="2.15277">
        <ele>182.2</ele>
        <time>2026-02-02T13:28:25Z</time>
      </trkpt>
      <trkpt lat="48.49744" lon="2.15267">
        <ele>182.2</ele>
        <time>2026-02-02T13:28:26Z</time>
      </trkpt>
      <trkpt lat="48.49746" lon="2.15258">
        <ele>182.2</ele>
        <time>2026-02-02T13:28:27Z</time>
      </trkpt>
      <trkpt lat="48.49747" lon="2.15248">
        <ele>182.2</ele>
        <time>2026-02-02T13:28:28Z</time>
      </trkpt>
      <trkpt lat="48.49748" lon="2.15238">
        <ele>182.2</ele>
        <time>2026-02-02T13:28:29Z</time>
      </trkpt>
      <trkpt lat="48.49749" lon="2.15229">
        <ele>182.2</ele>
        <time>2026-02-02T13:28:30Z</time>
      </trkpt>
      <trkpt lat="48.49751" lon="2.15219">
        <ele>182.2</ele>
        <time>2026-02-02T13:28:31Z</time>
      </trkpt>
      <trkpt lat="48.49752" lon="2.1521">
        <ele>182.8</ele>
        <time>2026-02-02T13:28:32Z</time>
      </trkpt>
      <trkpt lat="48.49753" lon="2.15201">
        <ele>183.4</ele>
        <time>2026-02-02T13:28:33Z</time>
      </trkpt>
      <trkpt lat="48.49755" lon="2.15191">
        <ele>183.4</ele>
        <time>2026-02-02T13:28:34Z</time>
      </trkpt>
      <trkpt lat="48.49756" lon="2.15182">
        <ele>183.4</ele>
        <time>2026-02-02T13:28:35Z</time>
      </trkpt>
      <trkpt lat="48.49757" lon="2.15173">
        <ele>183.4</ele>
        <time>2026-02-02T13:28:36Z</time>
      </trkpt>
      <trkpt lat="48.49758" lon="2.15164">
        <ele>183.4</ele>
        <time>2026-02-02T13:28:37Z</time>
      </trkpt>
      <trkpt lat="48.49759" lon="2.15154">
        <ele>183.4</ele>
        <time>2026-02-02T13:28:38Z</time>
      </trkpt>
      <trkpt lat="48.4976" lon="2.15145">
        <ele>183.4</ele>
        <time>2026-02-02T13:28:39Z</time>
      </trkpt>
      <trkpt lat="48.49762" lon="2.15135">
        <ele>183.4</ele>
        <time>2026-02-02T13:28:40Z</time>
      </trkpt>
      <trkpt lat="48.49763" lon="2.15125">
        <ele>183.8</ele>
        <time>2026-02-02T13:28:41Z</time>
      </trkpt>
      <trkpt lat="48.49764" lon="2.15114">
        <ele>183.8</ele>
        <time>2026-02-02T13:28:42Z</time>
      </trkpt>
      <trkpt lat="48.49765" lon="2.15104">
        <ele>183.8</ele>
        <time>2026-02-02T13:28:43Z</time>
      </trkpt>
      <trkpt lat="48.49767" lon="2.15094">
        <ele>183.8</ele>
        <time>2026-02-02T13:28:44Z</time>
      </trkpt>
      <trkpt lat="48.49768" lon="2.15084">
        <ele>184.2</ele>
        <time>2026-02-02T13:28:45Z</time>
      </trkpt>
      <trkpt lat="48.49769" lon="2.15074">
        <ele>184.2</ele>
        <time>2026-02-02T13:28:46Z</time>
      </trkpt>
      <trkpt lat="48.49771" lon="2.15064">
        <ele>184.2</ele>
        <time>2026-02-02T13:28:47Z</time>
      </trkpt>
      <trkpt lat="48.49772" lon="2.15054">
        <ele>184</ele>
        <time>2026-02-02T13:28:48Z</time>
      </trkpt>
      <trkpt lat="48.49773" lon="2.15044">
        <ele>184</ele>
        <time>2026-02-02T13:28:49Z</time>
      </trkpt>
      <trkpt lat="48.49774" lon="2.15034">
        <ele>184</ele>
        <time>2026-02-02T13:28:50Z</time>
      </trkpt>
      <trkpt lat="48.49775" lon="2.15024">
        <ele>184</ele>
        <time>2026-02-02T13:28:51Z</time>
      </trkpt>
      <trkpt lat="48.49777" lon="2.15014">
        <ele>184.4</ele>
        <time>2026-02-02T13:28:52Z</time>
      </trkpt>
      <trkpt lat="48.49778" lon="2.15004">
        <ele>184.4</ele>
        <time>2026-02-02T13:28:53Z</time>
      </trkpt>
      <trkpt lat="48.49779" lon="2.14994">
        <ele>184.4</ele>
        <time>2026-02-02T13:28:54Z</time>
      </trkpt>
      <trkpt lat="48.49781" lon="2.14984">
        <ele>184.4</ele>
        <time>2026-02-02T13:28:55Z</time>
      </trkpt>
      <trkpt lat="48.49782" lon="2.14974">
        <ele>184.4</ele>
        <time>2026-02-02T13:28:56Z</time>
      </trkpt>
      <trkpt lat="48.49783" lon="2.14964">
        <ele>184.4</ele>
        <time>2026-02-02T13:28:57Z</time>
      </trkpt>
      <trkpt lat="48.49784" lon="2.14954">
        <ele>184.4</ele>
        <time>2026-02-02T13:28:58Z</time>
      </trkpt>
      <trkpt lat="48.49785" lon="2.14944">
        <ele>184.4</ele>
        <time>2026-02-02T13:28:59Z</time>
      </trkpt>
      <trkpt lat="48.49786" lon="2.14934">
        <ele>185.2</ele>
        <time>2026-02-02T13:29:00Z</time>
      </trkpt>
      <trkpt lat="48.49788" lon="2.14924">
        <ele>185.2</ele>
        <time>2026-02-02T13:29:01Z</time>
      </trkpt>
      <trkpt lat="48.49789" lon="2.14914">
        <ele>185.2</ele>
        <time>2026-02-02T13:29:02Z</time>
      </trkpt>
      <trkpt lat="48.49791" lon="2.14904">
        <ele>185.2</ele>
        <time>2026-02-02T13:29:03Z</time>
      </trkpt>
      <trkpt lat="48.49792" lon="2.14895">
        <ele>185.2</ele>
        <time>2026-02-02T13:29:04Z</time>
      </trkpt>
      <trkpt lat="48.49793" lon="2.14885">
        <ele>185.2</ele>
        <time>2026-02-02T13:29:05Z</time>
      </trkpt>
      <trkpt lat="48.49794" lon="2.14875">
        <ele>185.2</ele>
        <time>2026-02-02T13:29:06Z</time>
      </trkpt>
      <trkpt lat="48.49796" lon="2.14865">
        <ele>185.2</ele>
        <time>2026-02-02T13:29:07Z</time>
      </trkpt>
      <trkpt lat="48.49797" lon="2.14855">
        <ele>185.2</ele>
        <time>2026-02-02T13:29:08Z</time>
      </trkpt>
      <trkpt lat="48.49798" lon="2.14845">
        <ele>185</ele>
        <time>2026-02-02T13:29:09Z</time>
      </trkpt>
      <trkpt lat="48.49799" lon="2.14835">
        <ele>185</ele>
        <time>2026-02-02T13:29:10Z</time>
      </trkpt>
      <trkpt lat="48.49801" lon="2.14825">
        <ele>185</ele>
        <time>2026-02-02T13:29:11Z</time>
      </trkpt>
      <trkpt lat="48.49802" lon="2.14815">
        <ele>185</ele>
        <time>2026-02-02T13:29:12Z</time>
      </trkpt>
      <trkpt lat="48.49803" lon="2.14805">
        <ele>185</ele>
        <time>2026-02-02T13:29:13Z</time>
      </trkpt>
      <trkpt lat="48.49804" lon="2.14794">
        <ele>185</ele>
        <time>2026-02-02T13:29:14Z</time>
      </trkpt>
      <trkpt lat="48.49805" lon="2.14784">
        <ele>185</ele>
        <time>2026-02-02T13:29:15Z</time>
      </trkpt>
      <trkpt lat="48.49807" lon="2.14774">
        <ele>184.8</ele>
        <time>2026-02-02T13:29:16Z</time>
      </trkpt>
      <trkpt lat="48.49808" lon="2.14764">
        <ele>185.2</ele>
        <time>2026-02-02T13:29:17Z</time>
      </trkpt>
      <trkpt lat="48.4981" lon="2.14753">
        <ele>185.2</ele>
        <time>2026-02-02T13:29:18Z</time>
      </trkpt>
      <trkpt lat="48.49811" lon="2.14743">
        <ele>185.2</ele>
        <time>2026-02-02T13:29:19Z</time>
      </trkpt>
      <trkpt lat="48.49813" lon="2.14733">
        <ele>184.6</ele>
        <time>2026-02-02T13:29:20Z</time>
      </trkpt>
      <trkpt lat="48.49815" lon="2.14722">
        <ele>185</ele>
        <time>2026-02-02T13:29:21Z</time>
      </trkpt>
      <trkpt lat="48.49816" lon="2.14712">
        <ele>185</ele>
        <time>2026-02-02T13:29:22Z</time>
      </trkpt>
      <trkpt lat="48.49818" lon="2.14701">
        <ele>185</ele>
        <time>2026-02-02T13:29:23Z</time>
      </trkpt>
      <trkpt lat="48.4982" lon="2.14691">
        <ele>185</ele>
        <time>2026-02-02T13:29:24Z</time>
      </trkpt>
      <trkpt lat="48.49822" lon="2.1468">
        <ele>185</ele>
        <time>2026-02-02T13:29:25Z</time>
      </trkpt>
      <trkpt lat="48.49825" lon="2.14669">
        <ele>185</ele>
        <time>2026-02-02T13:29:26Z</time>
      </trkpt>
      <trkpt lat="48.49827" lon="2.14659">
        <ele>185</ele>
        <time>2026-02-02T13:29:27Z</time>
      </trkpt>
      <trkpt lat="48.49829" lon="2.14648">
        <ele>184.6</ele>
        <time>2026-02-02T13:29:28Z</time>
      </trkpt>
      <trkpt lat="48.49832" lon="2.14638">
        <ele>184.2</ele>
        <time>2026-02-02T13:29:29Z</time>
      </trkpt>
      <trkpt lat="48.49835" lon="2.14627">
        <ele>184.2</ele>
        <time>2026-02-02T13:29:30Z</time>
      </trkpt>
      <trkpt lat="48.49838" lon="2.14617">
        <ele>184.2</ele>
        <time>2026-02-02T13:29:31Z</time>
      </trkpt>
      <trkpt lat="48.49841" lon="2.14606">
        <ele>184.2</ele>
        <time>2026-02-02T13:29:32Z</time>
      </trkpt>
      <trkpt lat="48.49845" lon="2.14596">
        <ele>184.6</ele>
        <time>2026-02-02T13:29:33Z</time>
      </trkpt>
      <trkpt lat="48.49849" lon="2.14586">
        <ele>184.6</ele>
        <time>2026-02-02T13:29:34Z</time>
      </trkpt>
      <trkpt lat="48.49852" lon="2.14576">
        <ele>184.6</ele>
        <time>2026-02-02T13:29:35Z</time>
      </trkpt>
      <trkpt lat="48.49857" lon="2.14566">
        <ele>184.6</ele>
        <time>2026-02-02T13:29:36Z</time>
      </trkpt>
      <trkpt lat="48.49861" lon="2.14557">
        <ele>184.6</ele>
        <time>2026-02-02T13:29:37Z</time>
      </trkpt>
      <trkpt lat="48.49865" lon="2.14548">
        <ele>184.6</ele>
        <time>2026-02-02T13:29:38Z</time>
      </trkpt>
      <trkpt lat="48.4987" lon="2.14538">
        <ele>184.6</ele>
        <time>2026-02-02T13:29:39Z</time>
      </trkpt>
      <trkpt lat="48.49874" lon="2.14529">
        <ele>184.6</ele>
        <time>2026-02-02T13:29:40Z</time>
      </trkpt>
      <trkpt lat="48.49879" lon="2.1452">
        <ele>184.4</ele>
        <time>2026-02-02T13:29:41Z</time>
      </trkpt>
      <trkpt lat="48.49884" lon="2.14512">
        <ele>184.4</ele>
        <time>2026-02-02T13:29:42Z</time>
      </trkpt>
      <trkpt lat="48.49888" lon="2.14503">
        <ele>184.4</ele>
        <time>2026-02-02T13:29:43Z</time>
      </trkpt>
      <trkpt lat="48.49893" lon="2.14494">
        <ele>184</ele>
        <time>2026-02-02T13:29:44Z</time>
      </trkpt>
      <trkpt lat="48.49897" lon="2.14485">
        <ele>184.2</ele>
        <time>2026-02-02T13:29:45Z</time>
      </trkpt>
      <trkpt lat="48.49902" lon="2.14476">
        <ele>184.2</ele>
        <time>2026-02-02T13:29:46Z</time>
      </trkpt>
      <trkpt lat="48.49906" lon="2.14466">
        <ele>184.2</ele>
        <time>2026-02-02T13:29:47Z</time>
      </trkpt>
      <trkpt lat="48.49911" lon="2.14457">
        <ele>183.4</ele>
        <time>2026-02-02T13:29:48Z</time>
      </trkpt>
      <trkpt lat="48.49915" lon="2.14447">
        <ele>183.4</ele>
        <time>2026-02-02T13:29:49Z</time>
      </trkpt>
      <trkpt lat="48.49919" lon="2.14437">
        <ele>183.4</ele>
        <time>2026-02-02T13:29:50Z</time>
      </trkpt>
      <trkpt lat="48.49923" lon="2.14426">
        <ele>183.4</ele>
        <time>2026-02-02T13:29:51Z</time>
      </trkpt>
      <trkpt lat="48.49927" lon="2.14416">
        <ele>183.4</ele>
        <time>2026-02-02T13:29:52Z</time>
      </trkpt>
      <trkpt lat="48.4993" lon="2.14405">
        <ele>183.2</ele>
        <time>2026-02-02T13:29:53Z</time>
      </trkpt>
      <trkpt lat="48.49933" lon="2.14394">
        <ele>183.2</ele>
        <time>2026-02-02T13:29:54Z</time>
      </trkpt>
      <trkpt lat="48.49935" lon="2.14382">
        <ele>183.2</ele>
        <time>2026-02-02T13:29:55Z</time>
      </trkpt>
      <trkpt lat="48.49938" lon="2.14371">
        <ele>183.2</ele>
        <time>2026-02-02T13:29:56Z</time>
      </trkpt>
      <trkpt lat="48.49939" lon="2.14359">
        <ele>183.2</ele>
        <time>2026-02-02T13:29:57Z</time>
      </trkpt>
      <trkpt lat="48.49941" lon="2.14347">
        <ele>183.2</ele>
        <time>2026-02-02T13:29:58Z</time>
      </trkpt>
      <trkpt lat="48.49943" lon="2.14335">
        <ele>183.2</ele>
        <time>2026-02-02T13:29:59Z</time>
      </trkpt>
      <trkpt lat="48.49944" lon="2.14323">
        <ele>182.8</ele>
        <time>2026-02-02T13:30:00Z</time>
      </trkpt>
      <trkpt lat="48.49946" lon="2.14311">
        <ele>183.4</ele>
        <time>2026-02-02T13:30:01Z</time>
      </trkpt>
      <trkpt lat="48.49947" lon="2.14299">
        <ele>183.4</ele>
        <time>2026-02-02T13:30:02Z</time>
      </trkpt>
      <trkpt lat="48.49948" lon="2.14286">
        <ele>183.4</ele>
        <time>2026-02-02T13:30:03Z</time>
      </trkpt>
      <trkpt lat="48.4995" lon="2.14274">
        <ele>183</ele>
        <time>2026-02-02T13:30:04Z</time>
      </trkpt>
      <trkpt lat="48.49951" lon="2.14262">
        <ele>183.2</ele>
        <time>2026-02-02T13:30:05Z</time>
      </trkpt>
      <trkpt lat="48.49952" lon="2.1425">
        <ele>183.2</ele>
        <time>2026-02-02T13:30:06Z</time>
      </trkpt>
      <trkpt lat="48.49954" lon="2.14237">
        <ele>183.2</ele>
        <time>2026-02-02T13:30:07Z</time>
      </trkpt>
      <trkpt lat="48.49955" lon="2.14225">
        <ele>183</ele>
        <time>2026-02-02T13:30:08Z</time>
      </trkpt>
      <trkpt lat="48.49956" lon="2.14213">
        <ele>182.6</ele>
        <time>2026-02-02T13:30:09Z</time>
      </trkpt>
      <trkpt lat="48.49958" lon="2.142">
        <ele>182.6</ele>
        <time>2026-02-02T13:30:10Z</time>
      </trkpt>
      <trkpt lat="48.49959" lon="2.14188">
        <ele>182.6</ele>
        <time>2026-02-02T13:30:11Z</time>
      </trkpt>
      <trkpt lat="48.4996" lon="2.14176">
        <ele>182.6</ele>
        <time>2026-02-02T13:30:12Z</time>
      </trkpt>
      <trkpt lat="48.49961" lon="2.14163">
        <ele>182.6</ele>
        <time>2026-02-02T13:30:13Z</time>
      </trkpt>
      <trkpt lat="48.49962" lon="2.14151">
        <ele>182.6</ele>
        <time>2026-02-02T13:30:14Z</time>
      </trkpt>
      <trkpt lat="48.49963" lon="2.14138">
        <ele>182.6</ele>
        <time>2026-02-02T13:30:15Z</time>
      </trkpt>
      <trkpt lat="48.49964" lon="2.14126">
        <ele>182.2</ele>
        <time>2026-02-02T13:30:16Z</time>
      </trkpt>
      <trkpt lat="48.49965" lon="2.14113">
        <ele>182.6</ele>
        <time>2026-02-02T13:30:17Z</time>
      </trkpt>
      <trkpt lat="48.49966" lon="2.141">
        <ele>182.6</ele>
        <time>2026-02-02T13:30:18Z</time>
      </trkpt>
      <trkpt lat="48.49967" lon="2.14088">
        <ele>182.6</ele>
        <time>2026-02-02T13:30:19Z</time>
      </trkpt>
      <trkpt lat="48.49967" lon="2.14075">
        <ele>182.2</ele>
        <time>2026-02-02T13:30:20Z</time>
      </trkpt>
      <trkpt lat="48.49968" lon="2.14062">
        <ele>181.8</ele>
        <time>2026-02-02T13:30:21Z</time>
      </trkpt>
      <trkpt lat="48.49969" lon="2.14049">
        <ele>181.8</ele>
        <time>2026-02-02T13:30:22Z</time>
      </trkpt>
      <trkpt lat="48.49969" lon="2.14036">
        <ele>181.8</ele>
        <time>2026-02-02T13:30:23Z</time>
      </trkpt>
      <trkpt lat="48.4997" lon="2.14023">
        <ele>181.8</ele>
        <time>2026-02-02T13:30:24Z</time>
      </trkpt>
      <trkpt lat="48.4997" lon="2.14009">
        <ele>181</ele>
        <time>2026-02-02T13:30:25Z</time>
      </trkpt>
      <trkpt lat="48.49971" lon="2.13996">
        <ele>181</ele>
        <time>2026-02-02T13:30:26Z</time>
      </trkpt>
      <trkpt lat="48.49971" lon="2.13983">
        <ele>181</ele>
        <time>2026-02-02T13:30:27Z</time>
      </trkpt>
      <trkpt lat="48.49972" lon="2.1397">
        <ele>181.4</ele>
        <time>2026-02-02T13:30:28Z</time>
      </trkpt>
      <trkpt lat="48.49973" lon="2.13956">
        <ele>181</ele>
        <time>2026-02-02T13:30:29Z</time>
      </trkpt>
      <trkpt lat="48.49973" lon="2.13943">
        <ele>181</ele>
        <time>2026-02-02T13:30:30Z</time>
      </trkpt>
      <trkpt lat="48.49974" lon="2.1393">
        <ele>181</ele>
        <time>2026-02-02T13:30:31Z</time>
      </trkpt>
      <trkpt lat="48.49974" lon="2.13916">
        <ele>181</ele>
        <time>2026-02-02T13:30:32Z</time>
      </trkpt>
      <trkpt lat="48.49975" lon="2.13903">
        <ele>181.2</ele>
        <time>2026-02-02T13:30:33Z</time>
      </trkpt>
      <trkpt lat="48.49976" lon="2.1389">
        <ele>181.2</ele>
        <time>2026-02-02T13:30:34Z</time>
      </trkpt>
      <trkpt lat="48.49976" lon="2.13877">
        <ele>181.2</ele>
        <time>2026-02-02T13:30:35Z</time>
      </trkpt>
      <trkpt lat="48.49977" lon="2.13864">
        <ele>180.8</ele>
        <time>2026-02-02T13:30:36Z</time>
      </trkpt>
      <trkpt lat="48.49977" lon="2.1385">
        <ele>181</ele>
        <time>2026-02-02T13:30:37Z</time>
      </trkpt>
      <trkpt lat="48.49978" lon="2.13837">
        <ele>181</ele>
        <time>2026-02-02T13:30:38Z</time>
      </trkpt>
      <trkpt lat="48.49979" lon="2.13824">
        <ele>181</ele>
        <time>2026-02-02T13:30:39Z</time>
      </trkpt>
      <trkpt lat="48.49979" lon="2.1381">
        <ele>180</ele>
        <time>2026-02-02T13:30:40Z</time>
      </trkpt>
      <trkpt lat="48.4998" lon="2.13797">
        <ele>180.2</ele>
        <time>2026-02-02T13:30:41Z</time>
      </trkpt>
      <trkpt lat="48.49981" lon="2.13783">
        <ele>180.2</ele>
        <time>2026-02-02T13:30:42Z</time>
      </trkpt>
      <trkpt lat="48.49982" lon="2.1377">
        <ele>180.2</ele>
        <time>2026-02-02T13:30:43Z</time>
      </trkpt>
      <trkpt lat="48.49982" lon="2.13756">
        <ele>179.8</ele>
        <time>2026-02-02T13:30:44Z</time>
      </trkpt>
      <trkpt lat="48.49983" lon="2.13742">
        <ele>179.4</ele>
        <time>2026-02-02T13:30:45Z</time>
      </trkpt>
      <trkpt lat="48.49983" lon="2.13728">
        <ele>179.4</ele>
        <time>2026-02-02T13:30:46Z</time>
      </trkpt>
      <trkpt lat="48.49984" lon="2.13714">
        <ele>179.4</ele>
        <time>2026-02-02T13:30:47Z</time>
      </trkpt>
      <trkpt lat="48.49985" lon="2.137">
        <ele>179.4</ele>
        <time>2026-02-02T13:30:48Z</time>
      </trkpt>
      <trkpt lat="48.49986" lon="2.13685">
        <ele>178.6</ele>
        <time>2026-02-02T13:30:49Z</time>
      </trkpt>
      <trkpt lat="48.49986" lon="2.13671">
        <ele>178.6</ele>
        <time>2026-02-02T13:30:50Z</time>
      </trkpt>
      <trkpt lat="48.49987" lon="2.13657">
        <ele>178.6</ele>
        <time>2026-02-02T13:30:51Z</time>
      </trkpt>
      <trkpt lat="48.49988" lon="2.13643">
        <ele>178.6</ele>
        <time>2026-02-02T13:30:52Z</time>
      </trkpt>
      <trkpt lat="48.49988" lon="2.13629">
        <ele>178.4</ele>
        <time>2026-02-02T13:30:53Z</time>
      </trkpt>
      <trkpt lat="48.49989" lon="2.13614">
        <ele>178.4</ele>
        <time>2026-02-02T13:30:54Z</time>
      </trkpt>
      <trkpt lat="48.49989" lon="2.136">
        <ele>178.4</ele>
        <time>2026-02-02T13:30:55Z</time>
      </trkpt>
      <trkpt lat="48.4999" lon="2.13586">
        <ele>177.6</ele>
        <time>2026-02-02T13:30:56Z</time>
      </trkpt>
      <trkpt lat="48.49991" lon="2.13572">
        <ele>177.6</ele>
        <time>2026-02-02T13:30:57Z</time>
      </trkpt>
      <trkpt lat="48.49992" lon="2.13558">
        <ele>177.6</ele>
        <time>2026-02-02T13:30:58Z</time>
      </trkpt>
      <trkpt lat="48.49992" lon="2.13544">
        <ele>177.6</ele>
        <time>2026-02-02T13:30:59Z</time>
      </trkpt>
      <trkpt lat="48.49993" lon="2.13531">
        <ele>177.6</ele>
        <time>2026-02-02T13:31:00Z</time>
      </trkpt>
      <trkpt lat="48.49994" lon="2.13517">
        <ele>178</ele>
        <time>2026-02-02T13:31:01Z</time>
      </trkpt>
      <trkpt lat="48.49994" lon="2.13504">
        <ele>178</ele>
        <time>2026-02-02T13:31:02Z</time>
      </trkpt>
      <trkpt lat="48.49995" lon="2.1349">
        <ele>178</ele>
        <time>2026-02-02T13:31:03Z</time>
      </trkpt>
      <trkpt lat="48.49996" lon="2.13477">
        <ele>177.4</ele>
        <time>2026-02-02T13:31:04Z</time>
      </trkpt>
      <trkpt lat="48.49997" lon="2.13464">
        <ele>177.2</ele>
        <time>2026-02-02T13:31:05Z</time>
      </trkpt>
      <trkpt lat="48.49998" lon="2.13452">
        <ele>177.2</ele>
        <time>2026-02-02T13:31:06Z</time>
      </trkpt>
      <trkpt lat="48.49998" lon="2.13441">
        <ele>177.2</ele>
        <time>2026-02-02T13:31:07Z</time>
      </trkpt>
      <trkpt lat="48.49998" lon="2.13431">
        <ele>177.2</ele>
        <time>2026-02-02T13:31:08Z</time>
      </trkpt>
      <trkpt lat="48.49997" lon="2.13421">
        <ele>177</ele>
        <time>2026-02-02T13:31:09Z</time>
      </trkpt>
      <trkpt lat="48.49996" lon="2.13412">
        <ele>177</ele>
        <time>2026-02-02T13:31:10Z</time>
      </trkpt>
      <trkpt lat="48.49993" lon="2.13403">
        <ele>177</ele>
        <time>2026-02-02T13:31:11Z</time>
      </trkpt>
      <trkpt lat="48.4999" lon="2.13394">
        <ele>177</ele>
        <time>2026-02-02T13:31:12Z</time>
      </trkpt>
      <trkpt lat="48.49986" lon="2.13385">
        <ele>176.2</ele>
        <time>2026-02-02T13:31:13Z</time>
      </trkpt>
      <trkpt lat="48.49982" lon="2.13376">
        <ele>176.2</ele>
        <time>2026-02-02T13:31:14Z</time>
      </trkpt>
      <trkpt lat="48.49977" lon="2.13367">
        <ele>176.2</ele>
        <time>2026-02-02T13:31:15Z</time>
      </trkpt>
      <trkpt lat="48.49972" lon="2.13359">
        <ele>176.2</ele>
        <time>2026-02-02T13:31:16Z</time>
      </trkpt>
      <trkpt lat="48.49967" lon="2.13351">
        <ele>176.6</ele>
        <time>2026-02-02T13:31:17Z</time>
      </trkpt>
      <trkpt lat="48.49961" lon="2.13344">
        <ele>176.6</ele>
        <time>2026-02-02T13:31:18Z</time>
      </trkpt>
      <trkpt lat="48.49955" lon="2.13337">
        <ele>176.6</ele>
        <time>2026-02-02T13:31:19Z</time>
      </trkpt>
      <trkpt lat="48.49949" lon="2.1333">
        <ele>175.6</ele>
        <time>2026-02-02T13:31:20Z</time>
      </trkpt>
      <trkpt lat="48.49942" lon="2.13324">
        <ele>175</ele>
        <time>2026-02-02T13:31:21Z</time>
      </trkpt>
      <trkpt lat="48.49936" lon="2.13317">
        <ele>175</ele>
        <time>2026-02-02T13:31:22Z</time>
      </trkpt>
      <trkpt lat="48.49929" lon="2.1331">
        <ele>175</ele>
        <time>2026-02-02T13:31:23Z</time>
      </trkpt>
      <trkpt lat="48.49922" lon="2.13304">
        <ele>175</ele>
        <time>2026-02-02T13:31:24Z</time>
      </trkpt>
      <trkpt lat="48.49915" lon="2.13298">
        <ele>174.4</ele>
        <time>2026-02-02T13:31:25Z</time>
      </trkpt>
      <trkpt lat="48.49907" lon="2.13292">
        <ele>174.4</ele>
        <time>2026-02-02T13:31:26Z</time>
      </trkpt>
      <trkpt lat="48.499" lon="2.13286">
        <ele>174.4</ele>
        <time>2026-02-02T13:31:27Z</time>
      </trkpt>
      <trkpt lat="48.49893" lon="2.1328">
        <ele>173.4</ele>
        <time>2026-02-02T13:31:28Z</time>
      </trkpt>
      <trkpt lat="48.49885" lon="2.13275">
        <ele>172.4</ele>
        <time>2026-02-02T13:31:29Z</time>
      </trkpt>
      <trkpt lat="48.49879" lon="2.1327">
        <ele>172.4</ele>
        <time>2026-02-02T13:31:30Z</time>
      </trkpt>
      <trkpt lat="48.49874" lon="2.13266">
        <ele>172.4</ele>
        <time>2026-02-02T13:31:31Z</time>
      </trkpt>
      <trkpt lat="48.4987" lon="2.13261">
        <ele>173.4</ele>
        <time>2026-02-02T13:31:32Z</time>
      </trkpt>
      <trkpt lat="48.49867" lon="2.13255">
        <ele>172.6</ele>
        <time>2026-02-02T13:31:33Z</time>
      </trkpt>
      <trkpt lat="48.49864" lon="2.1325">
        <ele>172.6</ele>
        <time>2026-02-02T13:31:34Z</time>
      </trkpt>
      <trkpt lat="48.49864" lon="2.13243">
        <ele>172.6</ele>
        <time>2026-02-02T13:31:35Z</time>
      </trkpt>
      <trkpt lat="48.49866" lon="2.13238">
        <ele>172.4</ele>
        <time>2026-02-02T13:31:36Z</time>
      </trkpt>
      <trkpt lat="48.49868" lon="2.13232">
        <ele>172</ele>
        <time>2026-02-02T13:31:37Z</time>
      </trkpt>
      <trkpt lat="48.4987" lon="2.13227">
        <ele>172</ele>
        <time>2026-02-02T13:31:38Z</time>
      </trkpt>
      <trkpt lat="48.49873" lon="2.13222">
        <ele>172</ele>
        <time>2026-02-02T13:31:39Z</time>
      </trkpt>
      <trkpt lat="48.49876" lon="2.13217">
        <ele>172.8</ele>
        <time>2026-02-02T13:31:40Z</time>
      </trkpt>
      <trkpt lat="48.49879" lon="2.13213">
        <ele>173</ele>
        <time>2026-02-02T13:31:41Z</time>
      </trkpt>
      <trkpt lat="48.49882" lon="2.13208">
        <ele>173</ele>
        <time>2026-02-02T13:31:42Z</time>
      </trkpt>
      <trkpt lat="48.49886" lon="2.13204">
        <ele>173</ele>
        <time>2026-02-02T13:31:43Z</time>
      </trkpt>
      <trkpt lat="48.49889" lon="2.13201">
        <ele>173</ele>
        <time>2026-02-02T13:31:44Z</time>
      </trkpt>
      <trkpt lat="48.49893" lon="2.13197">
        <ele>173.6</ele>
        <time>2026-02-02T13:31:45Z</time>
      </trkpt>
      <trkpt lat="48.49897" lon="2.13193">
        <ele>173.6</ele>
        <time>2026-02-02T13:31:46Z</time>
      </trkpt>
      <trkpt lat="48.499" lon="2.1319">
        <ele>173.6</ele>
        <time>2026-02-02T13:31:47Z</time>
      </trkpt>
      <trkpt lat="48.49904" lon="2.13187">
        <ele>174.4</ele>
        <time>2026-02-02T13:31:48Z</time>
      </trkpt>
      <trkpt lat="48.49908" lon="2.13184">
        <ele>174.6</ele>
        <time>2026-02-02T13:31:49Z</time>
      </trkpt>
      <trkpt lat="48.49912" lon="2.13182">
        <ele>174.6</ele>
        <time>2026-02-02T13:31:50Z</time>
      </trkpt>
      <trkpt lat="48.49917" lon="2.1318">
        <ele>174.6</ele>
        <time>2026-02-02T13:31:51Z</time>
      </trkpt>
      <trkpt lat="48.49921" lon="2.13179">
        <ele>175</ele>
        <time>2026-02-02T13:31:52Z</time>
      </trkpt>
      <trkpt lat="48.49925" lon="2.13178">
        <ele>174.8</ele>
        <time>2026-02-02T13:31:53Z</time>
      </trkpt>
      <trkpt lat="48.49929" lon="2.13177">
        <ele>174.8</ele>
        <time>2026-02-02T13:31:54Z</time>
      </trkpt>
      <trkpt lat="48.49933" lon="2.13177">
        <ele>174.8</ele>
        <time>2026-02-02T13:31:55Z</time>
      </trkpt>
      <trkpt lat="48.49937" lon="2.13178">
        <ele>175.2</ele>
        <time>2026-02-02T13:31:56Z</time>
      </trkpt>
      <trkpt lat="48.4994" lon="2.13178">
        <ele>175</ele>
        <time>2026-02-02T13:31:57Z</time>
      </trkpt>
      <trkpt lat="48.49943" lon="2.13179">
        <ele>175</ele>
        <time>2026-02-02T13:31:58Z</time>
      </trkpt>
      <trkpt lat="48.49946" lon="2.13179">
        <ele>175</ele>
        <time>2026-02-02T13:31:59Z</time>
      </trkpt>
      <trkpt lat="48.49949" lon="2.13179">
        <ele>175.6</ele>
        <time>2026-02-02T13:32:00Z</time>
      </trkpt>
      <trkpt lat="48.49952" lon="2.1318">
        <ele>176</ele>
        <time>2026-02-02T13:32:01Z</time>
      </trkpt>
      <trkpt lat="48.49954" lon="2.13179">
        <ele>176</ele>
        <time>2026-02-02T13:32:02Z</time>
      </trkpt>
      <trkpt lat="48.49953" lon="2.13177">
        <ele>176</ele>
        <time>2026-02-02T13:32:03Z</time>
      </trkpt>
      <trkpt lat="48.49952" lon="2.13176">
        <ele>176</ele>
        <time>2026-02-02T13:32:04Z</time>
      </trkpt>
      <trkpt lat="48.4995" lon="2.13175">
        <ele>175.8</ele>
        <time>2026-02-02T13:32:05Z</time>
      </trkpt>
      <trkpt lat="48.49948" lon="2.13175">
        <ele>175.8</ele>
        <time>2026-02-02T13:32:06Z</time>
      </trkpt>
      <trkpt lat="48.49945" lon="2.13175">
        <ele>175.8</ele>
        <time>2026-02-02T13:32:07Z</time>
      </trkpt>
      <trkpt lat="48.49941" lon="2.13175">
        <ele>175.2</ele>
        <time>2026-02-02T13:32:08Z</time>
      </trkpt>
      <trkpt lat="48.49937" lon="2.13174">
        <ele>176</ele>
        <time>2026-02-02T13:32:09Z</time>
      </trkpt>
      <trkpt lat="48.49932" lon="2.13174">
        <ele>176</ele>
        <time>2026-02-02T13:32:10Z</time>
      </trkpt>
      <trkpt lat="48.49928" lon="2.13174">
        <ele>176</ele>
        <time>2026-02-02T13:32:11Z</time>
      </trkpt>
      <trkpt lat="48.49923" lon="2.13176">
        <ele>175.4</ele>
        <time>2026-02-02T13:32:12Z</time>
      </trkpt>
      <trkpt lat="48.49918" lon="2.13177">
        <ele>175.2</ele>
        <time>2026-02-02T13:32:13Z</time>
      </trkpt>
      <trkpt lat="48.49913" lon="2.13179">
        <ele>175.2</ele>
        <time>2026-02-02T13:32:14Z</time>
      </trkpt>
      <trkpt lat="48.49909" lon="2.13182">
        <ele>175.2</ele>
        <time>2026-02-02T13:32:15Z</time>
      </trkpt>
      <trkpt lat="48.49904" lon="2.13186">
        <ele>174.6</ele>
        <time>2026-02-02T13:32:16Z</time>
      </trkpt>
      <trkpt lat="48.49899" lon="2.13189">
        <ele>174</ele>
        <time>2026-02-02T13:32:17Z</time>
      </trkpt>
      <trkpt lat="48.49894" lon="2.13192">
        <ele>174</ele>
        <time>2026-02-02T13:32:18Z</time>
      </trkpt>
      <trkpt lat="48.49889" lon="2.13196">
        <ele>174</ele>
        <time>2026-02-02T13:32:19Z</time>
      </trkpt>
      <trkpt lat="48.49884" lon="2.132">
        <ele>173.2</ele>
        <time>2026-02-02T13:32:20Z</time>
      </trkpt>
      <trkpt lat="48.4988" lon="2.13205">
        <ele>172.8</ele>
        <time>2026-02-02T13:32:21Z</time>
      </trkpt>
      <trkpt lat="48.49876" lon="2.1321">
        <ele>172.8</ele>
        <time>2026-02-02T13:32:22Z</time>
      </trkpt>
      <trkpt lat="48.49872" lon="2.13216">
        <ele>172.8</ele>
        <time>2026-02-02T13:32:23Z</time>
      </trkpt>
      <trkpt lat="48.49869" lon="2.13222">
        <ele>172.8</ele>
        <time>2026-02-02T13:32:24Z</time>
      </trkpt>
      <trkpt lat="48.49865" lon="2.13229">
        <ele>171.8</ele>
        <time>2026-02-02T13:32:25Z</time>
      </trkpt>
      <trkpt lat="48.49862" lon="2.13235">
        <ele>171.8</ele>
        <time>2026-02-02T13:32:26Z</time>
      </trkpt>
      <trkpt lat="48.49859" lon="2.13241">
        <ele>171.8</ele>
        <time>2026-02-02T13:32:27Z</time>
      </trkpt>
      <trkpt lat="48.49855" lon="2.13245">
        <ele>171.8</ele>
        <time>2026-02-02T13:32:28Z</time>
      </trkpt>
      <trkpt lat="48.49851" lon="2.13249">
        <ele>171.6</ele>
        <time>2026-02-02T13:32:29Z</time>
      </trkpt>
      <trkpt lat="48.49846" lon="2.13252">
        <ele>171.6</ele>
        <time>2026-02-02T13:32:30Z</time>
      </trkpt>
      <trkpt lat="48.49841" lon="2.13253">
        <ele>171.6</ele>
        <time>2026-02-02T13:32:31Z</time>
      </trkpt>
      <trkpt lat="48.49836" lon="2.13252">
        <ele>172.4</ele>
        <time>2026-02-02T13:32:32Z</time>
      </trkpt>
      <trkpt lat="48.49831" lon="2.13251">
        <ele>172</ele>
        <time>2026-02-02T13:32:33Z</time>
      </trkpt>
      <trkpt lat="48.49826" lon="2.13249">
        <ele>172</ele>
        <time>2026-02-02T13:32:34Z</time>
      </trkpt>
      <trkpt lat="48.49821" lon="2.13246">
        <ele>172</ele>
        <time>2026-02-02T13:32:35Z</time>
      </trkpt>
      <trkpt lat="48.49816" lon="2.13242">
        <ele>172.6</ele>
        <time>2026-02-02T13:32:36Z</time>
      </trkpt>
      <trkpt lat="48.49811" lon="2.13239">
        <ele>172.8</ele>
        <time>2026-02-02T13:32:37Z</time>
      </trkpt>
      <trkpt lat="48.49805" lon="2.13236">
        <ele>172.8</ele>
        <time>2026-02-02T13:32:38Z</time>
      </trkpt>
      <trkpt lat="48.498" lon="2.13232">
        <ele>172.8</ele>
        <time>2026-02-02T13:32:39Z</time>
      </trkpt>
      <trkpt lat="48.49794" lon="2.13229">
        <ele>173.4</ele>
        <time>2026-02-02T13:32:40Z</time>
      </trkpt>
      <trkpt lat="48.49789" lon="2.13225">
        <ele>173</ele>
        <time>2026-02-02T13:32:41Z</time>
      </trkpt>
      <trkpt lat="48.49784" lon="2.13221">
        <ele>173</ele>
        <time>2026-02-02T13:32:42Z</time>
      </trkpt>
      <trkpt lat="48.49778" lon="2.13218">
        <ele>173</ele>
        <time>2026-02-02T13:32:43Z</time>
      </trkpt>
      <trkpt lat="48.49773" lon="2.13214">
        <ele>173</ele>
        <time>2026-02-02T13:32:44Z</time>
      </trkpt>
      <trkpt lat="48.49768" lon="2.13209">
        <ele>173</ele>
        <time>2026-02-02T13:32:45Z</time>
      </trkpt>
      <trkpt lat="48.49766" lon="2.13202">
        <ele>173</ele>
        <time>2026-02-02T13:32:46Z</time>
      </trkpt>
      <trkpt lat="48.49766" lon="2.13193">
        <ele>173</ele>
        <time>2026-02-02T13:32:47Z</time>
      </trkpt>
      <trkpt lat="48.49768" lon="2.13184">
        <ele>173</ele>
        <time>2026-02-02T13:32:48Z</time>
      </trkpt>
      <trkpt lat="48.49771" lon="2.13175">
        <ele>173</ele>
        <time>2026-02-02T13:32:49Z</time>
      </trkpt>
      <trkpt lat="48.49775" lon="2.13165">
        <ele>173</ele>
        <time>2026-02-02T13:32:50Z</time>
      </trkpt>
      <trkpt lat="48.49778" lon="2.13154">
        <ele>173</ele>
        <time>2026-02-02T13:32:51Z</time>
      </trkpt>
      <trkpt lat="48.49782" lon="2.13142">
        <ele>172</ele>
        <time>2026-02-02T13:32:52Z</time>
      </trkpt>
      <trkpt lat="48.49785" lon="2.13128">
        <ele>167.6</ele>
        <time>2026-02-02T13:32:53Z</time>
      </trkpt>
      <trkpt lat="48.49787" lon="2.13113">
        <ele>167.6</ele>
        <time>2026-02-02T13:32:54Z</time>
      </trkpt>
      <trkpt lat="48.49789" lon="2.13097">
        <ele>167.6</ele>
        <time>2026-02-02T13:32:55Z</time>
      </trkpt>
      <trkpt lat="48.4979" lon="2.13081">
        <ele>166.6</ele>
        <time>2026-02-02T13:32:56Z</time>
      </trkpt>
      <trkpt lat="48.49791" lon="2.13063">
        <ele>165</ele>
        <time>2026-02-02T13:32:57Z</time>
      </trkpt>
      <trkpt lat="48.49792" lon="2.13045">
        <ele>165</ele>
        <time>2026-02-02T13:32:58Z</time>
      </trkpt>
      <trkpt lat="48.49793" lon="2.13027">
        <ele>165</ele>
        <time>2026-02-02T13:32:59Z</time>
      </trkpt>
      <trkpt lat="48.49794" lon="2.13008">
        <ele>164</ele>
        <time>2026-02-02T13:33:00Z</time>
      </trkpt>
      <trkpt lat="48.49794" lon="2.12989">
        <ele>159.6</ele>
        <time>2026-02-02T13:33:01Z</time>
      </trkpt>
      <trkpt lat="48.49795" lon="2.12971">
        <ele>159.6</ele>
        <time>2026-02-02T13:33:02Z</time>
      </trkpt>
      <trkpt lat="48.49796" lon="2.12955">
        <ele>159.6</ele>
        <time>2026-02-02T13:33:03Z</time>
      </trkpt>
      <trkpt lat="48.49797" lon="2.1294">
        <ele>158.6</ele>
        <time>2026-02-02T13:33:04Z</time>
      </trkpt>
      <trkpt lat="48.498" lon="2.12924">
        <ele>155</ele>
        <time>2026-02-02T13:33:05Z</time>
      </trkpt>
      <trkpt lat="48.49804" lon="2.12908">
        <ele>155</ele>
        <time>2026-02-02T13:33:06Z</time>
      </trkpt>
      <trkpt lat="48.49809" lon="2.12893">
        <ele>155</ele>
        <time>2026-02-02T13:33:07Z</time>
      </trkpt>
      <trkpt lat="48.49814" lon="2.12878">
        <ele>154</ele>
        <time>2026-02-02T13:33:08Z</time>
      </trkpt>
      <trkpt lat="48.4982" lon="2.12861">
        <ele>151.2</ele>
        <time>2026-02-02T13:33:09Z</time>
      </trkpt>
      <trkpt lat="48.49825" lon="2.12845">
        <ele>151.2</ele>
        <time>2026-02-02T13:33:10Z</time>
      </trkpt>
      <trkpt lat="48.49831" lon="2.12829">
        <ele>151.2</ele>
        <time>2026-02-02T13:33:11Z</time>
      </trkpt>
      <trkpt lat="48.49839" lon="2.12814">
        <ele>150.2</ele>
        <time>2026-02-02T13:33:12Z</time>
      </trkpt>
      <trkpt lat="48.49847" lon="2.12801">
        <ele>146.4</ele>
        <time>2026-02-02T13:33:13Z</time>
      </trkpt>
      <trkpt lat="48.49857" lon="2.12788">
        <ele>146.4</ele>
        <time>2026-02-02T13:33:14Z</time>
      </trkpt>
      <trkpt lat="48.49867" lon="2.12776">
        <ele>146.4</ele>
        <time>2026-02-02T13:33:15Z</time>
      </trkpt>
      <trkpt lat="48.49878" lon="2.12764">
        <ele>145.4</ele>
        <time>2026-02-02T13:33:16Z</time>
      </trkpt>
      <trkpt lat="48.49888" lon="2.12751">
        <ele>142.2</ele>
        <time>2026-02-02T13:33:17Z</time>
      </trkpt>
      <trkpt lat="48.49899" lon="2.12739">
        <ele>142.2</ele>
        <time>2026-02-02T13:33:18Z</time>
      </trkpt>
      <trkpt lat="48.4991" lon="2.12728">
        <ele>142.2</ele>
        <time>2026-02-02T13:33:19Z</time>
      </trkpt>
      <trkpt lat="48.49922" lon="2.12716">
        <ele>141.2</ele>
        <time>2026-02-02T13:33:20Z</time>
      </trkpt>
      <trkpt lat="48.49934" lon="2.12705">
        <ele>138.6</ele>
        <time>2026-02-02T13:33:21Z</time>
      </trkpt>
      <trkpt lat="48.49945" lon="2.12694">
        <ele>138.6</ele>
        <time>2026-02-02T13:33:22Z</time>
      </trkpt>
      <trkpt lat="48.49957" lon="2.12683">
        <ele>138.6</ele>
        <time>2026-02-02T13:33:23Z</time>
      </trkpt>
      <trkpt lat="48.49969" lon="2.12672">
        <ele>137.6</ele>
        <time>2026-02-02T13:33:24Z</time>
      </trkpt>
      <trkpt lat="48.49981" lon="2.12661">
        <ele>133.6</ele>
        <time>2026-02-02T13:33:25Z</time>
      </trkpt>
      <trkpt lat="48.49992" lon="2.12648">
        <ele>133.6</ele>
        <time>2026-02-02T13:33:26Z</time>
      </trkpt>
      <trkpt lat="48.50003" lon="2.12636">
        <ele>133.6</ele>
        <time>2026-02-02T13:33:27Z</time>
      </trkpt>
      <trkpt lat="48.50015" lon="2.12625">
        <ele>132.6</ele>
        <time>2026-02-02T13:33:28Z</time>
      </trkpt>
      <trkpt lat="48.50027" lon="2.12616">
        <ele>130.6</ele>
        <time>2026-02-02T13:33:29Z</time>
      </trkpt>
      <trkpt lat="48.50039" lon="2.12608">
        <ele>130.6</ele>
        <time>2026-02-02T13:33:30Z</time>
      </trkpt>
      <trkpt lat="48.50052" lon="2.12601">
        <ele>130.6</ele>
        <time>2026-02-02T13:33:31Z</time>
      </trkpt>
      <trkpt lat="48.50064" lon="2.12595">
        <ele>129.6</ele>
        <time>2026-02-02T13:33:32Z</time>
      </trkpt>
      <trkpt lat="48.50076" lon="2.12589">
        <ele>128.8</ele>
        <time>2026-02-02T13:33:33Z</time>
      </trkpt>
      <trkpt lat="48.50088" lon="2.12583">
        <ele>128.8</ele>
        <time>2026-02-02T13:33:34Z</time>
      </trkpt>
      <trkpt lat="48.50099" lon="2.12576">
        <ele>128.8</ele>
        <time>2026-02-02T13:33:35Z</time>
      </trkpt>
      <trkpt lat="48.5011" lon="2.12571">
        <ele>128.8</ele>
        <time>2026-02-02T13:33:36Z</time>
      </trkpt>
      <trkpt lat="48.50121" lon="2.12565">
        <ele>128.2</ele>
        <time>2026-02-02T13:33:37Z</time>
      </trkpt>
      <trkpt lat="48.50131" lon="2.12561">
        <ele>128.2</ele>
        <time>2026-02-02T13:33:38Z</time>
      </trkpt>
      <trkpt lat="48.50142" lon="2.12557">
        <ele>128.2</ele>
        <time>2026-02-02T13:33:39Z</time>
      </trkpt>
      <trkpt lat="48.50152" lon="2.12554">
        <ele>128</ele>
        <time>2026-02-02T13:33:40Z</time>
      </trkpt>
      <trkpt lat="48.50162" lon="2.12551">
        <ele>127.4</ele>
        <time>2026-02-02T13:33:41Z</time>
      </trkpt>
      <trkpt lat="48.50172" lon="2.12548">
        <ele>127.4</ele>
        <time>2026-02-02T13:33:42Z</time>
      </trkpt>
      <trkpt lat="48.50182" lon="2.12546">
        <ele>127.4</ele>
        <time>2026-02-02T13:33:43Z</time>
      </trkpt>
      <trkpt lat="48.50192" lon="2.12543">
        <ele>127.4</ele>
        <time>2026-02-02T13:33:44Z</time>
      </trkpt>
      <trkpt lat="48.50202" lon="2.12541">
        <ele>127.4</ele>
        <time>2026-02-02T13:33:45Z</time>
      </trkpt>
      <trkpt lat="48.50212" lon="2.12539">
        <ele>127.4</ele>
        <time>2026-02-02T13:33:46Z</time>
      </trkpt>
      <trkpt lat="48.50222" lon="2.12537">
        <ele>127.4</ele>
        <time>2026-02-02T13:33:47Z</time>
      </trkpt>
      <trkpt lat="48.50232" lon="2.12535">
        <ele>127.4</ele>
        <time>2026-02-02T13:33:48Z</time>
      </trkpt>
      <trkpt lat="48.50242" lon="2.12533">
        <ele>127.2</ele>
        <time>2026-02-02T13:33:49Z</time>
      </trkpt>
      <trkpt lat="48.50251" lon="2.12532">
        <ele>127.2</ele>
        <time>2026-02-02T13:33:50Z</time>
      </trkpt>
      <trkpt lat="48.50261" lon="2.12531">
        <ele>127.2</ele>
        <time>2026-02-02T13:33:51Z</time>
      </trkpt>
      <trkpt lat="48.5027" lon="2.1253">
        <ele>126.2</ele>
        <time>2026-02-02T13:33:52Z</time>
      </trkpt>
      <trkpt lat="48.5028" lon="2.12529">
        <ele>126</ele>
        <time>2026-02-02T13:33:53Z</time>
      </trkpt>
      <trkpt lat="48.50289" lon="2.12528">
        <ele>126</ele>
        <time>2026-02-02T13:33:54Z</time>
      </trkpt>
      <trkpt lat="48.50298" lon="2.12527">
        <ele>126</ele>
        <time>2026-02-02T13:33:55Z</time>
      </trkpt>
      <trkpt lat="48.50308" lon="2.12526">
        <ele>125.4</ele>
        <time>2026-02-02T13:33:56Z</time>
      </trkpt>
      <trkpt lat="48.50317" lon="2.12525">
        <ele>125.2</ele>
        <time>2026-02-02T13:33:57Z</time>
      </trkpt>
      <trkpt lat="48.50326" lon="2.12524">
        <ele>125.2</ele>
        <time>2026-02-02T13:33:58Z</time>
      </trkpt>
      <trkpt lat="48.50335" lon="2.12523">
        <ele>125.2</ele>
        <time>2026-02-02T13:33:59Z</time>
      </trkpt>
      <trkpt lat="48.50344" lon="2.12523">
        <ele>124.4</ele>
        <time>2026-02-02T13:34:00Z</time>
      </trkpt>
      <trkpt lat="48.50353" lon="2.12522">
        <ele>125</ele>
        <time>2026-02-02T13:34:01Z</time>
      </trkpt>
      <trkpt lat="48.50362" lon="2.12522">
        <ele>125</ele>
        <time>2026-02-02T13:34:02Z</time>
      </trkpt>
      <trkpt lat="48.50371" lon="2.12524">
        <ele>125</ele>
        <time>2026-02-02T13:34:03Z</time>
      </trkpt>
      <trkpt lat="48.5038" lon="2.12526">
        <ele>124</ele>
        <time>2026-02-02T13:34:04Z</time>
      </trkpt>
      <trkpt lat="48.50388" lon="2.12529">
        <ele>124.6</ele>
        <time>2026-02-02T13:34:05Z</time>
      </trkpt>
      <trkpt lat="48.50397" lon="2.12532">
        <ele>124.6</ele>
        <time>2026-02-02T13:34:06Z</time>
      </trkpt>
      <trkpt lat="48.50405" lon="2.12535">
        <ele>124.6</ele>
        <time>2026-02-02T13:34:07Z</time>
      </trkpt>
      <trkpt lat="48.50414" lon="2.12538">
        <ele>123.6</ele>
        <time>2026-02-02T13:34:08Z</time>
      </trkpt>
      <trkpt lat="48.50422" lon="2.12541">
        <ele>124.2</ele>
        <time>2026-02-02T13:34:09Z</time>
      </trkpt>
      <trkpt lat="48.5043" lon="2.12544">
        <ele>124.2</ele>
        <time>2026-02-02T13:34:10Z</time>
      </trkpt>
      <trkpt lat="48.50438" lon="2.12547">
        <ele>124.2</ele>
        <time>2026-02-02T13:34:11Z</time>
      </trkpt>
      <trkpt lat="48.50446" lon="2.1255">
        <ele>124</ele>
        <time>2026-02-02T13:34:12Z</time>
      </trkpt>
      <trkpt lat="48.50453" lon="2.12554">
        <ele>124.8</ele>
        <time>2026-02-02T13:34:13Z</time>
      </trkpt>
      <trkpt lat="48.50461" lon="2.12559">
        <ele>124.8</ele>
        <time>2026-02-02T13:34:14Z</time>
      </trkpt>
      <trkpt lat="48.50468" lon="2.12564">
        <ele>124.8</ele>
        <time>2026-02-02T13:34:15Z</time>
      </trkpt>
      <trkpt lat="48.50474" lon="2.12569">
        <ele>124.8</ele>
        <time>2026-02-02T13:34:16Z</time>
      </trkpt>
      <trkpt lat="48.5048" lon="2.12574">
        <ele>125.2</ele>
        <time>2026-02-02T13:34:17Z</time>
      </trkpt>
      <trkpt lat="48.50486" lon="2.1258">
        <ele>125.2</ele>
        <time>2026-02-02T13:34:18Z</time>
      </trkpt>
      <trkpt lat="48.50492" lon="2.12585">
        <ele>125.2</ele>
        <time>2026-02-02T13:34:19Z</time>
      </trkpt>
      <trkpt lat="48.50498" lon="2.1259">
        <ele>125.2</ele>
        <time>2026-02-02T13:34:20Z</time>
      </trkpt>
      <trkpt lat="48.50503" lon="2.12595">
        <ele>125.8</ele>
        <time>2026-02-02T13:34:21Z</time>
      </trkpt>
      <trkpt lat="48.50508" lon="2.12599">
        <ele>125.8</ele>
        <time>2026-02-02T13:34:22Z</time>
      </trkpt>
      <trkpt lat="48.50513" lon="2.12604">
        <ele>125.8</ele>
        <time>2026-02-02T13:34:23Z</time>
      </trkpt>
      <trkpt lat="48.50518" lon="2.12608">
        <ele>125.8</ele>
        <time>2026-02-02T13:34:24Z</time>
      </trkpt>
      <trkpt lat="48.50522" lon="2.12612">
        <ele>126.4</ele>
        <time>2026-02-02T13:34:25Z</time>
      </trkpt>
      <trkpt lat="48.50527" lon="2.12616">
        <ele>126.4</ele>
        <time>2026-02-02T13:34:26Z</time>
      </trkpt>
      <trkpt lat="48.50531" lon="2.12619">
        <ele>126.4</ele>
        <time>2026-02-02T13:34:27Z</time>
      </trkpt>
      <trkpt lat="48.50536" lon="2.12623">
        <ele>126.4</ele>
        <time>2026-02-02T13:34:28Z</time>
      </trkpt>
      <trkpt lat="48.5054" lon="2.12627">
        <ele>126.8</ele>
        <time>2026-02-02T13:34:29Z</time>
      </trkpt>
      <trkpt lat="48.50545" lon="2.1263">
        <ele>126.8</ele>
        <time>2026-02-02T13:34:30Z</time>
      </trkpt>
      <trkpt lat="48.5055" lon="2.12634">
        <ele>126.8</ele>
        <time>2026-02-02T13:34:31Z</time>
      </trkpt>
      <trkpt lat="48.50554" lon="2.12637">
        <ele>127.4</ele>
        <time>2026-02-02T13:34:32Z</time>
      </trkpt>
      <trkpt lat="48.50559" lon="2.1264">
        <ele>127.4</ele>
        <time>2026-02-02T13:34:33Z</time>
      </trkpt>
      <trkpt lat="48.50564" lon="2.12643">
        <ele>127.4</ele>
        <time>2026-02-02T13:34:34Z</time>
      </trkpt>
      <trkpt lat="48.50569" lon="2.12646">
        <ele>127.4</ele>
        <time>2026-02-02T13:34:35Z</time>
      </trkpt>
      <trkpt lat="48.50574" lon="2.12648">
        <ele>127.4</ele>
        <time>2026-02-02T13:34:36Z</time>
      </trkpt>
      <trkpt lat="48.50578" lon="2.12651">
        <ele>128</ele>
        <time>2026-02-02T13:34:37Z</time>
      </trkpt>
      <trkpt lat="48.50583" lon="2.12653">
        <ele>128</ele>
        <time>2026-02-02T13:34:38Z</time>
      </trkpt>
      <trkpt lat="48.50589" lon="2.12655">
        <ele>128</ele>
        <time>2026-02-02T13:34:39Z</time>
      </trkpt>
      <trkpt lat="48.50594" lon="2.12657">
        <ele>128</ele>
        <time>2026-02-02T13:34:40Z</time>
      </trkpt>
      <trkpt lat="48.50599" lon="2.12659">
        <ele>127.4</ele>
        <time>2026-02-02T13:34:41Z</time>
      </trkpt>
      <trkpt lat="48.50604" lon="2.12661">
        <ele>127.4</ele>
        <time>2026-02-02T13:34:42Z</time>
      </trkpt>
      <trkpt lat="48.5061" lon="2.12662">
        <ele>127.4</ele>
        <time>2026-02-02T13:34:43Z</time>
      </trkpt>
      <trkpt lat="48.50615" lon="2.12664">
        <ele>126.8</ele>
        <time>2026-02-02T13:34:44Z</time>
      </trkpt>
      <trkpt lat="48.50621" lon="2.12666">
        <ele>127.2</ele>
        <time>2026-02-02T13:34:45Z</time>
      </trkpt>
      <trkpt lat="48.50627" lon="2.12667">
        <ele>127.2</ele>
        <time>2026-02-02T13:34:46Z</time>
      </trkpt>
      <trkpt lat="48.50633" lon="2.12669">
        <ele>127.2</ele>
        <time>2026-02-02T13:34:47Z</time>
      </trkpt>
      <trkpt lat="48.50639" lon="2.12671">
        <ele>126.6</ele>
        <time>2026-02-02T13:34:48Z</time>
      </trkpt>
      <trkpt lat="48.50646" lon="2.12673">
        <ele>126.6</ele>
        <time>2026-02-02T13:34:49Z</time>
      </trkpt>
      <trkpt lat="48.50652" lon="2.12676">
        <ele>126.6</ele>
        <time>2026-02-02T13:34:50Z</time>
      </trkpt>
      <trkpt lat="48.50659" lon="2.12678">
        <ele>126.6</ele>
        <time>2026-02-02T13:34:51Z</time>
      </trkpt>
      <trkpt lat="48.50665" lon="2.1268">
        <ele>125.8</ele>
        <time>2026-02-02T13:34:52Z</time>
      </trkpt>
      <trkpt lat="48.50672" lon="2.12682">
        <ele>126</ele>
        <time>2026-02-02T13:34:53Z</time>
      </trkpt>
      <trkpt lat="48.50679" lon="2.12685">
        <ele>126</ele>
        <time>2026-02-02T13:34:54Z</time>
      </trkpt>
      <trkpt lat="48.50686" lon="2.12687">
        <ele>126</ele>
        <time>2026-02-02T13:34:55Z</time>
      </trkpt>
      <trkpt lat="48.50693" lon="2.1269">
        <ele>125.2</ele>
        <time>2026-02-02T13:34:56Z</time>
      </trkpt>
      <trkpt lat="48.50699" lon="2.12692">
        <ele>125</ele>
        <time>2026-02-02T13:34:57Z</time>
      </trkpt>
      <trkpt lat="48.50706" lon="2.12695">
        <ele>125</ele>
        <time>2026-02-02T13:34:58Z</time>
      </trkpt>
      <trkpt lat="48.50713" lon="2.12698">
        <ele>125</ele>
        <time>2026-02-02T13:34:59Z</time>
      </trkpt>
      <trkpt lat="48.50721" lon="2.127">
        <ele>125</ele>
        <time>2026-02-02T13:35:00Z</time>
      </trkpt>
      <trkpt lat="48.50728" lon="2.12703">
        <ele>124.8</ele>
        <time>2026-02-02T13:35:01Z</time>
      </trkpt>
      <trkpt lat="48.50735" lon="2.12705">
        <ele>124.8</ele>
        <time>2026-02-02T13:35:02Z</time>
      </trkpt>
      <trkpt lat="48.50742" lon="2.12708">
        <ele>124.8</ele>
        <time>2026-02-02T13:35:03Z</time>
      </trkpt>
      <trkpt lat="48.5075" lon="2.12711">
        <ele>124</ele>
        <time>2026-02-02T13:35:04Z</time>
      </trkpt>
      <trkpt lat="48.50757" lon="2.12714">
        <ele>123.8</ele>
        <time>2026-02-02T13:35:05Z</time>
      </trkpt>
      <trkpt lat="48.50764" lon="2.12717">
        <ele>123.8</ele>
        <time>2026-02-02T13:35:06Z</time>
      </trkpt>
      <trkpt lat="48.50771" lon="2.12719">
        <ele>123.8</ele>
        <time>2026-02-02T13:35:07Z</time>
      </trkpt>
      <trkpt lat="48.50779" lon="2.12722">
        <ele>123.8</ele>
        <time>2026-02-02T13:35:08Z</time>
      </trkpt>
      <trkpt lat="48.50786" lon="2.12725">
        <ele>123.6</ele>
        <time>2026-02-02T13:35:09Z</time>
      </trkpt>
      <trkpt lat="48.50793" lon="2.12727">
        <ele>123.6</ele>
        <time>2026-02-02T13:35:10Z</time>
      </trkpt>
      <trkpt lat="48.508" lon="2.12729">
        <ele>123.6</ele>
        <time>2026-02-02T13:35:11Z</time>
      </trkpt>
      <trkpt lat="48.50807" lon="2.12731">
        <ele>123.6</ele>
        <time>2026-02-02T13:35:12Z</time>
      </trkpt>
      <trkpt lat="48.50814" lon="2.12733">
        <ele>123.2</ele>
        <time>2026-02-02T13:35:13Z</time>
      </trkpt>
      <trkpt lat="48.50821" lon="2.12734">
        <ele>123.2</ele>
        <time>2026-02-02T13:35:14Z</time>
      </trkpt>
      <trkpt lat="48.50828" lon="2.12734">
        <ele>123.2</ele>
        <time>2026-02-02T13:35:15Z</time>
      </trkpt>
      <trkpt lat="48.50835" lon="2.12734">
        <ele>122.6</ele>
        <time>2026-02-02T13:35:16Z</time>
      </trkpt>
      <trkpt lat="48.50842" lon="2.12733">
        <ele>122.6</ele>
        <time>2026-02-02T13:35:17Z</time>
      </trkpt>
      <trkpt lat="48.50849" lon="2.12733">
        <ele>122.6</ele>
        <time>2026-02-02T13:35:18Z</time>
      </trkpt>
      <trkpt lat="48.50855" lon="2.12732">
        <ele>122.6</ele>
        <time>2026-02-02T13:35:19Z</time>
      </trkpt>
      <trkpt lat="48.50862" lon="2.12731">
        <ele>122.6</ele>
        <time>2026-02-02T13:35:20Z</time>
      </trkpt>
      <trkpt lat="48.50869" lon="2.12731">
        <ele>122.2</ele>
        <time>2026-02-02T13:35:21Z</time>
      </trkpt>
      <trkpt lat="48.50876" lon="2.1273">
        <ele>122.2</ele>
        <time>2026-02-02T13:35:22Z</time>
      </trkpt>
      <trkpt lat="48.50883" lon="2.12729">
        <ele>122.2</ele>
        <time>2026-02-02T13:35:23Z</time>
      </trkpt>
      <trkpt lat="48.5089" lon="2.12728">
        <ele>122.2</ele>
        <time>2026-02-02T13:35:24Z</time>
      </trkpt>
      <trkpt lat="48.50897" lon="2.12727">
        <ele>122.2</ele>
        <time>2026-02-02T13:35:25Z</time>
      </trkpt>
      <trkpt lat="48.50904" lon="2.12727">
        <ele>122.2</ele>
        <time>2026-02-02T13:35:26Z</time>
      </trkpt>
      <trkpt lat="48.50911" lon="2.12726">
        <ele>122.2</ele>
        <time>2026-02-02T13:35:27Z</time>
      </trkpt>
      <trkpt lat="48.50918" lon="2.12725">
        <ele>121.8</ele>
        <time>2026-02-02T13:35:28Z</time>
      </trkpt>
      <trkpt lat="48.50925" lon="2.12724">
        <ele>121.8</ele>
        <time>2026-02-02T13:35:29Z</time>
      </trkpt>
      <trkpt lat="48.50932" lon="2.12723">
        <ele>121.8</ele>
        <time>2026-02-02T13:35:30Z</time>
      </trkpt>
      <trkpt lat="48.50939" lon="2.12723">
        <ele>121.8</ele>
        <time>2026-02-02T13:35:31Z</time>
      </trkpt>
      <trkpt lat="48.50947" lon="2.12722">
        <ele>121.8</ele>
        <time>2026-02-02T13:35:32Z</time>
      </trkpt>
      <trkpt lat="48.50954" lon="2.12721">
        <ele>120.4</ele>
        <time>2026-02-02T13:35:33Z</time>
      </trkpt>
      <trkpt lat="48.50961" lon="2.1272">
        <ele>120.4</ele>
        <time>2026-02-02T13:35:34Z</time>
      </trkpt>
      <trkpt lat="48.50967" lon="2.1272">
        <ele>120.4</ele>
        <time>2026-02-02T13:35:35Z</time>
      </trkpt>
      <trkpt lat="48.5097" lon="2.1272">
        <ele>120.4</ele>
        <time>2026-02-02T13:35:36Z</time>
      </trkpt>
      <trkpt lat="48.50971" lon="2.1272">
        <ele>120.8</ele>
        <time>2026-02-02T13:35:37Z</time>
      </trkpt>
      <trkpt lat="48.50971" lon="2.1272">
        <ele>120.8</ele>
        <time>2026-02-02T13:35:38Z</time>
      </trkpt>
      <trkpt lat="48.50971" lon="2.1272">
        <ele>120.8</ele>
        <time>2026-02-02T13:35:39Z</time>
      </trkpt>
      <trkpt lat="48.50976" lon="2.1272">
        <ele>121.2</ele>
        <time>2026-02-02T13:35:59Z</time>
      </trkpt>
      <trkpt lat="48.50978" lon="2.1272">
        <ele>121.2</ele>
        <time>2026-02-02T13:36:00Z</time>
      </trkpt>
      <trkpt lat="48.50981" lon="2.12719">
        <ele>121</ele>
        <time>2026-02-02T13:36:01Z</time>
      </trkpt>
      <trkpt lat="48.50984" lon="2.12718">
        <ele>121</ele>
        <time>2026-02-02T13:36:02Z</time>
      </trkpt>
      <trkpt lat="48.50988" lon="2.12717">
        <ele>121</ele>
        <time>2026-02-02T13:36:03Z</time>
      </trkpt>
      <trkpt lat="48.50992" lon="2.12716">
        <ele>120</ele>
        <time>2026-02-02T13:36:04Z</time>
      </trkpt>
      <trkpt lat="48.50997" lon="2.12715">
        <ele>119.6</ele>
        <time>2026-02-02T13:36:05Z</time>
      </trkpt>
      <trkpt lat="48.51002" lon="2.12714">
        <ele>119.6</ele>
        <time>2026-02-02T13:36:06Z</time>
      </trkpt>
      <trkpt lat="48.51008" lon="2.12713">
        <ele>119.6</ele>
        <time>2026-02-02T13:36:07Z</time>
      </trkpt>
      <trkpt lat="48.51014" lon="2.12711">
        <ele>119.2</ele>
        <time>2026-02-02T13:36:08Z</time>
      </trkpt>
      <trkpt lat="48.5102" lon="2.12709">
        <ele>119</ele>
        <time>2026-02-02T13:36:09Z</time>
      </trkpt>
      <trkpt lat="48.51026" lon="2.12707">
        <ele>119</ele>
        <time>2026-02-02T13:36:10Z</time>
      </trkpt>
      <trkpt lat="48.51032" lon="2.12705">
        <ele>119</ele>
        <time>2026-02-02T13:36:11Z</time>
      </trkpt>
      <trkpt lat="48.51039" lon="2.12704">
        <ele>118.2</ele>
        <time>2026-02-02T13:36:12Z</time>
      </trkpt>
      <trkpt lat="48.51045" lon="2.12702">
        <ele>118.2</ele>
        <time>2026-02-02T13:36:13Z</time>
      </trkpt>
      <trkpt lat="48.51052" lon="2.12701">
        <ele>118.2</ele>
        <time>2026-02-02T13:36:14Z</time>
      </trkpt>
      <trkpt lat="48.51059" lon="2.127">
        <ele>118.2</ele>
        <time>2026-02-02T13:36:15Z</time>
      </trkpt>
      <trkpt lat="48.51066" lon="2.12699">
        <ele>117.4</ele>
        <time>2026-02-02T13:36:16Z</time>
      </trkpt>
      <trkpt lat="48.51073" lon="2.12699">
        <ele>117.8</ele>
        <time>2026-02-02T13:36:17Z</time>
      </trkpt>
      <trkpt lat="48.5108" lon="2.12699">
        <ele>117.8</ele>
        <time>2026-02-02T13:36:18Z</time>
      </trkpt>
      <trkpt lat="48.51087" lon="2.12699">
        <ele>117.8</ele>
        <time>2026-02-02T13:36:19Z</time>
      </trkpt>
      <trkpt lat="48.51094" lon="2.12699">
        <ele>117.6</ele>
        <time>2026-02-02T13:36:20Z</time>
      </trkpt>
      <trkpt lat="48.51101" lon="2.12699">
        <ele>117.2</ele>
        <time>2026-02-02T13:36:21Z</time>
      </trkpt>
      <trkpt lat="48.51108" lon="2.12699">
        <ele>117.2</ele>
        <time>2026-02-02T13:36:22Z</time>
      </trkpt>
      <trkpt lat="48.51115" lon="2.12699">
        <ele>117.2</ele>
        <time>2026-02-02T13:36:23Z</time>
      </trkpt>
      <trkpt lat="48.51122" lon="2.12699">
        <ele>117</ele>
        <time>2026-02-02T13:36:24Z</time>
      </trkpt>
      <trkpt lat="48.51129" lon="2.12698">
        <ele>116.4</ele>
        <time>2026-02-02T13:36:25Z</time>
      </trkpt>
      <trkpt lat="48.51136" lon="2.12698">
        <ele>116.4</ele>
        <time>2026-02-02T13:36:26Z</time>
      </trkpt>
      <trkpt lat="48.51143" lon="2.12698">
        <ele>116.4</ele>
        <time>2026-02-02T13:36:27Z</time>
      </trkpt>
      <trkpt lat="48.5115" lon="2.12697">
        <ele>117.2</ele>
        <time>2026-02-02T13:36:28Z</time>
      </trkpt>
      <trkpt lat="48.51157" lon="2.12697">
        <ele>117.4</ele>
        <time>2026-02-02T13:36:29Z</time>
      </trkpt>
      <trkpt lat="48.51164" lon="2.12696">
        <ele>117.4</ele>
        <time>2026-02-02T13:36:30Z</time>
      </trkpt>
      <trkpt lat="48.5117" lon="2.12694">
        <ele>117.4</ele>
        <time>2026-02-02T13:36:31Z</time>
      </trkpt>
      <trkpt lat="48.51177" lon="2.12691">
        <ele>117.4</ele>
        <time>2026-02-02T13:36:32Z</time>
      </trkpt>
      <trkpt lat="48.51183" lon="2.12688">
        <ele>116.8</ele>
        <time>2026-02-02T13:36:33Z</time>
      </trkpt>
      <trkpt lat="48.51189" lon="2.12685">
        <ele>116.8</ele>
        <time>2026-02-02T13:36:34Z</time>
      </trkpt>
      <trkpt lat="48.51194" lon="2.12681">
        <ele>116.8</ele>
        <time>2026-02-02T13:36:35Z</time>
      </trkpt>
      <trkpt lat="48.512" lon="2.12678">
        <ele>117.6</ele>
        <time>2026-02-02T13:36:36Z</time>
      </trkpt>
      <trkpt lat="48.51205" lon="2.12674">
        <ele>117</ele>
        <time>2026-02-02T13:36:37Z</time>
      </trkpt>
      <trkpt lat="48.51211" lon="2.1267">
        <ele>117</ele>
        <time>2026-02-02T13:36:38Z</time>
      </trkpt>
      <trkpt lat="48.51216" lon="2.12667">
        <ele>117</ele>
        <time>2026-02-02T13:36:39Z</time>
      </trkpt>
      <trkpt lat="48.51221" lon="2.12663">
        <ele>117.8</ele>
        <time>2026-02-02T13:36:40Z</time>
      </trkpt>
      <trkpt lat="48.51226" lon="2.12659">
        <ele>118.4</ele>
        <time>2026-02-02T13:36:41Z</time>
      </trkpt>
      <trkpt lat="48.51231" lon="2.12655">
        <ele>118.4</ele>
        <time>2026-02-02T13:36:42Z</time>
      </trkpt>
      <trkpt lat="48.51235" lon="2.12652">
        <ele>118.4</ele>
        <time>2026-02-02T13:36:43Z</time>
      </trkpt>
      <trkpt lat="48.5124" lon="2.12648">
        <ele>118.4</ele>
        <time>2026-02-02T13:36:44Z</time>
      </trkpt>
      <trkpt lat="48.51244" lon="2.12645">
        <ele>118.6</ele>
        <time>2026-02-02T13:36:45Z</time>
      </trkpt>
      <trkpt lat="48.51249" lon="2.12641">
        <ele>118.6</ele>
        <time>2026-02-02T13:36:46Z</time>
      </trkpt>
      <trkpt lat="48.51254" lon="2.12638">
        <ele>118.6</ele>
        <time>2026-02-02T13:36:47Z</time>
      </trkpt>
      <trkpt lat="48.51259" lon="2.12634">
        <ele>118.2</ele>
        <time>2026-02-02T13:36:48Z</time>
      </trkpt>
      <trkpt lat="48.51265" lon="2.1263">
        <ele>117.8</ele>
        <time>2026-02-02T13:36:49Z</time>
      </trkpt>
      <trkpt lat="48.51271" lon="2.12626">
        <ele>117.8</ele>
        <time>2026-02-02T13:36:50Z</time>
      </trkpt>
      <trkpt lat="48.51276" lon="2.12622">
        <ele>117.8</ele>
        <time>2026-02-02T13:36:51Z</time>
      </trkpt>
      <trkpt lat="48.51282" lon="2.12618">
        <ele>117.4</ele>
        <time>2026-02-02T13:36:52Z</time>
      </trkpt>
      <trkpt lat="48.51288" lon="2.12614">
        <ele>117.8</ele>
        <time>2026-02-02T13:36:53Z</time>
      </trkpt>
      <trkpt lat="48.51293" lon="2.1261">
        <ele>117.8</ele>
        <time>2026-02-02T13:36:54Z</time>
      </trkpt>
      <trkpt lat="48.51299" lon="2.12606">
        <ele>117.8</ele>
        <time>2026-02-02T13:36:55Z</time>
      </trkpt>
      <trkpt lat="48.51304" lon="2.12602">
        <ele>117.8</ele>
        <time>2026-02-02T13:36:56Z</time>
      </trkpt>
      <trkpt lat="48.5131" lon="2.12598">
        <ele>117.6</ele>
        <time>2026-02-02T13:36:57Z</time>
      </trkpt>
      <trkpt lat="48.51315" lon="2.12595">
        <ele>117.6</ele>
        <time>2026-02-02T13:36:58Z</time>
      </trkpt>
      <trkpt lat="48.5132" lon="2.12591">
        <ele>117.6</ele>
        <time>2026-02-02T13:36:59Z</time>
      </trkpt>
      <trkpt lat="48.51324" lon="2.12588">
        <ele>118.6</ele>
        <time>2026-02-02T13:37:00Z</time>
      </trkpt>
      <trkpt lat="48.51328" lon="2.12584">
        <ele>118.6</ele>
        <time>2026-02-02T13:37:01Z</time>
      </trkpt>
      <trkpt lat="48.51332" lon="2.12581">
        <ele>118.6</ele>
        <time>2026-02-02T13:37:02Z</time>
      </trkpt>
      <trkpt lat="48.51337" lon="2.12578">
        <ele>118.6</ele>
        <time>2026-02-02T13:37:03Z</time>
      </trkpt>
      <trkpt lat="48.51341" lon="2.12576">
        <ele>118.8</ele>
        <time>2026-02-02T13:37:04Z</time>
      </trkpt>
      <trkpt lat="48.51345" lon="2.12573">
        <ele>118.8</ele>
        <time>2026-02-02T13:37:05Z</time>
      </trkpt>
      <trkpt lat="48.51348" lon="2.1257">
        <ele>118.8</ele>
        <time>2026-02-02T13:37:06Z</time>
      </trkpt>
      <trkpt lat="48.51352" lon="2.12569">
        <ele>118.8</ele>
        <time>2026-02-02T13:37:07Z</time>
      </trkpt>
      <trkpt lat="48.51355" lon="2.12565">
        <ele>118.8</ele>
        <time>2026-02-02T13:37:08Z</time>
      </trkpt>
      <trkpt lat="48.51358" lon="2.12561">
        <ele>118.4</ele>
        <time>2026-02-02T13:37:09Z</time>
      </trkpt>
      <trkpt lat="48.51361" lon="2.12556">
        <ele>118.4</ele>
        <time>2026-02-02T13:37:10Z</time>
      </trkpt>
      <trkpt lat="48.51365" lon="2.1255">
        <ele>118.4</ele>
        <time>2026-02-02T13:37:11Z</time>
      </trkpt>
      <trkpt lat="48.51369" lon="2.12544">
        <ele>117.6</ele>
        <time>2026-02-02T13:37:12Z</time>
      </trkpt>
      <trkpt lat="48.51374" lon="2.12538">
        <ele>117.4</ele>
        <time>2026-02-02T13:37:13Z</time>
      </trkpt>
      <trkpt lat="48.51378" lon="2.12533">
        <ele>117.4</ele>
        <time>2026-02-02T13:37:14Z</time>
      </trkpt>
      <trkpt lat="48.51383" lon="2.12526">
        <ele>117.4</ele>
        <time>2026-02-02T13:37:15Z</time>
      </trkpt>
      <trkpt lat="48.51388" lon="2.12519">
        <ele>116.8</ele>
        <time>2026-02-02T13:37:16Z</time>
      </trkpt>
      <trkpt lat="48.51393" lon="2.12512">
        <ele>117</ele>
        <time>2026-02-02T13:37:17Z</time>
      </trkpt>
      <trkpt lat="48.51398" lon="2.12505">
        <ele>117</ele>
        <time>2026-02-02T13:37:18Z</time>
      </trkpt>
      <trkpt lat="48.51403" lon="2.12498">
        <ele>117</ele>
        <time>2026-02-02T13:37:19Z</time>
      </trkpt>
      <trkpt lat="48.51407" lon="2.1249">
        <ele>117</ele>
        <time>2026-02-02T13:37:20Z</time>
      </trkpt>
      <trkpt lat="48.51411" lon="2.12482">
        <ele>116.2</ele>
        <time>2026-02-02T13:37:21Z</time>
      </trkpt>
      <trkpt lat="48.51414" lon="2.12474">
        <ele>116.2</ele>
        <time>2026-02-02T13:37:22Z</time>
      </trkpt>
      <trkpt lat="48.51418" lon="2.12469">
        <ele>116.2</ele>
        <time>2026-02-02T13:37:23Z</time>
      </trkpt>
      <trkpt lat="48.51422" lon="2.12467">
        <ele>116.2</ele>
        <time>2026-02-02T13:37:24Z</time>
      </trkpt>
      <trkpt lat="48.51426" lon="2.12467">
        <ele>116</ele>
        <time>2026-02-02T13:37:25Z</time>
      </trkpt>
      <trkpt lat="48.51428" lon="2.12471">
        <ele>116</ele>
        <time>2026-02-02T13:37:26Z</time>
      </trkpt>
      <trkpt lat="48.51429" lon="2.12476">
        <ele>116</ele>
        <time>2026-02-02T13:37:27Z</time>
      </trkpt>
      <trkpt lat="48.51431" lon="2.12481">
        <ele>116.4</ele>
        <time>2026-02-02T13:37:28Z</time>
      </trkpt>
      <trkpt lat="48.51433" lon="2.12486">
        <ele>116.2</ele>
        <time>2026-02-02T13:37:29Z</time>
      </trkpt>
      <trkpt lat="48.51435" lon="2.12491">
        <ele>116.2</ele>
        <time>2026-02-02T13:37:30Z</time>
      </trkpt>
      <trkpt lat="48.51438" lon="2.12497">
        <ele>116.2</ele>
        <time>2026-02-02T13:37:31Z</time>
      </trkpt>
      <trkpt lat="48.51441" lon="2.12502">
        <ele>116.6</ele>
        <time>2026-02-02T13:37:32Z</time>
      </trkpt>
      <trkpt lat="48.51444" lon="2.12508">
        <ele>116.4</ele>
        <time>2026-02-02T13:37:33Z</time>
      </trkpt>
      <trkpt lat="48.51446" lon="2.12514">
        <ele>116.4</ele>
        <time>2026-02-02T13:37:34Z</time>
      </trkpt>
      <trkpt lat="48.51449" lon="2.1252">
        <ele>116.4</ele>
        <time>2026-02-02T13:37:35Z</time>
      </trkpt>
      <trkpt lat="48.51452" lon="2.12526">
        <ele>116.4</ele>
        <time>2026-02-02T13:37:36Z</time>
      </trkpt>
      <trkpt lat="48.51454" lon="2.12532">
        <ele>117</ele>
        <time>2026-02-02T13:37:37Z</time>
      </trkpt>
      <trkpt lat="48.51456" lon="2.12538">
        <ele>117</ele>
        <time>2026-02-02T13:37:38Z</time>
      </trkpt>
      <trkpt lat="48.51457" lon="2.12545">
        <ele>117</ele>
        <time>2026-02-02T13:37:39Z</time>
      </trkpt>
      <trkpt lat="48.51458" lon="2.12551">
        <ele>117.2</ele>
        <time>2026-02-02T13:37:40Z</time>
      </trkpt>
      <trkpt lat="48.5146" lon="2.12558">
        <ele>117.6</ele>
        <time>2026-02-02T13:37:41Z</time>
      </trkpt>
      <trkpt lat="48.51461" lon="2.12565">
        <ele>117.6</ele>
        <time>2026-02-02T13:37:42Z</time>
      </trkpt>
      <trkpt lat="48.51463" lon="2.12571">
        <ele>117.6</ele>
        <time>2026-02-02T13:37:43Z</time>
      </trkpt>
      <trkpt lat="48.51465" lon="2.12577">
        <ele>118.2</ele>
        <time>2026-02-02T13:37:44Z</time>
      </trkpt>
      <trkpt lat="48.51466" lon="2.12584">
        <ele>118.2</ele>
        <time>2026-02-02T13:37:45Z</time>
      </trkpt>
      <trkpt lat="48.51468" lon="2.1259">
        <ele>118.2</ele>
        <time>2026-02-02T13:37:46Z</time>
      </trkpt>
      <trkpt lat="48.5147" lon="2.12596">
        <ele>118.2</ele>
        <time>2026-02-02T13:37:47Z</time>
      </trkpt>
      <trkpt lat="48.51472" lon="2.12602">
        <ele>118.6</ele>
        <time>2026-02-02T13:37:48Z</time>
      </trkpt>
      <trkpt lat="48.51473" lon="2.12608">
        <ele>119.4</ele>
        <time>2026-02-02T13:37:49Z</time>
      </trkpt>
      <trkpt lat="48.51475" lon="2.12615">
        <ele>119.4</ele>
        <time>2026-02-02T13:37:50Z</time>
      </trkpt>
      <trkpt lat="48.51477" lon="2.12621">
        <ele>119.4</ele>
        <time>2026-02-02T13:37:51Z</time>
      </trkpt>
      <trkpt lat="48.51478" lon="2.12627">
        <ele>119.4</ele>
        <time>2026-02-02T13:37:52Z</time>
      </trkpt>
      <trkpt lat="48.51479" lon="2.12634">
        <ele>119.8</ele>
        <time>2026-02-02T13:37:53Z</time>
      </trkpt>
      <trkpt lat="48.51481" lon="2.1264">
        <ele>119.8</ele>
        <time>2026-02-02T13:37:54Z</time>
      </trkpt>
      <trkpt lat="48.51482" lon="2.12647">
        <ele>119.8</ele>
        <time>2026-02-02T13:37:55Z</time>
      </trkpt>
      <trkpt lat="48.51483" lon="2.12654">
        <ele>120</ele>
        <time>2026-02-02T13:37:56Z</time>
      </trkpt>
      <trkpt lat="48.51485" lon="2.12661">
        <ele>120</ele>
        <time>2026-02-02T13:37:57Z</time>
      </trkpt>
      <trkpt lat="48.51486" lon="2.12668">
        <ele>120</ele>
        <time>2026-02-02T13:37:58Z</time>
      </trkpt>
      <trkpt lat="48.51487" lon="2.12675">
        <ele>120</ele>
        <time>2026-02-02T13:37:59Z</time>
      </trkpt>
      <trkpt lat="48.51489" lon="2.12682">
        <ele>120.4</ele>
        <time>2026-02-02T13:38:00Z</time>
      </trkpt>
      <trkpt lat="48.5149" lon="2.12688">
        <ele>120.2</ele>
        <time>2026-02-02T13:38:01Z</time>
      </trkpt>
      <trkpt lat="48.51492" lon="2.12695">
        <ele>120.2</ele>
        <time>2026-02-02T13:38:02Z</time>
      </trkpt>
      <trkpt lat="48.51494" lon="2.12702">
        <ele>120.2</ele>
        <time>2026-02-02T13:38:03Z</time>
      </trkpt>
      <trkpt lat="48.51495" lon="2.12709">
        <ele>120.2</ele>
        <time>2026-02-02T13:38:04Z</time>
      </trkpt>
      <trkpt lat="48.51497" lon="2.12715">
        <ele>120</ele>
        <time>2026-02-02T13:38:05Z</time>
      </trkpt>
      <trkpt lat="48.51498" lon="2.12723">
        <ele>120</ele>
        <time>2026-02-02T13:38:06Z</time>
      </trkpt>
      <trkpt lat="48.515" lon="2.12731">
        <ele>120</ele>
        <time>2026-02-02T13:38:07Z</time>
      </trkpt>
      <trkpt lat="48.51503" lon="2.12739">
        <ele>119</ele>
        <time>2026-02-02T13:38:08Z</time>
      </trkpt>
      <trkpt lat="48.51505" lon="2.12747">
        <ele>119.2</ele>
        <time>2026-02-02T13:38:09Z</time>
      </trkpt>
      <trkpt lat="48.51507" lon="2.12756">
        <ele>119.2</ele>
        <time>2026-02-02T13:38:10Z</time>
      </trkpt>
      <trkpt lat="48.51509" lon="2.12765">
        <ele>119.2</ele>
        <time>2026-02-02T13:38:11Z</time>
      </trkpt>
      <trkpt lat="48.51512" lon="2.12774">
        <ele>119</ele>
        <time>2026-02-02T13:38:12Z</time>
      </trkpt>
      <trkpt lat="48.51514" lon="2.12783">
        <ele>118.6</ele>
        <time>2026-02-02T13:38:13Z</time>
      </trkpt>
      <trkpt lat="48.51516" lon="2.12793">
        <ele>118.6</ele>
        <time>2026-02-02T13:38:14Z</time>
      </trkpt>
      <trkpt lat="48.51517" lon="2.12802">
        <ele>118.6</ele>
        <time>2026-02-02T13:38:15Z</time>
      </trkpt>
      <trkpt lat="48.5152" lon="2.12811">
        <ele>119.2</ele>
        <time>2026-02-02T13:38:16Z</time>
      </trkpt>
      <trkpt lat="48.51522" lon="2.1282">
        <ele>119</ele>
        <time>2026-02-02T13:38:17Z</time>
      </trkpt>
      <trkpt lat="48.51525" lon="2.12829">
        <ele>119</ele>
        <time>2026-02-02T13:38:18Z</time>
      </trkpt>
      <trkpt lat="48.51527" lon="2.12839">
        <ele>119</ele>
        <time>2026-02-02T13:38:19Z</time>
      </trkpt>
      <trkpt lat="48.5153" lon="2.12848">
        <ele>119</ele>
        <time>2026-02-02T13:38:20Z</time>
      </trkpt>
      <trkpt lat="48.51533" lon="2.12857">
        <ele>119</ele>
        <time>2026-02-02T13:38:21Z</time>
      </trkpt>
      <trkpt lat="48.51535" lon="2.12866">
        <ele>119</ele>
        <time>2026-02-02T13:38:22Z</time>
      </trkpt>
      <trkpt lat="48.51538" lon="2.12875">
        <ele>119</ele>
        <time>2026-02-02T13:38:23Z</time>
      </trkpt>
      <trkpt lat="48.51541" lon="2.12884">
        <ele>119</ele>
        <time>2026-02-02T13:38:24Z</time>
      </trkpt>
      <trkpt lat="48.51544" lon="2.12893">
        <ele>118.6</ele>
        <time>2026-02-02T13:38:25Z</time>
      </trkpt>
      <trkpt lat="48.51547" lon="2.12902">
        <ele>118.6</ele>
        <time>2026-02-02T13:38:26Z</time>
      </trkpt>
      <trkpt lat="48.51549" lon="2.12911">
        <ele>118.6</ele>
        <time>2026-02-02T13:38:27Z</time>
      </trkpt>
      <trkpt lat="48.51552" lon="2.12919">
        <ele>118.6</ele>
        <time>2026-02-02T13:38:28Z</time>
      </trkpt>
      <trkpt lat="48.51555" lon="2.12928">
        <ele>118.8</ele>
        <time>2026-02-02T13:38:29Z</time>
      </trkpt>
      <trkpt lat="48.51558" lon="2.12936">
        <ele>118.8</ele>
        <time>2026-02-02T13:38:30Z</time>
      </trkpt>
      <trkpt lat="48.51561" lon="2.12945">
        <ele>118.8</ele>
        <time>2026-02-02T13:38:31Z</time>
      </trkpt>
      <trkpt lat="48.51564" lon="2.12953">
        <ele>119.4</ele>
        <time>2026-02-02T13:38:32Z</time>
      </trkpt>
      <trkpt lat="48.51567" lon="2.12961">
        <ele>119.4</ele>
        <time>2026-02-02T13:38:33Z</time>
      </trkpt>
      <trkpt lat="48.5157" lon="2.1297">
        <ele>119.4</ele>
        <time>2026-02-02T13:38:34Z</time>
      </trkpt>
      <trkpt lat="48.51572" lon="2.12978">
        <ele>119.4</ele>
        <time>2026-02-02T13:38:35Z</time>
      </trkpt>
      <trkpt lat="48.51575" lon="2.12986">
        <ele>119.4</ele>
        <time>2026-02-02T13:38:36Z</time>
      </trkpt>
      <trkpt lat="48.51579" lon="2.12995">
        <ele>119</ele>
        <time>2026-02-02T13:38:37Z</time>
      </trkpt>
      <trkpt lat="48.51582" lon="2.13003">
        <ele>119</ele>
        <time>2026-02-02T13:38:38Z</time>
      </trkpt>
      <trkpt lat="48.51585" lon="2.13011">
        <ele>119</ele>
        <time>2026-02-02T13:38:39Z</time>
      </trkpt>
      <trkpt lat="48.51588" lon="2.13019">
        <ele>119</ele>
        <time>2026-02-02T13:38:40Z</time>
      </trkpt>
      <trkpt lat="48.51591" lon="2.13028">
        <ele>119.4</ele>
        <time>2026-02-02T13:38:41Z</time>
      </trkpt>
      <trkpt lat="48.51595" lon="2.13036">
        <ele>119.4</ele>
        <time>2026-02-02T13:38:42Z</time>
      </trkpt>
      <trkpt lat="48.51598" lon="2.13044">
        <ele>119.4</ele>
        <time>2026-02-02T13:38:43Z</time>
      </trkpt>
      <trkpt lat="48.51601" lon="2.13053">
        <ele>119.4</ele>
        <time>2026-02-02T13:38:44Z</time>
      </trkpt>
      <trkpt lat="48.51605" lon="2.13061">
        <ele>119.2</ele>
        <time>2026-02-02T13:38:45Z</time>
      </trkpt>
      <trkpt lat="48.51609" lon="2.1307">
        <ele>119.2</ele>
        <time>2026-02-02T13:38:46Z</time>
      </trkpt>
      <trkpt lat="48.51612" lon="2.13079">
        <ele>119.2</ele>
        <time>2026-02-02T13:38:47Z</time>
      </trkpt>
      <trkpt lat="48.51616" lon="2.13087">
        <ele>119.2</ele>
        <time>2026-02-02T13:38:48Z</time>
      </trkpt>
      <trkpt lat="48.5162" lon="2.13095">
        <ele>119</ele>
        <time>2026-02-02T13:38:49Z</time>
      </trkpt>
      <trkpt lat="48.51624" lon="2.13104">
        <ele>119</ele>
        <time>2026-02-02T13:38:50Z</time>
      </trkpt>
      <trkpt lat="48.51629" lon="2.13112">
        <ele>119</ele>
        <time>2026-02-02T13:38:51Z</time>
      </trkpt>
      <trkpt lat="48.51633" lon="2.1312">
        <ele>118.4</ele>
        <time>2026-02-02T13:38:52Z</time>
      </trkpt>
      <trkpt lat="48.51638" lon="2.13127">
        <ele>118.6</ele>
        <time>2026-02-02T13:38:53Z</time>
      </trkpt>
      <trkpt lat="48.51643" lon="2.13135">
        <ele>118.6</ele>
        <time>2026-02-02T13:38:54Z</time>
      </trkpt>
      <trkpt lat="48.51647" lon="2.13143">
        <ele>118.6</ele>
        <time>2026-02-02T13:38:55Z</time>
      </trkpt>
      <trkpt lat="48.51652" lon="2.13151">
        <ele>118.2</ele>
        <time>2026-02-02T13:38:56Z</time>
      </trkpt>
      <trkpt lat="48.51656" lon="2.13158">
        <ele>117.8</ele>
        <time>2026-02-02T13:38:57Z</time>
      </trkpt>
      <trkpt lat="48.51661" lon="2.13166">
        <ele>117.8</ele>
        <time>2026-02-02T13:38:58Z</time>
      </trkpt>
      <trkpt lat="48.51666" lon="2.13173">
        <ele>117.8</ele>
        <time>2026-02-02T13:38:59Z</time>
      </trkpt>
      <trkpt lat="48.51671" lon="2.1318">
        <ele>117.8</ele>
        <time>2026-02-02T13:39:00Z</time>
      </trkpt>
      <trkpt lat="48.51675" lon="2.13187">
        <ele>118.2</ele>
        <time>2026-02-02T13:39:01Z</time>
      </trkpt>
      <trkpt lat="48.5168" lon="2.13194">
        <ele>118.2</ele>
        <time>2026-02-02T13:39:02Z</time>
      </trkpt>
      <trkpt lat="48.51685" lon="2.132">
        <ele>118.2</ele>
        <time>2026-02-02T13:39:03Z</time>
      </trkpt>
      <trkpt lat="48.5169" lon="2.13207">
        <ele>118.2</ele>
        <time>2026-02-02T13:39:04Z</time>
      </trkpt>
      <trkpt lat="48.51694" lon="2.13214">
        <ele>118.2</ele>
        <time>2026-02-02T13:39:05Z</time>
      </trkpt>
      <trkpt lat="48.51698" lon="2.13221">
        <ele>118.2</ele>
        <time>2026-02-02T13:39:06Z</time>
      </trkpt>
      <trkpt lat="48.51702" lon="2.13227">
        <ele>118.2</ele>
        <time>2026-02-02T13:39:07Z</time>
      </trkpt>
      <trkpt lat="48.51706" lon="2.13234">
        <ele>118.2</ele>
        <time>2026-02-02T13:39:08Z</time>
      </trkpt>
      <trkpt lat="48.51711" lon="2.1324">
        <ele>119</ele>
        <time>2026-02-02T13:39:09Z</time>
      </trkpt>
      <trkpt lat="48.51715" lon="2.13246">
        <ele>119</ele>
        <time>2026-02-02T13:39:10Z</time>
      </trkpt>
      <trkpt lat="48.51719" lon="2.13252">
        <ele>119</ele>
        <time>2026-02-02T13:39:11Z</time>
      </trkpt>
      <trkpt lat="48.51723" lon="2.13259">
        <ele>119</ele>
        <time>2026-02-02T13:39:12Z</time>
      </trkpt>
      <trkpt lat="48.51727" lon="2.13265">
        <ele>119</ele>
        <time>2026-02-02T13:39:13Z</time>
      </trkpt>
      <trkpt lat="48.51732" lon="2.13272">
        <ele>119</ele>
        <time>2026-02-02T13:39:14Z</time>
      </trkpt>
      <trkpt lat="48.51736" lon="2.13278">
        <ele>119</ele>
        <time>2026-02-02T13:39:15Z</time>
      </trkpt>
      <trkpt lat="48.5174" lon="2.13284">
        <ele>119</ele>
        <time>2026-02-02T13:39:16Z</time>
      </trkpt>
      <trkpt lat="48.51745" lon="2.13291">
        <ele>119.2</ele>
        <time>2026-02-02T13:39:17Z</time>
      </trkpt>
      <trkpt lat="48.5175" lon="2.13297">
        <ele>119.2</ele>
        <time>2026-02-02T13:39:18Z</time>
      </trkpt>
      <trkpt lat="48.51755" lon="2.13304">
        <ele>119.2</ele>
        <time>2026-02-02T13:39:19Z</time>
      </trkpt>
      <trkpt lat="48.51759" lon="2.1331">
        <ele>119.2</ele>
        <time>2026-02-02T13:39:20Z</time>
      </trkpt>
      <trkpt lat="48.51764" lon="2.13317">
        <ele>119</ele>
        <time>2026-02-02T13:39:21Z</time>
      </trkpt>
      <trkpt lat="48.5177" lon="2.13323">
        <ele>119</ele>
        <time>2026-02-02T13:39:22Z</time>
      </trkpt>
      <trkpt lat="48.51775" lon="2.1333">
        <ele>119</ele>
        <time>2026-02-02T13:39:23Z</time>
      </trkpt>
      <trkpt lat="48.5178" lon="2.13336">
        <ele>118.8</ele>
        <time>2026-02-02T13:39:24Z</time>
      </trkpt>
      <trkpt lat="48.51785" lon="2.13343">
        <ele>118.4</ele>
        <time>2026-02-02T13:39:25Z</time>
      </trkpt>
      <trkpt lat="48.51791" lon="2.1335">
        <ele>118.4</ele>
        <time>2026-02-02T13:39:26Z</time>
      </trkpt>
      <trkpt lat="48.51796" lon="2.13357">
        <ele>118.4</ele>
        <time>2026-02-02T13:39:27Z</time>
      </trkpt>
      <trkpt lat="48.51802" lon="2.13364">
        <ele>118.4</ele>
        <time>2026-02-02T13:39:28Z</time>
      </trkpt>
      <trkpt lat="48.51807" lon="2.13371">
        <ele>117.6</ele>
        <time>2026-02-02T13:39:29Z</time>
      </trkpt>
      <trkpt lat="48.51813" lon="2.13378">
        <ele>117.6</ele>
        <time>2026-02-02T13:39:30Z</time>
      </trkpt>
      <trkpt lat="48.51819" lon="2.13384">
        <ele>117.6</ele>
        <time>2026-02-02T13:39:31Z</time>
      </trkpt>
      <trkpt lat="48.51824" lon="2.13391">
        <ele>118</ele>
        <time>2026-02-02T13:39:32Z</time>
      </trkpt>
      <trkpt lat="48.5183" lon="2.13398">
        <ele>118</ele>
        <time>2026-02-02T13:39:33Z</time>
      </trkpt>
      <trkpt lat="48.51835" lon="2.13404">
        <ele>118</ele>
        <time>2026-02-02T13:39:34Z</time>
      </trkpt>
      <trkpt lat="48.51841" lon="2.13411">
        <ele>118</ele>
        <time>2026-02-02T13:39:35Z</time>
      </trkpt>
      <trkpt lat="48.51846" lon="2.13417">
        <ele>118</ele>
        <time>2026-02-02T13:39:36Z</time>
      </trkpt>
      <trkpt lat="48.51851" lon="2.13423">
        <ele>118.2</ele>
        <time>2026-02-02T13:39:37Z</time>
      </trkpt>
      <trkpt lat="48.51857" lon="2.1343">
        <ele>118.2</ele>
        <time>2026-02-02T13:39:38Z</time>
      </trkpt>
      <trkpt lat="48.51862" lon="2.13436">
        <ele>118.2</ele>
        <time>2026-02-02T13:39:39Z</time>
      </trkpt>
      <trkpt lat="48.51866" lon="2.13442">
        <ele>118.2</ele>
        <time>2026-02-02T13:39:40Z</time>
      </trkpt>
      <trkpt lat="48.51871" lon="2.13449">
        <ele>118.2</ele>
        <time>2026-02-02T13:39:41Z</time>
      </trkpt>
      <trkpt lat="48.51876" lon="2.13456">
        <ele>118.2</ele>
        <time>2026-02-02T13:39:42Z</time>
      </trkpt>
      <trkpt lat="48.5188" lon="2.13462">
        <ele>118.2</ele>
        <time>2026-02-02T13:39:43Z</time>
      </trkpt>
      <trkpt lat="48.51885" lon="2.13469">
        <ele>117.6</ele>
        <time>2026-02-02T13:39:44Z</time>
      </trkpt>
      <trkpt lat="48.5189" lon="2.13476">
        <ele>118</ele>
        <time>2026-02-02T13:39:45Z</time>
      </trkpt>
      <trkpt lat="48.51895" lon="2.13484">
        <ele>118</ele>
        <time>2026-02-02T13:39:46Z</time>
      </trkpt>
      <trkpt lat="48.519" lon="2.13491">
        <ele>118</ele>
        <time>2026-02-02T13:39:47Z</time>
      </trkpt>
      <trkpt lat="48.51905" lon="2.13498">
        <ele>117.4</ele>
        <time>2026-02-02T13:39:48Z</time>
      </trkpt>
      <trkpt lat="48.5191" lon="2.13506">
        <ele>117.6</ele>
        <time>2026-02-02T13:39:49Z</time>
      </trkpt>
      <trkpt lat="48.51915" lon="2.13513">
        <ele>117.6</ele>
        <time>2026-02-02T13:39:50Z</time>
      </trkpt>
      <trkpt lat="48.5192" lon="2.13521">
        <ele>117.6</ele>
        <time>2026-02-02T13:39:51Z</time>
      </trkpt>
      <trkpt lat="48.51924" lon="2.13529">
        <ele>117.6</ele>
        <time>2026-02-02T13:39:52Z</time>
      </trkpt>
      <trkpt lat="48.51928" lon="2.13537">
        <ele>118.2</ele>
        <time>2026-02-02T13:39:53Z</time>
      </trkpt>
      <trkpt lat="48.51933" lon="2.13545">
        <ele>118.2</ele>
        <time>2026-02-02T13:39:54Z</time>
      </trkpt>
      <trkpt lat="48.51937" lon="2.13553">
        <ele>118.2</ele>
        <time>2026-02-02T13:39:55Z</time>
      </trkpt>
      <trkpt lat="48.51941" lon="2.13562">
        <ele>117.2</ele>
        <time>2026-02-02T13:39:56Z</time>
      </trkpt>
      <trkpt lat="48.51945" lon="2.1357">
        <ele>117</ele>
        <time>2026-02-02T13:39:57Z</time>
      </trkpt>
      <trkpt lat="48.5195" lon="2.13579">
        <ele>117</ele>
        <time>2026-02-02T13:39:58Z</time>
      </trkpt>
      <trkpt lat="48.51954" lon="2.13588">
        <ele>117</ele>
        <time>2026-02-02T13:39:59Z</time>
      </trkpt>
      <trkpt lat="48.51958" lon="2.13596">
        <ele>117</ele>
        <time>2026-02-02T13:40:00Z</time>
      </trkpt>
      <trkpt lat="48.51963" lon="2.13605">
        <ele>116.4</ele>
        <time>2026-02-02T13:40:01Z</time>
      </trkpt>
      <trkpt lat="48.51967" lon="2.13615">
        <ele>116.4</ele>
        <time>2026-02-02T13:40:02Z</time>
      </trkpt>
      <trkpt lat="48.51971" lon="2.13624">
        <ele>116.4</ele>
        <time>2026-02-02T13:40:03Z</time>
      </trkpt>
      <trkpt lat="48.51976" lon="2.13633">
        <ele>116.4</ele>
        <time>2026-02-02T13:40:04Z</time>
      </trkpt>
      <trkpt lat="48.5198" lon="2.13642">
        <ele>115.6</ele>
        <time>2026-02-02T13:40:05Z</time>
      </trkpt>
      <trkpt lat="48.51985" lon="2.13651">
        <ele>115.6</ele>
        <time>2026-02-02T13:40:06Z</time>
      </trkpt>
      <trkpt lat="48.51989" lon="2.1366">
        <ele>115.6</ele>
        <time>2026-02-02T13:40:07Z</time>
      </trkpt>
      <trkpt lat="48.51994" lon="2.13669">
        <ele>115.6</ele>
        <time>2026-02-02T13:40:08Z</time>
      </trkpt>
      <trkpt lat="48.51998" lon="2.13678">
        <ele>115.2</ele>
        <time>2026-02-02T13:40:09Z</time>
      </trkpt>
      <trkpt lat="48.52003" lon="2.13687">
        <ele>115.2</ele>
        <time>2026-02-02T13:40:10Z</time>
      </trkpt>
      <trkpt lat="48.52007" lon="2.13695">
        <ele>115.2</ele>
        <time>2026-02-02T13:40:11Z</time>
      </trkpt>
      <trkpt lat="48.52012" lon="2.13704">
        <ele>115.2</ele>
        <time>2026-02-02T13:40:12Z</time>
      </trkpt>
      <trkpt lat="48.52016" lon="2.13713">
        <ele>114.6</ele>
        <time>2026-02-02T13:40:13Z</time>
      </trkpt>
      <trkpt lat="48.5202" lon="2.13721">
        <ele>114.6</ele>
        <time>2026-02-02T13:40:14Z</time>
      </trkpt>
      <trkpt lat="48.52024" lon="2.13729">
        <ele>114.6</ele>
        <time>2026-02-02T13:40:15Z</time>
      </trkpt>
      <trkpt lat="48.52028" lon="2.13737">
        <ele>115.6</ele>
        <time>2026-02-02T13:40:16Z</time>
      </trkpt>
      <trkpt lat="48.52031" lon="2.13746">
        <ele>115.2</ele>
        <time>2026-02-02T13:40:17Z</time>
      </trkpt>
      <trkpt lat="48.52035" lon="2.13754">
        <ele>115.2</ele>
        <time>2026-02-02T13:40:18Z</time>
      </trkpt>
      <trkpt lat="48.52039" lon="2.13762">
        <ele>115.2</ele>
        <time>2026-02-02T13:40:19Z</time>
      </trkpt>
      <trkpt lat="48.52042" lon="2.1377">
        <ele>115.2</ele>
        <time>2026-02-02T13:40:20Z</time>
      </trkpt>
      <trkpt lat="48.52046" lon="2.13779">
        <ele>114.2</ele>
        <time>2026-02-02T13:40:21Z</time>
      </trkpt>
      <trkpt lat="48.5205" lon="2.13787">
        <ele>114.2</ele>
        <time>2026-02-02T13:40:22Z</time>
      </trkpt>
      <trkpt lat="48.52054" lon="2.13796">
        <ele>114.2</ele>
        <time>2026-02-02T13:40:23Z</time>
      </trkpt>
      <trkpt lat="48.52057" lon="2.13805">
        <ele>114.2</ele>
        <time>2026-02-02T13:40:24Z</time>
      </trkpt>
      <trkpt lat="48.52061" lon="2.13814">
        <ele>114.2</ele>
        <time>2026-02-02T13:40:25Z</time>
      </trkpt>
      <trkpt lat="48.52066" lon="2.13824">
        <ele>114.2</ele>
        <time>2026-02-02T13:40:26Z</time>
      </trkpt>
      <trkpt lat="48.5207" lon="2.13833">
        <ele>114.2</ele>
        <time>2026-02-02T13:40:27Z</time>
      </trkpt>
      <trkpt lat="48.52074" lon="2.13843">
        <ele>113.6</ele>
        <time>2026-02-02T13:40:28Z</time>
      </trkpt>
      <trkpt lat="48.52078" lon="2.13853">
        <ele>113.4</ele>
        <time>2026-02-02T13:40:29Z</time>
      </trkpt>
      <trkpt lat="48.52082" lon="2.13862">
        <ele>113.4</ele>
        <time>2026-02-02T13:40:30Z</time>
      </trkpt>
      <trkpt lat="48.52087" lon="2.13872">
        <ele>113.4</ele>
        <time>2026-02-02T13:40:31Z</time>
      </trkpt>
      <trkpt lat="48.52091" lon="2.13882">
        <ele>113.4</ele>
        <time>2026-02-02T13:40:32Z</time>
      </trkpt>
      <trkpt lat="48.52095" lon="2.13891">
        <ele>113</ele>
        <time>2026-02-02T13:40:33Z</time>
      </trkpt>
      <trkpt lat="48.52099" lon="2.13901">
        <ele>113</ele>
        <time>2026-02-02T13:40:34Z</time>
      </trkpt>
      <trkpt lat="48.52103" lon="2.1391">
        <ele>113</ele>
        <time>2026-02-02T13:40:35Z</time>
      </trkpt>
      <trkpt lat="48.52107" lon="2.13919">
        <ele>113.6</ele>
        <time>2026-02-02T13:40:36Z</time>
      </trkpt>
      <trkpt lat="48.52112" lon="2.13928">
        <ele>112.6</ele>
        <time>2026-02-02T13:40:37Z</time>
      </trkpt>
      <trkpt lat="48.52116" lon="2.13937">
        <ele>112.6</ele>
        <time>2026-02-02T13:40:38Z</time>
      </trkpt>
      <trkpt lat="48.52121" lon="2.13947">
        <ele>112.6</ele>
        <time>2026-02-02T13:40:39Z</time>
      </trkpt>
      <trkpt lat="48.52125" lon="2.13956">
        <ele>112.6</ele>
        <time>2026-02-02T13:40:40Z</time>
      </trkpt>
      <trkpt lat="48.5213" lon="2.13965">
        <ele>112.4</ele>
        <time>2026-02-02T13:40:41Z</time>
      </trkpt>
      <trkpt lat="48.52134" lon="2.13973">
        <ele>112.4</ele>
        <time>2026-02-02T13:40:42Z</time>
      </trkpt>
      <trkpt lat="48.52138" lon="2.13982">
        <ele>112.4</ele>
        <time>2026-02-02T13:40:43Z</time>
      </trkpt>
      <trkpt lat="48.52143" lon="2.1399">
        <ele>112.4</ele>
        <time>2026-02-02T13:40:44Z</time>
      </trkpt>
      <trkpt lat="48.52148" lon="2.13998">
        <ele>112.2</ele>
        <time>2026-02-02T13:40:45Z</time>
      </trkpt>
      <trkpt lat="48.52153" lon="2.14007">
        <ele>112.2</ele>
        <time>2026-02-02T13:40:46Z</time>
      </trkpt>
      <trkpt lat="48.52157" lon="2.14015">
        <ele>112.2</ele>
        <time>2026-02-02T13:40:47Z</time>
      </trkpt>
      <trkpt lat="48.52162" lon="2.14022">
        <ele>112.2</ele>
        <time>2026-02-02T13:40:48Z</time>
      </trkpt>
      <trkpt lat="48.52167" lon="2.1403">
        <ele>112.2</ele>
        <time>2026-02-02T13:40:49Z</time>
      </trkpt>
      <trkpt lat="48.52172" lon="2.14037">
        <ele>112.2</ele>
        <time>2026-02-02T13:40:50Z</time>
      </trkpt>
      <trkpt lat="48.52177" lon="2.14044">
        <ele>112.2</ele>
        <time>2026-02-02T13:40:51Z</time>
      </trkpt>
      <trkpt lat="48.52182" lon="2.1405">
        <ele>111.8</ele>
        <time>2026-02-02T13:40:52Z</time>
      </trkpt>
      <trkpt lat="48.52188" lon="2.14056">
        <ele>112</ele>
        <time>2026-02-02T13:40:53Z</time>
      </trkpt>
      <trkpt lat="48.52193" lon="2.14063">
        <ele>112</ele>
        <time>2026-02-02T13:40:54Z</time>
      </trkpt>
      <trkpt lat="48.52198" lon="2.14069">
        <ele>112</ele>
        <time>2026-02-02T13:40:55Z</time>
      </trkpt>
      <trkpt lat="48.52203" lon="2.14075">
        <ele>112</ele>
        <time>2026-02-02T13:40:56Z</time>
      </trkpt>
      <trkpt lat="48.52209" lon="2.14081">
        <ele>112.4</ele>
        <time>2026-02-02T13:40:57Z</time>
      </trkpt>
      <trkpt lat="48.52214" lon="2.14087">
        <ele>112.4</ele>
        <time>2026-02-02T13:40:58Z</time>
      </trkpt>
      <trkpt lat="48.52219" lon="2.14093">
        <ele>112.4</ele>
        <time>2026-02-02T13:40:59Z</time>
      </trkpt>
      <trkpt lat="48.52224" lon="2.14099">
        <ele>112.4</ele>
        <time>2026-02-02T13:41:00Z</time>
      </trkpt>
      <trkpt lat="48.5223" lon="2.14105">
        <ele>112.4</ele>
        <time>2026-02-02T13:41:01Z</time>
      </trkpt>
      <trkpt lat="48.52235" lon="2.1411">
        <ele>112.4</ele>
        <time>2026-02-02T13:41:02Z</time>
      </trkpt>
      <trkpt lat="48.52241" lon="2.14116">
        <ele>112.4</ele>
        <time>2026-02-02T13:41:03Z</time>
      </trkpt>
      <trkpt lat="48.52246" lon="2.14122">
        <ele>112.4</ele>
        <time>2026-02-02T13:41:04Z</time>
      </trkpt>
      <trkpt lat="48.52251" lon="2.14129">
        <ele>112.6</ele>
        <time>2026-02-02T13:41:05Z</time>
      </trkpt>
      <trkpt lat="48.52256" lon="2.14135">
        <ele>112.6</ele>
        <time>2026-02-02T13:41:06Z</time>
      </trkpt>
      <trkpt lat="48.52261" lon="2.14141">
        <ele>112.6</ele>
        <time>2026-02-02T13:41:07Z</time>
      </trkpt>
      <trkpt lat="48.52266" lon="2.14148">
        <ele>112.6</ele>
        <time>2026-02-02T13:41:08Z</time>
      </trkpt>
      <trkpt lat="48.5227" lon="2.14155">
        <ele>113</ele>
        <time>2026-02-02T13:41:09Z</time>
      </trkpt>
      <trkpt lat="48.52274" lon="2.14162">
        <ele>113</ele>
        <time>2026-02-02T13:41:10Z</time>
      </trkpt>
      <trkpt lat="48.52279" lon="2.14168">
        <ele>113</ele>
        <time>2026-02-02T13:41:11Z</time>
      </trkpt>
      <trkpt lat="48.52283" lon="2.14175">
        <ele>112.8</ele>
        <time>2026-02-02T13:41:12Z</time>
      </trkpt>
      <trkpt lat="48.52288" lon="2.14182">
        <ele>113</ele>
        <time>2026-02-02T13:41:13Z</time>
      </trkpt>
      <trkpt lat="48.52293" lon="2.14189">
        <ele>113</ele>
        <time>2026-02-02T13:41:14Z</time>
      </trkpt>
      <trkpt lat="48.52297" lon="2.14196">
        <ele>113</ele>
        <time>2026-02-02T13:41:15Z</time>
      </trkpt>
      <trkpt lat="48.52301" lon="2.14203">
        <ele>113</ele>
        <time>2026-02-02T13:41:16Z</time>
      </trkpt>
      <trkpt lat="48.52305" lon="2.1421">
        <ele>113.2</ele>
        <time>2026-02-02T13:41:17Z</time>
      </trkpt>
      <trkpt lat="48.52309" lon="2.14217">
        <ele>113.2</ele>
        <time>2026-02-02T13:41:18Z</time>
      </trkpt>
      <trkpt lat="48.52313" lon="2.14225">
        <ele>113.2</ele>
        <time>2026-02-02T13:41:19Z</time>
      </trkpt>
      <trkpt lat="48.52317" lon="2.14232">
        <ele>113.4</ele>
        <time>2026-02-02T13:41:20Z</time>
      </trkpt>
      <trkpt lat="48.52321" lon="2.14239">
        <ele>113.2</ele>
        <time>2026-02-02T13:41:21Z</time>
      </trkpt>
      <trkpt lat="48.52325" lon="2.14246">
        <ele>113.2</ele>
        <time>2026-02-02T13:41:22Z</time>
      </trkpt>
      <trkpt lat="48.52328" lon="2.14254">
        <ele>113.2</ele>
        <time>2026-02-02T13:41:23Z</time>
      </trkpt>
      <trkpt lat="48.52331" lon="2.14261">
        <ele>113.6</ele>
        <time>2026-02-02T13:41:24Z</time>
      </trkpt>
      <trkpt lat="48.52335" lon="2.14268">
        <ele>113.2</ele>
        <time>2026-02-02T13:41:25Z</time>
      </trkpt>
      <trkpt lat="48.52338" lon="2.14275">
        <ele>113.2</ele>
        <time>2026-02-02T13:41:26Z</time>
      </trkpt>
      <trkpt lat="48.52341" lon="2.14282">
        <ele>113.2</ele>
        <time>2026-02-02T13:41:27Z</time>
      </trkpt>
      <trkpt lat="48.52344" lon="2.14289">
        <ele>114</ele>
        <time>2026-02-02T13:41:28Z</time>
      </trkpt>
      <trkpt lat="48.52347" lon="2.14296">
        <ele>113.8</ele>
        <time>2026-02-02T13:41:29Z</time>
      </trkpt>
      <trkpt lat="48.52351" lon="2.14303">
        <ele>113.8</ele>
        <time>2026-02-02T13:41:30Z</time>
      </trkpt>
      <trkpt lat="48.52354" lon="2.1431">
        <ele>113.8</ele>
        <time>2026-02-02T13:41:31Z</time>
      </trkpt>
      <trkpt lat="48.52357" lon="2.14318">
        <ele>113.8</ele>
        <time>2026-02-02T13:41:32Z</time>
      </trkpt>
      <trkpt lat="48.52359" lon="2.14325">
        <ele>113.8</ele>
        <time>2026-02-02T13:41:33Z</time>
      </trkpt>
      <trkpt lat="48.52362" lon="2.14332">
        <ele>113.8</ele>
        <time>2026-02-02T13:41:34Z</time>
      </trkpt>
      <trkpt lat="48.52365" lon="2.1434">
        <ele>113.8</ele>
        <time>2026-02-02T13:41:35Z</time>
      </trkpt>
      <trkpt lat="48.52368" lon="2.14347">
        <ele>114.2</ele>
        <time>2026-02-02T13:41:36Z</time>
      </trkpt>
      <trkpt lat="48.52371" lon="2.14354">
        <ele>114.4</ele>
        <time>2026-02-02T13:41:37Z</time>
      </trkpt>
      <trkpt lat="48.52375" lon="2.14362">
        <ele>114.4</ele>
        <time>2026-02-02T13:41:38Z</time>
      </trkpt>
      <trkpt lat="48.52378" lon="2.1437">
        <ele>114.4</ele>
        <time>2026-02-02T13:41:39Z</time>
      </trkpt>
      <trkpt lat="48.52381" lon="2.14377">
        <ele>114.4</ele>
        <time>2026-02-02T13:41:40Z</time>
      </trkpt>
      <trkpt lat="48.52384" lon="2.14385">
        <ele>114</ele>
        <time>2026-02-02T13:41:41Z</time>
      </trkpt>
      <trkpt lat="48.52387" lon="2.14393">
        <ele>114</ele>
        <time>2026-02-02T13:41:42Z</time>
      </trkpt>
      <trkpt lat="48.5239" lon="2.144">
        <ele>114</ele>
        <time>2026-02-02T13:41:43Z</time>
      </trkpt>
      <trkpt lat="48.52393" lon="2.14408">
        <ele>114.4</ele>
        <time>2026-02-02T13:41:44Z</time>
      </trkpt>
      <trkpt lat="48.52395" lon="2.14416">
        <ele>114.2</ele>
        <time>2026-02-02T13:41:45Z</time>
      </trkpt>
      <trkpt lat="48.52398" lon="2.14424">
        <ele>114.2</ele>
        <time>2026-02-02T13:41:46Z</time>
      </trkpt>
      <trkpt lat="48.52401" lon="2.14433">
        <ele>114.2</ele>
        <time>2026-02-02T13:41:47Z</time>
      </trkpt>
      <trkpt lat="48.52404" lon="2.14441">
        <ele>113.2</ele>
        <time>2026-02-02T13:41:48Z</time>
      </trkpt>
      <trkpt lat="48.52407" lon="2.14449">
        <ele>113.6</ele>
        <time>2026-02-02T13:41:49Z</time>
      </trkpt>
      <trkpt lat="48.5241" lon="2.14458">
        <ele>113.6</ele>
        <time>2026-02-02T13:41:50Z</time>
      </trkpt>
      <trkpt lat="48.52413" lon="2.14466">
        <ele>113.6</ele>
        <time>2026-02-02T13:41:51Z</time>
      </trkpt>
      <trkpt lat="48.52415" lon="2.14475">
        <ele>113.6</ele>
        <time>2026-02-02T13:41:52Z</time>
      </trkpt>
      <trkpt lat="48.52418" lon="2.14483">
        <ele>114</ele>
        <time>2026-02-02T13:41:53Z</time>
      </trkpt>
      <trkpt lat="48.52421" lon="2.14492">
        <ele>114</ele>
        <time>2026-02-02T13:41:54Z</time>
      </trkpt>
      <trkpt lat="48.52423" lon="2.145">
        <ele>114</ele>
        <time>2026-02-02T13:41:55Z</time>
      </trkpt>
      <trkpt lat="48.52426" lon="2.14509">
        <ele>113.6</ele>
        <time>2026-02-02T13:41:56Z</time>
      </trkpt>
      <trkpt lat="48.52428" lon="2.14517">
        <ele>113.8</ele>
        <time>2026-02-02T13:41:57Z</time>
      </trkpt>
      <trkpt lat="48.5243" lon="2.14526">
        <ele>113.8</ele>
        <time>2026-02-02T13:41:58Z</time>
      </trkpt>
      <trkpt lat="48.52432" lon="2.14534">
        <ele>113.8</ele>
        <time>2026-02-02T13:41:59Z</time>
      </trkpt>
      <trkpt lat="48.52434" lon="2.14542">
        <ele>114.2</ele>
        <time>2026-02-02T13:42:00Z</time>
      </trkpt>
      <trkpt lat="48.52436" lon="2.1455">
        <ele>114.2</ele>
        <time>2026-02-02T13:42:01Z</time>
      </trkpt>
      <trkpt lat="48.52439" lon="2.14558">
        <ele>114.2</ele>
        <time>2026-02-02T13:42:02Z</time>
      </trkpt>
      <trkpt lat="48.52442" lon="2.14565">
        <ele>114.2</ele>
        <time>2026-02-02T13:42:03Z</time>
      </trkpt>
      <trkpt lat="48.52444" lon="2.14572">
        <ele>114.2</ele>
        <time>2026-02-02T13:42:04Z</time>
      </trkpt>
      <trkpt lat="48.52447" lon="2.14579">
        <ele>114.8</ele>
        <time>2026-02-02T13:42:05Z</time>
      </trkpt>
      <trkpt lat="48.5245" lon="2.14585">
        <ele>114.8</ele>
        <time>2026-02-02T13:42:06Z</time>
      </trkpt>
      <trkpt lat="48.52453" lon="2.14592">
        <ele>114.8</ele>
        <time>2026-02-02T13:42:07Z</time>
      </trkpt>
      <trkpt lat="48.52457" lon="2.14599">
        <ele>114.8</ele>
        <time>2026-02-02T13:42:08Z</time>
      </trkpt>
      <trkpt lat="48.52461" lon="2.14605">
        <ele>115</ele>
        <time>2026-02-02T13:42:09Z</time>
      </trkpt>
      <trkpt lat="48.52465" lon="2.14611">
        <ele>115</ele>
        <time>2026-02-02T13:42:10Z</time>
      </trkpt>
      <trkpt lat="48.52469" lon="2.14619">
        <ele>115</ele>
        <time>2026-02-02T13:42:11Z</time>
      </trkpt>
      <trkpt lat="48.52472" lon="2.14626">
        <ele>114.8</ele>
        <time>2026-02-02T13:42:12Z</time>
      </trkpt>
      <trkpt lat="48.52476" lon="2.14634">
        <ele>114.2</ele>
        <time>2026-02-02T13:42:13Z</time>
      </trkpt>
      <trkpt lat="48.52481" lon="2.14641">
        <ele>114.2</ele>
        <time>2026-02-02T13:42:14Z</time>
      </trkpt>
      <trkpt lat="48.52484" lon="2.1465">
        <ele>114.2</ele>
        <time>2026-02-02T13:42:15Z</time>
      </trkpt>
      <trkpt lat="48.52488" lon="2.14658">
        <ele>113.4</ele>
        <time>2026-02-02T13:42:16Z</time>
      </trkpt>
      <trkpt lat="48.52492" lon="2.14668">
        <ele>113</ele>
        <time>2026-02-02T13:42:17Z</time>
      </trkpt>
      <trkpt lat="48.52496" lon="2.14677">
        <ele>113</ele>
        <time>2026-02-02T13:42:18Z</time>
      </trkpt>
      <trkpt lat="48.52499" lon="2.14686">
        <ele>113</ele>
        <time>2026-02-02T13:42:19Z</time>
      </trkpt>
      <trkpt lat="48.52504" lon="2.14695">
        <ele>112.8</ele>
        <time>2026-02-02T13:42:20Z</time>
      </trkpt>
      <trkpt lat="48.52509" lon="2.14704">
        <ele>112</ele>
        <time>2026-02-02T13:42:21Z</time>
      </trkpt>
      <trkpt lat="48.52513" lon="2.14714">
        <ele>112</ele>
        <time>2026-02-02T13:42:22Z</time>
      </trkpt>
      <trkpt lat="48.52517" lon="2.14724">
        <ele>112</ele>
        <time>2026-02-02T13:42:23Z</time>
      </trkpt>
      <trkpt lat="48.52522" lon="2.14734">
        <ele>111.2</ele>
        <time>2026-02-02T13:42:24Z</time>
      </trkpt>
      <trkpt lat="48.52526" lon="2.14745">
        <ele>111</ele>
        <time>2026-02-02T13:42:25Z</time>
      </trkpt>
      <trkpt lat="48.52532" lon="2.14755">
        <ele>111</ele>
        <time>2026-02-02T13:42:26Z</time>
      </trkpt>
      <trkpt lat="48.52537" lon="2.14765">
        <ele>111</ele>
        <time>2026-02-02T13:42:27Z</time>
      </trkpt>
      <trkpt lat="48.52541" lon="2.14775">
        <ele>111.4</ele>
        <time>2026-02-02T13:42:28Z</time>
      </trkpt>
      <trkpt lat="48.52547" lon="2.14784">
        <ele>111</ele>
        <time>2026-02-02T13:42:29Z</time>
      </trkpt>
      <trkpt lat="48.52552" lon="2.14794">
        <ele>111</ele>
        <time>2026-02-02T13:42:30Z</time>
      </trkpt>
      <trkpt lat="48.52557" lon="2.14803">
        <ele>111</ele>
        <time>2026-02-02T13:42:31Z</time>
      </trkpt>
      <trkpt lat="48.52563" lon="2.1481">
        <ele>111.4</ele>
        <time>2026-02-02T13:42:32Z</time>
      </trkpt>
      <trkpt lat="48.52568" lon="2.14818">
        <ele>111.4</ele>
        <time>2026-02-02T13:42:33Z</time>
      </trkpt>
      <trkpt lat="48.52573" lon="2.14824">
        <ele>111.4</ele>
        <time>2026-02-02T13:42:34Z</time>
      </trkpt>
      <trkpt lat="48.52578" lon="2.14829">
        <ele>111.4</ele>
        <time>2026-02-02T13:42:35Z</time>
      </trkpt>
      <trkpt lat="48.52583" lon="2.14833">
        <ele>111.8</ele>
        <time>2026-02-02T13:42:36Z</time>
      </trkpt>
      <trkpt lat="48.52589" lon="2.14836">
        <ele>111.8</ele>
        <time>2026-02-02T13:42:37Z</time>
      </trkpt>
      <trkpt lat="48.52594" lon="2.1484">
        <ele>111.8</ele>
        <time>2026-02-02T13:42:38Z</time>
      </trkpt>
      <trkpt lat="48.52599" lon="2.14843">
        <ele>111.8</ele>
        <time>2026-02-02T13:42:39Z</time>
      </trkpt>
      <trkpt lat="48.52604" lon="2.14847">
        <ele>111.8</ele>
        <time>2026-02-02T13:42:40Z</time>
      </trkpt>
      <trkpt lat="48.52609" lon="2.14851">
        <ele>112</ele>
        <time>2026-02-02T13:42:41Z</time>
      </trkpt>
      <trkpt lat="48.52615" lon="2.14854">
        <ele>112</ele>
        <time>2026-02-02T13:42:42Z</time>
      </trkpt>
      <trkpt lat="48.5262" lon="2.14857">
        <ele>112</ele>
        <time>2026-02-02T13:42:43Z</time>
      </trkpt>
      <trkpt lat="48.52626" lon="2.14861">
        <ele>112.2</ele>
        <time>2026-02-02T13:42:44Z</time>
      </trkpt>
      <trkpt lat="48.52632" lon="2.14865">
        <ele>112.6</ele>
        <time>2026-02-02T13:42:45Z</time>
      </trkpt>
      <trkpt lat="48.52637" lon="2.14868">
        <ele>112.6</ele>
        <time>2026-02-02T13:42:46Z</time>
      </trkpt>
      <trkpt lat="48.52642" lon="2.14871">
        <ele>112.6</ele>
        <time>2026-02-02T13:42:47Z</time>
      </trkpt>
      <trkpt lat="48.52647" lon="2.14875">
        <ele>112.6</ele>
        <time>2026-02-02T13:42:48Z</time>
      </trkpt>
      <trkpt lat="48.52652" lon="2.14879">
        <ele>112.8</ele>
        <time>2026-02-02T13:42:49Z</time>
      </trkpt>
      <trkpt lat="48.52657" lon="2.14881">
        <ele>112.8</ele>
        <time>2026-02-02T13:42:50Z</time>
      </trkpt>
      <trkpt lat="48.52661" lon="2.14884">
        <ele>112.8</ele>
        <time>2026-02-02T13:42:51Z</time>
      </trkpt>
      <trkpt lat="48.52666" lon="2.14887">
        <ele>113.2</ele>
        <time>2026-02-02T13:42:52Z</time>
      </trkpt>
      <trkpt lat="48.5267" lon="2.14891">
        <ele>113</ele>
        <time>2026-02-02T13:42:53Z</time>
      </trkpt>
      <trkpt lat="48.52675" lon="2.14894">
        <ele>113</ele>
        <time>2026-02-02T13:42:54Z</time>
      </trkpt>
      <trkpt lat="48.5268" lon="2.14898">
        <ele>113</ele>
        <time>2026-02-02T13:42:55Z</time>
      </trkpt>
      <trkpt lat="48.52685" lon="2.14902">
        <ele>113.2</ele>
        <time>2026-02-02T13:42:56Z</time>
      </trkpt>
      <trkpt lat="48.52691" lon="2.14906">
        <ele>113.6</ele>
        <time>2026-02-02T13:42:57Z</time>
      </trkpt>
      <trkpt lat="48.52696" lon="2.14909">
        <ele>113.6</ele>
        <time>2026-02-02T13:42:58Z</time>
      </trkpt>
      <trkpt lat="48.52702" lon="2.14913">
        <ele>113.6</ele>
        <time>2026-02-02T13:42:59Z</time>
      </trkpt>
      <trkpt lat="48.52707" lon="2.14917">
        <ele>114</ele>
        <time>2026-02-02T13:43:00Z</time>
      </trkpt>
      <trkpt lat="48.52713" lon="2.14921">
        <ele>114.2</ele>
        <time>2026-02-02T13:43:01Z</time>
      </trkpt>
      <trkpt lat="48.52718" lon="2.14925">
        <ele>114.2</ele>
        <time>2026-02-02T13:43:02Z</time>
      </trkpt>
      <trkpt lat="48.52723" lon="2.1493">
        <ele>114.2</ele>
        <time>2026-02-02T13:43:03Z</time>
      </trkpt>
      <trkpt lat="48.52728" lon="2.14935">
        <ele>114.4</ele>
        <time>2026-02-02T13:43:04Z</time>
      </trkpt>
      <trkpt lat="48.52733" lon="2.1494">
        <ele>114.4</ele>
        <time>2026-02-02T13:43:05Z</time>
      </trkpt>
      <trkpt lat="48.52738" lon="2.14945">
        <ele>114.4</ele>
        <time>2026-02-02T13:43:06Z</time>
      </trkpt>
      <trkpt lat="48.52743" lon="2.14951">
        <ele>114.4</ele>
        <time>2026-02-02T13:43:07Z</time>
      </trkpt>
      <trkpt lat="48.52748" lon="2.14956">
        <ele>114.4</ele>
        <time>2026-02-02T13:43:08Z</time>
      </trkpt>
      <trkpt lat="48.52752" lon="2.14962">
        <ele>114</ele>
        <time>2026-02-02T13:43:09Z</time>
      </trkpt>
      <trkpt lat="48.52757" lon="2.14968">
        <ele>114</ele>
        <time>2026-02-02T13:43:10Z</time>
      </trkpt>
      <trkpt lat="48.52761" lon="2.14974">
        <ele>114</ele>
        <time>2026-02-02T13:43:11Z</time>
      </trkpt>
      <trkpt lat="48.52765" lon="2.1498">
        <ele>114</ele>
        <time>2026-02-02T13:43:12Z</time>
      </trkpt>
      <trkpt lat="48.52769" lon="2.14986">
        <ele>113.8</ele>
        <time>2026-02-02T13:43:13Z</time>
      </trkpt>
      <trkpt lat="48.52772" lon="2.14995">
        <ele>113.8</ele>
        <time>2026-02-02T13:43:14Z</time>
      </trkpt>
      <trkpt lat="48.52776" lon="2.15002">
        <ele>113.8</ele>
        <time>2026-02-02T13:43:15Z</time>
      </trkpt>
      <trkpt lat="48.52779" lon="2.15008">
        <ele>113.8</ele>
        <time>2026-02-02T13:43:16Z</time>
      </trkpt>
      <trkpt lat="48.52783" lon="2.15014">
        <ele>114</ele>
        <time>2026-02-02T13:43:17Z</time>
      </trkpt>
      <trkpt lat="48.52786" lon="2.1502">
        <ele>114</ele>
        <time>2026-02-02T13:43:18Z</time>
      </trkpt>
      <trkpt lat="48.52789" lon="2.15026">
        <ele>114</ele>
        <time>2026-02-02T13:43:19Z</time>
      </trkpt>
      <trkpt lat="48.52793" lon="2.15031">
        <ele>114</ele>
        <time>2026-02-02T13:43:20Z</time>
      </trkpt>
      <trkpt lat="48.52797" lon="2.15036">
        <ele>114</ele>
        <time>2026-02-02T13:43:21Z</time>
      </trkpt>
      <trkpt lat="48.52801" lon="2.15042">
        <ele>114</ele>
        <time>2026-02-02T13:43:22Z</time>
      </trkpt>
      <trkpt lat="48.52806" lon="2.15048">
        <ele>114</ele>
        <time>2026-02-02T13:43:23Z</time>
      </trkpt>
      <trkpt lat="48.52811" lon="2.15054">
        <ele>113.4</ele>
        <time>2026-02-02T13:43:24Z</time>
      </trkpt>
      <trkpt lat="48.52816" lon="2.15061">
        <ele>113</ele>
        <time>2026-02-02T13:43:25Z</time>
      </trkpt>
      <trkpt lat="48.52821" lon="2.15067">
        <ele>113</ele>
        <time>2026-02-02T13:43:26Z</time>
      </trkpt>
      <trkpt lat="48.52826" lon="2.15073">
        <ele>113</ele>
        <time>2026-02-02T13:43:27Z</time>
      </trkpt>
      <trkpt lat="48.52831" lon="2.1508">
        <ele>112.2</ele>
        <time>2026-02-02T13:43:28Z</time>
      </trkpt>
      <trkpt lat="48.52836" lon="2.15087">
        <ele>113.2</ele>
        <time>2026-02-02T13:43:29Z</time>
      </trkpt>
      <trkpt lat="48.52841" lon="2.15094">
        <ele>113.2</ele>
        <time>2026-02-02T13:43:30Z</time>
      </trkpt>
      <trkpt lat="48.52847" lon="2.15101">
        <ele>113.2</ele>
        <time>2026-02-02T13:43:31Z</time>
      </trkpt>
      <trkpt lat="48.52852" lon="2.15108">
        <ele>112.2</ele>
        <time>2026-02-02T13:43:32Z</time>
      </trkpt>
      <trkpt lat="48.52858" lon="2.15115">
        <ele>111.2</ele>
        <time>2026-02-02T13:43:33Z</time>
      </trkpt>
      <trkpt lat="48.52863" lon="2.15122">
        <ele>111.2</ele>
        <time>2026-02-02T13:43:34Z</time>
      </trkpt>
      <trkpt lat="48.52869" lon="2.15129">
        <ele>111.2</ele>
        <time>2026-02-02T13:43:35Z</time>
      </trkpt>
      <trkpt lat="48.52875" lon="2.15136">
        <ele>111.2</ele>
        <time>2026-02-02T13:43:36Z</time>
      </trkpt>
      <trkpt lat="48.5288" lon="2.15144">
        <ele>110.6</ele>
        <time>2026-02-02T13:43:37Z</time>
      </trkpt>
      <trkpt lat="48.52886" lon="2.15151">
        <ele>110.6</ele>
        <time>2026-02-02T13:43:38Z</time>
      </trkpt>
      <trkpt lat="48.52892" lon="2.15158">
        <ele>110.6</ele>
        <time>2026-02-02T13:43:39Z</time>
      </trkpt>
      <trkpt lat="48.52898" lon="2.15166">
        <ele>109.8</ele>
        <time>2026-02-02T13:43:40Z</time>
      </trkpt>
      <trkpt lat="48.52903" lon="2.15173">
        <ele>110</ele>
        <time>2026-02-02T13:43:41Z</time>
      </trkpt>
      <trkpt lat="48.52909" lon="2.1518">
        <ele>110</ele>
        <time>2026-02-02T13:43:42Z</time>
      </trkpt>
      <trkpt lat="48.52915" lon="2.15187">
        <ele>110</ele>
        <time>2026-02-02T13:43:43Z</time>
      </trkpt>
      <trkpt lat="48.5292" lon="2.15195">
        <ele>110</ele>
        <time>2026-02-02T13:43:44Z</time>
      </trkpt>
      <trkpt lat="48.52926" lon="2.15202">
        <ele>109.2</ele>
        <time>2026-02-02T13:43:45Z</time>
      </trkpt>
      <trkpt lat="48.52932" lon="2.15209">
        <ele>109.2</ele>
        <time>2026-02-02T13:43:46Z</time>
      </trkpt>
      <trkpt lat="48.52937" lon="2.15217">
        <ele>109.2</ele>
        <time>2026-02-02T13:43:47Z</time>
      </trkpt>
      <trkpt lat="48.52943" lon="2.15224">
        <ele>109.4</ele>
        <time>2026-02-02T13:43:48Z</time>
      </trkpt>
      <trkpt lat="48.52949" lon="2.15232">
        <ele>108.6</ele>
        <time>2026-02-02T13:43:49Z</time>
      </trkpt>
      <trkpt lat="48.52954" lon="2.15239">
        <ele>108.6</ele>
        <time>2026-02-02T13:43:50Z</time>
      </trkpt>
      <trkpt lat="48.5296" lon="2.15247">
        <ele>108.6</ele>
        <time>2026-02-02T13:43:51Z</time>
      </trkpt>
      <trkpt lat="48.52965" lon="2.15254">
        <ele>108.6</ele>
        <time>2026-02-02T13:43:52Z</time>
      </trkpt>
      <trkpt lat="48.52971" lon="2.15261">
        <ele>108.8</ele>
        <time>2026-02-02T13:43:53Z</time>
      </trkpt>
      <trkpt lat="48.52977" lon="2.15268">
        <ele>108.8</ele>
        <time>2026-02-02T13:43:54Z</time>
      </trkpt>
      <trkpt lat="48.52982" lon="2.15276">
        <ele>108.8</ele>
        <time>2026-02-02T13:43:55Z</time>
      </trkpt>
      <trkpt lat="48.52988" lon="2.15283">
        <ele>108.2</ele>
        <time>2026-02-02T13:43:56Z</time>
      </trkpt>
      <trkpt lat="48.52993" lon="2.1529">
        <ele>108.2</ele>
        <time>2026-02-02T13:43:57Z</time>
      </trkpt>
      <trkpt lat="48.52998" lon="2.15297">
        <ele>108.2</ele>
        <time>2026-02-02T13:43:58Z</time>
      </trkpt>
      <trkpt lat="48.53004" lon="2.15304">
        <ele>108.2</ele>
        <time>2026-02-02T13:43:59Z</time>
      </trkpt>
      <trkpt lat="48.5301" lon="2.15311">
        <ele>108.2</ele>
        <time>2026-02-02T13:44:00Z</time>
      </trkpt>
      <trkpt lat="48.53015" lon="2.15318">
        <ele>108.2</ele>
        <time>2026-02-02T13:44:01Z</time>
      </trkpt>
      <trkpt lat="48.53021" lon="2.15324">
        <ele>108.2</ele>
        <time>2026-02-02T13:44:02Z</time>
      </trkpt>
      <trkpt lat="48.53027" lon="2.15331">
        <ele>108.2</ele>
        <time>2026-02-02T13:44:03Z</time>
      </trkpt>
      <trkpt lat="48.53033" lon="2.15338">
        <ele>108</ele>
        <time>2026-02-02T13:44:04Z</time>
      </trkpt>
      <trkpt lat="48.53038" lon="2.15344">
        <ele>107.8</ele>
        <time>2026-02-02T13:44:05Z</time>
      </trkpt>
      <trkpt lat="48.53044" lon="2.1535">
        <ele>107.8</ele>
        <time>2026-02-02T13:44:06Z</time>
      </trkpt>
      <trkpt lat="48.5305" lon="2.15357">
        <ele>107.8</ele>
        <time>2026-02-02T13:44:07Z</time>
      </trkpt>
      <trkpt lat="48.53055" lon="2.15363">
        <ele>108.4</ele>
        <time>2026-02-02T13:44:08Z</time>
      </trkpt>
      <trkpt lat="48.5306" lon="2.15369">
        <ele>108.4</ele>
        <time>2026-02-02T13:44:09Z</time>
      </trkpt>
      <trkpt lat="48.53066" lon="2.15375">
        <ele>108.4</ele>
        <time>2026-02-02T13:44:10Z</time>
      </trkpt>
      <trkpt lat="48.53071" lon="2.15382">
        <ele>108.4</ele>
        <time>2026-02-02T13:44:11Z</time>
      </trkpt>
      <trkpt lat="48.53076" lon="2.15388">
        <ele>108.4</ele>
        <time>2026-02-02T13:44:12Z</time>
      </trkpt>
      <trkpt lat="48.53081" lon="2.15395">
        <ele>108</ele>
        <time>2026-02-02T13:44:13Z</time>
      </trkpt>
      <trkpt lat="48.53086" lon="2.15402">
        <ele>108</ele>
        <time>2026-02-02T13:44:14Z</time>
      </trkpt>
      <trkpt lat="48.53091" lon="2.1541">
        <ele>108</ele>
        <time>2026-02-02T13:44:15Z</time>
      </trkpt>
      <trkpt lat="48.53095" lon="2.15417">
        <ele>107.8</ele>
        <time>2026-02-02T13:44:16Z</time>
      </trkpt>
      <trkpt lat="48.531" lon="2.15425">
        <ele>108.2</ele>
        <time>2026-02-02T13:44:17Z</time>
      </trkpt>
      <trkpt lat="48.53104" lon="2.15432">
        <ele>108.2</ele>
        <time>2026-02-02T13:44:18Z</time>
      </trkpt>
      <trkpt lat="48.53108" lon="2.1544">
        <ele>108.2</ele>
        <time>2026-02-02T13:44:19Z</time>
      </trkpt>
      <trkpt lat="48.53112" lon="2.15448">
        <ele>108.2</ele>
        <time>2026-02-02T13:44:20Z</time>
      </trkpt>
      <trkpt lat="48.53116" lon="2.15456">
        <ele>108</ele>
        <time>2026-02-02T13:44:21Z</time>
      </trkpt>
      <trkpt lat="48.5312" lon="2.15464">
        <ele>108</ele>
        <time>2026-02-02T13:44:22Z</time>
      </trkpt>
      <trkpt lat="48.53124" lon="2.15472">
        <ele>108</ele>
        <time>2026-02-02T13:44:23Z</time>
      </trkpt>
      <trkpt lat="48.53127" lon="2.1548">
        <ele>108</ele>
        <time>2026-02-02T13:44:24Z</time>
      </trkpt>
      <trkpt lat="48.53131" lon="2.15488">
        <ele>108.4</ele>
        <time>2026-02-02T13:44:25Z</time>
      </trkpt>
      <trkpt lat="48.53135" lon="2.15495">
        <ele>108.4</ele>
        <time>2026-02-02T13:44:26Z</time>
      </trkpt>
      <trkpt lat="48.53138" lon="2.15502">
        <ele>108.4</ele>
        <time>2026-02-02T13:44:27Z</time>
      </trkpt>
      <trkpt lat="48.53142" lon="2.15509">
        <ele>108.4</ele>
        <time>2026-02-02T13:44:28Z</time>
      </trkpt>
      <trkpt lat="48.53146" lon="2.15517">
        <ele>108.4</ele>
        <time>2026-02-02T13:44:29Z</time>
      </trkpt>
      <trkpt lat="48.5315" lon="2.15524">
        <ele>108.4</ele>
        <time>2026-02-02T13:44:30Z</time>
      </trkpt>
      <trkpt lat="48.53155" lon="2.1553">
        <ele>108.4</ele>
        <time>2026-02-02T13:44:31Z</time>
      </trkpt>
      <trkpt lat="48.53159" lon="2.15536">
        <ele>108.4</ele>
        <time>2026-02-02T13:44:32Z</time>
      </trkpt>
      <trkpt lat="48.53163" lon="2.15542">
        <ele>108.2</ele>
        <time>2026-02-02T13:44:33Z</time>
      </trkpt>
      <trkpt lat="48.53167" lon="2.15547">
        <ele>108.2</ele>
        <time>2026-02-02T13:44:34Z</time>
      </trkpt>
      <trkpt lat="48.5317" lon="2.15553">
        <ele>108.2</ele>
        <time>2026-02-02T13:44:35Z</time>
      </trkpt>
      <trkpt lat="48.53175" lon="2.15558">
        <ele>108.8</ele>
        <time>2026-02-02T13:44:36Z</time>
      </trkpt>
      <trkpt lat="48.53179" lon="2.15563">
        <ele>109</ele>
        <time>2026-02-02T13:44:37Z</time>
      </trkpt>
      <trkpt lat="48.53183" lon="2.15567">
        <ele>109</ele>
        <time>2026-02-02T13:44:38Z</time>
      </trkpt>
      <trkpt lat="48.53186" lon="2.15571">
        <ele>109</ele>
        <time>2026-02-02T13:44:39Z</time>
      </trkpt>
      <trkpt lat="48.53189" lon="2.15574">
        <ele>109</ele>
        <time>2026-02-02T13:44:40Z</time>
      </trkpt>
      <trkpt lat="48.53193" lon="2.15579">
        <ele>109.6</ele>
        <time>2026-02-02T13:44:41Z</time>
      </trkpt>
      <trkpt lat="48.53197" lon="2.15583">
        <ele>109.6</ele>
        <time>2026-02-02T13:44:42Z</time>
      </trkpt>
      <trkpt lat="48.53202" lon="2.15587">
        <ele>109.6</ele>
        <time>2026-02-02T13:44:43Z</time>
      </trkpt>
      <trkpt lat="48.53206" lon="2.15591">
        <ele>110</ele>
        <time>2026-02-02T13:44:44Z</time>
      </trkpt>
      <trkpt lat="48.5321" lon="2.15595">
        <ele>109.6</ele>
        <time>2026-02-02T13:44:45Z</time>
      </trkpt>
      <trkpt lat="48.53213" lon="2.15598">
        <ele>109.6</ele>
        <time>2026-02-02T13:44:46Z</time>
      </trkpt>
      <trkpt lat="48.53217" lon="2.15601">
        <ele>109.6</ele>
        <time>2026-02-02T13:44:47Z</time>
      </trkpt>
      <trkpt lat="48.53221" lon="2.15603">
        <ele>110.6</ele>
        <time>2026-02-02T13:44:48Z</time>
      </trkpt>
      <trkpt lat="48.53225" lon="2.15606">
        <ele>112.2</ele>
        <time>2026-02-02T13:44:49Z</time>
      </trkpt>
      <trkpt lat="48.5323" lon="2.15608">
        <ele>112.2</ele>
        <time>2026-02-02T13:44:50Z</time>
      </trkpt>
      <trkpt lat="48.53235" lon="2.1561">
        <ele>112.2</ele>
        <time>2026-02-02T13:44:51Z</time>
      </trkpt>
      <trkpt lat="48.5324" lon="2.15613">
        <ele>111.8</ele>
        <time>2026-02-02T13:44:52Z</time>
      </trkpt>
      <trkpt lat="48.53245" lon="2.15615">
        <ele>111.8</ele>
        <time>2026-02-02T13:44:53Z</time>
      </trkpt>
      <trkpt lat="48.53251" lon="2.15617">
        <ele>111.8</ele>
        <time>2026-02-02T13:44:54Z</time>
      </trkpt>
      <trkpt lat="48.53256" lon="2.15619">
        <ele>111.8</ele>
        <time>2026-02-02T13:44:55Z</time>
      </trkpt>
      <trkpt lat="48.53261" lon="2.15621">
        <ele>112.6</ele>
        <time>2026-02-02T13:44:56Z</time>
      </trkpt>
      <trkpt lat="48.53267" lon="2.15623">
        <ele>113.4</ele>
        <time>2026-02-02T13:44:57Z</time>
      </trkpt>
      <trkpt lat="48.53273" lon="2.15626">
        <ele>113.4</ele>
        <time>2026-02-02T13:44:58Z</time>
      </trkpt>
      <trkpt lat="48.53279" lon="2.15628">
        <ele>113.4</ele>
        <time>2026-02-02T13:44:59Z</time>
      </trkpt>
      <trkpt lat="48.53284" lon="2.1563">
        <ele>113.4</ele>
        <time>2026-02-02T13:45:00Z</time>
      </trkpt>
      <trkpt lat="48.53289" lon="2.15632">
        <ele>113.2</ele>
        <time>2026-02-02T13:45:01Z</time>
      </trkpt>
      <trkpt lat="48.53295" lon="2.15634">
        <ele>113.2</ele>
        <time>2026-02-02T13:45:02Z</time>
      </trkpt>
      <trkpt lat="48.53301" lon="2.15636">
        <ele>113.2</ele>
        <time>2026-02-02T13:45:03Z</time>
      </trkpt>
      <trkpt lat="48.53308" lon="2.15638">
        <ele>113</ele>
        <time>2026-02-02T13:45:04Z</time>
      </trkpt>
      <trkpt lat="48.53314" lon="2.1564">
        <ele>112.8</ele>
        <time>2026-02-02T13:45:05Z</time>
      </trkpt>
      <trkpt lat="48.53321" lon="2.15643">
        <ele>112.8</ele>
        <time>2026-02-02T13:45:06Z</time>
      </trkpt>
      <trkpt lat="48.53328" lon="2.15645">
        <ele>112.8</ele>
        <time>2026-02-02T13:45:07Z</time>
      </trkpt>
      <trkpt lat="48.53334" lon="2.15647">
        <ele>112.2</ele>
        <time>2026-02-02T13:45:08Z</time>
      </trkpt>
      <trkpt lat="48.5334" lon="2.15649">
        <ele>112</ele>
        <time>2026-02-02T13:45:09Z</time>
      </trkpt>
      <trkpt lat="48.53346" lon="2.15652">
        <ele>112</ele>
        <time>2026-02-02T13:45:10Z</time>
      </trkpt>
      <trkpt lat="48.53352" lon="2.15654">
        <ele>112</ele>
        <time>2026-02-02T13:45:11Z</time>
      </trkpt>
      <trkpt lat="48.53359" lon="2.15656">
        <ele>111.2</ele>
        <time>2026-02-02T13:45:12Z</time>
      </trkpt>
      <trkpt lat="48.53366" lon="2.15659">
        <ele>111.2</ele>
        <time>2026-02-02T13:45:13Z</time>
      </trkpt>
      <trkpt lat="48.53373" lon="2.15661">
        <ele>111.2</ele>
        <time>2026-02-02T13:45:14Z</time>
      </trkpt>
      <trkpt lat="48.5338" lon="2.15663">
        <ele>111.2</ele>
        <time>2026-02-02T13:45:15Z</time>
      </trkpt>
      <trkpt lat="48.53387" lon="2.15665">
        <ele>111.2</ele>
        <time>2026-02-02T13:45:16Z</time>
      </trkpt>
      <trkpt lat="48.53394" lon="2.15668">
        <ele>110.2</ele>
        <time>2026-02-02T13:45:17Z</time>
      </trkpt>
      <trkpt lat="48.53401" lon="2.15671">
        <ele>110.2</ele>
        <time>2026-02-02T13:45:18Z</time>
      </trkpt>
      <trkpt lat="48.53408" lon="2.15674">
        <ele>110.2</ele>
        <time>2026-02-02T13:45:19Z</time>
      </trkpt>
      <trkpt lat="48.53415" lon="2.15677">
        <ele>109.2</ele>
        <time>2026-02-02T13:45:20Z</time>
      </trkpt>
      <trkpt lat="48.53422" lon="2.15681">
        <ele>109.2</ele>
        <time>2026-02-02T13:45:21Z</time>
      </trkpt>
      <trkpt lat="48.5343" lon="2.15686">
        <ele>109.2</ele>
        <time>2026-02-02T13:45:22Z</time>
      </trkpt>
      <trkpt lat="48.53437" lon="2.1569">
        <ele>109.2</ele>
        <time>2026-02-02T13:45:23Z</time>
      </trkpt>
      <trkpt lat="48.53443" lon="2.15696">
        <ele>108.2</ele>
        <time>2026-02-02T13:45:24Z</time>
      </trkpt>
      <trkpt lat="48.53448" lon="2.15704">
        <ele>108.8</ele>
        <time>2026-02-02T13:45:25Z</time>
      </trkpt>
      <trkpt lat="48.53454" lon="2.15711">
        <ele>108.8</ele>
        <time>2026-02-02T13:45:26Z</time>
      </trkpt>
      <trkpt lat="48.5346" lon="2.15718">
        <ele>108.8</ele>
        <time>2026-02-02T13:45:27Z</time>
      </trkpt>
      <trkpt lat="48.53464" lon="2.15725">
        <ele>109.4</ele>
        <time>2026-02-02T13:45:28Z</time>
      </trkpt>
      <trkpt lat="48.53469" lon="2.15732">
        <ele>110</ele>
        <time>2026-02-02T13:45:29Z</time>
      </trkpt>
      <trkpt lat="48.53472" lon="2.15739">
        <ele>110</ele>
        <time>2026-02-02T13:45:30Z</time>
      </trkpt>
      <trkpt lat="48.53476" lon="2.15746">
        <ele>110</ele>
        <time>2026-02-02T13:45:31Z</time>
      </trkpt>
      <trkpt lat="48.53479" lon="2.15752">
        <ele>111</ele>
        <time>2026-02-02T13:45:32Z</time>
      </trkpt>
      <trkpt lat="48.53482" lon="2.15758">
        <ele>111.2</ele>
        <time>2026-02-02T13:45:33Z</time>
      </trkpt>
      <trkpt lat="48.53486" lon="2.15765">
        <ele>111.2</ele>
        <time>2026-02-02T13:45:34Z</time>
      </trkpt>
      <trkpt lat="48.53489" lon="2.15771">
        <ele>111.2</ele>
        <time>2026-02-02T13:45:35Z</time>
      </trkpt>
      <trkpt lat="48.53492" lon="2.15778">
        <ele>111.2</ele>
        <time>2026-02-02T13:45:36Z</time>
      </trkpt>
      <trkpt lat="48.53495" lon="2.15785">
        <ele>111.2</ele>
        <time>2026-02-02T13:45:37Z</time>
      </trkpt>
      <trkpt lat="48.53498" lon="2.15792">
        <ele>111.2</ele>
        <time>2026-02-02T13:45:38Z</time>
      </trkpt>
      <trkpt lat="48.53501" lon="2.15799">
        <ele>111.2</ele>
        <time>2026-02-02T13:45:39Z</time>
      </trkpt>
      <trkpt lat="48.53504" lon="2.15806">
        <ele>111.8</ele>
        <time>2026-02-02T13:45:40Z</time>
      </trkpt>
      <trkpt lat="48.53507" lon="2.15813">
        <ele>112</ele>
        <time>2026-02-02T13:45:41Z</time>
      </trkpt>
      <trkpt lat="48.5351" lon="2.15821">
        <ele>112</ele>
        <time>2026-02-02T13:45:42Z</time>
      </trkpt>
      <trkpt lat="48.53513" lon="2.15828">
        <ele>112</ele>
        <time>2026-02-02T13:45:43Z</time>
      </trkpt>
      <trkpt lat="48.53517" lon="2.15836">
        <ele>112</ele>
        <time>2026-02-02T13:45:44Z</time>
      </trkpt>
      <trkpt lat="48.5352" lon="2.15843">
        <ele>112.8</ele>
        <time>2026-02-02T13:45:45Z</time>
      </trkpt>
      <trkpt lat="48.53523" lon="2.1585">
        <ele>112.8</ele>
        <time>2026-02-02T13:45:46Z</time>
      </trkpt>
      <trkpt lat="48.53526" lon="2.15857">
        <ele>112.8</ele>
        <time>2026-02-02T13:45:47Z</time>
      </trkpt>
      <trkpt lat="48.53529" lon="2.15863">
        <ele>113.2</ele>
        <time>2026-02-02T13:45:48Z</time>
      </trkpt>
      <trkpt lat="48.53532" lon="2.15869">
        <ele>113.4</ele>
        <time>2026-02-02T13:45:49Z</time>
      </trkpt>
      <trkpt lat="48.53535" lon="2.15875">
        <ele>113.4</ele>
        <time>2026-02-02T13:45:50Z</time>
      </trkpt>
      <trkpt lat="48.53538" lon="2.15881">
        <ele>113.4</ele>
        <time>2026-02-02T13:45:51Z</time>
      </trkpt>
      <trkpt lat="48.53541" lon="2.15888">
        <ele>113.8</ele>
        <time>2026-02-02T13:45:52Z</time>
      </trkpt>
      <trkpt lat="48.53544" lon="2.15894">
        <ele>114.2</ele>
        <time>2026-02-02T13:45:53Z</time>
      </trkpt>
      <trkpt lat="48.53546" lon="2.159">
        <ele>114.2</ele>
        <time>2026-02-02T13:45:54Z</time>
      </trkpt>
      <trkpt lat="48.53549" lon="2.15907">
        <ele>114.2</ele>
        <time>2026-02-02T13:45:55Z</time>
      </trkpt>
      <trkpt lat="48.53551" lon="2.15913">
        <ele>114.2</ele>
        <time>2026-02-02T13:45:56Z</time>
      </trkpt>
      <trkpt lat="48.53554" lon="2.1592">
        <ele>114.2</ele>
        <time>2026-02-02T13:45:57Z</time>
      </trkpt>
      <trkpt lat="48.53557" lon="2.15926">
        <ele>114.2</ele>
        <time>2026-02-02T13:45:58Z</time>
      </trkpt>
      <trkpt lat="48.5356" lon="2.15933">
        <ele>114.2</ele>
        <time>2026-02-02T13:45:59Z</time>
      </trkpt>
      <trkpt lat="48.53564" lon="2.15939">
        <ele>114.2</ele>
        <time>2026-02-02T13:46:00Z</time>
      </trkpt>
      <trkpt lat="48.53568" lon="2.15946">
        <ele>114.4</ele>
        <time>2026-02-02T13:46:01Z</time>
      </trkpt>
      <trkpt lat="48.5357" lon="2.15952">
        <ele>114.4</ele>
        <time>2026-02-02T13:46:02Z</time>
      </trkpt>
      <trkpt lat="48.53573" lon="2.15959">
        <ele>114.4</ele>
        <time>2026-02-02T13:46:03Z</time>
      </trkpt>
      <trkpt lat="48.53575" lon="2.15966">
        <ele>114.4</ele>
        <time>2026-02-02T13:46:04Z</time>
      </trkpt>
      <trkpt lat="48.53578" lon="2.15972">
        <ele>114.2</ele>
        <time>2026-02-02T13:46:05Z</time>
      </trkpt>
      <trkpt lat="48.53582" lon="2.15979">
        <ele>114.2</ele>
        <time>2026-02-02T13:46:06Z</time>
      </trkpt>
      <trkpt lat="48.53585" lon="2.15986">
        <ele>114.2</ele>
        <time>2026-02-02T13:46:07Z</time>
      </trkpt>
      <trkpt lat="48.53589" lon="2.15993">
        <ele>114.6</ele>
        <time>2026-02-02T13:46:08Z</time>
      </trkpt>
      <trkpt lat="48.53593" lon="2.16">
        <ele>114.2</ele>
        <time>2026-02-02T13:46:09Z</time>
      </trkpt>
      <trkpt lat="48.53596" lon="2.16007">
        <ele>114.2</ele>
        <time>2026-02-02T13:46:10Z</time>
      </trkpt>
      <trkpt lat="48.53599" lon="2.16014">
        <ele>114.2</ele>
        <time>2026-02-02T13:46:11Z</time>
      </trkpt>
      <trkpt lat="48.53603" lon="2.16022">
        <ele>114.2</ele>
        <time>2026-02-02T13:46:12Z</time>
      </trkpt>
      <trkpt lat="48.53607" lon="2.16029">
        <ele>114</ele>
        <time>2026-02-02T13:46:13Z</time>
      </trkpt>
      <trkpt lat="48.5361" lon="2.16037">
        <ele>114</ele>
        <time>2026-02-02T13:46:14Z</time>
      </trkpt>
      <trkpt lat="48.53614" lon="2.16044">
        <ele>114</ele>
        <time>2026-02-02T13:46:15Z</time>
      </trkpt>
      <trkpt lat="48.53617" lon="2.16052">
        <ele>114</ele>
        <time>2026-02-02T13:46:16Z</time>
      </trkpt>
      <trkpt lat="48.53619" lon="2.16059">
        <ele>113.6</ele>
        <time>2026-02-02T13:46:17Z</time>
      </trkpt>
      <trkpt lat="48.53623" lon="2.16067">
        <ele>113.6</ele>
        <time>2026-02-02T13:46:18Z</time>
      </trkpt>
      <trkpt lat="48.53627" lon="2.16075">
        <ele>113.6</ele>
        <time>2026-02-02T13:46:19Z</time>
      </trkpt>
      <trkpt lat="48.53631" lon="2.16083">
        <ele>113.6</ele>
        <time>2026-02-02T13:46:20Z</time>
      </trkpt>
      <trkpt lat="48.53634" lon="2.16091">
        <ele>113.2</ele>
        <time>2026-02-02T13:46:21Z</time>
      </trkpt>
      <trkpt lat="48.53639" lon="2.16098">
        <ele>113.2</ele>
        <time>2026-02-02T13:46:22Z</time>
      </trkpt>
      <trkpt lat="48.53643" lon="2.16107">
        <ele>113.2</ele>
        <time>2026-02-02T13:46:23Z</time>
      </trkpt>
      <trkpt lat="48.53648" lon="2.16115">
        <ele>113.2</ele>
        <time>2026-02-02T13:46:24Z</time>
      </trkpt>
      <trkpt lat="48.53652" lon="2.16122">
        <ele>112.4</ele>
        <time>2026-02-02T13:46:25Z</time>
      </trkpt>
      <trkpt lat="48.53657" lon="2.16131">
        <ele>112.4</ele>
        <time>2026-02-02T13:46:26Z</time>
      </trkpt>
      <trkpt lat="48.53662" lon="2.16138">
        <ele>112.4</ele>
        <time>2026-02-02T13:46:27Z</time>
      </trkpt>
      <trkpt lat="48.53667" lon="2.16146">
        <ele>112</ele>
        <time>2026-02-02T13:46:28Z</time>
      </trkpt>
      <trkpt lat="48.53674" lon="2.16153">
        <ele>111.2</ele>
        <time>2026-02-02T13:46:29Z</time>
      </trkpt>
      <trkpt lat="48.5368" lon="2.1616">
        <ele>111.2</ele>
        <time>2026-02-02T13:46:30Z</time>
      </trkpt>
      <trkpt lat="48.53687" lon="2.16167">
        <ele>111.2</ele>
        <time>2026-02-02T13:46:31Z</time>
      </trkpt>
      <trkpt lat="48.53694" lon="2.16174">
        <ele>111.2</ele>
        <time>2026-02-02T13:46:32Z</time>
      </trkpt>
      <trkpt lat="48.53701" lon="2.16181">
        <ele>108.8</ele>
        <time>2026-02-02T13:46:33Z</time>
      </trkpt>
      <trkpt lat="48.53708" lon="2.16187">
        <ele>108.8</ele>
        <time>2026-02-02T13:46:34Z</time>
      </trkpt>
      <trkpt lat="48.53715" lon="2.16194">
        <ele>108.8</ele>
        <time>2026-02-02T13:46:35Z</time>
      </trkpt>
      <trkpt lat="48.53722" lon="2.16201">
        <ele>108.8</ele>
        <time>2026-02-02T13:46:36Z</time>
      </trkpt>
      <trkpt lat="48.53729" lon="2.16207">
        <ele>108.2</ele>
        <time>2026-02-02T13:46:37Z</time>
      </trkpt>
      <trkpt lat="48.53736" lon="2.16214">
        <ele>108.2</ele>
        <time>2026-02-02T13:46:38Z</time>
      </trkpt>
      <trkpt lat="48.53743" lon="2.16221">
        <ele>108.2</ele>
        <time>2026-02-02T13:46:39Z</time>
      </trkpt>
      <trkpt lat="48.5375" lon="2.16227">
        <ele>108.2</ele>
        <time>2026-02-02T13:46:40Z</time>
      </trkpt>
      <trkpt lat="48.53757" lon="2.16234">
        <ele>107.8</ele>
        <time>2026-02-02T13:46:41Z</time>
      </trkpt>
      <trkpt lat="48.53764" lon="2.16241">
        <ele>107.8</ele>
        <time>2026-02-02T13:46:42Z</time>
      </trkpt>
      <trkpt lat="48.5377" lon="2.16248">
        <ele>107.8</ele>
        <time>2026-02-02T13:46:43Z</time>
      </trkpt>
      <trkpt lat="48.53776" lon="2.16255">
        <ele>107.8</ele>
        <time>2026-02-02T13:46:44Z</time>
      </trkpt>
      <trkpt lat="48.53782" lon="2.16263">
        <ele>107.8</ele>
        <time>2026-02-02T13:46:45Z</time>
      </trkpt>
      <trkpt lat="48.53787" lon="2.16271">
        <ele>107.8</ele>
        <time>2026-02-02T13:46:46Z</time>
      </trkpt>
      <trkpt lat="48.53793" lon="2.1628">
        <ele>107.8</ele>
        <time>2026-02-02T13:46:47Z</time>
      </trkpt>
      <trkpt lat="48.53798" lon="2.16289">
        <ele>107.2</ele>
        <time>2026-02-02T13:46:48Z</time>
      </trkpt>
      <trkpt lat="48.53804" lon="2.16298">
        <ele>106.6</ele>
        <time>2026-02-02T13:46:49Z</time>
      </trkpt>
      <trkpt lat="48.53809" lon="2.16306">
        <ele>106.6</ele>
        <time>2026-02-02T13:46:50Z</time>
      </trkpt>
      <trkpt lat="48.53815" lon="2.16316">
        <ele>106.6</ele>
        <time>2026-02-02T13:46:51Z</time>
      </trkpt>
      <trkpt lat="48.53821" lon="2.16325">
        <ele>105.8</ele>
        <time>2026-02-02T13:46:52Z</time>
      </trkpt>
      <trkpt lat="48.53826" lon="2.16334">
        <ele>105.8</ele>
        <time>2026-02-02T13:46:53Z</time>
      </trkpt>
      <trkpt lat="48.53831" lon="2.16343">
        <ele>105.8</ele>
        <time>2026-02-02T13:46:54Z</time>
      </trkpt>
      <trkpt lat="48.53836" lon="2.16352">
        <ele>105.8</ele>
        <time>2026-02-02T13:46:55Z</time>
      </trkpt>
      <trkpt lat="48.5384" lon="2.16361">
        <ele>105.6</ele>
        <time>2026-02-02T13:46:56Z</time>
      </trkpt>
      <trkpt lat="48.53845" lon="2.16371">
        <ele>105.8</ele>
        <time>2026-02-02T13:46:57Z</time>
      </trkpt>
      <trkpt lat="48.5385" lon="2.1638">
        <ele>105.8</ele>
        <time>2026-02-02T13:46:58Z</time>
      </trkpt>
      <trkpt lat="48.53853" lon="2.16389">
        <ele>105.8</ele>
        <time>2026-02-02T13:46:59Z</time>
      </trkpt>
      <trkpt lat="48.53856" lon="2.16399">
        <ele>106.6</ele>
        <time>2026-02-02T13:47:00Z</time>
      </trkpt>
      <trkpt lat="48.53858" lon="2.16408">
        <ele>107</ele>
        <time>2026-02-02T13:47:01Z</time>
      </trkpt>
      <trkpt lat="48.5386" lon="2.16416">
        <ele>107</ele>
        <time>2026-02-02T13:47:02Z</time>
      </trkpt>
      <trkpt lat="48.53862" lon="2.16425">
        <ele>107</ele>
        <time>2026-02-02T13:47:03Z</time>
      </trkpt>
      <trkpt lat="48.53863" lon="2.16433">
        <ele>107.2</ele>
        <time>2026-02-02T13:47:04Z</time>
      </trkpt>
      <trkpt lat="48.53864" lon="2.16441">
        <ele>107.4</ele>
        <time>2026-02-02T13:47:05Z</time>
      </trkpt>
      <trkpt lat="48.53865" lon="2.16448">
        <ele>107.4</ele>
        <time>2026-02-02T13:47:06Z</time>
      </trkpt>
      <trkpt lat="48.53866" lon="2.16456">
        <ele>107.4</ele>
        <time>2026-02-02T13:47:07Z</time>
      </trkpt>
      <trkpt lat="48.53866" lon="2.16463">
        <ele>108.2</ele>
        <time>2026-02-02T13:47:08Z</time>
      </trkpt>
      <trkpt lat="48.53867" lon="2.16471">
        <ele>109.8</ele>
        <time>2026-02-02T13:47:09Z</time>
      </trkpt>
      <trkpt lat="48.53868" lon="2.16478">
        <ele>109.8</ele>
        <time>2026-02-02T13:47:10Z</time>
      </trkpt>
      <trkpt lat="48.53869" lon="2.16485">
        <ele>109.8</ele>
        <time>2026-02-02T13:47:11Z</time>
      </trkpt>
      <trkpt lat="48.5387" lon="2.16492">
        <ele>109.8</ele>
        <time>2026-02-02T13:47:12Z</time>
      </trkpt>
      <trkpt lat="48.53871" lon="2.165">
        <ele>109.4</ele>
        <time>2026-02-02T13:47:13Z</time>
      </trkpt>
      <trkpt lat="48.53872" lon="2.16508">
        <ele>109.4</ele>
        <time>2026-02-02T13:47:14Z</time>
      </trkpt>
      <trkpt lat="48.53874" lon="2.16516">
        <ele>109.4</ele>
        <time>2026-02-02T13:47:15Z</time>
      </trkpt>
      <trkpt lat="48.53876" lon="2.16524">
        <ele>109.4</ele>
        <time>2026-02-02T13:47:16Z</time>
      </trkpt>
      <trkpt lat="48.53877" lon="2.16532">
        <ele>109.6</ele>
        <time>2026-02-02T13:47:17Z</time>
      </trkpt>
      <trkpt lat="48.53878" lon="2.1654">
        <ele>109.6</ele>
        <time>2026-02-02T13:47:18Z</time>
      </trkpt>
      <trkpt lat="48.53879" lon="2.16548">
        <ele>109.6</ele>
        <time>2026-02-02T13:47:19Z</time>
      </trkpt>
      <trkpt lat="48.53881" lon="2.16557">
        <ele>109.4</ele>
        <time>2026-02-02T13:47:20Z</time>
      </trkpt>
      <trkpt lat="48.53882" lon="2.16564">
        <ele>109.6</ele>
        <time>2026-02-02T13:47:21Z</time>
      </trkpt>
      <trkpt lat="48.53883" lon="2.16572">
        <ele>109.6</ele>
        <time>2026-02-02T13:47:22Z</time>
      </trkpt>
      <trkpt lat="48.53884" lon="2.1658">
        <ele>109.6</ele>
        <time>2026-02-02T13:47:23Z</time>
      </trkpt>
      <trkpt lat="48.53885" lon="2.16587">
        <ele>109.6</ele>
        <time>2026-02-02T13:47:24Z</time>
      </trkpt>
      <trkpt lat="48.53887" lon="2.16595">
        <ele>109.6</ele>
        <time>2026-02-02T13:47:25Z</time>
      </trkpt>
      <trkpt lat="48.53888" lon="2.16603">
        <ele>109.6</ele>
        <time>2026-02-02T13:47:26Z</time>
      </trkpt>
      <trkpt lat="48.53889" lon="2.16611">
        <ele>109.6</ele>
        <time>2026-02-02T13:47:27Z</time>
      </trkpt>
      <trkpt lat="48.53891" lon="2.1662">
        <ele>110</ele>
        <time>2026-02-02T13:47:28Z</time>
      </trkpt>
      <trkpt lat="48.53892" lon="2.16628">
        <ele>109.8</ele>
        <time>2026-02-02T13:47:29Z</time>
      </trkpt>
      <trkpt lat="48.53894" lon="2.16636">
        <ele>109.8</ele>
        <time>2026-02-02T13:47:30Z</time>
      </trkpt>
      <trkpt lat="48.53895" lon="2.16645">
        <ele>109.8</ele>
        <time>2026-02-02T13:47:31Z</time>
      </trkpt>
      <trkpt lat="48.53896" lon="2.16653">
        <ele>109.8</ele>
        <time>2026-02-02T13:47:32Z</time>
      </trkpt>
      <trkpt lat="48.53897" lon="2.16661">
        <ele>109.6</ele>
        <time>2026-02-02T13:47:33Z</time>
      </trkpt>
      <trkpt lat="48.53899" lon="2.16669">
        <ele>109.6</ele>
        <time>2026-02-02T13:47:34Z</time>
      </trkpt>
      <trkpt lat="48.539" lon="2.16677">
        <ele>109.6</ele>
        <time>2026-02-02T13:47:35Z</time>
      </trkpt>
      <trkpt lat="48.539" lon="2.16685">
        <ele>109.8</ele>
        <time>2026-02-02T13:47:36Z</time>
      </trkpt>
      <trkpt lat="48.53901" lon="2.16694">
        <ele>109.8</ele>
        <time>2026-02-02T13:47:37Z</time>
      </trkpt>
      <trkpt lat="48.53902" lon="2.16703">
        <ele>109.8</ele>
        <time>2026-02-02T13:47:38Z</time>
      </trkpt>
      <trkpt lat="48.53902" lon="2.16711">
        <ele>109.8</ele>
        <time>2026-02-02T13:47:39Z</time>
      </trkpt>
      <trkpt lat="48.53902" lon="2.1672">
        <ele>109.8</ele>
        <time>2026-02-02T13:47:40Z</time>
      </trkpt>
      <trkpt lat="48.53902" lon="2.16728">
        <ele>110.2</ele>
        <time>2026-02-02T13:47:41Z</time>
      </trkpt>
      <trkpt lat="48.53902" lon="2.16737">
        <ele>110.2</ele>
        <time>2026-02-02T13:47:42Z</time>
      </trkpt>
      <trkpt lat="48.53902" lon="2.16745">
        <ele>110.2</ele>
        <time>2026-02-02T13:47:43Z</time>
      </trkpt>
      <trkpt lat="48.53902" lon="2.16754">
        <ele>111.2</ele>
        <time>2026-02-02T13:47:44Z</time>
      </trkpt>
      <trkpt lat="48.53902" lon="2.16762">
        <ele>111.6</ele>
        <time>2026-02-02T13:47:45Z</time>
      </trkpt>
      <trkpt lat="48.53902" lon="2.16771">
        <ele>111.6</ele>
        <time>2026-02-02T13:47:46Z</time>
      </trkpt>
      <trkpt lat="48.53902" lon="2.16779">
        <ele>111.6</ele>
        <time>2026-02-02T13:47:47Z</time>
      </trkpt>
      <trkpt lat="48.53902" lon="2.16787">
        <ele>111.6</ele>
        <time>2026-02-02T13:47:48Z</time>
      </trkpt>
      <trkpt lat="48.53903" lon="2.16795">
        <ele>111.8</ele>
        <time>2026-02-02T13:47:49Z</time>
      </trkpt>
      <trkpt lat="48.53904" lon="2.16803">
        <ele>111.8</ele>
        <time>2026-02-02T13:47:50Z</time>
      </trkpt>
      <trkpt lat="48.53905" lon="2.16811">
        <ele>111.8</ele>
        <time>2026-02-02T13:47:51Z</time>
      </trkpt>
      <trkpt lat="48.53907" lon="2.16818">
        <ele>112.4</ele>
        <time>2026-02-02T13:47:52Z</time>
      </trkpt>
      <trkpt lat="48.53908" lon="2.16826">
        <ele>112.6</ele>
        <time>2026-02-02T13:47:53Z</time>
      </trkpt>
      <trkpt lat="48.53911" lon="2.16834">
        <ele>112.6</ele>
        <time>2026-02-02T13:47:54Z</time>
      </trkpt>
      <trkpt lat="48.53913" lon="2.16841">
        <ele>112.6</ele>
        <time>2026-02-02T13:47:55Z</time>
      </trkpt>
      <trkpt lat="48.53917" lon="2.16848">
        <ele>113</ele>
        <time>2026-02-02T13:47:56Z</time>
      </trkpt>
      <trkpt lat="48.5392" lon="2.16855">
        <ele>112.4</ele>
        <time>2026-02-02T13:47:57Z</time>
      </trkpt>
      <trkpt lat="48.53924" lon="2.1686">
        <ele>112.4</ele>
        <time>2026-02-02T13:47:58Z</time>
      </trkpt>
      <trkpt lat="48.53928" lon="2.16866">
        <ele>112.4</ele>
        <time>2026-02-02T13:47:59Z</time>
      </trkpt>
      <trkpt lat="48.53932" lon="2.16871">
        <ele>113.4</ele>
        <time>2026-02-02T13:48:00Z</time>
      </trkpt>
      <trkpt lat="48.53936" lon="2.16875">
        <ele>113.2</ele>
        <time>2026-02-02T13:48:01Z</time>
      </trkpt>
      <trkpt lat="48.5394" lon="2.1688">
        <ele>113.2</ele>
        <time>2026-02-02T13:48:02Z</time>
      </trkpt>
      <trkpt lat="48.53943" lon="2.16884">
        <ele>113.2</ele>
        <time>2026-02-02T13:48:03Z</time>
      </trkpt>
      <trkpt lat="48.53947" lon="2.16889">
        <ele>113.4</ele>
        <time>2026-02-02T13:48:04Z</time>
      </trkpt>
      <trkpt lat="48.53951" lon="2.16893">
        <ele>113.8</ele>
        <time>2026-02-02T13:48:05Z</time>
      </trkpt>
      <trkpt lat="48.53956" lon="2.16897">
        <ele>113.8</ele>
        <time>2026-02-02T13:48:06Z</time>
      </trkpt>
      <trkpt lat="48.5396" lon="2.169">
        <ele>113.8</ele>
        <time>2026-02-02T13:48:07Z</time>
      </trkpt>
      <trkpt lat="48.53965" lon="2.16904">
        <ele>113.8</ele>
        <time>2026-02-02T13:48:08Z</time>
      </trkpt>
      <trkpt lat="48.53969" lon="2.16908">
        <ele>114.6</ele>
        <time>2026-02-02T13:48:09Z</time>
      </trkpt>
      <trkpt lat="48.53973" lon="2.16912">
        <ele>114.6</ele>
        <time>2026-02-02T13:48:10Z</time>
      </trkpt>
      <trkpt lat="48.53978" lon="2.16917">
        <ele>114.6</ele>
        <time>2026-02-02T13:48:11Z</time>
      </trkpt>
      <trkpt lat="48.53982" lon="2.16922">
        <ele>114.6</ele>
        <time>2026-02-02T13:48:12Z</time>
      </trkpt>
      <trkpt lat="48.53986" lon="2.16927">
        <ele>115.2</ele>
        <time>2026-02-02T13:48:13Z</time>
      </trkpt>
      <trkpt lat="48.5399" lon="2.16933">
        <ele>115.2</ele>
        <time>2026-02-02T13:48:14Z</time>
      </trkpt>
      <trkpt lat="48.53993" lon="2.16939">
        <ele>115.2</ele>
        <time>2026-02-02T13:48:15Z</time>
      </trkpt>
      <trkpt lat="48.53996" lon="2.16946">
        <ele>116</ele>
        <time>2026-02-02T13:48:16Z</time>
      </trkpt>
      <trkpt lat="48.53998" lon="2.16952">
        <ele>116</ele>
        <time>2026-02-02T13:48:17Z</time>
      </trkpt>
      <trkpt lat="48.54001" lon="2.16959">
        <ele>116</ele>
        <time>2026-02-02T13:48:18Z</time>
      </trkpt>
      <trkpt lat="48.54003" lon="2.16965">
        <ele>116</ele>
        <time>2026-02-02T13:48:19Z</time>
      </trkpt>
      <trkpt lat="48.54005" lon="2.16972">
        <ele>117</ele>
        <time>2026-02-02T13:48:20Z</time>
      </trkpt>
      <trkpt lat="48.54007" lon="2.16979">
        <ele>117</ele>
        <time>2026-02-02T13:48:21Z</time>
      </trkpt>
      <trkpt lat="48.5401" lon="2.16985">
        <ele>117</ele>
        <time>2026-02-02T13:48:22Z</time>
      </trkpt>
      <trkpt lat="48.54013" lon="2.16991">
        <ele>117</ele>
        <time>2026-02-02T13:48:23Z</time>
      </trkpt>
      <trkpt lat="48.54016" lon="2.16997">
        <ele>117.8</ele>
        <time>2026-02-02T13:48:24Z</time>
      </trkpt>
      <trkpt lat="48.5402" lon="2.17002">
        <ele>118</ele>
        <time>2026-02-02T13:48:25Z</time>
      </trkpt>
      <trkpt lat="48.54024" lon="2.17008">
        <ele>118</ele>
        <time>2026-02-02T13:48:26Z</time>
      </trkpt>
      <trkpt lat="48.54028" lon="2.17013">
        <ele>118</ele>
        <time>2026-02-02T13:48:27Z</time>
      </trkpt>
      <trkpt lat="48.54032" lon="2.17018">
        <ele>118</ele>
        <time>2026-02-02T13:48:28Z</time>
      </trkpt>
      <trkpt lat="48.54036" lon="2.17023">
        <ele>118.6</ele>
        <time>2026-02-02T13:48:29Z</time>
      </trkpt>
      <trkpt lat="48.54042" lon="2.17029">
        <ele>118.6</ele>
        <time>2026-02-02T13:48:30Z</time>
      </trkpt>
      <trkpt lat="48.54046" lon="2.17033">
        <ele>118.6</ele>
        <time>2026-02-02T13:48:31Z</time>
      </trkpt>
      <trkpt lat="48.5405" lon="2.17038">
        <ele>119.2</ele>
        <time>2026-02-02T13:48:32Z</time>
      </trkpt>
      <trkpt lat="48.54054" lon="2.17043">
        <ele>119.8</ele>
        <time>2026-02-02T13:48:33Z</time>
      </trkpt>
      <trkpt lat="48.54057" lon="2.17049">
        <ele>119.8</ele>
        <time>2026-02-02T13:48:34Z</time>
      </trkpt>
      <trkpt lat="48.54061" lon="2.17053">
        <ele>119.8</ele>
        <time>2026-02-02T13:48:35Z</time>
      </trkpt>
      <trkpt lat="48.54065" lon="2.17058">
        <ele>119.8</ele>
        <time>2026-02-02T13:48:36Z</time>
      </trkpt>
      <trkpt lat="48.54069" lon="2.17063">
        <ele>120.4</ele>
        <time>2026-02-02T13:48:37Z</time>
      </trkpt>
      <trkpt lat="48.54073" lon="2.17068">
        <ele>120.4</ele>
        <time>2026-02-02T13:48:38Z</time>
      </trkpt>
      <trkpt lat="48.54076" lon="2.17074">
        <ele>120.4</ele>
        <time>2026-02-02T13:48:39Z</time>
      </trkpt>
      <trkpt lat="48.5408" lon="2.17079">
        <ele>119.8</ele>
        <time>2026-02-02T13:48:40Z</time>
      </trkpt>
      <trkpt lat="48.54083" lon="2.17085">
        <ele>119.6</ele>
        <time>2026-02-02T13:48:41Z</time>
      </trkpt>
      <trkpt lat="48.54087" lon="2.17091">
        <ele>119.6</ele>
        <time>2026-02-02T13:48:42Z</time>
      </trkpt>
      <trkpt lat="48.54092" lon="2.17097">
        <ele>119.6</ele>
        <time>2026-02-02T13:48:43Z</time>
      </trkpt>
      <trkpt lat="48.54097" lon="2.17103">
        <ele>119.6</ele>
        <time>2026-02-02T13:48:44Z</time>
      </trkpt>
      <trkpt lat="48.54102" lon="2.17109">
        <ele>119</ele>
        <time>2026-02-02T13:48:45Z</time>
      </trkpt>
      <trkpt lat="48.54107" lon="2.17115">
        <ele>119</ele>
        <time>2026-02-02T13:48:46Z</time>
      </trkpt>
      <trkpt lat="48.54113" lon="2.17121">
        <ele>119</ele>
        <time>2026-02-02T13:48:47Z</time>
      </trkpt>
      <trkpt lat="48.54118" lon="2.17128">
        <ele>118</ele>
        <time>2026-02-02T13:48:48Z</time>
      </trkpt>
      <trkpt lat="48.54124" lon="2.17135">
        <ele>117.2</ele>
        <time>2026-02-02T13:48:49Z</time>
      </trkpt>
      <trkpt lat="48.54131" lon="2.17142">
        <ele>117.2</ele>
        <time>2026-02-02T13:48:50Z</time>
      </trkpt>
      <trkpt lat="48.54137" lon="2.17149">
        <ele>117.2</ele>
        <time>2026-02-02T13:48:51Z</time>
      </trkpt>
      <trkpt lat="48.54144" lon="2.17156">
        <ele>116.2</ele>
        <time>2026-02-02T13:48:52Z</time>
      </trkpt>
      <trkpt lat="48.54151" lon="2.17164">
        <ele>115.8</ele>
        <time>2026-02-02T13:48:53Z</time>
      </trkpt>
      <trkpt lat="48.54157" lon="2.17171">
        <ele>115.8</ele>
        <time>2026-02-02T13:48:54Z</time>
      </trkpt>
      <trkpt lat="48.54164" lon="2.17179">
        <ele>115.8</ele>
        <time>2026-02-02T13:48:55Z</time>
      </trkpt>
      <trkpt lat="48.54171" lon="2.17186">
        <ele>115</ele>
        <time>2026-02-02T13:48:56Z</time>
      </trkpt>
      <trkpt lat="48.54178" lon="2.17193">
        <ele>114.6</ele>
        <time>2026-02-02T13:48:57Z</time>
      </trkpt>
      <trkpt lat="48.54185" lon="2.172">
        <ele>114.6</ele>
        <time>2026-02-02T13:48:58Z</time>
      </trkpt>
      <trkpt lat="48.54193" lon="2.17207">
        <ele>114.6</ele>
        <time>2026-02-02T13:48:59Z</time>
      </trkpt>
      <trkpt lat="48.54201" lon="2.17213">
        <ele>113.6</ele>
        <time>2026-02-02T13:49:00Z</time>
      </trkpt>
      <trkpt lat="48.5421" lon="2.17218">
        <ele>112.4</ele>
        <time>2026-02-02T13:49:01Z</time>
      </trkpt>
      <trkpt lat="48.54219" lon="2.17223">
        <ele>112.4</ele>
        <time>2026-02-02T13:49:02Z</time>
      </trkpt>
      <trkpt lat="48.54228" lon="2.17227">
        <ele>112.4</ele>
        <time>2026-02-02T13:49:03Z</time>
      </trkpt>
      <trkpt lat="48.54237" lon="2.17231">
        <ele>111.4</ele>
        <time>2026-02-02T13:49:04Z</time>
      </trkpt>
      <trkpt lat="48.54245" lon="2.17234">
        <ele>110.6</ele>
        <time>2026-02-02T13:49:05Z</time>
      </trkpt>
      <trkpt lat="48.54254" lon="2.17237">
        <ele>110.6</ele>
        <time>2026-02-02T13:49:06Z</time>
      </trkpt>
      <trkpt lat="48.54262" lon="2.1724">
        <ele>110.6</ele>
        <time>2026-02-02T13:49:07Z</time>
      </trkpt>
      <trkpt lat="48.5427" lon="2.17243">
        <ele>109.6</ele>
        <time>2026-02-02T13:49:08Z</time>
      </trkpt>
      <trkpt lat="48.54279" lon="2.17244">
        <ele>109.2</ele>
        <time>2026-02-02T13:49:09Z</time>
      </trkpt>
      <trkpt lat="48.54288" lon="2.17246">
        <ele>109.2</ele>
        <time>2026-02-02T13:49:10Z</time>
      </trkpt>
      <trkpt lat="48.54297" lon="2.17248">
        <ele>109.2</ele>
        <time>2026-02-02T13:49:11Z</time>
      </trkpt>
      <trkpt lat="48.54308" lon="2.17251">
        <ele>108.2</ele>
        <time>2026-02-02T13:49:12Z</time>
      </trkpt>
      <trkpt lat="48.54318" lon="2.17253">
        <ele>106.6</ele>
        <time>2026-02-02T13:49:13Z</time>
      </trkpt>
      <trkpt lat="48.54328" lon="2.17257">
        <ele>106.6</ele>
        <time>2026-02-02T13:49:14Z</time>
      </trkpt>
      <trkpt lat="48.54338" lon="2.17261">
        <ele>106.6</ele>
        <time>2026-02-02T13:49:15Z</time>
      </trkpt>
      <trkpt lat="48.54348" lon="2.17265">
        <ele>105.6</ele>
        <time>2026-02-02T13:49:16Z</time>
      </trkpt>
      <trkpt lat="48.54358" lon="2.1727">
        <ele>105.2</ele>
        <time>2026-02-02T13:49:17Z</time>
      </trkpt>
      <trkpt lat="48.54368" lon="2.17276">
        <ele>105.2</ele>
        <time>2026-02-02T13:49:18Z</time>
      </trkpt>
      <trkpt lat="48.54378" lon="2.17282">
        <ele>105.2</ele>
        <time>2026-02-02T13:49:19Z</time>
      </trkpt>
      <trkpt lat="48.54388" lon="2.17288">
        <ele>105.2</ele>
        <time>2026-02-02T13:49:20Z</time>
      </trkpt>
      <trkpt lat="48.54397" lon="2.17295">
        <ele>104.4</ele>
        <time>2026-02-02T13:49:21Z</time>
      </trkpt>
      <trkpt lat="48.54407" lon="2.17301">
        <ele>104.4</ele>
        <time>2026-02-02T13:49:22Z</time>
      </trkpt>
      <trkpt lat="48.54416" lon="2.17308">
        <ele>104.4</ele>
        <time>2026-02-02T13:49:23Z</time>
      </trkpt>
      <trkpt lat="48.54426" lon="2.17315">
        <ele>103.4</ele>
        <time>2026-02-02T13:49:24Z</time>
      </trkpt>
      <trkpt lat="48.54435" lon="2.17321">
        <ele>102.6</ele>
        <time>2026-02-02T13:49:25Z</time>
      </trkpt>
      <trkpt lat="48.54444" lon="2.17328">
        <ele>102.6</ele>
        <time>2026-02-02T13:49:26Z</time>
      </trkpt>
      <trkpt lat="48.54453" lon="2.17334">
        <ele>102.6</ele>
        <time>2026-02-02T13:49:27Z</time>
      </trkpt>
      <trkpt lat="48.54462" lon="2.1734">
        <ele>102.6</ele>
        <time>2026-02-02T13:49:28Z</time>
      </trkpt>
      <trkpt lat="48.54471" lon="2.17346">
        <ele>101.2</ele>
        <time>2026-02-02T13:49:29Z</time>
      </trkpt>
      <trkpt lat="48.5448" lon="2.17352">
        <ele>101.2</ele>
        <time>2026-02-02T13:49:30Z</time>
      </trkpt>
      <trkpt lat="48.54489" lon="2.17358">
        <ele>101.2</ele>
        <time>2026-02-02T13:49:31Z</time>
      </trkpt>
      <trkpt lat="48.54499" lon="2.17364">
        <ele>101.2</ele>
        <time>2026-02-02T13:49:32Z</time>
      </trkpt>
      <trkpt lat="48.54508" lon="2.17369">
        <ele>100.2</ele>
        <time>2026-02-02T13:49:33Z</time>
      </trkpt>
      <trkpt lat="48.54518" lon="2.17373">
        <ele>100.2</ele>
        <time>2026-02-02T13:49:34Z</time>
      </trkpt>
      <trkpt lat="48.54526" lon="2.17378">
        <ele>100.2</ele>
        <time>2026-02-02T13:49:35Z</time>
      </trkpt>
      <trkpt lat="48.54536" lon="2.17382">
        <ele>99.2</ele>
        <time>2026-02-02T13:49:36Z</time>
      </trkpt>
      <trkpt lat="48.54546" lon="2.17386">
        <ele>97.6</ele>
        <time>2026-02-02T13:49:37Z</time>
      </trkpt>
      <trkpt lat="48.54557" lon="2.1739">
        <ele>97.6</ele>
        <time>2026-02-02T13:49:38Z</time>
      </trkpt>
      <trkpt lat="48.54567" lon="2.17395">
        <ele>97.6</ele>
        <time>2026-02-02T13:49:39Z</time>
      </trkpt>
      <trkpt lat="48.54577" lon="2.17399">
        <ele>96.6</ele>
        <time>2026-02-02T13:49:40Z</time>
      </trkpt>
      <trkpt lat="48.54588" lon="2.17404">
        <ele>95.8</ele>
        <time>2026-02-02T13:49:41Z</time>
      </trkpt>
      <trkpt lat="48.54598" lon="2.17409">
        <ele>95.8</ele>
        <time>2026-02-02T13:49:42Z</time>
      </trkpt>
      <trkpt lat="48.54608" lon="2.17415">
        <ele>95.8</ele>
        <time>2026-02-02T13:49:43Z</time>
      </trkpt>
      <trkpt lat="48.54618" lon="2.1742">
        <ele>94.8</ele>
        <time>2026-02-02T13:49:44Z</time>
      </trkpt>
      <trkpt lat="48.54628" lon="2.17427">
        <ele>94.8</ele>
        <time>2026-02-02T13:49:45Z</time>
      </trkpt>
      <trkpt lat="48.54638" lon="2.17434">
        <ele>94.8</ele>
        <time>2026-02-02T13:49:46Z</time>
      </trkpt>
      <trkpt lat="48.54647" lon="2.1744">
        <ele>94.8</ele>
        <time>2026-02-02T13:49:47Z</time>
      </trkpt>
      <trkpt lat="48.54656" lon="2.17445">
        <ele>95.6</ele>
        <time>2026-02-02T13:49:48Z</time>
      </trkpt>
      <trkpt lat="48.54664" lon="2.17451">
        <ele>95.6</ele>
        <time>2026-02-02T13:49:49Z</time>
      </trkpt>
      <trkpt lat="48.54673" lon="2.17456">
        <ele>95.6</ele>
        <time>2026-02-02T13:49:50Z</time>
      </trkpt>
      <trkpt lat="48.54681" lon="2.17461">
        <ele>95.6</ele>
        <time>2026-02-02T13:49:51Z</time>
      </trkpt>
      <trkpt lat="48.54689" lon="2.17466">
        <ele>95.6</ele>
        <time>2026-02-02T13:49:52Z</time>
      </trkpt>
      <trkpt lat="48.54697" lon="2.1747">
        <ele>96.6</ele>
        <time>2026-02-02T13:49:53Z</time>
      </trkpt>
      <trkpt lat="48.54703" lon="2.17475">
        <ele>96.6</ele>
        <time>2026-02-02T13:49:54Z</time>
      </trkpt>
      <trkpt lat="48.5471" lon="2.17479">
        <ele>96.6</ele>
        <time>2026-02-02T13:49:55Z</time>
      </trkpt>
      <trkpt lat="48.54717" lon="2.17483">
        <ele>97.6</ele>
        <time>2026-02-02T13:49:56Z</time>
      </trkpt>
      <trkpt lat="48.54722" lon="2.17486">
        <ele>99</ele>
        <time>2026-02-02T13:49:57Z</time>
      </trkpt>
      <trkpt lat="48.54728" lon="2.1749">
        <ele>99</ele>
        <time>2026-02-02T13:49:58Z</time>
      </trkpt>
      <trkpt lat="48.54733" lon="2.17493">
        <ele>99</ele>
        <time>2026-02-02T13:49:59Z</time>
      </trkpt>
      <trkpt lat="48.54738" lon="2.17497">
        <ele>99</ele>
        <time>2026-02-02T13:50:00Z</time>
      </trkpt>
      <trkpt lat="48.54743" lon="2.175">
        <ele>99.2</ele>
        <time>2026-02-02T13:50:01Z</time>
      </trkpt>
      <trkpt lat="48.54747" lon="2.17503">
        <ele>99.2</ele>
        <time>2026-02-02T13:50:02Z</time>
      </trkpt>
      <trkpt lat="48.5475" lon="2.17505">
        <ele>99.2</ele>
        <time>2026-02-02T13:50:03Z</time>
      </trkpt>
      <trkpt lat="48.54754" lon="2.17508">
        <ele>100</ele>
        <time>2026-02-02T13:50:04Z</time>
      </trkpt>
      <trkpt lat="48.54757" lon="2.17511">
        <ele>100.2</ele>
        <time>2026-02-02T13:50:05Z</time>
      </trkpt>
      <trkpt lat="48.54761" lon="2.17513">
        <ele>100.2</ele>
        <time>2026-02-02T13:50:06Z</time>
      </trkpt>
      <trkpt lat="48.54765" lon="2.17515">
        <ele>100.2</ele>
        <time>2026-02-02T13:50:07Z</time>
      </trkpt>
      <trkpt lat="48.54769" lon="2.17517">
        <ele>100.8</ele>
        <time>2026-02-02T13:50:08Z</time>
      </trkpt>
      <trkpt lat="48.54772" lon="2.17519">
        <ele>100.8</ele>
        <time>2026-02-02T13:50:09Z</time>
      </trkpt>
      <trkpt lat="48.54776" lon="2.17521">
        <ele>100.8</ele>
        <time>2026-02-02T13:50:10Z</time>
      </trkpt>
      <trkpt lat="48.54779" lon="2.17523">
        <ele>100.8</ele>
        <time>2026-02-02T13:50:11Z</time>
      </trkpt>
      <trkpt lat="48.54782" lon="2.17525">
        <ele>101.8</ele>
        <time>2026-02-02T13:50:12Z</time>
      </trkpt>
      <trkpt lat="48.54786" lon="2.17526">
        <ele>102</ele>
        <time>2026-02-02T13:50:13Z</time>
      </trkpt>
      <trkpt lat="48.54789" lon="2.17528">
        <ele>102</ele>
        <time>2026-02-02T13:50:14Z</time>
      </trkpt>
      <trkpt lat="48.54793" lon="2.1753">
        <ele>102</ele>
        <time>2026-02-02T13:50:15Z</time>
      </trkpt>
      <trkpt lat="48.54796" lon="2.17531">
        <ele>102.6</ele>
        <time>2026-02-02T13:50:16Z</time>
      </trkpt>
      <trkpt lat="48.548" lon="2.17533">
        <ele>103.2</ele>
        <time>2026-02-02T13:50:17Z</time>
      </trkpt>
      <trkpt lat="48.54803" lon="2.17535">
        <ele>103.2</ele>
        <time>2026-02-02T13:50:18Z</time>
      </trkpt>
      <trkpt lat="48.54806" lon="2.17536">
        <ele>103.2</ele>
        <time>2026-02-02T13:50:19Z</time>
      </trkpt>
      <trkpt lat="48.54809" lon="2.17537">
        <ele>103.2</ele>
        <time>2026-02-02T13:50:20Z</time>
      </trkpt>
      <trkpt lat="48.54812" lon="2.17539">
        <ele>103.8</ele>
        <time>2026-02-02T13:50:21Z</time>
      </trkpt>
      <trkpt lat="48.54814" lon="2.17541">
        <ele>103.8</ele>
        <time>2026-02-02T13:50:22Z</time>
      </trkpt>
      <trkpt lat="48.54818" lon="2.17543">
        <ele>103.8</ele>
        <time>2026-02-02T13:50:23Z</time>
      </trkpt>
      <trkpt lat="48.5482" lon="2.17544">
        <ele>104.6</ele>
        <time>2026-02-02T13:50:24Z</time>
      </trkpt>
      <trkpt lat="48.54823" lon="2.17545">
        <ele>104.4</ele>
        <time>2026-02-02T13:50:25Z</time>
      </trkpt>
      <trkpt lat="48.54825" lon="2.17547">
        <ele>104.4</ele>
        <time>2026-02-02T13:50:26Z</time>
      </trkpt>
      <trkpt lat="48.54828" lon="2.17548">
        <ele>104.4</ele>
        <time>2026-02-02T13:50:27Z</time>
      </trkpt>
      <trkpt lat="48.54831" lon="2.17549">
        <ele>105.2</ele>
        <time>2026-02-02T13:50:28Z</time>
      </trkpt>
      <trkpt lat="48.54835" lon="2.17551">
        <ele>105.4</ele>
        <time>2026-02-02T13:50:29Z</time>
      </trkpt>
      <trkpt lat="48.54838" lon="2.17552">
        <ele>105.4</ele>
        <time>2026-02-02T13:50:30Z</time>
      </trkpt>
      <trkpt lat="48.54842" lon="2.17553">
        <ele>105.4</ele>
        <time>2026-02-02T13:50:31Z</time>
      </trkpt>
      <trkpt lat="48.54845" lon="2.17554">
        <ele>105.4</ele>
        <time>2026-02-02T13:50:32Z</time>
      </trkpt>
      <trkpt lat="48.54848" lon="2.17555">
        <ele>106.2</ele>
        <time>2026-02-02T13:50:33Z</time>
      </trkpt>
      <trkpt lat="48.54851" lon="2.17556">
        <ele>106.2</ele>
        <time>2026-02-02T13:50:34Z</time>
      </trkpt>
      <trkpt lat="48.54855" lon="2.17558">
        <ele>106.2</ele>
        <time>2026-02-02T13:50:35Z</time>
      </trkpt>
      <trkpt lat="48.54859" lon="2.17559">
        <ele>106.6</ele>
        <time>2026-02-02T13:50:36Z</time>
      </trkpt>
      <trkpt lat="48.54863" lon="2.17561">
        <ele>107</ele>
        <time>2026-02-02T13:50:37Z</time>
      </trkpt>
      <trkpt lat="48.54867" lon="2.17562">
        <ele>107</ele>
        <time>2026-02-02T13:50:38Z</time>
      </trkpt>
      <trkpt lat="48.5487" lon="2.17562">
        <ele>107</ele>
        <time>2026-02-02T13:50:39Z</time>
      </trkpt>
      <trkpt lat="48.54875" lon="2.17564">
        <ele>107</ele>
        <time>2026-02-02T13:50:40Z</time>
      </trkpt>
      <trkpt lat="48.54879" lon="2.17565">
        <ele>107.2</ele>
        <time>2026-02-02T13:50:41Z</time>
      </trkpt>
      <trkpt lat="48.54883" lon="2.17567">
        <ele>107.2</ele>
        <time>2026-02-02T13:50:42Z</time>
      </trkpt>
      <trkpt lat="48.54887" lon="2.17568">
        <ele>107.2</ele>
        <time>2026-02-02T13:50:43Z</time>
      </trkpt>
      <trkpt lat="48.54891" lon="2.17569">
        <ele>107.8</ele>
        <time>2026-02-02T13:50:44Z</time>
      </trkpt>
      <trkpt lat="48.54895" lon="2.17571">
        <ele>107.8</ele>
        <time>2026-02-02T13:50:45Z</time>
      </trkpt>
      <trkpt lat="48.54899" lon="2.17573">
        <ele>107.8</ele>
        <time>2026-02-02T13:50:46Z</time>
      </trkpt>
      <trkpt lat="48.54902" lon="2.17575">
        <ele>107.8</ele>
        <time>2026-02-02T13:50:47Z</time>
      </trkpt>
      <trkpt lat="48.54905" lon="2.17577">
        <ele>107.8</ele>
        <time>2026-02-02T13:50:48Z</time>
      </trkpt>
      <trkpt lat="48.54909" lon="2.17578">
        <ele>108.4</ele>
        <time>2026-02-02T13:50:49Z</time>
      </trkpt>
      <trkpt lat="48.54912" lon="2.1758">
        <ele>108.4</ele>
        <time>2026-02-02T13:50:50Z</time>
      </trkpt>
      <trkpt lat="48.54915" lon="2.17581">
        <ele>108.4</ele>
        <time>2026-02-02T13:50:51Z</time>
      </trkpt>
      <trkpt lat="48.54919" lon="2.17582">
        <ele>108.6</ele>
        <time>2026-02-02T13:50:52Z</time>
      </trkpt>
      <trkpt lat="48.54923" lon="2.17584">
        <ele>108.8</ele>
        <time>2026-02-02T13:50:53Z</time>
      </trkpt>
      <trkpt lat="48.54926" lon="2.17585">
        <ele>108.8</ele>
        <time>2026-02-02T13:50:54Z</time>
      </trkpt>
      <trkpt lat="48.54929" lon="2.17586">
        <ele>108.8</ele>
        <time>2026-02-02T13:50:55Z</time>
      </trkpt>
      <trkpt lat="48.54933" lon="2.17588">
        <ele>108.8</ele>
        <time>2026-02-02T13:50:56Z</time>
      </trkpt>
      <trkpt lat="48.54935" lon="2.1759">
        <ele>109</ele>
        <time>2026-02-02T13:50:57Z</time>
      </trkpt>
      <trkpt lat="48.54938" lon="2.17591">
        <ele>109</ele>
        <time>2026-02-02T13:50:58Z</time>
      </trkpt>
      <trkpt lat="48.54942" lon="2.17592">
        <ele>109</ele>
        <time>2026-02-02T13:50:59Z</time>
      </trkpt>
      <trkpt lat="48.54945" lon="2.17594">
        <ele>109</ele>
        <time>2026-02-02T13:51:00Z</time>
      </trkpt>
      <trkpt lat="48.54949" lon="2.17595">
        <ele>109.4</ele>
        <time>2026-02-02T13:51:01Z</time>
      </trkpt>
      <trkpt lat="48.54952" lon="2.17597">
        <ele>109.4</ele>
        <time>2026-02-02T13:51:02Z</time>
      </trkpt>
      <trkpt lat="48.54956" lon="2.17598">
        <ele>109.4</ele>
        <time>2026-02-02T13:51:03Z</time>
      </trkpt>
      <trkpt lat="48.54959" lon="2.17599">
        <ele>109.4</ele>
        <time>2026-02-02T13:51:04Z</time>
      </trkpt>
      <trkpt lat="48.54963" lon="2.17601">
        <ele>109.8</ele>
        <time>2026-02-02T13:51:05Z</time>
      </trkpt>
      <trkpt lat="48.54966" lon="2.17602">
        <ele>109.8</ele>
        <time>2026-02-02T13:51:06Z</time>
      </trkpt>
      <trkpt lat="48.5497" lon="2.17604">
        <ele>109.8</ele>
        <time>2026-02-02T13:51:07Z</time>
      </trkpt>
      <trkpt lat="48.54974" lon="2.17606">
        <ele>110.2</ele>
        <time>2026-02-02T13:51:08Z</time>
      </trkpt>
      <trkpt lat="48.54977" lon="2.17607">
        <ele>110</ele>
        <time>2026-02-02T13:51:09Z</time>
      </trkpt>
      <trkpt lat="48.5498" lon="2.17609">
        <ele>110</ele>
        <time>2026-02-02T13:51:10Z</time>
      </trkpt>
      <trkpt lat="48.54985" lon="2.17611">
        <ele>110</ele>
        <time>2026-02-02T13:51:11Z</time>
      </trkpt>
      <trkpt lat="48.54989" lon="2.17613">
        <ele>110.8</ele>
        <time>2026-02-02T13:51:12Z</time>
      </trkpt>
      <trkpt lat="48.54993" lon="2.17615">
        <ele>110.8</ele>
        <time>2026-02-02T13:51:13Z</time>
      </trkpt>
      <trkpt lat="48.54997" lon="2.17618">
        <ele>110.8</ele>
        <time>2026-02-02T13:51:14Z</time>
      </trkpt>
      <trkpt lat="48.55001" lon="2.17621">
        <ele>110.8</ele>
        <time>2026-02-02T13:51:15Z</time>
      </trkpt>
      <trkpt lat="48.55005" lon="2.17625">
        <ele>110.8</ele>
        <time>2026-02-02T13:51:16Z</time>
      </trkpt>
      <trkpt lat="48.55009" lon="2.17629">
        <ele>111.6</ele>
        <time>2026-02-02T13:51:17Z</time>
      </trkpt>
      <trkpt lat="48.55012" lon="2.17633">
        <ele>111.6</ele>
        <time>2026-02-02T13:51:18Z</time>
      </trkpt>
      <trkpt lat="48.55015" lon="2.17637">
        <ele>111.6</ele>
        <time>2026-02-02T13:51:19Z</time>
      </trkpt>
      <trkpt lat="48.55018" lon="2.17641">
        <ele>111.6</ele>
        <time>2026-02-02T13:51:20Z</time>
      </trkpt>
      <trkpt lat="48.5502" lon="2.17645">
        <ele>112.4</ele>
        <time>2026-02-02T13:51:21Z</time>
      </trkpt>
      <trkpt lat="48.55023" lon="2.17649">
        <ele>112.4</ele>
        <time>2026-02-02T13:51:22Z</time>
      </trkpt>
      <trkpt lat="48.55026" lon="2.17653">
        <ele>112.4</ele>
        <time>2026-02-02T13:51:23Z</time>
      </trkpt>
      <trkpt lat="48.55028" lon="2.17657">
        <ele>112.4</ele>
        <time>2026-02-02T13:51:24Z</time>
      </trkpt>
      <trkpt lat="48.55031" lon="2.17662">
        <ele>113.4</ele>
        <time>2026-02-02T13:51:25Z</time>
      </trkpt>
      <trkpt lat="48.55034" lon="2.17665">
        <ele>113.4</ele>
        <time>2026-02-02T13:51:26Z</time>
      </trkpt>
      <trkpt lat="48.55037" lon="2.1767">
        <ele>113.4</ele>
        <time>2026-02-02T13:51:27Z</time>
      </trkpt>
      <trkpt lat="48.55039" lon="2.17673">
        <ele>113.4</ele>
        <time>2026-02-02T13:51:28Z</time>
      </trkpt>
      <trkpt lat="48.55043" lon="2.17677">
        <ele>114</ele>
        <time>2026-02-02T13:51:29Z</time>
      </trkpt>
      <trkpt lat="48.55045" lon="2.17681">
        <ele>114</ele>
        <time>2026-02-02T13:51:30Z</time>
      </trkpt>
      <trkpt lat="48.55048" lon="2.17685">
        <ele>114</ele>
        <time>2026-02-02T13:51:31Z</time>
      </trkpt>
      <trkpt lat="48.55051" lon="2.17689">
        <ele>114</ele>
        <time>2026-02-02T13:51:32Z</time>
      </trkpt>
      <trkpt lat="48.55053" lon="2.17693">
        <ele>114.6</ele>
        <time>2026-02-02T13:51:33Z</time>
      </trkpt>
      <trkpt lat="48.55056" lon="2.17696">
        <ele>114.6</ele>
        <time>2026-02-02T13:51:34Z</time>
      </trkpt>
      <trkpt lat="48.55058" lon="2.177">
        <ele>114.6</ele>
        <time>2026-02-02T13:51:35Z</time>
      </trkpt>
      <trkpt lat="48.55061" lon="2.17703">
        <ele>115</ele>
        <time>2026-02-02T13:51:36Z</time>
      </trkpt>
      <trkpt lat="48.55064" lon="2.17706">
        <ele>115.8</ele>
        <time>2026-02-02T13:51:37Z</time>
      </trkpt>
      <trkpt lat="48.55066" lon="2.17709">
        <ele>115.8</ele>
        <time>2026-02-02T13:51:38Z</time>
      </trkpt>
      <trkpt lat="48.55069" lon="2.17712">
        <ele>115.8</ele>
        <time>2026-02-02T13:51:39Z</time>
      </trkpt>
      <trkpt lat="48.55071" lon="2.17715">
        <ele>115.8</ele>
        <time>2026-02-02T13:51:40Z</time>
      </trkpt>
      <trkpt lat="48.55074" lon="2.17718">
        <ele>116.2</ele>
        <time>2026-02-02T13:51:41Z</time>
      </trkpt>
      <trkpt lat="48.55077" lon="2.17721">
        <ele>116.2</ele>
        <time>2026-02-02T13:51:42Z</time>
      </trkpt>
      <trkpt lat="48.5508" lon="2.17725">
        <ele>116.2</ele>
        <time>2026-02-02T13:51:43Z</time>
      </trkpt>
      <trkpt lat="48.55083" lon="2.17727">
        <ele>117</ele>
        <time>2026-02-02T13:51:44Z</time>
      </trkpt>
      <trkpt lat="48.55086" lon="2.1773">
        <ele>117.2</ele>
        <time>2026-02-02T13:51:45Z</time>
      </trkpt>
      <trkpt lat="48.55089" lon="2.17733">
        <ele>117.2</ele>
        <time>2026-02-02T13:51:46Z</time>
      </trkpt>
      <trkpt lat="48.55093" lon="2.17735">
        <ele>117.2</ele>
        <time>2026-02-02T13:51:47Z</time>
      </trkpt>
      <trkpt lat="48.55096" lon="2.17737">
        <ele>117.2</ele>
        <time>2026-02-02T13:51:48Z</time>
      </trkpt>
      <trkpt lat="48.551" lon="2.17739">
        <ele>117.8</ele>
        <time>2026-02-02T13:51:49Z</time>
      </trkpt>
      <trkpt lat="48.55104" lon="2.17741">
        <ele>117.8</ele>
        <time>2026-02-02T13:51:50Z</time>
      </trkpt>
      <trkpt lat="48.55108" lon="2.17743">
        <ele>117.8</ele>
        <time>2026-02-02T13:51:51Z</time>
      </trkpt>
      <trkpt lat="48.55112" lon="2.17745">
        <ele>117.8</ele>
        <time>2026-02-02T13:51:52Z</time>
      </trkpt>
      <trkpt lat="48.55115" lon="2.17747">
        <ele>118.6</ele>
        <time>2026-02-02T13:51:53Z</time>
      </trkpt>
      <trkpt lat="48.55118" lon="2.17749">
        <ele>118.6</ele>
        <time>2026-02-02T13:51:54Z</time>
      </trkpt>
      <trkpt lat="48.55122" lon="2.17751">
        <ele>118.6</ele>
        <time>2026-02-02T13:51:55Z</time>
      </trkpt>
      <trkpt lat="48.55125" lon="2.17753">
        <ele>119.2</ele>
        <time>2026-02-02T13:51:56Z</time>
      </trkpt>
      <trkpt lat="48.55129" lon="2.17756">
        <ele>119.2</ele>
        <time>2026-02-02T13:51:57Z</time>
      </trkpt>
      <trkpt lat="48.55133" lon="2.17758">
        <ele>119.2</ele>
        <time>2026-02-02T13:51:58Z</time>
      </trkpt>
      <trkpt lat="48.55136" lon="2.1776">
        <ele>119.2</ele>
        <time>2026-02-02T13:51:59Z</time>
      </trkpt>
      <trkpt lat="48.5514" lon="2.17762">
        <ele>119.4</ele>
        <time>2026-02-02T13:52:00Z</time>
      </trkpt>
      <trkpt lat="48.55144" lon="2.17764">
        <ele>119.6</ele>
        <time>2026-02-02T13:52:01Z</time>
      </trkpt>
      <trkpt lat="48.55148" lon="2.17766">
        <ele>119.6</ele>
        <time>2026-02-02T13:52:02Z</time>
      </trkpt>
      <trkpt lat="48.55151" lon="2.17768">
        <ele>119.6</ele>
        <time>2026-02-02T13:52:03Z</time>
      </trkpt>
      <trkpt lat="48.55155" lon="2.17771">
        <ele>119.6</ele>
        <time>2026-02-02T13:52:04Z</time>
      </trkpt>
      <trkpt lat="48.55158" lon="2.17773">
        <ele>120.4</ele>
        <time>2026-02-02T13:52:05Z</time>
      </trkpt>
      <trkpt lat="48.55161" lon="2.17776">
        <ele>120.4</ele>
        <time>2026-02-02T13:52:06Z</time>
      </trkpt>
      <trkpt lat="48.55165" lon="2.17778">
        <ele>120.4</ele>
        <time>2026-02-02T13:52:07Z</time>
      </trkpt>
      <trkpt lat="48.55168" lon="2.1778">
        <ele>120.4</ele>
        <time>2026-02-02T13:52:08Z</time>
      </trkpt>
      <trkpt lat="48.55172" lon="2.17782">
        <ele>120.8</ele>
        <time>2026-02-02T13:52:09Z</time>
      </trkpt>
      <trkpt lat="48.55177" lon="2.17783">
        <ele>120.8</ele>
        <time>2026-02-02T13:52:10Z</time>
      </trkpt>
      <trkpt lat="48.55181" lon="2.17785">
        <ele>120.8</ele>
        <time>2026-02-02T13:52:11Z</time>
      </trkpt>
      <trkpt lat="48.55185" lon="2.17786">
        <ele>120.8</ele>
        <time>2026-02-02T13:52:12Z</time>
      </trkpt>
      <trkpt lat="48.55189" lon="2.17787">
        <ele>120.8</ele>
        <time>2026-02-02T13:52:13Z</time>
      </trkpt>
      <trkpt lat="48.55194" lon="2.17789">
        <ele>120.8</ele>
        <time>2026-02-02T13:52:14Z</time>
      </trkpt>
      <trkpt lat="48.55199" lon="2.1779">
        <ele>120.8</ele>
        <time>2026-02-02T13:52:15Z</time>
      </trkpt>
      <trkpt lat="48.55204" lon="2.17792">
        <ele>121</ele>
        <time>2026-02-02T13:52:16Z</time>
      </trkpt>
      <trkpt lat="48.5521" lon="2.17793">
        <ele>120</ele>
        <time>2026-02-02T13:52:17Z</time>
      </trkpt>
      <trkpt lat="48.55215" lon="2.17795">
        <ele>120</ele>
        <time>2026-02-02T13:52:18Z</time>
      </trkpt>
      <trkpt lat="48.55221" lon="2.17797">
        <ele>120</ele>
        <time>2026-02-02T13:52:19Z</time>
      </trkpt>
      <trkpt lat="48.55227" lon="2.178">
        <ele>120</ele>
        <time>2026-02-02T13:52:20Z</time>
      </trkpt>
      <trkpt lat="48.55233" lon="2.17803">
        <ele>120.2</ele>
        <time>2026-02-02T13:52:21Z</time>
      </trkpt>
      <trkpt lat="48.55239" lon="2.17806">
        <ele>120.2</ele>
        <time>2026-02-02T13:52:22Z</time>
      </trkpt>
      <trkpt lat="48.55245" lon="2.17809">
        <ele>120.2</ele>
        <time>2026-02-02T13:52:23Z</time>
      </trkpt>
      <trkpt lat="48.55251" lon="2.17813">
        <ele>119.4</ele>
        <time>2026-02-02T13:52:24Z</time>
      </trkpt>
      <trkpt lat="48.55257" lon="2.17817">
        <ele>118.8</ele>
        <time>2026-02-02T13:52:25Z</time>
      </trkpt>
      <trkpt lat="48.55263" lon="2.17821">
        <ele>118.8</ele>
        <time>2026-02-02T13:52:26Z</time>
      </trkpt>
      <trkpt lat="48.55269" lon="2.17825">
        <ele>118.8</ele>
        <time>2026-02-02T13:52:27Z</time>
      </trkpt>
      <trkpt lat="48.55276" lon="2.1783">
        <ele>118.8</ele>
        <time>2026-02-02T13:52:28Z</time>
      </trkpt>
      <trkpt lat="48.55283" lon="2.17835">
        <ele>117</ele>
        <time>2026-02-02T13:52:29Z</time>
      </trkpt>
      <trkpt lat="48.5529" lon="2.17839">
        <ele>117</ele>
        <time>2026-02-02T13:52:30Z</time>
      </trkpt>
      <trkpt lat="48.55297" lon="2.17844">
        <ele>117</ele>
        <time>2026-02-02T13:52:31Z</time>
      </trkpt>
      <trkpt lat="48.55304" lon="2.17849">
        <ele>116</ele>
        <time>2026-02-02T13:52:32Z</time>
      </trkpt>
      <trkpt lat="48.55312" lon="2.17854">
        <ele>115.8</ele>
        <time>2026-02-02T13:52:33Z</time>
      </trkpt>
      <trkpt lat="48.5532" lon="2.1786">
        <ele>115.8</ele>
        <time>2026-02-02T13:52:34Z</time>
      </trkpt>
      <trkpt lat="48.55328" lon="2.17867">
        <ele>115.8</ele>
        <time>2026-02-02T13:52:35Z</time>
      </trkpt>
      <trkpt lat="48.55336" lon="2.17873">
        <ele>114.8</ele>
        <time>2026-02-02T13:52:36Z</time>
      </trkpt>
      <trkpt lat="48.55344" lon="2.1788">
        <ele>113.6</ele>
        <time>2026-02-02T13:52:37Z</time>
      </trkpt>
      <trkpt lat="48.55352" lon="2.17886">
        <ele>113.6</ele>
        <time>2026-02-02T13:52:38Z</time>
      </trkpt>
      <trkpt lat="48.5536" lon="2.17892">
        <ele>113.6</ele>
        <time>2026-02-02T13:52:39Z</time>
      </trkpt>
      <trkpt lat="48.55368" lon="2.17898">
        <ele>113.6</ele>
        <time>2026-02-02T13:52:40Z</time>
      </trkpt>
      <trkpt lat="48.55376" lon="2.17905">
        <ele>112.8</ele>
        <time>2026-02-02T13:52:41Z</time>
      </trkpt>
      <trkpt lat="48.55384" lon="2.17912">
        <ele>112.8</ele>
        <time>2026-02-02T13:52:42Z</time>
      </trkpt>
      <trkpt lat="48.55392" lon="2.17918">
        <ele>112.8</ele>
        <time>2026-02-02T13:52:43Z</time>
      </trkpt>
      <trkpt lat="48.55399" lon="2.17924">
        <ele>112.8</ele>
        <time>2026-02-02T13:52:44Z</time>
      </trkpt>
      <trkpt lat="48.55407" lon="2.17929">
        <ele>113.6</ele>
        <time>2026-02-02T13:52:45Z</time>
      </trkpt>
      <trkpt lat="48.55415" lon="2.17934">
        <ele>113.6</ele>
        <time>2026-02-02T13:52:46Z</time>
      </trkpt>
      <trkpt lat="48.55422" lon="2.17939">
        <ele>113.6</ele>
        <time>2026-02-02T13:52:47Z</time>
      </trkpt>
      <trkpt lat="48.5543" lon="2.17944">
        <ele>112.6</ele>
        <time>2026-02-02T13:52:48Z</time>
      </trkpt>
      <trkpt lat="48.55437" lon="2.17948">
        <ele>113.2</ele>
        <time>2026-02-02T13:52:49Z</time>
      </trkpt>
      <trkpt lat="48.55444" lon="2.17952">
        <ele>113.2</ele>
        <time>2026-02-02T13:52:50Z</time>
      </trkpt>
      <trkpt lat="48.55452" lon="2.17956">
        <ele>113.2</ele>
        <time>2026-02-02T13:52:51Z</time>
      </trkpt>
      <trkpt lat="48.55459" lon="2.1796">
        <ele>113.6</ele>
        <time>2026-02-02T13:52:52Z</time>
      </trkpt>
      <trkpt lat="48.55465" lon="2.17964">
        <ele>113.6</ele>
        <time>2026-02-02T13:52:53Z</time>
      </trkpt>
      <trkpt lat="48.55472" lon="2.17967">
        <ele>113.6</ele>
        <time>2026-02-02T13:52:54Z</time>
      </trkpt>
      <trkpt lat="48.55479" lon="2.1797">
        <ele>113.6</ele>
        <time>2026-02-02T13:52:55Z</time>
      </trkpt>
      <trkpt lat="48.55485" lon="2.17973">
        <ele>113.6</ele>
        <time>2026-02-02T13:52:56Z</time>
      </trkpt>
      <trkpt lat="48.55492" lon="2.17976">
        <ele>114</ele>
        <time>2026-02-02T13:52:57Z</time>
      </trkpt>
      <trkpt lat="48.55498" lon="2.17979">
        <ele>114</ele>
        <time>2026-02-02T13:52:58Z</time>
      </trkpt>
      <trkpt lat="48.55504" lon="2.17982">
        <ele>114</ele>
        <time>2026-02-02T13:52:59Z</time>
      </trkpt>
      <trkpt lat="48.5551" lon="2.17985">
        <ele>114</ele>
        <time>2026-02-02T13:53:00Z</time>
      </trkpt>
      <trkpt lat="48.55516" lon="2.17987">
        <ele>114.4</ele>
        <time>2026-02-02T13:53:01Z</time>
      </trkpt>
      <trkpt lat="48.55522" lon="2.17989">
        <ele>114.4</ele>
        <time>2026-02-02T13:53:02Z</time>
      </trkpt>
      <trkpt lat="48.55528" lon="2.17992">
        <ele>114.4</ele>
        <time>2026-02-02T13:53:03Z</time>
      </trkpt>
      <trkpt lat="48.55534" lon="2.17994">
        <ele>114</ele>
        <time>2026-02-02T13:53:04Z</time>
      </trkpt>
      <trkpt lat="48.55541" lon="2.17996">
        <ele>114</ele>
        <time>2026-02-02T13:53:05Z</time>
      </trkpt>
      <trkpt lat="48.55548" lon="2.17999">
        <ele>114</ele>
        <time>2026-02-02T13:53:06Z</time>
      </trkpt>
      <trkpt lat="48.55555" lon="2.18002">
        <ele>114</ele>
        <time>2026-02-02T13:53:07Z</time>
      </trkpt>
      <trkpt lat="48.55562" lon="2.18004">
        <ele>113</ele>
        <time>2026-02-02T13:53:08Z</time>
      </trkpt>
      <trkpt lat="48.5557" lon="2.18007">
        <ele>111</ele>
        <time>2026-02-02T13:53:09Z</time>
      </trkpt>
      <trkpt lat="48.55578" lon="2.18009">
        <ele>111</ele>
        <time>2026-02-02T13:53:10Z</time>
      </trkpt>
      <trkpt lat="48.55586" lon="2.18012">
        <ele>111</ele>
        <time>2026-02-02T13:53:11Z</time>
      </trkpt>
      <trkpt lat="48.55594" lon="2.18014">
        <ele>111</ele>
        <time>2026-02-02T13:53:12Z</time>
      </trkpt>
      <trkpt lat="48.55603" lon="2.18017">
        <ele>109.6</ele>
        <time>2026-02-02T13:53:13Z</time>
      </trkpt>
      <trkpt lat="48.55612" lon="2.1802">
        <ele>109.6</ele>
        <time>2026-02-02T13:53:14Z</time>
      </trkpt>
      <trkpt lat="48.55621" lon="2.18023">
        <ele>109.6</ele>
        <time>2026-02-02T13:53:15Z</time>
      </trkpt>
      <trkpt lat="48.5563" lon="2.18026">
        <ele>109.6</ele>
        <time>2026-02-02T13:53:16Z</time>
      </trkpt>
      <trkpt lat="48.5564" lon="2.18029">
        <ele>107.2</ele>
        <time>2026-02-02T13:53:17Z</time>
      </trkpt>
      <trkpt lat="48.55649" lon="2.18032">
        <ele>107.2</ele>
        <time>2026-02-02T13:53:18Z</time>
      </trkpt>
      <trkpt lat="48.55659" lon="2.18036">
        <ele>107.2</ele>
        <time>2026-02-02T13:53:19Z</time>
      </trkpt>
      <trkpt lat="48.55669" lon="2.18038">
        <ele>107.2</ele>
        <time>2026-02-02T13:53:20Z</time>
      </trkpt>
      <trkpt lat="48.55679" lon="2.18041">
        <ele>106.4</ele>
        <time>2026-02-02T13:53:21Z</time>
      </trkpt>
      <trkpt lat="48.55688" lon="2.18044">
        <ele>106.4</ele>
        <time>2026-02-02T13:53:22Z</time>
      </trkpt>
      <trkpt lat="48.55698" lon="2.18047">
        <ele>106.4</ele>
        <time>2026-02-02T13:53:23Z</time>
      </trkpt>
      <trkpt lat="48.55707" lon="2.1805">
        <ele>105.8</ele>
        <time>2026-02-02T13:53:24Z</time>
      </trkpt>
      <trkpt lat="48.55717" lon="2.18053">
        <ele>105.8</ele>
        <time>2026-02-02T13:53:25Z</time>
      </trkpt>
      <trkpt lat="48.55727" lon="2.18056">
        <ele>105.8</ele>
        <time>2026-02-02T13:53:26Z</time>
      </trkpt>
      <trkpt lat="48.55736" lon="2.18059">
        <ele>105.8</ele>
        <time>2026-02-02T13:53:27Z</time>
      </trkpt>
      <trkpt lat="48.55745" lon="2.18062">
        <ele>105</ele>
        <time>2026-02-02T13:53:28Z</time>
      </trkpt>
      <trkpt lat="48.55755" lon="2.18064">
        <ele>104.8</ele>
        <time>2026-02-02T13:53:29Z</time>
      </trkpt>
      <trkpt lat="48.55764" lon="2.18067">
        <ele>104.8</ele>
        <time>2026-02-02T13:53:30Z</time>
      </trkpt>
      <trkpt lat="48.55773" lon="2.1807">
        <ele>104.8</ele>
        <time>2026-02-02T13:53:31Z</time>
      </trkpt>
      <trkpt lat="48.55782" lon="2.18073">
        <ele>104.8</ele>
        <time>2026-02-02T13:53:32Z</time>
      </trkpt>
      <trkpt lat="48.55791" lon="2.18076">
        <ele>104.6</ele>
        <time>2026-02-02T13:53:33Z</time>
      </trkpt>
      <trkpt lat="48.558" lon="2.18078">
        <ele>104.6</ele>
        <time>2026-02-02T13:53:34Z</time>
      </trkpt>
      <trkpt lat="48.55809" lon="2.18081">
        <ele>104.6</ele>
        <time>2026-02-02T13:53:35Z</time>
      </trkpt>
      <trkpt lat="48.55818" lon="2.18084">
        <ele>103.8</ele>
        <time>2026-02-02T13:53:36Z</time>
      </trkpt>
      <trkpt lat="48.55826" lon="2.18086">
        <ele>104.4</ele>
        <time>2026-02-02T13:53:37Z</time>
      </trkpt>
      <trkpt lat="48.55835" lon="2.18089">
        <ele>104.4</ele>
        <time>2026-02-02T13:53:38Z</time>
      </trkpt>
      <trkpt lat="48.55843" lon="2.18091">
        <ele>104.4</ele>
        <time>2026-02-02T13:53:39Z</time>
      </trkpt>
      <trkpt lat="48.55851" lon="2.18094">
        <ele>104.4</ele>
        <time>2026-02-02T13:53:40Z</time>
      </trkpt>
      <trkpt lat="48.55859" lon="2.18096">
        <ele>103.6</ele>
        <time>2026-02-02T13:53:41Z</time>
      </trkpt>
      <trkpt lat="48.55867" lon="2.18099">
        <ele>103.6</ele>
        <time>2026-02-02T13:53:42Z</time>
      </trkpt>
      <trkpt lat="48.55875" lon="2.18101">
        <ele>103.6</ele>
        <time>2026-02-02T13:53:43Z</time>
      </trkpt>
      <trkpt lat="48.55883" lon="2.18104">
        <ele>103.6</ele>
        <time>2026-02-02T13:53:44Z</time>
      </trkpt>
      <trkpt lat="48.55891" lon="2.18106">
        <ele>103.2</ele>
        <time>2026-02-02T13:53:45Z</time>
      </trkpt>
      <trkpt lat="48.55899" lon="2.18109">
        <ele>103.2</ele>
        <time>2026-02-02T13:53:46Z</time>
      </trkpt>
      <trkpt lat="48.55907" lon="2.18111">
        <ele>103.2</ele>
        <time>2026-02-02T13:53:47Z</time>
      </trkpt>
      <trkpt lat="48.55915" lon="2.18114">
        <ele>103.2</ele>
        <time>2026-02-02T13:53:48Z</time>
      </trkpt>
      <trkpt lat="48.55923" lon="2.18117">
        <ele>103</ele>
        <time>2026-02-02T13:53:49Z</time>
      </trkpt>
      <trkpt lat="48.55931" lon="2.1812">
        <ele>103</ele>
        <time>2026-02-02T13:53:50Z</time>
      </trkpt>
      <trkpt lat="48.55939" lon="2.18123">
        <ele>103</ele>
        <time>2026-02-02T13:53:51Z</time>
      </trkpt>
      <trkpt lat="48.55947" lon="2.18126">
        <ele>102.4</ele>
        <time>2026-02-02T13:53:52Z</time>
      </trkpt>
      <trkpt lat="48.55955" lon="2.18129">
        <ele>102.6</ele>
        <time>2026-02-02T13:53:53Z</time>
      </trkpt>
      <trkpt lat="48.55963" lon="2.18133">
        <ele>102.6</ele>
        <time>2026-02-02T13:53:54Z</time>
      </trkpt>
      <trkpt lat="48.55972" lon="2.18136">
        <ele>102.6</ele>
        <time>2026-02-02T13:53:55Z</time>
      </trkpt>
      <trkpt lat="48.5598" lon="2.18141">
        <ele>101.6</ele>
        <time>2026-02-02T13:53:56Z</time>
      </trkpt>
      <trkpt lat="48.55988" lon="2.18145">
        <ele>101.4</ele>
        <time>2026-02-02T13:53:57Z</time>
      </trkpt>
      <trkpt lat="48.55996" lon="2.18149">
        <ele>101.4</ele>
        <time>2026-02-02T13:53:58Z</time>
      </trkpt>
      <trkpt lat="48.56004" lon="2.18153">
        <ele>101.4</ele>
        <time>2026-02-02T13:53:59Z</time>
      </trkpt>
      <trkpt lat="48.56012" lon="2.18158">
        <ele>101.4</ele>
        <time>2026-02-02T13:54:00Z</time>
      </trkpt>
      <trkpt lat="48.5602" lon="2.18162">
        <ele>100.8</ele>
        <time>2026-02-02T13:54:01Z</time>
      </trkpt>
      <trkpt lat="48.56028" lon="2.18167">
        <ele>100.8</ele>
        <time>2026-02-02T13:54:02Z</time>
      </trkpt>
      <trkpt lat="48.56037" lon="2.18172">
        <ele>100.8</ele>
        <time>2026-02-02T13:54:03Z</time>
      </trkpt>
      <trkpt lat="48.56045" lon="2.18176">
        <ele>100.4</ele>
        <time>2026-02-02T13:54:04Z</time>
      </trkpt>
      <trkpt lat="48.56053" lon="2.1818">
        <ele>99.8</ele>
        <time>2026-02-02T13:54:05Z</time>
      </trkpt>
      <trkpt lat="48.56062" lon="2.18184">
        <ele>99.8</ele>
        <time>2026-02-02T13:54:06Z</time>
      </trkpt>
      <trkpt lat="48.5607" lon="2.18188">
        <ele>99.8</ele>
        <time>2026-02-02T13:54:07Z</time>
      </trkpt>
      <trkpt lat="48.56078" lon="2.18192">
        <ele>99.6</ele>
        <time>2026-02-02T13:54:08Z</time>
      </trkpt>
      <trkpt lat="48.56087" lon="2.18194">
        <ele>99.6</ele>
        <time>2026-02-02T13:54:09Z</time>
      </trkpt>
      <trkpt lat="48.56096" lon="2.18196">
        <ele>99.6</ele>
        <time>2026-02-02T13:54:10Z</time>
      </trkpt>
      <trkpt lat="48.56104" lon="2.18198">
        <ele>99.6</ele>
        <time>2026-02-02T13:54:11Z</time>
      </trkpt>
      <trkpt lat="48.56113" lon="2.182">
        <ele>98.8</ele>
        <time>2026-02-02T13:54:12Z</time>
      </trkpt>
      <trkpt lat="48.56121" lon="2.18201">
        <ele>98.8</ele>
        <time>2026-02-02T13:54:13Z</time>
      </trkpt>
      <trkpt lat="48.56129" lon="2.18202">
        <ele>98.8</ele>
        <time>2026-02-02T13:54:14Z</time>
      </trkpt>
      <trkpt lat="48.56138" lon="2.18204">
        <ele>98.8</ele>
        <time>2026-02-02T13:54:15Z</time>
      </trkpt>
      <trkpt lat="48.56146" lon="2.18205">
        <ele>98</ele>
        <time>2026-02-02T13:54:16Z</time>
      </trkpt>
      <trkpt lat="48.56155" lon="2.18206">
        <ele>98</ele>
        <time>2026-02-02T13:54:17Z</time>
      </trkpt>
      <trkpt lat="48.56163" lon="2.18207">
        <ele>98</ele>
        <time>2026-02-02T13:54:18Z</time>
      </trkpt>
      <trkpt lat="48.56172" lon="2.18208">
        <ele>98</ele>
        <time>2026-02-02T13:54:19Z</time>
      </trkpt>
      <trkpt lat="48.5618" lon="2.18209">
        <ele>97</ele>
        <time>2026-02-02T13:54:20Z</time>
      </trkpt>
      <trkpt lat="48.56189" lon="2.1821">
        <ele>97</ele>
        <time>2026-02-02T13:54:21Z</time>
      </trkpt>
      <trkpt lat="48.56197" lon="2.18211">
        <ele>97</ele>
        <time>2026-02-02T13:54:22Z</time>
      </trkpt>
      <trkpt lat="48.56206" lon="2.18212">
        <ele>97</ele>
        <time>2026-02-02T13:54:23Z</time>
      </trkpt>
      <trkpt lat="48.56215" lon="2.18213">
        <ele>96.2</ele>
        <time>2026-02-02T13:54:24Z</time>
      </trkpt>
      <trkpt lat="48.56223" lon="2.18214">
        <ele>96.2</ele>
        <time>2026-02-02T13:54:25Z</time>
      </trkpt>
      <trkpt lat="48.56231" lon="2.18215">
        <ele>96.2</ele>
        <time>2026-02-02T13:54:26Z</time>
      </trkpt>
      <trkpt lat="48.5624" lon="2.18216">
        <ele>96.2</ele>
        <time>2026-02-02T13:54:27Z</time>
      </trkpt>
      <trkpt lat="48.56249" lon="2.18217">
        <ele>95.2</ele>
        <time>2026-02-02T13:54:28Z</time>
      </trkpt>
      <trkpt lat="48.56257" lon="2.18217">
        <ele>94.8</ele>
        <time>2026-02-02T13:54:29Z</time>
      </trkpt>
      <trkpt lat="48.56266" lon="2.18218">
        <ele>94.8</ele>
        <time>2026-02-02T13:54:30Z</time>
      </trkpt>
      <trkpt lat="48.56274" lon="2.1822">
        <ele>94.8</ele>
        <time>2026-02-02T13:54:31Z</time>
      </trkpt>
      <trkpt lat="48.56283" lon="2.18221">
        <ele>94</ele>
        <time>2026-02-02T13:54:32Z</time>
      </trkpt>
      <trkpt lat="48.56292" lon="2.18222">
        <ele>93</ele>
        <time>2026-02-02T13:54:33Z</time>
      </trkpt>
      <trkpt lat="48.56301" lon="2.18224">
        <ele>93</ele>
        <time>2026-02-02T13:54:34Z</time>
      </trkpt>
      <trkpt lat="48.56309" lon="2.18226">
        <ele>93</ele>
        <time>2026-02-02T13:54:35Z</time>
      </trkpt>
      <trkpt lat="48.56318" lon="2.18229">
        <ele>93.4</ele>
        <time>2026-02-02T13:54:36Z</time>
      </trkpt>
      <trkpt lat="48.56326" lon="2.18232">
        <ele>92.8</ele>
        <time>2026-02-02T13:54:37Z</time>
      </trkpt>
      <trkpt lat="48.56334" lon="2.18236">
        <ele>92.8</ele>
        <time>2026-02-02T13:54:38Z</time>
      </trkpt>
      <trkpt lat="48.56342" lon="2.18239">
        <ele>92.8</ele>
        <time>2026-02-02T13:54:39Z</time>
      </trkpt>
      <trkpt lat="48.5635" lon="2.18243">
        <ele>92.8</ele>
        <time>2026-02-02T13:54:40Z</time>
      </trkpt>
      <trkpt lat="48.56357" lon="2.18246">
        <ele>92.2</ele>
        <time>2026-02-02T13:54:41Z</time>
      </trkpt>
      <trkpt lat="48.56365" lon="2.1825">
        <ele>92.2</ele>
        <time>2026-02-02T13:54:42Z</time>
      </trkpt>
      <trkpt lat="48.56371" lon="2.18253">
        <ele>92.2</ele>
        <time>2026-02-02T13:54:43Z</time>
      </trkpt>
      <trkpt lat="48.56377" lon="2.18255">
        <ele>92.2</ele>
        <time>2026-02-02T13:54:44Z</time>
      </trkpt>
      <trkpt lat="48.56381" lon="2.18255">
        <ele>92.2</ele>
        <time>2026-02-02T13:54:45Z</time>
      </trkpt>
      <trkpt lat="48.56383" lon="2.18255">
        <ele>92.2</ele>
        <time>2026-02-02T13:54:46Z</time>
      </trkpt>
      <trkpt lat="48.56386" lon="2.18254">
        <ele>92.2</ele>
        <time>2026-02-02T13:54:47Z</time>
      </trkpt>
      <trkpt lat="48.56389" lon="2.18256">
        <ele>92.2</ele>
        <time>2026-02-02T13:54:48Z</time>
      </trkpt>
      <trkpt lat="48.56392" lon="2.18257">
        <ele>91.8</ele>
        <time>2026-02-02T13:54:49Z</time>
      </trkpt>
      <trkpt lat="48.56395" lon="2.18258">
        <ele>91.8</ele>
        <time>2026-02-02T13:54:50Z</time>
      </trkpt>
      <trkpt lat="48.56398" lon="2.18258">
        <ele>91.8</ele>
        <time>2026-02-02T13:54:51Z</time>
      </trkpt>
      <trkpt lat="48.56402" lon="2.18256">
        <ele>91.8</ele>
        <time>2026-02-02T13:54:52Z</time>
      </trkpt>
      <trkpt lat="48.56405" lon="2.18252">
        <ele>91.2</ele>
        <time>2026-02-02T13:54:53Z</time>
      </trkpt>
      <trkpt lat="48.56407" lon="2.18245">
        <ele>91.2</ele>
        <time>2026-02-02T13:54:54Z</time>
      </trkpt>
      <trkpt lat="48.56406" lon="2.18238">
        <ele>91.2</ele>
        <time>2026-02-02T13:54:55Z</time>
      </trkpt>
      <trkpt lat="48.56407" lon="2.18229">
        <ele>90.2</ele>
        <time>2026-02-02T13:54:56Z</time>
      </trkpt>
      <trkpt lat="48.56407" lon="2.18218">
        <ele>88.8</ele>
        <time>2026-02-02T13:54:57Z</time>
      </trkpt>
      <trkpt lat="48.56407" lon="2.18207">
        <ele>88.8</ele>
        <time>2026-02-02T13:54:58Z</time>
      </trkpt>
      <trkpt lat="48.56408" lon="2.18195">
        <ele>88.8</ele>
        <time>2026-02-02T13:54:59Z</time>
      </trkpt>
      <trkpt lat="48.56408" lon="2.18183">
        <ele>88.8</ele>
        <time>2026-02-02T13:55:00Z</time>
      </trkpt>
      <trkpt lat="48.56409" lon="2.1817">
        <ele>87.2</ele>
        <time>2026-02-02T13:55:01Z</time>
      </trkpt>
      <trkpt lat="48.56409" lon="2.18157">
        <ele>87.2</ele>
        <time>2026-02-02T13:55:02Z</time>
      </trkpt>
      <trkpt lat="48.5641" lon="2.18143">
        <ele>87.2</ele>
        <time>2026-02-02T13:55:03Z</time>
      </trkpt>
      <trkpt lat="48.5641" lon="2.1813">
        <ele>86.2</ele>
        <time>2026-02-02T13:55:04Z</time>
      </trkpt>
      <trkpt lat="48.5641" lon="2.18116">
        <ele>84</ele>
        <time>2026-02-02T13:55:05Z</time>
      </trkpt>
      <trkpt lat="48.56411" lon="2.18101">
        <ele>84</ele>
        <time>2026-02-02T13:55:06Z</time>
      </trkpt>
      <trkpt lat="48.56411" lon="2.18087">
        <ele>84</ele>
        <time>2026-02-02T13:55:07Z</time>
      </trkpt>
      <trkpt lat="48.56411" lon="2.18073">
        <ele>84</ele>
        <time>2026-02-02T13:55:08Z</time>
      </trkpt>
      <trkpt lat="48.56412" lon="2.1806">
        <ele>83.4</ele>
        <time>2026-02-02T13:55:09Z</time>
      </trkpt>
      <trkpt lat="48.56411" lon="2.18047">
        <ele>83.4</ele>
        <time>2026-02-02T13:55:10Z</time>
      </trkpt>
      <trkpt lat="48.5641" lon="2.18033">
        <ele>83.4</ele>
        <time>2026-02-02T13:55:11Z</time>
      </trkpt>
      <trkpt lat="48.5641" lon="2.18021">
        <ele>83.4</ele>
        <time>2026-02-02T13:55:12Z</time>
      </trkpt>
      <trkpt lat="48.5641" lon="2.18008">
        <ele>82.4</ele>
        <time>2026-02-02T13:55:13Z</time>
      </trkpt>
      <trkpt lat="48.5641" lon="2.17996">
        <ele>82.4</ele>
        <time>2026-02-02T13:55:14Z</time>
      </trkpt>
      <trkpt lat="48.5641" lon="2.17983">
        <ele>82.4</ele>
        <time>2026-02-02T13:55:15Z</time>
      </trkpt>
      <trkpt lat="48.5641" lon="2.17971">
        <ele>82.8</ele>
        <time>2026-02-02T13:55:16Z</time>
      </trkpt>
      <trkpt lat="48.5641" lon="2.17959">
        <ele>83.8</ele>
        <time>2026-02-02T13:55:17Z</time>
      </trkpt>
      <trkpt lat="48.5641" lon="2.17947">
        <ele>83.8</ele>
        <time>2026-02-02T13:55:18Z</time>
      </trkpt>
      <trkpt lat="48.5641" lon="2.17935">
        <ele>83.8</ele>
        <time>2026-02-02T13:55:19Z</time>
      </trkpt>
      <trkpt lat="48.56411" lon="2.17923">
        <ele>83.8</ele>
        <time>2026-02-02T13:55:20Z</time>
      </trkpt>
      <trkpt lat="48.56411" lon="2.17912">
        <ele>83.6</ele>
        <time>2026-02-02T13:55:21Z</time>
      </trkpt>
      <trkpt lat="48.56411" lon="2.17901">
        <ele>83.6</ele>
        <time>2026-02-02T13:55:22Z</time>
      </trkpt>
      <trkpt lat="48.56412" lon="2.17891">
        <ele>83.6</ele>
        <time>2026-02-02T13:55:23Z</time>
      </trkpt>
      <trkpt lat="48.56412" lon="2.17881">
        <ele>83.6</ele>
        <time>2026-02-02T13:55:24Z</time>
      </trkpt>
      <trkpt lat="48.56412" lon="2.17871">
        <ele>84.6</ele>
        <time>2026-02-02T13:55:25Z</time>
      </trkpt>
      <trkpt lat="48.56413" lon="2.17862">
        <ele>84.6</ele>
        <time>2026-02-02T13:55:26Z</time>
      </trkpt>
      <trkpt lat="48.56413" lon="2.17853">
        <ele>84.6</ele>
        <time>2026-02-02T13:55:27Z</time>
      </trkpt>
      <trkpt lat="48.56414" lon="2.17844">
        <ele>84.6</ele>
        <time>2026-02-02T13:55:28Z</time>
      </trkpt>
      <trkpt lat="48.56414" lon="2.17835">
        <ele>85</ele>
        <time>2026-02-02T13:55:29Z</time>
      </trkpt>
      <trkpt lat="48.56414" lon="2.17827">
        <ele>85</ele>
        <time>2026-02-02T13:55:30Z</time>
      </trkpt>
      <trkpt lat="48.56415" lon="2.1782">
        <ele>85</ele>
        <time>2026-02-02T13:55:31Z</time>
      </trkpt>
      <trkpt lat="48.56415" lon="2.17813">
        <ele>85</ele>
        <time>2026-02-02T13:55:32Z</time>
      </trkpt>
      <trkpt lat="48.56417" lon="2.17807">
        <ele>85.4</ele>
        <time>2026-02-02T13:55:33Z</time>
      </trkpt>
      <trkpt lat="48.56419" lon="2.178">
        <ele>85.4</ele>
        <time>2026-02-02T13:55:34Z</time>
      </trkpt>
      <trkpt lat="48.56421" lon="2.17793">
        <ele>85.4</ele>
        <time>2026-02-02T13:55:35Z</time>
      </trkpt>
      <trkpt lat="48.56423" lon="2.17785">
        <ele>85.4</ele>
        <time>2026-02-02T13:55:36Z</time>
      </trkpt>
      <trkpt lat="48.56424" lon="2.17776">
        <ele>86</ele>
        <time>2026-02-02T13:55:37Z</time>
      </trkpt>
      <trkpt lat="48.56425" lon="2.17767">
        <ele>86</ele>
        <time>2026-02-02T13:55:38Z</time>
      </trkpt>
      <trkpt lat="48.56426" lon="2.17758">
        <ele>86</ele>
        <time>2026-02-02T13:55:39Z</time>
      </trkpt>
      <trkpt lat="48.56427" lon="2.1775">
        <ele>86.6</ele>
        <time>2026-02-02T13:55:40Z</time>
      </trkpt>
      <trkpt lat="48.56427" lon="2.17741">
        <ele>86.6</ele>
        <time>2026-02-02T13:55:41Z</time>
      </trkpt>
      <trkpt lat="48.56428" lon="2.17733">
        <ele>86.6</ele>
        <time>2026-02-02T13:55:42Z</time>
      </trkpt>
      <trkpt lat="48.56428" lon="2.17724">
        <ele>86.6</ele>
        <time>2026-02-02T13:55:43Z</time>
      </trkpt>
      <trkpt lat="48.56429" lon="2.17716">
        <ele>87.2</ele>
        <time>2026-02-02T13:55:44Z</time>
      </trkpt>
      <trkpt lat="48.56429" lon="2.17708">
        <ele>87.6</ele>
        <time>2026-02-02T13:55:45Z</time>
      </trkpt>
      <trkpt lat="48.56429" lon="2.177">
        <ele>87.6</ele>
        <time>2026-02-02T13:55:46Z</time>
      </trkpt>
      <trkpt lat="48.5643" lon="2.17692">
        <ele>87.6</ele>
        <time>2026-02-02T13:55:47Z</time>
      </trkpt>
      <trkpt lat="48.5643" lon="2.17685">
        <ele>87.6</ele>
        <time>2026-02-02T13:55:48Z</time>
      </trkpt>
      <trkpt lat="48.5643" lon="2.17677">
        <ele>88</ele>
        <time>2026-02-02T13:55:49Z</time>
      </trkpt>
      <trkpt lat="48.56431" lon="2.1767">
        <ele>88</ele>
        <time>2026-02-02T13:55:50Z</time>
      </trkpt>
      <trkpt lat="48.56431" lon="2.17662">
        <ele>88</ele>
        <time>2026-02-02T13:55:51Z</time>
      </trkpt>
      <trkpt lat="48.56432" lon="2.17654">
        <ele>88.4</ele>
        <time>2026-02-02T13:55:52Z</time>
      </trkpt>
      <trkpt lat="48.56432" lon="2.17647">
        <ele>88.4</ele>
        <time>2026-02-02T13:55:53Z</time>
      </trkpt>
      <trkpt lat="48.56433" lon="2.17639">
        <ele>88.4</ele>
        <time>2026-02-02T13:55:54Z</time>
      </trkpt>
      <trkpt lat="48.56433" lon="2.17631">
        <ele>88.4</ele>
        <time>2026-02-02T13:55:55Z</time>
      </trkpt>
      <trkpt lat="48.56434" lon="2.17623">
        <ele>88.6</ele>
        <time>2026-02-02T13:55:56Z</time>
      </trkpt>
      <trkpt lat="48.56434" lon="2.17615">
        <ele>88.6</ele>
        <time>2026-02-02T13:55:57Z</time>
      </trkpt>
      <trkpt lat="48.56434" lon="2.17607">
        <ele>88.6</ele>
        <time>2026-02-02T13:55:58Z</time>
      </trkpt>
      <trkpt lat="48.56435" lon="2.17599">
        <ele>88.6</ele>
        <time>2026-02-02T13:55:59Z</time>
      </trkpt>
      <trkpt lat="48.56436" lon="2.17591">
        <ele>88.6</ele>
        <time>2026-02-02T13:56:00Z</time>
      </trkpt>
      <trkpt lat="48.56436" lon="2.17582">
        <ele>88.4</ele>
        <time>2026-02-02T13:56:01Z</time>
      </trkpt>
      <trkpt lat="48.56436" lon="2.17573">
        <ele>88.4</ele>
        <time>2026-02-02T13:56:02Z</time>
      </trkpt>
      <trkpt lat="48.56437" lon="2.17565">
        <ele>88.4</ele>
        <time>2026-02-02T13:56:03Z</time>
      </trkpt>
      <trkpt lat="48.56438" lon="2.17556">
        <ele>87.8</ele>
        <time>2026-02-02T13:56:04Z</time>
      </trkpt>
      <trkpt lat="48.56438" lon="2.17546">
        <ele>87.4</ele>
        <time>2026-02-02T13:56:05Z</time>
      </trkpt>
      <trkpt lat="48.56438" lon="2.17537">
        <ele>87.4</ele>
        <time>2026-02-02T13:56:06Z</time>
      </trkpt>
      <trkpt lat="48.56439" lon="2.17527">
        <ele>87.4</ele>
        <time>2026-02-02T13:56:07Z</time>
      </trkpt>
      <trkpt lat="48.56439" lon="2.17517">
        <ele>86.4</ele>
        <time>2026-02-02T13:56:08Z</time>
      </trkpt>
      <trkpt lat="48.5644" lon="2.17507">
        <ele>86.2</ele>
        <time>2026-02-02T13:56:09Z</time>
      </trkpt>
      <trkpt lat="48.5644" lon="2.17497">
        <ele>86.2</ele>
        <time>2026-02-02T13:56:10Z</time>
      </trkpt>
      <trkpt lat="48.56441" lon="2.17486">
        <ele>86.2</ele>
        <time>2026-02-02T13:56:11Z</time>
      </trkpt>
      <trkpt lat="48.56441" lon="2.17474">
        <ele>85.2</ele>
        <time>2026-02-02T13:56:12Z</time>
      </trkpt>
      <trkpt lat="48.56442" lon="2.17462">
        <ele>84.4</ele>
        <time>2026-02-02T13:56:13Z</time>
      </trkpt>
      <trkpt lat="48.56443" lon="2.1745">
        <ele>84.4</ele>
        <time>2026-02-02T13:56:14Z</time>
      </trkpt>
      <trkpt lat="48.56443" lon="2.17438">
        <ele>84.4</ele>
        <time>2026-02-02T13:56:15Z</time>
      </trkpt>
      <trkpt lat="48.56444" lon="2.17426">
        <ele>83.8</ele>
        <time>2026-02-02T13:56:16Z</time>
      </trkpt>
      <trkpt lat="48.56445" lon="2.17414">
        <ele>83.8</ele>
        <time>2026-02-02T13:56:17Z</time>
      </trkpt>
      <trkpt lat="48.56445" lon="2.17402">
        <ele>83.8</ele>
        <time>2026-02-02T13:56:18Z</time>
      </trkpt>
      <trkpt lat="48.56446" lon="2.1739">
        <ele>83.8</ele>
        <time>2026-02-02T13:56:19Z</time>
      </trkpt>
      <trkpt lat="48.56447" lon="2.17378">
        <ele>83.6</ele>
        <time>2026-02-02T13:56:20Z</time>
      </trkpt>
      <trkpt lat="48.56448" lon="2.17366">
        <ele>83.2</ele>
        <time>2026-02-02T13:56:21Z</time>
      </trkpt>
      <trkpt lat="48.5645" lon="2.17354">
        <ele>83.2</ele>
        <time>2026-02-02T13:56:22Z</time>
      </trkpt>
      <trkpt lat="48.56451" lon="2.17342">
        <ele>83.2</ele>
        <time>2026-02-02T13:56:23Z</time>
      </trkpt>
      <trkpt lat="48.56453" lon="2.1733">
        <ele>83.2</ele>
        <time>2026-02-02T13:56:24Z</time>
      </trkpt>
      <trkpt lat="48.56454" lon="2.17319">
        <ele>83</ele>
        <time>2026-02-02T13:56:25Z</time>
      </trkpt>
      <trkpt lat="48.56456" lon="2.17307">
        <ele>83</ele>
        <time>2026-02-02T13:56:26Z</time>
      </trkpt>
      <trkpt lat="48.56459" lon="2.17296">
        <ele>83</ele>
        <time>2026-02-02T13:56:27Z</time>
      </trkpt>
      <trkpt lat="48.56461" lon="2.17284">
        <ele>82.6</ele>
        <time>2026-02-02T13:56:28Z</time>
      </trkpt>
      <trkpt lat="48.56463" lon="2.17273">
        <ele>82.2</ele>
        <time>2026-02-02T13:56:29Z</time>
      </trkpt>
      <trkpt lat="48.56466" lon="2.17262">
        <ele>82.2</ele>
        <time>2026-02-02T13:56:30Z</time>
      </trkpt>
      <trkpt lat="48.56468" lon="2.17251">
        <ele>82.2</ele>
        <time>2026-02-02T13:56:31Z</time>
      </trkpt>
      <trkpt lat="48.56471" lon="2.1724">
        <ele>82.2</ele>
        <time>2026-02-02T13:56:32Z</time>
      </trkpt>
      <trkpt lat="48.56473" lon="2.1723">
        <ele>83.2</ele>
        <time>2026-02-02T13:56:33Z</time>
      </trkpt>
      <trkpt lat="48.56475" lon="2.17219">
        <ele>83.2</ele>
        <time>2026-02-02T13:56:34Z</time>
      </trkpt>
      <trkpt lat="48.56478" lon="2.17209">
        <ele>83.2</ele>
        <time>2026-02-02T13:56:35Z</time>
      </trkpt>
      <trkpt lat="48.56482" lon="2.17199">
        <ele>83.2</ele>
        <time>2026-02-02T13:56:36Z</time>
      </trkpt>
      <trkpt lat="48.56486" lon="2.1719">
        <ele>83</ele>
        <time>2026-02-02T13:56:37Z</time>
      </trkpt>
      <trkpt lat="48.56491" lon="2.17182">
        <ele>83</ele>
        <time>2026-02-02T13:56:38Z</time>
      </trkpt>
      <trkpt lat="48.56497" lon="2.17176">
        <ele>83</ele>
        <time>2026-02-02T13:56:39Z</time>
      </trkpt>
      <trkpt lat="48.56502" lon="2.17171">
        <ele>83</ele>
        <time>2026-02-02T13:56:40Z</time>
      </trkpt>
      <trkpt lat="48.56508" lon="2.17166">
        <ele>83.2</ele>
        <time>2026-02-02T13:56:41Z</time>
      </trkpt>
      <trkpt lat="48.56513" lon="2.1716">
        <ele>83.2</ele>
        <time>2026-02-02T13:56:42Z</time>
      </trkpt>
      <trkpt lat="48.56518" lon="2.17155">
        <ele>83.2</ele>
        <time>2026-02-02T13:56:43Z</time>
      </trkpt>
      <trkpt lat="48.56523" lon="2.17149">
        <ele>83.2</ele>
        <time>2026-02-02T13:56:44Z</time>
      </trkpt>
      <trkpt lat="48.56528" lon="2.17144">
        <ele>83.6</ele>
        <time>2026-02-02T13:56:45Z</time>
      </trkpt>
      <trkpt lat="48.56534" lon="2.17139">
        <ele>83.6</ele>
        <time>2026-02-02T13:56:46Z</time>
      </trkpt>
      <trkpt lat="48.56539" lon="2.17133">
        <ele>83.6</ele>
        <time>2026-02-02T13:56:47Z</time>
      </trkpt>
      <trkpt lat="48.56544" lon="2.17127">
        <ele>83</ele>
        <time>2026-02-02T13:56:48Z</time>
      </trkpt>
      <trkpt lat="48.56549" lon="2.17122">
        <ele>83.2</ele>
        <time>2026-02-02T13:56:49Z</time>
      </trkpt>
      <trkpt lat="48.56553" lon="2.17115">
        <ele>83.2</ele>
        <time>2026-02-02T13:56:50Z</time>
      </trkpt>
      <trkpt lat="48.56556" lon="2.17108">
        <ele>83.2</ele>
        <time>2026-02-02T13:56:51Z</time>
      </trkpt>
      <trkpt lat="48.5656" lon="2.17101">
        <ele>83.6</ele>
        <time>2026-02-02T13:56:52Z</time>
      </trkpt>
      <trkpt lat="48.56563" lon="2.17095">
        <ele>84</ele>
        <time>2026-02-02T13:56:53Z</time>
      </trkpt>
      <trkpt lat="48.56566" lon="2.17088">
        <ele>84</ele>
        <time>2026-02-02T13:56:54Z</time>
      </trkpt>
      <trkpt lat="48.56568" lon="2.17081">
        <ele>84</ele>
        <time>2026-02-02T13:56:55Z</time>
      </trkpt>
      <trkpt lat="48.5657" lon="2.17075">
        <ele>84.4</ele>
        <time>2026-02-02T13:56:56Z</time>
      </trkpt>
      <trkpt lat="48.56571" lon="2.17069">
        <ele>84.2</ele>
        <time>2026-02-02T13:56:57Z</time>
      </trkpt>
      <trkpt lat="48.56573" lon="2.17063">
        <ele>84.2</ele>
        <time>2026-02-02T13:56:58Z</time>
      </trkpt>
      <trkpt lat="48.56574" lon="2.17057">
        <ele>84.2</ele>
        <time>2026-02-02T13:56:59Z</time>
      </trkpt>
      <trkpt lat="48.56575" lon="2.17051">
        <ele>85</ele>
        <time>2026-02-02T13:57:00Z</time>
      </trkpt>
      <trkpt lat="48.56577" lon="2.17046">
        <ele>85.6</ele>
        <time>2026-02-02T13:57:01Z</time>
      </trkpt>
      <trkpt lat="48.56579" lon="2.17041">
        <ele>85.6</ele>
        <time>2026-02-02T13:57:02Z</time>
      </trkpt>
      <trkpt lat="48.56582" lon="2.17038">
        <ele>85.6</ele>
        <time>2026-02-02T13:57:03Z</time>
      </trkpt>
      <trkpt lat="48.56584" lon="2.17034">
        <ele>86</ele>
        <time>2026-02-02T13:57:04Z</time>
      </trkpt>
      <trkpt lat="48.56586" lon="2.1703">
        <ele>86.4</ele>
        <time>2026-02-02T13:57:05Z</time>
      </trkpt>
      <trkpt lat="48.56588" lon="2.17027">
        <ele>86.4</ele>
        <time>2026-02-02T13:57:06Z</time>
      </trkpt>
      <trkpt lat="48.5659" lon="2.17023">
        <ele>86.4</ele>
        <time>2026-02-02T13:57:07Z</time>
      </trkpt>
      <trkpt lat="48.56593" lon="2.17019">
        <ele>86.4</ele>
        <time>2026-02-02T13:57:08Z</time>
      </trkpt>
      <trkpt lat="48.56596" lon="2.17016">
        <ele>87</ele>
        <time>2026-02-02T13:57:09Z</time>
      </trkpt>
      <trkpt lat="48.56599" lon="2.17014">
        <ele>87</ele>
        <time>2026-02-02T13:57:10Z</time>
      </trkpt>
      <trkpt lat="48.56602" lon="2.17011">
        <ele>87</ele>
        <time>2026-02-02T13:57:11Z</time>
      </trkpt>
      <trkpt lat="48.56604" lon="2.17008">
        <ele>87</ele>
        <time>2026-02-02T13:57:12Z</time>
      </trkpt>
      <trkpt lat="48.56607" lon="2.17004">
        <ele>87</ele>
        <time>2026-02-02T13:57:13Z</time>
      </trkpt>
      <trkpt lat="48.5661" lon="2.17001">
        <ele>87</ele>
        <time>2026-02-02T13:57:14Z</time>
      </trkpt>
      <trkpt lat="48.56613" lon="2.16997">
        <ele>87</ele>
        <time>2026-02-02T13:57:15Z</time>
      </trkpt>
      <trkpt lat="48.56616" lon="2.16994">
        <ele>87</ele>
        <time>2026-02-02T13:57:16Z</time>
      </trkpt>
      <trkpt lat="48.56619" lon="2.16991">
        <ele>86.8</ele>
        <time>2026-02-02T13:57:17Z</time>
      </trkpt>
      <trkpt lat="48.56621" lon="2.16988">
        <ele>86.8</ele>
        <time>2026-02-02T13:57:18Z</time>
      </trkpt>
      <trkpt lat="48.56624" lon="2.16985">
        <ele>86.8</ele>
        <time>2026-02-02T13:57:19Z</time>
      </trkpt>
      <trkpt lat="48.56626" lon="2.16982">
        <ele>86.8</ele>
        <time>2026-02-02T13:57:20Z</time>
      </trkpt>
      <trkpt lat="48.56629" lon="2.16979">
        <ele>87.8</ele>
        <time>2026-02-02T13:57:21Z</time>
      </trkpt>
      <trkpt lat="48.56632" lon="2.16976">
        <ele>87.8</ele>
        <time>2026-02-02T13:57:22Z</time>
      </trkpt>
      <trkpt lat="48.56634" lon="2.16973">
        <ele>87.8</ele>
        <time>2026-02-02T13:57:23Z</time>
      </trkpt>
      <trkpt lat="48.56637" lon="2.16971">
        <ele>88</ele>
        <time>2026-02-02T13:57:24Z</time>
      </trkpt>
      <trkpt lat="48.56639" lon="2.16969">
        <ele>88.4</ele>
        <time>2026-02-02T13:57:25Z</time>
      </trkpt>
      <trkpt lat="48.56642" lon="2.16967">
        <ele>88.4</ele>
        <time>2026-02-02T13:57:26Z</time>
      </trkpt>
      <trkpt lat="48.56644" lon="2.16965">
        <ele>88.4</ele>
        <time>2026-02-02T13:57:27Z</time>
      </trkpt>
      <trkpt lat="48.56647" lon="2.16963">
        <ele>88.6</ele>
        <time>2026-02-02T13:57:28Z</time>
      </trkpt>
      <trkpt lat="48.56649" lon="2.16961">
        <ele>89</ele>
        <time>2026-02-02T13:57:29Z</time>
      </trkpt>
      <trkpt lat="48.56651" lon="2.16959">
        <ele>89</ele>
        <time>2026-02-02T13:57:30Z</time>
      </trkpt>
      <trkpt lat="48.56653" lon="2.16957">
        <ele>89</ele>
        <time>2026-02-02T13:57:31Z</time>
      </trkpt>
      <trkpt lat="48.56655" lon="2.16955">
        <ele>89.4</ele>
        <time>2026-02-02T13:57:32Z</time>
      </trkpt>
      <trkpt lat="48.56658" lon="2.16953">
        <ele>89.8</ele>
        <time>2026-02-02T13:57:33Z</time>
      </trkpt>
      <trkpt lat="48.5666" lon="2.1695">
        <ele>89.8</ele>
        <time>2026-02-02T13:57:34Z</time>
      </trkpt>
      <trkpt lat="48.56662" lon="2.16948">
        <ele>89.8</ele>
        <time>2026-02-02T13:57:35Z</time>
      </trkpt>
      <trkpt lat="48.56664" lon="2.16946">
        <ele>90.6</ele>
        <time>2026-02-02T13:57:36Z</time>
      </trkpt>
      <trkpt lat="48.56666" lon="2.16944">
        <ele>91</ele>
        <time>2026-02-02T13:57:37Z</time>
      </trkpt>
      <trkpt lat="48.56668" lon="2.16941">
        <ele>91</ele>
        <time>2026-02-02T13:57:38Z</time>
      </trkpt>
      <trkpt lat="48.5667" lon="2.1694">
        <ele>91</ele>
        <time>2026-02-02T13:57:39Z</time>
      </trkpt>
      <trkpt lat="48.56672" lon="2.16938">
        <ele>91</ele>
        <time>2026-02-02T13:57:40Z</time>
      </trkpt>
      <trkpt lat="48.56674" lon="2.16936">
        <ele>91.2</ele>
        <time>2026-02-02T13:57:41Z</time>
      </trkpt>
      <trkpt lat="48.56677" lon="2.16934">
        <ele>91.2</ele>
        <time>2026-02-02T13:57:42Z</time>
      </trkpt>
      <trkpt lat="48.56679" lon="2.16933">
        <ele>91.2</ele>
        <time>2026-02-02T13:57:43Z</time>
      </trkpt>
      <trkpt lat="48.56681" lon="2.16931">
        <ele>92</ele>
        <time>2026-02-02T13:57:44Z</time>
      </trkpt>
      <trkpt lat="48.56682" lon="2.16929">
        <ele>92</ele>
        <time>2026-02-02T13:57:45Z</time>
      </trkpt>
      <trkpt lat="48.56684" lon="2.16927">
        <ele>92</ele>
        <time>2026-02-02T13:57:46Z</time>
      </trkpt>
      <trkpt lat="48.56686" lon="2.16925">
        <ele>92</ele>
        <time>2026-02-02T13:57:47Z</time>
      </trkpt>
      <trkpt lat="48.56688" lon="2.16924">
        <ele>92.8</ele>
        <time>2026-02-02T13:57:48Z</time>
      </trkpt>
      <trkpt lat="48.5669" lon="2.16922">
        <ele>93.4</ele>
        <time>2026-02-02T13:57:49Z</time>
      </trkpt>
      <trkpt lat="48.56692" lon="2.1692">
        <ele>93.4</ele>
        <time>2026-02-02T13:57:50Z</time>
      </trkpt>
      <trkpt lat="48.56694" lon="2.16918">
        <ele>93.4</ele>
        <time>2026-02-02T13:57:51Z</time>
      </trkpt>
      <trkpt lat="48.56696" lon="2.16916">
        <ele>93.4</ele>
        <time>2026-02-02T13:57:52Z</time>
      </trkpt>
      <trkpt lat="48.56697" lon="2.16914">
        <ele>93.6</ele>
        <time>2026-02-02T13:57:53Z</time>
      </trkpt>
      <trkpt lat="48.56699" lon="2.16913">
        <ele>93.6</ele>
        <time>2026-02-02T13:57:54Z</time>
      </trkpt>
      <trkpt lat="48.56701" lon="2.16911">
        <ele>93.6</ele>
        <time>2026-02-02T13:57:55Z</time>
      </trkpt>
      <trkpt lat="48.56703" lon="2.1691">
        <ele>94.6</ele>
        <time>2026-02-02T13:57:56Z</time>
      </trkpt>
      <trkpt lat="48.56705" lon="2.16908">
        <ele>94.8</ele>
        <time>2026-02-02T13:57:57Z</time>
      </trkpt>
      <trkpt lat="48.56706" lon="2.16907">
        <ele>94.8</ele>
        <time>2026-02-02T13:57:58Z</time>
      </trkpt>
      <trkpt lat="48.56708" lon="2.16905">
        <ele>94.8</ele>
        <time>2026-02-02T13:57:59Z</time>
      </trkpt>
      <trkpt lat="48.5671" lon="2.16904">
        <ele>95.4</ele>
        <time>2026-02-02T13:58:00Z</time>
      </trkpt>
      <trkpt lat="48.56712" lon="2.16902">
        <ele>95.8</ele>
        <time>2026-02-02T13:58:01Z</time>
      </trkpt>
      <trkpt lat="48.56713" lon="2.16901">
        <ele>95.8</ele>
        <time>2026-02-02T13:58:02Z</time>
      </trkpt>
      <trkpt lat="48.56715" lon="2.16899">
        <ele>95.8</ele>
        <time>2026-02-02T13:58:03Z</time>
      </trkpt>
      <trkpt lat="48.56717" lon="2.16898">
        <ele>96.2</ele>
        <time>2026-02-02T13:58:04Z</time>
      </trkpt>
      <trkpt lat="48.56719" lon="2.16896">
        <ele>97</ele>
        <time>2026-02-02T13:58:05Z</time>
      </trkpt>
      <trkpt lat="48.5672" lon="2.16895">
        <ele>97</ele>
        <time>2026-02-02T13:58:06Z</time>
      </trkpt>
      <trkpt lat="48.56722" lon="2.16893">
        <ele>97</ele>
        <time>2026-02-02T13:58:07Z</time>
      </trkpt>
      <trkpt lat="48.56724" lon="2.16891">
        <ele>97.8</ele>
        <time>2026-02-02T13:58:08Z</time>
      </trkpt>
      <trkpt lat="48.56726" lon="2.16889">
        <ele>97.6</ele>
        <time>2026-02-02T13:58:09Z</time>
      </trkpt>
      <trkpt lat="48.56727" lon="2.16887">
        <ele>97.6</ele>
        <time>2026-02-02T13:58:10Z</time>
      </trkpt>
      <trkpt lat="48.56729" lon="2.16886">
        <ele>97.6</ele>
        <time>2026-02-02T13:58:11Z</time>
      </trkpt>
      <trkpt lat="48.56731" lon="2.16884">
        <ele>98.2</ele>
        <time>2026-02-02T13:58:12Z</time>
      </trkpt>
      <trkpt lat="48.56733" lon="2.16883">
        <ele>98.4</ele>
        <time>2026-02-02T13:58:13Z</time>
      </trkpt>
      <trkpt lat="48.56735" lon="2.16881">
        <ele>98.4</ele>
        <time>2026-02-02T13:58:14Z</time>
      </trkpt>
      <trkpt lat="48.56737" lon="2.1688">
        <ele>98.4</ele>
        <time>2026-02-02T13:58:15Z</time>
      </trkpt>
      <trkpt lat="48.56738" lon="2.16878">
        <ele>99.2</ele>
        <time>2026-02-02T13:58:16Z</time>
      </trkpt>
      <trkpt lat="48.5674" lon="2.16876">
        <ele>99.4</ele>
        <time>2026-02-02T13:58:17Z</time>
      </trkpt>
      <trkpt lat="48.56742" lon="2.16875">
        <ele>99.4</ele>
        <time>2026-02-02T13:58:18Z</time>
      </trkpt>
      <trkpt lat="48.56743" lon="2.16873">
        <ele>99.4</ele>
        <time>2026-02-02T13:58:19Z</time>
      </trkpt>
      <trkpt lat="48.56745" lon="2.16872">
        <ele>99.4</ele>
        <time>2026-02-02T13:58:20Z</time>
      </trkpt>
      <trkpt lat="48.56747" lon="2.1687">
        <ele>100</ele>
        <time>2026-02-02T13:58:21Z</time>
      </trkpt>
      <trkpt lat="48.56749" lon="2.16868">
        <ele>100</ele>
        <time>2026-02-02T13:58:22Z</time>
      </trkpt>
      <trkpt lat="48.5675" lon="2.16867">
        <ele>100</ele>
        <time>2026-02-02T13:58:23Z</time>
      </trkpt>
      <trkpt lat="48.56752" lon="2.16865">
        <ele>100.8</ele>
        <time>2026-02-02T13:58:24Z</time>
      </trkpt>
      <trkpt lat="48.56754" lon="2.16864">
        <ele>100.8</ele>
        <time>2026-02-02T13:58:25Z</time>
      </trkpt>
      <trkpt lat="48.56755" lon="2.16862">
        <ele>100.8</ele>
        <time>2026-02-02T13:58:26Z</time>
      </trkpt>
      <trkpt lat="48.56757" lon="2.16861">
        <ele>100.8</ele>
        <time>2026-02-02T13:58:27Z</time>
      </trkpt>
      <trkpt lat="48.56759" lon="2.1686">
        <ele>101.8</ele>
        <time>2026-02-02T13:58:28Z</time>
      </trkpt>
      <trkpt lat="48.56761" lon="2.16858">
        <ele>101.6</ele>
        <time>2026-02-02T13:58:29Z</time>
      </trkpt>
      <trkpt lat="48.56762" lon="2.16857">
        <ele>101.6</ele>
        <time>2026-02-02T13:58:30Z</time>
      </trkpt>
      <trkpt lat="48.56764" lon="2.16855">
        <ele>101.6</ele>
        <time>2026-02-02T13:58:31Z</time>
      </trkpt>
      <trkpt lat="48.56766" lon="2.16853">
        <ele>102.4</ele>
        <time>2026-02-02T13:58:32Z</time>
      </trkpt>
      <trkpt lat="48.56767" lon="2.16852">
        <ele>102.6</ele>
        <time>2026-02-02T13:58:33Z</time>
      </trkpt>
      <trkpt lat="48.56769" lon="2.1685">
        <ele>102.6</ele>
        <time>2026-02-02T13:58:34Z</time>
      </trkpt>
      <trkpt lat="48.5677" lon="2.16848">
        <ele>102.6</ele>
        <time>2026-02-02T13:58:35Z</time>
      </trkpt>
      <trkpt lat="48.56772" lon="2.16846">
        <ele>103.6</ele>
        <time>2026-02-02T13:58:36Z</time>
      </trkpt>
      <trkpt lat="48.56773" lon="2.16845">
        <ele>103.6</ele>
        <time>2026-02-02T13:58:37Z</time>
      </trkpt>
      <trkpt lat="48.56775" lon="2.16843">
        <ele>103.6</ele>
        <time>2026-02-02T13:58:38Z</time>
      </trkpt>
      <trkpt lat="48.56777" lon="2.16842">
        <ele>103.6</ele>
        <time>2026-02-02T13:58:39Z</time>
      </trkpt>
      <trkpt lat="48.56778" lon="2.1684">
        <ele>104.2</ele>
        <time>2026-02-02T13:58:40Z</time>
      </trkpt>
      <trkpt lat="48.5678" lon="2.16839">
        <ele>104.6</ele>
        <time>2026-02-02T13:58:41Z</time>
      </trkpt>
      <trkpt lat="48.56782" lon="2.16837">
        <ele>104.6</ele>
        <time>2026-02-02T13:58:42Z</time>
      </trkpt>
      <trkpt lat="48.56783" lon="2.16836">
        <ele>104.6</ele>
        <time>2026-02-02T13:58:43Z</time>
      </trkpt>
      <trkpt lat="48.56785" lon="2.16835">
        <ele>105.2</ele>
        <time>2026-02-02T13:58:44Z</time>
      </trkpt>
      <trkpt lat="48.56786" lon="2.16833">
        <ele>105.2</ele>
        <time>2026-02-02T13:58:45Z</time>
      </trkpt>
      <trkpt lat="48.56788" lon="2.16832">
        <ele>105.2</ele>
        <time>2026-02-02T13:58:46Z</time>
      </trkpt>
      <trkpt lat="48.5679" lon="2.1683">
        <ele>105.2</ele>
        <time>2026-02-02T13:58:47Z</time>
      </trkpt>
      <trkpt lat="48.56791" lon="2.16828">
        <ele>106.2</ele>
        <time>2026-02-02T13:58:48Z</time>
      </trkpt>
      <trkpt lat="48.56793" lon="2.16826">
        <ele>106.4</ele>
        <time>2026-02-02T13:58:49Z</time>
      </trkpt>
      <trkpt lat="48.56795" lon="2.16825">
        <ele>106.4</ele>
        <time>2026-02-02T13:58:50Z</time>
      </trkpt>
      <trkpt lat="48.56796" lon="2.16823">
        <ele>106.4</ele>
        <time>2026-02-02T13:58:51Z</time>
      </trkpt>
      <trkpt lat="48.56798" lon="2.16821">
        <ele>107</ele>
        <time>2026-02-02T13:58:52Z</time>
      </trkpt>
      <trkpt lat="48.56799" lon="2.16819">
        <ele>107.6</ele>
        <time>2026-02-02T13:58:53Z</time>
      </trkpt>
      <trkpt lat="48.56801" lon="2.16817">
        <ele>107.6</ele>
        <time>2026-02-02T13:58:54Z</time>
      </trkpt>
      <trkpt lat="48.56802" lon="2.16816">
        <ele>107.6</ele>
        <time>2026-02-02T13:58:55Z</time>
      </trkpt>
      <trkpt lat="48.56804" lon="2.16814">
        <ele>108.2</ele>
        <time>2026-02-02T13:58:56Z</time>
      </trkpt>
      <trkpt lat="48.56805" lon="2.16812">
        <ele>108.4</ele>
        <time>2026-02-02T13:58:57Z</time>
      </trkpt>
      <trkpt lat="48.56807" lon="2.16809">
        <ele>108.4</ele>
        <time>2026-02-02T13:58:58Z</time>
      </trkpt>
      <trkpt lat="48.56808" lon="2.16807">
        <ele>108.4</ele>
        <time>2026-02-02T13:58:59Z</time>
      </trkpt>
      <trkpt lat="48.56809" lon="2.16805">
        <ele>108.4</ele>
        <time>2026-02-02T13:59:00Z</time>
      </trkpt>
      <trkpt lat="48.56811" lon="2.16803">
        <ele>109.4</ele>
        <time>2026-02-02T13:59:01Z</time>
      </trkpt>
      <trkpt lat="48.56812" lon="2.168">
        <ele>109.4</ele>
        <time>2026-02-02T13:59:02Z</time>
      </trkpt>
      <trkpt lat="48.56813" lon="2.16798">
        <ele>109.4</ele>
        <time>2026-02-02T13:59:03Z</time>
      </trkpt>
      <trkpt lat="48.56814" lon="2.16795">
        <ele>110</ele>
        <time>2026-02-02T13:59:04Z</time>
      </trkpt>
      <trkpt lat="48.56815" lon="2.16792">
        <ele>110.2</ele>
        <time>2026-02-02T13:59:05Z</time>
      </trkpt>
      <trkpt lat="48.56816" lon="2.1679">
        <ele>110.2</ele>
        <time>2026-02-02T13:59:06Z</time>
      </trkpt>
      <trkpt lat="48.56817" lon="2.16788">
        <ele>110.2</ele>
        <time>2026-02-02T13:59:07Z</time>
      </trkpt>
      <trkpt lat="48.56818" lon="2.16785">
        <ele>110.2</ele>
        <time>2026-02-02T13:59:08Z</time>
      </trkpt>
      <trkpt lat="48.56819" lon="2.16783">
        <ele>111.2</ele>
        <time>2026-02-02T13:59:09Z</time>
      </trkpt>
      <trkpt lat="48.56819" lon="2.1678">
        <ele>111.2</ele>
        <time>2026-02-02T13:59:10Z</time>
      </trkpt>
      <trkpt lat="48.5682" lon="2.16778">
        <ele>111.2</ele>
        <time>2026-02-02T13:59:11Z</time>
      </trkpt>
      <trkpt lat="48.56821" lon="2.16775">
        <ele>111.6</ele>
        <time>2026-02-02T13:59:12Z</time>
      </trkpt>
      <trkpt lat="48.56822" lon="2.16772">
        <ele>111.8</ele>
        <time>2026-02-02T13:59:13Z</time>
      </trkpt>
      <trkpt lat="48.56822" lon="2.16769">
        <ele>111.8</ele>
        <time>2026-02-02T13:59:14Z</time>
      </trkpt>
      <trkpt lat="48.56822" lon="2.16766">
        <ele>111.8</ele>
        <time>2026-02-02T13:59:15Z</time>
      </trkpt>
      <trkpt lat="48.56823" lon="2.16763">
        <ele>112.4</ele>
        <time>2026-02-02T13:59:16Z</time>
      </trkpt>
      <trkpt lat="48.56823" lon="2.16759">
        <ele>112.8</ele>
        <time>2026-02-02T13:59:17Z</time>
      </trkpt>
      <trkpt lat="48.56823" lon="2.16755">
        <ele>112.8</ele>
        <time>2026-02-02T13:59:18Z</time>
      </trkpt>
      <trkpt lat="48.56822" lon="2.16751">
        <ele>112.8</ele>
        <time>2026-02-02T13:59:19Z</time>
      </trkpt>
      <trkpt lat="48.56822" lon="2.16748">
        <ele>113</ele>
        <time>2026-02-02T13:59:20Z</time>
      </trkpt>
      <trkpt lat="48.56822" lon="2.16744">
        <ele>113.4</ele>
        <time>2026-02-02T13:59:21Z</time>
      </trkpt>
      <trkpt lat="48.56821" lon="2.16741">
        <ele>113.4</ele>
        <time>2026-02-02T13:59:22Z</time>
      </trkpt>
      <trkpt lat="48.56821" lon="2.16737">
        <ele>113.4</ele>
        <time>2026-02-02T13:59:23Z</time>
      </trkpt>
      <trkpt lat="48.5682" lon="2.16733">
        <ele>113.4</ele>
        <time>2026-02-02T13:59:24Z</time>
      </trkpt>
      <trkpt lat="48.56819" lon="2.1673">
        <ele>113.6</ele>
        <time>2026-02-02T13:59:25Z</time>
      </trkpt>
      <trkpt lat="48.56818" lon="2.16726">
        <ele>113.6</ele>
        <time>2026-02-02T13:59:26Z</time>
      </trkpt>
      <trkpt lat="48.56817" lon="2.16723">
        <ele>113.6</ele>
        <time>2026-02-02T13:59:27Z</time>
      </trkpt>
      <trkpt lat="48.56816" lon="2.1672">
        <ele>114</ele>
        <time>2026-02-02T13:59:28Z</time>
      </trkpt>
      <trkpt lat="48.56816" lon="2.16716">
        <ele>114.2</ele>
        <time>2026-02-02T13:59:29Z</time>
      </trkpt>
      <trkpt lat="48.56815" lon="2.16713">
        <ele>114.2</ele>
        <time>2026-02-02T13:59:30Z</time>
      </trkpt>
      <trkpt lat="48.56814" lon="2.16709">
        <ele>114.2</ele>
        <time>2026-02-02T13:59:31Z</time>
      </trkpt>
      <trkpt lat="48.56813" lon="2.16706">
        <ele>114.6</ele>
        <time>2026-02-02T13:59:32Z</time>
      </trkpt>
      <trkpt lat="48.56812" lon="2.16702">
        <ele>114.8</ele>
        <time>2026-02-02T13:59:33Z</time>
      </trkpt>
      <trkpt lat="48.56811" lon="2.16699">
        <ele>114.8</ele>
        <time>2026-02-02T13:59:34Z</time>
      </trkpt>
      <trkpt lat="48.5681" lon="2.16696">
        <ele>114.8</ele>
        <time>2026-02-02T13:59:35Z</time>
      </trkpt>
      <trkpt lat="48.56809" lon="2.16692">
        <ele>114.8</ele>
        <time>2026-02-02T13:59:36Z</time>
      </trkpt>
      <trkpt lat="48.56808" lon="2.16689">
        <ele>115.4</ele>
        <time>2026-02-02T13:59:37Z</time>
      </trkpt>
      <trkpt lat="48.56808" lon="2.16685">
        <ele>115.4</ele>
        <time>2026-02-02T13:59:38Z</time>
      </trkpt>
      <trkpt lat="48.56807" lon="2.16682">
        <ele>115.4</ele>
        <time>2026-02-02T13:59:39Z</time>
      </trkpt>
      <trkpt lat="48.56806" lon="2.16678">
        <ele>115.8</ele>
        <time>2026-02-02T13:59:40Z</time>
      </trkpt>
      <trkpt lat="48.56804" lon="2.16674">
        <ele>116</ele>
        <time>2026-02-02T13:59:41Z</time>
      </trkpt>
      <trkpt lat="48.56803" lon="2.16671">
        <ele>116</ele>
        <time>2026-02-02T13:59:42Z</time>
      </trkpt>
      <trkpt lat="48.56803" lon="2.16667">
        <ele>116</ele>
        <time>2026-02-02T13:59:43Z</time>
      </trkpt>
      <trkpt lat="48.56802" lon="2.16663">
        <ele>116</ele>
        <time>2026-02-02T13:59:44Z</time>
      </trkpt>
      <trkpt lat="48.56801" lon="2.1666">
        <ele>116.4</ele>
        <time>2026-02-02T13:59:45Z</time>
      </trkpt>
      <trkpt lat="48.56799" lon="2.16656">
        <ele>116.4</ele>
        <time>2026-02-02T13:59:46Z</time>
      </trkpt>
      <trkpt lat="48.56798" lon="2.16653">
        <ele>116.4</ele>
        <time>2026-02-02T13:59:47Z</time>
      </trkpt>
      <trkpt lat="48.56797" lon="2.16649">
        <ele>116.4</ele>
        <time>2026-02-02T13:59:48Z</time>
      </trkpt>
      <trkpt lat="48.56796" lon="2.16645">
        <ele>117</ele>
        <time>2026-02-02T13:59:49Z</time>
      </trkpt>
      <trkpt lat="48.56796" lon="2.16641">
        <ele>117</ele>
        <time>2026-02-02T13:59:50Z</time>
      </trkpt>
      <trkpt lat="48.56795" lon="2.16637">
        <ele>117</ele>
        <time>2026-02-02T13:59:51Z</time>
      </trkpt>
      <trkpt lat="48.56794" lon="2.16633">
        <ele>117.4</ele>
        <time>2026-02-02T13:59:52Z</time>
      </trkpt>
      <trkpt lat="48.56793" lon="2.16629">
        <ele>117.8</ele>
        <time>2026-02-02T13:59:53Z</time>
      </trkpt>
      <trkpt lat="48.56792" lon="2.16625">
        <ele>117.8</ele>
        <time>2026-02-02T13:59:54Z</time>
      </trkpt>
      <trkpt lat="48.56791" lon="2.16621">
        <ele>117.8</ele>
        <time>2026-02-02T13:59:55Z</time>
      </trkpt>
      <trkpt lat="48.56791" lon="2.16616">
        <ele>117.8</ele>
        <time>2026-02-02T13:59:56Z</time>
      </trkpt>
      <trkpt lat="48.5679" lon="2.16612">
        <ele>117.8</ele>
        <time>2026-02-02T13:59:57Z</time>
      </trkpt>
      <trkpt lat="48.56789" lon="2.16608">
        <ele>117.8</ele>
        <time>2026-02-02T13:59:58Z</time>
      </trkpt>
      <trkpt lat="48.56788" lon="2.16603">
        <ele>117.8</ele>
        <time>2026-02-02T13:59:59Z</time>
      </trkpt>
      <trkpt lat="48.56787" lon="2.16599">
        <ele>118.2</ele>
        <time>2026-02-02T14:00:00Z</time>
      </trkpt>
      <trkpt lat="48.56786" lon="2.16594">
        <ele>118</ele>
        <time>2026-02-02T14:00:01Z</time>
      </trkpt>
      <trkpt lat="48.56785" lon="2.16589">
        <ele>118</ele>
        <time>2026-02-02T14:00:02Z</time>
      </trkpt>
      <trkpt lat="48.56784" lon="2.16584">
        <ele>118</ele>
        <time>2026-02-02T14:00:03Z</time>
      </trkpt>
      <trkpt lat="48.56783" lon="2.16579">
        <ele>118.8</ele>
        <time>2026-02-02T14:00:04Z</time>
      </trkpt>
      <trkpt lat="48.56782" lon="2.16575">
        <ele>118.8</ele>
        <time>2026-02-02T14:00:05Z</time>
      </trkpt>
      <trkpt lat="48.56781" lon="2.1657">
        <ele>118.8</ele>
        <time>2026-02-02T14:00:06Z</time>
      </trkpt>
      <trkpt lat="48.56781" lon="2.16565">
        <ele>118.8</ele>
        <time>2026-02-02T14:00:07Z</time>
      </trkpt>
      <trkpt lat="48.5678" lon="2.16559">
        <ele>118.8</ele>
        <time>2026-02-02T14:00:08Z</time>
      </trkpt>
      <trkpt lat="48.56779" lon="2.16554">
        <ele>119.8</ele>
        <time>2026-02-02T14:00:09Z</time>
      </trkpt>
      <trkpt lat="48.56778" lon="2.16549">
        <ele>119.8</ele>
        <time>2026-02-02T14:00:10Z</time>
      </trkpt>
      <trkpt lat="48.56777" lon="2.16544">
        <ele>119.8</ele>
        <time>2026-02-02T14:00:11Z</time>
      </trkpt>
      <trkpt lat="48.56776" lon="2.16539">
        <ele>119.8</ele>
        <time>2026-02-02T14:00:12Z</time>
      </trkpt>
      <trkpt lat="48.56775" lon="2.16534">
        <ele>119.6</ele>
        <time>2026-02-02T14:00:13Z</time>
      </trkpt>
      <trkpt lat="48.56774" lon="2.16528">
        <ele>119.6</ele>
        <time>2026-02-02T14:00:14Z</time>
      </trkpt>
      <trkpt lat="48.56773" lon="2.16523">
        <ele>119.6</ele>
        <time>2026-02-02T14:00:15Z</time>
      </trkpt>
      <trkpt lat="48.56772" lon="2.16517">
        <ele>119.6</ele>
        <time>2026-02-02T14:00:16Z</time>
      </trkpt>
      <trkpt lat="48.56772" lon="2.16512">
        <ele>119.6</ele>
        <time>2026-02-02T14:00:17Z</time>
      </trkpt>
      <trkpt lat="48.56771" lon="2.16506">
        <ele>119.6</ele>
        <time>2026-02-02T14:00:18Z</time>
      </trkpt>
      <trkpt lat="48.56771" lon="2.165">
        <ele>119.6</ele>
        <time>2026-02-02T14:00:19Z</time>
      </trkpt>
      <trkpt lat="48.56771" lon="2.16495">
        <ele>120.6</ele>
        <time>2026-02-02T14:00:20Z</time>
      </trkpt>
      <trkpt lat="48.56771" lon="2.16489">
        <ele>120.6</ele>
        <time>2026-02-02T14:00:21Z</time>
      </trkpt>
      <trkpt lat="48.56771" lon="2.16483">
        <ele>120.6</ele>
        <time>2026-02-02T14:00:22Z</time>
      </trkpt>
      <trkpt lat="48.56771" lon="2.16477">
        <ele>120.6</ele>
        <time>2026-02-02T14:00:23Z</time>
      </trkpt>
      <trkpt lat="48.56771" lon="2.16471">
        <ele>120.6</ele>
        <time>2026-02-02T14:00:24Z</time>
      </trkpt>
      <trkpt lat="48.56771" lon="2.16465">
        <ele>120.8</ele>
        <time>2026-02-02T14:00:25Z</time>
      </trkpt>
      <trkpt lat="48.56772" lon="2.16458">
        <ele>120.8</ele>
        <time>2026-02-02T14:00:26Z</time>
      </trkpt>
      <trkpt lat="48.56772" lon="2.16452">
        <ele>120.8</ele>
        <time>2026-02-02T14:00:27Z</time>
      </trkpt>
      <trkpt lat="48.56772" lon="2.16446">
        <ele>121</ele>
        <time>2026-02-02T14:00:28Z</time>
      </trkpt>
      <trkpt lat="48.56772" lon="2.1644">
        <ele>121</ele>
        <time>2026-02-02T14:00:29Z</time>
      </trkpt>
      <trkpt lat="48.56773" lon="2.16434">
        <ele>121</ele>
        <time>2026-02-02T14:00:30Z</time>
      </trkpt>
      <trkpt lat="48.56774" lon="2.16428">
        <ele>121</ele>
        <time>2026-02-02T14:00:31Z</time>
      </trkpt>
      <trkpt lat="48.56774" lon="2.16422">
        <ele>121.4</ele>
        <time>2026-02-02T14:00:32Z</time>
      </trkpt>
      <trkpt lat="48.56775" lon="2.16416">
        <ele>121.6</ele>
        <time>2026-02-02T14:00:33Z</time>
      </trkpt>
      <trkpt lat="48.56776" lon="2.1641">
        <ele>121.6</ele>
        <time>2026-02-02T14:00:34Z</time>
      </trkpt>
      <trkpt lat="48.56776" lon="2.16404">
        <ele>121.6</ele>
        <time>2026-02-02T14:00:35Z</time>
      </trkpt>
      <trkpt lat="48.56776" lon="2.16397">
        <ele>121.6</ele>
        <time>2026-02-02T14:00:36Z</time>
      </trkpt>
      <trkpt lat="48.56777" lon="2.16391">
        <ele>122.2</ele>
        <time>2026-02-02T14:00:37Z</time>
      </trkpt>
      <trkpt lat="48.56778" lon="2.16385">
        <ele>122.2</ele>
        <time>2026-02-02T14:00:38Z</time>
      </trkpt>
      <trkpt lat="48.56781" lon="2.1638">
        <ele>122.2</ele>
        <time>2026-02-02T14:00:39Z</time>
      </trkpt>
      <trkpt lat="48.56783" lon="2.16375">
        <ele>121.6</ele>
        <time>2026-02-02T14:00:40Z</time>
      </trkpt>
      <trkpt lat="48.56786" lon="2.16369">
        <ele>122.6</ele>
        <time>2026-02-02T14:00:41Z</time>
      </trkpt>
      <trkpt lat="48.56787" lon="2.16363">
        <ele>122.6</ele>
        <time>2026-02-02T14:00:42Z</time>
      </trkpt>
      <trkpt lat="48.56787" lon="2.16355">
        <ele>122.6</ele>
        <time>2026-02-02T14:00:43Z</time>
      </trkpt>
      <trkpt lat="48.56786" lon="2.16348">
        <ele>122.4</ele>
        <time>2026-02-02T14:00:44Z</time>
      </trkpt>
      <trkpt lat="48.56786" lon="2.1634">
        <ele>122.2</ele>
        <time>2026-02-02T14:00:45Z</time>
      </trkpt>
      <trkpt lat="48.56786" lon="2.16332">
        <ele>122.2</ele>
        <time>2026-02-02T14:00:46Z</time>
      </trkpt>
      <trkpt lat="48.56786" lon="2.16325">
        <ele>122.2</ele>
        <time>2026-02-02T14:00:47Z</time>
      </trkpt>
      <trkpt lat="48.56786" lon="2.16317">
        <ele>122.2</ele>
        <time>2026-02-02T14:00:48Z</time>
      </trkpt>
      <trkpt lat="48.56787" lon="2.16308">
        <ele>122</ele>
        <time>2026-02-02T14:00:49Z</time>
      </trkpt>
      <trkpt lat="48.56788" lon="2.163">
        <ele>122</ele>
        <time>2026-02-02T14:00:50Z</time>
      </trkpt>
      <trkpt lat="48.56789" lon="2.16292">
        <ele>122</ele>
        <time>2026-02-02T14:00:51Z</time>
      </trkpt>
      <trkpt lat="48.5679" lon="2.16284">
        <ele>122</ele>
        <time>2026-02-02T14:00:52Z</time>
      </trkpt>
      <trkpt lat="48.56791" lon="2.16276">
        <ele>122.2</ele>
        <time>2026-02-02T14:00:53Z</time>
      </trkpt>
      <trkpt lat="48.56791" lon="2.16268">
        <ele>122.2</ele>
        <time>2026-02-02T14:00:54Z</time>
      </trkpt>
      <trkpt lat="48.56792" lon="2.16259">
        <ele>122.2</ele>
        <time>2026-02-02T14:00:55Z</time>
      </trkpt>
      <trkpt lat="48.56793" lon="2.16251">
        <ele>122.6</ele>
        <time>2026-02-02T14:00:56Z</time>
      </trkpt>
      <trkpt lat="48.56794" lon="2.16243">
        <ele>122.6</ele>
        <time>2026-02-02T14:00:57Z</time>
      </trkpt>
      <trkpt lat="48.56795" lon="2.16234">
        <ele>122.6</ele>
        <time>2026-02-02T14:00:58Z</time>
      </trkpt>
      <trkpt lat="48.56796" lon="2.16226">
        <ele>122.6</ele>
        <time>2026-02-02T14:00:59Z</time>
      </trkpt>
      <trkpt lat="48.56797" lon="2.16217">
        <ele>122.6</ele>
        <time>2026-02-02T14:01:00Z</time>
      </trkpt>
      <trkpt lat="48.56798" lon="2.16209">
        <ele>122.8</ele>
        <time>2026-02-02T14:01:01Z</time>
      </trkpt>
      <trkpt lat="48.56799" lon="2.16201">
        <ele>122.8</ele>
        <time>2026-02-02T14:01:02Z</time>
      </trkpt>
      <trkpt lat="48.568" lon="2.16192">
        <ele>122.8</ele>
        <time>2026-02-02T14:01:03Z</time>
      </trkpt>
      <trkpt lat="48.56801" lon="2.16183">
        <ele>122.8</ele>
        <time>2026-02-02T14:01:04Z</time>
      </trkpt>
      <trkpt lat="48.56802" lon="2.16175">
        <ele>122.8</ele>
        <time>2026-02-02T14:01:05Z</time>
      </trkpt>
      <trkpt lat="48.56804" lon="2.16166">
        <ele>122.8</ele>
        <time>2026-02-02T14:01:06Z</time>
      </trkpt>
      <trkpt lat="48.56805" lon="2.16157">
        <ele>122.8</ele>
        <time>2026-02-02T14:01:07Z</time>
      </trkpt>
      <trkpt lat="48.56806" lon="2.16149">
        <ele>122.8</ele>
        <time>2026-02-02T14:01:08Z</time>
      </trkpt>
      <trkpt lat="48.56807" lon="2.1614">
        <ele>122.4</ele>
        <time>2026-02-02T14:01:09Z</time>
      </trkpt>
      <trkpt lat="48.56809" lon="2.16131">
        <ele>122.4</ele>
        <time>2026-02-02T14:01:10Z</time>
      </trkpt>
      <trkpt lat="48.5681" lon="2.16123">
        <ele>122.4</ele>
        <time>2026-02-02T14:01:11Z</time>
      </trkpt>
      <trkpt lat="48.56812" lon="2.16114">
        <ele>123.2</ele>
        <time>2026-02-02T14:01:12Z</time>
      </trkpt>
      <trkpt lat="48.56814" lon="2.16106">
        <ele>123.2</ele>
        <time>2026-02-02T14:01:13Z</time>
      </trkpt>
      <trkpt lat="48.56816" lon="2.16097">
        <ele>123.2</ele>
        <time>2026-02-02T14:01:14Z</time>
      </trkpt>
      <trkpt lat="48.56817" lon="2.16089">
        <ele>123.2</ele>
        <time>2026-02-02T14:01:15Z</time>
      </trkpt>
      <trkpt lat="48.56819" lon="2.1608">
        <ele>123.2</ele>
        <time>2026-02-02T14:01:16Z</time>
      </trkpt>
      <trkpt lat="48.56821" lon="2.16071">
        <ele>123.2</ele>
        <time>2026-02-02T14:01:17Z</time>
      </trkpt>
      <trkpt lat="48.56822" lon="2.16063">
        <ele>123.2</ele>
        <time>2026-02-02T14:01:18Z</time>
      </trkpt>
      <trkpt lat="48.56823" lon="2.16054">
        <ele>123.2</ele>
        <time>2026-02-02T14:01:19Z</time>
      </trkpt>
      <trkpt lat="48.56824" lon="2.16045">
        <ele>123.4</ele>
        <time>2026-02-02T14:01:20Z</time>
      </trkpt>
      <trkpt lat="48.56826" lon="2.16036">
        <ele>124</ele>
        <time>2026-02-02T14:01:21Z</time>
      </trkpt>
      <trkpt lat="48.56828" lon="2.16028">
        <ele>124</ele>
        <time>2026-02-02T14:01:22Z</time>
      </trkpt>
      <trkpt lat="48.56831" lon="2.1602">
        <ele>124</ele>
        <time>2026-02-02T14:01:23Z</time>
      </trkpt>
      <trkpt lat="48.56834" lon="2.16011">
        <ele>123.2</ele>
        <time>2026-02-02T14:01:24Z</time>
      </trkpt>
      <trkpt lat="48.56836" lon="2.16003">
        <ele>123.6</ele>
        <time>2026-02-02T14:01:25Z</time>
      </trkpt>
      <trkpt lat="48.56839" lon="2.15995">
        <ele>123.6</ele>
        <time>2026-02-02T14:01:26Z</time>
      </trkpt>
      <trkpt lat="48.56841" lon="2.15986">
        <ele>123.6</ele>
        <time>2026-02-02T14:01:27Z</time>
      </trkpt>
      <trkpt lat="48.56843" lon="2.15977">
        <ele>123.6</ele>
        <time>2026-02-02T14:01:28Z</time>
      </trkpt>
      <trkpt lat="48.56845" lon="2.15968">
        <ele>123.4</ele>
        <time>2026-02-02T14:01:29Z</time>
      </trkpt>
      <trkpt lat="48.56847" lon="2.1596">
        <ele>123.4</ele>
        <time>2026-02-02T14:01:30Z</time>
      </trkpt>
      <trkpt lat="48.56849" lon="2.15951">
        <ele>123.4</ele>
        <time>2026-02-02T14:01:31Z</time>
      </trkpt>
      <trkpt lat="48.56851" lon="2.15942">
        <ele>124</ele>
        <time>2026-02-02T14:01:32Z</time>
      </trkpt>
      <trkpt lat="48.56853" lon="2.15934">
        <ele>123.6</ele>
        <time>2026-02-02T14:01:33Z</time>
      </trkpt>
      <trkpt lat="48.56855" lon="2.15926">
        <ele>123.6</ele>
        <time>2026-02-02T14:01:34Z</time>
      </trkpt>
      <trkpt lat="48.56857" lon="2.15917">
        <ele>123.6</ele>
        <time>2026-02-02T14:01:35Z</time>
      </trkpt>
      <trkpt lat="48.56859" lon="2.15908">
        <ele>123.6</ele>
        <time>2026-02-02T14:01:36Z</time>
      </trkpt>
      <trkpt lat="48.56861" lon="2.15899">
        <ele>124</ele>
        <time>2026-02-02T14:01:37Z</time>
      </trkpt>
      <trkpt lat="48.56863" lon="2.15891">
        <ele>124</ele>
        <time>2026-02-02T14:01:38Z</time>
      </trkpt>
      <trkpt lat="48.56866" lon="2.15882">
        <ele>124</ele>
        <time>2026-02-02T14:01:39Z</time>
      </trkpt>
      <trkpt lat="48.56868" lon="2.15873">
        <ele>123.8</ele>
        <time>2026-02-02T14:01:40Z</time>
      </trkpt>
      <trkpt lat="48.5687" lon="2.15864">
        <ele>124</ele>
        <time>2026-02-02T14:01:41Z</time>
      </trkpt>
      <trkpt lat="48.56872" lon="2.15855">
        <ele>124</ele>
        <time>2026-02-02T14:01:42Z</time>
      </trkpt>
      <trkpt lat="48.56874" lon="2.15846">
        <ele>124</ele>
        <time>2026-02-02T14:01:43Z</time>
      </trkpt>
      <trkpt lat="48.56876" lon="2.15836">
        <ele>124</ele>
        <time>2026-02-02T14:01:44Z</time>
      </trkpt>
      <trkpt lat="48.56878" lon="2.15827">
        <ele>122.8</ele>
        <time>2026-02-02T14:01:45Z</time>
      </trkpt>
      <trkpt lat="48.5688" lon="2.15818">
        <ele>122.8</ele>
        <time>2026-02-02T14:01:46Z</time>
      </trkpt>
      <trkpt lat="48.56882" lon="2.15809">
        <ele>122.8</ele>
        <time>2026-02-02T14:01:47Z</time>
      </trkpt>
      <trkpt lat="48.56884" lon="2.158">
        <ele>123.6</ele>
        <time>2026-02-02T14:01:48Z</time>
      </trkpt>
      <trkpt lat="48.56887" lon="2.15791">
        <ele>123.6</ele>
        <time>2026-02-02T14:01:49Z</time>
      </trkpt>
      <trkpt lat="48.56889" lon="2.15782">
        <ele>123.6</ele>
        <time>2026-02-02T14:01:50Z</time>
      </trkpt>
      <trkpt lat="48.56891" lon="2.15773">
        <ele>123.6</ele>
        <time>2026-02-02T14:01:51Z</time>
      </trkpt>
      <trkpt lat="48.56894" lon="2.15764">
        <ele>123.6</ele>
        <time>2026-02-02T14:01:52Z</time>
      </trkpt>
      <trkpt lat="48.56896" lon="2.15754">
        <ele>123.2</ele>
        <time>2026-02-02T14:01:53Z</time>
      </trkpt>
      <trkpt lat="48.56898" lon="2.15744">
        <ele>123.2</ele>
        <time>2026-02-02T14:01:54Z</time>
      </trkpt>
      <trkpt lat="48.56901" lon="2.15735">
        <ele>123.2</ele>
        <time>2026-02-02T14:01:55Z</time>
      </trkpt>
      <trkpt lat="48.56903" lon="2.15725">
        <ele>123.2</ele>
        <time>2026-02-02T14:01:56Z</time>
      </trkpt>
      <trkpt lat="48.56905" lon="2.15715">
        <ele>123.4</ele>
        <time>2026-02-02T14:01:57Z</time>
      </trkpt>
      <trkpt lat="48.56907" lon="2.15706">
        <ele>123.4</ele>
        <time>2026-02-02T14:01:58Z</time>
      </trkpt>
      <trkpt lat="48.56909" lon="2.15696">
        <ele>123.4</ele>
        <time>2026-02-02T14:01:59Z</time>
      </trkpt>
      <trkpt lat="48.56912" lon="2.15687">
        <ele>123.4</ele>
        <time>2026-02-02T14:02:00Z</time>
      </trkpt>
      <trkpt lat="48.56914" lon="2.15677">
        <ele>124</ele>
        <time>2026-02-02T14:02:01Z</time>
      </trkpt>
      <trkpt lat="48.56916" lon="2.15668">
        <ele>124</ele>
        <time>2026-02-02T14:02:02Z</time>
      </trkpt>
      <trkpt lat="48.56917" lon="2.15659">
        <ele>124</ele>
        <time>2026-02-02T14:02:03Z</time>
      </trkpt>
      <trkpt lat="48.56919" lon="2.1565">
        <ele>124</ele>
        <time>2026-02-02T14:02:04Z</time>
      </trkpt>
      <trkpt lat="48.56921" lon="2.15641">
        <ele>124</ele>
        <time>2026-02-02T14:02:05Z</time>
      </trkpt>
      <trkpt lat="48.56922" lon="2.15632">
        <ele>124</ele>
        <time>2026-02-02T14:02:06Z</time>
      </trkpt>
      <trkpt lat="48.56924" lon="2.15623">
        <ele>124</ele>
        <time>2026-02-02T14:02:07Z</time>
      </trkpt>
      <trkpt lat="48.56925" lon="2.15615">
        <ele>124.8</ele>
        <time>2026-02-02T14:02:08Z</time>
      </trkpt>
      <trkpt lat="48.56927" lon="2.15606">
        <ele>124.6</ele>
        <time>2026-02-02T14:02:09Z</time>
      </trkpt>
      <trkpt lat="48.56928" lon="2.15598">
        <ele>124.6</ele>
        <time>2026-02-02T14:02:10Z</time>
      </trkpt>
      <trkpt lat="48.56929" lon="2.15589">
        <ele>124.6</ele>
        <time>2026-02-02T14:02:11Z</time>
      </trkpt>
      <trkpt lat="48.56931" lon="2.15581">
        <ele>124.6</ele>
        <time>2026-02-02T14:02:12Z</time>
      </trkpt>
      <trkpt lat="48.56932" lon="2.15573">
        <ele>124.6</ele>
        <time>2026-02-02T14:02:13Z</time>
      </trkpt>
      <trkpt lat="48.56933" lon="2.15565">
        <ele>124.6</ele>
        <time>2026-02-02T14:02:14Z</time>
      </trkpt>
      <trkpt lat="48.56935" lon="2.15556">
        <ele>124.6</ele>
        <time>2026-02-02T14:02:15Z</time>
      </trkpt>
      <trkpt lat="48.56936" lon="2.15548">
        <ele>125</ele>
        <time>2026-02-02T14:02:16Z</time>
      </trkpt>
      <trkpt lat="48.56937" lon="2.1554">
        <ele>125.2</ele>
        <time>2026-02-02T14:02:17Z</time>
      </trkpt>
      <trkpt lat="48.56938" lon="2.15532">
        <ele>125.2</ele>
        <time>2026-02-02T14:02:18Z</time>
      </trkpt>
      <trkpt lat="48.5694" lon="2.15523">
        <ele>125.2</ele>
        <time>2026-02-02T14:02:19Z</time>
      </trkpt>
      <trkpt lat="48.56941" lon="2.15515">
        <ele>125.2</ele>
        <time>2026-02-02T14:02:20Z</time>
      </trkpt>
      <trkpt lat="48.56942" lon="2.15507">
        <ele>125.6</ele>
        <time>2026-02-02T14:02:21Z</time>
      </trkpt>
      <trkpt lat="48.56943" lon="2.15498">
        <ele>125.6</ele>
        <time>2026-02-02T14:02:22Z</time>
      </trkpt>
      <trkpt lat="48.56945" lon="2.1549">
        <ele>125.6</ele>
        <time>2026-02-02T14:02:23Z</time>
      </trkpt>
      <trkpt lat="48.56946" lon="2.15481">
        <ele>125.6</ele>
        <time>2026-02-02T14:02:24Z</time>
      </trkpt>
      <trkpt lat="48.56947" lon="2.15473">
        <ele>126</ele>
        <time>2026-02-02T14:02:25Z</time>
      </trkpt>
      <trkpt lat="48.56948" lon="2.15464">
        <ele>126</ele>
        <time>2026-02-02T14:02:26Z</time>
      </trkpt>
      <trkpt lat="48.56949" lon="2.15455">
        <ele>126</ele>
        <time>2026-02-02T14:02:27Z</time>
      </trkpt>
      <trkpt lat="48.56951" lon="2.15447">
        <ele>126</ele>
        <time>2026-02-02T14:02:28Z</time>
      </trkpt>
      <trkpt lat="48.56952" lon="2.15438">
        <ele>126.4</ele>
        <time>2026-02-02T14:02:29Z</time>
      </trkpt>
      <trkpt lat="48.56953" lon="2.15429">
        <ele>126.4</ele>
        <time>2026-02-02T14:02:30Z</time>
      </trkpt>
      <trkpt lat="48.56954" lon="2.15421">
        <ele>126.4</ele>
        <time>2026-02-02T14:02:31Z</time>
      </trkpt>
      <trkpt lat="48.56955" lon="2.15412">
        <ele>126.4</ele>
        <time>2026-02-02T14:02:32Z</time>
      </trkpt>
      <trkpt lat="48.56956" lon="2.15403">
        <ele>126.6</ele>
        <time>2026-02-02T14:02:33Z</time>
      </trkpt>
      <trkpt lat="48.56957" lon="2.15393">
        <ele>126.6</ele>
        <time>2026-02-02T14:02:34Z</time>
      </trkpt>
      <trkpt lat="48.56958" lon="2.15384">
        <ele>126.6</ele>
        <time>2026-02-02T14:02:35Z</time>
      </trkpt>
      <trkpt lat="48.56959" lon="2.15374">
        <ele>126.6</ele>
        <time>2026-02-02T14:02:36Z</time>
      </trkpt>
      <trkpt lat="48.5696" lon="2.15364">
        <ele>127.2</ele>
        <time>2026-02-02T14:02:37Z</time>
      </trkpt>
      <trkpt lat="48.56961" lon="2.15355">
        <ele>127.2</ele>
        <time>2026-02-02T14:02:38Z</time>
      </trkpt>
      <trkpt lat="48.56962" lon="2.15346">
        <ele>127.2</ele>
        <time>2026-02-02T14:02:39Z</time>
      </trkpt>
      <trkpt lat="48.56964" lon="2.15336">
        <ele>126.8</ele>
        <time>2026-02-02T14:02:40Z</time>
      </trkpt>
      <trkpt lat="48.56965" lon="2.15327">
        <ele>127.4</ele>
        <time>2026-02-02T14:02:41Z</time>
      </trkpt>
      <trkpt lat="48.56966" lon="2.15317">
        <ele>127.4</ele>
        <time>2026-02-02T14:02:42Z</time>
      </trkpt>
      <trkpt lat="48.56966" lon="2.15308">
        <ele>127.4</ele>
        <time>2026-02-02T14:02:43Z</time>
      </trkpt>
      <trkpt lat="48.56967" lon="2.15299">
        <ele>127.4</ele>
        <time>2026-02-02T14:02:44Z</time>
      </trkpt>
      <trkpt lat="48.56968" lon="2.1529">
        <ele>127.2</ele>
        <time>2026-02-02T14:02:45Z</time>
      </trkpt>
      <trkpt lat="48.56969" lon="2.15281">
        <ele>127.2</ele>
        <time>2026-02-02T14:02:46Z</time>
      </trkpt>
      <trkpt lat="48.5697" lon="2.15273">
        <ele>127.2</ele>
        <time>2026-02-02T14:02:47Z</time>
      </trkpt>
      <trkpt lat="48.56971" lon="2.15264">
        <ele>127.6</ele>
        <time>2026-02-02T14:02:48Z</time>
      </trkpt>
      <trkpt lat="48.56972" lon="2.15256">
        <ele>128</ele>
        <time>2026-02-02T14:02:49Z</time>
      </trkpt>
      <trkpt lat="48.56973" lon="2.15247">
        <ele>128</ele>
        <time>2026-02-02T14:02:50Z</time>
      </trkpt>
      <trkpt lat="48.56973" lon="2.15239">
        <ele>128</ele>
        <time>2026-02-02T14:02:51Z</time>
      </trkpt>
      <trkpt lat="48.56974" lon="2.1523">
        <ele>128.4</ele>
        <time>2026-02-02T14:02:52Z</time>
      </trkpt>
      <trkpt lat="48.56974" lon="2.15222">
        <ele>128.2</ele>
        <time>2026-02-02T14:02:53Z</time>
      </trkpt>
      <trkpt lat="48.56975" lon="2.15214">
        <ele>128.2</ele>
        <time>2026-02-02T14:02:54Z</time>
      </trkpt>
      <trkpt lat="48.56975" lon="2.15207">
        <ele>128.2</ele>
        <time>2026-02-02T14:02:55Z</time>
      </trkpt>
      <trkpt lat="48.56976" lon="2.15199">
        <ele>128.2</ele>
        <time>2026-02-02T14:02:56Z</time>
      </trkpt>
      <trkpt lat="48.56976" lon="2.15192">
        <ele>128.6</ele>
        <time>2026-02-02T14:02:57Z</time>
      </trkpt>
      <trkpt lat="48.56976" lon="2.15185">
        <ele>128.6</ele>
        <time>2026-02-02T14:02:58Z</time>
      </trkpt>
      <trkpt lat="48.56976" lon="2.15181">
        <ele>128.6</ele>
        <time>2026-02-02T14:02:59Z</time>
      </trkpt>
      <trkpt lat="48.56976" lon="2.15178">
        <ele>128.6</ele>
        <time>2026-02-02T14:03:00Z</time>
      </trkpt>
      <trkpt lat="48.56976" lon="2.15177">
        <ele>129</ele>
        <time>2026-02-02T14:03:01Z</time>
      </trkpt>
      <trkpt lat="48.56976" lon="2.15177">
        <ele>129</ele>
        <time>2026-02-02T14:03:02Z</time>
      </trkpt>
      <trkpt lat="48.56976" lon="2.15177">
        <ele>129</ele>
        <time>2026-02-02T14:03:03Z</time>
      </trkpt>
      <trkpt lat="48.56976" lon="2.15177">
        <ele>128.8</ele>
        <time>2026-02-02T14:03:04Z</time>
      </trkpt>
      <trkpt lat="48.56976" lon="2.15172">
        <ele>128.6</ele>
        <time>2026-02-02T14:03:42Z</time>
      </trkpt>
      <trkpt lat="48.56975" lon="2.15169">
        <ele>128.6</ele>
        <time>2026-02-02T14:03:43Z</time>
      </trkpt>
      <trkpt lat="48.56975" lon="2.15165">
        <ele>129</ele>
        <time>2026-02-02T14:03:44Z</time>
      </trkpt>
      <trkpt lat="48.56974" lon="2.15161">
        <ele>129</ele>
        <time>2026-02-02T14:03:45Z</time>
      </trkpt>
      <trkpt lat="48.56974" lon="2.15157">
        <ele>129</ele>
        <time>2026-02-02T14:03:46Z</time>
      </trkpt>
      <trkpt lat="48.56974" lon="2.15153">
        <ele>129</ele>
        <time>2026-02-02T14:03:47Z</time>
      </trkpt>
      <trkpt lat="48.56973" lon="2.15148">
        <ele>128.8</ele>
        <time>2026-02-02T14:03:48Z</time>
      </trkpt>
      <trkpt lat="48.56973" lon="2.15143">
        <ele>128.8</ele>
        <time>2026-02-02T14:03:49Z</time>
      </trkpt>
      <trkpt lat="48.56973" lon="2.15138">
        <ele>128.8</ele>
        <time>2026-02-02T14:03:50Z</time>
      </trkpt>
      <trkpt lat="48.56972" lon="2.15132">
        <ele>128.8</ele>
        <time>2026-02-02T14:03:51Z</time>
      </trkpt>
      <trkpt lat="48.56972" lon="2.15127">
        <ele>128.8</ele>
        <time>2026-02-02T14:03:52Z</time>
      </trkpt>
      <trkpt lat="48.56972" lon="2.15121">
        <ele>129.2</ele>
        <time>2026-02-02T14:03:53Z</time>
      </trkpt>
      <trkpt lat="48.56971" lon="2.15115">
        <ele>129.2</ele>
        <time>2026-02-02T14:03:54Z</time>
      </trkpt>
      <trkpt lat="48.56971" lon="2.15109">
        <ele>129.2</ele>
        <time>2026-02-02T14:03:55Z</time>
      </trkpt>
      <trkpt lat="48.5697" lon="2.15102">
        <ele>129.2</ele>
        <time>2026-02-02T14:03:56Z</time>
      </trkpt>
      <trkpt lat="48.5697" lon="2.15095">
        <ele>129</ele>
        <time>2026-02-02T14:03:57Z</time>
      </trkpt>
      <trkpt lat="48.5697" lon="2.15089">
        <ele>129</ele>
        <time>2026-02-02T14:03:58Z</time>
      </trkpt>
      <trkpt lat="48.5697" lon="2.15081">
        <ele>129</ele>
        <time>2026-02-02T14:03:59Z</time>
      </trkpt>
      <trkpt lat="48.5697" lon="2.15074">
        <ele>129</ele>
        <time>2026-02-02T14:04:00Z</time>
      </trkpt>
      <trkpt lat="48.56971" lon="2.15067">
        <ele>129.4</ele>
        <time>2026-02-02T14:04:01Z</time>
      </trkpt>
      <trkpt lat="48.56971" lon="2.1506">
        <ele>129.4</ele>
        <time>2026-02-02T14:04:02Z</time>
      </trkpt>
      <trkpt lat="48.56972" lon="2.15053">
        <ele>129.4</ele>
        <time>2026-02-02T14:04:03Z</time>
      </trkpt>
      <trkpt lat="48.56973" lon="2.15046">
        <ele>129.4</ele>
        <time>2026-02-02T14:04:04Z</time>
      </trkpt>
      <trkpt lat="48.56973" lon="2.15039">
        <ele>130.2</ele>
        <time>2026-02-02T14:04:05Z</time>
      </trkpt>
      <trkpt lat="48.56974" lon="2.15032">
        <ele>130.2</ele>
        <time>2026-02-02T14:04:06Z</time>
      </trkpt>
      <trkpt lat="48.56974" lon="2.15025">
        <ele>130.2</ele>
        <time>2026-02-02T14:04:07Z</time>
      </trkpt>
      <trkpt lat="48.56975" lon="2.15018">
        <ele>130.2</ele>
        <time>2026-02-02T14:04:08Z</time>
      </trkpt>
      <trkpt lat="48.56976" lon="2.15011">
        <ele>129.8</ele>
        <time>2026-02-02T14:04:09Z</time>
      </trkpt>
      <trkpt lat="48.56977" lon="2.15003">
        <ele>129.8</ele>
        <time>2026-02-02T14:04:10Z</time>
      </trkpt>
      <trkpt lat="48.56979" lon="2.14996">
        <ele>129.8</ele>
        <time>2026-02-02T14:04:11Z</time>
      </trkpt>
      <trkpt lat="48.5698" lon="2.14988">
        <ele>129.8</ele>
        <time>2026-02-02T14:04:12Z</time>
      </trkpt>
      <trkpt lat="48.56981" lon="2.14981">
        <ele>129.4</ele>
        <time>2026-02-02T14:04:13Z</time>
      </trkpt>
      <trkpt lat="48.56982" lon="2.14973">
        <ele>129.4</ele>
        <time>2026-02-02T14:04:14Z</time>
      </trkpt>
      <trkpt lat="48.56983" lon="2.14965">
        <ele>129.4</ele>
        <time>2026-02-02T14:04:15Z</time>
      </trkpt>
      <trkpt lat="48.56984" lon="2.14957">
        <ele>129.8</ele>
        <time>2026-02-02T14:04:16Z</time>
      </trkpt>
      <trkpt lat="48.56986" lon="2.14949">
        <ele>129.8</ele>
        <time>2026-02-02T14:04:17Z</time>
      </trkpt>
      <trkpt lat="48.56988" lon="2.14941">
        <ele>129.8</ele>
        <time>2026-02-02T14:04:18Z</time>
      </trkpt>
      <trkpt lat="48.5699" lon="2.14933">
        <ele>129.8</ele>
        <time>2026-02-02T14:04:19Z</time>
      </trkpt>
      <trkpt lat="48.56992" lon="2.14925">
        <ele>129.8</ele>
        <time>2026-02-02T14:04:20Z</time>
      </trkpt>
      <trkpt lat="48.56995" lon="2.14917">
        <ele>129.8</ele>
        <time>2026-02-02T14:04:21Z</time>
      </trkpt>
      <trkpt lat="48.56998" lon="2.1491">
        <ele>129.8</ele>
        <time>2026-02-02T14:04:22Z</time>
      </trkpt>
      <trkpt lat="48.56999" lon="2.14901">
        <ele>129.8</ele>
        <time>2026-02-02T14:04:23Z</time>
      </trkpt>
      <trkpt lat="48.57002" lon="2.14894">
        <ele>129.8</ele>
        <time>2026-02-02T14:04:24Z</time>
      </trkpt>
      <trkpt lat="48.57005" lon="2.14886">
        <ele>129.6</ele>
        <time>2026-02-02T14:04:25Z</time>
      </trkpt>
      <trkpt lat="48.57008" lon="2.14878">
        <ele>129.6</ele>
        <time>2026-02-02T14:04:26Z</time>
      </trkpt>
      <trkpt lat="48.57011" lon="2.14871">
        <ele>129.6</ele>
        <time>2026-02-02T14:04:27Z</time>
      </trkpt>
      <trkpt lat="48.57014" lon="2.14864">
        <ele>129</ele>
        <time>2026-02-02T14:04:28Z</time>
      </trkpt>
      <trkpt lat="48.57018" lon="2.14856">
        <ele>128.8</ele>
        <time>2026-02-02T14:04:29Z</time>
      </trkpt>
      <trkpt lat="48.57021" lon="2.14849">
        <ele>128.8</ele>
        <time>2026-02-02T14:04:30Z</time>
      </trkpt>
      <trkpt lat="48.57024" lon="2.1484">
        <ele>128.8</ele>
        <time>2026-02-02T14:04:31Z</time>
      </trkpt>
      <trkpt lat="48.57027" lon="2.14831">
        <ele>128.8</ele>
        <time>2026-02-02T14:04:32Z</time>
      </trkpt>
      <trkpt lat="48.5703" lon="2.14822">
        <ele>128.6</ele>
        <time>2026-02-02T14:04:33Z</time>
      </trkpt>
      <trkpt lat="48.57033" lon="2.14813">
        <ele>128.6</ele>
        <time>2026-02-02T14:04:34Z</time>
      </trkpt>
      <trkpt lat="48.57036" lon="2.14804">
        <ele>128.6</ele>
        <time>2026-02-02T14:04:35Z</time>
      </trkpt>
      <trkpt lat="48.57038" lon="2.14795">
        <ele>128.6</ele>
        <time>2026-02-02T14:04:36Z</time>
      </trkpt>
      <trkpt lat="48.57041" lon="2.14786">
        <ele>128.6</ele>
        <time>2026-02-02T14:04:37Z</time>
      </trkpt>
      <trkpt lat="48.57044" lon="2.14777">
        <ele>128.6</ele>
        <time>2026-02-02T14:04:38Z</time>
      </trkpt>
      <trkpt lat="48.57046" lon="2.14767">
        <ele>128.6</ele>
        <time>2026-02-02T14:04:39Z</time>
      </trkpt>
      <trkpt lat="48.57048" lon="2.14758">
        <ele>128.6</ele>
        <time>2026-02-02T14:04:40Z</time>
      </trkpt>
      <trkpt lat="48.5705" lon="2.14748">
        <ele>128.2</ele>
        <time>2026-02-02T14:04:41Z</time>
      </trkpt>
      <trkpt lat="48.57052" lon="2.14738">
        <ele>128.2</ele>
        <time>2026-02-02T14:04:42Z</time>
      </trkpt>
      <trkpt lat="48.57055" lon="2.14729">
        <ele>128.2</ele>
        <time>2026-02-02T14:04:43Z</time>
      </trkpt>
      <trkpt lat="48.57057" lon="2.14719">
        <ele>128.2</ele>
        <time>2026-02-02T14:04:44Z</time>
      </trkpt>
      <trkpt lat="48.57059" lon="2.14709">
        <ele>128</ele>
        <time>2026-02-02T14:04:45Z</time>
      </trkpt>
      <trkpt lat="48.57061" lon="2.14699">
        <ele>128</ele>
        <time>2026-02-02T14:04:46Z</time>
      </trkpt>
      <trkpt lat="48.57063" lon="2.14689">
        <ele>128</ele>
        <time>2026-02-02T14:04:47Z</time>
      </trkpt>
      <trkpt lat="48.57065" lon="2.14679">
        <ele>128</ele>
        <time>2026-02-02T14:04:48Z</time>
      </trkpt>
      <trkpt lat="48.57067" lon="2.14669">
        <ele>127.8</ele>
        <time>2026-02-02T14:04:49Z</time>
      </trkpt>
      <trkpt lat="48.57069" lon="2.14659">
        <ele>127.8</ele>
        <time>2026-02-02T14:04:50Z</time>
      </trkpt>
      <trkpt lat="48.57071" lon="2.14649">
        <ele>127.8</ele>
        <time>2026-02-02T14:04:51Z</time>
      </trkpt>
      <trkpt lat="48.57073" lon="2.14639">
        <ele>127.8</ele>
        <time>2026-02-02T14:04:52Z</time>
      </trkpt>
      <trkpt lat="48.57075" lon="2.1463">
        <ele>127.8</ele>
        <time>2026-02-02T14:04:53Z</time>
      </trkpt>
      <trkpt lat="48.57078" lon="2.1462">
        <ele>127.8</ele>
        <time>2026-02-02T14:04:54Z</time>
      </trkpt>
      <trkpt lat="48.5708" lon="2.14611">
        <ele>127.8</ele>
        <time>2026-02-02T14:04:55Z</time>
      </trkpt>
      <trkpt lat="48.57082" lon="2.14602">
        <ele>127.8</ele>
        <time>2026-02-02T14:04:56Z</time>
      </trkpt>
      <trkpt lat="48.57084" lon="2.14593">
        <ele>127.8</ele>
        <time>2026-02-02T14:04:57Z</time>
      </trkpt>
      <trkpt lat="48.57086" lon="2.14583">
        <ele>127.8</ele>
        <time>2026-02-02T14:04:58Z</time>
      </trkpt>
      <trkpt lat="48.57089" lon="2.14573">
        <ele>127.8</ele>
        <time>2026-02-02T14:04:59Z</time>
      </trkpt>
      <trkpt lat="48.57091" lon="2.14564">
        <ele>127.4</ele>
        <time>2026-02-02T14:05:00Z</time>
      </trkpt>
      <trkpt lat="48.57094" lon="2.14555">
        <ele>127.2</ele>
        <time>2026-02-02T14:05:01Z</time>
      </trkpt>
      <trkpt lat="48.57096" lon="2.14546">
        <ele>127.2</ele>
        <time>2026-02-02T14:05:02Z</time>
      </trkpt>
      <trkpt lat="48.57099" lon="2.14536">
        <ele>127.2</ele>
        <time>2026-02-02T14:05:03Z</time>
      </trkpt>
      <trkpt lat="48.57101" lon="2.14527">
        <ele>126.2</ele>
        <time>2026-02-02T14:05:04Z</time>
      </trkpt>
      <trkpt lat="48.57104" lon="2.14518">
        <ele>125.8</ele>
        <time>2026-02-02T14:05:05Z</time>
      </trkpt>
      <trkpt lat="48.57106" lon="2.14507">
        <ele>125.8</ele>
        <time>2026-02-02T14:05:06Z</time>
      </trkpt>
      <trkpt lat="48.57109" lon="2.14497">
        <ele>125.8</ele>
        <time>2026-02-02T14:05:07Z</time>
      </trkpt>
      <trkpt lat="48.57111" lon="2.14487">
        <ele>125.4</ele>
        <time>2026-02-02T14:05:08Z</time>
      </trkpt>
      <trkpt lat="48.57114" lon="2.14476">
        <ele>124.8</ele>
        <time>2026-02-02T14:05:09Z</time>
      </trkpt>
      <trkpt lat="48.57117" lon="2.14465">
        <ele>124.8</ele>
        <time>2026-02-02T14:05:10Z</time>
      </trkpt>
      <trkpt lat="48.5712" lon="2.14454">
        <ele>124.8</ele>
        <time>2026-02-02T14:05:11Z</time>
      </trkpt>
      <trkpt lat="48.57124" lon="2.14442">
        <ele>123.8</ele>
        <time>2026-02-02T14:05:12Z</time>
      </trkpt>
      <trkpt lat="48.57128" lon="2.14429">
        <ele>121.4</ele>
        <time>2026-02-02T14:05:13Z</time>
      </trkpt>
      <trkpt lat="48.57132" lon="2.14416">
        <ele>121.4</ele>
        <time>2026-02-02T14:05:14Z</time>
      </trkpt>
      <trkpt lat="48.57136" lon="2.14404">
        <ele>121.4</ele>
        <time>2026-02-02T14:05:15Z</time>
      </trkpt>
      <trkpt lat="48.57141" lon="2.14391">
        <ele>120.4</ele>
        <time>2026-02-02T14:05:16Z</time>
      </trkpt>
      <trkpt lat="48.57146" lon="2.14377">
        <ele>118</ele>
        <time>2026-02-02T14:05:17Z</time>
      </trkpt>
      <trkpt lat="48.57151" lon="2.14363">
        <ele>118</ele>
        <time>2026-02-02T14:05:18Z</time>
      </trkpt>
      <trkpt lat="48.57156" lon="2.14348">
        <ele>118</ele>
        <time>2026-02-02T14:05:19Z</time>
      </trkpt>
      <trkpt lat="48.57161" lon="2.14334">
        <ele>117</ele>
        <time>2026-02-02T14:05:20Z</time>
      </trkpt>
      <trkpt lat="48.57165" lon="2.14318">
        <ele>114.2</ele>
        <time>2026-02-02T14:05:21Z</time>
      </trkpt>
      <trkpt lat="48.5717" lon="2.14302">
        <ele>114.2</ele>
        <time>2026-02-02T14:05:22Z</time>
      </trkpt>
      <trkpt lat="48.57175" lon="2.14286">
        <ele>114.2</ele>
        <time>2026-02-02T14:05:23Z</time>
      </trkpt>
      <trkpt lat="48.5718" lon="2.1427">
        <ele>113.2</ele>
        <time>2026-02-02T14:05:24Z</time>
      </trkpt>
      <trkpt lat="48.57186" lon="2.14256">
        <ele>111.4</ele>
        <time>2026-02-02T14:05:25Z</time>
      </trkpt>
      <trkpt lat="48.57191" lon="2.14243">
        <ele>111.4</ele>
        <time>2026-02-02T14:05:26Z</time>
      </trkpt>
      <trkpt lat="48.57197" lon="2.14231">
        <ele>111.4</ele>
        <time>2026-02-02T14:05:27Z</time>
      </trkpt>
      <trkpt lat="48.57204" lon="2.1422">
        <ele>111.4</ele>
        <time>2026-02-02T14:05:28Z</time>
      </trkpt>
      <trkpt lat="48.57211" lon="2.14209">
        <ele>108.6</ele>
        <time>2026-02-02T14:05:29Z</time>
      </trkpt>
      <trkpt lat="48.5722" lon="2.142">
        <ele>108.6</ele>
        <time>2026-02-02T14:05:30Z</time>
      </trkpt>
      <trkpt lat="48.57228" lon="2.14191">
        <ele>108.6</ele>
        <time>2026-02-02T14:05:31Z</time>
      </trkpt>
      <trkpt lat="48.57237" lon="2.14181">
        <ele>107.6</ele>
        <time>2026-02-02T14:05:32Z</time>
      </trkpt>
      <trkpt lat="48.57246" lon="2.14173">
        <ele>105.6</ele>
        <time>2026-02-02T14:05:33Z</time>
      </trkpt>
      <trkpt lat="48.57255" lon="2.14164">
        <ele>105.6</ele>
        <time>2026-02-02T14:05:34Z</time>
      </trkpt>
      <trkpt lat="48.57265" lon="2.14155">
        <ele>105.6</ele>
        <time>2026-02-02T14:05:35Z</time>
      </trkpt>
      <trkpt lat="48.57274" lon="2.14147">
        <ele>104.6</ele>
        <time>2026-02-02T14:05:36Z</time>
      </trkpt>
      <trkpt lat="48.57283" lon="2.14139">
        <ele>101.8</ele>
        <time>2026-02-02T14:05:37Z</time>
      </trkpt>
      <trkpt lat="48.57293" lon="2.14131">
        <ele>101.8</ele>
        <time>2026-02-02T14:05:38Z</time>
      </trkpt>
      <trkpt lat="48.57302" lon="2.14124">
        <ele>101.8</ele>
        <time>2026-02-02T14:05:39Z</time>
      </trkpt>
      <trkpt lat="48.57311" lon="2.14116">
        <ele>100.8</ele>
        <time>2026-02-02T14:05:40Z</time>
      </trkpt>
      <trkpt lat="48.57319" lon="2.14109">
        <ele>98.6</ele>
        <time>2026-02-02T14:05:41Z</time>
      </trkpt>
      <trkpt lat="48.57327" lon="2.14102">
        <ele>98.6</ele>
        <time>2026-02-02T14:05:42Z</time>
      </trkpt>
      <trkpt lat="48.57334" lon="2.14095">
        <ele>98.6</ele>
        <time>2026-02-02T14:05:43Z</time>
      </trkpt>
      <trkpt lat="48.57342" lon="2.14087">
        <ele>97.6</ele>
        <time>2026-02-02T14:05:44Z</time>
      </trkpt>
      <trkpt lat="48.57349" lon="2.14079">
        <ele>94.6</ele>
        <time>2026-02-02T14:05:45Z</time>
      </trkpt>
      <trkpt lat="48.57358" lon="2.14071">
        <ele>94.6</ele>
        <time>2026-02-02T14:05:46Z</time>
      </trkpt>
      <trkpt lat="48.57366" lon="2.14064">
        <ele>94.6</ele>
        <time>2026-02-02T14:05:47Z</time>
      </trkpt>
      <trkpt lat="48.57375" lon="2.14059">
        <ele>93.6</ele>
        <time>2026-02-02T14:05:48Z</time>
      </trkpt>
      <trkpt lat="48.57385" lon="2.14058">
        <ele>91</ele>
        <time>2026-02-02T14:05:49Z</time>
      </trkpt>
      <trkpt lat="48.57395" lon="2.14057">
        <ele>91</ele>
        <time>2026-02-02T14:05:50Z</time>
      </trkpt>
      <trkpt lat="48.57406" lon="2.14057">
        <ele>91</ele>
        <time>2026-02-02T14:05:51Z</time>
      </trkpt>
      <trkpt lat="48.57417" lon="2.14057">
        <ele>90</ele>
        <time>2026-02-02T14:05:52Z</time>
      </trkpt>
      <trkpt lat="48.57428" lon="2.14057">
        <ele>87</ele>
        <time>2026-02-02T14:05:53Z</time>
      </trkpt>
      <trkpt lat="48.57439" lon="2.14057">
        <ele>87</ele>
        <time>2026-02-02T14:05:54Z</time>
      </trkpt>
      <trkpt lat="48.5745" lon="2.14056">
        <ele>87</ele>
        <time>2026-02-02T14:05:55Z</time>
      </trkpt>
      <trkpt lat="48.57461" lon="2.14056">
        <ele>87.4</ele>
        <time>2026-02-02T14:05:56Z</time>
      </trkpt>
      <trkpt lat="48.57472" lon="2.14056">
        <ele>85.8</ele>
        <time>2026-02-02T14:05:57Z</time>
      </trkpt>
      <trkpt lat="48.57483" lon="2.14056">
        <ele>85.8</ele>
        <time>2026-02-02T14:05:58Z</time>
      </trkpt>
      <trkpt lat="48.57493" lon="2.14055">
        <ele>85.8</ele>
        <time>2026-02-02T14:05:59Z</time>
      </trkpt>
      <trkpt lat="48.57503" lon="2.14055">
        <ele>85.6</ele>
        <time>2026-02-02T14:06:00Z</time>
      </trkpt>
      <trkpt lat="48.57513" lon="2.14054">
        <ele>86.4</ele>
        <time>2026-02-02T14:06:01Z</time>
      </trkpt>
      <trkpt lat="48.57522" lon="2.14054">
        <ele>86.4</ele>
        <time>2026-02-02T14:06:02Z</time>
      </trkpt>
      <trkpt lat="48.5753" lon="2.14054">
        <ele>86.4</ele>
        <time>2026-02-02T14:06:03Z</time>
      </trkpt>
      <trkpt lat="48.57539" lon="2.14054">
        <ele>86.4</ele>
        <time>2026-02-02T14:06:04Z</time>
      </trkpt>
      <trkpt lat="48.57547" lon="2.14054">
        <ele>87</ele>
        <time>2026-02-02T14:06:05Z</time>
      </trkpt>
      <trkpt lat="48.57555" lon="2.14053">
        <ele>87</ele>
        <time>2026-02-02T14:06:06Z</time>
      </trkpt>
      <trkpt lat="48.57563" lon="2.14053">
        <ele>87</ele>
        <time>2026-02-02T14:06:07Z</time>
      </trkpt>
      <trkpt lat="48.57571" lon="2.14051">
        <ele>86</ele>
        <time>2026-02-02T14:06:08Z</time>
      </trkpt>
      <trkpt lat="48.57579" lon="2.14048">
        <ele>86.2</ele>
        <time>2026-02-02T14:06:09Z</time>
      </trkpt>
      <trkpt lat="48.57586" lon="2.14043">
        <ele>86.2</ele>
        <time>2026-02-02T14:06:10Z</time>
      </trkpt>
      <trkpt lat="48.57592" lon="2.14037">
        <ele>86.2</ele>
        <time>2026-02-02T14:06:11Z</time>
      </trkpt>
      <trkpt lat="48.57597" lon="2.1403">
        <ele>86.2</ele>
        <time>2026-02-02T14:06:12Z</time>
      </trkpt>
      <trkpt lat="48.57603" lon="2.14022">
        <ele>85.2</ele>
        <time>2026-02-02T14:06:13Z</time>
      </trkpt>
      <trkpt lat="48.57608" lon="2.14014">
        <ele>85.2</ele>
        <time>2026-02-02T14:06:14Z</time>
      </trkpt>
      <trkpt lat="48.57614" lon="2.14006">
        <ele>85.2</ele>
        <time>2026-02-02T14:06:15Z</time>
      </trkpt>
      <trkpt lat="48.57619" lon="2.13998">
        <ele>85.2</ele>
        <time>2026-02-02T14:06:16Z</time>
      </trkpt>
      <trkpt lat="48.57625" lon="2.1399">
        <ele>85.6</ele>
        <time>2026-02-02T14:06:17Z</time>
      </trkpt>
      <trkpt lat="48.57631" lon="2.13983">
        <ele>85.6</ele>
        <time>2026-02-02T14:06:18Z</time>
      </trkpt>
      <trkpt lat="48.57637" lon="2.13977">
        <ele>85.6</ele>
        <time>2026-02-02T14:06:19Z</time>
      </trkpt>
      <trkpt lat="48.57643" lon="2.13971">
        <ele>85.6</ele>
        <time>2026-02-02T14:06:20Z</time>
      </trkpt>
      <trkpt lat="48.5765" lon="2.13966">
        <ele>85.4</ele>
        <time>2026-02-02T14:06:21Z</time>
      </trkpt>
      <trkpt lat="48.57656" lon="2.13961">
        <ele>85.4</ele>
        <time>2026-02-02T14:06:22Z</time>
      </trkpt>
      <trkpt lat="48.57662" lon="2.13956">
        <ele>85.4</ele>
        <time>2026-02-02T14:06:23Z</time>
      </trkpt>
      <trkpt lat="48.57668" lon="2.13952">
        <ele>85.4</ele>
        <time>2026-02-02T14:06:24Z</time>
      </trkpt>
      <trkpt lat="48.57675" lon="2.13948">
        <ele>86</ele>
        <time>2026-02-02T14:06:25Z</time>
      </trkpt>
      <trkpt lat="48.57681" lon="2.13945">
        <ele>86</ele>
        <time>2026-02-02T14:06:26Z</time>
      </trkpt>
      <trkpt lat="48.57687" lon="2.13942">
        <ele>86</ele>
        <time>2026-02-02T14:06:27Z</time>
      </trkpt>
      <trkpt lat="48.57693" lon="2.13939">
        <ele>86.2</ele>
        <time>2026-02-02T14:06:28Z</time>
      </trkpt>
      <trkpt lat="48.57699" lon="2.13937">
        <ele>86.4</ele>
        <time>2026-02-02T14:06:29Z</time>
      </trkpt>
      <trkpt lat="48.57705" lon="2.13935">
        <ele>86.4</ele>
        <time>2026-02-02T14:06:30Z</time>
      </trkpt>
      <trkpt lat="48.57711" lon="2.13936">
        <ele>86.4</ele>
        <time>2026-02-02T14:06:31Z</time>
      </trkpt>
      <trkpt lat="48.57717" lon="2.13937">
        <ele>86.2</ele>
        <time>2026-02-02T14:06:32Z</time>
      </trkpt>
      <trkpt lat="48.57722" lon="2.1394">
        <ele>86.6</ele>
        <time>2026-02-02T14:06:33Z</time>
      </trkpt>
      <trkpt lat="48.57727" lon="2.13943">
        <ele>86.6</ele>
        <time>2026-02-02T14:06:34Z</time>
      </trkpt>
      <trkpt lat="48.57732" lon="2.13946">
        <ele>86.6</ele>
        <time>2026-02-02T14:06:35Z</time>
      </trkpt>
      <trkpt lat="48.57736" lon="2.13949">
        <ele>86.6</ele>
        <time>2026-02-02T14:06:36Z</time>
      </trkpt>
      <trkpt lat="48.57741" lon="2.13951">
        <ele>87.2</ele>
        <time>2026-02-02T14:06:37Z</time>
      </trkpt>
      <trkpt lat="48.57745" lon="2.13951">
        <ele>87.2</ele>
        <time>2026-02-02T14:06:38Z</time>
      </trkpt>
      <trkpt lat="48.5775" lon="2.1395">
        <ele>87.2</ele>
        <time>2026-02-02T14:06:39Z</time>
      </trkpt>
      <trkpt lat="48.57755" lon="2.13947">
        <ele>87.2</ele>
        <time>2026-02-02T14:06:40Z</time>
      </trkpt>
      <trkpt lat="48.57759" lon="2.13942">
        <ele>87</ele>
        <time>2026-02-02T14:06:41Z</time>
      </trkpt>
      <trkpt lat="48.57761" lon="2.13935">
        <ele>87</ele>
        <time>2026-02-02T14:06:42Z</time>
      </trkpt>
      <trkpt lat="48.57762" lon="2.13928">
        <ele>87</ele>
        <time>2026-02-02T14:06:43Z</time>
      </trkpt>
      <trkpt lat="48.57761" lon="2.1392">
        <ele>87</ele>
        <time>2026-02-02T14:06:44Z</time>
      </trkpt>
      <trkpt lat="48.57759" lon="2.13913">
        <ele>87</ele>
        <time>2026-02-02T14:06:45Z</time>
      </trkpt>
      <trkpt lat="48.57756" lon="2.13906">
        <ele>87</ele>
        <time>2026-02-02T14:06:46Z</time>
      </trkpt>
      <trkpt lat="48.57753" lon="2.13898">
        <ele>87</ele>
        <time>2026-02-02T14:06:47Z</time>
      </trkpt>
      <trkpt lat="48.57749" lon="2.13891">
        <ele>86.6</ele>
        <time>2026-02-02T14:06:48Z</time>
      </trkpt>
      <trkpt lat="48.57746" lon="2.13883">
        <ele>86.2</ele>
        <time>2026-02-02T14:06:49Z</time>
      </trkpt>
      <trkpt lat="48.57743" lon="2.13874">
        <ele>86.2</ele>
        <time>2026-02-02T14:06:50Z</time>
      </trkpt>
      <trkpt lat="48.57741" lon="2.13865">
        <ele>86.2</ele>
        <time>2026-02-02T14:06:51Z</time>
      </trkpt>
      <trkpt lat="48.57739" lon="2.13856">
        <ele>87.2</ele>
        <time>2026-02-02T14:06:52Z</time>
      </trkpt>
      <trkpt lat="48.57737" lon="2.13847">
        <ele>86.8</ele>
        <time>2026-02-02T14:06:53Z</time>
      </trkpt>
      <trkpt lat="48.57735" lon="2.13837">
        <ele>86.8</ele>
        <time>2026-02-02T14:06:54Z</time>
      </trkpt>
      <trkpt lat="48.57734" lon="2.13827">
        <ele>86.8</ele>
        <time>2026-02-02T14:06:55Z</time>
      </trkpt>
      <trkpt lat="48.57733" lon="2.13818">
        <ele>86.8</ele>
        <time>2026-02-02T14:06:56Z</time>
      </trkpt>
      <trkpt lat="48.57732" lon="2.13808">
        <ele>86.8</ele>
        <time>2026-02-02T14:06:57Z</time>
      </trkpt>
      <trkpt lat="48.57732" lon="2.13798">
        <ele>86.8</ele>
        <time>2026-02-02T14:06:58Z</time>
      </trkpt>
      <trkpt lat="48.57732" lon="2.13788">
        <ele>86.8</ele>
        <time>2026-02-02T14:06:59Z</time>
      </trkpt>
      <trkpt lat="48.57731" lon="2.13779">
        <ele>86.6</ele>
        <time>2026-02-02T14:07:00Z</time>
      </trkpt>
      <trkpt lat="48.57731" lon="2.13769">
        <ele>86.8</ele>
        <time>2026-02-02T14:07:01Z</time>
      </trkpt>
      <trkpt lat="48.57731" lon="2.13759">
        <ele>86.8</ele>
        <time>2026-02-02T14:07:02Z</time>
      </trkpt>
      <trkpt lat="48.57731" lon="2.13749">
        <ele>86.8</ele>
        <time>2026-02-02T14:07:03Z</time>
      </trkpt>
      <trkpt lat="48.57731" lon="2.13739">
        <ele>86.6</ele>
        <time>2026-02-02T14:07:04Z</time>
      </trkpt>
      <trkpt lat="48.57731" lon="2.13729">
        <ele>87</ele>
        <time>2026-02-02T14:07:05Z</time>
      </trkpt>
      <trkpt lat="48.5773" lon="2.13719">
        <ele>87</ele>
        <time>2026-02-02T14:07:06Z</time>
      </trkpt>
      <trkpt lat="48.5773" lon="2.13709">
        <ele>87</ele>
        <time>2026-02-02T14:07:07Z</time>
      </trkpt>
      <trkpt lat="48.5773" lon="2.13699">
        <ele>86.6</ele>
        <time>2026-02-02T14:07:08Z</time>
      </trkpt>
      <trkpt lat="48.5773" lon="2.13689">
        <ele>86.6</ele>
        <time>2026-02-02T14:07:09Z</time>
      </trkpt>
      <trkpt lat="48.5773" lon="2.13679">
        <ele>86.6</ele>
        <time>2026-02-02T14:07:10Z</time>
      </trkpt>
      <trkpt lat="48.5773" lon="2.13668">
        <ele>86.6</ele>
        <time>2026-02-02T14:07:11Z</time>
      </trkpt>
      <trkpt lat="48.57729" lon="2.13658">
        <ele>86.2</ele>
        <time>2026-02-02T14:07:12Z</time>
      </trkpt>
      <trkpt lat="48.57729" lon="2.13648">
        <ele>86.6</ele>
        <time>2026-02-02T14:07:13Z</time>
      </trkpt>
      <trkpt lat="48.57729" lon="2.13637">
        <ele>86.6</ele>
        <time>2026-02-02T14:07:14Z</time>
      </trkpt>
      <trkpt lat="48.57729" lon="2.13627">
        <ele>86.6</ele>
        <time>2026-02-02T14:07:15Z</time>
      </trkpt>
      <trkpt lat="48.57729" lon="2.13617">
        <ele>86.4</ele>
        <time>2026-02-02T14:07:16Z</time>
      </trkpt>
      <trkpt lat="48.57729" lon="2.13606">
        <ele>86.4</ele>
        <time>2026-02-02T14:07:17Z</time>
      </trkpt>
      <trkpt lat="48.57728" lon="2.13596">
        <ele>86.4</ele>
        <time>2026-02-02T14:07:18Z</time>
      </trkpt>
      <trkpt lat="48.57728" lon="2.13586">
        <ele>86.4</ele>
        <time>2026-02-02T14:07:19Z</time>
      </trkpt>
      <trkpt lat="48.57728" lon="2.13576">
        <ele>86.4</ele>
        <time>2026-02-02T14:07:20Z</time>
      </trkpt>
      <trkpt lat="48.57728" lon="2.13566">
        <ele>86</ele>
        <time>2026-02-02T14:07:21Z</time>
      </trkpt>
      <trkpt lat="48.57727" lon="2.13556">
        <ele>86</ele>
        <time>2026-02-02T14:07:22Z</time>
      </trkpt>
      <trkpt lat="48.57727" lon="2.13545">
        <ele>86</ele>
        <time>2026-02-02T14:07:23Z</time>
      </trkpt>
      <trkpt lat="48.57727" lon="2.13535">
        <ele>86.4</ele>
        <time>2026-02-02T14:07:24Z</time>
      </trkpt>
      <trkpt lat="48.57727" lon="2.13525">
        <ele>86.6</ele>
        <time>2026-02-02T14:07:25Z</time>
      </trkpt>
      <trkpt lat="48.57727" lon="2.13515">
        <ele>86.6</ele>
        <time>2026-02-02T14:07:26Z</time>
      </trkpt>
      <trkpt lat="48.57727" lon="2.13505">
        <ele>86.6</ele>
        <time>2026-02-02T14:07:27Z</time>
      </trkpt>
      <trkpt lat="48.57726" lon="2.13495">
        <ele>86.6</ele>
        <time>2026-02-02T14:07:28Z</time>
      </trkpt>
      <trkpt lat="48.57726" lon="2.13485">
        <ele>86.8</ele>
        <time>2026-02-02T14:07:29Z</time>
      </trkpt>
      <trkpt lat="48.57726" lon="2.13475">
        <ele>86.8</ele>
        <time>2026-02-02T14:07:30Z</time>
      </trkpt>
      <trkpt lat="48.57726" lon="2.13465">
        <ele>86.8</ele>
        <time>2026-02-02T14:07:31Z</time>
      </trkpt>
      <trkpt lat="48.57726" lon="2.13455">
        <ele>86.8</ele>
        <time>2026-02-02T14:07:32Z</time>
      </trkpt>
      <trkpt lat="48.57725" lon="2.13445">
        <ele>86.6</ele>
        <time>2026-02-02T14:07:33Z</time>
      </trkpt>
      <trkpt lat="48.57725" lon="2.13435">
        <ele>86.6</ele>
        <time>2026-02-02T14:07:34Z</time>
      </trkpt>
      <trkpt lat="48.57725" lon="2.13425">
        <ele>86.6</ele>
        <time>2026-02-02T14:07:35Z</time>
      </trkpt>
      <trkpt lat="48.57725" lon="2.13415">
        <ele>87</ele>
        <time>2026-02-02T14:07:36Z</time>
      </trkpt>
      <trkpt lat="48.57725" lon="2.13406">
        <ele>87.2</ele>
        <time>2026-02-02T14:07:37Z</time>
      </trkpt>
      <trkpt lat="48.57725" lon="2.13396">
        <ele>87.2</ele>
        <time>2026-02-02T14:07:38Z</time>
      </trkpt>
      <trkpt lat="48.57725" lon="2.13386">
        <ele>87.2</ele>
        <time>2026-02-02T14:07:39Z</time>
      </trkpt>
      <trkpt lat="48.57724" lon="2.13376">
        <ele>87.2</ele>
        <time>2026-02-02T14:07:40Z</time>
      </trkpt>
      <trkpt lat="48.57724" lon="2.13367">
        <ele>87.6</ele>
        <time>2026-02-02T14:07:41Z</time>
      </trkpt>
      <trkpt lat="48.57724" lon="2.13357">
        <ele>87.6</ele>
        <time>2026-02-02T14:07:42Z</time>
      </trkpt>
      <trkpt lat="48.57723" lon="2.13347">
        <ele>87.6</ele>
        <time>2026-02-02T14:07:43Z</time>
      </trkpt>
      <trkpt lat="48.57723" lon="2.13337">
        <ele>87.2</ele>
        <time>2026-02-02T14:07:44Z</time>
      </trkpt>
      <trkpt lat="48.57723" lon="2.13327">
        <ele>87.6</ele>
        <time>2026-02-02T14:07:45Z</time>
      </trkpt>
      <trkpt lat="48.57722" lon="2.13318">
        <ele>87.6</ele>
        <time>2026-02-02T14:07:46Z</time>
      </trkpt>
      <trkpt lat="48.57722" lon="2.13308">
        <ele>87.6</ele>
        <time>2026-02-02T14:07:47Z</time>
      </trkpt>
      <trkpt lat="48.57721" lon="2.13299">
        <ele>87.6</ele>
        <time>2026-02-02T14:07:48Z</time>
      </trkpt>
      <trkpt lat="48.57721" lon="2.1329">
        <ele>87.6</ele>
        <time>2026-02-02T14:07:49Z</time>
      </trkpt>
      <trkpt lat="48.5772" lon="2.1328">
        <ele>87.6</ele>
        <time>2026-02-02T14:07:50Z</time>
      </trkpt>
      <trkpt lat="48.5772" lon="2.1327">
        <ele>87.6</ele>
        <time>2026-02-02T14:07:51Z</time>
      </trkpt>
      <trkpt lat="48.57719" lon="2.13261">
        <ele>87.6</ele>
        <time>2026-02-02T14:07:52Z</time>
      </trkpt>
      <trkpt lat="48.57718" lon="2.13251">
        <ele>87.6</ele>
        <time>2026-02-02T14:07:53Z</time>
      </trkpt>
      <trkpt lat="48.57718" lon="2.13242">
        <ele>87.6</ele>
        <time>2026-02-02T14:07:54Z</time>
      </trkpt>
      <trkpt lat="48.57717" lon="2.13232">
        <ele>87.6</ele>
        <time>2026-02-02T14:07:55Z</time>
      </trkpt>
      <trkpt lat="48.57717" lon="2.13223">
        <ele>87.6</ele>
        <time>2026-02-02T14:07:56Z</time>
      </trkpt>
      <trkpt lat="48.57716" lon="2.13213">
        <ele>87.8</ele>
        <time>2026-02-02T14:07:57Z</time>
      </trkpt>
      <trkpt lat="48.57715" lon="2.13204">
        <ele>87.8</ele>
        <time>2026-02-02T14:07:58Z</time>
      </trkpt>
      <trkpt lat="48.57715" lon="2.13194">
        <ele>87.8</ele>
        <time>2026-02-02T14:07:59Z</time>
      </trkpt>
      <trkpt lat="48.57714" lon="2.13184">
        <ele>88</ele>
        <time>2026-02-02T14:08:00Z</time>
      </trkpt>
      <trkpt lat="48.57713" lon="2.13175">
        <ele>88</ele>
        <time>2026-02-02T14:08:01Z</time>
      </trkpt>
      <trkpt lat="48.57713" lon="2.13165">
        <ele>88</ele>
        <time>2026-02-02T14:08:02Z</time>
      </trkpt>
      <trkpt lat="48.57712" lon="2.13156">
        <ele>88</ele>
        <time>2026-02-02T14:08:03Z</time>
      </trkpt>
      <trkpt lat="48.57711" lon="2.13146">
        <ele>88</ele>
        <time>2026-02-02T14:08:04Z</time>
      </trkpt>
      <trkpt lat="48.57711" lon="2.13137">
        <ele>88.4</ele>
        <time>2026-02-02T14:08:05Z</time>
      </trkpt>
      <trkpt lat="48.5771" lon="2.13127">
        <ele>88.4</ele>
        <time>2026-02-02T14:08:06Z</time>
      </trkpt>
      <trkpt lat="48.57709" lon="2.13118">
        <ele>88.4</ele>
        <time>2026-02-02T14:08:07Z</time>
      </trkpt>
      <trkpt lat="48.57709" lon="2.13109">
        <ele>88.4</ele>
        <time>2026-02-02T14:08:08Z</time>
      </trkpt>
      <trkpt lat="48.57708" lon="2.13099">
        <ele>88</ele>
        <time>2026-02-02T14:08:09Z</time>
      </trkpt>
      <trkpt lat="48.57707" lon="2.1309">
        <ele>88</ele>
        <time>2026-02-02T14:08:10Z</time>
      </trkpt>
      <trkpt lat="48.57707" lon="2.13081">
        <ele>88</ele>
        <time>2026-02-02T14:08:11Z</time>
      </trkpt>
      <trkpt lat="48.57706" lon="2.13072">
        <ele>88</ele>
        <time>2026-02-02T14:08:12Z</time>
      </trkpt>
      <trkpt lat="48.57706" lon="2.13063">
        <ele>88.4</ele>
        <time>2026-02-02T14:08:13Z</time>
      </trkpt>
      <trkpt lat="48.57705" lon="2.13054">
        <ele>88.4</ele>
        <time>2026-02-02T14:08:14Z</time>
      </trkpt>
      <trkpt lat="48.57705" lon="2.13045">
        <ele>88.4</ele>
        <time>2026-02-02T14:08:15Z</time>
      </trkpt>
      <trkpt lat="48.57704" lon="2.13036">
        <ele>88.4</ele>
        <time>2026-02-02T14:08:16Z</time>
      </trkpt>
      <trkpt lat="48.57703" lon="2.13026">
        <ele>89.2</ele>
        <time>2026-02-02T14:08:17Z</time>
      </trkpt>
      <trkpt lat="48.57703" lon="2.13017">
        <ele>89.2</ele>
        <time>2026-02-02T14:08:18Z</time>
      </trkpt>
      <trkpt lat="48.57702" lon="2.13008">
        <ele>89.2</ele>
        <time>2026-02-02T14:08:19Z</time>
      </trkpt>
      <trkpt lat="48.57701" lon="2.12999">
        <ele>88.6</ele>
        <time>2026-02-02T14:08:20Z</time>
      </trkpt>
      <trkpt lat="48.57701" lon="2.1299">
        <ele>88.8</ele>
        <time>2026-02-02T14:08:21Z</time>
      </trkpt>
      <trkpt lat="48.577" lon="2.12981">
        <ele>88.8</ele>
        <time>2026-02-02T14:08:22Z</time>
      </trkpt>
      <trkpt lat="48.57699" lon="2.12972">
        <ele>88.8</ele>
        <time>2026-02-02T14:08:23Z</time>
      </trkpt>
      <trkpt lat="48.57699" lon="2.12963">
        <ele>88.8</ele>
        <time>2026-02-02T14:08:24Z</time>
      </trkpt>
      <trkpt lat="48.57698" lon="2.12954">
        <ele>88.8</ele>
        <time>2026-02-02T14:08:25Z</time>
      </trkpt>
      <trkpt lat="48.57698" lon="2.12945">
        <ele>88.8</ele>
        <time>2026-02-02T14:08:26Z</time>
      </trkpt>
      <trkpt lat="48.57697" lon="2.12936">
        <ele>88.8</ele>
        <time>2026-02-02T14:08:27Z</time>
      </trkpt>
      <trkpt lat="48.57696" lon="2.12927">
        <ele>89.4</ele>
        <time>2026-02-02T14:08:28Z</time>
      </trkpt>
      <trkpt lat="48.57696" lon="2.12918">
        <ele>89.8</ele>
        <time>2026-02-02T14:08:29Z</time>
      </trkpt>
      <trkpt lat="48.57695" lon="2.12909">
        <ele>89.8</ele>
        <time>2026-02-02T14:08:30Z</time>
      </trkpt>
      <trkpt lat="48.57695" lon="2.12899">
        <ele>89.8</ele>
        <time>2026-02-02T14:08:31Z</time>
      </trkpt>
      <trkpt lat="48.57694" lon="2.1289">
        <ele>89.8</ele>
        <time>2026-02-02T14:08:32Z</time>
      </trkpt>
      <trkpt lat="48.57693" lon="2.12881">
        <ele>89.6</ele>
        <time>2026-02-02T14:08:33Z</time>
      </trkpt>
      <trkpt lat="48.57693" lon="2.12872">
        <ele>89.6</ele>
        <time>2026-02-02T14:08:34Z</time>
      </trkpt>
      <trkpt lat="48.57692" lon="2.12863">
        <ele>89.6</ele>
        <time>2026-02-02T14:08:35Z</time>
      </trkpt>
      <trkpt lat="48.57691" lon="2.12854">
        <ele>90.6</ele>
        <time>2026-02-02T14:08:36Z</time>
      </trkpt>
      <trkpt lat="48.57691" lon="2.12844">
        <ele>90</ele>
        <time>2026-02-02T14:08:37Z</time>
      </trkpt>
      <trkpt lat="48.5769" lon="2.12835">
        <ele>90</ele>
        <time>2026-02-02T14:08:38Z</time>
      </trkpt>
      <trkpt lat="48.5769" lon="2.12826">
        <ele>90</ele>
        <time>2026-02-02T14:08:39Z</time>
      </trkpt>
      <trkpt lat="48.57689" lon="2.12817">
        <ele>91</ele>
        <time>2026-02-02T14:08:40Z</time>
      </trkpt>
      <trkpt lat="48.57688" lon="2.12807">
        <ele>91.2</ele>
        <time>2026-02-02T14:08:41Z</time>
      </trkpt>
      <trkpt lat="48.57687" lon="2.12798">
        <ele>91.2</ele>
        <time>2026-02-02T14:08:42Z</time>
      </trkpt>
      <trkpt lat="48.57687" lon="2.12789">
        <ele>91.2</ele>
        <time>2026-02-02T14:08:43Z</time>
      </trkpt>
      <trkpt lat="48.57686" lon="2.12779">
        <ele>91.4</ele>
        <time>2026-02-02T14:08:44Z</time>
      </trkpt>
      <trkpt lat="48.57686" lon="2.1277">
        <ele>91.2</ele>
        <time>2026-02-02T14:08:45Z</time>
      </trkpt>
      <trkpt lat="48.57685" lon="2.12761">
        <ele>91.2</ele>
        <time>2026-02-02T14:08:46Z</time>
      </trkpt>
      <trkpt lat="48.57684" lon="2.12751">
        <ele>91.2</ele>
        <time>2026-02-02T14:08:47Z</time>
      </trkpt>
      <trkpt lat="48.57684" lon="2.12742">
        <ele>91.2</ele>
        <time>2026-02-02T14:08:48Z</time>
      </trkpt>
      <trkpt lat="48.57683" lon="2.12733">
        <ele>91.6</ele>
        <time>2026-02-02T14:08:49Z</time>
      </trkpt>
      <trkpt lat="48.57682" lon="2.12723">
        <ele>91.6</ele>
        <time>2026-02-02T14:08:50Z</time>
      </trkpt>
      <trkpt lat="48.57682" lon="2.12714">
        <ele>91.6</ele>
        <time>2026-02-02T14:08:51Z</time>
      </trkpt>
      <trkpt lat="48.57681" lon="2.12704">
        <ele>91.6</ele>
        <time>2026-02-02T14:08:52Z</time>
      </trkpt>
      <trkpt lat="48.5768" lon="2.12695">
        <ele>91.4</ele>
        <time>2026-02-02T14:08:53Z</time>
      </trkpt>
      <trkpt lat="48.5768" lon="2.12686">
        <ele>91.4</ele>
        <time>2026-02-02T14:08:54Z</time>
      </trkpt>
      <trkpt lat="48.57679" lon="2.12676">
        <ele>91.4</ele>
        <time>2026-02-02T14:08:55Z</time>
      </trkpt>
      <trkpt lat="48.57679" lon="2.12666">
        <ele>91.4</ele>
        <time>2026-02-02T14:08:56Z</time>
      </trkpt>
      <trkpt lat="48.57678" lon="2.12656">
        <ele>91.4</ele>
        <time>2026-02-02T14:08:57Z</time>
      </trkpt>
      <trkpt lat="48.57678" lon="2.12646">
        <ele>91.4</ele>
        <time>2026-02-02T14:08:58Z</time>
      </trkpt>
      <trkpt lat="48.57677" lon="2.12636">
        <ele>91.4</ele>
        <time>2026-02-02T14:08:59Z</time>
      </trkpt>
      <trkpt lat="48.57675" lon="2.12626">
        <ele>91.4</ele>
        <time>2026-02-02T14:09:00Z</time>
      </trkpt>
      <trkpt lat="48.57674" lon="2.12616">
        <ele>90.8</ele>
        <time>2026-02-02T14:09:01Z</time>
      </trkpt>
      <trkpt lat="48.57673" lon="2.12606">
        <ele>90.8</ele>
        <time>2026-02-02T14:09:02Z</time>
      </trkpt>
      <trkpt lat="48.57672" lon="2.12596">
        <ele>90.8</ele>
        <time>2026-02-02T14:09:03Z</time>
      </trkpt>
      <trkpt lat="48.57671" lon="2.12585">
        <ele>91.2</ele>
        <time>2026-02-02T14:09:04Z</time>
      </trkpt>
      <trkpt lat="48.57669" lon="2.12575">
        <ele>91</ele>
        <time>2026-02-02T14:09:05Z</time>
      </trkpt>
      <trkpt lat="48.57667" lon="2.12565">
        <ele>91</ele>
        <time>2026-02-02T14:09:06Z</time>
      </trkpt>
      <trkpt lat="48.57665" lon="2.12555">
        <ele>91</ele>
        <time>2026-02-02T14:09:07Z</time>
      </trkpt>
      <trkpt lat="48.57664" lon="2.12545">
        <ele>90.8</ele>
        <time>2026-02-02T14:09:08Z</time>
      </trkpt>
      <trkpt lat="48.57662" lon="2.12535">
        <ele>90.8</ele>
        <time>2026-02-02T14:09:09Z</time>
      </trkpt>
      <trkpt lat="48.5766" lon="2.12525">
        <ele>90.8</ele>
        <time>2026-02-02T14:09:10Z</time>
      </trkpt>
      <trkpt lat="48.57658" lon="2.12514">
        <ele>90.8</ele>
        <time>2026-02-02T14:09:11Z</time>
      </trkpt>
      <trkpt lat="48.57656" lon="2.12504">
        <ele>91.2</ele>
        <time>2026-02-02T14:09:12Z</time>
      </trkpt>
      <trkpt lat="48.57654" lon="2.12493">
        <ele>91</ele>
        <time>2026-02-02T14:09:13Z</time>
      </trkpt>
      <trkpt lat="48.57652" lon="2.12483">
        <ele>91</ele>
        <time>2026-02-02T14:09:14Z</time>
      </trkpt>
      <trkpt lat="48.5765" lon="2.12473">
        <ele>91</ele>
        <time>2026-02-02T14:09:15Z</time>
      </trkpt>
      <trkpt lat="48.57648" lon="2.12462">
        <ele>91</ele>
        <time>2026-02-02T14:09:16Z</time>
      </trkpt>
      <trkpt lat="48.57645" lon="2.12451">
        <ele>90</ele>
        <time>2026-02-02T14:09:17Z</time>
      </trkpt>
      <trkpt lat="48.57643" lon="2.1244">
        <ele>90</ele>
        <time>2026-02-02T14:09:18Z</time>
      </trkpt>
      <trkpt lat="48.57641" lon="2.12429">
        <ele>90</ele>
        <time>2026-02-02T14:09:19Z</time>
      </trkpt>
      <trkpt lat="48.57639" lon="2.12418">
        <ele>90</ele>
        <time>2026-02-02T14:09:20Z</time>
      </trkpt>
      <trkpt lat="48.57637" lon="2.12407">
        <ele>90</ele>
        <time>2026-02-02T14:09:21Z</time>
      </trkpt>
      <trkpt lat="48.57636" lon="2.12396">
        <ele>90</ele>
        <time>2026-02-02T14:09:22Z</time>
      </trkpt>
      <trkpt lat="48.57634" lon="2.12384">
        <ele>90</ele>
        <time>2026-02-02T14:09:23Z</time>
      </trkpt>
      <trkpt lat="48.57632" lon="2.12373">
        <ele>90</ele>
        <time>2026-02-02T14:09:24Z</time>
      </trkpt>
      <trkpt lat="48.57631" lon="2.12362">
        <ele>89.4</ele>
        <time>2026-02-02T14:09:25Z</time>
      </trkpt>
      <trkpt lat="48.57629" lon="2.12351">
        <ele>89.4</ele>
        <time>2026-02-02T14:09:26Z</time>
      </trkpt>
      <trkpt lat="48.57627" lon="2.12341">
        <ele>89.4</ele>
        <time>2026-02-02T14:09:27Z</time>
      </trkpt>
      <trkpt lat="48.57626" lon="2.1233">
        <ele>89.6</ele>
        <time>2026-02-02T14:09:28Z</time>
      </trkpt>
      <trkpt lat="48.57624" lon="2.12319">
        <ele>89.6</ele>
        <time>2026-02-02T14:09:29Z</time>
      </trkpt>
      <trkpt lat="48.57622" lon="2.12309">
        <ele>89.6</ele>
        <time>2026-02-02T14:09:30Z</time>
      </trkpt>
      <trkpt lat="48.57621" lon="2.12299">
        <ele>89.6</ele>
        <time>2026-02-02T14:09:31Z</time>
      </trkpt>
      <trkpt lat="48.57619" lon="2.12288">
        <ele>89.6</ele>
        <time>2026-02-02T14:09:32Z</time>
      </trkpt>
      <trkpt lat="48.57618" lon="2.12278">
        <ele>90</ele>
        <time>2026-02-02T14:09:33Z</time>
      </trkpt>
      <trkpt lat="48.57617" lon="2.12268">
        <ele>90</ele>
        <time>2026-02-02T14:09:34Z</time>
      </trkpt>
      <trkpt lat="48.57615" lon="2.12258">
        <ele>90</ele>
        <time>2026-02-02T14:09:35Z</time>
      </trkpt>
      <trkpt lat="48.57614" lon="2.12248">
        <ele>90</ele>
        <time>2026-02-02T14:09:36Z</time>
      </trkpt>
      <trkpt lat="48.57613" lon="2.12238">
        <ele>90.2</ele>
        <time>2026-02-02T14:09:37Z</time>
      </trkpt>
      <trkpt lat="48.57611" lon="2.12228">
        <ele>90.2</ele>
        <time>2026-02-02T14:09:38Z</time>
      </trkpt>
      <trkpt lat="48.5761" lon="2.12218">
        <ele>90.2</ele>
        <time>2026-02-02T14:09:39Z</time>
      </trkpt>
      <trkpt lat="48.57609" lon="2.12209">
        <ele>90.4</ele>
        <time>2026-02-02T14:09:40Z</time>
      </trkpt>
      <trkpt lat="48.57608" lon="2.12199">
        <ele>90.6</ele>
        <time>2026-02-02T14:09:41Z</time>
      </trkpt>
      <trkpt lat="48.57606" lon="2.12189">
        <ele>90.6</ele>
        <time>2026-02-02T14:09:42Z</time>
      </trkpt>
      <trkpt lat="48.57605" lon="2.12179">
        <ele>90.6</ele>
        <time>2026-02-02T14:09:43Z</time>
      </trkpt>
      <trkpt lat="48.57604" lon="2.12169">
        <ele>90.6</ele>
        <time>2026-02-02T14:09:44Z</time>
      </trkpt>
      <trkpt lat="48.57603" lon="2.12159">
        <ele>91.2</ele>
        <time>2026-02-02T14:09:45Z</time>
      </trkpt>
      <trkpt lat="48.57601" lon="2.12149">
        <ele>91.2</ele>
        <time>2026-02-02T14:09:46Z</time>
      </trkpt>
      <trkpt lat="48.576" lon="2.1214">
        <ele>91.2</ele>
        <time>2026-02-02T14:09:47Z</time>
      </trkpt>
      <trkpt lat="48.57599" lon="2.1213">
        <ele>91</ele>
        <time>2026-02-02T14:09:48Z</time>
      </trkpt>
      <trkpt lat="48.57598" lon="2.12121">
        <ele>91.4</ele>
        <time>2026-02-02T14:09:49Z</time>
      </trkpt>
      <trkpt lat="48.57597" lon="2.12112">
        <ele>91.4</ele>
        <time>2026-02-02T14:09:50Z</time>
      </trkpt>
      <trkpt lat="48.57596" lon="2.12103">
        <ele>91.4</ele>
        <time>2026-02-02T14:09:51Z</time>
      </trkpt>
      <trkpt lat="48.57595" lon="2.12094">
        <ele>91.4</ele>
        <time>2026-02-02T14:09:52Z</time>
      </trkpt>
      <trkpt lat="48.57595" lon="2.12086">
        <ele>91.8</ele>
        <time>2026-02-02T14:09:53Z</time>
      </trkpt>
      <trkpt lat="48.57594" lon="2.12078">
        <ele>91.8</ele>
        <time>2026-02-02T14:09:54Z</time>
      </trkpt>
      <trkpt lat="48.57593" lon="2.12071">
        <ele>91.8</ele>
        <time>2026-02-02T14:09:55Z</time>
      </trkpt>
      <trkpt lat="48.57592" lon="2.12062">
        <ele>92.4</ele>
        <time>2026-02-02T14:09:56Z</time>
      </trkpt>
      <trkpt lat="48.57591" lon="2.12054">
        <ele>92.8</ele>
        <time>2026-02-02T14:09:57Z</time>
      </trkpt>
      <trkpt lat="48.5759" lon="2.12046">
        <ele>92.8</ele>
        <time>2026-02-02T14:09:58Z</time>
      </trkpt>
      <trkpt lat="48.57589" lon="2.12037">
        <ele>92.8</ele>
        <time>2026-02-02T14:09:59Z</time>
      </trkpt>
      <trkpt lat="48.57588" lon="2.12028">
        <ele>92.8</ele>
        <time>2026-02-02T14:10:00Z</time>
      </trkpt>
      <trkpt lat="48.57587" lon="2.1202">
        <ele>93.4</ele>
        <time>2026-02-02T14:10:01Z</time>
      </trkpt>
      <trkpt lat="48.57586" lon="2.12012">
        <ele>93.4</ele>
        <time>2026-02-02T14:10:02Z</time>
      </trkpt>
      <trkpt lat="48.57585" lon="2.12003">
        <ele>93.4</ele>
        <time>2026-02-02T14:10:03Z</time>
      </trkpt>
      <trkpt lat="48.57584" lon="2.11995">
        <ele>93.4</ele>
        <time>2026-02-02T14:10:04Z</time>
      </trkpt>
      <trkpt lat="48.57583" lon="2.11986">
        <ele>93.6</ele>
        <time>2026-02-02T14:10:05Z</time>
      </trkpt>
      <trkpt lat="48.57582" lon="2.11978">
        <ele>93.6</ele>
        <time>2026-02-02T14:10:06Z</time>
      </trkpt>
      <trkpt lat="48.57581" lon="2.11969">
        <ele>93.6</ele>
        <time>2026-02-02T14:10:07Z</time>
      </trkpt>
      <trkpt lat="48.5758" lon="2.11961">
        <ele>93.6</ele>
        <time>2026-02-02T14:10:08Z</time>
      </trkpt>
      <trkpt lat="48.57579" lon="2.11952">
        <ele>93.6</ele>
        <time>2026-02-02T14:10:09Z</time>
      </trkpt>
      <trkpt lat="48.57578" lon="2.11943">
        <ele>93.6</ele>
        <time>2026-02-02T14:10:10Z</time>
      </trkpt>
      <trkpt lat="48.57577" lon="2.11934">
        <ele>93.6</ele>
        <time>2026-02-02T14:10:11Z</time>
      </trkpt>
      <trkpt lat="48.57576" lon="2.11926">
        <ele>93.8</ele>
        <time>2026-02-02T14:10:12Z</time>
      </trkpt>
      <trkpt lat="48.57575" lon="2.11917">
        <ele>94</ele>
        <time>2026-02-02T14:10:13Z</time>
      </trkpt>
      <trkpt lat="48.57573" lon="2.11908">
        <ele>94</ele>
        <time>2026-02-02T14:10:14Z</time>
      </trkpt>
      <trkpt lat="48.57572" lon="2.11899">
        <ele>94</ele>
        <time>2026-02-02T14:10:15Z</time>
      </trkpt>
      <trkpt lat="48.57571" lon="2.1189">
        <ele>93.4</ele>
        <time>2026-02-02T14:10:16Z</time>
      </trkpt>
      <trkpt lat="48.5757" lon="2.1188">
        <ele>93.6</ele>
        <time>2026-02-02T14:10:17Z</time>
      </trkpt>
      <trkpt lat="48.57569" lon="2.11871">
        <ele>93.6</ele>
        <time>2026-02-02T14:10:18Z</time>
      </trkpt>
      <trkpt lat="48.57567" lon="2.11862">
        <ele>93.6</ele>
        <time>2026-02-02T14:10:19Z</time>
      </trkpt>
      <trkpt lat="48.57566" lon="2.11852">
        <ele>94.6</ele>
        <time>2026-02-02T14:10:20Z</time>
      </trkpt>
      <trkpt lat="48.57565" lon="2.11843">
        <ele>94.4</ele>
        <time>2026-02-02T14:10:21Z</time>
      </trkpt>
      <trkpt lat="48.57564" lon="2.11833">
        <ele>94.4</ele>
        <time>2026-02-02T14:10:22Z</time>
      </trkpt>
      <trkpt lat="48.57563" lon="2.11823">
        <ele>94.4</ele>
        <time>2026-02-02T14:10:23Z</time>
      </trkpt>
      <trkpt lat="48.57562" lon="2.11814">
        <ele>94.4</ele>
        <time>2026-02-02T14:10:24Z</time>
      </trkpt>
      <trkpt lat="48.57561" lon="2.11804">
        <ele>94.4</ele>
        <time>2026-02-02T14:10:25Z</time>
      </trkpt>
      <trkpt lat="48.57559" lon="2.11795">
        <ele>94.4</ele>
        <time>2026-02-02T14:10:26Z</time>
      </trkpt>
      <trkpt lat="48.57558" lon="2.11785">
        <ele>94.4</ele>
        <time>2026-02-02T14:10:27Z</time>
      </trkpt>
      <trkpt lat="48.57557" lon="2.11776">
        <ele>94.4</ele>
        <time>2026-02-02T14:10:28Z</time>
      </trkpt>
      <trkpt lat="48.57556" lon="2.11766">
        <ele>94.8</ele>
        <time>2026-02-02T14:10:29Z</time>
      </trkpt>
      <trkpt lat="48.57555" lon="2.11757">
        <ele>94.8</ele>
        <time>2026-02-02T14:10:30Z</time>
      </trkpt>
      <trkpt lat="48.57554" lon="2.11747">
        <ele>94.8</ele>
        <time>2026-02-02T14:10:31Z</time>
      </trkpt>
      <trkpt lat="48.57552" lon="2.11737">
        <ele>94.8</ele>
        <time>2026-02-02T14:10:32Z</time>
      </trkpt>
      <trkpt lat="48.57551" lon="2.11728">
        <ele>94</ele>
        <time>2026-02-02T14:10:33Z</time>
      </trkpt>
      <trkpt lat="48.5755" lon="2.11718">
        <ele>94</ele>
        <time>2026-02-02T14:10:34Z</time>
      </trkpt>
      <trkpt lat="48.57549" lon="2.11708">
        <ele>94</ele>
        <time>2026-02-02T14:10:35Z</time>
      </trkpt>
      <trkpt lat="48.57547" lon="2.11698">
        <ele>94</ele>
        <time>2026-02-02T14:10:36Z</time>
      </trkpt>
      <trkpt lat="48.57546" lon="2.11688">
        <ele>93.4</ele>
        <time>2026-02-02T14:10:37Z</time>
      </trkpt>
      <trkpt lat="48.57545" lon="2.11678">
        <ele>93.4</ele>
        <time>2026-02-02T14:10:38Z</time>
      </trkpt>
      <trkpt lat="48.57544" lon="2.11668">
        <ele>93.4</ele>
        <time>2026-02-02T14:10:39Z</time>
      </trkpt>
      <trkpt lat="48.57542" lon="2.11657">
        <ele>93.6</ele>
        <time>2026-02-02T14:10:40Z</time>
      </trkpt>
      <trkpt lat="48.57541" lon="2.11647">
        <ele>93.6</ele>
        <time>2026-02-02T14:10:41Z</time>
      </trkpt>
      <trkpt lat="48.57539" lon="2.11637">
        <ele>93.6</ele>
        <time>2026-02-02T14:10:42Z</time>
      </trkpt>
      <trkpt lat="48.57538" lon="2.11626">
        <ele>93.6</ele>
        <time>2026-02-02T14:10:43Z</time>
      </trkpt>
      <trkpt lat="48.57537" lon="2.11616">
        <ele>93.6</ele>
        <time>2026-02-02T14:10:44Z</time>
      </trkpt>
      <trkpt lat="48.57535" lon="2.11606">
        <ele>93.4</ele>
        <time>2026-02-02T14:10:45Z</time>
      </trkpt>
      <trkpt lat="48.57534" lon="2.11596">
        <ele>93.4</ele>
        <time>2026-02-02T14:10:46Z</time>
      </trkpt>
      <trkpt lat="48.57533" lon="2.11585">
        <ele>93.4</ele>
        <time>2026-02-02T14:10:47Z</time>
      </trkpt>
      <trkpt lat="48.57532" lon="2.11575">
        <ele>93.8</ele>
        <time>2026-02-02T14:10:48Z</time>
      </trkpt>
      <trkpt lat="48.57531" lon="2.11564">
        <ele>93.4</ele>
        <time>2026-02-02T14:10:49Z</time>
      </trkpt>
      <trkpt lat="48.5753" lon="2.11554">
        <ele>93.4</ele>
        <time>2026-02-02T14:10:50Z</time>
      </trkpt>
      <trkpt lat="48.57529" lon="2.11543">
        <ele>93.4</ele>
        <time>2026-02-02T14:10:51Z</time>
      </trkpt>
      <trkpt lat="48.57529" lon="2.11532">
        <ele>93.6</ele>
        <time>2026-02-02T14:10:52Z</time>
      </trkpt>
      <trkpt lat="48.57529" lon="2.11522">
        <ele>93.6</ele>
        <time>2026-02-02T14:10:53Z</time>
      </trkpt>
      <trkpt lat="48.57529" lon="2.11511">
        <ele>93.6</ele>
        <time>2026-02-02T14:10:54Z</time>
      </trkpt>
      <trkpt lat="48.57529" lon="2.115">
        <ele>93.6</ele>
        <time>2026-02-02T14:10:55Z</time>
      </trkpt>
      <trkpt lat="48.57529" lon="2.1149">
        <ele>94.2</ele>
        <time>2026-02-02T14:10:56Z</time>
      </trkpt>
      <trkpt lat="48.5753" lon="2.11479">
        <ele>94</ele>
        <time>2026-02-02T14:10:57Z</time>
      </trkpt>
      <trkpt lat="48.5753" lon="2.11468">
        <ele>94</ele>
        <time>2026-02-02T14:10:58Z</time>
      </trkpt>
      <trkpt lat="48.5753" lon="2.11458">
        <ele>94</ele>
        <time>2026-02-02T14:10:59Z</time>
      </trkpt>
      <trkpt lat="48.5753" lon="2.11447">
        <ele>94</ele>
        <time>2026-02-02T14:11:00Z</time>
      </trkpt>
      <trkpt lat="48.5753" lon="2.11437">
        <ele>94</ele>
        <time>2026-02-02T14:11:01Z</time>
      </trkpt>
      <trkpt lat="48.5753" lon="2.11426">
        <ele>94</ele>
        <time>2026-02-02T14:11:02Z</time>
      </trkpt>
      <trkpt lat="48.57531" lon="2.11416">
        <ele>94</ele>
        <time>2026-02-02T14:11:03Z</time>
      </trkpt>
      <trkpt lat="48.57531" lon="2.11405">
        <ele>94.4</ele>
        <time>2026-02-02T14:11:04Z</time>
      </trkpt>
      <trkpt lat="48.57531" lon="2.11395">
        <ele>95</ele>
        <time>2026-02-02T14:11:05Z</time>
      </trkpt>
      <trkpt lat="48.57531" lon="2.11384">
        <ele>95</ele>
        <time>2026-02-02T14:11:06Z</time>
      </trkpt>
      <trkpt lat="48.57531" lon="2.11374">
        <ele>95</ele>
        <time>2026-02-02T14:11:07Z</time>
      </trkpt>
      <trkpt lat="48.57531" lon="2.11364">
        <ele>95</ele>
        <time>2026-02-02T14:11:08Z</time>
      </trkpt>
      <trkpt lat="48.57531" lon="2.11353">
        <ele>94.6</ele>
        <time>2026-02-02T14:11:09Z</time>
      </trkpt>
      <trkpt lat="48.57531" lon="2.11343">
        <ele>94.6</ele>
        <time>2026-02-02T14:11:10Z</time>
      </trkpt>
      <trkpt lat="48.5753" lon="2.11333">
        <ele>94.6</ele>
        <time>2026-02-02T14:11:11Z</time>
      </trkpt>
      <trkpt lat="48.5753" lon="2.11323">
        <ele>95</ele>
        <time>2026-02-02T14:11:12Z</time>
      </trkpt>
      <trkpt lat="48.57529" lon="2.11313">
        <ele>94.6</ele>
        <time>2026-02-02T14:11:13Z</time>
      </trkpt>
      <trkpt lat="48.57529" lon="2.11302">
        <ele>94.6</ele>
        <time>2026-02-02T14:11:14Z</time>
      </trkpt>
      <trkpt lat="48.57528" lon="2.11292">
        <ele>94.6</ele>
        <time>2026-02-02T14:11:15Z</time>
      </trkpt>
      <trkpt lat="48.57526" lon="2.11282">
        <ele>94.8</ele>
        <time>2026-02-02T14:11:16Z</time>
      </trkpt>
      <trkpt lat="48.57525" lon="2.11271">
        <ele>95.2</ele>
        <time>2026-02-02T14:11:17Z</time>
      </trkpt>
      <trkpt lat="48.57524" lon="2.11262">
        <ele>95.2</ele>
        <time>2026-02-02T14:11:18Z</time>
      </trkpt>
      <trkpt lat="48.57523" lon="2.11252">
        <ele>95.2</ele>
        <time>2026-02-02T14:11:19Z</time>
      </trkpt>
      <trkpt lat="48.57522" lon="2.11244">
        <ele>95.8</ele>
        <time>2026-02-02T14:11:20Z</time>
      </trkpt>
      <trkpt lat="48.57521" lon="2.11234">
        <ele>95.4</ele>
        <time>2026-02-02T14:11:21Z</time>
      </trkpt>
      <trkpt lat="48.5752" lon="2.11226">
        <ele>95.4</ele>
        <time>2026-02-02T14:11:22Z</time>
      </trkpt>
      <trkpt lat="48.57519" lon="2.11217">
        <ele>95.4</ele>
        <time>2026-02-02T14:11:23Z</time>
      </trkpt>
      <trkpt lat="48.57518" lon="2.11208">
        <ele>95.4</ele>
        <time>2026-02-02T14:11:24Z</time>
      </trkpt>
      <trkpt lat="48.57517" lon="2.112">
        <ele>95.8</ele>
        <time>2026-02-02T14:11:25Z</time>
      </trkpt>
      <trkpt lat="48.57515" lon="2.11191">
        <ele>95.8</ele>
        <time>2026-02-02T14:11:26Z</time>
      </trkpt>
      <trkpt lat="48.57514" lon="2.11183">
        <ele>95.8</ele>
        <time>2026-02-02T14:11:27Z</time>
      </trkpt>
      <trkpt lat="48.57513" lon="2.11174">
        <ele>96.6</ele>
        <time>2026-02-02T14:11:28Z</time>
      </trkpt>
      <trkpt lat="48.57512" lon="2.11166">
        <ele>96.6</ele>
        <time>2026-02-02T14:11:29Z</time>
      </trkpt>
      <trkpt lat="48.57512" lon="2.11157">
        <ele>96.6</ele>
        <time>2026-02-02T14:11:30Z</time>
      </trkpt>
      <trkpt lat="48.57511" lon="2.11148">
        <ele>96.6</ele>
        <time>2026-02-02T14:11:31Z</time>
      </trkpt>
      <trkpt lat="48.5751" lon="2.11139">
        <ele>96.6</ele>
        <time>2026-02-02T14:11:32Z</time>
      </trkpt>
      <trkpt lat="48.5751" lon="2.1113">
        <ele>96.6</ele>
        <time>2026-02-02T14:11:33Z</time>
      </trkpt>
      <trkpt lat="48.57509" lon="2.11122">
        <ele>96.6</ele>
        <time>2026-02-02T14:11:34Z</time>
      </trkpt>
      <trkpt lat="48.57509" lon="2.11113">
        <ele>96.6</ele>
        <time>2026-02-02T14:11:35Z</time>
      </trkpt>
      <trkpt lat="48.57508" lon="2.11104">
        <ele>96.6</ele>
        <time>2026-02-02T14:11:36Z</time>
      </trkpt>
      <trkpt lat="48.57508" lon="2.11095">
        <ele>96</ele>
        <time>2026-02-02T14:11:37Z</time>
      </trkpt>
      <trkpt lat="48.57507" lon="2.11086">
        <ele>96</ele>
        <time>2026-02-02T14:11:38Z</time>
      </trkpt>
      <trkpt lat="48.57507" lon="2.11076">
        <ele>96</ele>
        <time>2026-02-02T14:11:39Z</time>
      </trkpt>
      <trkpt lat="48.57506" lon="2.11067">
        <ele>96.2</ele>
        <time>2026-02-02T14:11:40Z</time>
      </trkpt>
      <trkpt lat="48.57506" lon="2.11058">
        <ele>96.2</ele>
        <time>2026-02-02T14:11:41Z</time>
      </trkpt>
      <trkpt lat="48.57506" lon="2.11048">
        <ele>96.2</ele>
        <time>2026-02-02T14:11:42Z</time>
      </trkpt>
      <trkpt lat="48.57506" lon="2.11039">
        <ele>96.2</ele>
        <time>2026-02-02T14:11:43Z</time>
      </trkpt>
      <trkpt lat="48.57507" lon="2.1103">
        <ele>96.2</ele>
        <time>2026-02-02T14:11:44Z</time>
      </trkpt>
      <trkpt lat="48.57508" lon="2.11021">
        <ele>96.4</ele>
        <time>2026-02-02T14:11:45Z</time>
      </trkpt>
      <trkpt lat="48.57508" lon="2.11012">
        <ele>96.4</ele>
        <time>2026-02-02T14:11:46Z</time>
      </trkpt>
      <trkpt lat="48.57509" lon="2.11003">
        <ele>96.4</ele>
        <time>2026-02-02T14:11:47Z</time>
      </trkpt>
      <trkpt lat="48.5751" lon="2.10994">
        <ele>96.4</ele>
        <time>2026-02-02T14:11:48Z</time>
      </trkpt>
      <trkpt lat="48.57511" lon="2.10986">
        <ele>96.8</ele>
        <time>2026-02-02T14:11:49Z</time>
      </trkpt>
      <trkpt lat="48.57512" lon="2.10978">
        <ele>96.8</ele>
        <time>2026-02-02T14:11:50Z</time>
      </trkpt>
      <trkpt lat="48.57513" lon="2.1097">
        <ele>96.8</ele>
        <time>2026-02-02T14:11:51Z</time>
      </trkpt>
      <trkpt lat="48.57515" lon="2.10962">
        <ele>96.8</ele>
        <time>2026-02-02T14:11:52Z</time>
      </trkpt>
      <trkpt lat="48.57516" lon="2.10953">
        <ele>97</ele>
        <time>2026-02-02T14:11:53Z</time>
      </trkpt>
      <trkpt lat="48.57518" lon="2.10944">
        <ele>97</ele>
        <time>2026-02-02T14:11:54Z</time>
      </trkpt>
      <trkpt lat="48.57519" lon="2.10936">
        <ele>97</ele>
        <time>2026-02-02T14:11:55Z</time>
      </trkpt>
      <trkpt lat="48.57521" lon="2.10928">
        <ele>97</ele>
        <time>2026-02-02T14:11:56Z</time>
      </trkpt>
      <trkpt lat="48.57523" lon="2.10918">
        <ele>97.4</ele>
        <time>2026-02-02T14:11:57Z</time>
      </trkpt>
      <trkpt lat="48.57524" lon="2.10909">
        <ele>97.4</ele>
        <time>2026-02-02T14:11:58Z</time>
      </trkpt>
      <trkpt lat="48.57527" lon="2.10901">
        <ele>97.4</ele>
        <time>2026-02-02T14:11:59Z</time>
      </trkpt>
      <trkpt lat="48.57528" lon="2.10892">
        <ele>97.4</ele>
        <time>2026-02-02T14:12:00Z</time>
      </trkpt>
      <trkpt lat="48.5753" lon="2.10882">
        <ele>97.2</ele>
        <time>2026-02-02T14:12:01Z</time>
      </trkpt>
      <trkpt lat="48.57532" lon="2.10872">
        <ele>97.2</ele>
        <time>2026-02-02T14:12:02Z</time>
      </trkpt>
      <trkpt lat="48.57534" lon="2.10863">
        <ele>97.2</ele>
        <time>2026-02-02T14:12:03Z</time>
      </trkpt>
      <trkpt lat="48.57537" lon="2.10853">
        <ele>96.4</ele>
        <time>2026-02-02T14:12:04Z</time>
      </trkpt>
      <trkpt lat="48.57539" lon="2.10844">
        <ele>96</ele>
        <time>2026-02-02T14:12:05Z</time>
      </trkpt>
      <trkpt lat="48.57542" lon="2.10833">
        <ele>96</ele>
        <time>2026-02-02T14:12:06Z</time>
      </trkpt>
      <trkpt lat="48.57545" lon="2.10823">
        <ele>96</ele>
        <time>2026-02-02T14:12:07Z</time>
      </trkpt>
      <trkpt lat="48.57548" lon="2.10813">
        <ele>96</ele>
        <time>2026-02-02T14:12:08Z</time>
      </trkpt>
      <trkpt lat="48.57552" lon="2.10803">
        <ele>96.2</ele>
        <time>2026-02-02T14:12:09Z</time>
      </trkpt>
      <trkpt lat="48.57555" lon="2.10793">
        <ele>96.2</ele>
        <time>2026-02-02T14:12:10Z</time>
      </trkpt>
      <trkpt lat="48.57559" lon="2.10785">
        <ele>96.2</ele>
        <time>2026-02-02T14:12:11Z</time>
      </trkpt>
      <trkpt lat="48.57562" lon="2.10777">
        <ele>95.8</ele>
        <time>2026-02-02T14:12:12Z</time>
      </trkpt>
      <trkpt lat="48.57565" lon="2.10767">
        <ele>95.8</ele>
        <time>2026-02-02T14:12:13Z</time>
      </trkpt>
      <trkpt lat="48.57569" lon="2.10759">
        <ele>95.8</ele>
        <time>2026-02-02T14:12:14Z</time>
      </trkpt>
      <trkpt lat="48.57572" lon="2.10749">
        <ele>95.8</ele>
        <time>2026-02-02T14:12:15Z</time>
      </trkpt>
      <trkpt lat="48.57576" lon="2.1074">
        <ele>95.4</ele>
        <time>2026-02-02T14:12:16Z</time>
      </trkpt>
      <trkpt lat="48.57579" lon="2.10729">
        <ele>95.2</ele>
        <time>2026-02-02T14:12:17Z</time>
      </trkpt>
      <trkpt lat="48.57582" lon="2.10719">
        <ele>95.2</ele>
        <time>2026-02-02T14:12:18Z</time>
      </trkpt>
      <trkpt lat="48.57585" lon="2.1071">
        <ele>95.2</ele>
        <time>2026-02-02T14:12:19Z</time>
      </trkpt>
      <trkpt lat="48.57589" lon="2.107">
        <ele>95.2</ele>
        <time>2026-02-02T14:12:20Z</time>
      </trkpt>
      <trkpt lat="48.57592" lon="2.10691">
        <ele>96</ele>
        <time>2026-02-02T14:12:21Z</time>
      </trkpt>
      <trkpt lat="48.57594" lon="2.10682">
        <ele>96</ele>
        <time>2026-02-02T14:12:22Z</time>
      </trkpt>
      <trkpt lat="48.57597" lon="2.10672">
        <ele>96</ele>
        <time>2026-02-02T14:12:23Z</time>
      </trkpt>
      <trkpt lat="48.57599" lon="2.10663">
        <ele>95</ele>
        <time>2026-02-02T14:12:24Z</time>
      </trkpt>
      <trkpt lat="48.576" lon="2.10654">
        <ele>95.2</ele>
        <time>2026-02-02T14:12:25Z</time>
      </trkpt>
      <trkpt lat="48.57602" lon="2.10645">
        <ele>95.2</ele>
        <time>2026-02-02T14:12:26Z</time>
      </trkpt>
      <trkpt lat="48.57604" lon="2.10636">
        <ele>95.2</ele>
        <time>2026-02-02T14:12:27Z</time>
      </trkpt>
      <trkpt lat="48.57605" lon="2.10627">
        <ele>95.2</ele>
        <time>2026-02-02T14:12:28Z</time>
      </trkpt>
      <trkpt lat="48.57606" lon="2.10617">
        <ele>95.2</ele>
        <time>2026-02-02T14:12:29Z</time>
      </trkpt>
      <trkpt lat="48.57606" lon="2.10608">
        <ele>95.2</ele>
        <time>2026-02-02T14:12:30Z</time>
      </trkpt>
      <trkpt lat="48.57607" lon="2.10598">
        <ele>95.2</ele>
        <time>2026-02-02T14:12:31Z</time>
      </trkpt>
      <trkpt lat="48.57608" lon="2.1059">
        <ele>95.2</ele>
        <time>2026-02-02T14:12:32Z</time>
      </trkpt>
      <trkpt lat="48.57608" lon="2.10579">
        <ele>94.8</ele>
        <time>2026-02-02T14:12:33Z</time>
      </trkpt>
      <trkpt lat="48.57607" lon="2.1057">
        <ele>94.8</ele>
        <time>2026-02-02T14:12:34Z</time>
      </trkpt>
      <trkpt lat="48.57607" lon="2.10562">
        <ele>94.8</ele>
        <time>2026-02-02T14:12:35Z</time>
      </trkpt>
      <trkpt lat="48.57606" lon="2.10553">
        <ele>94.8</ele>
        <time>2026-02-02T14:12:36Z</time>
      </trkpt>
      <trkpt lat="48.57605" lon="2.10544">
        <ele>94.8</ele>
        <time>2026-02-02T14:12:37Z</time>
      </trkpt>
      <trkpt lat="48.57605" lon="2.10534">
        <ele>94.8</ele>
        <time>2026-02-02T14:12:38Z</time>
      </trkpt>
      <trkpt lat="48.57603" lon="2.10525">
        <ele>94.8</ele>
        <time>2026-02-02T14:12:39Z</time>
      </trkpt>
      <trkpt lat="48.57602" lon="2.10514">
        <ele>95</ele>
        <time>2026-02-02T14:12:40Z</time>
      </trkpt>
      <trkpt lat="48.57601" lon="2.10506">
        <ele>95</ele>
        <time>2026-02-02T14:12:41Z</time>
      </trkpt>
      <trkpt lat="48.576" lon="2.10498">
        <ele>95</ele>
        <time>2026-02-02T14:12:42Z</time>
      </trkpt>
      <trkpt lat="48.57599" lon="2.1049">
        <ele>95</ele>
        <time>2026-02-02T14:12:43Z</time>
      </trkpt>
      <trkpt lat="48.57597" lon="2.10481">
        <ele>95</ele>
        <time>2026-02-02T14:12:44Z</time>
      </trkpt>
      <trkpt lat="48.57595" lon="2.10472">
        <ele>94.8</ele>
        <time>2026-02-02T14:12:45Z</time>
      </trkpt>
      <trkpt lat="48.57592" lon="2.10463">
        <ele>94.8</ele>
        <time>2026-02-02T14:12:46Z</time>
      </trkpt>
      <trkpt lat="48.5759" lon="2.10452">
        <ele>94.8</ele>
        <time>2026-02-02T14:12:47Z</time>
      </trkpt>
      <trkpt lat="48.57589" lon="2.10441">
        <ele>94.8</ele>
        <time>2026-02-02T14:12:48Z</time>
      </trkpt>
      <trkpt lat="48.57587" lon="2.10431">
        <ele>94.6</ele>
        <time>2026-02-02T14:12:49Z</time>
      </trkpt>
      <trkpt lat="48.57586" lon="2.1042">
        <ele>94.6</ele>
        <time>2026-02-02T14:12:50Z</time>
      </trkpt>
      <trkpt lat="48.57585" lon="2.1041">
        <ele>94.6</ele>
        <time>2026-02-02T14:12:51Z</time>
      </trkpt>
      <trkpt lat="48.57584" lon="2.10399">
        <ele>94.6</ele>
        <time>2026-02-02T14:12:52Z</time>
      </trkpt>
      <trkpt lat="48.57583" lon="2.10388">
        <ele>94.2</ele>
        <time>2026-02-02T14:12:53Z</time>
      </trkpt>
      <trkpt lat="48.57583" lon="2.10376">
        <ele>94.2</ele>
        <time>2026-02-02T14:12:54Z</time>
      </trkpt>
      <trkpt lat="48.57583" lon="2.10365">
        <ele>94.2</ele>
        <time>2026-02-02T14:12:55Z</time>
      </trkpt>
      <trkpt lat="48.57583" lon="2.10354">
        <ele>95.2</ele>
        <time>2026-02-02T14:12:56Z</time>
      </trkpt>
      <trkpt lat="48.57584" lon="2.10348">
        <ele>95</ele>
        <time>2026-02-02T14:12:57Z</time>
      </trkpt>
      <trkpt lat="48.57584" lon="2.10336">
        <ele>95</ele>
        <time>2026-02-02T14:12:58Z</time>
      </trkpt>
      <trkpt lat="48.57585" lon="2.10325">
        <ele>95</ele>
        <time>2026-02-02T14:12:59Z</time>
      </trkpt>
      <trkpt lat="48.57585" lon="2.10314">
        <ele>95</ele>
        <time>2026-02-02T14:13:00Z</time>
      </trkpt>
      <trkpt lat="48.57586" lon="2.10303">
        <ele>94.6</ele>
        <time>2026-02-02T14:13:01Z</time>
      </trkpt>
      <trkpt lat="48.57587" lon="2.10294">
        <ele>94.6</ele>
        <time>2026-02-02T14:13:02Z</time>
      </trkpt>
      <trkpt lat="48.57588" lon="2.10285">
        <ele>94.6</ele>
        <time>2026-02-02T14:13:03Z</time>
      </trkpt>
      <trkpt lat="48.57589" lon="2.10276">
        <ele>95.2</ele>
        <time>2026-02-02T14:13:04Z</time>
      </trkpt>
      <trkpt lat="48.57589" lon="2.10267">
        <ele>95.2</ele>
        <time>2026-02-02T14:13:05Z</time>
      </trkpt>
      <trkpt lat="48.5759" lon="2.10256">
        <ele>95.2</ele>
        <time>2026-02-02T14:13:06Z</time>
      </trkpt>
      <trkpt lat="48.5759" lon="2.10246">
        <ele>95.2</ele>
        <time>2026-02-02T14:13:07Z</time>
      </trkpt>
      <trkpt lat="48.57591" lon="2.10236">
        <ele>95.2</ele>
        <time>2026-02-02T14:13:08Z</time>
      </trkpt>
      <trkpt lat="48.57591" lon="2.10226">
        <ele>95.2</ele>
        <time>2026-02-02T14:13:09Z</time>
      </trkpt>
      <trkpt lat="48.57592" lon="2.10217">
        <ele>95.2</ele>
        <time>2026-02-02T14:13:10Z</time>
      </trkpt>
      <trkpt lat="48.57592" lon="2.10208">
        <ele>95.2</ele>
        <time>2026-02-02T14:13:11Z</time>
      </trkpt>
      <trkpt lat="48.57593" lon="2.10198">
        <ele>94.2</ele>
        <time>2026-02-02T14:13:12Z</time>
      </trkpt>
      <trkpt lat="48.57593" lon="2.10189">
        <ele>94.8</ele>
        <time>2026-02-02T14:13:13Z</time>
      </trkpt>
      <trkpt lat="48.57594" lon="2.1018">
        <ele>94.8</ele>
        <time>2026-02-02T14:13:14Z</time>
      </trkpt>
      <trkpt lat="48.57595" lon="2.1017">
        <ele>94.8</ele>
        <time>2026-02-02T14:13:15Z</time>
      </trkpt>
      <trkpt lat="48.57598" lon="2.10161">
        <ele>95</ele>
        <time>2026-02-02T14:13:16Z</time>
      </trkpt>
      <trkpt lat="48.57602" lon="2.10154">
        <ele>94.8</ele>
        <time>2026-02-02T14:13:17Z</time>
      </trkpt>
      <trkpt lat="48.57607" lon="2.10151">
        <ele>94.8</ele>
        <time>2026-02-02T14:13:18Z</time>
      </trkpt>
      <trkpt lat="48.57613" lon="2.10149">
        <ele>94.8</ele>
        <time>2026-02-02T14:13:19Z</time>
      </trkpt>
      <trkpt lat="48.57617" lon="2.10148">
        <ele>94.8</ele>
        <time>2026-02-02T14:13:20Z</time>
      </trkpt>
      <trkpt lat="48.57622" lon="2.10147">
        <ele>95.4</ele>
        <time>2026-02-02T14:13:21Z</time>
      </trkpt>
      <trkpt lat="48.57626" lon="2.10146">
        <ele>95.4</ele>
        <time>2026-02-02T14:13:22Z</time>
      </trkpt>
      <trkpt lat="48.5763" lon="2.10145">
        <ele>95.4</ele>
        <time>2026-02-02T14:13:23Z</time>
      </trkpt>
      <trkpt lat="48.57634" lon="2.10143">
        <ele>95.4</ele>
        <time>2026-02-02T14:13:24Z</time>
      </trkpt>
      <trkpt lat="48.57638" lon="2.10141">
        <ele>96.4</ele>
        <time>2026-02-02T14:13:25Z</time>
      </trkpt>
      <trkpt lat="48.57641" lon="2.10136">
        <ele>96.4</ele>
        <time>2026-02-02T14:13:26Z</time>
      </trkpt>
      <trkpt lat="48.57643" lon="2.10131">
        <ele>96.4</ele>
        <time>2026-02-02T14:13:27Z</time>
      </trkpt>
      <trkpt lat="48.57644" lon="2.10124">
        <ele>96.8</ele>
        <time>2026-02-02T14:13:28Z</time>
      </trkpt>
      <trkpt lat="48.57644" lon="2.10117">
        <ele>96.8</ele>
        <time>2026-02-02T14:13:29Z</time>
      </trkpt>
      <trkpt lat="48.57645" lon="2.1011">
        <ele>96.8</ele>
        <time>2026-02-02T14:13:30Z</time>
      </trkpt>
      <trkpt lat="48.57645" lon="2.10102">
        <ele>96.8</ele>
        <time>2026-02-02T14:13:31Z</time>
      </trkpt>
      <trkpt lat="48.57645" lon="2.10095">
        <ele>96.8</ele>
        <time>2026-02-02T14:13:32Z</time>
      </trkpt>
      <trkpt lat="48.57644" lon="2.10088">
        <ele>97</ele>
        <time>2026-02-02T14:13:33Z</time>
      </trkpt>
      <trkpt lat="48.57644" lon="2.10081">
        <ele>97</ele>
        <time>2026-02-02T14:13:34Z</time>
      </trkpt>
      <trkpt lat="48.57644" lon="2.10074">
        <ele>97</ele>
        <time>2026-02-02T14:13:35Z</time>
      </trkpt>
      <trkpt lat="48.57643" lon="2.10068">
        <ele>97.4</ele>
        <time>2026-02-02T14:13:36Z</time>
      </trkpt>
      <trkpt lat="48.57643" lon="2.10061">
        <ele>97.6</ele>
        <time>2026-02-02T14:13:37Z</time>
      </trkpt>
      <trkpt lat="48.57642" lon="2.10054">
        <ele>97.6</ele>
        <time>2026-02-02T14:13:38Z</time>
      </trkpt>
      <trkpt lat="48.57642" lon="2.10047">
        <ele>97.6</ele>
        <time>2026-02-02T14:13:39Z</time>
      </trkpt>
      <trkpt lat="48.57642" lon="2.1004">
        <ele>97.4</ele>
        <time>2026-02-02T14:13:40Z</time>
      </trkpt>
      <trkpt lat="48.57641" lon="2.10033">
        <ele>97.8</ele>
        <time>2026-02-02T14:13:41Z</time>
      </trkpt>
      <trkpt lat="48.57641" lon="2.10026">
        <ele>97.8</ele>
        <time>2026-02-02T14:13:42Z</time>
      </trkpt>
      <trkpt lat="48.5764" lon="2.10019">
        <ele>97.8</ele>
        <time>2026-02-02T14:13:43Z</time>
      </trkpt>
      <trkpt lat="48.5764" lon="2.10012">
        <ele>97.8</ele>
        <time>2026-02-02T14:13:44Z</time>
      </trkpt>
      <trkpt lat="48.5764" lon="2.10006">
        <ele>98</ele>
        <time>2026-02-02T14:13:45Z</time>
      </trkpt>
      <trkpt lat="48.5764" lon="2.09999">
        <ele>98</ele>
        <time>2026-02-02T14:13:46Z</time>
      </trkpt>
      <trkpt lat="48.5764" lon="2.09992">
        <ele>98</ele>
        <time>2026-02-02T14:13:47Z</time>
      </trkpt>
      <trkpt lat="48.57641" lon="2.09986">
        <ele>98</ele>
        <time>2026-02-02T14:13:48Z</time>
      </trkpt>
      <trkpt lat="48.57642" lon="2.0998">
        <ele>98.2</ele>
        <time>2026-02-02T14:13:49Z</time>
      </trkpt>
      <trkpt lat="48.57644" lon="2.09974">
        <ele>98.2</ele>
        <time>2026-02-02T14:13:50Z</time>
      </trkpt>
      <trkpt lat="48.57646" lon="2.09969">
        <ele>98.2</ele>
        <time>2026-02-02T14:13:51Z</time>
      </trkpt>
      <trkpt lat="48.57648" lon="2.09963">
        <ele>99.2</ele>
        <time>2026-02-02T14:13:52Z</time>
      </trkpt>
      <trkpt lat="48.5765" lon="2.09959">
        <ele>98.8</ele>
        <time>2026-02-02T14:13:53Z</time>
      </trkpt>
      <trkpt lat="48.57653" lon="2.09954">
        <ele>98.8</ele>
        <time>2026-02-02T14:13:54Z</time>
      </trkpt>
      <trkpt lat="48.57655" lon="2.09949">
        <ele>98.8</ele>
        <time>2026-02-02T14:13:55Z</time>
      </trkpt>
      <trkpt lat="48.57658" lon="2.09945">
        <ele>99.2</ele>
        <time>2026-02-02T14:13:56Z</time>
      </trkpt>
      <trkpt lat="48.57661" lon="2.0994">
        <ele>99.4</ele>
        <time>2026-02-02T14:13:57Z</time>
      </trkpt>
      <trkpt lat="48.57663" lon="2.09935">
        <ele>99.4</ele>
        <time>2026-02-02T14:13:58Z</time>
      </trkpt>
      <trkpt lat="48.57666" lon="2.09931">
        <ele>99.4</ele>
        <time>2026-02-02T14:13:59Z</time>
      </trkpt>
      <trkpt lat="48.57669" lon="2.09926">
        <ele>99.4</ele>
        <time>2026-02-02T14:14:00Z</time>
      </trkpt>
      <trkpt lat="48.57671" lon="2.09922">
        <ele>99.6</ele>
        <time>2026-02-02T14:14:01Z</time>
      </trkpt>
      <trkpt lat="48.57674" lon="2.09918">
        <ele>99.6</ele>
        <time>2026-02-02T14:14:02Z</time>
      </trkpt>
      <trkpt lat="48.57676" lon="2.09914">
        <ele>99.6</ele>
        <time>2026-02-02T14:14:03Z</time>
      </trkpt>
      <trkpt lat="48.57679" lon="2.0991">
        <ele>100</ele>
        <time>2026-02-02T14:14:04Z</time>
      </trkpt>
      <trkpt lat="48.57681" lon="2.09906">
        <ele>100</ele>
        <time>2026-02-02T14:14:05Z</time>
      </trkpt>
      <trkpt lat="48.57683" lon="2.09901">
        <ele>100</ele>
        <time>2026-02-02T14:14:06Z</time>
      </trkpt>
      <trkpt lat="48.57685" lon="2.09897">
        <ele>100</ele>
        <time>2026-02-02T14:14:07Z</time>
      </trkpt>
      <trkpt lat="48.57687" lon="2.09892">
        <ele>100</ele>
        <time>2026-02-02T14:14:08Z</time>
      </trkpt>
      <trkpt lat="48.57689" lon="2.09888">
        <ele>100.6</ele>
        <time>2026-02-02T14:14:09Z</time>
      </trkpt>
      <trkpt lat="48.5769" lon="2.09883">
        <ele>100.6</ele>
        <time>2026-02-02T14:14:10Z</time>
      </trkpt>
      <trkpt lat="48.57692" lon="2.09878">
        <ele>100.6</ele>
        <time>2026-02-02T14:14:11Z</time>
      </trkpt>
      <trkpt lat="48.57694" lon="2.09873">
        <ele>101</ele>
        <time>2026-02-02T14:14:12Z</time>
      </trkpt>
      <trkpt lat="48.57696" lon="2.09868">
        <ele>101.4</ele>
        <time>2026-02-02T14:14:13Z</time>
      </trkpt>
      <trkpt lat="48.57697" lon="2.09863">
        <ele>101.4</ele>
        <time>2026-02-02T14:14:14Z</time>
      </trkpt>
      <trkpt lat="48.57699" lon="2.09857">
        <ele>101.4</ele>
        <time>2026-02-02T14:14:15Z</time>
      </trkpt>
      <trkpt lat="48.577" lon="2.09851">
        <ele>101.4</ele>
        <time>2026-02-02T14:14:16Z</time>
      </trkpt>
      <trkpt lat="48.57702" lon="2.09846">
        <ele>101.8</ele>
        <time>2026-02-02T14:14:17Z</time>
      </trkpt>
      <trkpt lat="48.57704" lon="2.09841">
        <ele>101.8</ele>
        <time>2026-02-02T14:14:18Z</time>
      </trkpt>
      <trkpt lat="48.57706" lon="2.09836">
        <ele>101.8</ele>
        <time>2026-02-02T14:14:19Z</time>
      </trkpt>
      <trkpt lat="48.57708" lon="2.09831">
        <ele>102.6</ele>
        <time>2026-02-02T14:14:20Z</time>
      </trkpt>
      <trkpt lat="48.5771" lon="2.09826">
        <ele>102.6</ele>
        <time>2026-02-02T14:14:21Z</time>
      </trkpt>
      <trkpt lat="48.57712" lon="2.09822">
        <ele>102.6</ele>
        <time>2026-02-02T14:14:22Z</time>
      </trkpt>
      <trkpt lat="48.57715" lon="2.09817">
        <ele>102.6</ele>
        <time>2026-02-02T14:14:23Z</time>
      </trkpt>
      <trkpt lat="48.57717" lon="2.09813">
        <ele>103</ele>
        <time>2026-02-02T14:14:24Z</time>
      </trkpt>
      <trkpt lat="48.5772" lon="2.09809">
        <ele>103.6</ele>
        <time>2026-02-02T14:14:25Z</time>
      </trkpt>
      <trkpt lat="48.57723" lon="2.09805">
        <ele>103.6</ele>
        <time>2026-02-02T14:14:26Z</time>
      </trkpt>
      <trkpt lat="48.57725" lon="2.09801">
        <ele>103.6</ele>
        <time>2026-02-02T14:14:27Z</time>
      </trkpt>
      <trkpt lat="48.57728" lon="2.09796">
        <ele>103.6</ele>
        <time>2026-02-02T14:14:28Z</time>
      </trkpt>
      <trkpt lat="48.57731" lon="2.09792">
        <ele>104.2</ele>
        <time>2026-02-02T14:14:29Z</time>
      </trkpt>
      <trkpt lat="48.57734" lon="2.09788">
        <ele>104.2</ele>
        <time>2026-02-02T14:14:30Z</time>
      </trkpt>
      <trkpt lat="48.57736" lon="2.09784">
        <ele>104.2</ele>
        <time>2026-02-02T14:14:31Z</time>
      </trkpt>
      <trkpt lat="48.57739" lon="2.0978">
        <ele>104.6</ele>
        <time>2026-02-02T14:14:32Z</time>
      </trkpt>
      <trkpt lat="48.57742" lon="2.09777">
        <ele>105</ele>
        <time>2026-02-02T14:14:33Z</time>
      </trkpt>
      <trkpt lat="48.57745" lon="2.09773">
        <ele>105</ele>
        <time>2026-02-02T14:14:34Z</time>
      </trkpt>
      <trkpt lat="48.57748" lon="2.09769">
        <ele>105</ele>
        <time>2026-02-02T14:14:35Z</time>
      </trkpt>
      <trkpt lat="48.57751" lon="2.09765">
        <ele>105</ele>
        <time>2026-02-02T14:14:36Z</time>
      </trkpt>
      <trkpt lat="48.57754" lon="2.09762">
        <ele>105.6</ele>
        <time>2026-02-02T14:14:37Z</time>
      </trkpt>
      <trkpt lat="48.57757" lon="2.09758">
        <ele>105.6</ele>
        <time>2026-02-02T14:14:38Z</time>
      </trkpt>
      <trkpt lat="48.5776" lon="2.09754">
        <ele>105.6</ele>
        <time>2026-02-02T14:14:39Z</time>
      </trkpt>
      <trkpt lat="48.57763" lon="2.09751">
        <ele>106</ele>
        <time>2026-02-02T14:14:40Z</time>
      </trkpt>
      <trkpt lat="48.57766" lon="2.09747">
        <ele>106.6</ele>
        <time>2026-02-02T14:14:41Z</time>
      </trkpt>
      <trkpt lat="48.57769" lon="2.09743">
        <ele>106.6</ele>
        <time>2026-02-02T14:14:42Z</time>
      </trkpt>
      <trkpt lat="48.57772" lon="2.09739">
        <ele>106.6</ele>
        <time>2026-02-02T14:14:43Z</time>
      </trkpt>
      <trkpt lat="48.57775" lon="2.09735">
        <ele>107</ele>
        <time>2026-02-02T14:14:44Z</time>
      </trkpt>
      <trkpt lat="48.57777" lon="2.09731">
        <ele>107.2</ele>
        <time>2026-02-02T14:14:45Z</time>
      </trkpt>
      <trkpt lat="48.5778" lon="2.09727">
        <ele>107.2</ele>
        <time>2026-02-02T14:14:46Z</time>
      </trkpt>
      <trkpt lat="48.57783" lon="2.09723">
        <ele>107.2</ele>
        <time>2026-02-02T14:14:47Z</time>
      </trkpt>
      <trkpt lat="48.57786" lon="2.09719">
        <ele>107.2</ele>
        <time>2026-02-02T14:14:48Z</time>
      </trkpt>
      <trkpt lat="48.57789" lon="2.09715">
        <ele>107.2</ele>
        <time>2026-02-02T14:14:49Z</time>
      </trkpt>
      <trkpt lat="48.57791" lon="2.09711">
        <ele>107.2</ele>
        <time>2026-02-02T14:14:50Z</time>
      </trkpt>
      <trkpt lat="48.57794" lon="2.09706">
        <ele>107.2</ele>
        <time>2026-02-02T14:14:51Z</time>
      </trkpt>
      <trkpt lat="48.57796" lon="2.09702">
        <ele>107.8</ele>
        <time>2026-02-02T14:14:52Z</time>
      </trkpt>
      <trkpt lat="48.57799" lon="2.09697">
        <ele>108.2</ele>
        <time>2026-02-02T14:14:53Z</time>
      </trkpt>
      <trkpt lat="48.57801" lon="2.09693">
        <ele>108.2</ele>
        <time>2026-02-02T14:14:54Z</time>
      </trkpt>
      <trkpt lat="48.57804" lon="2.09688">
        <ele>108.2</ele>
        <time>2026-02-02T14:14:55Z</time>
      </trkpt>
      <trkpt lat="48.57806" lon="2.09683">
        <ele>108.2</ele>
        <time>2026-02-02T14:14:56Z</time>
      </trkpt>
      <trkpt lat="48.57809" lon="2.09678">
        <ele>108.2</ele>
        <time>2026-02-02T14:14:57Z</time>
      </trkpt>
      <trkpt lat="48.57811" lon="2.09673">
        <ele>108.2</ele>
        <time>2026-02-02T14:14:58Z</time>
      </trkpt>
      <trkpt lat="48.57813" lon="2.09667">
        <ele>108.2</ele>
        <time>2026-02-02T14:14:59Z</time>
      </trkpt>
      <trkpt lat="48.57815" lon="2.09662">
        <ele>109</ele>
        <time>2026-02-02T14:15:00Z</time>
      </trkpt>
      <trkpt lat="48.57818" lon="2.09657">
        <ele>109</ele>
        <time>2026-02-02T14:15:01Z</time>
      </trkpt>
      <trkpt lat="48.5782" lon="2.09652">
        <ele>109</ele>
        <time>2026-02-02T14:15:02Z</time>
      </trkpt>
      <trkpt lat="48.57822" lon="2.09647">
        <ele>109</ele>
        <time>2026-02-02T14:15:03Z</time>
      </trkpt>
      <trkpt lat="48.57825" lon="2.09641">
        <ele>109.4</ele>
        <time>2026-02-02T14:15:04Z</time>
      </trkpt>
      <trkpt lat="48.57827" lon="2.09636">
        <ele>109.4</ele>
        <time>2026-02-02T14:15:05Z</time>
      </trkpt>
      <trkpt lat="48.57829" lon="2.09631">
        <ele>109.4</ele>
        <time>2026-02-02T14:15:06Z</time>
      </trkpt>
      <trkpt lat="48.57832" lon="2.09626">
        <ele>109.4</ele>
        <time>2026-02-02T14:15:07Z</time>
      </trkpt>
      <trkpt lat="48.57834" lon="2.0962">
        <ele>110</ele>
        <time>2026-02-02T14:15:08Z</time>
      </trkpt>
      <trkpt lat="48.57837" lon="2.09615">
        <ele>109.8</ele>
        <time>2026-02-02T14:15:09Z</time>
      </trkpt>
      <trkpt lat="48.57839" lon="2.0961">
        <ele>109.8</ele>
        <time>2026-02-02T14:15:10Z</time>
      </trkpt>
      <trkpt lat="48.57842" lon="2.09605">
        <ele>109.8</ele>
        <time>2026-02-02T14:15:11Z</time>
      </trkpt>
      <trkpt lat="48.57844" lon="2.096">
        <ele>110</ele>
        <time>2026-02-02T14:15:12Z</time>
      </trkpt>
      <trkpt lat="48.57846" lon="2.09595">
        <ele>111</ele>
        <time>2026-02-02T14:15:13Z</time>
      </trkpt>
      <trkpt lat="48.57849" lon="2.0959">
        <ele>111</ele>
        <time>2026-02-02T14:15:14Z</time>
      </trkpt>
      <trkpt lat="48.57852" lon="2.09585">
        <ele>111</ele>
        <time>2026-02-02T14:15:15Z</time>
      </trkpt>
      <trkpt lat="48.57854" lon="2.0958">
        <ele>110.4</ele>
        <time>2026-02-02T14:15:16Z</time>
      </trkpt>
      <trkpt lat="48.57857" lon="2.09576">
        <ele>111</ele>
        <time>2026-02-02T14:15:17Z</time>
      </trkpt>
      <trkpt lat="48.5786" lon="2.09571">
        <ele>111</ele>
        <time>2026-02-02T14:15:18Z</time>
      </trkpt>
      <trkpt lat="48.57863" lon="2.09566">
        <ele>111</ele>
        <time>2026-02-02T14:15:19Z</time>
      </trkpt>
      <trkpt lat="48.57865" lon="2.09562">
        <ele>111</ele>
        <time>2026-02-02T14:15:20Z</time>
      </trkpt>
      <trkpt lat="48.57869" lon="2.09557">
        <ele>111</ele>
        <time>2026-02-02T14:15:21Z</time>
      </trkpt>
      <trkpt lat="48.57872" lon="2.09552">
        <ele>111</ele>
        <time>2026-02-02T14:15:22Z</time>
      </trkpt>
      <trkpt lat="48.57875" lon="2.09547">
        <ele>111</ele>
        <time>2026-02-02T14:15:23Z</time>
      </trkpt>
      <trkpt lat="48.57878" lon="2.09543">
        <ele>111.8</ele>
        <time>2026-02-02T14:15:24Z</time>
      </trkpt>
      <trkpt lat="48.57881" lon="2.09538">
        <ele>111.6</ele>
        <time>2026-02-02T14:15:25Z</time>
      </trkpt>
      <trkpt lat="48.57885" lon="2.09534">
        <ele>111.6</ele>
        <time>2026-02-02T14:15:26Z</time>
      </trkpt>
      <trkpt lat="48.57888" lon="2.09529">
        <ele>111.6</ele>
        <time>2026-02-02T14:15:27Z</time>
      </trkpt>
      <trkpt lat="48.57891" lon="2.09525">
        <ele>111.6</ele>
        <time>2026-02-02T14:15:28Z</time>
      </trkpt>
      <trkpt lat="48.57894" lon="2.0952">
        <ele>111.8</ele>
        <time>2026-02-02T14:15:29Z</time>
      </trkpt>
      <trkpt lat="48.57897" lon="2.09516">
        <ele>111.8</ele>
        <time>2026-02-02T14:15:30Z</time>
      </trkpt>
      <trkpt lat="48.57901" lon="2.09512">
        <ele>111.8</ele>
        <time>2026-02-02T14:15:31Z</time>
      </trkpt>
      <trkpt lat="48.57904" lon="2.09507">
        <ele>111.8</ele>
        <time>2026-02-02T14:15:32Z</time>
      </trkpt>
      <trkpt lat="48.57907" lon="2.09503">
        <ele>112.2</ele>
        <time>2026-02-02T14:15:33Z</time>
      </trkpt>
      <trkpt lat="48.57911" lon="2.09498">
        <ele>112.2</ele>
        <time>2026-02-02T14:15:34Z</time>
      </trkpt>
      <trkpt lat="48.57914" lon="2.09494">
        <ele>112.2</ele>
        <time>2026-02-02T14:15:35Z</time>
      </trkpt>
      <trkpt lat="48.57917" lon="2.09489">
        <ele>112.2</ele>
        <time>2026-02-02T14:15:36Z</time>
      </trkpt>
      <trkpt lat="48.57921" lon="2.09484">
        <ele>112.8</ele>
        <time>2026-02-02T14:15:37Z</time>
      </trkpt>
      <trkpt lat="48.57924" lon="2.09479">
        <ele>112.8</ele>
        <time>2026-02-02T14:15:38Z</time>
      </trkpt>
      <trkpt lat="48.57928" lon="2.09473">
        <ele>112.8</ele>
        <time>2026-02-02T14:15:39Z</time>
      </trkpt>
      <trkpt lat="48.57932" lon="2.09467">
        <ele>112.2</ele>
        <time>2026-02-02T14:15:40Z</time>
      </trkpt>
      <trkpt lat="48.57935" lon="2.09461">
        <ele>111.8</ele>
        <time>2026-02-02T14:15:41Z</time>
      </trkpt>
      <trkpt lat="48.57939" lon="2.09455">
        <ele>111.8</ele>
        <time>2026-02-02T14:15:42Z</time>
      </trkpt>
      <trkpt lat="48.57943" lon="2.09449">
        <ele>111.8</ele>
        <time>2026-02-02T14:15:43Z</time>
      </trkpt>
      <trkpt lat="48.57947" lon="2.09443">
        <ele>111.4</ele>
        <time>2026-02-02T14:15:44Z</time>
      </trkpt>
      <trkpt lat="48.57952" lon="2.09436">
        <ele>111.2</ele>
        <time>2026-02-02T14:15:45Z</time>
      </trkpt>
      <trkpt lat="48.57956" lon="2.0943">
        <ele>111.2</ele>
        <time>2026-02-02T14:15:46Z</time>
      </trkpt>
      <trkpt lat="48.5796" lon="2.09423">
        <ele>111.2</ele>
        <time>2026-02-02T14:15:47Z</time>
      </trkpt>
      <trkpt lat="48.57965" lon="2.09416">
        <ele>110.2</ele>
        <time>2026-02-02T14:15:48Z</time>
      </trkpt>
      <trkpt lat="48.57969" lon="2.09409">
        <ele>110.4</ele>
        <time>2026-02-02T14:15:49Z</time>
      </trkpt>
      <trkpt lat="48.57974" lon="2.09401">
        <ele>110.4</ele>
        <time>2026-02-02T14:15:50Z</time>
      </trkpt>
      <trkpt lat="48.57979" lon="2.09393">
        <ele>110.4</ele>
        <time>2026-02-02T14:15:51Z</time>
      </trkpt>
      <trkpt lat="48.57984" lon="2.09386">
        <ele>110.2</ele>
        <time>2026-02-02T14:15:52Z</time>
      </trkpt>
      <trkpt lat="48.57989" lon="2.09378">
        <ele>109</ele>
        <time>2026-02-02T14:15:53Z</time>
      </trkpt>
      <trkpt lat="48.57994" lon="2.0937">
        <ele>109</ele>
        <time>2026-02-02T14:15:54Z</time>
      </trkpt>
      <trkpt lat="48.57999" lon="2.09362">
        <ele>109</ele>
        <time>2026-02-02T14:15:55Z</time>
      </trkpt>
      <trkpt lat="48.58005" lon="2.09354">
        <ele>109</ele>
        <time>2026-02-02T14:15:56Z</time>
      </trkpt>
      <trkpt lat="48.5801" lon="2.09346">
        <ele>109.2</ele>
        <time>2026-02-02T14:15:57Z</time>
      </trkpt>
      <trkpt lat="48.58015" lon="2.09337">
        <ele>109.2</ele>
        <time>2026-02-02T14:15:58Z</time>
      </trkpt>
      <trkpt lat="48.5802" lon="2.09329">
        <ele>109.2</ele>
        <time>2026-02-02T14:15:59Z</time>
      </trkpt>
      <trkpt lat="48.58026" lon="2.09321">
        <ele>108.2</ele>
        <time>2026-02-02T14:16:00Z</time>
      </trkpt>
      <trkpt lat="48.58031" lon="2.09312">
        <ele>108.2</ele>
        <time>2026-02-02T14:16:01Z</time>
      </trkpt>
      <trkpt lat="48.58037" lon="2.09304">
        <ele>108.2</ele>
        <time>2026-02-02T14:16:02Z</time>
      </trkpt>
      <trkpt lat="48.58042" lon="2.09295">
        <ele>108.2</ele>
        <time>2026-02-02T14:16:03Z</time>
      </trkpt>
      <trkpt lat="48.58048" lon="2.09286">
        <ele>108</ele>
        <time>2026-02-02T14:16:04Z</time>
      </trkpt>
      <trkpt lat="48.58053" lon="2.09278">
        <ele>108</ele>
        <time>2026-02-02T14:16:05Z</time>
      </trkpt>
      <trkpt lat="48.58058" lon="2.09269">
        <ele>108</ele>
        <time>2026-02-02T14:16:06Z</time>
      </trkpt>
      <trkpt lat="48.58063" lon="2.0926">
        <ele>108</ele>
        <time>2026-02-02T14:16:07Z</time>
      </trkpt>
      <trkpt lat="48.58069" lon="2.09251">
        <ele>107.2</ele>
        <time>2026-02-02T14:16:08Z</time>
      </trkpt>
      <trkpt lat="48.58073" lon="2.09241">
        <ele>106.8</ele>
        <time>2026-02-02T14:16:09Z</time>
      </trkpt>
      <trkpt lat="48.58078" lon="2.09232">
        <ele>106.8</ele>
        <time>2026-02-02T14:16:10Z</time>
      </trkpt>
      <trkpt lat="48.58083" lon="2.09222">
        <ele>106.8</ele>
        <time>2026-02-02T14:16:11Z</time>
      </trkpt>
      <trkpt lat="48.58088" lon="2.09212">
        <ele>106.8</ele>
        <time>2026-02-02T14:16:12Z</time>
      </trkpt>
      <trkpt lat="48.58093" lon="2.09202">
        <ele>107</ele>
        <time>2026-02-02T14:16:13Z</time>
      </trkpt>
      <trkpt lat="48.58098" lon="2.09192">
        <ele>107</ele>
        <time>2026-02-02T14:16:14Z</time>
      </trkpt>
      <trkpt lat="48.58103" lon="2.09182">
        <ele>107</ele>
        <time>2026-02-02T14:16:15Z</time>
      </trkpt>
      <trkpt lat="48.58108" lon="2.09172">
        <ele>106.4</ele>
        <time>2026-02-02T14:16:16Z</time>
      </trkpt>
      <trkpt lat="48.58113" lon="2.09161">
        <ele>106</ele>
        <time>2026-02-02T14:16:17Z</time>
      </trkpt>
      <trkpt lat="48.58118" lon="2.09151">
        <ele>106</ele>
        <time>2026-02-02T14:16:18Z</time>
      </trkpt>
      <trkpt lat="48.58123" lon="2.09141">
        <ele>106</ele>
        <time>2026-02-02T14:16:19Z</time>
      </trkpt>
      <trkpt lat="48.58128" lon="2.0913">
        <ele>106</ele>
        <time>2026-02-02T14:16:20Z</time>
      </trkpt>
      <trkpt lat="48.58133" lon="2.0912">
        <ele>105.8</ele>
        <time>2026-02-02T14:16:21Z</time>
      </trkpt>
      <trkpt lat="48.58138" lon="2.0911">
        <ele>105.8</ele>
        <time>2026-02-02T14:16:22Z</time>
      </trkpt>
      <trkpt lat="48.58143" lon="2.091">
        <ele>105.8</ele>
        <time>2026-02-02T14:16:23Z</time>
      </trkpt>
      <trkpt lat="48.58148" lon="2.09089">
        <ele>105.4</ele>
        <time>2026-02-02T14:16:24Z</time>
      </trkpt>
      <trkpt lat="48.58153" lon="2.09079">
        <ele>104.8</ele>
        <time>2026-02-02T14:16:25Z</time>
      </trkpt>
      <trkpt lat="48.58158" lon="2.09069">
        <ele>104.8</ele>
        <time>2026-02-02T14:16:26Z</time>
      </trkpt>
      <trkpt lat="48.58163" lon="2.09059">
        <ele>104.8</ele>
        <time>2026-02-02T14:16:27Z</time>
      </trkpt>
      <trkpt lat="48.58168" lon="2.09049">
        <ele>105</ele>
        <time>2026-02-02T14:16:28Z</time>
      </trkpt>
      <trkpt lat="48.58173" lon="2.09039">
        <ele>105</ele>
        <time>2026-02-02T14:16:29Z</time>
      </trkpt>
      <trkpt lat="48.58178" lon="2.09029">
        <ele>105</ele>
        <time>2026-02-02T14:16:30Z</time>
      </trkpt>
      <trkpt lat="48.58182" lon="2.09019">
        <ele>105</ele>
        <time>2026-02-02T14:16:31Z</time>
      </trkpt>
      <trkpt lat="48.58187" lon="2.0901">
        <ele>106</ele>
        <time>2026-02-02T14:16:32Z</time>
      </trkpt>
      <trkpt lat="48.58192" lon="2.09">
        <ele>105.4</ele>
        <time>2026-02-02T14:16:33Z</time>
      </trkpt>
      <trkpt lat="48.58196" lon="2.08991">
        <ele>105.4</ele>
        <time>2026-02-02T14:16:34Z</time>
      </trkpt>
      <trkpt lat="48.58201" lon="2.08982">
        <ele>105.4</ele>
        <time>2026-02-02T14:16:35Z</time>
      </trkpt>
      <trkpt lat="48.58205" lon="2.08972">
        <ele>105.4</ele>
        <time>2026-02-02T14:16:36Z</time>
      </trkpt>
      <trkpt lat="48.58209" lon="2.08963">
        <ele>105.2</ele>
        <time>2026-02-02T14:16:37Z</time>
      </trkpt>
      <trkpt lat="48.58213" lon="2.08953">
        <ele>105.2</ele>
        <time>2026-02-02T14:16:38Z</time>
      </trkpt>
      <trkpt lat="48.58217" lon="2.08944">
        <ele>105.2</ele>
        <time>2026-02-02T14:16:39Z</time>
      </trkpt>
      <trkpt lat="48.58221" lon="2.08934">
        <ele>105.4</ele>
        <time>2026-02-02T14:16:40Z</time>
      </trkpt>
      <trkpt lat="48.58225" lon="2.08924">
        <ele>105.4</ele>
        <time>2026-02-02T14:16:41Z</time>
      </trkpt>
      <trkpt lat="48.58228" lon="2.08914">
        <ele>105.4</ele>
        <time>2026-02-02T14:16:42Z</time>
      </trkpt>
      <trkpt lat="48.58232" lon="2.08904">
        <ele>105.4</ele>
        <time>2026-02-02T14:16:43Z</time>
      </trkpt>
      <trkpt lat="48.58235" lon="2.08895">
        <ele>105.4</ele>
        <time>2026-02-02T14:16:44Z</time>
      </trkpt>
      <trkpt lat="48.58239" lon="2.08885">
        <ele>105.6</ele>
        <time>2026-02-02T14:16:45Z</time>
      </trkpt>
      <trkpt lat="48.58242" lon="2.08876">
        <ele>105.6</ele>
        <time>2026-02-02T14:16:46Z</time>
      </trkpt>
      <trkpt lat="48.58245" lon="2.08866">
        <ele>105.6</ele>
        <time>2026-02-02T14:16:47Z</time>
      </trkpt>
      <trkpt lat="48.58248" lon="2.08856">
        <ele>105.6</ele>
        <time>2026-02-02T14:16:48Z</time>
      </trkpt>
      <trkpt lat="48.58252" lon="2.08847">
        <ele>105.2</ele>
        <time>2026-02-02T14:16:49Z</time>
      </trkpt>
      <trkpt lat="48.58255" lon="2.08837">
        <ele>105.2</ele>
        <time>2026-02-02T14:16:50Z</time>
      </trkpt>
      <trkpt lat="48.58258" lon="2.08828">
        <ele>105.2</ele>
        <time>2026-02-02T14:16:51Z</time>
      </trkpt>
      <trkpt lat="48.58262" lon="2.08819">
        <ele>105.2</ele>
        <time>2026-02-02T14:16:52Z</time>
      </trkpt>
      <trkpt lat="48.58265" lon="2.0881">
        <ele>105.6</ele>
        <time>2026-02-02T14:16:53Z</time>
      </trkpt>
      <trkpt lat="48.58269" lon="2.08801">
        <ele>105.6</ele>
        <time>2026-02-02T14:16:54Z</time>
      </trkpt>
      <trkpt lat="48.58272" lon="2.08793">
        <ele>105.6</ele>
        <time>2026-02-02T14:16:55Z</time>
      </trkpt>
      <trkpt lat="48.58276" lon="2.08784">
        <ele>105.6</ele>
        <time>2026-02-02T14:16:56Z</time>
      </trkpt>
      <trkpt lat="48.5828" lon="2.08776">
        <ele>105.2</ele>
        <time>2026-02-02T14:16:57Z</time>
      </trkpt>
      <trkpt lat="48.58283" lon="2.08767">
        <ele>105.2</ele>
        <time>2026-02-02T14:16:58Z</time>
      </trkpt>
      <trkpt lat="48.58286" lon="2.08759">
        <ele>105.2</ele>
        <time>2026-02-02T14:16:59Z</time>
      </trkpt>
      <trkpt lat="48.5829" lon="2.08751">
        <ele>105.2</ele>
        <time>2026-02-02T14:17:00Z</time>
      </trkpt>
      <trkpt lat="48.58294" lon="2.08743">
        <ele>105.8</ele>
        <time>2026-02-02T14:17:01Z</time>
      </trkpt>
      <trkpt lat="48.58297" lon="2.08735">
        <ele>105.8</ele>
        <time>2026-02-02T14:17:02Z</time>
      </trkpt>
      <trkpt lat="48.58301" lon="2.08728">
        <ele>105.8</ele>
        <time>2026-02-02T14:17:03Z</time>
      </trkpt>
      <trkpt lat="48.58305" lon="2.08721">
        <ele>105.8</ele>
        <time>2026-02-02T14:17:04Z</time>
      </trkpt>
      <trkpt lat="48.5831" lon="2.08714">
        <ele>105.8</ele>
        <time>2026-02-02T14:17:05Z</time>
      </trkpt>
      <trkpt lat="48.58314" lon="2.08706">
        <ele>105.8</ele>
        <time>2026-02-02T14:17:06Z</time>
      </trkpt>
      <trkpt lat="48.58318" lon="2.08699">
        <ele>105.8</ele>
        <time>2026-02-02T14:17:07Z</time>
      </trkpt>
      <trkpt lat="48.58322" lon="2.08692">
        <ele>106.6</ele>
        <time>2026-02-02T14:17:08Z</time>
      </trkpt>
      <trkpt lat="48.58325" lon="2.08685">
        <ele>105.8</ele>
        <time>2026-02-02T14:17:09Z</time>
      </trkpt>
      <trkpt lat="48.58329" lon="2.08678">
        <ele>105.8</ele>
        <time>2026-02-02T14:17:10Z</time>
      </trkpt>
      <trkpt lat="48.58334" lon="2.08671">
        <ele>105.8</ele>
        <time>2026-02-02T14:17:11Z</time>
      </trkpt>
      <trkpt lat="48.58338" lon="2.08665">
        <ele>106.4</ele>
        <time>2026-02-02T14:17:12Z</time>
      </trkpt>
      <trkpt lat="48.58342" lon="2.08658">
        <ele>106.4</ele>
        <time>2026-02-02T14:17:13Z</time>
      </trkpt>
      <trkpt lat="48.58345" lon="2.08651">
        <ele>106.4</ele>
        <time>2026-02-02T14:17:14Z</time>
      </trkpt>
      <trkpt lat="48.58349" lon="2.08643">
        <ele>106.4</ele>
        <time>2026-02-02T14:17:15Z</time>
      </trkpt>
      <trkpt lat="48.58352" lon="2.08636">
        <ele>106.4</ele>
        <time>2026-02-02T14:17:16Z</time>
      </trkpt>
      <trkpt lat="48.58356" lon="2.08629">
        <ele>106.2</ele>
        <time>2026-02-02T14:17:17Z</time>
      </trkpt>
      <trkpt lat="48.5836" lon="2.08622">
        <ele>106.2</ele>
        <time>2026-02-02T14:17:18Z</time>
      </trkpt>
      <trkpt lat="48.58363" lon="2.08615">
        <ele>106.2</ele>
        <time>2026-02-02T14:17:19Z</time>
      </trkpt>
      <trkpt lat="48.58366" lon="2.08607">
        <ele>106.2</ele>
        <time>2026-02-02T14:17:20Z</time>
      </trkpt>
      <trkpt lat="48.58369" lon="2.08599">
        <ele>106.6</ele>
        <time>2026-02-02T14:17:21Z</time>
      </trkpt>
      <trkpt lat="48.58372" lon="2.08592">
        <ele>106.6</ele>
        <time>2026-02-02T14:17:22Z</time>
      </trkpt>
      <trkpt lat="48.58376" lon="2.08585">
        <ele>106.6</ele>
        <time>2026-02-02T14:17:23Z</time>
      </trkpt>
      <trkpt lat="48.58379" lon="2.08578">
        <ele>106.6</ele>
        <time>2026-02-02T14:17:24Z</time>
      </trkpt>
      <trkpt lat="48.58382" lon="2.08571">
        <ele>106.4</ele>
        <time>2026-02-02T14:17:25Z</time>
      </trkpt>
      <trkpt lat="48.58385" lon="2.08565">
        <ele>106.4</ele>
        <time>2026-02-02T14:17:26Z</time>
      </trkpt>
      <trkpt lat="48.58388" lon="2.08558">
        <ele>106.4</ele>
        <time>2026-02-02T14:17:27Z</time>
      </trkpt>
      <trkpt lat="48.58391" lon="2.08552">
        <ele>107.2</ele>
        <time>2026-02-02T14:17:28Z</time>
      </trkpt>
      <trkpt lat="48.58393" lon="2.08545">
        <ele>107.8</ele>
        <time>2026-02-02T14:17:29Z</time>
      </trkpt>
      <trkpt lat="48.58396" lon="2.08537">
        <ele>107.8</ele>
        <time>2026-02-02T14:17:30Z</time>
      </trkpt>
      <trkpt lat="48.58398" lon="2.0853">
        <ele>107.8</ele>
        <time>2026-02-02T14:17:31Z</time>
      </trkpt>
      <trkpt lat="48.58401" lon="2.08523">
        <ele>106.8</ele>
        <time>2026-02-02T14:17:32Z</time>
      </trkpt>
      <trkpt lat="48.58403" lon="2.08516">
        <ele>106.6</ele>
        <time>2026-02-02T14:17:33Z</time>
      </trkpt>
      <trkpt lat="48.58406" lon="2.08509">
        <ele>106.6</ele>
        <time>2026-02-02T14:17:34Z</time>
      </trkpt>
      <trkpt lat="48.58408" lon="2.08502">
        <ele>106.6</ele>
        <time>2026-02-02T14:17:35Z</time>
      </trkpt>
      <trkpt lat="48.58411" lon="2.08495">
        <ele>107</ele>
        <time>2026-02-02T14:17:36Z</time>
      </trkpt>
      <trkpt lat="48.58413" lon="2.08488">
        <ele>107.2</ele>
        <time>2026-02-02T14:17:37Z</time>
      </trkpt>
      <trkpt lat="48.58415" lon="2.08481">
        <ele>107.2</ele>
        <time>2026-02-02T14:17:38Z</time>
      </trkpt>
      <trkpt lat="48.58417" lon="2.08474">
        <ele>107.2</ele>
        <time>2026-02-02T14:17:39Z</time>
      </trkpt>
      <trkpt lat="48.5842" lon="2.08467">
        <ele>107.2</ele>
        <time>2026-02-02T14:17:40Z</time>
      </trkpt>
      <trkpt lat="48.58422" lon="2.0846">
        <ele>107.4</ele>
        <time>2026-02-02T14:17:41Z</time>
      </trkpt>
      <trkpt lat="48.58424" lon="2.08453">
        <ele>107.4</ele>
        <time>2026-02-02T14:17:42Z</time>
      </trkpt>
      <trkpt lat="48.58426" lon="2.08446">
        <ele>107.4</ele>
        <time>2026-02-02T14:17:43Z</time>
      </trkpt>
      <trkpt lat="48.58428" lon="2.08438">
        <ele>107.4</ele>
        <time>2026-02-02T14:17:44Z</time>
      </trkpt>
      <trkpt lat="48.5843" lon="2.08431">
        <ele>107.8</ele>
        <time>2026-02-02T14:17:45Z</time>
      </trkpt>
      <trkpt lat="48.58432" lon="2.08423">
        <ele>107.8</ele>
        <time>2026-02-02T14:17:46Z</time>
      </trkpt>
      <trkpt lat="48.58435" lon="2.08416">
        <ele>107.8</ele>
        <time>2026-02-02T14:17:47Z</time>
      </trkpt>
      <trkpt lat="48.58437" lon="2.08409">
        <ele>107.8</ele>
        <time>2026-02-02T14:17:48Z</time>
      </trkpt>
      <trkpt lat="48.58439" lon="2.08402">
        <ele>108.4</ele>
        <time>2026-02-02T14:17:49Z</time>
      </trkpt>
      <trkpt lat="48.58441" lon="2.08396">
        <ele>108.4</ele>
        <time>2026-02-02T14:17:50Z</time>
      </trkpt>
      <trkpt lat="48.58443" lon="2.0839">
        <ele>108.4</ele>
        <time>2026-02-02T14:17:51Z</time>
      </trkpt>
      <trkpt lat="48.58445" lon="2.08383">
        <ele>108.4</ele>
        <time>2026-02-02T14:17:52Z</time>
      </trkpt>
      <trkpt lat="48.58447" lon="2.08377">
        <ele>108.6</ele>
        <time>2026-02-02T14:17:53Z</time>
      </trkpt>
      <trkpt lat="48.58449" lon="2.08371">
        <ele>108.6</ele>
        <time>2026-02-02T14:17:54Z</time>
      </trkpt>
      <trkpt lat="48.58452" lon="2.08365">
        <ele>108.6</ele>
        <time>2026-02-02T14:17:55Z</time>
      </trkpt>
      <trkpt lat="48.58454" lon="2.08359">
        <ele>109.6</ele>
        <time>2026-02-02T14:17:56Z</time>
      </trkpt>
      <trkpt lat="48.58455" lon="2.08353">
        <ele>109.6</ele>
        <time>2026-02-02T14:17:57Z</time>
      </trkpt>
      <trkpt lat="48.58457" lon="2.08347">
        <ele>109.6</ele>
        <time>2026-02-02T14:17:58Z</time>
      </trkpt>
      <trkpt lat="48.58459" lon="2.08342">
        <ele>109.6</ele>
        <time>2026-02-02T14:17:59Z</time>
      </trkpt>
      <trkpt lat="48.58462" lon="2.08336">
        <ele>110</ele>
        <time>2026-02-02T14:18:00Z</time>
      </trkpt>
      <trkpt lat="48.58463" lon="2.0833">
        <ele>110</ele>
        <time>2026-02-02T14:18:01Z</time>
      </trkpt>
      <trkpt lat="48.58466" lon="2.08324">
        <ele>110</ele>
        <time>2026-02-02T14:18:02Z</time>
      </trkpt>
      <trkpt lat="48.58468" lon="2.08319">
        <ele>110</ele>
        <time>2026-02-02T14:18:03Z</time>
      </trkpt>
      <trkpt lat="48.5847" lon="2.08313">
        <ele>110.8</ele>
        <time>2026-02-02T14:18:04Z</time>
      </trkpt>
      <trkpt lat="48.58472" lon="2.08308">
        <ele>110.8</ele>
        <time>2026-02-02T14:18:05Z</time>
      </trkpt>
      <trkpt lat="48.58474" lon="2.08302">
        <ele>110.8</ele>
        <time>2026-02-02T14:18:06Z</time>
      </trkpt>
      <trkpt lat="48.58477" lon="2.08297">
        <ele>110.8</ele>
        <time>2026-02-02T14:18:07Z</time>
      </trkpt>
      <trkpt lat="48.58479" lon="2.08291">
        <ele>110.8</ele>
        <time>2026-02-02T14:18:08Z</time>
      </trkpt>
      <trkpt lat="48.58482" lon="2.08286">
        <ele>111.4</ele>
        <time>2026-02-02T14:18:09Z</time>
      </trkpt>
      <trkpt lat="48.58484" lon="2.08281">
        <ele>111.4</ele>
        <time>2026-02-02T14:18:10Z</time>
      </trkpt>
      <trkpt lat="48.58487" lon="2.08276">
        <ele>111.4</ele>
        <time>2026-02-02T14:18:11Z</time>
      </trkpt>
      <trkpt lat="48.5849" lon="2.0827">
        <ele>111.4</ele>
        <time>2026-02-02T14:18:12Z</time>
      </trkpt>
      <trkpt lat="48.58493" lon="2.08265">
        <ele>111.6</ele>
        <time>2026-02-02T14:18:13Z</time>
      </trkpt>
      <trkpt lat="48.58495" lon="2.0826">
        <ele>111.6</ele>
        <time>2026-02-02T14:18:14Z</time>
      </trkpt>
      <trkpt lat="48.58498" lon="2.08255">
        <ele>111.6</ele>
        <time>2026-02-02T14:18:15Z</time>
      </trkpt>
      <trkpt lat="48.58501" lon="2.0825">
        <ele>112.4</ele>
        <time>2026-02-02T14:18:16Z</time>
      </trkpt>
      <trkpt lat="48.58503" lon="2.08245">
        <ele>112.2</ele>
        <time>2026-02-02T14:18:17Z</time>
      </trkpt>
      <trkpt lat="48.58506" lon="2.0824">
        <ele>112.2</ele>
        <time>2026-02-02T14:18:18Z</time>
      </trkpt>
      <trkpt lat="48.58509" lon="2.08235">
        <ele>112.2</ele>
        <time>2026-02-02T14:18:19Z</time>
      </trkpt>
      <trkpt lat="48.58512" lon="2.0823">
        <ele>112.2</ele>
        <time>2026-02-02T14:18:20Z</time>
      </trkpt>
      <trkpt lat="48.58514" lon="2.08225">
        <ele>112.4</ele>
        <time>2026-02-02T14:18:21Z</time>
      </trkpt>
      <trkpt lat="48.58517" lon="2.0822">
        <ele>112.4</ele>
        <time>2026-02-02T14:18:22Z</time>
      </trkpt>
      <trkpt lat="48.58519" lon="2.08214">
        <ele>112.4</ele>
        <time>2026-02-02T14:18:23Z</time>
      </trkpt>
      <trkpt lat="48.58522" lon="2.0821">
        <ele>112.4</ele>
        <time>2026-02-02T14:18:24Z</time>
      </trkpt>
      <trkpt lat="48.58525" lon="2.08205">
        <ele>112.6</ele>
        <time>2026-02-02T14:18:25Z</time>
      </trkpt>
      <trkpt lat="48.58527" lon="2.082">
        <ele>112.6</ele>
        <time>2026-02-02T14:18:26Z</time>
      </trkpt>
      <trkpt lat="48.5853" lon="2.08195">
        <ele>112.6</ele>
        <time>2026-02-02T14:18:27Z</time>
      </trkpt>
      <trkpt lat="48.58533" lon="2.0819">
        <ele>113.2</ele>
        <time>2026-02-02T14:18:28Z</time>
      </trkpt>
      <trkpt lat="48.58536" lon="2.08185">
        <ele>113</ele>
        <time>2026-02-02T14:18:29Z</time>
      </trkpt>
      <trkpt lat="48.58538" lon="2.0818">
        <ele>113</ele>
        <time>2026-02-02T14:18:30Z</time>
      </trkpt>
      <trkpt lat="48.58541" lon="2.08175">
        <ele>113</ele>
        <time>2026-02-02T14:18:31Z</time>
      </trkpt>
      <trkpt lat="48.58543" lon="2.0817">
        <ele>113.4</ele>
        <time>2026-02-02T14:18:32Z</time>
      </trkpt>
      <trkpt lat="48.58546" lon="2.08165">
        <ele>113.8</ele>
        <time>2026-02-02T14:18:33Z</time>
      </trkpt>
      <trkpt lat="48.58548" lon="2.0816">
        <ele>113.8</ele>
        <time>2026-02-02T14:18:34Z</time>
      </trkpt>
      <trkpt lat="48.58551" lon="2.08155">
        <ele>113.8</ele>
        <time>2026-02-02T14:18:35Z</time>
      </trkpt>
      <trkpt lat="48.58554" lon="2.0815">
        <ele>113.8</ele>
        <time>2026-02-02T14:18:36Z</time>
      </trkpt>
      <trkpt lat="48.58556" lon="2.08145">
        <ele>113.8</ele>
        <time>2026-02-02T14:18:37Z</time>
      </trkpt>
      <trkpt lat="48.58559" lon="2.0814">
        <ele>113.8</ele>
        <time>2026-02-02T14:18:38Z</time>
      </trkpt>
      <trkpt lat="48.58561" lon="2.08134">
        <ele>113.8</ele>
        <time>2026-02-02T14:18:39Z</time>
      </trkpt>
      <trkpt lat="48.58564" lon="2.08129">
        <ele>114.2</ele>
        <time>2026-02-02T14:18:40Z</time>
      </trkpt>
      <trkpt lat="48.58566" lon="2.08124">
        <ele>114.4</ele>
        <time>2026-02-02T14:18:41Z</time>
      </trkpt>
      <trkpt lat="48.58569" lon="2.08118">
        <ele>114.4</ele>
        <time>2026-02-02T14:18:42Z</time>
      </trkpt>
      <trkpt lat="48.58571" lon="2.08113">
        <ele>114.4</ele>
        <time>2026-02-02T14:18:43Z</time>
      </trkpt>
      <trkpt lat="48.58574" lon="2.08107">
        <ele>114.4</ele>
        <time>2026-02-02T14:18:44Z</time>
      </trkpt>
      <trkpt lat="48.58576" lon="2.08102">
        <ele>114.6</ele>
        <time>2026-02-02T14:18:45Z</time>
      </trkpt>
      <trkpt lat="48.58579" lon="2.08096">
        <ele>114.6</ele>
        <time>2026-02-02T14:18:46Z</time>
      </trkpt>
      <trkpt lat="48.58581" lon="2.08091">
        <ele>114.6</ele>
        <time>2026-02-02T14:18:47Z</time>
      </trkpt>
      <trkpt lat="48.58584" lon="2.08086">
        <ele>115.2</ele>
        <time>2026-02-02T14:18:48Z</time>
      </trkpt>
      <trkpt lat="48.58586" lon="2.0808">
        <ele>115.6</ele>
        <time>2026-02-02T14:18:49Z</time>
      </trkpt>
      <trkpt lat="48.58588" lon="2.08075">
        <ele>115.6</ele>
        <time>2026-02-02T14:18:50Z</time>
      </trkpt>
      <trkpt lat="48.58591" lon="2.0807">
        <ele>115.6</ele>
        <time>2026-02-02T14:18:51Z</time>
      </trkpt>
      <trkpt lat="48.58593" lon="2.08064">
        <ele>115.6</ele>
        <time>2026-02-02T14:18:52Z</time>
      </trkpt>
      <trkpt lat="48.58595" lon="2.08058">
        <ele>116.2</ele>
        <time>2026-02-02T14:18:53Z</time>
      </trkpt>
      <trkpt lat="48.58598" lon="2.08053">
        <ele>116.2</ele>
        <time>2026-02-02T14:18:54Z</time>
      </trkpt>
      <trkpt lat="48.586" lon="2.08048">
        <ele>116.2</ele>
        <time>2026-02-02T14:18:55Z</time>
      </trkpt>
      <trkpt lat="48.58603" lon="2.08043">
        <ele>116.2</ele>
        <time>2026-02-02T14:18:56Z</time>
      </trkpt>
      <trkpt lat="48.58605" lon="2.08038">
        <ele>116.4</ele>
        <time>2026-02-02T14:18:57Z</time>
      </trkpt>
      <trkpt lat="48.58607" lon="2.08032">
        <ele>116.4</ele>
        <time>2026-02-02T14:18:58Z</time>
      </trkpt>
      <trkpt lat="48.58609" lon="2.08027">
        <ele>116.4</ele>
        <time>2026-02-02T14:18:59Z</time>
      </trkpt>
      <trkpt lat="48.58611" lon="2.08021">
        <ele>117.4</ele>
        <time>2026-02-02T14:19:00Z</time>
      </trkpt>
      <trkpt lat="48.58613" lon="2.08015">
        <ele>117.8</ele>
        <time>2026-02-02T14:19:01Z</time>
      </trkpt>
      <trkpt lat="48.58615" lon="2.0801">
        <ele>117.8</ele>
        <time>2026-02-02T14:19:02Z</time>
      </trkpt>
      <trkpt lat="48.58617" lon="2.08004">
        <ele>117.8</ele>
        <time>2026-02-02T14:19:03Z</time>
      </trkpt>
      <trkpt lat="48.58619" lon="2.07998">
        <ele>117.8</ele>
        <time>2026-02-02T14:19:04Z</time>
      </trkpt>
      <trkpt lat="48.58621" lon="2.07992">
        <ele>118.6</ele>
        <time>2026-02-02T14:19:05Z</time>
      </trkpt>
      <trkpt lat="48.58623" lon="2.07986">
        <ele>118.6</ele>
        <time>2026-02-02T14:19:06Z</time>
      </trkpt>
      <trkpt lat="48.58625" lon="2.07979">
        <ele>118.6</ele>
        <time>2026-02-02T14:19:07Z</time>
      </trkpt>
      <trkpt lat="48.58627" lon="2.07973">
        <ele>119.4</ele>
        <time>2026-02-02T14:19:08Z</time>
      </trkpt>
      <trkpt lat="48.58629" lon="2.07967">
        <ele>119.4</ele>
        <time>2026-02-02T14:19:09Z</time>
      </trkpt>
      <trkpt lat="48.58631" lon="2.07961">
        <ele>119.4</ele>
        <time>2026-02-02T14:19:10Z</time>
      </trkpt>
      <trkpt lat="48.58633" lon="2.07955">
        <ele>119.4</ele>
        <time>2026-02-02T14:19:11Z</time>
      </trkpt>
      <trkpt lat="48.58635" lon="2.07949">
        <ele>119.4</ele>
        <time>2026-02-02T14:19:12Z</time>
      </trkpt>
      <trkpt lat="48.58637" lon="2.07943">
        <ele>119.6</ele>
        <time>2026-02-02T14:19:13Z</time>
      </trkpt>
      <trkpt lat="48.58639" lon="2.07937">
        <ele>119.6</ele>
        <time>2026-02-02T14:19:14Z</time>
      </trkpt>
      <trkpt lat="48.58641" lon="2.07932">
        <ele>119.6</ele>
        <time>2026-02-02T14:19:15Z</time>
      </trkpt>
      <trkpt lat="48.58643" lon="2.07926">
        <ele>119.6</ele>
        <time>2026-02-02T14:19:16Z</time>
      </trkpt>
      <trkpt lat="48.58645" lon="2.0792">
        <ele>120.4</ele>
        <time>2026-02-02T14:19:17Z</time>
      </trkpt>
      <trkpt lat="48.58647" lon="2.07915">
        <ele>120.4</ele>
        <time>2026-02-02T14:19:18Z</time>
      </trkpt>
      <trkpt lat="48.58649" lon="2.0791">
        <ele>120.4</ele>
        <time>2026-02-02T14:19:19Z</time>
      </trkpt>
      <trkpt lat="48.58652" lon="2.07904">
        <ele>120</ele>
        <time>2026-02-02T14:19:20Z</time>
      </trkpt>
      <trkpt lat="48.58653" lon="2.07899">
        <ele>120.4</ele>
        <time>2026-02-02T14:19:21Z</time>
      </trkpt>
      <trkpt lat="48.58655" lon="2.07893">
        <ele>120.4</ele>
        <time>2026-02-02T14:19:22Z</time>
      </trkpt>
      <trkpt lat="48.58657" lon="2.07888">
        <ele>120.4</ele>
        <time>2026-02-02T14:19:23Z</time>
      </trkpt>
      <trkpt lat="48.5866" lon="2.07882">
        <ele>120.4</ele>
        <time>2026-02-02T14:19:24Z</time>
      </trkpt>
      <trkpt lat="48.58662" lon="2.07877">
        <ele>120.6</ele>
        <time>2026-02-02T14:19:25Z</time>
      </trkpt>
      <trkpt lat="48.58664" lon="2.07872">
        <ele>120.6</ele>
        <time>2026-02-02T14:19:26Z</time>
      </trkpt>
      <trkpt lat="48.58666" lon="2.07866">
        <ele>120.6</ele>
        <time>2026-02-02T14:19:27Z</time>
      </trkpt>
      <trkpt lat="48.58668" lon="2.0786">
        <ele>120.6</ele>
        <time>2026-02-02T14:19:28Z</time>
      </trkpt>
      <trkpt lat="48.5867" lon="2.07855">
        <ele>121</ele>
        <time>2026-02-02T14:19:29Z</time>
      </trkpt>
      <trkpt lat="48.58672" lon="2.07849">
        <ele>121</ele>
        <time>2026-02-02T14:19:30Z</time>
      </trkpt>
      <trkpt lat="48.58675" lon="2.07843">
        <ele>121</ele>
        <time>2026-02-02T14:19:31Z</time>
      </trkpt>
      <trkpt lat="48.58677" lon="2.07838">
        <ele>121.2</ele>
        <time>2026-02-02T14:19:32Z</time>
      </trkpt>
      <trkpt lat="48.58679" lon="2.07833">
        <ele>121.2</ele>
        <time>2026-02-02T14:19:33Z</time>
      </trkpt>
      <trkpt lat="48.58682" lon="2.07827">
        <ele>121.2</ele>
        <time>2026-02-02T14:19:34Z</time>
      </trkpt>
      <trkpt lat="48.58684" lon="2.07821">
        <ele>121.2</ele>
        <time>2026-02-02T14:19:35Z</time>
      </trkpt>
      <trkpt lat="48.58686" lon="2.07816">
        <ele>122</ele>
        <time>2026-02-02T14:19:36Z</time>
      </trkpt>
      <trkpt lat="48.58689" lon="2.0781">
        <ele>122</ele>
        <time>2026-02-02T14:19:37Z</time>
      </trkpt>
      <trkpt lat="48.58691" lon="2.07804">
        <ele>122</ele>
        <time>2026-02-02T14:19:38Z</time>
      </trkpt>
      <trkpt lat="48.58693" lon="2.07798">
        <ele>122</ele>
        <time>2026-02-02T14:19:39Z</time>
      </trkpt>
      <trkpt lat="48.58695" lon="2.07792">
        <ele>122</ele>
        <time>2026-02-02T14:19:40Z</time>
      </trkpt>
      <trkpt lat="48.58697" lon="2.07787">
        <ele>122.2</ele>
        <time>2026-02-02T14:19:41Z</time>
      </trkpt>
      <trkpt lat="48.587" lon="2.07781">
        <ele>122.2</ele>
        <time>2026-02-02T14:19:42Z</time>
      </trkpt>
      <trkpt lat="48.58702" lon="2.07775">
        <ele>122.2</ele>
        <time>2026-02-02T14:19:43Z</time>
      </trkpt>
      <trkpt lat="48.58704" lon="2.07769">
        <ele>122.2</ele>
        <time>2026-02-02T14:19:44Z</time>
      </trkpt>
      <trkpt lat="48.58707" lon="2.07764">
        <ele>122.4</ele>
        <time>2026-02-02T14:19:45Z</time>
      </trkpt>
      <trkpt lat="48.58709" lon="2.07758">
        <ele>122.4</ele>
        <time>2026-02-02T14:19:46Z</time>
      </trkpt>
      <trkpt lat="48.58711" lon="2.07752">
        <ele>122.4</ele>
        <time>2026-02-02T14:19:47Z</time>
      </trkpt>
      <trkpt lat="48.58714" lon="2.07747">
        <ele>122.6</ele>
        <time>2026-02-02T14:19:48Z</time>
      </trkpt>
      <trkpt lat="48.58716" lon="2.07741">
        <ele>122.6</ele>
        <time>2026-02-02T14:19:49Z</time>
      </trkpt>
      <trkpt lat="48.58718" lon="2.07735">
        <ele>122.6</ele>
        <time>2026-02-02T14:19:50Z</time>
      </trkpt>
      <trkpt lat="48.5872" lon="2.07729">
        <ele>122.6</ele>
        <time>2026-02-02T14:19:51Z</time>
      </trkpt>
      <trkpt lat="48.58723" lon="2.07724">
        <ele>122.8</ele>
        <time>2026-02-02T14:19:52Z</time>
      </trkpt>
      <trkpt lat="48.58725" lon="2.07719">
        <ele>122.8</ele>
        <time>2026-02-02T14:19:53Z</time>
      </trkpt>
      <trkpt lat="48.58728" lon="2.07713">
        <ele>122.8</ele>
        <time>2026-02-02T14:19:54Z</time>
      </trkpt>
      <trkpt lat="48.5873" lon="2.07707">
        <ele>122.8</ele>
        <time>2026-02-02T14:19:55Z</time>
      </trkpt>
      <trkpt lat="48.58732" lon="2.07701">
        <ele>123.2</ele>
        <time>2026-02-02T14:19:56Z</time>
      </trkpt>
      <trkpt lat="48.58735" lon="2.07696">
        <ele>123.4</ele>
        <time>2026-02-02T14:19:57Z</time>
      </trkpt>
      <trkpt lat="48.58737" lon="2.0769">
        <ele>123.4</ele>
        <time>2026-02-02T14:19:58Z</time>
      </trkpt>
      <trkpt lat="48.5874" lon="2.07685">
        <ele>123.4</ele>
        <time>2026-02-02T14:19:59Z</time>
      </trkpt>
      <trkpt lat="48.58743" lon="2.0768">
        <ele>123.4</ele>
        <time>2026-02-02T14:20:00Z</time>
      </trkpt>
      <trkpt lat="48.58745" lon="2.07674">
        <ele>123.6</ele>
        <time>2026-02-02T14:20:01Z</time>
      </trkpt>
      <trkpt lat="48.58748" lon="2.07669">
        <ele>123.6</ele>
        <time>2026-02-02T14:20:02Z</time>
      </trkpt>
      <trkpt lat="48.58751" lon="2.07663">
        <ele>123.6</ele>
        <time>2026-02-02T14:20:03Z</time>
      </trkpt>
      <trkpt lat="48.58754" lon="2.07658">
        <ele>123.6</ele>
        <time>2026-02-02T14:20:04Z</time>
      </trkpt>
      <trkpt lat="48.58756" lon="2.07652">
        <ele>123.8</ele>
        <time>2026-02-02T14:20:05Z</time>
      </trkpt>
      <trkpt lat="48.58759" lon="2.07646">
        <ele>123.8</ele>
        <time>2026-02-02T14:20:06Z</time>
      </trkpt>
      <trkpt lat="48.58762" lon="2.07641">
        <ele>123.8</ele>
        <time>2026-02-02T14:20:07Z</time>
      </trkpt>
      <trkpt lat="48.58764" lon="2.07635">
        <ele>124.6</ele>
        <time>2026-02-02T14:20:08Z</time>
      </trkpt>
      <trkpt lat="48.58767" lon="2.0763">
        <ele>124.6</ele>
        <time>2026-02-02T14:20:09Z</time>
      </trkpt>
      <trkpt lat="48.5877" lon="2.07624">
        <ele>124.6</ele>
        <time>2026-02-02T14:20:10Z</time>
      </trkpt>
      <trkpt lat="48.58773" lon="2.07618">
        <ele>124.6</ele>
        <time>2026-02-02T14:20:11Z</time>
      </trkpt>
      <trkpt lat="48.58775" lon="2.07613">
        <ele>125.2</ele>
        <time>2026-02-02T14:20:12Z</time>
      </trkpt>
      <trkpt lat="48.58778" lon="2.07607">
        <ele>125.2</ele>
        <time>2026-02-02T14:20:13Z</time>
      </trkpt>
      <trkpt lat="48.5878" lon="2.076">
        <ele>125.2</ele>
        <time>2026-02-02T14:20:14Z</time>
      </trkpt>
      <trkpt lat="48.58783" lon="2.07595">
        <ele>125.2</ele>
        <time>2026-02-02T14:20:15Z</time>
      </trkpt>
      <trkpt lat="48.58785" lon="2.07589">
        <ele>125.2</ele>
        <time>2026-02-02T14:20:16Z</time>
      </trkpt>
      <trkpt lat="48.58788" lon="2.07583">
        <ele>125.4</ele>
        <time>2026-02-02T14:20:17Z</time>
      </trkpt>
      <trkpt lat="48.58791" lon="2.07577">
        <ele>125.4</ele>
        <time>2026-02-02T14:20:18Z</time>
      </trkpt>
      <trkpt lat="48.58794" lon="2.0757">
        <ele>125.4</ele>
        <time>2026-02-02T14:20:19Z</time>
      </trkpt>
      <trkpt lat="48.58796" lon="2.07563">
        <ele>125.8</ele>
        <time>2026-02-02T14:20:20Z</time>
      </trkpt>
      <trkpt lat="48.58799" lon="2.07557">
        <ele>125.8</ele>
        <time>2026-02-02T14:20:21Z</time>
      </trkpt>
      <trkpt lat="48.58802" lon="2.0755">
        <ele>125.8</ele>
        <time>2026-02-02T14:20:22Z</time>
      </trkpt>
      <trkpt lat="48.58805" lon="2.07543">
        <ele>125.8</ele>
        <time>2026-02-02T14:20:23Z</time>
      </trkpt>
      <trkpt lat="48.58807" lon="2.07537">
        <ele>126</ele>
        <time>2026-02-02T14:20:24Z</time>
      </trkpt>
      <trkpt lat="48.5881" lon="2.07531">
        <ele>125.8</ele>
        <time>2026-02-02T14:20:25Z</time>
      </trkpt>
      <trkpt lat="48.58812" lon="2.07524">
        <ele>125.8</ele>
        <time>2026-02-02T14:20:26Z</time>
      </trkpt>
      <trkpt lat="48.58815" lon="2.07517">
        <ele>125.8</ele>
        <time>2026-02-02T14:20:27Z</time>
      </trkpt>
      <trkpt lat="48.58817" lon="2.07511">
        <ele>126.8</ele>
        <time>2026-02-02T14:20:28Z</time>
      </trkpt>
      <trkpt lat="48.58819" lon="2.07504">
        <ele>126.6</ele>
        <time>2026-02-02T14:20:29Z</time>
      </trkpt>
      <trkpt lat="48.58822" lon="2.07497">
        <ele>126.6</ele>
        <time>2026-02-02T14:20:30Z</time>
      </trkpt>
      <trkpt lat="48.58824" lon="2.0749">
        <ele>126.6</ele>
        <time>2026-02-02T14:20:31Z</time>
      </trkpt>
      <trkpt lat="48.58826" lon="2.07483">
        <ele>127</ele>
        <time>2026-02-02T14:20:32Z</time>
      </trkpt>
      <trkpt lat="48.58829" lon="2.07476">
        <ele>126.8</ele>
        <time>2026-02-02T14:20:33Z</time>
      </trkpt>
      <trkpt lat="48.58831" lon="2.07469">
        <ele>126.8</ele>
        <time>2026-02-02T14:20:34Z</time>
      </trkpt>
      <trkpt lat="48.58834" lon="2.07462">
        <ele>126.8</ele>
        <time>2026-02-02T14:20:35Z</time>
      </trkpt>
      <trkpt lat="48.58836" lon="2.07455">
        <ele>127.4</ele>
        <time>2026-02-02T14:20:36Z</time>
      </trkpt>
      <trkpt lat="48.58838" lon="2.07448">
        <ele>127.6</ele>
        <time>2026-02-02T14:20:37Z</time>
      </trkpt>
      <trkpt lat="48.58841" lon="2.07442">
        <ele>127.6</ele>
        <time>2026-02-02T14:20:38Z</time>
      </trkpt>
      <trkpt lat="48.58843" lon="2.07435">
        <ele>127.6</ele>
        <time>2026-02-02T14:20:39Z</time>
      </trkpt>
      <trkpt lat="48.58845" lon="2.07429">
        <ele>127.6</ele>
        <time>2026-02-02T14:20:40Z</time>
      </trkpt>
      <trkpt lat="48.58848" lon="2.07422">
        <ele>128.4</ele>
        <time>2026-02-02T14:20:41Z</time>
      </trkpt>
      <trkpt lat="48.5885" lon="2.07416">
        <ele>128.4</ele>
        <time>2026-02-02T14:20:42Z</time>
      </trkpt>
      <trkpt lat="48.58852" lon="2.07409">
        <ele>128.4</ele>
        <time>2026-02-02T14:20:43Z</time>
      </trkpt>
      <trkpt lat="48.58855" lon="2.07403">
        <ele>128.4</ele>
        <time>2026-02-02T14:20:44Z</time>
      </trkpt>
      <trkpt lat="48.58857" lon="2.07396">
        <ele>128.8</ele>
        <time>2026-02-02T14:20:45Z</time>
      </trkpt>
      <trkpt lat="48.5886" lon="2.0739">
        <ele>128.8</ele>
        <time>2026-02-02T14:20:46Z</time>
      </trkpt>
      <trkpt lat="48.58862" lon="2.07384">
        <ele>128.8</ele>
        <time>2026-02-02T14:20:47Z</time>
      </trkpt>
      <trkpt lat="48.58865" lon="2.07377">
        <ele>128.8</ele>
        <time>2026-02-02T14:20:48Z</time>
      </trkpt>
      <trkpt lat="48.58867" lon="2.07371">
        <ele>129.2</ele>
        <time>2026-02-02T14:20:49Z</time>
      </trkpt>
      <trkpt lat="48.58869" lon="2.07364">
        <ele>129.2</ele>
        <time>2026-02-02T14:20:50Z</time>
      </trkpt>
      <trkpt lat="48.58872" lon="2.07358">
        <ele>129.2</ele>
        <time>2026-02-02T14:20:51Z</time>
      </trkpt>
      <trkpt lat="48.58874" lon="2.07351">
        <ele>129.2</ele>
        <time>2026-02-02T14:20:52Z</time>
      </trkpt>
      <trkpt lat="48.58877" lon="2.07345">
        <ele>129.6</ele>
        <time>2026-02-02T14:20:53Z</time>
      </trkpt>
      <trkpt lat="48.5888" lon="2.07339">
        <ele>129.6</ele>
        <time>2026-02-02T14:20:54Z</time>
      </trkpt>
      <trkpt lat="48.58882" lon="2.07332">
        <ele>129.6</ele>
        <time>2026-02-02T14:20:55Z</time>
      </trkpt>
      <trkpt lat="48.58885" lon="2.07326">
        <ele>129.6</ele>
        <time>2026-02-02T14:20:56Z</time>
      </trkpt>
      <trkpt lat="48.58889" lon="2.0732">
        <ele>129.8</ele>
        <time>2026-02-02T14:20:57Z</time>
      </trkpt>
      <trkpt lat="48.58892" lon="2.07315">
        <ele>129.8</ele>
        <time>2026-02-02T14:20:58Z</time>
      </trkpt>
      <trkpt lat="48.58896" lon="2.07309">
        <ele>129.8</ele>
        <time>2026-02-02T14:20:59Z</time>
      </trkpt>
      <trkpt lat="48.589" lon="2.07303">
        <ele>129.8</ele>
        <time>2026-02-02T14:21:00Z</time>
      </trkpt>
      <trkpt lat="48.58904" lon="2.07298">
        <ele>129.4</ele>
        <time>2026-02-02T14:21:01Z</time>
      </trkpt>
      <trkpt lat="48.58908" lon="2.07292">
        <ele>129.4</ele>
        <time>2026-02-02T14:21:02Z</time>
      </trkpt>
      <trkpt lat="48.58912" lon="2.07287">
        <ele>129.4</ele>
        <time>2026-02-02T14:21:03Z</time>
      </trkpt>
      <trkpt lat="48.58917" lon="2.07282">
        <ele>129.4</ele>
        <time>2026-02-02T14:21:04Z</time>
      </trkpt>
      <trkpt lat="48.58922" lon="2.07277">
        <ele>128.8</ele>
        <time>2026-02-02T14:21:05Z</time>
      </trkpt>
      <trkpt lat="48.58928" lon="2.07272">
        <ele>128.8</ele>
        <time>2026-02-02T14:21:06Z</time>
      </trkpt>
      <trkpt lat="48.58934" lon="2.07268">
        <ele>128.8</ele>
        <time>2026-02-02T14:21:07Z</time>
      </trkpt>
      <trkpt lat="48.58939" lon="2.07264">
        <ele>128.8</ele>
        <time>2026-02-02T14:21:08Z</time>
      </trkpt>
      <trkpt lat="48.58945" lon="2.07261">
        <ele>129</ele>
        <time>2026-02-02T14:21:09Z</time>
      </trkpt>
      <trkpt lat="48.58951" lon="2.07258">
        <ele>129</ele>
        <time>2026-02-02T14:21:10Z</time>
      </trkpt>
      <trkpt lat="48.58957" lon="2.07255">
        <ele>129</ele>
        <time>2026-02-02T14:21:11Z</time>
      </trkpt>
      <trkpt lat="48.58963" lon="2.07252">
        <ele>128</ele>
        <time>2026-02-02T14:21:12Z</time>
      </trkpt>
      <trkpt lat="48.58969" lon="2.0725">
        <ele>128.4</ele>
        <time>2026-02-02T14:21:13Z</time>
      </trkpt>
      <trkpt lat="48.58975" lon="2.07248">
        <ele>128.4</ele>
        <time>2026-02-02T14:21:14Z</time>
      </trkpt>
      <trkpt lat="48.58981" lon="2.07246">
        <ele>128.4</ele>
        <time>2026-02-02T14:21:15Z</time>
      </trkpt>
      <trkpt lat="48.58987" lon="2.07245">
        <ele>128</ele>
        <time>2026-02-02T14:21:16Z</time>
      </trkpt>
      <trkpt lat="48.58993" lon="2.07243">
        <ele>127.8</ele>
        <time>2026-02-02T14:21:17Z</time>
      </trkpt>
      <trkpt lat="48.58999" lon="2.07242">
        <ele>127.8</ele>
        <time>2026-02-02T14:21:18Z</time>
      </trkpt>
      <trkpt lat="48.59005" lon="2.07241">
        <ele>127.8</ele>
        <time>2026-02-02T14:21:19Z</time>
      </trkpt>
      <trkpt lat="48.59011" lon="2.0724">
        <ele>128.4</ele>
        <time>2026-02-02T14:21:20Z</time>
      </trkpt>
      <trkpt lat="48.59016" lon="2.07239">
        <ele>128.2</ele>
        <time>2026-02-02T14:21:21Z</time>
      </trkpt>
      <trkpt lat="48.59022" lon="2.07238">
        <ele>128.2</ele>
        <time>2026-02-02T14:21:22Z</time>
      </trkpt>
      <trkpt lat="48.59027" lon="2.07238">
        <ele>128.2</ele>
        <time>2026-02-02T14:21:23Z</time>
      </trkpt>
      <trkpt lat="48.59033" lon="2.07237">
        <ele>128.2</ele>
        <time>2026-02-02T14:21:24Z</time>
      </trkpt>
      <trkpt lat="48.59038" lon="2.07236">
        <ele>128.6</ele>
        <time>2026-02-02T14:21:25Z</time>
      </trkpt>
      <trkpt lat="48.59043" lon="2.07236">
        <ele>128.6</ele>
        <time>2026-02-02T14:21:26Z</time>
      </trkpt>
      <trkpt lat="48.59047" lon="2.07235">
        <ele>128.6</ele>
        <time>2026-02-02T14:21:27Z</time>
      </trkpt>
      <trkpt lat="48.59052" lon="2.07234">
        <ele>129.2</ele>
        <time>2026-02-02T14:21:28Z</time>
      </trkpt>
      <trkpt lat="48.59056" lon="2.07234">
        <ele>129.4</ele>
        <time>2026-02-02T14:21:29Z</time>
      </trkpt>
      <trkpt lat="48.5906" lon="2.07233">
        <ele>129.4</ele>
        <time>2026-02-02T14:21:30Z</time>
      </trkpt>
      <trkpt lat="48.59064" lon="2.07232">
        <ele>129.4</ele>
        <time>2026-02-02T14:21:31Z</time>
      </trkpt>
      <trkpt lat="48.59068" lon="2.07232">
        <ele>129.8</ele>
        <time>2026-02-02T14:21:32Z</time>
      </trkpt>
      <trkpt lat="48.59072" lon="2.07232">
        <ele>130.2</ele>
        <time>2026-02-02T14:21:33Z</time>
      </trkpt>
      <trkpt lat="48.59076" lon="2.07232">
        <ele>130.2</ele>
        <time>2026-02-02T14:21:34Z</time>
      </trkpt>
      <trkpt lat="48.5908" lon="2.07231">
        <ele>130.2</ele>
        <time>2026-02-02T14:21:35Z</time>
      </trkpt>
      <trkpt lat="48.59085" lon="2.0723">
        <ele>130.6</ele>
        <time>2026-02-02T14:21:36Z</time>
      </trkpt>
      <trkpt lat="48.59089" lon="2.0723">
        <ele>130.6</ele>
        <time>2026-02-02T14:21:37Z</time>
      </trkpt>
      <trkpt lat="48.59093" lon="2.07229">
        <ele>130.6</ele>
        <time>2026-02-02T14:21:38Z</time>
      </trkpt>
      <trkpt lat="48.59097" lon="2.07229">
        <ele>130.6</ele>
        <time>2026-02-02T14:21:39Z</time>
      </trkpt>
      <trkpt lat="48.59101" lon="2.07229">
        <ele>131.4</ele>
        <time>2026-02-02T14:21:40Z</time>
      </trkpt>
      <trkpt lat="48.59104" lon="2.07228">
        <ele>131.2</ele>
        <time>2026-02-02T14:21:41Z</time>
      </trkpt>
      <trkpt lat="48.59108" lon="2.07227">
        <ele>131.2</ele>
        <time>2026-02-02T14:21:42Z</time>
      </trkpt>
      <trkpt lat="48.59112" lon="2.07226">
        <ele>131.2</ele>
        <time>2026-02-02T14:21:43Z</time>
      </trkpt>
      <trkpt lat="48.59116" lon="2.07225">
        <ele>131.6</ele>
        <time>2026-02-02T14:21:44Z</time>
      </trkpt>
      <trkpt lat="48.5912" lon="2.07224">
        <ele>131.8</ele>
        <time>2026-02-02T14:21:45Z</time>
      </trkpt>
      <trkpt lat="48.59124" lon="2.07223">
        <ele>131.8</ele>
        <time>2026-02-02T14:21:46Z</time>
      </trkpt>
      <trkpt lat="48.59128" lon="2.07223">
        <ele>131.8</ele>
        <time>2026-02-02T14:21:47Z</time>
      </trkpt>
      <trkpt lat="48.59132" lon="2.07222">
        <ele>132.6</ele>
        <time>2026-02-02T14:21:48Z</time>
      </trkpt>
      <trkpt lat="48.59136" lon="2.07222">
        <ele>132.8</ele>
        <time>2026-02-02T14:21:49Z</time>
      </trkpt>
      <trkpt lat="48.5914" lon="2.07221">
        <ele>132.8</ele>
        <time>2026-02-02T14:21:50Z</time>
      </trkpt>
      <trkpt lat="48.59144" lon="2.0722">
        <ele>132.8</ele>
        <time>2026-02-02T14:21:51Z</time>
      </trkpt>
      <trkpt lat="48.59148" lon="2.07219">
        <ele>132.4</ele>
        <time>2026-02-02T14:21:52Z</time>
      </trkpt>
      <trkpt lat="48.59153" lon="2.07218">
        <ele>133.4</ele>
        <time>2026-02-02T14:21:53Z</time>
      </trkpt>
      <trkpt lat="48.59157" lon="2.07217">
        <ele>133.4</ele>
        <time>2026-02-02T14:21:54Z</time>
      </trkpt>
      <trkpt lat="48.59161" lon="2.07216">
        <ele>133.4</ele>
        <time>2026-02-02T14:21:55Z</time>
      </trkpt>
      <trkpt lat="48.59165" lon="2.07215">
        <ele>133</ele>
        <time>2026-02-02T14:21:56Z</time>
      </trkpt>
      <trkpt lat="48.59169" lon="2.07214">
        <ele>133.4</ele>
        <time>2026-02-02T14:21:57Z</time>
      </trkpt>
      <trkpt lat="48.59173" lon="2.07213">
        <ele>133.4</ele>
        <time>2026-02-02T14:21:58Z</time>
      </trkpt>
      <trkpt lat="48.59177" lon="2.07212">
        <ele>133.4</ele>
        <time>2026-02-02T14:21:59Z</time>
      </trkpt>
      <trkpt lat="48.59181" lon="2.07211">
        <ele>133.4</ele>
        <time>2026-02-02T14:22:00Z</time>
      </trkpt>
      <trkpt lat="48.59185" lon="2.0721">
        <ele>133.4</ele>
        <time>2026-02-02T14:22:01Z</time>
      </trkpt>
      <trkpt lat="48.59189" lon="2.07209">
        <ele>133.4</ele>
        <time>2026-02-02T14:22:02Z</time>
      </trkpt>
      <trkpt lat="48.59193" lon="2.07207">
        <ele>133.4</ele>
        <time>2026-02-02T14:22:03Z</time>
      </trkpt>
      <trkpt lat="48.59197" lon="2.07206">
        <ele>133.8</ele>
        <time>2026-02-02T14:22:04Z</time>
      </trkpt>
      <trkpt lat="48.59201" lon="2.07203">
        <ele>134</ele>
        <time>2026-02-02T14:22:05Z</time>
      </trkpt>
      <trkpt lat="48.59205" lon="2.072">
        <ele>134</ele>
        <time>2026-02-02T14:22:06Z</time>
      </trkpt>
      <trkpt lat="48.59209" lon="2.07197">
        <ele>134</ele>
        <time>2026-02-02T14:22:07Z</time>
      </trkpt>
      <trkpt lat="48.59212" lon="2.07193">
        <ele>134.4</ele>
        <time>2026-02-02T14:22:08Z</time>
      </trkpt>
      <trkpt lat="48.59216" lon="2.0719">
        <ele>134.4</ele>
        <time>2026-02-02T14:22:09Z</time>
      </trkpt>
      <trkpt lat="48.59219" lon="2.07186">
        <ele>134.4</ele>
        <time>2026-02-02T14:22:10Z</time>
      </trkpt>
      <trkpt lat="48.59223" lon="2.07182">
        <ele>134.4</ele>
        <time>2026-02-02T14:22:11Z</time>
      </trkpt>
      <trkpt lat="48.59226" lon="2.07179">
        <ele>134.8</ele>
        <time>2026-02-02T14:22:12Z</time>
      </trkpt>
      <trkpt lat="48.59229" lon="2.07175">
        <ele>134.6</ele>
        <time>2026-02-02T14:22:13Z</time>
      </trkpt>
      <trkpt lat="48.59233" lon="2.07171">
        <ele>134.6</ele>
        <time>2026-02-02T14:22:14Z</time>
      </trkpt>
      <trkpt lat="48.59236" lon="2.07167">
        <ele>134.6</ele>
        <time>2026-02-02T14:22:15Z</time>
      </trkpt>
      <trkpt lat="48.59239" lon="2.07162">
        <ele>135</ele>
        <time>2026-02-02T14:22:16Z</time>
      </trkpt>
      <trkpt lat="48.59243" lon="2.07158">
        <ele>135.2</ele>
        <time>2026-02-02T14:22:17Z</time>
      </trkpt>
      <trkpt lat="48.59246" lon="2.07153">
        <ele>135.2</ele>
        <time>2026-02-02T14:22:18Z</time>
      </trkpt>
      <trkpt lat="48.59248" lon="2.07148">
        <ele>135.2</ele>
        <time>2026-02-02T14:22:19Z</time>
      </trkpt>
      <trkpt lat="48.5925" lon="2.07143">
        <ele>136.2</ele>
        <time>2026-02-02T14:22:20Z</time>
      </trkpt>
      <trkpt lat="48.59252" lon="2.07137">
        <ele>135.8</ele>
        <time>2026-02-02T14:22:21Z</time>
      </trkpt>
      <trkpt lat="48.59253" lon="2.07131">
        <ele>135.8</ele>
        <time>2026-02-02T14:22:22Z</time>
      </trkpt>
      <trkpt lat="48.59254" lon="2.07124">
        <ele>135.8</ele>
        <time>2026-02-02T14:22:23Z</time>
      </trkpt>
      <trkpt lat="48.59255" lon="2.07118">
        <ele>135.8</ele>
        <time>2026-02-02T14:22:24Z</time>
      </trkpt>
      <trkpt lat="48.59255" lon="2.07111">
        <ele>136.2</ele>
        <time>2026-02-02T14:22:25Z</time>
      </trkpt>
      <trkpt lat="48.59255" lon="2.07104">
        <ele>136.2</ele>
        <time>2026-02-02T14:22:26Z</time>
      </trkpt>
      <trkpt lat="48.59255" lon="2.07097">
        <ele>136.2</ele>
        <time>2026-02-02T14:22:27Z</time>
      </trkpt>
      <trkpt lat="48.59255" lon="2.07091">
        <ele>136.2</ele>
        <time>2026-02-02T14:22:28Z</time>
      </trkpt>
      <trkpt lat="48.59254" lon="2.07084">
        <ele>136.4</ele>
        <time>2026-02-02T14:22:29Z</time>
      </trkpt>
      <trkpt lat="48.59254" lon="2.07078">
        <ele>136.4</ele>
        <time>2026-02-02T14:22:30Z</time>
      </trkpt>
      <trkpt lat="48.59254" lon="2.07071">
        <ele>136.4</ele>
        <time>2026-02-02T14:22:31Z</time>
      </trkpt>
      <trkpt lat="48.59253" lon="2.07065">
        <ele>136.4</ele>
        <time>2026-02-02T14:22:32Z</time>
      </trkpt>
      <trkpt lat="48.59253" lon="2.07059">
        <ele>137</ele>
        <time>2026-02-02T14:22:33Z</time>
      </trkpt>
      <trkpt lat="48.59253" lon="2.07052">
        <ele>137</ele>
        <time>2026-02-02T14:22:34Z</time>
      </trkpt>
      <trkpt lat="48.59252" lon="2.07046">
        <ele>137</ele>
        <time>2026-02-02T14:22:35Z</time>
      </trkpt>
      <trkpt lat="48.59252" lon="2.0704">
        <ele>137.4</ele>
        <time>2026-02-02T14:22:36Z</time>
      </trkpt>
      <trkpt lat="48.59252" lon="2.07034">
        <ele>137.4</ele>
        <time>2026-02-02T14:22:37Z</time>
      </trkpt>
      <trkpt lat="48.59252" lon="2.07028">
        <ele>137.4</ele>
        <time>2026-02-02T14:22:38Z</time>
      </trkpt>
      <trkpt lat="48.59251" lon="2.07022">
        <ele>137.4</ele>
        <time>2026-02-02T14:22:39Z</time>
      </trkpt>
      <trkpt lat="48.59251" lon="2.07015">
        <ele>137.4</ele>
        <time>2026-02-02T14:22:40Z</time>
      </trkpt>
      <trkpt lat="48.59251" lon="2.07009">
        <ele>137.6</ele>
        <time>2026-02-02T14:22:41Z</time>
      </trkpt>
      <trkpt lat="48.59251" lon="2.07002">
        <ele>137.6</ele>
        <time>2026-02-02T14:22:42Z</time>
      </trkpt>
      <trkpt lat="48.5925" lon="2.06996">
        <ele>137.6</ele>
        <time>2026-02-02T14:22:43Z</time>
      </trkpt>
      <trkpt lat="48.5925" lon="2.0699">
        <ele>137.6</ele>
        <time>2026-02-02T14:22:44Z</time>
      </trkpt>
      <trkpt lat="48.5925" lon="2.06983">
        <ele>137.6</ele>
        <time>2026-02-02T14:22:45Z</time>
      </trkpt>
      <trkpt lat="48.59249" lon="2.06977">
        <ele>137.6</ele>
        <time>2026-02-02T14:22:46Z</time>
      </trkpt>
      <trkpt lat="48.59249" lon="2.0697">
        <ele>137.6</ele>
        <time>2026-02-02T14:22:47Z</time>
      </trkpt>
      <trkpt lat="48.59249" lon="2.06964">
        <ele>138.2</ele>
        <time>2026-02-02T14:22:48Z</time>
      </trkpt>
      <trkpt lat="48.59249" lon="2.06958">
        <ele>138.2</ele>
        <time>2026-02-02T14:22:49Z</time>
      </trkpt>
      <trkpt lat="48.59249" lon="2.06952">
        <ele>138.2</ele>
        <time>2026-02-02T14:22:50Z</time>
      </trkpt>
      <trkpt lat="48.5925" lon="2.06945">
        <ele>138.2</ele>
        <time>2026-02-02T14:22:51Z</time>
      </trkpt>
      <trkpt lat="48.5925" lon="2.06939">
        <ele>138.2</ele>
        <time>2026-02-02T14:22:52Z</time>
      </trkpt>
      <trkpt lat="48.5925" lon="2.06933">
        <ele>138.8</ele>
        <time>2026-02-02T14:22:53Z</time>
      </trkpt>
      <trkpt lat="48.59249" lon="2.06927">
        <ele>138.8</ele>
        <time>2026-02-02T14:22:54Z</time>
      </trkpt>
      <trkpt lat="48.59248" lon="2.06921">
        <ele>138.8</ele>
        <time>2026-02-02T14:22:55Z</time>
      </trkpt>
      <trkpt lat="48.59246" lon="2.06915">
        <ele>138.8</ele>
        <time>2026-02-02T14:22:56Z</time>
      </trkpt>
      <trkpt lat="48.59244" lon="2.06909">
        <ele>138.8</ele>
        <time>2026-02-02T14:22:57Z</time>
      </trkpt>
      <trkpt lat="48.59242" lon="2.06902">
        <ele>138.8</ele>
        <time>2026-02-02T14:22:58Z</time>
      </trkpt>
      <trkpt lat="48.5924" lon="2.06896">
        <ele>138.8</ele>
        <time>2026-02-02T14:22:59Z</time>
      </trkpt>
      <trkpt lat="48.59238" lon="2.0689">
        <ele>139.2</ele>
        <time>2026-02-02T14:23:00Z</time>
      </trkpt>
      <trkpt lat="48.59236" lon="2.06884">
        <ele>139.2</ele>
        <time>2026-02-02T14:23:01Z</time>
      </trkpt>
      <trkpt lat="48.59234" lon="2.06879">
        <ele>139.2</ele>
        <time>2026-02-02T14:23:02Z</time>
      </trkpt>
      <trkpt lat="48.59231" lon="2.06873">
        <ele>139.2</ele>
        <time>2026-02-02T14:23:03Z</time>
      </trkpt>
      <trkpt lat="48.59229" lon="2.06867">
        <ele>139.2</ele>
        <time>2026-02-02T14:23:04Z</time>
      </trkpt>
      <trkpt lat="48.59227" lon="2.06861">
        <ele>139.2</ele>
        <time>2026-02-02T14:23:05Z</time>
      </trkpt>
      <trkpt lat="48.59226" lon="2.06855">
        <ele>139.2</ele>
        <time>2026-02-02T14:23:06Z</time>
      </trkpt>
      <trkpt lat="48.59224" lon="2.06849">
        <ele>139.2</ele>
        <time>2026-02-02T14:23:07Z</time>
      </trkpt>
      <trkpt lat="48.59222" lon="2.06842">
        <ele>139.2</ele>
        <time>2026-02-02T14:23:08Z</time>
      </trkpt>
      <trkpt lat="48.5922" lon="2.06836">
        <ele>139.6</ele>
        <time>2026-02-02T14:23:09Z</time>
      </trkpt>
      <trkpt lat="48.59219" lon="2.06829">
        <ele>139.6</ele>
        <time>2026-02-02T14:23:10Z</time>
      </trkpt>
      <trkpt lat="48.59217" lon="2.06823">
        <ele>139.6</ele>
        <time>2026-02-02T14:23:11Z</time>
      </trkpt>
      <trkpt lat="48.59215" lon="2.06816">
        <ele>139.6</ele>
        <time>2026-02-02T14:23:12Z</time>
      </trkpt>
      <trkpt lat="48.59213" lon="2.0681">
        <ele>139.6</ele>
        <time>2026-02-02T14:23:13Z</time>
      </trkpt>
      <trkpt lat="48.59212" lon="2.06804">
        <ele>139.6</ele>
        <time>2026-02-02T14:23:14Z</time>
      </trkpt>
      <trkpt lat="48.59211" lon="2.06797">
        <ele>139.6</ele>
        <time>2026-02-02T14:23:15Z</time>
      </trkpt>
      <trkpt lat="48.5921" lon="2.0679">
        <ele>139.8</ele>
        <time>2026-02-02T14:23:16Z</time>
      </trkpt>
      <trkpt lat="48.59208" lon="2.06784">
        <ele>140.4</ele>
        <time>2026-02-02T14:23:17Z</time>
      </trkpt>
      <trkpt lat="48.59207" lon="2.06778">
        <ele>140.4</ele>
        <time>2026-02-02T14:23:18Z</time>
      </trkpt>
      <trkpt lat="48.59205" lon="2.06771">
        <ele>140.4</ele>
        <time>2026-02-02T14:23:19Z</time>
      </trkpt>
      <trkpt lat="48.59203" lon="2.06764">
        <ele>140.2</ele>
        <time>2026-02-02T14:23:20Z</time>
      </trkpt>
      <trkpt lat="48.59202" lon="2.06758">
        <ele>140.6</ele>
        <time>2026-02-02T14:23:21Z</time>
      </trkpt>
      <trkpt lat="48.59201" lon="2.06751">
        <ele>140.6</ele>
        <time>2026-02-02T14:23:22Z</time>
      </trkpt>
      <trkpt lat="48.592" lon="2.06744">
        <ele>140.6</ele>
        <time>2026-02-02T14:23:23Z</time>
      </trkpt>
      <trkpt lat="48.59198" lon="2.06738">
        <ele>140.6</ele>
        <time>2026-02-02T14:23:24Z</time>
      </trkpt>
      <trkpt lat="48.59197" lon="2.06731">
        <ele>140.4</ele>
        <time>2026-02-02T14:23:25Z</time>
      </trkpt>
      <trkpt lat="48.59196" lon="2.06725">
        <ele>140.4</ele>
        <time>2026-02-02T14:23:26Z</time>
      </trkpt>
      <trkpt lat="48.59195" lon="2.06718">
        <ele>140.4</ele>
        <time>2026-02-02T14:23:27Z</time>
      </trkpt>
      <trkpt lat="48.59194" lon="2.06711">
        <ele>140.4</ele>
        <time>2026-02-02T14:23:28Z</time>
      </trkpt>
      <trkpt lat="48.59193" lon="2.06704">
        <ele>140.2</ele>
        <time>2026-02-02T14:23:29Z</time>
      </trkpt>
      <trkpt lat="48.59192" lon="2.06697">
        <ele>140.2</ele>
        <time>2026-02-02T14:23:30Z</time>
      </trkpt>
      <trkpt lat="48.59192" lon="2.0669">
        <ele>140.2</ele>
        <time>2026-02-02T14:23:31Z</time>
      </trkpt>
      <trkpt lat="48.59192" lon="2.06683">
        <ele>141</ele>
        <time>2026-02-02T14:23:32Z</time>
      </trkpt>
      <trkpt lat="48.59192" lon="2.06677">
        <ele>141.4</ele>
        <time>2026-02-02T14:23:33Z</time>
      </trkpt>
      <trkpt lat="48.59192" lon="2.0667">
        <ele>141.4</ele>
        <time>2026-02-02T14:23:34Z</time>
      </trkpt>
      <trkpt lat="48.59193" lon="2.06663">
        <ele>141.4</ele>
        <time>2026-02-02T14:23:35Z</time>
      </trkpt>
      <trkpt lat="48.59194" lon="2.06656">
        <ele>141.4</ele>
        <time>2026-02-02T14:23:36Z</time>
      </trkpt>
      <trkpt lat="48.59194" lon="2.06649">
        <ele>141</ele>
        <time>2026-02-02T14:23:37Z</time>
      </trkpt>
      <trkpt lat="48.59195" lon="2.06643">
        <ele>141</ele>
        <time>2026-02-02T14:23:38Z</time>
      </trkpt>
      <trkpt lat="48.59196" lon="2.06636">
        <ele>141</ele>
        <time>2026-02-02T14:23:39Z</time>
      </trkpt>
      <trkpt lat="48.59196" lon="2.06629">
        <ele>141</ele>
        <time>2026-02-02T14:23:40Z</time>
      </trkpt>
      <trkpt lat="48.59197" lon="2.06622">
        <ele>141.6</ele>
        <time>2026-02-02T14:23:41Z</time>
      </trkpt>
      <trkpt lat="48.59198" lon="2.06615">
        <ele>141.6</ele>
        <time>2026-02-02T14:23:42Z</time>
      </trkpt>
      <trkpt lat="48.59199" lon="2.06608">
        <ele>141.6</ele>
        <time>2026-02-02T14:23:43Z</time>
      </trkpt>
      <trkpt lat="48.592" lon="2.06602">
        <ele>141.6</ele>
        <time>2026-02-02T14:23:44Z</time>
      </trkpt>
      <trkpt lat="48.59202" lon="2.06595">
        <ele>141.8</ele>
        <time>2026-02-02T14:23:45Z</time>
      </trkpt>
      <trkpt lat="48.59203" lon="2.06589">
        <ele>141.8</ele>
        <time>2026-02-02T14:23:46Z</time>
      </trkpt>
      <trkpt lat="48.59204" lon="2.06582">
        <ele>141.8</ele>
        <time>2026-02-02T14:23:47Z</time>
      </trkpt>
      <trkpt lat="48.59204" lon="2.06575">
        <ele>141.8</ele>
        <time>2026-02-02T14:23:48Z</time>
      </trkpt>
      <trkpt lat="48.59205" lon="2.06568">
        <ele>142.2</ele>
        <time>2026-02-02T14:23:49Z</time>
      </trkpt>
      <trkpt lat="48.59206" lon="2.06561">
        <ele>142.2</ele>
        <time>2026-02-02T14:23:50Z</time>
      </trkpt>
      <trkpt lat="48.59207" lon="2.06554">
        <ele>142.2</ele>
        <time>2026-02-02T14:23:51Z</time>
      </trkpt>
      <trkpt lat="48.59208" lon="2.06547">
        <ele>142.2</ele>
        <time>2026-02-02T14:23:52Z</time>
      </trkpt>
      <trkpt lat="48.59208" lon="2.06541">
        <ele>141.8</ele>
        <time>2026-02-02T14:23:53Z</time>
      </trkpt>
      <trkpt lat="48.5921" lon="2.06535">
        <ele>141.8</ele>
        <time>2026-02-02T14:23:54Z</time>
      </trkpt>
      <trkpt lat="48.59211" lon="2.06528">
        <ele>141.8</ele>
        <time>2026-02-02T14:23:55Z</time>
      </trkpt>
      <trkpt lat="48.59211" lon="2.06522">
        <ele>142.4</ele>
        <time>2026-02-02T14:23:56Z</time>
      </trkpt>
      <trkpt lat="48.59212" lon="2.06515">
        <ele>142.6</ele>
        <time>2026-02-02T14:23:57Z</time>
      </trkpt>
      <trkpt lat="48.59213" lon="2.06509">
        <ele>142.6</ele>
        <time>2026-02-02T14:23:58Z</time>
      </trkpt>
      <trkpt lat="48.59214" lon="2.06503">
        <ele>142.6</ele>
        <time>2026-02-02T14:23:59Z</time>
      </trkpt>
      <trkpt lat="48.59216" lon="2.06497">
        <ele>142.6</ele>
        <time>2026-02-02T14:24:00Z</time>
      </trkpt>
      <trkpt lat="48.59219" lon="2.06491">
        <ele>142.8</ele>
        <time>2026-02-02T14:24:01Z</time>
      </trkpt>
      <trkpt lat="48.59222" lon="2.06486">
        <ele>142.8</ele>
        <time>2026-02-02T14:24:02Z</time>
      </trkpt>
      <trkpt lat="48.59225" lon="2.06484">
        <ele>142.8</ele>
        <time>2026-02-02T14:24:03Z</time>
      </trkpt>
      <trkpt lat="48.59228" lon="2.06482">
        <ele>143.6</ele>
        <time>2026-02-02T14:24:04Z</time>
      </trkpt>
      <trkpt lat="48.59232" lon="2.0648">
        <ele>144</ele>
        <time>2026-02-02T14:24:05Z</time>
      </trkpt>
      <trkpt lat="48.59235" lon="2.06479">
        <ele>144</ele>
        <time>2026-02-02T14:24:06Z</time>
      </trkpt>
      <trkpt lat="48.59237" lon="2.06477">
        <ele>144</ele>
        <time>2026-02-02T14:24:07Z</time>
      </trkpt>
      <trkpt lat="48.5924" lon="2.06475">
        <ele>144.4</ele>
        <time>2026-02-02T14:24:08Z</time>
      </trkpt>
      <trkpt lat="48.59243" lon="2.06474">
        <ele>144.4</ele>
        <time>2026-02-02T14:24:09Z</time>
      </trkpt>
      <trkpt lat="48.59246" lon="2.06472">
        <ele>144.4</ele>
        <time>2026-02-02T14:24:10Z</time>
      </trkpt>
      <trkpt lat="48.59249" lon="2.06471">
        <ele>144.4</ele>
        <time>2026-02-02T14:24:11Z</time>
      </trkpt>
      <trkpt lat="48.59253" lon="2.0647">
        <ele>145</ele>
        <time>2026-02-02T14:24:12Z</time>
      </trkpt>
      <trkpt lat="48.59256" lon="2.06469">
        <ele>145.2</ele>
        <time>2026-02-02T14:24:13Z</time>
      </trkpt>
      <trkpt lat="48.59259" lon="2.06467">
        <ele>145.2</ele>
        <time>2026-02-02T14:24:14Z</time>
      </trkpt>
      <trkpt lat="48.59263" lon="2.06466">
        <ele>145.2</ele>
        <time>2026-02-02T14:24:15Z</time>
      </trkpt>
      <trkpt lat="48.59266" lon="2.06464">
        <ele>145.6</ele>
        <time>2026-02-02T14:24:16Z</time>
      </trkpt>
      <trkpt lat="48.59269" lon="2.06462">
        <ele>146</ele>
        <time>2026-02-02T14:24:17Z</time>
      </trkpt>
      <trkpt lat="48.59273" lon="2.06461">
        <ele>146</ele>
        <time>2026-02-02T14:24:18Z</time>
      </trkpt>
      <trkpt lat="48.59276" lon="2.0646">
        <ele>146</ele>
        <time>2026-02-02T14:24:19Z</time>
      </trkpt>
      <trkpt lat="48.5928" lon="2.06459">
        <ele>146</ele>
        <time>2026-02-02T14:24:20Z</time>
      </trkpt>
      <trkpt lat="48.59283" lon="2.06457">
        <ele>146.2</ele>
        <time>2026-02-02T14:24:21Z</time>
      </trkpt>
      <trkpt lat="48.59286" lon="2.06456">
        <ele>146.2</ele>
        <time>2026-02-02T14:24:22Z</time>
      </trkpt>
      <trkpt lat="48.5929" lon="2.06454">
        <ele>146.2</ele>
        <time>2026-02-02T14:24:23Z</time>
      </trkpt>
      <trkpt lat="48.59293" lon="2.06453">
        <ele>147.2</ele>
        <time>2026-02-02T14:24:24Z</time>
      </trkpt>
      <trkpt lat="48.59297" lon="2.06452">
        <ele>147.4</ele>
        <time>2026-02-02T14:24:25Z</time>
      </trkpt>
      <trkpt lat="48.593" lon="2.06451">
        <ele>147.4</ele>
        <time>2026-02-02T14:24:26Z</time>
      </trkpt>
      <trkpt lat="48.59304" lon="2.0645">
        <ele>147.4</ele>
        <time>2026-02-02T14:24:27Z</time>
      </trkpt>
      <trkpt lat="48.59307" lon="2.06449">
        <ele>147.6</ele>
        <time>2026-02-02T14:24:28Z</time>
      </trkpt>
      <trkpt lat="48.59311" lon="2.06447">
        <ele>148</ele>
        <time>2026-02-02T14:24:29Z</time>
      </trkpt>
      <trkpt lat="48.59314" lon="2.06446">
        <ele>148</ele>
        <time>2026-02-02T14:24:30Z</time>
      </trkpt>
      <trkpt lat="48.59317" lon="2.06445">
        <ele>148</ele>
        <time>2026-02-02T14:24:31Z</time>
      </trkpt>
      <trkpt lat="48.59321" lon="2.06444">
        <ele>148</ele>
        <time>2026-02-02T14:24:32Z</time>
      </trkpt>
      <trkpt lat="48.59324" lon="2.06444">
        <ele>148.2</ele>
        <time>2026-02-02T14:24:33Z</time>
      </trkpt>
      <trkpt lat="48.59328" lon="2.06442">
        <ele>148.2</ele>
        <time>2026-02-02T14:24:34Z</time>
      </trkpt>
      <trkpt lat="48.59331" lon="2.06441">
        <ele>148.2</ele>
        <time>2026-02-02T14:24:35Z</time>
      </trkpt>
      <trkpt lat="48.59335" lon="2.06439">
        <ele>148.2</ele>
        <time>2026-02-02T14:24:36Z</time>
      </trkpt>
      <trkpt lat="48.59338" lon="2.06437">
        <ele>149.2</ele>
        <time>2026-02-02T14:24:37Z</time>
      </trkpt>
      <trkpt lat="48.59341" lon="2.06435">
        <ele>149.2</ele>
        <time>2026-02-02T14:24:38Z</time>
      </trkpt>
      <trkpt lat="48.59345" lon="2.06432">
        <ele>149.2</ele>
        <time>2026-02-02T14:24:39Z</time>
      </trkpt>
      <trkpt lat="48.59348" lon="2.06431">
        <ele>149.2</ele>
        <time>2026-02-02T14:24:40Z</time>
      </trkpt>
      <trkpt lat="48.59352" lon="2.06429">
        <ele>149.4</ele>
        <time>2026-02-02T14:24:41Z</time>
      </trkpt>
      <trkpt lat="48.59355" lon="2.06427">
        <ele>149.4</ele>
        <time>2026-02-02T14:24:42Z</time>
      </trkpt>
      <trkpt lat="48.59359" lon="2.06425">
        <ele>149.4</ele>
        <time>2026-02-02T14:24:43Z</time>
      </trkpt>
      <trkpt lat="48.59362" lon="2.06423">
        <ele>149.8</ele>
        <time>2026-02-02T14:24:44Z</time>
      </trkpt>
      <trkpt lat="48.59365" lon="2.06422">
        <ele>150.6</ele>
        <time>2026-02-02T14:24:45Z</time>
      </trkpt>
      <trkpt lat="48.59368" lon="2.06421">
        <ele>150.6</ele>
        <time>2026-02-02T14:24:46Z</time>
      </trkpt>
      <trkpt lat="48.59371" lon="2.06421">
        <ele>150.6</ele>
        <time>2026-02-02T14:24:47Z</time>
      </trkpt>
      <trkpt lat="48.59374" lon="2.06421">
        <ele>150.4</ele>
        <time>2026-02-02T14:24:48Z</time>
      </trkpt>
      <trkpt lat="48.59378" lon="2.0642">
        <ele>151</ele>
        <time>2026-02-02T14:24:49Z</time>
      </trkpt>
      <trkpt lat="48.59381" lon="2.06419">
        <ele>151</ele>
        <time>2026-02-02T14:24:50Z</time>
      </trkpt>
      <trkpt lat="48.59384" lon="2.06416">
        <ele>151</ele>
        <time>2026-02-02T14:24:51Z</time>
      </trkpt>
      <trkpt lat="48.59386" lon="2.06412">
        <ele>151</ele>
        <time>2026-02-02T14:24:52Z</time>
      </trkpt>
      <trkpt lat="48.59388" lon="2.06407">
        <ele>151.6</ele>
        <time>2026-02-02T14:24:53Z</time>
      </trkpt>
      <trkpt lat="48.5939" lon="2.06402">
        <ele>151.6</ele>
        <time>2026-02-02T14:24:54Z</time>
      </trkpt>
      <trkpt lat="48.59392" lon="2.06397">
        <ele>151.6</ele>
        <time>2026-02-02T14:24:55Z</time>
      </trkpt>
      <trkpt lat="48.59395" lon="2.06393">
        <ele>150.8</ele>
        <time>2026-02-02T14:24:56Z</time>
      </trkpt>
      <trkpt lat="48.59399" lon="2.06387">
        <ele>149.8</ele>
        <time>2026-02-02T14:24:57Z</time>
      </trkpt>
      <trkpt lat="48.59403" lon="2.06383">
        <ele>149.8</ele>
        <time>2026-02-02T14:24:58Z</time>
      </trkpt>
      <trkpt lat="48.59407" lon="2.06378">
        <ele>149.8</ele>
        <time>2026-02-02T14:24:59Z</time>
      </trkpt>
      <trkpt lat="48.59412" lon="2.06374">
        <ele>149.8</ele>
        <time>2026-02-02T14:25:00Z</time>
      </trkpt>
      <trkpt lat="48.59416" lon="2.0637">
        <ele>149.2</ele>
        <time>2026-02-02T14:25:01Z</time>
      </trkpt>
      <trkpt lat="48.59421" lon="2.06366">
        <ele>149.2</ele>
        <time>2026-02-02T14:25:02Z</time>
      </trkpt>
      <trkpt lat="48.59426" lon="2.06361">
        <ele>149.2</ele>
        <time>2026-02-02T14:25:03Z</time>
      </trkpt>
      <trkpt lat="48.5943" lon="2.06357">
        <ele>148.8</ele>
        <time>2026-02-02T14:25:04Z</time>
      </trkpt>
      <trkpt lat="48.59435" lon="2.06352">
        <ele>148.6</ele>
        <time>2026-02-02T14:25:05Z</time>
      </trkpt>
      <trkpt lat="48.5944" lon="2.06347">
        <ele>148.6</ele>
        <time>2026-02-02T14:25:06Z</time>
      </trkpt>
      <trkpt lat="48.59445" lon="2.06342">
        <ele>148.6</ele>
        <time>2026-02-02T14:25:07Z</time>
      </trkpt>
      <trkpt lat="48.5945" lon="2.06337">
        <ele>148</ele>
        <time>2026-02-02T14:25:08Z</time>
      </trkpt>
      <trkpt lat="48.59455" lon="2.06333">
        <ele>148</ele>
        <time>2026-02-02T14:25:09Z</time>
      </trkpt>
      <trkpt lat="48.59459" lon="2.06328">
        <ele>148</ele>
        <time>2026-02-02T14:25:10Z</time>
      </trkpt>
      <trkpt lat="48.59464" lon="2.06323">
        <ele>148</ele>
        <time>2026-02-02T14:25:11Z</time>
      </trkpt>
      <trkpt lat="48.59468" lon="2.06318">
        <ele>148</ele>
        <time>2026-02-02T14:25:12Z</time>
      </trkpt>
      <trkpt lat="48.59473" lon="2.06313">
        <ele>148</ele>
        <time>2026-02-02T14:25:13Z</time>
      </trkpt>
      <trkpt lat="48.59477" lon="2.06309">
        <ele>148</ele>
        <time>2026-02-02T14:25:14Z</time>
      </trkpt>
      <trkpt lat="48.59482" lon="2.06305">
        <ele>148</ele>
        <time>2026-02-02T14:25:15Z</time>
      </trkpt>
      <trkpt lat="48.59487" lon="2.063">
        <ele>148</ele>
        <time>2026-02-02T14:25:16Z</time>
      </trkpt>
      <trkpt lat="48.59491" lon="2.06296">
        <ele>148.6</ele>
        <time>2026-02-02T14:25:17Z</time>
      </trkpt>
      <trkpt lat="48.59496" lon="2.06291">
        <ele>148.6</ele>
        <time>2026-02-02T14:25:18Z</time>
      </trkpt>
      <trkpt lat="48.595" lon="2.06287">
        <ele>148.6</ele>
        <time>2026-02-02T14:25:19Z</time>
      </trkpt>
      <trkpt lat="48.59505" lon="2.06282">
        <ele>147.8</ele>
        <time>2026-02-02T14:25:20Z</time>
      </trkpt>
      <trkpt lat="48.59509" lon="2.06276">
        <ele>147.4</ele>
        <time>2026-02-02T14:25:21Z</time>
      </trkpt>
      <trkpt lat="48.59514" lon="2.06271">
        <ele>147.4</ele>
        <time>2026-02-02T14:25:22Z</time>
      </trkpt>
      <trkpt lat="48.59518" lon="2.06265">
        <ele>147.4</ele>
        <time>2026-02-02T14:25:23Z</time>
      </trkpt>
      <trkpt lat="48.59523" lon="2.0626">
        <ele>147.4</ele>
        <time>2026-02-02T14:25:24Z</time>
      </trkpt>
      <trkpt lat="48.59527" lon="2.06254">
        <ele>148</ele>
        <time>2026-02-02T14:25:25Z</time>
      </trkpt>
      <trkpt lat="48.59532" lon="2.06249">
        <ele>148</ele>
        <time>2026-02-02T14:25:26Z</time>
      </trkpt>
      <trkpt lat="48.59536" lon="2.06244">
        <ele>148</ele>
        <time>2026-02-02T14:25:27Z</time>
      </trkpt>
      <trkpt lat="48.5954" lon="2.06238">
        <ele>147.8</ele>
        <time>2026-02-02T14:25:28Z</time>
      </trkpt>
      <trkpt lat="48.59545" lon="2.06233">
        <ele>148</ele>
        <time>2026-02-02T14:25:29Z</time>
      </trkpt>
      <trkpt lat="48.59549" lon="2.06228">
        <ele>148</ele>
        <time>2026-02-02T14:25:30Z</time>
      </trkpt>
      <trkpt lat="48.59553" lon="2.06223">
        <ele>148</ele>
        <time>2026-02-02T14:25:31Z</time>
      </trkpt>
      <trkpt lat="48.59558" lon="2.06217">
        <ele>148</ele>
        <time>2026-02-02T14:25:32Z</time>
      </trkpt>
      <trkpt lat="48.59562" lon="2.06213">
        <ele>147.8</ele>
        <time>2026-02-02T14:25:33Z</time>
      </trkpt>
      <trkpt lat="48.59566" lon="2.06208">
        <ele>147.8</ele>
        <time>2026-02-02T14:25:34Z</time>
      </trkpt>
      <trkpt lat="48.59571" lon="2.06203">
        <ele>147.8</ele>
        <time>2026-02-02T14:25:35Z</time>
      </trkpt>
      <trkpt lat="48.59575" lon="2.06198">
        <ele>148.6</ele>
        <time>2026-02-02T14:25:36Z</time>
      </trkpt>
      <trkpt lat="48.59579" lon="2.06193">
        <ele>148.6</ele>
        <time>2026-02-02T14:25:37Z</time>
      </trkpt>
      <trkpt lat="48.59583" lon="2.06189">
        <ele>148.6</ele>
        <time>2026-02-02T14:25:38Z</time>
      </trkpt>
      <trkpt lat="48.59587" lon="2.06184">
        <ele>148.6</ele>
        <time>2026-02-02T14:25:39Z</time>
      </trkpt>
      <trkpt lat="48.59591" lon="2.06179">
        <ele>148.6</ele>
        <time>2026-02-02T14:25:40Z</time>
      </trkpt>
      <trkpt lat="48.59595" lon="2.06174">
        <ele>148.8</ele>
        <time>2026-02-02T14:25:41Z</time>
      </trkpt>
      <trkpt lat="48.59599" lon="2.06169">
        <ele>148.8</ele>
        <time>2026-02-02T14:25:42Z</time>
      </trkpt>
      <trkpt lat="48.59603" lon="2.06165">
        <ele>148.8</ele>
        <time>2026-02-02T14:25:43Z</time>
      </trkpt>
      <trkpt lat="48.59607" lon="2.0616">
        <ele>148.8</ele>
        <time>2026-02-02T14:25:44Z</time>
      </trkpt>
      <trkpt lat="48.59611" lon="2.06155">
        <ele>148.8</ele>
        <time>2026-02-02T14:25:45Z</time>
      </trkpt>
      <trkpt lat="48.59615" lon="2.06151">
        <ele>148.8</ele>
        <time>2026-02-02T14:25:46Z</time>
      </trkpt>
      <trkpt lat="48.59618" lon="2.06147">
        <ele>148.8</ele>
        <time>2026-02-02T14:25:47Z</time>
      </trkpt>
      <trkpt lat="48.59622" lon="2.06143">
        <ele>149.8</ele>
        <time>2026-02-02T14:25:48Z</time>
      </trkpt>
      <trkpt lat="48.59625" lon="2.06138">
        <ele>150</ele>
        <time>2026-02-02T14:25:49Z</time>
      </trkpt>
      <trkpt lat="48.59629" lon="2.06134">
        <ele>150</ele>
        <time>2026-02-02T14:25:50Z</time>
      </trkpt>
      <trkpt lat="48.59633" lon="2.06129">
        <ele>150</ele>
        <time>2026-02-02T14:25:51Z</time>
      </trkpt>
      <trkpt lat="48.59636" lon="2.06125">
        <ele>150</ele>
        <time>2026-02-02T14:25:52Z</time>
      </trkpt>
      <trkpt lat="48.5964" lon="2.06121">
        <ele>150.4</ele>
        <time>2026-02-02T14:25:53Z</time>
      </trkpt>
      <trkpt lat="48.59644" lon="2.06117">
        <ele>150.4</ele>
        <time>2026-02-02T14:25:54Z</time>
      </trkpt>
      <trkpt lat="48.59647" lon="2.06113">
        <ele>150.4</ele>
        <time>2026-02-02T14:25:55Z</time>
      </trkpt>
      <trkpt lat="48.59651" lon="2.06109">
        <ele>150.4</ele>
        <time>2026-02-02T14:25:56Z</time>
      </trkpt>
      <trkpt lat="48.59655" lon="2.06105">
        <ele>151</ele>
        <time>2026-02-02T14:25:57Z</time>
      </trkpt>
      <trkpt lat="48.59658" lon="2.061">
        <ele>151</ele>
        <time>2026-02-02T14:25:58Z</time>
      </trkpt>
      <trkpt lat="48.59662" lon="2.06096">
        <ele>151</ele>
        <time>2026-02-02T14:25:59Z</time>
      </trkpt>
      <trkpt lat="48.59666" lon="2.06092">
        <ele>151.2</ele>
        <time>2026-02-02T14:26:00Z</time>
      </trkpt>
      <trkpt lat="48.5967" lon="2.06087">
        <ele>151.6</ele>
        <time>2026-02-02T14:26:01Z</time>
      </trkpt>
      <trkpt lat="48.59673" lon="2.06083">
        <ele>151.6</ele>
        <time>2026-02-02T14:26:02Z</time>
      </trkpt>
      <trkpt lat="48.59677" lon="2.06079">
        <ele>151.6</ele>
        <time>2026-02-02T14:26:03Z</time>
      </trkpt>
      <trkpt lat="48.59681" lon="2.06075">
        <ele>151.6</ele>
        <time>2026-02-02T14:26:04Z</time>
      </trkpt>
      <trkpt lat="48.59684" lon="2.06071">
        <ele>151.6</ele>
        <time>2026-02-02T14:26:05Z</time>
      </trkpt>
      <trkpt lat="48.59688" lon="2.06067">
        <ele>151.6</ele>
        <time>2026-02-02T14:26:06Z</time>
      </trkpt>
      <trkpt lat="48.59692" lon="2.06063">
        <ele>151.6</ele>
        <time>2026-02-02T14:26:07Z</time>
      </trkpt>
      <trkpt lat="48.59695" lon="2.0606">
        <ele>152.6</ele>
        <time>2026-02-02T14:26:08Z</time>
      </trkpt>
      <trkpt lat="48.59698" lon="2.06056">
        <ele>151.8</ele>
        <time>2026-02-02T14:26:09Z</time>
      </trkpt>
      <trkpt lat="48.59701" lon="2.06052">
        <ele>151.8</ele>
        <time>2026-02-02T14:26:10Z</time>
      </trkpt>
      <trkpt lat="48.59705" lon="2.0605">
        <ele>151.8</ele>
        <time>2026-02-02T14:26:11Z</time>
      </trkpt>
      <trkpt lat="48.59708" lon="2.06048">
        <ele>152.8</ele>
        <time>2026-02-02T14:26:12Z</time>
      </trkpt>
      <trkpt lat="48.59711" lon="2.06045">
        <ele>152.6</ele>
        <time>2026-02-02T14:26:13Z</time>
      </trkpt>
      <trkpt lat="48.59714" lon="2.06043">
        <ele>152.6</ele>
        <time>2026-02-02T14:26:14Z</time>
      </trkpt>
      <trkpt lat="48.59718" lon="2.0604">
        <ele>152.6</ele>
        <time>2026-02-02T14:26:15Z</time>
      </trkpt>
      <trkpt lat="48.5972" lon="2.06037">
        <ele>153.4</ele>
        <time>2026-02-02T14:26:16Z</time>
      </trkpt>
      <trkpt lat="48.59723" lon="2.06035">
        <ele>153.8</ele>
        <time>2026-02-02T14:26:17Z</time>
      </trkpt>
      <trkpt lat="48.59726" lon="2.06032">
        <ele>153.8</ele>
        <time>2026-02-02T14:26:18Z</time>
      </trkpt>
      <trkpt lat="48.59729" lon="2.0603">
        <ele>153.8</ele>
        <time>2026-02-02T14:26:19Z</time>
      </trkpt>
      <trkpt lat="48.59731" lon="2.06027">
        <ele>154.2</ele>
        <time>2026-02-02T14:26:20Z</time>
      </trkpt>
      <trkpt lat="48.59734" lon="2.06024">
        <ele>154.6</ele>
        <time>2026-02-02T14:26:21Z</time>
      </trkpt>
      <trkpt lat="48.59738" lon="2.0602">
        <ele>154.6</ele>
        <time>2026-02-02T14:26:22Z</time>
      </trkpt>
      <trkpt lat="48.59741" lon="2.06017">
        <ele>154.6</ele>
        <time>2026-02-02T14:26:23Z</time>
      </trkpt>
      <trkpt lat="48.59744" lon="2.06013">
        <ele>154.6</ele>
        <time>2026-02-02T14:26:24Z</time>
      </trkpt>
      <trkpt lat="48.59748" lon="2.0601">
        <ele>155.2</ele>
        <time>2026-02-02T14:26:25Z</time>
      </trkpt>
      <trkpt lat="48.59751" lon="2.06007">
        <ele>155.2</ele>
        <time>2026-02-02T14:26:26Z</time>
      </trkpt>
      <trkpt lat="48.59754" lon="2.06004">
        <ele>155.2</ele>
        <time>2026-02-02T14:26:27Z</time>
      </trkpt>
      <trkpt lat="48.59758" lon="2.06001">
        <ele>155.8</ele>
        <time>2026-02-02T14:26:28Z</time>
      </trkpt>
      <trkpt lat="48.59761" lon="2.05997">
        <ele>156.2</ele>
        <time>2026-02-02T14:26:29Z</time>
      </trkpt>
      <trkpt lat="48.59764" lon="2.05994">
        <ele>156.2</ele>
        <time>2026-02-02T14:26:30Z</time>
      </trkpt>
      <trkpt lat="48.59768" lon="2.05991">
        <ele>156.2</ele>
        <time>2026-02-02T14:26:31Z</time>
      </trkpt>
      <trkpt lat="48.59771" lon="2.05987">
        <ele>156.2</ele>
        <time>2026-02-02T14:26:32Z</time>
      </trkpt>
      <trkpt lat="48.59775" lon="2.05984">
        <ele>156.6</ele>
        <time>2026-02-02T14:26:33Z</time>
      </trkpt>
      <trkpt lat="48.59778" lon="2.0598">
        <ele>156.6</ele>
        <time>2026-02-02T14:26:34Z</time>
      </trkpt>
      <trkpt lat="48.59781" lon="2.05977">
        <ele>156.6</ele>
        <time>2026-02-02T14:26:35Z</time>
      </trkpt>
      <trkpt lat="48.59785" lon="2.05973">
        <ele>157.6</ele>
        <time>2026-02-02T14:26:36Z</time>
      </trkpt>
      <trkpt lat="48.59788" lon="2.0597">
        <ele>157.8</ele>
        <time>2026-02-02T14:26:37Z</time>
      </trkpt>
      <trkpt lat="48.59792" lon="2.05967">
        <ele>157.8</ele>
        <time>2026-02-02T14:26:38Z</time>
      </trkpt>
      <trkpt lat="48.59796" lon="2.05963">
        <ele>157.8</ele>
        <time>2026-02-02T14:26:39Z</time>
      </trkpt>
      <trkpt lat="48.59799" lon="2.05959">
        <ele>158.6</ele>
        <time>2026-02-02T14:26:40Z</time>
      </trkpt>
      <trkpt lat="48.59803" lon="2.05956">
        <ele>159</ele>
        <time>2026-02-02T14:26:41Z</time>
      </trkpt>
      <trkpt lat="48.59806" lon="2.05952">
        <ele>159</ele>
        <time>2026-02-02T14:26:42Z</time>
      </trkpt>
      <trkpt lat="48.5981" lon="2.05948">
        <ele>159</ele>
        <time>2026-02-02T14:26:43Z</time>
      </trkpt>
      <trkpt lat="48.59813" lon="2.05945">
        <ele>159.4</ele>
        <time>2026-02-02T14:26:44Z</time>
      </trkpt>
      <trkpt lat="48.59816" lon="2.05942">
        <ele>159.6</ele>
        <time>2026-02-02T14:26:45Z</time>
      </trkpt>
      <trkpt lat="48.5982" lon="2.0594">
        <ele>159.6</ele>
        <time>2026-02-02T14:26:46Z</time>
      </trkpt>
      <trkpt lat="48.59823" lon="2.05937">
        <ele>159.6</ele>
        <time>2026-02-02T14:26:47Z</time>
      </trkpt>
      <trkpt lat="48.59827" lon="2.05934">
        <ele>160.2</ele>
        <time>2026-02-02T14:26:48Z</time>
      </trkpt>
      <trkpt lat="48.59831" lon="2.0593">
        <ele>160.2</ele>
        <time>2026-02-02T14:26:49Z</time>
      </trkpt>
      <trkpt lat="48.59834" lon="2.05927">
        <ele>160.2</ele>
        <time>2026-02-02T14:26:50Z</time>
      </trkpt>
      <trkpt lat="48.59838" lon="2.05924">
        <ele>160.2</ele>
        <time>2026-02-02T14:26:51Z</time>
      </trkpt>
      <trkpt lat="48.59842" lon="2.0592">
        <ele>160.8</ele>
        <time>2026-02-02T14:26:52Z</time>
      </trkpt>
      <trkpt lat="48.59845" lon="2.05917">
        <ele>160.8</ele>
        <time>2026-02-02T14:26:53Z</time>
      </trkpt>
      <trkpt lat="48.59849" lon="2.05913">
        <ele>160.8</ele>
        <time>2026-02-02T14:26:54Z</time>
      </trkpt>
      <trkpt lat="48.59852" lon="2.0591">
        <ele>160.8</ele>
        <time>2026-02-02T14:26:55Z</time>
      </trkpt>
      <trkpt lat="48.59856" lon="2.05906">
        <ele>160.8</ele>
        <time>2026-02-02T14:26:56Z</time>
      </trkpt>
      <trkpt lat="48.5986" lon="2.05902">
        <ele>161.4</ele>
        <time>2026-02-02T14:26:57Z</time>
      </trkpt>
      <trkpt lat="48.59863" lon="2.05899">
        <ele>161.4</ele>
        <time>2026-02-02T14:26:58Z</time>
      </trkpt>
      <trkpt lat="48.59867" lon="2.05895">
        <ele>161.4</ele>
        <time>2026-02-02T14:26:59Z</time>
      </trkpt>
      <trkpt lat="48.59871" lon="2.05891">
        <ele>161.4</ele>
        <time>2026-02-02T14:27:00Z</time>
      </trkpt>
      <trkpt lat="48.59875" lon="2.05887">
        <ele>161.8</ele>
        <time>2026-02-02T14:27:01Z</time>
      </trkpt>
      <trkpt lat="48.59879" lon="2.05883">
        <ele>161.8</ele>
        <time>2026-02-02T14:27:02Z</time>
      </trkpt>
      <trkpt lat="48.59882" lon="2.05879">
        <ele>161.8</ele>
        <time>2026-02-02T14:27:03Z</time>
      </trkpt>
      <trkpt lat="48.59886" lon="2.05875">
        <ele>161.8</ele>
        <time>2026-02-02T14:27:04Z</time>
      </trkpt>
      <trkpt lat="48.5989" lon="2.05871">
        <ele>161.4</ele>
        <time>2026-02-02T14:27:05Z</time>
      </trkpt>
      <trkpt lat="48.59894" lon="2.05867">
        <ele>161.4</ele>
        <time>2026-02-02T14:27:06Z</time>
      </trkpt>
      <trkpt lat="48.59898" lon="2.05864">
        <ele>161.4</ele>
        <time>2026-02-02T14:27:07Z</time>
      </trkpt>
      <trkpt lat="48.59902" lon="2.0586">
        <ele>161.8</ele>
        <time>2026-02-02T14:27:08Z</time>
      </trkpt>
      <trkpt lat="48.59906" lon="2.05856">
        <ele>161.8</ele>
        <time>2026-02-02T14:27:09Z</time>
      </trkpt>
      <trkpt lat="48.5991" lon="2.05852">
        <ele>161.8</ele>
        <time>2026-02-02T14:27:10Z</time>
      </trkpt>
      <trkpt lat="48.59914" lon="2.05848">
        <ele>161.8</ele>
        <time>2026-02-02T14:27:11Z</time>
      </trkpt>
      <trkpt lat="48.59918" lon="2.05844">
        <ele>161.8</ele>
        <time>2026-02-02T14:27:12Z</time>
      </trkpt>
      <trkpt lat="48.59922" lon="2.0584">
        <ele>163.2</ele>
        <time>2026-02-02T14:27:13Z</time>
      </trkpt>
      <trkpt lat="48.59926" lon="2.05836">
        <ele>163.2</ele>
        <time>2026-02-02T14:27:14Z</time>
      </trkpt>
      <trkpt lat="48.5993" lon="2.05831">
        <ele>163.2</ele>
        <time>2026-02-02T14:27:15Z</time>
      </trkpt>
      <trkpt lat="48.59934" lon="2.05827">
        <ele>162.2</ele>
        <time>2026-02-02T14:27:16Z</time>
      </trkpt>
      <trkpt lat="48.59939" lon="2.05823">
        <ele>161.8</ele>
        <time>2026-02-02T14:27:17Z</time>
      </trkpt>
      <trkpt lat="48.59943" lon="2.0582">
        <ele>161.8</ele>
        <time>2026-02-02T14:27:18Z</time>
      </trkpt>
      <trkpt lat="48.59948" lon="2.05816">
        <ele>161.8</ele>
        <time>2026-02-02T14:27:19Z</time>
      </trkpt>
      <trkpt lat="48.59952" lon="2.05812">
        <ele>161.8</ele>
        <time>2026-02-02T14:27:20Z</time>
      </trkpt>
      <trkpt lat="48.59957" lon="2.05808">
        <ele>161.6</ele>
        <time>2026-02-02T14:27:21Z</time>
      </trkpt>
      <trkpt lat="48.59961" lon="2.05803">
        <ele>161.6</ele>
        <time>2026-02-02T14:27:22Z</time>
      </trkpt>
      <trkpt lat="48.59966" lon="2.05799">
        <ele>161.6</ele>
        <time>2026-02-02T14:27:23Z</time>
      </trkpt>
      <trkpt lat="48.59971" lon="2.05794">
        <ele>161</ele>
        <time>2026-02-02T14:27:24Z</time>
      </trkpt>
      <trkpt lat="48.59975" lon="2.0579">
        <ele>161</ele>
        <time>2026-02-02T14:27:25Z</time>
      </trkpt>
      <trkpt lat="48.5998" lon="2.05786">
        <ele>161</ele>
        <time>2026-02-02T14:27:26Z</time>
      </trkpt>
      <trkpt lat="48.59985" lon="2.05781">
        <ele>161</ele>
        <time>2026-02-02T14:27:27Z</time>
      </trkpt>
      <trkpt lat="48.59991" lon="2.05777">
        <ele>160</ele>
        <time>2026-02-02T14:27:28Z</time>
      </trkpt>
      <trkpt lat="48.59996" lon="2.05773">
        <ele>159.6</ele>
        <time>2026-02-02T14:27:29Z</time>
      </trkpt>
      <trkpt lat="48.60001" lon="2.05768">
        <ele>159.6</ele>
        <time>2026-02-02T14:27:30Z</time>
      </trkpt>
      <trkpt lat="48.60007" lon="2.05762">
        <ele>159.6</ele>
        <time>2026-02-02T14:27:31Z</time>
      </trkpt>
      <trkpt lat="48.60013" lon="2.05757">
        <ele>159.6</ele>
        <time>2026-02-02T14:27:32Z</time>
      </trkpt>
      <trkpt lat="48.60019" lon="2.05751">
        <ele>158.6</ele>
        <time>2026-02-02T14:27:33Z</time>
      </trkpt>
      <trkpt lat="48.60025" lon="2.05745">
        <ele>158.6</ele>
        <time>2026-02-02T14:27:34Z</time>
      </trkpt>
      <trkpt lat="48.60031" lon="2.05738">
        <ele>158.6</ele>
        <time>2026-02-02T14:27:35Z</time>
      </trkpt>
      <trkpt lat="48.60038" lon="2.05732">
        <ele>157.6</ele>
        <time>2026-02-02T14:27:36Z</time>
      </trkpt>
      <trkpt lat="48.60044" lon="2.05725">
        <ele>157.2</ele>
        <time>2026-02-02T14:27:37Z</time>
      </trkpt>
      <trkpt lat="48.60051" lon="2.05718">
        <ele>157.2</ele>
        <time>2026-02-02T14:27:38Z</time>
      </trkpt>
      <trkpt lat="48.60058" lon="2.05711">
        <ele>157.2</ele>
        <time>2026-02-02T14:27:39Z</time>
      </trkpt>
      <trkpt lat="48.60065" lon="2.05704">
        <ele>156.2</ele>
        <time>2026-02-02T14:27:40Z</time>
      </trkpt>
      <trkpt lat="48.60072" lon="2.05697">
        <ele>155.2</ele>
        <time>2026-02-02T14:27:41Z</time>
      </trkpt>
      <trkpt lat="48.60079" lon="2.05689">
        <ele>155.2</ele>
        <time>2026-02-02T14:27:42Z</time>
      </trkpt>
      <trkpt lat="48.60087" lon="2.05681">
        <ele>155.2</ele>
        <time>2026-02-02T14:27:43Z</time>
      </trkpt>
      <trkpt lat="48.60094" lon="2.05673">
        <ele>154.2</ele>
        <time>2026-02-02T14:27:44Z</time>
      </trkpt>
      <trkpt lat="48.60102" lon="2.05665">
        <ele>153.8</ele>
        <time>2026-02-02T14:27:45Z</time>
      </trkpt>
      <trkpt lat="48.60109" lon="2.05658">
        <ele>153.8</ele>
        <time>2026-02-02T14:27:46Z</time>
      </trkpt>
      <trkpt lat="48.60117" lon="2.0565">
        <ele>153.8</ele>
        <time>2026-02-02T14:27:47Z</time>
      </trkpt>
      <trkpt lat="48.60124" lon="2.05641">
        <ele>153.8</ele>
        <time>2026-02-02T14:27:48Z</time>
      </trkpt>
      <trkpt lat="48.6013" lon="2.05632">
        <ele>154</ele>
        <time>2026-02-02T14:27:49Z</time>
      </trkpt>
      <trkpt lat="48.60137" lon="2.05624">
        <ele>154</ele>
        <time>2026-02-02T14:27:50Z</time>
      </trkpt>
      <trkpt lat="48.60144" lon="2.05617">
        <ele>154</ele>
        <time>2026-02-02T14:27:51Z</time>
      </trkpt>
      <trkpt lat="48.6015" lon="2.0561">
        <ele>154.6</ele>
        <time>2026-02-02T14:27:52Z</time>
      </trkpt>
      <trkpt lat="48.60157" lon="2.05603">
        <ele>154.6</ele>
        <time>2026-02-02T14:27:53Z</time>
      </trkpt>
      <trkpt lat="48.60163" lon="2.05595">
        <ele>154.6</ele>
        <time>2026-02-02T14:27:54Z</time>
      </trkpt>
      <trkpt lat="48.60169" lon="2.05588">
        <ele>154.6</ele>
        <time>2026-02-02T14:27:55Z</time>
      </trkpt>
      <trkpt lat="48.60175" lon="2.0558">
        <ele>154.6</ele>
        <time>2026-02-02T14:27:56Z</time>
      </trkpt>
      <trkpt lat="48.60181" lon="2.05573">
        <ele>154.2</ele>
        <time>2026-02-02T14:27:57Z</time>
      </trkpt>
      <trkpt lat="48.60187" lon="2.05566">
        <ele>154.2</ele>
        <time>2026-02-02T14:27:58Z</time>
      </trkpt>
      <trkpt lat="48.60193" lon="2.05558">
        <ele>154.2</ele>
        <time>2026-02-02T14:27:59Z</time>
      </trkpt>
      <trkpt lat="48.60199" lon="2.05551">
        <ele>154.2</ele>
        <time>2026-02-02T14:28:00Z</time>
      </trkpt>
      <trkpt lat="48.60205" lon="2.05545">
        <ele>154</ele>
        <time>2026-02-02T14:28:01Z</time>
      </trkpt>
      <trkpt lat="48.60211" lon="2.0554">
        <ele>154</ele>
        <time>2026-02-02T14:28:02Z</time>
      </trkpt>
      <trkpt lat="48.60217" lon="2.05533">
        <ele>154</ele>
        <time>2026-02-02T14:28:03Z</time>
      </trkpt>
      <trkpt lat="48.60223" lon="2.05526">
        <ele>154</ele>
        <time>2026-02-02T14:28:04Z</time>
      </trkpt>
      <trkpt lat="48.60228" lon="2.05518">
        <ele>154</ele>
        <time>2026-02-02T14:28:05Z</time>
      </trkpt>
      <trkpt lat="48.60233" lon="2.05512">
        <ele>154</ele>
        <time>2026-02-02T14:28:06Z</time>
      </trkpt>
      <trkpt lat="48.60239" lon="2.05506">
        <ele>154</ele>
        <time>2026-02-02T14:28:07Z</time>
      </trkpt>
      <trkpt lat="48.60243" lon="2.055">
        <ele>154.6</ele>
        <time>2026-02-02T14:28:08Z</time>
      </trkpt>
      <trkpt lat="48.60248" lon="2.05494">
        <ele>154.6</ele>
        <time>2026-02-02T14:28:09Z</time>
      </trkpt>
      <trkpt lat="48.60254" lon="2.05489">
        <ele>154.6</ele>
        <time>2026-02-02T14:28:10Z</time>
      </trkpt>
      <trkpt lat="48.60259" lon="2.05484">
        <ele>154.6</ele>
        <time>2026-02-02T14:28:11Z</time>
      </trkpt>
      <trkpt lat="48.60264" lon="2.05478">
        <ele>154.6</ele>
        <time>2026-02-02T14:28:12Z</time>
      </trkpt>
      <trkpt lat="48.60269" lon="2.05472">
        <ele>155</ele>
        <time>2026-02-02T14:28:13Z</time>
      </trkpt>
      <trkpt lat="48.60274" lon="2.05466">
        <ele>155</ele>
        <time>2026-02-02T14:28:14Z</time>
      </trkpt>
      <trkpt lat="48.6028" lon="2.05461">
        <ele>155</ele>
        <time>2026-02-02T14:28:15Z</time>
      </trkpt>
      <trkpt lat="48.60285" lon="2.05456">
        <ele>155</ele>
        <time>2026-02-02T14:28:16Z</time>
      </trkpt>
      <trkpt lat="48.6029" lon="2.0545">
        <ele>155.6</ele>
        <time>2026-02-02T14:28:17Z</time>
      </trkpt>
      <trkpt lat="48.60295" lon="2.05444">
        <ele>155.6</ele>
        <time>2026-02-02T14:28:18Z</time>
      </trkpt>
      <trkpt lat="48.603" lon="2.05437">
        <ele>155.6</ele>
        <time>2026-02-02T14:28:19Z</time>
      </trkpt>
      <trkpt lat="48.60306" lon="2.05431">
        <ele>155.6</ele>
        <time>2026-02-02T14:28:20Z</time>
      </trkpt>
      <trkpt lat="48.60311" lon="2.05425">
        <ele>155.6</ele>
        <time>2026-02-02T14:28:21Z</time>
      </trkpt>
      <trkpt lat="48.60316" lon="2.05418">
        <ele>155.6</ele>
        <time>2026-02-02T14:28:22Z</time>
      </trkpt>
      <trkpt lat="48.60322" lon="2.05412">
        <ele>155.6</ele>
        <time>2026-02-02T14:28:23Z</time>
      </trkpt>
      <trkpt lat="48.60327" lon="2.05406">
        <ele>155.8</ele>
        <time>2026-02-02T14:28:24Z</time>
      </trkpt>
      <trkpt lat="48.60332" lon="2.05401">
        <ele>155.8</ele>
        <time>2026-02-02T14:28:25Z</time>
      </trkpt>
      <trkpt lat="48.60337" lon="2.05395">
        <ele>155.8</ele>
        <time>2026-02-02T14:28:26Z</time>
      </trkpt>
      <trkpt lat="48.60343" lon="2.05391">
        <ele>155.8</ele>
        <time>2026-02-02T14:28:27Z</time>
      </trkpt>
      <trkpt lat="48.60348" lon="2.05386">
        <ele>155.8</ele>
        <time>2026-02-02T14:28:28Z</time>
      </trkpt>
      <trkpt lat="48.60353" lon="2.05381">
        <ele>156</ele>
        <time>2026-02-02T14:28:29Z</time>
      </trkpt>
      <trkpt lat="48.60358" lon="2.05377">
        <ele>156</ele>
        <time>2026-02-02T14:28:30Z</time>
      </trkpt>
      <trkpt lat="48.60364" lon="2.05371">
        <ele>156</ele>
        <time>2026-02-02T14:28:31Z</time>
      </trkpt>
      <trkpt lat="48.60369" lon="2.05367">
        <ele>156</ele>
        <time>2026-02-02T14:28:32Z</time>
      </trkpt>
      <trkpt lat="48.60374" lon="2.05362">
        <ele>156</ele>
        <time>2026-02-02T14:28:33Z</time>
      </trkpt>
      <trkpt lat="48.60379" lon="2.05357">
        <ele>156</ele>
        <time>2026-02-02T14:28:34Z</time>
      </trkpt>
      <trkpt lat="48.60384" lon="2.05352">
        <ele>156</ele>
        <time>2026-02-02T14:28:35Z</time>
      </trkpt>
      <trkpt lat="48.6039" lon="2.05347">
        <ele>156</ele>
        <time>2026-02-02T14:28:36Z</time>
      </trkpt>
      <trkpt lat="48.60395" lon="2.05342">
        <ele>155.8</ele>
        <time>2026-02-02T14:28:37Z</time>
      </trkpt>
      <trkpt lat="48.60401" lon="2.05338">
        <ele>155.8</ele>
        <time>2026-02-02T14:28:38Z</time>
      </trkpt>
      <trkpt lat="48.60406" lon="2.05333">
        <ele>155.8</ele>
        <time>2026-02-02T14:28:39Z</time>
      </trkpt>
      <trkpt lat="48.60411" lon="2.05329">
        <ele>155.8</ele>
        <time>2026-02-02T14:28:40Z</time>
      </trkpt>
      <trkpt lat="48.60417" lon="2.05323">
        <ele>155.4</ele>
        <time>2026-02-02T14:28:41Z</time>
      </trkpt>
      <trkpt lat="48.60422" lon="2.05319">
        <ele>155.4</ele>
        <time>2026-02-02T14:28:42Z</time>
      </trkpt>
      <trkpt lat="48.60428" lon="2.05313">
        <ele>155.4</ele>
        <time>2026-02-02T14:28:43Z</time>
      </trkpt>
      <trkpt lat="48.60433" lon="2.05309">
        <ele>155.4</ele>
        <time>2026-02-02T14:28:44Z</time>
      </trkpt>
      <trkpt lat="48.60439" lon="2.05304">
        <ele>155.2</ele>
        <time>2026-02-02T14:28:45Z</time>
      </trkpt>
      <trkpt lat="48.60445" lon="2.05299">
        <ele>155.2</ele>
        <time>2026-02-02T14:28:46Z</time>
      </trkpt>
      <trkpt lat="48.60451" lon="2.05294">
        <ele>155.2</ele>
        <time>2026-02-02T14:28:47Z</time>
      </trkpt>
      <trkpt lat="48.60457" lon="2.05289">
        <ele>154.4</ele>
        <time>2026-02-02T14:28:48Z</time>
      </trkpt>
      <trkpt lat="48.60463" lon="2.05284">
        <ele>153.6</ele>
        <time>2026-02-02T14:28:49Z</time>
      </trkpt>
      <trkpt lat="48.60469" lon="2.05278">
        <ele>153.6</ele>
        <time>2026-02-02T14:28:50Z</time>
      </trkpt>
      <trkpt lat="48.60475" lon="2.05273">
        <ele>153.6</ele>
        <time>2026-02-02T14:28:51Z</time>
      </trkpt>
      <trkpt lat="48.60482" lon="2.05267">
        <ele>153</ele>
        <time>2026-02-02T14:28:52Z</time>
      </trkpt>
      <trkpt lat="48.60489" lon="2.05261">
        <ele>152.8</ele>
        <time>2026-02-02T14:28:53Z</time>
      </trkpt>
      <trkpt lat="48.60495" lon="2.05254">
        <ele>152.8</ele>
        <time>2026-02-02T14:28:54Z</time>
      </trkpt>
      <trkpt lat="48.60502" lon="2.05248">
        <ele>152.8</ele>
        <time>2026-02-02T14:28:55Z</time>
      </trkpt>
      <trkpt lat="48.60509" lon="2.05243">
        <ele>151.8</ele>
        <time>2026-02-02T14:28:56Z</time>
      </trkpt>
      <trkpt lat="48.60517" lon="2.05238">
        <ele>151</ele>
        <time>2026-02-02T14:28:57Z</time>
      </trkpt>
      <trkpt lat="48.60524" lon="2.05231">
        <ele>151</ele>
        <time>2026-02-02T14:28:58Z</time>
      </trkpt>
      <trkpt lat="48.60532" lon="2.05225">
        <ele>151</ele>
        <time>2026-02-02T14:28:59Z</time>
      </trkpt>
      <trkpt lat="48.60539" lon="2.05218">
        <ele>150</ele>
        <time>2026-02-02T14:29:00Z</time>
      </trkpt>
      <trkpt lat="48.60547" lon="2.05211">
        <ele>149.6</ele>
        <time>2026-02-02T14:29:01Z</time>
      </trkpt>
      <trkpt lat="48.60555" lon="2.05204">
        <ele>149.6</ele>
        <time>2026-02-02T14:29:02Z</time>
      </trkpt>
      <trkpt lat="48.60563" lon="2.05197">
        <ele>149.6</ele>
        <time>2026-02-02T14:29:03Z</time>
      </trkpt>
      <trkpt lat="48.60571" lon="2.0519">
        <ele>149</ele>
        <time>2026-02-02T14:29:04Z</time>
      </trkpt>
      <trkpt lat="48.60578" lon="2.05182">
        <ele>148.6</ele>
        <time>2026-02-02T14:29:05Z</time>
      </trkpt>
      <trkpt lat="48.60586" lon="2.05175">
        <ele>148.6</ele>
        <time>2026-02-02T14:29:06Z</time>
      </trkpt>
      <trkpt lat="48.60593" lon="2.05169">
        <ele>148.6</ele>
        <time>2026-02-02T14:29:07Z</time>
      </trkpt>
      <trkpt lat="48.606" lon="2.05162">
        <ele>148.6</ele>
        <time>2026-02-02T14:29:08Z</time>
      </trkpt>
      <trkpt lat="48.60608" lon="2.05154">
        <ele>148.8</ele>
        <time>2026-02-02T14:29:09Z</time>
      </trkpt>
      <trkpt lat="48.60615" lon="2.05147">
        <ele>148.8</ele>
        <time>2026-02-02T14:29:10Z</time>
      </trkpt>
      <trkpt lat="48.60622" lon="2.05141">
        <ele>148.8</ele>
        <time>2026-02-02T14:29:11Z</time>
      </trkpt>
      <trkpt lat="48.60628" lon="2.05134">
        <ele>149.8</ele>
        <time>2026-02-02T14:29:12Z</time>
      </trkpt>
      <trkpt lat="48.60635" lon="2.05129">
        <ele>150.4</ele>
        <time>2026-02-02T14:29:13Z</time>
      </trkpt>
      <trkpt lat="48.6064" lon="2.05123">
        <ele>150.4</ele>
        <time>2026-02-02T14:29:14Z</time>
      </trkpt>
      <trkpt lat="48.60646" lon="2.05118">
        <ele>150.4</ele>
        <time>2026-02-02T14:29:15Z</time>
      </trkpt>
      <trkpt lat="48.6065" lon="2.05112">
        <ele>150.4</ele>
        <time>2026-02-02T14:29:16Z</time>
      </trkpt>
      <trkpt lat="48.60655" lon="2.05108">
        <ele>150.6</ele>
        <time>2026-02-02T14:29:17Z</time>
      </trkpt>
      <trkpt lat="48.60659" lon="2.05103">
        <ele>150.6</ele>
        <time>2026-02-02T14:29:18Z</time>
      </trkpt>
      <trkpt lat="48.60663" lon="2.05099">
        <ele>150.6</ele>
        <time>2026-02-02T14:29:19Z</time>
      </trkpt>
      <trkpt lat="48.60668" lon="2.05095">
        <ele>151.6</ele>
        <time>2026-02-02T14:29:20Z</time>
      </trkpt>
      <trkpt lat="48.60672" lon="2.05092">
        <ele>152.2</ele>
        <time>2026-02-02T14:29:21Z</time>
      </trkpt>
      <trkpt lat="48.60676" lon="2.05089">
        <ele>152.2</ele>
        <time>2026-02-02T14:29:22Z</time>
      </trkpt>
      <trkpt lat="48.60679" lon="2.05086">
        <ele>152.2</ele>
        <time>2026-02-02T14:29:23Z</time>
      </trkpt>
      <trkpt lat="48.60682" lon="2.05083">
        <ele>152.8</ele>
        <time>2026-02-02T14:29:24Z</time>
      </trkpt>
      <trkpt lat="48.60685" lon="2.05081">
        <ele>153.2</ele>
        <time>2026-02-02T14:29:25Z</time>
      </trkpt>
      <trkpt lat="48.60688" lon="2.05079">
        <ele>153.2</ele>
        <time>2026-02-02T14:29:26Z</time>
      </trkpt>
      <trkpt lat="48.60691" lon="2.05077">
        <ele>153.2</ele>
        <time>2026-02-02T14:29:27Z</time>
      </trkpt>
      <trkpt lat="48.60694" lon="2.05075">
        <ele>153.8</ele>
        <time>2026-02-02T14:29:28Z</time>
      </trkpt>
      <trkpt lat="48.60697" lon="2.05073">
        <ele>153.8</ele>
        <time>2026-02-02T14:29:29Z</time>
      </trkpt>
      <trkpt lat="48.607" lon="2.05071">
        <ele>153.8</ele>
        <time>2026-02-02T14:29:30Z</time>
      </trkpt>
      <trkpt lat="48.60703" lon="2.05069">
        <ele>153.8</ele>
        <time>2026-02-02T14:29:31Z</time>
      </trkpt>
      <trkpt lat="48.60706" lon="2.05066">
        <ele>154.6</ele>
        <time>2026-02-02T14:29:32Z</time>
      </trkpt>
      <trkpt lat="48.60708" lon="2.05064">
        <ele>155</ele>
        <time>2026-02-02T14:29:33Z</time>
      </trkpt>
      <trkpt lat="48.60711" lon="2.05062">
        <ele>155</ele>
        <time>2026-02-02T14:29:34Z</time>
      </trkpt>
      <trkpt lat="48.60715" lon="2.0506">
        <ele>155</ele>
        <time>2026-02-02T14:29:35Z</time>
      </trkpt>
      <trkpt lat="48.60717" lon="2.05058">
        <ele>155</ele>
        <time>2026-02-02T14:29:36Z</time>
      </trkpt>
      <trkpt lat="48.6072" lon="2.05056">
        <ele>155.8</ele>
        <time>2026-02-02T14:29:37Z</time>
      </trkpt>
      <trkpt lat="48.60723" lon="2.05054">
        <ele>155.8</ele>
        <time>2026-02-02T14:29:38Z</time>
      </trkpt>
      <trkpt lat="48.60726" lon="2.05052">
        <ele>155.8</ele>
        <time>2026-02-02T14:29:39Z</time>
      </trkpt>
      <trkpt lat="48.60728" lon="2.05051">
        <ele>155.8</ele>
        <time>2026-02-02T14:29:40Z</time>
      </trkpt>
      <trkpt lat="48.60731" lon="2.05049">
        <ele>156</ele>
        <time>2026-02-02T14:29:41Z</time>
      </trkpt>
      <trkpt lat="48.60733" lon="2.05047">
        <ele>156</ele>
        <time>2026-02-02T14:29:42Z</time>
      </trkpt>
      <trkpt lat="48.60736" lon="2.05045">
        <ele>156</ele>
        <time>2026-02-02T14:29:43Z</time>
      </trkpt>
      <trkpt lat="48.60738" lon="2.05043">
        <ele>157</ele>
        <time>2026-02-02T14:29:44Z</time>
      </trkpt>
      <trkpt lat="48.60741" lon="2.05041">
        <ele>157.2</ele>
        <time>2026-02-02T14:29:45Z</time>
      </trkpt>
      <trkpt lat="48.60743" lon="2.05039">
        <ele>157.2</ele>
        <time>2026-02-02T14:29:46Z</time>
      </trkpt>
      <trkpt lat="48.60746" lon="2.05037">
        <ele>157.2</ele>
        <time>2026-02-02T14:29:47Z</time>
      </trkpt>
      <trkpt lat="48.60748" lon="2.05036">
        <ele>158</ele>
        <time>2026-02-02T14:29:48Z</time>
      </trkpt>
      <trkpt lat="48.60751" lon="2.05034">
        <ele>157.8</ele>
        <time>2026-02-02T14:29:49Z</time>
      </trkpt>
      <trkpt lat="48.60753" lon="2.05032">
        <ele>157.8</ele>
        <time>2026-02-02T14:29:50Z</time>
      </trkpt>
      <trkpt lat="48.60756" lon="2.0503">
        <ele>157.8</ele>
        <time>2026-02-02T14:29:51Z</time>
      </trkpt>
      <trkpt lat="48.60759" lon="2.05029">
        <ele>158.8</ele>
        <time>2026-02-02T14:29:52Z</time>
      </trkpt>
      <trkpt lat="48.60762" lon="2.05027">
        <ele>158.8</ele>
        <time>2026-02-02T14:29:53Z</time>
      </trkpt>
      <trkpt lat="48.60764" lon="2.05026">
        <ele>158.8</ele>
        <time>2026-02-02T14:29:54Z</time>
      </trkpt>
      <trkpt lat="48.60768" lon="2.05024">
        <ele>158.8</ele>
        <time>2026-02-02T14:29:55Z</time>
      </trkpt>
      <trkpt lat="48.6077" lon="2.05022">
        <ele>159.2</ele>
        <time>2026-02-02T14:29:56Z</time>
      </trkpt>
      <trkpt lat="48.60773" lon="2.0502">
        <ele>159.4</ele>
        <time>2026-02-02T14:29:57Z</time>
      </trkpt>
      <trkpt lat="48.60775" lon="2.05019">
        <ele>159.4</ele>
        <time>2026-02-02T14:29:58Z</time>
      </trkpt>
      <trkpt lat="48.60777" lon="2.05017">
        <ele>159.4</ele>
        <time>2026-02-02T14:29:59Z</time>
      </trkpt>
      <trkpt lat="48.6078" lon="2.05016">
        <ele>160.2</ele>
        <time>2026-02-02T14:30:00Z</time>
      </trkpt>
      <trkpt lat="48.60783" lon="2.05014">
        <ele>160.4</ele>
        <time>2026-02-02T14:30:01Z</time>
      </trkpt>
      <trkpt lat="48.60785" lon="2.05012">
        <ele>160.4</ele>
        <time>2026-02-02T14:30:02Z</time>
      </trkpt>
      <trkpt lat="48.60788" lon="2.0501">
        <ele>160.4</ele>
        <time>2026-02-02T14:30:03Z</time>
      </trkpt>
      <trkpt lat="48.60791" lon="2.05008">
        <ele>161.4</ele>
        <time>2026-02-02T14:30:04Z</time>
      </trkpt>
      <trkpt lat="48.60794" lon="2.05005">
        <ele>161.2</ele>
        <time>2026-02-02T14:30:05Z</time>
      </trkpt>
      <trkpt lat="48.60796" lon="2.05004">
        <ele>161.2</ele>
        <time>2026-02-02T14:30:06Z</time>
      </trkpt>
      <trkpt lat="48.60799" lon="2.05002">
        <ele>161.2</ele>
        <time>2026-02-02T14:30:07Z</time>
      </trkpt>
      <trkpt lat="48.60802" lon="2.05">
        <ele>161.2</ele>
        <time>2026-02-02T14:30:08Z</time>
      </trkpt>
      <trkpt lat="48.60804" lon="2.04998">
        <ele>162.6</ele>
        <time>2026-02-02T14:30:09Z</time>
      </trkpt>
      <trkpt lat="48.60807" lon="2.04996">
        <ele>162.6</ele>
        <time>2026-02-02T14:30:10Z</time>
      </trkpt>
      <trkpt lat="48.60809" lon="2.04994">
        <ele>162.6</ele>
        <time>2026-02-02T14:30:11Z</time>
      </trkpt>
      <trkpt lat="48.60813" lon="2.04991">
        <ele>163.2</ele>
        <time>2026-02-02T14:30:12Z</time>
      </trkpt>
      <trkpt lat="48.60815" lon="2.04988">
        <ele>163</ele>
        <time>2026-02-02T14:30:13Z</time>
      </trkpt>
      <trkpt lat="48.60818" lon="2.04986">
        <ele>163</ele>
        <time>2026-02-02T14:30:14Z</time>
      </trkpt>
      <trkpt lat="48.60821" lon="2.04984">
        <ele>163</ele>
        <time>2026-02-02T14:30:15Z</time>
      </trkpt>
      <trkpt lat="48.60823" lon="2.04982">
        <ele>164</ele>
        <time>2026-02-02T14:30:16Z</time>
      </trkpt>
      <trkpt lat="48.60826" lon="2.04979">
        <ele>164</ele>
        <time>2026-02-02T14:30:17Z</time>
      </trkpt>
      <trkpt lat="48.60829" lon="2.04977">
        <ele>164</ele>
        <time>2026-02-02T14:30:18Z</time>
      </trkpt>
      <trkpt lat="48.60831" lon="2.04974">
        <ele>164</ele>
        <time>2026-02-02T14:30:19Z</time>
      </trkpt>
      <trkpt lat="48.60834" lon="2.04971">
        <ele>165</ele>
        <time>2026-02-02T14:30:20Z</time>
      </trkpt>
      <trkpt lat="48.60837" lon="2.04969">
        <ele>164.6</ele>
        <time>2026-02-02T14:30:21Z</time>
      </trkpt>
      <trkpt lat="48.6084" lon="2.04966">
        <ele>164.6</ele>
        <time>2026-02-02T14:30:22Z</time>
      </trkpt>
      <trkpt lat="48.60843" lon="2.04963">
        <ele>164.6</ele>
        <time>2026-02-02T14:30:23Z</time>
      </trkpt>
      <trkpt lat="48.60845" lon="2.0496">
        <ele>164.6</ele>
        <time>2026-02-02T14:30:24Z</time>
      </trkpt>
      <trkpt lat="48.60848" lon="2.04957">
        <ele>165</ele>
        <time>2026-02-02T14:30:25Z</time>
      </trkpt>
      <trkpt lat="48.60851" lon="2.04953">
        <ele>165</ele>
        <time>2026-02-02T14:30:26Z</time>
      </trkpt>
      <trkpt lat="48.60854" lon="2.0495">
        <ele>165</ele>
        <time>2026-02-02T14:30:27Z</time>
      </trkpt>
      <trkpt lat="48.60856" lon="2.04947">
        <ele>165.2</ele>
        <time>2026-02-02T14:30:28Z</time>
      </trkpt>
      <trkpt lat="48.60859" lon="2.04944">
        <ele>165.8</ele>
        <time>2026-02-02T14:30:29Z</time>
      </trkpt>
      <trkpt lat="48.60862" lon="2.04942">
        <ele>165.8</ele>
        <time>2026-02-02T14:30:30Z</time>
      </trkpt>
      <trkpt lat="48.60864" lon="2.04938">
        <ele>165.8</ele>
        <time>2026-02-02T14:30:31Z</time>
      </trkpt>
      <trkpt lat="48.60867" lon="2.04935">
        <ele>165.8</ele>
        <time>2026-02-02T14:30:32Z</time>
      </trkpt>
      <trkpt lat="48.60871" lon="2.04932">
        <ele>165.8</ele>
        <time>2026-02-02T14:30:33Z</time>
      </trkpt>
      <trkpt lat="48.60874" lon="2.0493">
        <ele>165.8</ele>
        <time>2026-02-02T14:30:34Z</time>
      </trkpt>
      <trkpt lat="48.60878" lon="2.04928">
        <ele>165.8</ele>
        <time>2026-02-02T14:30:35Z</time>
      </trkpt>
      <trkpt lat="48.60881" lon="2.04924">
        <ele>166</ele>
        <time>2026-02-02T14:30:36Z</time>
      </trkpt>
      <trkpt lat="48.60885" lon="2.04921">
        <ele>166</ele>
        <time>2026-02-02T14:30:37Z</time>
      </trkpt>
      <trkpt lat="48.60889" lon="2.04917">
        <ele>166</ele>
        <time>2026-02-02T14:30:38Z</time>
      </trkpt>
      <trkpt lat="48.60894" lon="2.04914">
        <ele>166</ele>
        <time>2026-02-02T14:30:39Z</time>
      </trkpt>
      <trkpt lat="48.60898" lon="2.04913">
        <ele>165.6</ele>
        <time>2026-02-02T14:30:40Z</time>
      </trkpt>
      <trkpt lat="48.60903" lon="2.04909">
        <ele>165.6</ele>
        <time>2026-02-02T14:30:41Z</time>
      </trkpt>
      <trkpt lat="48.60907" lon="2.04906">
        <ele>165.6</ele>
        <time>2026-02-02T14:30:42Z</time>
      </trkpt>
      <trkpt lat="48.60911" lon="2.04902">
        <ele>165.6</ele>
        <time>2026-02-02T14:30:43Z</time>
      </trkpt>
      <trkpt lat="48.60916" lon="2.04898">
        <ele>165.2</ele>
        <time>2026-02-02T14:30:44Z</time>
      </trkpt>
      <trkpt lat="48.6092" lon="2.04893">
        <ele>165.4</ele>
        <time>2026-02-02T14:30:45Z</time>
      </trkpt>
      <trkpt lat="48.60925" lon="2.04888">
        <ele>165.4</ele>
        <time>2026-02-02T14:30:46Z</time>
      </trkpt>
      <trkpt lat="48.60929" lon="2.04883">
        <ele>165.4</ele>
        <time>2026-02-02T14:30:47Z</time>
      </trkpt>
      <trkpt lat="48.60934" lon="2.04877">
        <ele>165</ele>
        <time>2026-02-02T14:30:48Z</time>
      </trkpt>
      <trkpt lat="48.60938" lon="2.04871">
        <ele>165</ele>
        <time>2026-02-02T14:30:49Z</time>
      </trkpt>
      <trkpt lat="48.60944" lon="2.04866">
        <ele>165</ele>
        <time>2026-02-02T14:30:50Z</time>
      </trkpt>
      <trkpt lat="48.60948" lon="2.04862">
        <ele>165</ele>
        <time>2026-02-02T14:30:51Z</time>
      </trkpt>
      <trkpt lat="48.60953" lon="2.04855">
        <ele>164</ele>
        <time>2026-02-02T14:30:52Z</time>
      </trkpt>
      <trkpt lat="48.60958" lon="2.04848">
        <ele>163.6</ele>
        <time>2026-02-02T14:30:53Z</time>
      </trkpt>
      <trkpt lat="48.60963" lon="2.04841">
        <ele>163.6</ele>
        <time>2026-02-02T14:30:54Z</time>
      </trkpt>
      <trkpt lat="48.60969" lon="2.04835">
        <ele>163.6</ele>
        <time>2026-02-02T14:30:55Z</time>
      </trkpt>
      <trkpt lat="48.60974" lon="2.04827">
        <ele>162.6</ele>
        <time>2026-02-02T14:30:56Z</time>
      </trkpt>
      <trkpt lat="48.60979" lon="2.04819">
        <ele>162.4</ele>
        <time>2026-02-02T14:30:57Z</time>
      </trkpt>
      <trkpt lat="48.60986" lon="2.04812">
        <ele>162.4</ele>
        <time>2026-02-02T14:30:58Z</time>
      </trkpt>
      <trkpt lat="48.60991" lon="2.04805">
        <ele>162.4</ele>
        <time>2026-02-02T14:30:59Z</time>
      </trkpt>
      <trkpt lat="48.60998" lon="2.04797">
        <ele>161.4</ele>
        <time>2026-02-02T14:31:00Z</time>
      </trkpt>
      <trkpt lat="48.61004" lon="2.04788">
        <ele>161</ele>
        <time>2026-02-02T14:31:01Z</time>
      </trkpt>
      <trkpt lat="48.6101" lon="2.0478">
        <ele>161</ele>
        <time>2026-02-02T14:31:02Z</time>
      </trkpt>
      <trkpt lat="48.61016" lon="2.04769">
        <ele>161</ele>
        <time>2026-02-02T14:31:03Z</time>
      </trkpt>
      <trkpt lat="48.61022" lon="2.04759">
        <ele>161</ele>
        <time>2026-02-02T14:31:04Z</time>
      </trkpt>
      <trkpt lat="48.61029" lon="2.04749">
        <ele>159.4</ele>
        <time>2026-02-02T14:31:05Z</time>
      </trkpt>
      <trkpt lat="48.61036" lon="2.04739">
        <ele>159.4</ele>
        <time>2026-02-02T14:31:06Z</time>
      </trkpt>
      <trkpt lat="48.61042" lon="2.04729">
        <ele>159.4</ele>
        <time>2026-02-02T14:31:07Z</time>
      </trkpt>
      <trkpt lat="48.61048" lon="2.04719">
        <ele>158.4</ele>
        <time>2026-02-02T14:31:08Z</time>
      </trkpt>
      <trkpt lat="48.61055" lon="2.0471">
        <ele>158</ele>
        <time>2026-02-02T14:31:09Z</time>
      </trkpt>
      <trkpt lat="48.61062" lon="2.047">
        <ele>158</ele>
        <time>2026-02-02T14:31:10Z</time>
      </trkpt>
      <trkpt lat="48.61067" lon="2.04688">
        <ele>158</ele>
        <time>2026-02-02T14:31:11Z</time>
      </trkpt>
      <trkpt lat="48.61073" lon="2.04676">
        <ele>157</ele>
        <time>2026-02-02T14:31:12Z</time>
      </trkpt>
      <trkpt lat="48.61078" lon="2.04664">
        <ele>156.4</ele>
        <time>2026-02-02T14:31:13Z</time>
      </trkpt>
      <trkpt lat="48.61084" lon="2.04652">
        <ele>156.4</ele>
        <time>2026-02-02T14:31:14Z</time>
      </trkpt>
      <trkpt lat="48.61091" lon="2.04641">
        <ele>156.4</ele>
        <time>2026-02-02T14:31:15Z</time>
      </trkpt>
      <trkpt lat="48.61097" lon="2.04629">
        <ele>155.6</ele>
        <time>2026-02-02T14:31:16Z</time>
      </trkpt>
      <trkpt lat="48.61104" lon="2.04617">
        <ele>154.8</ele>
        <time>2026-02-02T14:31:17Z</time>
      </trkpt>
      <trkpt lat="48.61111" lon="2.04606">
        <ele>154.8</ele>
        <time>2026-02-02T14:31:18Z</time>
      </trkpt>
      <trkpt lat="48.61118" lon="2.04596">
        <ele>154.8</ele>
        <time>2026-02-02T14:31:19Z</time>
      </trkpt>
      <trkpt lat="48.61124" lon="2.04584">
        <ele>153.8</ele>
        <time>2026-02-02T14:31:20Z</time>
      </trkpt>
      <trkpt lat="48.61132" lon="2.04573">
        <ele>153</ele>
        <time>2026-02-02T14:31:21Z</time>
      </trkpt>
      <trkpt lat="48.61139" lon="2.04562">
        <ele>153</ele>
        <time>2026-02-02T14:31:22Z</time>
      </trkpt>
      <trkpt lat="48.61146" lon="2.04551">
        <ele>153</ele>
        <time>2026-02-02T14:31:23Z</time>
      </trkpt>
      <trkpt lat="48.61153" lon="2.04541">
        <ele>152</ele>
        <time>2026-02-02T14:31:24Z</time>
      </trkpt>
      <trkpt lat="48.61161" lon="2.04531">
        <ele>151.2</ele>
        <time>2026-02-02T14:31:25Z</time>
      </trkpt>
      <trkpt lat="48.61168" lon="2.04519">
        <ele>151.2</ele>
        <time>2026-02-02T14:31:26Z</time>
      </trkpt>
      <trkpt lat="48.61175" lon="2.04507">
        <ele>151.2</ele>
        <time>2026-02-02T14:31:27Z</time>
      </trkpt>
      <trkpt lat="48.61183" lon="2.04496">
        <ele>150.2</ele>
        <time>2026-02-02T14:31:28Z</time>
      </trkpt>
      <trkpt lat="48.61191" lon="2.04484">
        <ele>148.6</ele>
        <time>2026-02-02T14:31:29Z</time>
      </trkpt>
      <trkpt lat="48.61199" lon="2.04471">
        <ele>148.6</ele>
        <time>2026-02-02T14:31:30Z</time>
      </trkpt>
      <trkpt lat="48.61207" lon="2.04458">
        <ele>148.6</ele>
        <time>2026-02-02T14:31:31Z</time>
      </trkpt>
      <trkpt lat="48.61215" lon="2.04445">
        <ele>147.6</ele>
        <time>2026-02-02T14:31:32Z</time>
      </trkpt>
      <trkpt lat="48.61223" lon="2.04433">
        <ele>146.6</ele>
        <time>2026-02-02T14:31:33Z</time>
      </trkpt>
      <trkpt lat="48.61231" lon="2.0442">
        <ele>146.6</ele>
        <time>2026-02-02T14:31:34Z</time>
      </trkpt>
      <trkpt lat="48.61239" lon="2.04408">
        <ele>146.6</ele>
        <time>2026-02-02T14:31:35Z</time>
      </trkpt>
      <trkpt lat="48.61246" lon="2.04395">
        <ele>145.6</ele>
        <time>2026-02-02T14:31:36Z</time>
      </trkpt>
      <trkpt lat="48.61254" lon="2.04383">
        <ele>144</ele>
        <time>2026-02-02T14:31:37Z</time>
      </trkpt>
      <trkpt lat="48.61261" lon="2.04369">
        <ele>144</ele>
        <time>2026-02-02T14:31:38Z</time>
      </trkpt>
      <trkpt lat="48.6127" lon="2.04358">
        <ele>144</ele>
        <time>2026-02-02T14:31:39Z</time>
      </trkpt>
      <trkpt lat="48.61277" lon="2.04345">
        <ele>143</ele>
        <time>2026-02-02T14:31:40Z</time>
      </trkpt>
      <trkpt lat="48.61285" lon="2.04334">
        <ele>142.2</ele>
        <time>2026-02-02T14:31:41Z</time>
      </trkpt>
      <trkpt lat="48.61291" lon="2.04322">
        <ele>142.2</ele>
        <time>2026-02-02T14:31:42Z</time>
      </trkpt>
      <trkpt lat="48.61299" lon="2.04312">
        <ele>142.2</ele>
        <time>2026-02-02T14:31:43Z</time>
      </trkpt>
      <trkpt lat="48.61307" lon="2.04301">
        <ele>142.2</ele>
        <time>2026-02-02T14:31:44Z</time>
      </trkpt>
      <trkpt lat="48.61314" lon="2.04289">
        <ele>141.8</ele>
        <time>2026-02-02T14:31:45Z</time>
      </trkpt>
      <trkpt lat="48.61321" lon="2.04277">
        <ele>141.8</ele>
        <time>2026-02-02T14:31:46Z</time>
      </trkpt>
      <trkpt lat="48.61328" lon="2.04265">
        <ele>141.8</ele>
        <time>2026-02-02T14:31:47Z</time>
      </trkpt>
      <trkpt lat="48.61335" lon="2.04254">
        <ele>141.8</ele>
        <time>2026-02-02T14:31:48Z</time>
      </trkpt>
      <trkpt lat="48.61341" lon="2.04241">
        <ele>141.6</ele>
        <time>2026-02-02T14:31:49Z</time>
      </trkpt>
      <trkpt lat="48.61347" lon="2.04228">
        <ele>141.6</ele>
        <time>2026-02-02T14:31:50Z</time>
      </trkpt>
      <trkpt lat="48.61352" lon="2.04216">
        <ele>141.6</ele>
        <time>2026-02-02T14:31:51Z</time>
      </trkpt>
      <trkpt lat="48.61357" lon="2.04205">
        <ele>141.6</ele>
        <time>2026-02-02T14:31:52Z</time>
      </trkpt>
      <trkpt lat="48.61362" lon="2.04192">
        <ele>141</ele>
        <time>2026-02-02T14:31:53Z</time>
      </trkpt>
      <trkpt lat="48.61367" lon="2.04181">
        <ele>141</ele>
        <time>2026-02-02T14:31:54Z</time>
      </trkpt>
      <trkpt lat="48.61371" lon="2.04169">
        <ele>141</ele>
        <time>2026-02-02T14:31:55Z</time>
      </trkpt>
      <trkpt lat="48.61375" lon="2.04157">
        <ele>141.8</ele>
        <time>2026-02-02T14:31:56Z</time>
      </trkpt>
      <trkpt lat="48.61379" lon="2.04144">
        <ele>141.6</ele>
        <time>2026-02-02T14:31:57Z</time>
      </trkpt>
      <trkpt lat="48.61383" lon="2.04132">
        <ele>141.6</ele>
        <time>2026-02-02T14:31:58Z</time>
      </trkpt>
      <trkpt lat="48.61387" lon="2.04118">
        <ele>141.6</ele>
        <time>2026-02-02T14:31:59Z</time>
      </trkpt>
      <trkpt lat="48.6139" lon="2.04107">
        <ele>141.8</ele>
        <time>2026-02-02T14:32:00Z</time>
      </trkpt>
      <trkpt lat="48.61394" lon="2.04095">
        <ele>142</ele>
        <time>2026-02-02T14:32:01Z</time>
      </trkpt>
      <trkpt lat="48.61398" lon="2.04084">
        <ele>142</ele>
        <time>2026-02-02T14:32:02Z</time>
      </trkpt>
      <trkpt lat="48.61401" lon="2.04073">
        <ele>142</ele>
        <time>2026-02-02T14:32:03Z</time>
      </trkpt>
      <trkpt lat="48.61405" lon="2.04062">
        <ele>142</ele>
        <time>2026-02-02T14:32:04Z</time>
      </trkpt>
      <trkpt lat="48.61409" lon="2.04051">
        <ele>142.6</ele>
        <time>2026-02-02T14:32:05Z</time>
      </trkpt>
      <trkpt lat="48.61412" lon="2.04041">
        <ele>142.6</ele>
        <time>2026-02-02T14:32:06Z</time>
      </trkpt>
      <trkpt lat="48.61416" lon="2.0403">
        <ele>142.6</ele>
        <time>2026-02-02T14:32:07Z</time>
      </trkpt>
      <trkpt lat="48.61419" lon="2.0402">
        <ele>142.2</ele>
        <time>2026-02-02T14:32:08Z</time>
      </trkpt>
      <trkpt lat="48.61422" lon="2.04011">
        <ele>142.8</ele>
        <time>2026-02-02T14:32:09Z</time>
      </trkpt>
      <trkpt lat="48.61425" lon="2.04001">
        <ele>142.8</ele>
        <time>2026-02-02T14:32:10Z</time>
      </trkpt>
      <trkpt lat="48.61428" lon="2.03992">
        <ele>142.8</ele>
        <time>2026-02-02T14:32:11Z</time>
      </trkpt>
      <trkpt lat="48.61431" lon="2.03983">
        <ele>142.8</ele>
        <time>2026-02-02T14:32:12Z</time>
      </trkpt>
      <trkpt lat="48.61434" lon="2.03973">
        <ele>142.8</ele>
        <time>2026-02-02T14:32:13Z</time>
      </trkpt>
      <trkpt lat="48.61437" lon="2.03964">
        <ele>142.8</ele>
        <time>2026-02-02T14:32:14Z</time>
      </trkpt>
      <trkpt lat="48.6144" lon="2.03954">
        <ele>142.8</ele>
        <time>2026-02-02T14:32:15Z</time>
      </trkpt>
      <trkpt lat="48.61443" lon="2.03945">
        <ele>143.2</ele>
        <time>2026-02-02T14:32:16Z</time>
      </trkpt>
      <trkpt lat="48.61446" lon="2.03936">
        <ele>143.2</ele>
        <time>2026-02-02T14:32:17Z</time>
      </trkpt>
      <trkpt lat="48.61448" lon="2.03926">
        <ele>143.2</ele>
        <time>2026-02-02T14:32:18Z</time>
      </trkpt>
      <trkpt lat="48.61451" lon="2.03917">
        <ele>143.2</ele>
        <time>2026-02-02T14:32:19Z</time>
      </trkpt>
      <trkpt lat="48.61454" lon="2.03908">
        <ele>143.2</ele>
        <time>2026-02-02T14:32:20Z</time>
      </trkpt>
      <trkpt lat="48.61457" lon="2.03899">
        <ele>143.4</ele>
        <time>2026-02-02T14:32:21Z</time>
      </trkpt>
      <trkpt lat="48.6146" lon="2.03891">
        <ele>143.4</ele>
        <time>2026-02-02T14:32:22Z</time>
      </trkpt>
      <trkpt lat="48.61462" lon="2.03882">
        <ele>143.4</ele>
        <time>2026-02-02T14:32:23Z</time>
      </trkpt>
      <trkpt lat="48.61465" lon="2.03873">
        <ele>143.4</ele>
        <time>2026-02-02T14:32:24Z</time>
      </trkpt>
      <trkpt lat="48.61468" lon="2.03865">
        <ele>143.8</ele>
        <time>2026-02-02T14:32:25Z</time>
      </trkpt>
      <trkpt lat="48.61471" lon="2.03856">
        <ele>143.8</ele>
        <time>2026-02-02T14:32:26Z</time>
      </trkpt>
      <trkpt lat="48.61474" lon="2.03848">
        <ele>143.8</ele>
        <time>2026-02-02T14:32:27Z</time>
      </trkpt>
      <trkpt lat="48.61477" lon="2.0384">
        <ele>143.8</ele>
        <time>2026-02-02T14:32:28Z</time>
      </trkpt>
      <trkpt lat="48.6148" lon="2.03832">
        <ele>144.4</ele>
        <time>2026-02-02T14:32:29Z</time>
      </trkpt>
      <trkpt lat="48.61483" lon="2.03824">
        <ele>144.4</ele>
        <time>2026-02-02T14:32:30Z</time>
      </trkpt>
      <trkpt lat="48.61486" lon="2.03816">
        <ele>144.4</ele>
        <time>2026-02-02T14:32:31Z</time>
      </trkpt>
      <trkpt lat="48.61488" lon="2.03808">
        <ele>144.4</ele>
        <time>2026-02-02T14:32:32Z</time>
      </trkpt>
      <trkpt lat="48.61491" lon="2.03801">
        <ele>145</ele>
        <time>2026-02-02T14:32:33Z</time>
      </trkpt>
      <trkpt lat="48.61494" lon="2.03793">
        <ele>145</ele>
        <time>2026-02-02T14:32:34Z</time>
      </trkpt>
      <trkpt lat="48.61496" lon="2.03785">
        <ele>145</ele>
        <time>2026-02-02T14:32:35Z</time>
      </trkpt>
      <trkpt lat="48.61499" lon="2.03778">
        <ele>145</ele>
        <time>2026-02-02T14:32:36Z</time>
      </trkpt>
      <trkpt lat="48.61502" lon="2.0377">
        <ele>144.4</ele>
        <time>2026-02-02T14:32:37Z</time>
      </trkpt>
      <trkpt lat="48.61504" lon="2.03763">
        <ele>144.4</ele>
        <time>2026-02-02T14:32:38Z</time>
      </trkpt>
      <trkpt lat="48.61507" lon="2.03756">
        <ele>144.4</ele>
        <time>2026-02-02T14:32:39Z</time>
      </trkpt>
      <trkpt lat="48.6151" lon="2.03748">
        <ele>145.4</ele>
        <time>2026-02-02T14:32:40Z</time>
      </trkpt>
      <trkpt lat="48.61513" lon="2.03741">
        <ele>145.6</ele>
        <time>2026-02-02T14:32:41Z</time>
      </trkpt>
      <trkpt lat="48.61515" lon="2.03734">
        <ele>145.6</ele>
        <time>2026-02-02T14:32:42Z</time>
      </trkpt>
      <trkpt lat="48.61518" lon="2.03726">
        <ele>145.6</ele>
        <time>2026-02-02T14:32:43Z</time>
      </trkpt>
      <trkpt lat="48.6152" lon="2.03719">
        <ele>145.4</ele>
        <time>2026-02-02T14:32:44Z</time>
      </trkpt>
      <trkpt lat="48.61523" lon="2.03711">
        <ele>145.4</ele>
        <time>2026-02-02T14:32:45Z</time>
      </trkpt>
      <trkpt lat="48.61526" lon="2.03704">
        <ele>145.4</ele>
        <time>2026-02-02T14:32:46Z</time>
      </trkpt>
      <trkpt lat="48.61528" lon="2.03698">
        <ele>145.4</ele>
        <time>2026-02-02T14:32:47Z</time>
      </trkpt>
      <trkpt lat="48.61531" lon="2.0369">
        <ele>146</ele>
        <time>2026-02-02T14:32:48Z</time>
      </trkpt>
      <trkpt lat="48.61534" lon="2.03683">
        <ele>146</ele>
        <time>2026-02-02T14:32:49Z</time>
      </trkpt>
      <trkpt lat="48.61536" lon="2.03675">
        <ele>146</ele>
        <time>2026-02-02T14:32:50Z</time>
      </trkpt>
      <trkpt lat="48.61539" lon="2.03668">
        <ele>146</ele>
        <time>2026-02-02T14:32:51Z</time>
      </trkpt>
      <trkpt lat="48.61541" lon="2.0366">
        <ele>146</ele>
        <time>2026-02-02T14:32:52Z</time>
      </trkpt>
      <trkpt lat="48.61544" lon="2.03652">
        <ele>146.2</ele>
        <time>2026-02-02T14:32:53Z</time>
      </trkpt>
      <trkpt lat="48.61547" lon="2.03644">
        <ele>146.2</ele>
        <time>2026-02-02T14:32:54Z</time>
      </trkpt>
      <trkpt lat="48.6155" lon="2.03636">
        <ele>146.2</ele>
        <time>2026-02-02T14:32:55Z</time>
      </trkpt>
      <trkpt lat="48.61553" lon="2.03627">
        <ele>146.2</ele>
        <time>2026-02-02T14:32:56Z</time>
      </trkpt>
      <trkpt lat="48.61556" lon="2.03619">
        <ele>146.6</ele>
        <time>2026-02-02T14:32:57Z</time>
      </trkpt>
      <trkpt lat="48.61559" lon="2.03611">
        <ele>146.6</ele>
        <time>2026-02-02T14:32:58Z</time>
      </trkpt>
      <trkpt lat="48.61562" lon="2.03603">
        <ele>146.6</ele>
        <time>2026-02-02T14:32:59Z</time>
      </trkpt>
      <trkpt lat="48.61565" lon="2.03594">
        <ele>146.6</ele>
        <time>2026-02-02T14:33:00Z</time>
      </trkpt>
      <trkpt lat="48.61568" lon="2.03587">
        <ele>147.2</ele>
        <time>2026-02-02T14:33:01Z</time>
      </trkpt>
      <trkpt lat="48.61571" lon="2.03579">
        <ele>147.2</ele>
        <time>2026-02-02T14:33:02Z</time>
      </trkpt>
      <trkpt lat="48.61573" lon="2.03571">
        <ele>147.2</ele>
        <time>2026-02-02T14:33:03Z</time>
      </trkpt>
      <trkpt lat="48.61576" lon="2.03563">
        <ele>147.4</ele>
        <time>2026-02-02T14:33:04Z</time>
      </trkpt>
      <trkpt lat="48.61579" lon="2.03556">
        <ele>147.4</ele>
        <time>2026-02-02T14:33:05Z</time>
      </trkpt>
      <trkpt lat="48.61581" lon="2.03548">
        <ele>147.4</ele>
        <time>2026-02-02T14:33:06Z</time>
      </trkpt>
      <trkpt lat="48.61584" lon="2.03541">
        <ele>147.4</ele>
        <time>2026-02-02T14:33:07Z</time>
      </trkpt>
      <trkpt lat="48.61587" lon="2.03534">
        <ele>147.6</ele>
        <time>2026-02-02T14:33:08Z</time>
      </trkpt>
      <trkpt lat="48.61589" lon="2.03526">
        <ele>147.8</ele>
        <time>2026-02-02T14:33:09Z</time>
      </trkpt>
      <trkpt lat="48.61592" lon="2.03519">
        <ele>147.8</ele>
        <time>2026-02-02T14:33:10Z</time>
      </trkpt>
      <trkpt lat="48.61595" lon="2.03512">
        <ele>147.8</ele>
        <time>2026-02-02T14:33:11Z</time>
      </trkpt>
      <trkpt lat="48.61598" lon="2.03506">
        <ele>148</ele>
        <time>2026-02-02T14:33:12Z</time>
      </trkpt>
      <trkpt lat="48.61601" lon="2.03499">
        <ele>148.2</ele>
        <time>2026-02-02T14:33:13Z</time>
      </trkpt>
      <trkpt lat="48.61604" lon="2.03493">
        <ele>148.2</ele>
        <time>2026-02-02T14:33:14Z</time>
      </trkpt>
      <trkpt lat="48.61607" lon="2.03487">
        <ele>148.2</ele>
        <time>2026-02-02T14:33:15Z</time>
      </trkpt>
      <trkpt lat="48.61609" lon="2.0348">
        <ele>148.6</ele>
        <time>2026-02-02T14:33:16Z</time>
      </trkpt>
      <trkpt lat="48.61613" lon="2.03474">
        <ele>148.8</ele>
        <time>2026-02-02T14:33:17Z</time>
      </trkpt>
      <trkpt lat="48.61616" lon="2.03468">
        <ele>148.8</ele>
        <time>2026-02-02T14:33:18Z</time>
      </trkpt>
      <trkpt lat="48.61619" lon="2.03462">
        <ele>148.8</ele>
        <time>2026-02-02T14:33:19Z</time>
      </trkpt>
      <trkpt lat="48.61622" lon="2.03456">
        <ele>148.8</ele>
        <time>2026-02-02T14:33:20Z</time>
      </trkpt>
      <trkpt lat="48.61625" lon="2.03449">
        <ele>148.8</ele>
        <time>2026-02-02T14:33:21Z</time>
      </trkpt>
      <trkpt lat="48.61629" lon="2.03444">
        <ele>148.8</ele>
        <time>2026-02-02T14:33:22Z</time>
      </trkpt>
      <trkpt lat="48.61632" lon="2.03437">
        <ele>148.8</ele>
        <time>2026-02-02T14:33:23Z</time>
      </trkpt>
      <trkpt lat="48.61636" lon="2.03431">
        <ele>148.6</ele>
        <time>2026-02-02T14:33:24Z</time>
      </trkpt>
      <trkpt lat="48.61639" lon="2.03424">
        <ele>148.4</ele>
        <time>2026-02-02T14:33:25Z</time>
      </trkpt>
      <trkpt lat="48.61642" lon="2.03417">
        <ele>148.4</ele>
        <time>2026-02-02T14:33:26Z</time>
      </trkpt>
      <trkpt lat="48.61646" lon="2.0341">
        <ele>148.4</ele>
        <time>2026-02-02T14:33:27Z</time>
      </trkpt>
      <trkpt lat="48.61649" lon="2.03403">
        <ele>147.8</ele>
        <time>2026-02-02T14:33:28Z</time>
      </trkpt>
      <trkpt lat="48.61652" lon="2.03396">
        <ele>147.8</ele>
        <time>2026-02-02T14:33:29Z</time>
      </trkpt>
      <trkpt lat="48.61655" lon="2.0339">
        <ele>147.8</ele>
        <time>2026-02-02T14:33:30Z</time>
      </trkpt>
      <trkpt lat="48.61659" lon="2.03383">
        <ele>147.8</ele>
        <time>2026-02-02T14:33:31Z</time>
      </trkpt>
      <trkpt lat="48.61662" lon="2.03376">
        <ele>147.8</ele>
        <time>2026-02-02T14:33:32Z</time>
      </trkpt>
      <trkpt lat="48.61664" lon="2.03369">
        <ele>147.8</ele>
        <time>2026-02-02T14:33:33Z</time>
      </trkpt>
      <trkpt lat="48.61666" lon="2.03365">
        <ele>147.8</ele>
        <time>2026-02-02T14:33:34Z</time>
      </trkpt>
      <trkpt lat="48.61669" lon="2.03362">
        <ele>147.8</ele>
        <time>2026-02-02T14:33:35Z</time>
      </trkpt>
      <trkpt lat="48.61671" lon="2.03358">
        <ele>148</ele>
        <time>2026-02-02T14:33:36Z</time>
      </trkpt>
      <trkpt lat="48.61674" lon="2.03353">
        <ele>148</ele>
        <time>2026-02-02T14:33:37Z</time>
      </trkpt>
      <trkpt lat="48.61676" lon="2.03347">
        <ele>148</ele>
        <time>2026-02-02T14:33:38Z</time>
      </trkpt>
      <trkpt lat="48.61677" lon="2.03338">
        <ele>148</ele>
        <time>2026-02-02T14:33:39Z</time>
      </trkpt>
      <trkpt lat="48.61678" lon="2.0333">
        <ele>147.4</ele>
        <time>2026-02-02T14:33:40Z</time>
      </trkpt>
      <trkpt lat="48.61679" lon="2.0332">
        <ele>147.8</ele>
        <time>2026-02-02T14:33:41Z</time>
      </trkpt>
      <trkpt lat="48.61681" lon="2.03311">
        <ele>147.8</ele>
        <time>2026-02-02T14:33:42Z</time>
      </trkpt>
      <trkpt lat="48.61683" lon="2.03302">
        <ele>147.8</ele>
        <time>2026-02-02T14:33:43Z</time>
      </trkpt>
      <trkpt lat="48.61686" lon="2.03293">
        <ele>147.8</ele>
        <time>2026-02-02T14:33:44Z</time>
      </trkpt>
      <trkpt lat="48.61688" lon="2.03283">
        <ele>147.6</ele>
        <time>2026-02-02T14:33:45Z</time>
      </trkpt>
      <trkpt lat="48.6169" lon="2.03274">
        <ele>147.6</ele>
        <time>2026-02-02T14:33:46Z</time>
      </trkpt>
      <trkpt lat="48.61693" lon="2.03265">
        <ele>147.6</ele>
        <time>2026-02-02T14:33:47Z</time>
      </trkpt>
      <trkpt lat="48.61695" lon="2.03256">
        <ele>147.6</ele>
        <time>2026-02-02T14:33:48Z</time>
      </trkpt>
      <trkpt lat="48.61697" lon="2.03247">
        <ele>147</ele>
        <time>2026-02-02T14:33:49Z</time>
      </trkpt>
      <trkpt lat="48.61699" lon="2.03237">
        <ele>147</ele>
        <time>2026-02-02T14:33:50Z</time>
      </trkpt>
      <trkpt lat="48.61701" lon="2.03228">
        <ele>147</ele>
        <time>2026-02-02T14:33:51Z</time>
      </trkpt>
      <trkpt lat="48.61703" lon="2.03219">
        <ele>148</ele>
        <time>2026-02-02T14:33:52Z</time>
      </trkpt>
      <trkpt lat="48.61705" lon="2.03209">
        <ele>147.2</ele>
        <time>2026-02-02T14:33:53Z</time>
      </trkpt>
      <trkpt lat="48.61707" lon="2.032">
        <ele>147.2</ele>
        <time>2026-02-02T14:33:54Z</time>
      </trkpt>
      <trkpt lat="48.61709" lon="2.03191">
        <ele>147.2</ele>
        <time>2026-02-02T14:33:55Z</time>
      </trkpt>
      <trkpt lat="48.61711" lon="2.03182">
        <ele>147.2</ele>
        <time>2026-02-02T14:33:56Z</time>
      </trkpt>
      <trkpt lat="48.61712" lon="2.03172">
        <ele>147.2</ele>
        <time>2026-02-02T14:33:57Z</time>
      </trkpt>
      <trkpt lat="48.61714" lon="2.03163">
        <ele>147.2</ele>
        <time>2026-02-02T14:33:58Z</time>
      </trkpt>
      <trkpt lat="48.61715" lon="2.03154">
        <ele>147.2</ele>
        <time>2026-02-02T14:33:59Z</time>
      </trkpt>
      <trkpt lat="48.61716" lon="2.03145">
        <ele>147.2</ele>
        <time>2026-02-02T14:34:00Z</time>
      </trkpt>
      <trkpt lat="48.61717" lon="2.03135">
        <ele>148</ele>
        <time>2026-02-02T14:34:01Z</time>
      </trkpt>
      <trkpt lat="48.61718" lon="2.03126">
        <ele>148</ele>
        <time>2026-02-02T14:34:02Z</time>
      </trkpt>
      <trkpt lat="48.61719" lon="2.03117">
        <ele>148</ele>
        <time>2026-02-02T14:34:03Z</time>
      </trkpt>
      <trkpt lat="48.6172" lon="2.03108">
        <ele>148</ele>
        <time>2026-02-02T14:34:04Z</time>
      </trkpt>
      <trkpt lat="48.61721" lon="2.031">
        <ele>147.6</ele>
        <time>2026-02-02T14:34:05Z</time>
      </trkpt>
      <trkpt lat="48.61722" lon="2.03092">
        <ele>147.6</ele>
        <time>2026-02-02T14:34:06Z</time>
      </trkpt>
      <trkpt lat="48.61723" lon="2.03084">
        <ele>147.6</ele>
        <time>2026-02-02T14:34:07Z</time>
      </trkpt>
      <trkpt lat="48.61723" lon="2.03076">
        <ele>147.6</ele>
        <time>2026-02-02T14:34:08Z</time>
      </trkpt>
      <trkpt lat="48.61724" lon="2.03067">
        <ele>148</ele>
        <time>2026-02-02T14:34:09Z</time>
      </trkpt>
      <trkpt lat="48.61725" lon="2.03059">
        <ele>148</ele>
        <time>2026-02-02T14:34:10Z</time>
      </trkpt>
      <trkpt lat="48.61725" lon="2.03052">
        <ele>148</ele>
        <time>2026-02-02T14:34:11Z</time>
      </trkpt>
      <trkpt lat="48.61725" lon="2.03045">
        <ele>148.8</ele>
        <time>2026-02-02T14:34:12Z</time>
      </trkpt>
      <trkpt lat="48.61725" lon="2.03037">
        <ele>148.2</ele>
        <time>2026-02-02T14:34:13Z</time>
      </trkpt>
      <trkpt lat="48.61726" lon="2.03029">
        <ele>148.2</ele>
        <time>2026-02-02T14:34:14Z</time>
      </trkpt>
      <trkpt lat="48.61726" lon="2.03021">
        <ele>148.2</ele>
        <time>2026-02-02T14:34:15Z</time>
      </trkpt>
      <trkpt lat="48.61726" lon="2.03013">
        <ele>148</ele>
        <time>2026-02-02T14:34:16Z</time>
      </trkpt>
      <trkpt lat="48.61727" lon="2.03005">
        <ele>148.2</ele>
        <time>2026-02-02T14:34:17Z</time>
      </trkpt>
      <trkpt lat="48.61727" lon="2.02996">
        <ele>148.2</ele>
        <time>2026-02-02T14:34:18Z</time>
      </trkpt>
      <trkpt lat="48.61727" lon="2.02989">
        <ele>148.2</ele>
        <time>2026-02-02T14:34:19Z</time>
      </trkpt>
      <trkpt lat="48.61728" lon="2.02981">
        <ele>147.6</ele>
        <time>2026-02-02T14:34:20Z</time>
      </trkpt>
      <trkpt lat="48.61729" lon="2.02973">
        <ele>147.4</ele>
        <time>2026-02-02T14:34:21Z</time>
      </trkpt>
      <trkpt lat="48.61729" lon="2.02965">
        <ele>147.4</ele>
        <time>2026-02-02T14:34:22Z</time>
      </trkpt>
      <trkpt lat="48.6173" lon="2.02958">
        <ele>147.4</ele>
        <time>2026-02-02T14:34:23Z</time>
      </trkpt>
      <trkpt lat="48.61731" lon="2.02952">
        <ele>147.4</ele>
        <time>2026-02-02T14:34:24Z</time>
      </trkpt>
      <trkpt lat="48.61732" lon="2.02948">
        <ele>147.4</ele>
        <time>2026-02-02T14:34:25Z</time>
      </trkpt>
      <trkpt lat="48.61731" lon="2.02944">
        <ele>147.4</ele>
        <time>2026-02-02T14:34:26Z</time>
      </trkpt>
      <trkpt lat="48.61731" lon="2.0294">
        <ele>147.4</ele>
        <time>2026-02-02T14:34:27Z</time>
      </trkpt>
      <trkpt lat="48.61731" lon="2.02935">
        <ele>147.4</ele>
        <time>2026-02-02T14:34:28Z</time>
      </trkpt>
      <trkpt lat="48.61733" lon="2.02929">
        <ele>147.4</ele>
        <time>2026-02-02T14:34:29Z</time>
      </trkpt>
      <trkpt lat="48.61734" lon="2.02923">
        <ele>147.4</ele>
        <time>2026-02-02T14:34:30Z</time>
      </trkpt>
      <trkpt lat="48.61736" lon="2.02918">
        <ele>147.4</ele>
        <time>2026-02-02T14:34:31Z</time>
      </trkpt>
      <trkpt lat="48.61738" lon="2.02912">
        <ele>147.4</ele>
        <time>2026-02-02T14:34:32Z</time>
      </trkpt>
      <trkpt lat="48.6174" lon="2.02907">
        <ele>147.6</ele>
        <time>2026-02-02T14:34:33Z</time>
      </trkpt>
      <trkpt lat="48.61743" lon="2.02901">
        <ele>147.6</ele>
        <time>2026-02-02T14:34:34Z</time>
      </trkpt>
      <trkpt lat="48.61746" lon="2.02896">
        <ele>147.6</ele>
        <time>2026-02-02T14:34:35Z</time>
      </trkpt>
      <trkpt lat="48.61749" lon="2.0289">
        <ele>147.6</ele>
        <time>2026-02-02T14:34:36Z</time>
      </trkpt>
      <trkpt lat="48.61751" lon="2.02884">
        <ele>148.2</ele>
        <time>2026-02-02T14:34:37Z</time>
      </trkpt>
      <trkpt lat="48.61755" lon="2.02879">
        <ele>148.2</ele>
        <time>2026-02-02T14:34:38Z</time>
      </trkpt>
      <trkpt lat="48.61758" lon="2.02873">
        <ele>148.2</ele>
        <time>2026-02-02T14:34:39Z</time>
      </trkpt>
      <trkpt lat="48.61761" lon="2.02867">
        <ele>148.2</ele>
        <time>2026-02-02T14:34:40Z</time>
      </trkpt>
      <trkpt lat="48.61765" lon="2.02861">
        <ele>149.2</ele>
        <time>2026-02-02T14:34:41Z</time>
      </trkpt>
      <trkpt lat="48.61769" lon="2.02855">
        <ele>149.2</ele>
        <time>2026-02-02T14:34:42Z</time>
      </trkpt>
      <trkpt lat="48.61772" lon="2.0285">
        <ele>149.2</ele>
        <time>2026-02-02T14:34:43Z</time>
      </trkpt>
      <trkpt lat="48.61776" lon="2.02844">
        <ele>148.8</ele>
        <time>2026-02-02T14:34:44Z</time>
      </trkpt>
      <trkpt lat="48.61779" lon="2.02838">
        <ele>149.4</ele>
        <time>2026-02-02T14:34:45Z</time>
      </trkpt>
      <trkpt lat="48.61783" lon="2.02833">
        <ele>149.4</ele>
        <time>2026-02-02T14:34:46Z</time>
      </trkpt>
      <trkpt lat="48.61786" lon="2.02827">
        <ele>149.4</ele>
        <time>2026-02-02T14:34:47Z</time>
      </trkpt>
      <trkpt lat="48.6179" lon="2.02823">
        <ele>149.4</ele>
        <time>2026-02-02T14:34:48Z</time>
      </trkpt>
      <trkpt lat="48.61795" lon="2.02818">
        <ele>149.2</ele>
        <time>2026-02-02T14:34:49Z</time>
      </trkpt>
      <trkpt lat="48.61799" lon="2.02813">
        <ele>149.2</ele>
        <time>2026-02-02T14:34:50Z</time>
      </trkpt>
      <trkpt lat="48.61802" lon="2.02808">
        <ele>149.2</ele>
        <time>2026-02-02T14:34:51Z</time>
      </trkpt>
      <trkpt lat="48.61806" lon="2.02803">
        <ele>150</ele>
        <time>2026-02-02T14:34:52Z</time>
      </trkpt>
      <trkpt lat="48.61809" lon="2.02798">
        <ele>150.2</ele>
        <time>2026-02-02T14:34:53Z</time>
      </trkpt>
      <trkpt lat="48.61811" lon="2.02792">
        <ele>150.2</ele>
        <time>2026-02-02T14:34:54Z</time>
      </trkpt>
      <trkpt lat="48.61816" lon="2.02787">
        <ele>150.2</ele>
        <time>2026-02-02T14:34:55Z</time>
      </trkpt>
      <trkpt lat="48.6182" lon="2.02782">
        <ele>150.2</ele>
        <time>2026-02-02T14:34:56Z</time>
      </trkpt>
      <trkpt lat="48.61823" lon="2.02777">
        <ele>150.6</ele>
        <time>2026-02-02T14:34:57Z</time>
      </trkpt>
      <trkpt lat="48.61827" lon="2.02773">
        <ele>150.6</ele>
        <time>2026-02-02T14:34:58Z</time>
      </trkpt>
      <trkpt lat="48.61831" lon="2.02768">
        <ele>150.6</ele>
        <time>2026-02-02T14:34:59Z</time>
      </trkpt>
      <trkpt lat="48.61835" lon="2.02762">
        <ele>150.6</ele>
        <time>2026-02-02T14:35:00Z</time>
      </trkpt>
      <trkpt lat="48.61839" lon="2.02757">
        <ele>150.8</ele>
        <time>2026-02-02T14:35:01Z</time>
      </trkpt>
      <trkpt lat="48.61843" lon="2.02752">
        <ele>150.8</ele>
        <time>2026-02-02T14:35:02Z</time>
      </trkpt>
      <trkpt lat="48.61847" lon="2.02746">
        <ele>150.8</ele>
        <time>2026-02-02T14:35:03Z</time>
      </trkpt>
      <trkpt lat="48.61851" lon="2.02741">
        <ele>150.8</ele>
        <time>2026-02-02T14:35:04Z</time>
      </trkpt>
      <trkpt lat="48.61855" lon="2.02736">
        <ele>151</ele>
        <time>2026-02-02T14:35:05Z</time>
      </trkpt>
      <trkpt lat="48.61859" lon="2.02731">
        <ele>151</ele>
        <time>2026-02-02T14:35:06Z</time>
      </trkpt>
      <trkpt lat="48.61864" lon="2.02726">
        <ele>151</ele>
        <time>2026-02-02T14:35:07Z</time>
      </trkpt>
      <trkpt lat="48.61868" lon="2.0272">
        <ele>151</ele>
        <time>2026-02-02T14:35:08Z</time>
      </trkpt>
      <trkpt lat="48.61871" lon="2.02715">
        <ele>151</ele>
        <time>2026-02-02T14:35:09Z</time>
      </trkpt>
      <trkpt lat="48.61875" lon="2.02709">
        <ele>151</ele>
        <time>2026-02-02T14:35:10Z</time>
      </trkpt>
      <trkpt lat="48.61879" lon="2.02704">
        <ele>151</ele>
        <time>2026-02-02T14:35:11Z</time>
      </trkpt>
      <trkpt lat="48.61883" lon="2.02699">
        <ele>151</ele>
        <time>2026-02-02T14:35:12Z</time>
      </trkpt>
      <trkpt lat="48.61887" lon="2.02693">
        <ele>152.4</ele>
        <time>2026-02-02T14:35:13Z</time>
      </trkpt>
      <trkpt lat="48.61891" lon="2.02687">
        <ele>152.4</ele>
        <time>2026-02-02T14:35:14Z</time>
      </trkpt>
      <trkpt lat="48.61894" lon="2.02681">
        <ele>152.4</ele>
        <time>2026-02-02T14:35:15Z</time>
      </trkpt>
      <trkpt lat="48.61898" lon="2.02675">
        <ele>152.2</ele>
        <time>2026-02-02T14:35:16Z</time>
      </trkpt>
      <trkpt lat="48.61902" lon="2.02669">
        <ele>152.4</ele>
        <time>2026-02-02T14:35:17Z</time>
      </trkpt>
      <trkpt lat="48.61905" lon="2.02664">
        <ele>152.4</ele>
        <time>2026-02-02T14:35:18Z</time>
      </trkpt>
      <trkpt lat="48.61909" lon="2.02658">
        <ele>152.4</ele>
        <time>2026-02-02T14:35:19Z</time>
      </trkpt>
      <trkpt lat="48.61913" lon="2.02652">
        <ele>152.4</ele>
        <time>2026-02-02T14:35:20Z</time>
      </trkpt>
      <trkpt lat="48.61917" lon="2.02647">
        <ele>152.6</ele>
        <time>2026-02-02T14:35:21Z</time>
      </trkpt>
      <trkpt lat="48.61921" lon="2.02641">
        <ele>152.6</ele>
        <time>2026-02-02T14:35:22Z</time>
      </trkpt>
      <trkpt lat="48.61925" lon="2.02636">
        <ele>152.6</ele>
        <time>2026-02-02T14:35:23Z</time>
      </trkpt>
      <trkpt lat="48.61929" lon="2.02631">
        <ele>152.6</ele>
        <time>2026-02-02T14:35:24Z</time>
      </trkpt>
      <trkpt lat="48.61932" lon="2.02625">
        <ele>153</ele>
        <time>2026-02-02T14:35:25Z</time>
      </trkpt>
      <trkpt lat="48.61936" lon="2.0262">
        <ele>153</ele>
        <time>2026-02-02T14:35:26Z</time>
      </trkpt>
      <trkpt lat="48.61938" lon="2.02613">
        <ele>153</ele>
        <time>2026-02-02T14:35:27Z</time>
      </trkpt>
      <trkpt lat="48.6194" lon="2.02607">
        <ele>152.8</ele>
        <time>2026-02-02T14:35:28Z</time>
      </trkpt>
      <trkpt lat="48.61942" lon="2.02601">
        <ele>153.2</ele>
        <time>2026-02-02T14:35:29Z</time>
      </trkpt>
      <trkpt lat="48.61944" lon="2.02596">
        <ele>153.2</ele>
        <time>2026-02-02T14:35:30Z</time>
      </trkpt>
      <trkpt lat="48.61946" lon="2.02591">
        <ele>153.2</ele>
        <time>2026-02-02T14:35:31Z</time>
      </trkpt>
      <trkpt lat="48.61949" lon="2.02588">
        <ele>152.8</ele>
        <time>2026-02-02T14:35:32Z</time>
      </trkpt>
      <trkpt lat="48.61952" lon="2.02583">
        <ele>152.6</ele>
        <time>2026-02-02T14:35:33Z</time>
      </trkpt>
      <trkpt lat="48.61956" lon="2.02577">
        <ele>152.6</ele>
        <time>2026-02-02T14:35:34Z</time>
      </trkpt>
      <trkpt lat="48.61959" lon="2.02571">
        <ele>152.6</ele>
        <time>2026-02-02T14:35:35Z</time>
      </trkpt>
      <trkpt lat="48.61964" lon="2.02567">
        <ele>152.2</ele>
        <time>2026-02-02T14:35:36Z</time>
      </trkpt>
      <trkpt lat="48.6197" lon="2.02563">
        <ele>152</ele>
        <time>2026-02-02T14:35:37Z</time>
      </trkpt>
      <trkpt lat="48.61975" lon="2.0256">
        <ele>152</ele>
        <time>2026-02-02T14:35:38Z</time>
      </trkpt>
      <trkpt lat="48.61981" lon="2.02556">
        <ele>152</ele>
        <time>2026-02-02T14:35:39Z</time>
      </trkpt>
      <trkpt lat="48.61986" lon="2.02552">
        <ele>151.6</ele>
        <time>2026-02-02T14:35:40Z</time>
      </trkpt>
      <trkpt lat="48.61992" lon="2.02548">
        <ele>151.6</ele>
        <time>2026-02-02T14:35:41Z</time>
      </trkpt>
      <trkpt lat="48.61998" lon="2.02544">
        <ele>151.6</ele>
        <time>2026-02-02T14:35:42Z</time>
      </trkpt>
      <trkpt lat="48.62004" lon="2.0254">
        <ele>151.6</ele>
        <time>2026-02-02T14:35:43Z</time>
      </trkpt>
      <trkpt lat="48.6201" lon="2.02537">
        <ele>151.2</ele>
        <time>2026-02-02T14:35:44Z</time>
      </trkpt>
      <trkpt lat="48.62016" lon="2.02533">
        <ele>151</ele>
        <time>2026-02-02T14:35:45Z</time>
      </trkpt>
      <trkpt lat="48.62022" lon="2.02529">
        <ele>151</ele>
        <time>2026-02-02T14:35:46Z</time>
      </trkpt>
      <trkpt lat="48.62028" lon="2.02525">
        <ele>151</ele>
        <time>2026-02-02T14:35:47Z</time>
      </trkpt>
      <trkpt lat="48.62034" lon="2.02522">
        <ele>150</ele>
        <time>2026-02-02T14:35:48Z</time>
      </trkpt>
      <trkpt lat="48.6204" lon="2.02518">
        <ele>150.6</ele>
        <time>2026-02-02T14:35:49Z</time>
      </trkpt>
      <trkpt lat="48.62045" lon="2.02515">
        <ele>150.6</ele>
        <time>2026-02-02T14:35:50Z</time>
      </trkpt>
      <trkpt lat="48.62051" lon="2.02512">
        <ele>150.6</ele>
        <time>2026-02-02T14:35:51Z</time>
      </trkpt>
      <trkpt lat="48.62057" lon="2.0251">
        <ele>150.6</ele>
        <time>2026-02-02T14:35:52Z</time>
      </trkpt>
      <trkpt lat="48.62063" lon="2.0251">
        <ele>150.2</ele>
        <time>2026-02-02T14:35:53Z</time>
      </trkpt>
      <trkpt lat="48.6207" lon="2.02508">
        <ele>150.2</ele>
        <time>2026-02-02T14:35:54Z</time>
      </trkpt>
      <trkpt lat="48.62076" lon="2.02509">
        <ele>150.2</ele>
        <time>2026-02-02T14:35:55Z</time>
      </trkpt>
      <trkpt lat="48.6208" lon="2.0251">
        <ele>151</ele>
        <time>2026-02-02T14:35:56Z</time>
      </trkpt>
      <trkpt lat="48.62085" lon="2.02511">
        <ele>151</ele>
        <time>2026-02-02T14:35:57Z</time>
      </trkpt>
      <trkpt lat="48.62091" lon="2.02512">
        <ele>151</ele>
        <time>2026-02-02T14:35:58Z</time>
      </trkpt>
      <trkpt lat="48.62096" lon="2.02512">
        <ele>151</ele>
        <time>2026-02-02T14:35:59Z</time>
      </trkpt>
      <trkpt lat="48.62102" lon="2.02511">
        <ele>151</ele>
        <time>2026-02-02T14:36:00Z</time>
      </trkpt>
      <trkpt lat="48.62107" lon="2.02508">
        <ele>150.6</ele>
        <time>2026-02-02T14:36:01Z</time>
      </trkpt>
      <trkpt lat="48.62112" lon="2.02504">
        <ele>150.6</ele>
        <time>2026-02-02T14:36:02Z</time>
      </trkpt>
      <trkpt lat="48.62117" lon="2.025">
        <ele>150.6</ele>
        <time>2026-02-02T14:36:03Z</time>
      </trkpt>
      <trkpt lat="48.62122" lon="2.02495">
        <ele>151.6</ele>
        <time>2026-02-02T14:36:04Z</time>
      </trkpt>
      <trkpt lat="48.62127" lon="2.02491">
        <ele>152.2</ele>
        <time>2026-02-02T14:36:05Z</time>
      </trkpt>
      <trkpt lat="48.62132" lon="2.02487">
        <ele>152.2</ele>
        <time>2026-02-02T14:36:06Z</time>
      </trkpt>
      <trkpt lat="48.62136" lon="2.02482">
        <ele>152.2</ele>
        <time>2026-02-02T14:36:07Z</time>
      </trkpt>
      <trkpt lat="48.6214" lon="2.02478">
        <ele>151.8</ele>
        <time>2026-02-02T14:36:08Z</time>
      </trkpt>
      <trkpt lat="48.62145" lon="2.02476">
        <ele>152.2</ele>
        <time>2026-02-02T14:36:09Z</time>
      </trkpt>
      <trkpt lat="48.62149" lon="2.02472">
        <ele>152.2</ele>
        <time>2026-02-02T14:36:10Z</time>
      </trkpt>
      <trkpt lat="48.62153" lon="2.02467">
        <ele>152.2</ele>
        <time>2026-02-02T14:36:11Z</time>
      </trkpt>
      <trkpt lat="48.62157" lon="2.02462">
        <ele>151.4</ele>
        <time>2026-02-02T14:36:12Z</time>
      </trkpt>
      <trkpt lat="48.6216" lon="2.02457">
        <ele>152.2</ele>
        <time>2026-02-02T14:36:13Z</time>
      </trkpt>
      <trkpt lat="48.62164" lon="2.02451">
        <ele>152.2</ele>
        <time>2026-02-02T14:36:14Z</time>
      </trkpt>
      <trkpt lat="48.62167" lon="2.02446">
        <ele>152.2</ele>
        <time>2026-02-02T14:36:15Z</time>
      </trkpt>
      <trkpt lat="48.62171" lon="2.02441">
        <ele>152.2</ele>
        <time>2026-02-02T14:36:16Z</time>
      </trkpt>
      <trkpt lat="48.62175" lon="2.02436">
        <ele>151.6</ele>
        <time>2026-02-02T14:36:17Z</time>
      </trkpt>
      <trkpt lat="48.6218" lon="2.0243">
        <ele>151.6</ele>
        <time>2026-02-02T14:36:18Z</time>
      </trkpt>
      <trkpt lat="48.62184" lon="2.02424">
        <ele>151.6</ele>
        <time>2026-02-02T14:36:19Z</time>
      </trkpt>
      <trkpt lat="48.62188" lon="2.02417">
        <ele>151.6</ele>
        <time>2026-02-02T14:36:20Z</time>
      </trkpt>
      <trkpt lat="48.62191" lon="2.0241">
        <ele>151.6</ele>
        <time>2026-02-02T14:36:21Z</time>
      </trkpt>
      <trkpt lat="48.62192" lon="2.02401">
        <ele>151.6</ele>
        <time>2026-02-02T14:36:22Z</time>
      </trkpt>
      <trkpt lat="48.62193" lon="2.02392">
        <ele>151.6</ele>
        <time>2026-02-02T14:36:23Z</time>
      </trkpt>
      <trkpt lat="48.62194" lon="2.02383">
        <ele>151.6</ele>
        <time>2026-02-02T14:36:24Z</time>
      </trkpt>
      <trkpt lat="48.62195" lon="2.02375">
        <ele>152.2</ele>
        <time>2026-02-02T14:36:25Z</time>
      </trkpt>
      <trkpt lat="48.62197" lon="2.02366">
        <ele>152.2</ele>
        <time>2026-02-02T14:36:26Z</time>
      </trkpt>
      <trkpt lat="48.62198" lon="2.02358">
        <ele>152.2</ele>
        <time>2026-02-02T14:36:27Z</time>
      </trkpt>
      <trkpt lat="48.62199" lon="2.02349">
        <ele>152.2</ele>
        <time>2026-02-02T14:36:28Z</time>
      </trkpt>
      <trkpt lat="48.62199" lon="2.02341">
        <ele>152.8</ele>
        <time>2026-02-02T14:36:29Z</time>
      </trkpt>
      <trkpt lat="48.622" lon="2.02333">
        <ele>152.8</ele>
        <time>2026-02-02T14:36:30Z</time>
      </trkpt>
      <trkpt lat="48.622" lon="2.02325">
        <ele>152.8</ele>
        <time>2026-02-02T14:36:31Z</time>
      </trkpt>
      <trkpt lat="48.62201" lon="2.02316">
        <ele>152.2</ele>
        <time>2026-02-02T14:36:32Z</time>
      </trkpt>
      <trkpt lat="48.622" lon="2.02307">
        <ele>152.2</ele>
        <time>2026-02-02T14:36:33Z</time>
      </trkpt>
      <trkpt lat="48.622" lon="2.02298">
        <ele>152.2</ele>
        <time>2026-02-02T14:36:34Z</time>
      </trkpt>
      <trkpt lat="48.622" lon="2.02289">
        <ele>152.2</ele>
        <time>2026-02-02T14:36:35Z</time>
      </trkpt>
      <trkpt lat="48.62199" lon="2.02279">
        <ele>152.2</ele>
        <time>2026-02-02T14:36:36Z</time>
      </trkpt>
      <trkpt lat="48.62199" lon="2.0227">
        <ele>152.2</ele>
        <time>2026-02-02T14:36:37Z</time>
      </trkpt>
      <trkpt lat="48.62199" lon="2.0226">
        <ele>152.2</ele>
        <time>2026-02-02T14:36:38Z</time>
      </trkpt>
      <trkpt lat="48.62198" lon="2.0225">
        <ele>152.2</ele>
        <time>2026-02-02T14:36:39Z</time>
      </trkpt>
      <trkpt lat="48.62198" lon="2.0224">
        <ele>152.4</ele>
        <time>2026-02-02T14:36:40Z</time>
      </trkpt>
      <trkpt lat="48.62198" lon="2.0223">
        <ele>152.4</ele>
        <time>2026-02-02T14:36:41Z</time>
      </trkpt>
      <trkpt lat="48.62198" lon="2.0222">
        <ele>152.4</ele>
        <time>2026-02-02T14:36:42Z</time>
      </trkpt>
      <trkpt lat="48.62198" lon="2.0221">
        <ele>152.4</ele>
        <time>2026-02-02T14:36:43Z</time>
      </trkpt>
      <trkpt lat="48.62198" lon="2.022">
        <ele>152.4</ele>
        <time>2026-02-02T14:36:44Z</time>
      </trkpt>
      <trkpt lat="48.62199" lon="2.0219">
        <ele>152.4</ele>
        <time>2026-02-02T14:36:45Z</time>
      </trkpt>
      <trkpt lat="48.622" lon="2.02179">
        <ele>152.4</ele>
        <time>2026-02-02T14:36:46Z</time>
      </trkpt>
      <trkpt lat="48.622" lon="2.02169">
        <ele>152.4</ele>
        <time>2026-02-02T14:36:47Z</time>
      </trkpt>
      <trkpt lat="48.62201" lon="2.02158">
        <ele>152.8</ele>
        <time>2026-02-02T14:36:48Z</time>
      </trkpt>
      <trkpt lat="48.62201" lon="2.02148">
        <ele>152.8</ele>
        <time>2026-02-02T14:36:49Z</time>
      </trkpt>
      <trkpt lat="48.62202" lon="2.02137">
        <ele>152.8</ele>
        <time>2026-02-02T14:36:50Z</time>
      </trkpt>
      <trkpt lat="48.62203" lon="2.02127">
        <ele>152.8</ele>
        <time>2026-02-02T14:36:51Z</time>
      </trkpt>
      <trkpt lat="48.62205" lon="2.02117">
        <ele>152.8</ele>
        <time>2026-02-02T14:36:52Z</time>
      </trkpt>
      <trkpt lat="48.62206" lon="2.02107">
        <ele>152.8</ele>
        <time>2026-02-02T14:36:53Z</time>
      </trkpt>
      <trkpt lat="48.62207" lon="2.02096">
        <ele>152.8</ele>
        <time>2026-02-02T14:36:54Z</time>
      </trkpt>
      <trkpt lat="48.62209" lon="2.02086">
        <ele>152.8</ele>
        <time>2026-02-02T14:36:55Z</time>
      </trkpt>
      <trkpt lat="48.62211" lon="2.02077">
        <ele>152.8</ele>
        <time>2026-02-02T14:36:56Z</time>
      </trkpt>
      <trkpt lat="48.62212" lon="2.02067">
        <ele>152.4</ele>
        <time>2026-02-02T14:36:57Z</time>
      </trkpt>
      <trkpt lat="48.62213" lon="2.02056">
        <ele>152.4</ele>
        <time>2026-02-02T14:36:58Z</time>
      </trkpt>
      <trkpt lat="48.62214" lon="2.02046">
        <ele>152.4</ele>
        <time>2026-02-02T14:36:59Z</time>
      </trkpt>
      <trkpt lat="48.62216" lon="2.02036">
        <ele>152.8</ele>
        <time>2026-02-02T14:37:00Z</time>
      </trkpt>
      <trkpt lat="48.62217" lon="2.02026">
        <ele>152.8</ele>
        <time>2026-02-02T14:37:01Z</time>
      </trkpt>
      <trkpt lat="48.62218" lon="2.02017">
        <ele>152.8</ele>
        <time>2026-02-02T14:37:02Z</time>
      </trkpt>
      <trkpt lat="48.6222" lon="2.02007">
        <ele>152.8</ele>
        <time>2026-02-02T14:37:03Z</time>
      </trkpt>
      <trkpt lat="48.62221" lon="2.01998">
        <ele>153</ele>
        <time>2026-02-02T14:37:04Z</time>
      </trkpt>
      <trkpt lat="48.62222" lon="2.01988">
        <ele>153</ele>
        <time>2026-02-02T14:37:05Z</time>
      </trkpt>
      <trkpt lat="48.62223" lon="2.01978">
        <ele>153</ele>
        <time>2026-02-02T14:37:06Z</time>
      </trkpt>
      <trkpt lat="48.62224" lon="2.01968">
        <ele>153</ele>
        <time>2026-02-02T14:37:07Z</time>
      </trkpt>
      <trkpt lat="48.62225" lon="2.01957">
        <ele>153</ele>
        <time>2026-02-02T14:37:08Z</time>
      </trkpt>
      <trkpt lat="48.62226" lon="2.01947">
        <ele>153.2</ele>
        <time>2026-02-02T14:37:09Z</time>
      </trkpt>
      <trkpt lat="48.62227" lon="2.01937">
        <ele>153.2</ele>
        <time>2026-02-02T14:37:10Z</time>
      </trkpt>
      <trkpt lat="48.62228" lon="2.01927">
        <ele>153.2</ele>
        <time>2026-02-02T14:37:11Z</time>
      </trkpt>
      <trkpt lat="48.6223" lon="2.01917">
        <ele>153.2</ele>
        <time>2026-02-02T14:37:12Z</time>
      </trkpt>
      <trkpt lat="48.62233" lon="2.01908">
        <ele>153.6</ele>
        <time>2026-02-02T14:37:13Z</time>
      </trkpt>
      <trkpt lat="48.62237" lon="2.01901">
        <ele>153.6</ele>
        <time>2026-02-02T14:37:14Z</time>
      </trkpt>
      <trkpt lat="48.62242" lon="2.01897">
        <ele>153.6</ele>
        <time>2026-02-02T14:37:15Z</time>
      </trkpt>
      <trkpt lat="48.62246" lon="2.01893">
        <ele>153.6</ele>
        <time>2026-02-02T14:37:16Z</time>
      </trkpt>
      <trkpt lat="48.6225" lon="2.01888">
        <ele>154.2</ele>
        <time>2026-02-02T14:37:17Z</time>
      </trkpt>
      <trkpt lat="48.62252" lon="2.01881">
        <ele>154.2</ele>
        <time>2026-02-02T14:37:18Z</time>
      </trkpt>
      <trkpt lat="48.62252" lon="2.01873">
        <ele>154.2</ele>
        <time>2026-02-02T14:37:19Z</time>
      </trkpt>
      <trkpt lat="48.62249" lon="2.01867">
        <ele>154.2</ele>
        <time>2026-02-02T14:37:20Z</time>
      </trkpt>
      <trkpt lat="48.62248" lon="2.0186">
        <ele>154</ele>
        <time>2026-02-02T14:37:21Z</time>
      </trkpt>
      <trkpt lat="48.62249" lon="2.01854">
        <ele>154</ele>
        <time>2026-02-02T14:37:22Z</time>
      </trkpt>
      <trkpt lat="48.62252" lon="2.01848">
        <ele>154</ele>
        <time>2026-02-02T14:37:23Z</time>
      </trkpt>
      <trkpt lat="48.62256" lon="2.01844">
        <ele>153.2</ele>
        <time>2026-02-02T14:37:24Z</time>
      </trkpt>
      <trkpt lat="48.62259" lon="2.01841">
        <ele>153.6</ele>
        <time>2026-02-02T14:37:25Z</time>
      </trkpt>
      <trkpt lat="48.62261" lon="2.01838">
        <ele>153.6</ele>
        <time>2026-02-02T14:37:26Z</time>
      </trkpt>
      <trkpt lat="48.62262" lon="2.01834">
        <ele>153.6</ele>
        <time>2026-02-02T14:37:27Z</time>
      </trkpt>
      <trkpt lat="48.62262" lon="2.01832">
        <ele>154.4</ele>
        <time>2026-02-02T14:37:28Z</time>
      </trkpt>
      <trkpt lat="48.62262" lon="2.01832">
        <ele>154.2</ele>
        <time>2026-02-02T14:37:29Z</time>
      </trkpt>
      <trkpt lat="48.62262" lon="2.01832">
        <ele>154.2</ele>
        <time>2026-02-02T14:37:30Z</time>
      </trkpt>
    </trkseg>
  </trk>
</gpx>